<?xml version='1.0' encoding='UTF-8'?><gpx version="1.1" creator="JPX - https://github.com/jenetics/jpx" xmlns="http://www.topografix.com/GPX/1/1"><trk><trkseg><trkpt lat="44.2824418" lon="8.433756"><ele>7.999999999999999</ele><time>2026-04-04T08:39:59.477Z</time></trkpt><trkpt lat="44.2823879" lon="8.433663"><ele>8.0</ele><time>2026-04-04T08:40:02.364Z</time></trkpt><trkpt lat="44.2824154" lon="8.4335771"><ele>8.0</ele><time>2026-04-04T08:40:04.396Z</time></trkpt><trkpt lat="44.2824452" lon="8.4334803"><ele>8.0</ele><time>2026-04-04T08:40:06.456Z</time></trkpt><trkpt lat="44.2824551" lon="8.4333893"><ele>7.999999999999999</ele><time>2026-04-04T08:40:10.351Z</time></trkpt><trkpt lat="44.2824009" lon="8.4333408"><ele>8.0</ele><time>2026-04-04T08:40:32.363Z</time></trkpt><trkpt lat="44.2825112" lon="8.4332631"><ele>8.0</ele><time>2026-04-04T08:40:35.413Z</time></trkpt><trkpt lat="44.2826403" lon="8.4332147"><ele>8.0</ele><time>2026-04-04T08:40:36.429Z</time></trkpt><trkpt lat="44.2825653" lon="8.4330819"><ele>8.0</ele><time>2026-04-04T08:40:38.363Z</time></trkpt><trkpt lat="44.2823755" lon="8.4328732"><ele>7.800000000000001</ele><time>2026-04-04T08:40:40.364Z</time></trkpt><trkpt lat="44.2823156" lon="8.4327755"><ele>7.6000000000000005</ele><time>2026-04-04T08:40:41.364Z</time></trkpt><trkpt lat="44.2823015" lon="8.4326681"><ele>7.3999999999999995</ele><time>2026-04-04T08:40:43.363Z</time></trkpt><trkpt lat="44.2823719" lon="8.4325306"><ele>7.199999999999999</ele><time>2026-04-04T08:40:49.364Z</time></trkpt><trkpt lat="44.2824491" lon="8.4324589"><ele>7.0</ele><time>2026-04-04T08:40:50.364Z</time></trkpt><trkpt lat="44.2825424" lon="8.432395"><ele>7.0</ele><time>2026-04-04T08:40:51.364Z</time></trkpt><trkpt lat="44.2826377" lon="8.4323337"><ele>6.999999999999999</ele><time>2026-04-04T08:40:52.364Z</time></trkpt><trkpt lat="44.2827284" lon="8.43227"><ele>6.999999999999999</ele><time>2026-04-04T08:40:53.364Z</time></trkpt><trkpt lat="44.2828188" lon="8.432206"><ele>7.0</ele><time>2026-04-04T08:40:54.364Z</time></trkpt><trkpt lat="44.2829072" lon="8.4321437"><ele>7.0</ele><time>2026-04-04T08:40:55.364Z</time></trkpt><trkpt lat="44.2830078" lon="8.4320796"><ele>7.0</ele><time>2026-04-04T08:40:56.364Z</time></trkpt><trkpt lat="44.2831134" lon="8.4320116"><ele>7.0</ele><time>2026-04-04T08:40:57.365Z</time></trkpt><trkpt lat="44.2832219" lon="8.431939"><ele>7.0</ele><time>2026-04-04T08:40:58.364Z</time></trkpt><trkpt lat="44.2833369" lon="8.4318545"><ele>7.0</ele><time>2026-04-04T08:40:59.364Z</time></trkpt><trkpt lat="44.2834626" lon="8.4317482"><ele>7.0</ele><time>2026-04-04T08:41:00.364Z</time></trkpt><trkpt lat="44.2835956" lon="8.4316215"><ele>7.0</ele><time>2026-04-04T08:41:01.364Z</time></trkpt><trkpt lat="44.2837224" lon="8.4314757"><ele>7.0</ele><time>2026-04-04T08:41:02.364Z</time></trkpt><trkpt lat="44.283824" lon="8.4313405"><ele>7.199999999999999</ele><time>2026-04-04T08:41:03.364Z</time></trkpt><trkpt lat="44.2839061" lon="8.4312173"><ele>7.3999999999999995</ele><time>2026-04-04T08:41:04.364Z</time></trkpt><trkpt lat="44.2839755" lon="8.4310983"><ele>7.6000000000000005</ele><time>2026-04-04T08:41:05.365Z</time></trkpt><trkpt lat="44.2840378" lon="8.4309798"><ele>7.800000000000001</ele><time>2026-04-04T08:41:06.364Z</time></trkpt><trkpt lat="44.284096" lon="8.4308701"><ele>8.0</ele><time>2026-04-04T08:41:07.364Z</time></trkpt><trkpt lat="44.2841473" lon="8.4307719"><ele>8.4</ele><time>2026-04-04T08:41:08.364Z</time></trkpt><trkpt lat="44.2841885" lon="8.4306886"><ele>8.8</ele><time>2026-04-04T08:41:09.365Z</time></trkpt><trkpt lat="44.2842533" lon="8.43058"><ele>9.2</ele><time>2026-04-04T08:41:11.365Z</time></trkpt><trkpt lat="44.2843284" lon="8.4305239"><ele>9.6</ele><time>2026-04-04T08:41:14.365Z</time></trkpt><trkpt lat="44.2844353" lon="8.4305914"><ele>10.0</ele><time>2026-04-04T08:41:16.365Z</time></trkpt><trkpt lat="44.2845141" lon="8.4306894"><ele>10.0</ele><time>2026-04-04T08:41:17.365Z</time></trkpt><trkpt lat="44.284598" lon="8.4308054"><ele>10.0</ele><time>2026-04-04T08:41:18.365Z</time></trkpt><trkpt lat="44.2846795" lon="8.4309366"><ele>10.0</ele><time>2026-04-04T08:41:19.364Z</time></trkpt><trkpt lat="44.284767" lon="8.4310857"><ele>10.0</ele><time>2026-04-04T08:41:20.365Z</time></trkpt><trkpt lat="44.2848619" lon="8.4312376"><ele>9.0</ele><time>2026-04-04T08:41:21.365Z</time></trkpt><trkpt lat="44.2849664" lon="8.4313961"><ele>8.0</ele><time>2026-04-04T08:41:22.365Z</time></trkpt><trkpt lat="44.2850716" lon="8.4315523"><ele>7.0</ele><time>2026-04-04T08:41:23.365Z</time></trkpt><trkpt lat="44.2851744" lon="8.4317048"><ele>7.0</ele><time>2026-04-04T08:41:24.365Z</time></trkpt><trkpt lat="44.2852741" lon="8.4318536"><ele>7.0</ele><time>2026-04-04T08:41:25.366Z</time></trkpt><trkpt lat="44.2853668" lon="8.4320007"><ele>7.0</ele><time>2026-04-04T08:41:26.365Z</time></trkpt><trkpt lat="44.285451" lon="8.432142"><ele>7.0</ele><time>2026-04-04T08:41:27.365Z</time></trkpt><trkpt lat="44.2855308" lon="8.4322687"><ele>7.199999999999999</ele><time>2026-04-04T08:41:28.365Z</time></trkpt><trkpt lat="44.2856085" lon="8.4323896"><ele>7.3999999999999995</ele><time>2026-04-04T08:41:29.365Z</time></trkpt><trkpt lat="44.2856822" lon="8.4325063"><ele>7.6000000000000005</ele><time>2026-04-04T08:41:30.365Z</time></trkpt><trkpt lat="44.285745" lon="8.4326102"><ele>7.800000000000001</ele><time>2026-04-04T08:41:31.365Z</time></trkpt><trkpt lat="44.2858023" lon="8.4327041"><ele>8.0</ele><time>2026-04-04T08:41:32.365Z</time></trkpt><trkpt lat="44.2858539" lon="8.4327884"><ele>8.0</ele><time>2026-04-04T08:41:33.365Z</time></trkpt><trkpt lat="44.2859011" lon="8.4328617"><ele>8.0</ele><time>2026-04-04T08:41:34.365Z</time></trkpt><trkpt lat="44.2859645" lon="8.432966"><ele>8.0</ele><time>2026-04-04T08:41:36.365Z</time></trkpt><trkpt lat="44.2860091" lon="8.4330942"><ele>8.0</ele><time>2026-04-04T08:41:39.365Z</time></trkpt><trkpt lat="44.2859451" lon="8.4332782"><ele>8.0</ele><time>2026-04-04T08:41:41.365Z</time></trkpt><trkpt lat="44.2858602" lon="8.4333771"><ele>8.0</ele><time>2026-04-04T08:41:42.365Z</time></trkpt><trkpt lat="44.2857609" lon="8.4334759"><ele>8.0</ele><time>2026-04-04T08:41:43.365Z</time></trkpt><trkpt lat="44.2856543" lon="8.433576"><ele>8.0</ele><time>2026-04-04T08:41:44.365Z</time></trkpt><trkpt lat="44.2855477" lon="8.4336751"><ele>8.0</ele><time>2026-04-04T08:41:45.364Z</time></trkpt><trkpt lat="44.2854494" lon="8.4337678"><ele>8.200000000000001</ele><time>2026-04-04T08:41:46.365Z</time></trkpt><trkpt lat="44.2853594" lon="8.4338591"><ele>8.4</ele><time>2026-04-04T08:41:47.365Z</time></trkpt><trkpt lat="44.2852751" lon="8.4339503"><ele>8.600000000000001</ele><time>2026-04-04T08:41:48.365Z</time></trkpt><trkpt lat="44.2851908" lon="8.4340443"><ele>8.8</ele><time>2026-04-04T08:41:49.365Z</time></trkpt><trkpt lat="44.2851066" lon="8.4341471"><ele>9.0</ele><time>2026-04-04T08:41:50.365Z</time></trkpt><trkpt lat="44.2850267" lon="8.434258"><ele>9.0</ele><time>2026-04-04T08:41:51.365Z</time></trkpt><trkpt lat="44.2849475" lon="8.4343725"><ele>9.0</ele><time>2026-04-04T08:41:52.365Z</time></trkpt><trkpt lat="44.2848713" lon="8.4344885"><ele>9.0</ele><time>2026-04-04T08:41:53.365Z</time></trkpt><trkpt lat="44.2848036" lon="8.4346013"><ele>9.0</ele><time>2026-04-04T08:41:54.365Z</time></trkpt><trkpt lat="44.2847593" lon="8.4346959"><ele>9.0</ele><time>2026-04-04T08:41:55.365Z</time></trkpt><trkpt lat="44.2847222" lon="8.4347943"><ele>8.2</ele><time>2026-04-04T08:41:56.364Z</time></trkpt><trkpt lat="44.2846889" lon="8.4348816"><ele>7.4</ele><time>2026-04-04T08:41:57.365Z</time></trkpt><trkpt lat="44.2846353" lon="8.4350246"><ele>6.6</ele><time>2026-04-04T08:41:59.365Z</time></trkpt><trkpt lat="44.2845788" lon="8.4351549"><ele>5.8</ele><time>2026-04-04T08:42:01.365Z</time></trkpt><trkpt lat="44.2845427" lon="8.4352936"><ele>5.0</ele><time>2026-04-04T08:42:03.364Z</time></trkpt><trkpt lat="44.2846228" lon="8.4354066"><ele>5.0</ele><time>2026-04-04T08:42:05.365Z</time></trkpt><trkpt lat="44.2847032" lon="8.4354341"><ele>5.0</ele><time>2026-04-04T08:42:06.365Z</time></trkpt><trkpt lat="44.2847788" lon="8.4354552"><ele>5.0</ele><time>2026-04-04T08:42:07.364Z</time></trkpt><trkpt lat="44.2848899" lon="8.4355178"><ele>5.0</ele><time>2026-04-04T08:42:09.366Z</time></trkpt><trkpt lat="44.2850108" lon="8.435613"><ele>5.0</ele><time>2026-04-04T08:42:11.365Z</time></trkpt><trkpt lat="44.285086" lon="8.4356715"><ele>5.666666666666667</ele><time>2026-04-04T08:42:12.365Z</time></trkpt><trkpt lat="44.2851561" lon="8.4357271"><ele>6.333333333333334</ele><time>2026-04-04T08:42:13.365Z</time></trkpt><trkpt lat="44.2852226" lon="8.4357839"><ele>7.0</ele><time>2026-04-04T08:42:14.365Z</time></trkpt><trkpt lat="44.2852926" lon="8.435847"><ele>7.666666666666667</ele><time>2026-04-04T08:42:15.365Z</time></trkpt><trkpt lat="44.2853704" lon="8.4359151"><ele>8.333333333333334</ele><time>2026-04-04T08:42:16.365Z</time></trkpt><trkpt lat="44.2854518" lon="8.4359878"><ele>9.0</ele><time>2026-04-04T08:42:17.365Z</time></trkpt><trkpt lat="44.2855376" lon="8.4360677"><ele>9.5</ele><time>2026-04-04T08:42:18.365Z</time></trkpt><trkpt lat="44.2856314" lon="8.4361616"><ele>10.0</ele><time>2026-04-04T08:42:19.365Z</time></trkpt><trkpt lat="44.285734" lon="8.4362704"><ele>10.5</ele><time>2026-04-04T08:42:20.365Z</time></trkpt><trkpt lat="44.2858443" lon="8.4363907"><ele>11.0</ele><time>2026-04-04T08:42:21.365Z</time></trkpt><trkpt lat="44.285952" lon="8.4365122"><ele>11.0</ele><time>2026-04-04T08:42:22.365Z</time></trkpt><trkpt lat="44.286044" lon="8.4366202"><ele>11.0</ele><time>2026-04-04T08:42:23.365Z</time></trkpt><trkpt lat="44.286123" lon="8.4367184"><ele>11.0</ele><time>2026-04-04T08:42:24.365Z</time></trkpt><trkpt lat="44.2862004" lon="8.4368193"><ele>11.0</ele><time>2026-04-04T08:42:25.365Z</time></trkpt><trkpt lat="44.2862829" lon="8.4369352"><ele>11.0</ele><time>2026-04-04T08:42:26.365Z</time></trkpt><trkpt lat="44.2863729" lon="8.4370687"><ele>12.25</ele><time>2026-04-04T08:42:27.365Z</time></trkpt><trkpt lat="44.2864699" lon="8.4372142"><ele>13.5</ele><time>2026-04-04T08:42:28.365Z</time></trkpt><trkpt lat="44.2865678" lon="8.4373615"><ele>14.75</ele><time>2026-04-04T08:42:29.364Z</time></trkpt><trkpt lat="44.2866579" lon="8.4374997"><ele>16.0</ele><time>2026-04-04T08:42:30.366Z</time></trkpt><trkpt lat="44.2867412" lon="8.4376341"><ele>16.0</ele><time>2026-04-04T08:42:31.366Z</time></trkpt><trkpt lat="44.2868173" lon="8.4377644"><ele>16.0</ele><time>2026-04-04T08:42:32.366Z</time></trkpt><trkpt lat="44.2868861" lon="8.4378949"><ele>16.0</ele><time>2026-04-04T08:42:33.366Z</time></trkpt><trkpt lat="44.286951" lon="8.4380319"><ele>16.0</ele><time>2026-04-04T08:42:34.365Z</time></trkpt><trkpt lat="44.2870093" lon="8.438173"><ele>15.75</ele><time>2026-04-04T08:42:35.366Z</time></trkpt><trkpt lat="44.2870663" lon="8.4383165"><ele>15.5</ele><time>2026-04-04T08:42:36.365Z</time></trkpt><trkpt lat="44.2871232" lon="8.4384592"><ele>15.25</ele><time>2026-04-04T08:42:37.366Z</time></trkpt><trkpt lat="44.2871778" lon="8.4385922"><ele>15.0</ele><time>2026-04-04T08:42:38.366Z</time></trkpt><trkpt lat="44.2872308" lon="8.4387287"><ele>17.666666666666668</ele><time>2026-04-04T08:42:39.366Z</time></trkpt><trkpt lat="44.2872831" lon="8.4388686"><ele>20.333333333333336</ele><time>2026-04-04T08:42:40.365Z</time></trkpt><trkpt lat="44.2873999" lon="8.4391634"><ele>23.0</ele><time>2026-04-04T08:42:42.366Z</time></trkpt><trkpt lat="44.287462" lon="8.4393275"><ele>23.0</ele><time>2026-04-04T08:42:43.366Z</time></trkpt><trkpt lat="44.2875262" lon="8.4394796"><ele>23.0</ele><time>2026-04-04T08:42:44.366Z</time></trkpt><trkpt lat="44.287589" lon="8.4396315"><ele>23.0</ele><time>2026-04-04T08:42:45.366Z</time></trkpt><trkpt lat="44.2876443" lon="8.4397883"><ele>23.0</ele><time>2026-04-04T08:42:46.366Z</time></trkpt><trkpt lat="44.2876977" lon="8.4399495"><ele>23.0</ele><time>2026-04-04T08:42:47.365Z</time></trkpt><trkpt lat="44.2877527" lon="8.4401096"><ele>23.0</ele><time>2026-04-04T08:42:48.366Z</time></trkpt><trkpt lat="44.2878069" lon="8.4402661"><ele>23.0</ele><time>2026-04-04T08:42:49.366Z</time></trkpt><trkpt lat="44.287858" lon="8.4404207"><ele>23.0</ele><time>2026-04-04T08:42:50.366Z</time></trkpt><trkpt lat="44.2879072" lon="8.4405761"><ele>23.0</ele><time>2026-04-04T08:42:51.366Z</time></trkpt><trkpt lat="44.2879572" lon="8.4407293"><ele>23.0</ele><time>2026-04-04T08:42:52.366Z</time></trkpt><trkpt lat="44.2880026" lon="8.44088"><ele>23.0</ele><time>2026-04-04T08:42:53.366Z</time></trkpt><trkpt lat="44.2880468" lon="8.441026"><ele>23.0</ele><time>2026-04-04T08:42:54.366Z</time></trkpt><trkpt lat="44.2880931" lon="8.4411704"><ele>23.25</ele><time>2026-04-04T08:42:55.365Z</time></trkpt><trkpt lat="44.2881409" lon="8.4413132"><ele>23.5</ele><time>2026-04-04T08:42:56.366Z</time></trkpt><trkpt lat="44.2881921" lon="8.4414599"><ele>23.75</ele><time>2026-04-04T08:42:57.366Z</time></trkpt><trkpt lat="44.2882475" lon="8.4416167"><ele>24.0</ele><time>2026-04-04T08:42:58.366Z</time></trkpt><trkpt lat="44.2883014" lon="8.4417769"><ele>24.0</ele><time>2026-04-04T08:42:59.366Z</time></trkpt><trkpt lat="44.2883554" lon="8.4419352"><ele>24.0</ele><time>2026-04-04T08:43:00.366Z</time></trkpt><trkpt lat="44.2884085" lon="8.4420852"><ele>24.0</ele><time>2026-04-04T08:43:01.366Z</time></trkpt><trkpt lat="44.2884576" lon="8.4422286"><ele>24.0</ele><time>2026-04-04T08:43:02.366Z</time></trkpt><trkpt lat="44.2884944" lon="8.4423646"><ele>24.0</ele><time>2026-04-04T08:43:03.366Z</time></trkpt><trkpt lat="44.2885286" lon="8.4424995"><ele>24.0</ele><time>2026-04-04T08:43:04.366Z</time></trkpt><trkpt lat="44.2885356" lon="8.4426334"><ele>24.0</ele><time>2026-04-04T08:43:05.366Z</time></trkpt><trkpt lat="44.2885206" lon="8.4427655"><ele>24.0</ele><time>2026-04-04T08:43:06.366Z</time></trkpt><trkpt lat="44.2884865" lon="8.4428874"><ele>24.0</ele><time>2026-04-04T08:43:07.365Z</time></trkpt><trkpt lat="44.2884494" lon="8.4430173"><ele>25.0</ele><time>2026-04-04T08:43:08.366Z</time></trkpt><trkpt lat="44.28841" lon="8.4431569"><ele>26.0</ele><time>2026-04-04T08:43:09.366Z</time></trkpt><trkpt lat="44.2883672" lon="8.443313"><ele>27.0</ele><time>2026-04-04T08:43:10.366Z</time></trkpt><trkpt lat="44.2883183" lon="8.4434791"><ele>28.0</ele><time>2026-04-04T08:43:11.366Z</time></trkpt><trkpt lat="44.2882629" lon="8.443651"><ele>27.5</ele><time>2026-04-04T08:43:12.366Z</time></trkpt><trkpt lat="44.2882037" lon="8.4438185"><ele>27.0</ele><time>2026-04-04T08:43:13.365Z</time></trkpt><trkpt lat="44.2881394" lon="8.4439741"><ele>26.5</ele><time>2026-04-04T08:43:14.365Z</time></trkpt><trkpt lat="44.2880727" lon="8.4441196"><ele>26.0</ele><time>2026-04-04T08:43:15.365Z</time></trkpt><trkpt lat="44.2880075" lon="8.4442542"><ele>26.0</ele><time>2026-04-04T08:43:16.366Z</time></trkpt><trkpt lat="44.2879481" lon="8.4443791"><ele>26.0</ele><time>2026-04-04T08:43:17.366Z</time></trkpt><trkpt lat="44.2878919" lon="8.4444932"><ele>26.0</ele><time>2026-04-04T08:43:18.366Z</time></trkpt><trkpt lat="44.2878374" lon="8.4446066"><ele>26.0</ele><time>2026-04-04T08:43:19.366Z</time></trkpt><trkpt lat="44.2877837" lon="8.4447018"><ele>26.0</ele><time>2026-04-04T08:43:20.366Z</time></trkpt><trkpt lat="44.287733" lon="8.44479"><ele>25.666666666666664</ele><time>2026-04-04T08:43:21.366Z</time></trkpt><trkpt lat="44.2876882" lon="8.4448729"><ele>25.333333333333332</ele><time>2026-04-04T08:43:22.366Z</time></trkpt><trkpt lat="44.2876485" lon="8.4449491"><ele>25.0</ele><time>2026-04-04T08:43:23.366Z</time></trkpt><trkpt lat="44.2876235" lon="8.4451141"><ele>24.666666666666664</ele><time>2026-04-04T08:43:25.366Z</time></trkpt><trkpt lat="44.2876317" lon="8.4452144"><ele>24.333333333333332</ele><time>2026-04-04T08:43:26.366Z</time></trkpt><trkpt lat="44.2876451" lon="8.4453157"><ele>24.0</ele><time>2026-04-04T08:43:27.366Z</time></trkpt><trkpt lat="44.2876519" lon="8.4454423"><ele>23.6</ele><time>2026-04-04T08:43:28.366Z</time></trkpt><trkpt lat="44.2876436" lon="8.4455694"><ele>23.2</ele><time>2026-04-04T08:43:29.366Z</time></trkpt><trkpt lat="44.2876356" lon="8.4457106"><ele>22.8</ele><time>2026-04-04T08:43:30.365Z</time></trkpt><trkpt lat="44.2876371" lon="8.4458301"><ele>22.400000000000002</ele><time>2026-04-04T08:43:31.366Z</time></trkpt><trkpt lat="44.2876386" lon="8.4459257"><ele>22.0</ele><time>2026-04-04T08:43:32.365Z</time></trkpt><trkpt lat="44.2876561" lon="8.4460961"><ele>22.0</ele><time>2026-04-04T08:43:34.366Z</time></trkpt><trkpt lat="44.2877468" lon="8.4461798"><ele>22.0</ele><time>2026-04-04T08:43:36.366Z</time></trkpt><trkpt lat="44.2878332" lon="8.4461703"><ele>22.0</ele><time>2026-04-04T08:43:38.365Z</time></trkpt><trkpt lat="44.2879131" lon="8.4461149"><ele>22.0</ele><time>2026-04-04T08:43:39.366Z</time></trkpt><trkpt lat="44.2880095" lon="8.4460492"><ele>22.0</ele><time>2026-04-04T08:43:40.365Z</time></trkpt><trkpt lat="44.2881087" lon="8.445996"><ele>24.75</ele><time>2026-04-04T08:43:41.366Z</time></trkpt><trkpt lat="44.2882084" lon="8.445973"><ele>27.5</ele><time>2026-04-04T08:43:42.366Z</time></trkpt><trkpt lat="44.2883299" lon="8.4459415"><ele>30.25</ele><time>2026-04-04T08:43:43.366Z</time></trkpt><trkpt lat="44.2884433" lon="8.4459154"><ele>33.0</ele><time>2026-04-04T08:43:44.366Z</time></trkpt><trkpt lat="44.2885569" lon="8.4458684"><ele>33.0</ele><time>2026-04-04T08:43:45.366Z</time></trkpt><trkpt lat="44.2886714" lon="8.4458083"><ele>33.0</ele><time>2026-04-04T08:43:46.366Z</time></trkpt><trkpt lat="44.2887653" lon="8.4457235"><ele>33.0</ele><time>2026-04-04T08:43:47.367Z</time></trkpt><trkpt lat="44.2888453" lon="8.4456351"><ele>33.0</ele><time>2026-04-04T08:43:48.367Z</time></trkpt><trkpt lat="44.2889188" lon="8.4455623"><ele>33.0</ele><time>2026-04-04T08:43:49.367Z</time></trkpt><trkpt lat="44.2889773" lon="8.4454908"><ele>34.5</ele><time>2026-04-04T08:43:50.367Z</time></trkpt><trkpt lat="44.2890297" lon="8.4454295"><ele>36.0</ele><time>2026-04-04T08:43:51.367Z</time></trkpt><trkpt lat="44.2890928" lon="8.4453532"><ele>37.5</ele><time>2026-04-04T08:43:52.367Z</time></trkpt><trkpt lat="44.2891627" lon="8.4452671"><ele>39.0</ele><time>2026-04-04T08:43:53.367Z</time></trkpt><trkpt lat="44.2892283" lon="8.4451951"><ele>40.5</ele><time>2026-04-04T08:43:54.367Z</time></trkpt><trkpt lat="44.289294" lon="8.4451102"><ele>42.0</ele><time>2026-04-04T08:43:55.367Z</time></trkpt><trkpt lat="44.2893547" lon="8.4450073"><ele>42.0</ele><time>2026-04-04T08:43:56.367Z</time></trkpt><trkpt lat="44.2894105" lon="8.4449024"><ele>42.0</ele><time>2026-04-04T08:43:57.366Z</time></trkpt><trkpt lat="44.2894661" lon="8.4448145"><ele>42.0</ele><time>2026-04-04T08:43:58.367Z</time></trkpt><trkpt lat="44.2895226" lon="8.4447648"><ele>42.0</ele><time>2026-04-04T08:43:59.367Z</time></trkpt><trkpt lat="44.289595" lon="8.444755"><ele>42.0</ele><time>2026-04-04T08:44:00.367Z</time></trkpt><trkpt lat="44.2896783" lon="8.4447883"><ele>42.0</ele><time>2026-04-04T08:44:01.366Z</time></trkpt><trkpt lat="44.2897736" lon="8.4448629"><ele>42.0</ele><time>2026-04-04T08:44:02.367Z</time></trkpt><trkpt lat="44.2898752" lon="8.4449662"><ele>42.0</ele><time>2026-04-04T08:44:03.367Z</time></trkpt><trkpt lat="44.28997" lon="8.4451202"><ele>42.0</ele><time>2026-04-04T08:44:04.367Z</time></trkpt><trkpt lat="44.2900863" lon="8.4452703"><ele>42.0</ele><time>2026-04-04T08:44:05.366Z</time></trkpt><trkpt lat="44.2902214" lon="8.4454113"><ele>41.666666666666664</ele><time>2026-04-04T08:44:06.367Z</time></trkpt><trkpt lat="44.2903619" lon="8.4455441"><ele>41.33333333333333</ele><time>2026-04-04T08:44:07.367Z</time></trkpt><trkpt lat="44.2904969" lon="8.4456707"><ele>41.0</ele><time>2026-04-04T08:44:08.366Z</time></trkpt><trkpt lat="44.2906139" lon="8.4457839"><ele>40.599999999999994</ele><time>2026-04-04T08:44:09.367Z</time></trkpt><trkpt lat="44.2907174" lon="8.4458825"><ele>40.199999999999996</ele><time>2026-04-04T08:44:10.367Z</time></trkpt><trkpt lat="44.2908089" lon="8.4459675"><ele>39.8</ele><time>2026-04-04T08:44:11.367Z</time></trkpt><trkpt lat="44.2908992" lon="8.4460452"><ele>39.4</ele><time>2026-04-04T08:44:12.367Z</time></trkpt><trkpt lat="44.2909835" lon="8.4461099"><ele>39.0</ele><time>2026-04-04T08:44:13.367Z</time></trkpt><trkpt lat="44.2910595" lon="8.4461625"><ele>39.0</ele><time>2026-04-04T08:44:14.367Z</time></trkpt><trkpt lat="44.2911245" lon="8.44621"><ele>39.0</ele><time>2026-04-04T08:44:15.367Z</time></trkpt><trkpt lat="44.2911766" lon="8.4462647"><ele>39.0</ele><time>2026-04-04T08:44:16.367Z</time></trkpt><trkpt lat="44.2911981" lon="8.4464248"><ele>39.0</ele><time>2026-04-04T08:44:18.367Z</time></trkpt><trkpt lat="44.2911404" lon="8.446546"><ele>39.0</ele><time>2026-04-04T08:44:19.366Z</time></trkpt><trkpt lat="44.2910758" lon="8.4466874"><ele>38.5</ele><time>2026-04-04T08:44:20.367Z</time></trkpt><trkpt lat="44.2910332" lon="8.4468535"><ele>38.0</ele><time>2026-04-04T08:44:21.367Z</time></trkpt><trkpt lat="44.2910182" lon="8.4470384"><ele>37.5</ele><time>2026-04-04T08:44:22.367Z</time></trkpt><trkpt lat="44.2910277" lon="8.4472191"><ele>37.0</ele><time>2026-04-04T08:44:23.367Z</time></trkpt><trkpt lat="44.2910616" lon="8.4473947"><ele>36.4</ele><time>2026-04-04T08:44:24.367Z</time></trkpt><trkpt lat="44.2911001" lon="8.447561"><ele>35.800000000000004</ele><time>2026-04-04T08:44:25.367Z</time></trkpt><trkpt lat="44.2911337" lon="8.4477116"><ele>35.2</ele><time>2026-04-04T08:44:26.367Z</time></trkpt><trkpt lat="44.2911567" lon="8.4478602"><ele>34.6</ele><time>2026-04-04T08:44:27.367Z</time></trkpt><trkpt lat="44.2911601" lon="8.4479901"><ele>34.0</ele><time>2026-04-04T08:44:28.367Z</time></trkpt><trkpt lat="44.2911429" lon="8.4480994"><ele>33.99999999999999</ele><time>2026-04-04T08:44:29.367Z</time></trkpt><trkpt lat="44.2911114" lon="8.448186"><ele>34.0</ele><time>2026-04-04T08:44:30.367Z</time></trkpt><trkpt lat="44.2910792" lon="8.4482656"><ele>34.0</ele><time>2026-04-04T08:44:31.367Z</time></trkpt><trkpt lat="44.2910475" lon="8.4483507"><ele>34.0</ele><time>2026-04-04T08:44:32.367Z</time></trkpt><trkpt lat="44.2910192" lon="8.4484417"><ele>34.0</ele><time>2026-04-04T08:44:33.366Z</time></trkpt><trkpt lat="44.2909944" lon="8.4485281"><ele>33.99999999999999</ele><time>2026-04-04T08:44:34.366Z</time></trkpt><trkpt lat="44.2909733" lon="8.4486132"><ele>34.0</ele><time>2026-04-04T08:44:35.367Z</time></trkpt><trkpt lat="44.2909522" lon="8.4486966"><ele>33.99999999999999</ele><time>2026-04-04T08:44:36.367Z</time></trkpt><trkpt lat="44.2909339" lon="8.4487815"><ele>34.0</ele><time>2026-04-04T08:44:37.366Z</time></trkpt><trkpt lat="44.2909149" lon="8.4488671"><ele>34.0</ele><time>2026-04-04T08:44:38.366Z</time></trkpt><trkpt lat="44.2908953" lon="8.4489531"><ele>34.0</ele><time>2026-04-04T08:44:39.367Z</time></trkpt><trkpt lat="44.2908772" lon="8.449039"><ele>34.0</ele><time>2026-04-04T08:44:40.367Z</time></trkpt><trkpt lat="44.2908407" lon="8.4492026"><ele>33.99999999999999</ele><time>2026-04-04T08:44:42.367Z</time></trkpt><trkpt lat="44.290818" lon="8.449292"><ele>34.0</ele><time>2026-04-04T08:44:43.366Z</time></trkpt><trkpt lat="44.2907972" lon="8.4493853"><ele>34.0</ele><time>2026-04-04T08:44:44.367Z</time></trkpt><trkpt lat="44.2907804" lon="8.4494883"><ele>34.0</ele><time>2026-04-04T08:44:45.367Z</time></trkpt><trkpt lat="44.290784" lon="8.4496019"><ele>34.0</ele><time>2026-04-04T08:44:46.366Z</time></trkpt><trkpt lat="44.290806" lon="8.4497079"><ele>34.0</ele><time>2026-04-04T08:44:47.366Z</time></trkpt><trkpt lat="44.2908834" lon="8.4497996"><ele>34.0</ele><time>2026-04-04T08:44:48.367Z</time></trkpt><trkpt lat="44.2909854" lon="8.4498535"><ele>34.0</ele><time>2026-04-04T08:44:49.366Z</time></trkpt><trkpt lat="44.2910884" lon="8.4498934"><ele>31.799999999999997</ele><time>2026-04-04T08:44:50.367Z</time></trkpt><trkpt lat="44.2911918" lon="8.4499203"><ele>29.599999999999998</ele><time>2026-04-04T08:44:51.367Z</time></trkpt><trkpt lat="44.2912809" lon="8.4499393"><ele>27.4</ele><time>2026-04-04T08:44:52.367Z</time></trkpt><trkpt lat="44.2913749" lon="8.4499547"><ele>25.2</ele><time>2026-04-04T08:44:53.368Z</time></trkpt><trkpt lat="44.2914437" lon="8.4499622"><ele>23.0</ele><time>2026-04-04T08:44:54.367Z</time></trkpt><trkpt lat="44.2915218" lon="8.4500949"><ele>23.0</ele><time>2026-04-04T08:44:56.366Z</time></trkpt><trkpt lat="44.2915263" lon="8.4502405"><ele>23.0</ele><time>2026-04-04T08:44:57.367Z</time></trkpt><trkpt lat="44.291504" lon="8.4503609"><ele>23.0</ele><time>2026-04-04T08:44:58.367Z</time></trkpt><trkpt lat="44.2914577" lon="8.4504414"><ele>23.0</ele><time>2026-04-04T08:44:59.368Z</time></trkpt><trkpt lat="44.2913962" lon="8.4504763"><ele>23.0</ele><time>2026-04-04T08:45:00.368Z</time></trkpt><trkpt lat="44.2913088" lon="8.4504848"><ele>23.0</ele><time>2026-04-04T08:45:01.368Z</time></trkpt><trkpt lat="44.2911674" lon="8.4504395"><ele>23.0</ele><time>2026-04-04T08:45:02.368Z</time></trkpt><trkpt lat="44.2910081" lon="8.4503838"><ele>23.0</ele><time>2026-04-04T08:45:03.368Z</time></trkpt><trkpt lat="44.2908383" lon="8.450321"><ele>23.0</ele><time>2026-04-04T08:45:04.368Z</time></trkpt><trkpt lat="44.2906858" lon="8.4502453"><ele>20.25</ele><time>2026-04-04T08:45:05.368Z</time></trkpt><trkpt lat="44.2905331" lon="8.4501479"><ele>17.5</ele><time>2026-04-04T08:45:06.368Z</time></trkpt><trkpt lat="44.2904026" lon="8.4500528"><ele>14.75</ele><time>2026-04-04T08:45:07.368Z</time></trkpt><trkpt lat="44.2902869" lon="8.4499651"><ele>12.0</ele><time>2026-04-04T08:45:08.368Z</time></trkpt><trkpt lat="44.2901868" lon="8.4498826"><ele>12.0</ele><time>2026-04-04T08:45:09.368Z</time></trkpt><trkpt lat="44.2900971" lon="8.4498031"><ele>12.0</ele><time>2026-04-04T08:45:10.368Z</time></trkpt><trkpt lat="44.2900141" lon="8.4497307"><ele>12.0</ele><time>2026-04-04T08:45:11.368Z</time></trkpt><trkpt lat="44.2899363" lon="8.4496649"><ele>12.0</ele><time>2026-04-04T08:45:12.367Z</time></trkpt><trkpt lat="44.2898635" lon="8.449603"><ele>12.0</ele><time>2026-04-04T08:45:13.368Z</time></trkpt><trkpt lat="44.2897989" lon="8.4495466"><ele>12.166666666666666</ele><time>2026-04-04T08:45:14.367Z</time></trkpt><trkpt lat="44.289749" lon="8.4494861"><ele>12.333333333333332</ele><time>2026-04-04T08:45:15.368Z</time></trkpt><trkpt lat="44.2897111" lon="8.4493478"><ele>12.5</ele><time>2026-04-04T08:45:17.368Z</time></trkpt><trkpt lat="44.2897222" lon="8.4492303"><ele>12.666666666666666</ele><time>2026-04-04T08:45:19.367Z</time></trkpt><trkpt lat="44.2897142" lon="8.4491386"><ele>12.833333333333332</ele><time>2026-04-04T08:45:22.368Z</time></trkpt><trkpt lat="44.2897999" lon="8.4490844"><ele>13.0</ele><time>2026-04-04T08:51:00.372Z</time></trkpt><trkpt lat="44.2897238" lon="8.448995"><ele>12.999999999999998</ele><time>2026-04-04T08:51:03.372Z</time></trkpt><trkpt lat="44.2896517" lon="8.4490078"><ele>13.0</ele><time>2026-04-04T08:51:28.373Z</time></trkpt><trkpt lat="44.289551" lon="8.4490156"><ele>13.0</ele><time>2026-04-04T08:51:32.373Z</time></trkpt><trkpt lat="44.289487" lon="8.4490456"><ele>13.0</ele><time>2026-04-04T08:51:34.372Z</time></trkpt><trkpt lat="44.2894253" lon="8.4490698"><ele>12.999999999999998</ele><time>2026-04-04T08:51:36.373Z</time></trkpt><trkpt lat="44.2893522" lon="8.4490693"><ele>13.0</ele><time>2026-04-04T08:51:39.373Z</time></trkpt><trkpt lat="44.2892301" lon="8.4489396"><ele>13.0</ele><time>2026-04-04T08:51:41.373Z</time></trkpt><trkpt lat="44.2891327" lon="8.4488034"><ele>13.0</ele><time>2026-04-04T08:51:42.373Z</time></trkpt><trkpt lat="44.2890367" lon="8.4486702"><ele>13.0</ele><time>2026-04-04T08:51:43.373Z</time></trkpt><trkpt lat="44.2889409" lon="8.448552"><ele>13.0</ele><time>2026-04-04T08:51:44.373Z</time></trkpt><trkpt lat="44.2888437" lon="8.4484304"><ele>13.5</ele><time>2026-04-04T08:51:45.373Z</time></trkpt><trkpt lat="44.2887477" lon="8.4483028"><ele>14.0</ele><time>2026-04-04T08:51:46.373Z</time></trkpt><trkpt lat="44.2886514" lon="8.4481643"><ele>14.5</ele><time>2026-04-04T08:51:47.373Z</time></trkpt><trkpt lat="44.2885509" lon="8.4480177"><ele>15.0</ele><time>2026-04-04T08:51:48.373Z</time></trkpt><trkpt lat="44.2884449" lon="8.4478608"><ele>14.5</ele><time>2026-04-04T08:51:49.373Z</time></trkpt><trkpt lat="44.2883411" lon="8.4477026"><ele>14.0</ele><time>2026-04-04T08:51:50.373Z</time></trkpt><trkpt lat="44.2882473" lon="8.4475544"><ele>13.5</ele><time>2026-04-04T08:51:51.373Z</time></trkpt><trkpt lat="44.2881583" lon="8.4474117"><ele>13.0</ele><time>2026-04-04T08:51:52.373Z</time></trkpt><trkpt lat="44.2880804" lon="8.4472774"><ele>13.0</ele><time>2026-04-04T08:51:53.373Z</time></trkpt><trkpt lat="44.2880043" lon="8.4471384"><ele>13.0</ele><time>2026-04-04T08:51:54.372Z</time></trkpt><trkpt lat="44.2879268" lon="8.4470077"><ele>13.0</ele><time>2026-04-04T08:51:55.373Z</time></trkpt><trkpt lat="44.2878487" lon="8.4468841"><ele>13.0</ele><time>2026-04-04T08:51:56.372Z</time></trkpt><trkpt lat="44.2877785" lon="8.4467607"><ele>13.833333333333332</ele><time>2026-04-04T08:51:57.373Z</time></trkpt><trkpt lat="44.2877225" lon="8.4466428"><ele>14.666666666666666</ele><time>2026-04-04T08:51:58.372Z</time></trkpt><trkpt lat="44.2876782" lon="8.4465351"><ele>15.5</ele><time>2026-04-04T08:51:59.373Z</time></trkpt><trkpt lat="44.2876472" lon="8.44644"><ele>16.333333333333332</ele><time>2026-04-04T08:52:00.373Z</time></trkpt><trkpt lat="44.2876203" lon="8.4463582"><ele>17.166666666666668</ele><time>2026-04-04T08:52:01.372Z</time></trkpt><trkpt lat="44.2875859" lon="8.4462597"><ele>18.0</ele><time>2026-04-04T08:52:03.373Z</time></trkpt><trkpt lat="44.2875575" lon="8.4461499"><ele>18.666666666666668</ele><time>2026-04-04T08:52:06.373Z</time></trkpt><trkpt lat="44.2875342" lon="8.446044"><ele>19.333333333333332</ele><time>2026-04-04T08:52:08.373Z</time></trkpt><trkpt lat="44.287511" lon="8.4459585"><ele>20.0</ele><time>2026-04-04T08:52:10.373Z</time></trkpt><trkpt lat="44.2874818" lon="8.4458734"><ele>20.666666666666664</ele><time>2026-04-04T08:52:12.373Z</time></trkpt><trkpt lat="44.2874452" lon="8.445723"><ele>21.333333333333332</ele><time>2026-04-04T08:52:14.373Z</time></trkpt><trkpt lat="44.2874243" lon="8.4456379"><ele>22.0</ele><time>2026-04-04T08:52:15.373Z</time></trkpt><trkpt lat="44.2873676" lon="8.4454888"><ele>22.333333333333332</ele><time>2026-04-04T08:52:17.373Z</time></trkpt><trkpt lat="44.2873257" lon="8.4454211"><ele>22.666666666666664</ele><time>2026-04-04T08:52:18.372Z</time></trkpt><trkpt lat="44.2872332" lon="8.4453722"><ele>23.0</ele><time>2026-04-04T08:52:20.373Z</time></trkpt><trkpt lat="44.2871683" lon="8.4454638"><ele>23.333333333333332</ele><time>2026-04-04T08:52:22.372Z</time></trkpt><trkpt lat="44.2871526" lon="8.4455577"><ele>23.666666666666668</ele><time>2026-04-04T08:52:23.373Z</time></trkpt><trkpt lat="44.2871468" lon="8.4456779"><ele>24.0</ele><time>2026-04-04T08:52:24.373Z</time></trkpt><trkpt lat="44.2871769" lon="8.4457891"><ele>23.5</ele><time>2026-04-04T08:52:25.374Z</time></trkpt><trkpt lat="44.287226" lon="8.4459018"><ele>23.0</ele><time>2026-04-04T08:52:26.373Z</time></trkpt><trkpt lat="44.2872875" lon="8.4460504"><ele>22.5</ele><time>2026-04-04T08:52:27.374Z</time></trkpt><trkpt lat="44.2873586" lon="8.4462053"><ele>22.0</ele><time>2026-04-04T08:52:28.372Z</time></trkpt><trkpt lat="44.2874354" lon="8.44637"><ele>21.0</ele><time>2026-04-04T08:52:29.373Z</time></trkpt><trkpt lat="44.2875123" lon="8.4465283"><ele>20.0</ele><time>2026-04-04T08:52:30.374Z</time></trkpt><trkpt lat="44.2875997" lon="8.4466835"><ele>19.0</ele><time>2026-04-04T08:52:31.374Z</time></trkpt><trkpt lat="44.2876854" lon="8.4468331"><ele>18.0</ele><time>2026-04-04T08:52:32.374Z</time></trkpt><trkpt lat="44.2877794" lon="8.4469825"><ele>16.75</ele><time>2026-04-04T08:52:33.374Z</time></trkpt><trkpt lat="44.2878741" lon="8.4471279"><ele>15.5</ele><time>2026-04-04T08:52:34.374Z</time></trkpt><trkpt lat="44.2879651" lon="8.447265"><ele>14.25</ele><time>2026-04-04T08:52:35.374Z</time></trkpt><trkpt lat="44.2880528" lon="8.4473952"><ele>13.0</ele><time>2026-04-04T08:52:36.373Z</time></trkpt><trkpt lat="44.2881392" lon="8.4475242"><ele>13.4</ele><time>2026-04-04T08:52:37.374Z</time></trkpt><trkpt lat="44.2882193" lon="8.4476459"><ele>13.8</ele><time>2026-04-04T08:52:38.374Z</time></trkpt><trkpt lat="44.2882955" lon="8.447765"><ele>14.2</ele><time>2026-04-04T08:52:39.374Z</time></trkpt><trkpt lat="44.288369" lon="8.4478758"><ele>14.6</ele><time>2026-04-04T08:52:40.374Z</time></trkpt><trkpt lat="44.2884414" lon="8.4479813"><ele>15.0</ele><time>2026-04-04T08:52:41.373Z</time></trkpt><trkpt lat="44.2885127" lon="8.4480875"><ele>15.0</ele><time>2026-04-04T08:52:42.374Z</time></trkpt><trkpt lat="44.288584" lon="8.4481968"><ele>15.0</ele><time>2026-04-04T08:52:43.374Z</time></trkpt><trkpt lat="44.2886623" lon="8.4483116"><ele>15.0</ele><time>2026-04-04T08:52:44.374Z</time></trkpt><trkpt lat="44.2887474" lon="8.4484346"><ele>15.0</ele><time>2026-04-04T08:52:45.374Z</time></trkpt><trkpt lat="44.2888328" lon="8.4485645"><ele>15.0</ele><time>2026-04-04T08:52:46.374Z</time></trkpt><trkpt lat="44.2889209" lon="8.4486976"><ele>15.0</ele><time>2026-04-04T08:52:47.373Z</time></trkpt><trkpt lat="44.2890152" lon="8.4488298"><ele>15.0</ele><time>2026-04-04T08:52:48.374Z</time></trkpt><trkpt lat="44.2891118" lon="8.4489472"><ele>15.0</ele><time>2026-04-04T08:52:49.373Z</time></trkpt><trkpt lat="44.2892085" lon="8.4490514"><ele>14.5</ele><time>2026-04-04T08:52:50.374Z</time></trkpt><trkpt lat="44.2893064" lon="8.4491501"><ele>14.0</ele><time>2026-04-04T08:52:51.374Z</time></trkpt><trkpt lat="44.2894016" lon="8.4492437"><ele>13.5</ele><time>2026-04-04T08:52:52.374Z</time></trkpt><trkpt lat="44.2894959" lon="8.4493379"><ele>13.0</ele><time>2026-04-04T08:52:53.374Z</time></trkpt><trkpt lat="44.2895948" lon="8.4494392"><ele>13.0</ele><time>2026-04-04T08:52:54.374Z</time></trkpt><trkpt lat="44.2896975" lon="8.4495412"><ele>13.0</ele><time>2026-04-04T08:52:55.374Z</time></trkpt><trkpt lat="44.2898027" lon="8.449642"><ele>13.0</ele><time>2026-04-04T08:52:56.373Z</time></trkpt><trkpt lat="44.289908" lon="8.4497386"><ele>13.0</ele><time>2026-04-04T08:52:57.374Z</time></trkpt><trkpt lat="44.2900156" lon="8.4498263"><ele>12.75</ele><time>2026-04-04T08:52:58.374Z</time></trkpt><trkpt lat="44.2901254" lon="8.4499121"><ele>12.5</ele><time>2026-04-04T08:52:59.374Z</time></trkpt><trkpt lat="44.2902357" lon="8.4499958"><ele>12.25</ele><time>2026-04-04T08:53:00.374Z</time></trkpt><trkpt lat="44.2903443" lon="8.4500794"><ele>12.0</ele><time>2026-04-04T08:53:01.374Z</time></trkpt><trkpt lat="44.2904549" lon="8.4501624"><ele>12.0</ele><time>2026-04-04T08:53:02.374Z</time></trkpt><trkpt lat="44.2905686" lon="8.4502441"><ele>12.0</ele><time>2026-04-04T08:53:03.374Z</time></trkpt><trkpt lat="44.2906801" lon="8.4503187"><ele>12.0</ele><time>2026-04-04T08:53:04.373Z</time></trkpt><trkpt lat="44.2907851" lon="8.4503782"><ele>12.0</ele><time>2026-04-04T08:53:05.373Z</time></trkpt><trkpt lat="44.2908927" lon="8.4504303"><ele>12.25</ele><time>2026-04-04T08:53:06.374Z</time></trkpt><trkpt lat="44.2910133" lon="8.4504744"><ele>12.5</ele><time>2026-04-04T08:53:07.373Z</time></trkpt><trkpt lat="44.2911481" lon="8.4505076"><ele>12.75</ele><time>2026-04-04T08:53:08.374Z</time></trkpt><trkpt lat="44.2912857" lon="8.4505318"><ele>13.0</ele><time>2026-04-04T08:53:09.374Z</time></trkpt><trkpt lat="44.2914205" lon="8.4505452"><ele>13.0</ele><time>2026-04-04T08:53:10.374Z</time></trkpt><trkpt lat="44.2915497" lon="8.4505527"><ele>13.0</ele><time>2026-04-04T08:53:11.374Z</time></trkpt><trkpt lat="44.2916742" lon="8.4505606"><ele>13.0</ele><time>2026-04-04T08:53:12.374Z</time></trkpt><trkpt lat="44.2918012" lon="8.4505678"><ele>13.0</ele><time>2026-04-04T08:53:13.373Z</time></trkpt><trkpt lat="44.2919336" lon="8.4505794"><ele>13.0</ele><time>2026-04-04T08:53:14.374Z</time></trkpt><trkpt lat="44.2920715" lon="8.4505954"><ele>13.0</ele><time>2026-04-04T08:53:15.374Z</time></trkpt><trkpt lat="44.292211" lon="8.4506195"><ele>13.0</ele><time>2026-04-04T08:53:16.374Z</time></trkpt><trkpt lat="44.2923474" lon="8.4506577"><ele>13.0</ele><time>2026-04-04T08:53:17.374Z</time></trkpt><trkpt lat="44.292477" lon="8.4507146"><ele>12.5</ele><time>2026-04-04T08:53:18.373Z</time></trkpt><trkpt lat="44.2926011" lon="8.4507927"><ele>12.0</ele><time>2026-04-04T08:53:19.373Z</time></trkpt><trkpt lat="44.2927254" lon="8.4508818"><ele>11.5</ele><time>2026-04-04T08:53:20.374Z</time></trkpt><trkpt lat="44.2928503" lon="8.4509852"><ele>11.0</ele><time>2026-04-04T08:53:21.374Z</time></trkpt><trkpt lat="44.2929595" lon="8.4510948"><ele>11.0</ele><time>2026-04-04T08:53:22.374Z</time></trkpt><trkpt lat="44.293058" lon="8.4512068"><ele>11.0</ele><time>2026-04-04T08:53:23.373Z</time></trkpt><trkpt lat="44.2931422" lon="8.451313"><ele>11.0</ele><time>2026-04-04T08:53:24.374Z</time></trkpt><trkpt lat="44.2932203" lon="8.4514181"><ele>11.0</ele><time>2026-04-04T08:53:25.374Z</time></trkpt><trkpt lat="44.2932923" lon="8.4515229"><ele>10.600000000000001</ele><time>2026-04-04T08:53:26.374Z</time></trkpt><trkpt lat="44.2933585" lon="8.4516301"><ele>10.200000000000001</ele><time>2026-04-04T08:53:27.374Z</time></trkpt><trkpt lat="44.2934189" lon="8.4517356"><ele>9.8</ele><time>2026-04-04T08:53:28.374Z</time></trkpt><trkpt lat="44.2934763" lon="8.4518358"><ele>9.4</ele><time>2026-04-04T08:53:29.374Z</time></trkpt><trkpt lat="44.2935343" lon="8.4519294"><ele>9.0</ele><time>2026-04-04T08:53:30.374Z</time></trkpt><trkpt lat="44.2935918" lon="8.4520235"><ele>9.0</ele><time>2026-04-04T08:53:31.374Z</time></trkpt><trkpt lat="44.2936452" lon="8.4521128"><ele>9.0</ele><time>2026-04-04T08:53:32.373Z</time></trkpt><trkpt lat="44.293693" lon="8.4522101"><ele>9.0</ele><time>2026-04-04T08:53:33.374Z</time></trkpt><trkpt lat="44.2937222" lon="8.4523045"><ele>9.0</ele><time>2026-04-04T08:53:34.374Z</time></trkpt><trkpt lat="44.2937336" lon="8.4523934"><ele>9.0</ele><time>2026-04-04T08:53:35.374Z</time></trkpt><trkpt lat="44.2936903" lon="8.4524883"><ele>9.0</ele><time>2026-04-04T08:53:36.374Z</time></trkpt><trkpt lat="44.2936286" lon="8.4525873"><ele>9.0</ele><time>2026-04-04T08:53:37.374Z</time></trkpt><trkpt lat="44.2935609" lon="8.4526653"><ele>9.0</ele><time>2026-04-04T08:53:38.374Z</time></trkpt><trkpt lat="44.2935094" lon="8.4527412"><ele>9.0</ele><time>2026-04-04T08:53:39.374Z</time></trkpt><trkpt lat="44.2934727" lon="8.4528178"><ele>9.0</ele><time>2026-04-04T08:53:40.374Z</time></trkpt><trkpt lat="44.2934747" lon="8.4529627"><ele>9.0</ele><time>2026-04-04T08:53:42.374Z</time></trkpt><trkpt lat="44.2935469" lon="8.4530843"><ele>9.0</ele><time>2026-04-04T08:53:44.375Z</time></trkpt><trkpt lat="44.2935952" lon="8.4531415"><ele>9.0</ele><time>2026-04-04T08:53:45.375Z</time></trkpt><trkpt lat="44.2936787" lon="8.453232"><ele>9.0</ele><time>2026-04-04T08:53:47.375Z</time></trkpt><trkpt lat="44.2937726" lon="8.4533578"><ele>9.0</ele><time>2026-04-04T08:53:49.375Z</time></trkpt><trkpt lat="44.2938295" lon="8.4534398"><ele>9.0</ele><time>2026-04-04T08:53:50.375Z</time></trkpt><trkpt lat="44.2938937" lon="8.4535285"><ele>9.0</ele><time>2026-04-04T08:53:51.375Z</time></trkpt><trkpt lat="44.2939627" lon="8.4536206"><ele>9.0</ele><time>2026-04-04T08:53:52.375Z</time></trkpt><trkpt lat="44.2940368" lon="8.4537187"><ele>9.0</ele><time>2026-04-04T08:53:53.375Z</time></trkpt><trkpt lat="44.2941115" lon="8.4538163"><ele>9.0</ele><time>2026-04-04T08:53:54.375Z</time></trkpt><trkpt lat="44.2941856" lon="8.4539116"><ele>9.0</ele><time>2026-04-04T08:53:55.375Z</time></trkpt><trkpt lat="44.2942599" lon="8.4540096"><ele>9.0</ele><time>2026-04-04T08:53:56.374Z</time></trkpt><trkpt lat="44.2943329" lon="8.4541057"><ele>9.2</ele><time>2026-04-04T08:53:57.375Z</time></trkpt><trkpt lat="44.2944087" lon="8.4542009"><ele>9.4</ele><time>2026-04-04T08:53:58.375Z</time></trkpt><trkpt lat="44.2944807" lon="8.4542957"><ele>9.6</ele><time>2026-04-04T08:53:59.375Z</time></trkpt><trkpt lat="44.2945472" lon="8.4543903"><ele>9.8</ele><time>2026-04-04T08:54:00.375Z</time></trkpt><trkpt lat="44.2946051" lon="8.4544885"><ele>10.0</ele><time>2026-04-04T08:54:01.375Z</time></trkpt><trkpt lat="44.2946533" lon="8.4545907"><ele>9.8</ele><time>2026-04-04T08:54:02.375Z</time></trkpt><trkpt lat="44.2946896" lon="8.4546882"><ele>9.6</ele><time>2026-04-04T08:54:03.375Z</time></trkpt><trkpt lat="44.294739" lon="8.454788"><ele>9.4</ele><time>2026-04-04T08:54:04.375Z</time></trkpt><trkpt lat="44.294805" lon="8.4548801"><ele>9.2</ele><time>2026-04-04T08:54:05.375Z</time></trkpt><trkpt lat="44.294877" lon="8.4549773"><ele>9.0</ele><time>2026-04-04T08:54:06.375Z</time></trkpt><trkpt lat="44.2949412" lon="8.4550769"><ele>9.0</ele><time>2026-04-04T08:54:07.374Z</time></trkpt><trkpt lat="44.2950012" lon="8.455171"><ele>9.0</ele><time>2026-04-04T08:54:08.375Z</time></trkpt><trkpt lat="44.295055" lon="8.4552556"><ele>9.0</ele><time>2026-04-04T08:54:09.375Z</time></trkpt><trkpt lat="44.2951148" lon="8.4553351"><ele>9.0</ele><time>2026-04-04T08:54:10.375Z</time></trkpt><trkpt lat="44.2951843" lon="8.4554064"><ele>9.0</ele><time>2026-04-04T08:54:11.375Z</time></trkpt><trkpt lat="44.2952635" lon="8.4554677"><ele>9.0</ele><time>2026-04-04T08:54:12.375Z</time></trkpt><trkpt lat="44.2953428" lon="8.4555411"><ele>8.75</ele><time>2026-04-04T08:54:13.375Z</time></trkpt><trkpt lat="44.2954179" lon="8.4556415"><ele>8.5</ele><time>2026-04-04T08:54:14.375Z</time></trkpt><trkpt lat="44.2954865" lon="8.4557651"><ele>8.25</ele><time>2026-04-04T08:54:15.375Z</time></trkpt><trkpt lat="44.2955589" lon="8.4559095"><ele>8.0</ele><time>2026-04-04T08:54:16.375Z</time></trkpt><trkpt lat="44.295641" lon="8.4560623"><ele>8.0</ele><time>2026-04-04T08:54:17.375Z</time></trkpt><trkpt lat="44.2957251" lon="8.4562119"><ele>8.0</ele><time>2026-04-04T08:54:18.375Z</time></trkpt><trkpt lat="44.2958041" lon="8.4563477"><ele>8.0</ele><time>2026-04-04T08:54:19.375Z</time></trkpt><trkpt lat="44.2958822" lon="8.4564757"><ele>8.0</ele><time>2026-04-04T08:54:20.375Z</time></trkpt><trkpt lat="44.2959585" lon="8.4565951"><ele>8.0</ele><time>2026-04-04T08:54:21.375Z</time></trkpt><trkpt lat="44.2960289" lon="8.4567126"><ele>8.0</ele><time>2026-04-04T08:54:22.375Z</time></trkpt><trkpt lat="44.2960947" lon="8.4568241"><ele>8.0</ele><time>2026-04-04T08:54:23.375Z</time></trkpt><trkpt lat="44.2961628" lon="8.4569332"><ele>8.0</ele><time>2026-04-04T08:54:24.375Z</time></trkpt><trkpt lat="44.2962313" lon="8.457045"><ele>8.0</ele><time>2026-04-04T08:54:25.375Z</time></trkpt><trkpt lat="44.2963047" lon="8.4571579"><ele>8.0</ele><time>2026-04-04T08:54:26.375Z</time></trkpt><trkpt lat="44.2963757" lon="8.4572732"><ele>8.0</ele><time>2026-04-04T08:54:27.375Z</time></trkpt><trkpt lat="44.2964441" lon="8.4573976"><ele>8.0</ele><time>2026-04-04T08:54:28.375Z</time></trkpt><trkpt lat="44.2965147" lon="8.4575227"><ele>8.0</ele><time>2026-04-04T08:54:29.374Z</time></trkpt><trkpt lat="44.2965899" lon="8.4576486"><ele>8.0</ele><time>2026-04-04T08:54:30.375Z</time></trkpt><trkpt lat="44.2966651" lon="8.4577725"><ele>8.0</ele><time>2026-04-04T08:54:31.375Z</time></trkpt><trkpt lat="44.296743" lon="8.4578981"><ele>8.0</ele><time>2026-04-04T08:54:32.375Z</time></trkpt><trkpt lat="44.2968226" lon="8.4580304"><ele>8.0</ele><time>2026-04-04T08:54:33.375Z</time></trkpt><trkpt lat="44.2969145" lon="8.4581768"><ele>8.25</ele><time>2026-04-04T08:54:34.375Z</time></trkpt><trkpt lat="44.2970091" lon="8.4583413"><ele>8.5</ele><time>2026-04-04T08:54:35.375Z</time></trkpt><trkpt lat="44.2971024" lon="8.4585067"><ele>8.75</ele><time>2026-04-04T08:54:36.375Z</time></trkpt><trkpt lat="44.2971934" lon="8.4586684"><ele>9.0</ele><time>2026-04-04T08:54:37.375Z</time></trkpt><trkpt lat="44.2972783" lon="8.4588155"><ele>9.0</ele><time>2026-04-04T08:54:38.375Z</time></trkpt><trkpt lat="44.2973577" lon="8.4589504"><ele>9.0</ele><time>2026-04-04T08:54:39.374Z</time></trkpt><trkpt lat="44.2974331" lon="8.4590777"><ele>9.0</ele><time>2026-04-04T08:54:40.374Z</time></trkpt><trkpt lat="44.297504" lon="8.4592018"><ele>9.0</ele><time>2026-04-04T08:54:41.375Z</time></trkpt><trkpt lat="44.2975741" lon="8.45933"><ele>9.0</ele><time>2026-04-04T08:54:42.375Z</time></trkpt><trkpt lat="44.2976396" lon="8.4594565"><ele>9.0</ele><time>2026-04-04T08:54:43.375Z</time></trkpt><trkpt lat="44.2977033" lon="8.4595826"><ele>9.0</ele><time>2026-04-04T08:54:44.375Z</time></trkpt><trkpt lat="44.2977647" lon="8.4597097"><ele>9.0</ele><time>2026-04-04T08:54:45.375Z</time></trkpt><trkpt lat="44.2978242" lon="8.4598362"><ele>9.0</ele><time>2026-04-04T08:54:46.375Z</time></trkpt><trkpt lat="44.2978795" lon="8.4599575"><ele>9.0</ele><time>2026-04-04T08:54:47.375Z</time></trkpt><trkpt lat="44.2979296" lon="8.4600686"><ele>9.0</ele><time>2026-04-04T08:54:48.375Z</time></trkpt><trkpt lat="44.2979802" lon="8.4601783"><ele>9.0</ele><time>2026-04-04T08:54:49.375Z</time></trkpt><trkpt lat="44.2980303" lon="8.460292"><ele>9.0</ele><time>2026-04-04T08:54:50.375Z</time></trkpt><trkpt lat="44.2980838" lon="8.4604144"><ele>9.0</ele><time>2026-04-04T08:54:51.374Z</time></trkpt><trkpt lat="44.2981355" lon="8.4605346"><ele>9.0</ele><time>2026-04-04T08:54:52.375Z</time></trkpt><trkpt lat="44.298184" lon="8.4606554"><ele>9.0</ele><time>2026-04-04T08:54:53.375Z</time></trkpt><trkpt lat="44.2982298" lon="8.4607742"><ele>9.0</ele><time>2026-04-04T08:54:54.375Z</time></trkpt><trkpt lat="44.2982709" lon="8.4608864"><ele>9.0</ele><time>2026-04-04T08:54:55.376Z</time></trkpt><trkpt lat="44.2983086" lon="8.460991"><ele>9.0</ele><time>2026-04-04T08:54:56.376Z</time></trkpt><trkpt lat="44.2983436" lon="8.4610999"><ele>9.0</ele><time>2026-04-04T08:54:57.376Z</time></trkpt><trkpt lat="44.2983779" lon="8.4612129"><ele>9.0</ele><time>2026-04-04T08:54:58.376Z</time></trkpt><trkpt lat="44.2984134" lon="8.4613246"><ele>9.0</ele><time>2026-04-04T08:54:59.376Z</time></trkpt><trkpt lat="44.2984504" lon="8.4614312"><ele>9.0</ele><time>2026-04-04T08:55:00.376Z</time></trkpt><trkpt lat="44.298488" lon="8.4615357"><ele>9.0</ele><time>2026-04-04T08:55:01.376Z</time></trkpt><trkpt lat="44.2985237" lon="8.4616418"><ele>9.0</ele><time>2026-04-04T08:55:02.376Z</time></trkpt><trkpt lat="44.2985603" lon="8.4617564"><ele>9.0</ele><time>2026-04-04T08:55:03.376Z</time></trkpt><trkpt lat="44.2985971" lon="8.4618725"><ele>9.0</ele><time>2026-04-04T08:55:04.376Z</time></trkpt><trkpt lat="44.2986344" lon="8.4619821"><ele>9.0</ele><time>2026-04-04T08:55:05.376Z</time></trkpt><trkpt lat="44.2986684" lon="8.4620863"><ele>9.0</ele><time>2026-04-04T08:55:06.376Z</time></trkpt><trkpt lat="44.2986976" lon="8.4621737"><ele>9.0</ele><time>2026-04-04T08:55:07.376Z</time></trkpt><trkpt lat="44.298737" lon="8.4623027"><ele>9.0</ele><time>2026-04-04T08:55:09.376Z</time></trkpt><trkpt lat="44.2987656" lon="8.4624322"><ele>9.0</ele><time>2026-04-04T08:55:11.375Z</time></trkpt><trkpt lat="44.2987792" lon="8.4625306"><ele>9.0</ele><time>2026-04-04T08:55:12.376Z</time></trkpt><trkpt lat="44.2988004" lon="8.4626325"><ele>9.0</ele><time>2026-04-04T08:55:13.376Z</time></trkpt><trkpt lat="44.2988372" lon="8.4627296"><ele>9.0</ele><time>2026-04-04T08:55:14.376Z</time></trkpt><trkpt lat="44.2988895" lon="8.4628078"><ele>9.0</ele><time>2026-04-04T08:55:15.376Z</time></trkpt><trkpt lat="44.2989535" lon="8.4628779"><ele>9.0</ele><time>2026-04-04T08:55:16.376Z</time></trkpt><trkpt lat="44.2990128" lon="8.4629485"><ele>9.4</ele><time>2026-04-04T08:55:17.376Z</time></trkpt><trkpt lat="44.2990653" lon="8.4630492"><ele>9.8</ele><time>2026-04-04T08:55:18.376Z</time></trkpt><trkpt lat="44.2991027" lon="8.4631612"><ele>10.200000000000001</ele><time>2026-04-04T08:55:19.376Z</time></trkpt><trkpt lat="44.2991346" lon="8.463267"><ele>10.600000000000001</ele><time>2026-04-04T08:55:20.375Z</time></trkpt><trkpt lat="44.2991764" lon="8.4633844"><ele>11.0</ele><time>2026-04-04T08:55:21.376Z</time></trkpt><trkpt lat="44.2992331" lon="8.4635119"><ele>11.0</ele><time>2026-04-04T08:55:22.376Z</time></trkpt><trkpt lat="44.2993069" lon="8.4636499"><ele>11.0</ele><time>2026-04-04T08:55:23.376Z</time></trkpt><trkpt lat="44.2993916" lon="8.4637898"><ele>11.0</ele><time>2026-04-04T08:55:24.376Z</time></trkpt><trkpt lat="44.2994794" lon="8.4639319"><ele>11.0</ele><time>2026-04-04T08:55:25.376Z</time></trkpt><trkpt lat="44.2995773" lon="8.4640666"><ele>11.0</ele><time>2026-04-04T08:55:26.376Z</time></trkpt><trkpt lat="44.2996797" lon="8.4641911"><ele>11.0</ele><time>2026-04-04T08:55:27.376Z</time></trkpt><trkpt lat="44.299779" lon="8.4642992"><ele>11.0</ele><time>2026-04-04T08:55:28.376Z</time></trkpt><trkpt lat="44.2998897" lon="8.4644111"><ele>11.0</ele><time>2026-04-04T08:55:29.376Z</time></trkpt><trkpt lat="44.3000038" lon="8.4645184"><ele>10.5</ele><time>2026-04-04T08:55:30.375Z</time></trkpt><trkpt lat="44.3001188" lon="8.464617"><ele>10.0</ele><time>2026-04-04T08:55:31.376Z</time></trkpt><trkpt lat="44.3002339" lon="8.4647048"><ele>9.5</ele><time>2026-04-04T08:55:32.375Z</time></trkpt><trkpt lat="44.3003418" lon="8.4647815"><ele>9.0</ele><time>2026-04-04T08:55:33.376Z</time></trkpt><trkpt lat="44.3004423" lon="8.4648494"><ele>9.0</ele><time>2026-04-04T08:55:34.376Z</time></trkpt><trkpt lat="44.300534" lon="8.4649095"><ele>9.0</ele><time>2026-04-04T08:55:35.376Z</time></trkpt><trkpt lat="44.3006258" lon="8.4649693"><ele>9.0</ele><time>2026-04-04T08:55:36.375Z</time></trkpt><trkpt lat="44.300724" lon="8.4650304"><ele>9.0</ele><time>2026-04-04T08:55:37.376Z</time></trkpt><trkpt lat="44.3008255" lon="8.4650965"><ele>9.0</ele><time>2026-04-04T08:55:38.376Z</time></trkpt><trkpt lat="44.3009228" lon="8.4651609"><ele>11.4</ele><time>2026-04-04T08:55:39.376Z</time></trkpt><trkpt lat="44.3010145" lon="8.4652196"><ele>13.8</ele><time>2026-04-04T08:55:40.375Z</time></trkpt><trkpt lat="44.3011023" lon="8.465275"><ele>16.200000000000003</ele><time>2026-04-04T08:55:41.376Z</time></trkpt><trkpt lat="44.3011834" lon="8.4653278"><ele>18.6</ele><time>2026-04-04T08:55:42.376Z</time></trkpt><trkpt lat="44.3012714" lon="8.4653802"><ele>21.0</ele><time>2026-04-04T08:55:43.375Z</time></trkpt><trkpt lat="44.3013627" lon="8.4654286"><ele>20.2</ele><time>2026-04-04T08:55:44.376Z</time></trkpt><trkpt lat="44.3014567" lon="8.4654725"><ele>19.400000000000002</ele><time>2026-04-04T08:55:45.376Z</time></trkpt><trkpt lat="44.3015469" lon="8.4655155"><ele>18.6</ele><time>2026-04-04T08:55:46.376Z</time></trkpt><trkpt lat="44.3016389" lon="8.4655633"><ele>17.8</ele><time>2026-04-04T08:55:47.376Z</time></trkpt><trkpt lat="44.3017352" lon="8.4656164"><ele>17.0</ele><time>2026-04-04T08:55:48.375Z</time></trkpt><trkpt lat="44.301835" lon="8.4656732"><ele>17.0</ele><time>2026-04-04T08:55:49.376Z</time></trkpt><trkpt lat="44.3019357" lon="8.4657404"><ele>17.0</ele><time>2026-04-04T08:55:50.376Z</time></trkpt><trkpt lat="44.3020334" lon="8.4658142"><ele>17.0</ele><time>2026-04-04T08:55:51.376Z</time></trkpt><trkpt lat="44.3021389" lon="8.4658866"><ele>17.0</ele><time>2026-04-04T08:55:52.376Z</time></trkpt><trkpt lat="44.3022474" lon="8.4659618"><ele>18.5</ele><time>2026-04-04T08:55:53.375Z</time></trkpt><trkpt lat="44.3023628" lon="8.4660517"><ele>20.0</ele><time>2026-04-04T08:55:54.376Z</time></trkpt><trkpt lat="44.3024661" lon="8.4661456"><ele>21.5</ele><time>2026-04-04T08:55:55.376Z</time></trkpt><trkpt lat="44.3025676" lon="8.4662592"><ele>23.0</ele><time>2026-04-04T08:55:56.375Z</time></trkpt><trkpt lat="44.3026674" lon="8.4664136"><ele>23.0</ele><time>2026-04-04T08:55:57.376Z</time></trkpt><trkpt lat="44.3027509" lon="8.4665878"><ele>23.0</ele><time>2026-04-04T08:55:58.376Z</time></trkpt><trkpt lat="44.3028095" lon="8.4667838"><ele>23.0</ele><time>2026-04-04T08:55:59.375Z</time></trkpt><trkpt lat="44.3028521" lon="8.4669968"><ele>21.5</ele><time>2026-04-04T08:56:00.376Z</time></trkpt><trkpt lat="44.3028806" lon="8.4671992"><ele>20.0</ele><time>2026-04-04T08:56:01.376Z</time></trkpt><trkpt lat="44.3028909" lon="8.4673913"><ele>18.5</ele><time>2026-04-04T08:56:02.376Z</time></trkpt><trkpt lat="44.3028785" lon="8.4675682"><ele>17.0</ele><time>2026-04-04T08:56:03.377Z</time></trkpt><trkpt lat="44.3028603" lon="8.467745"><ele>17.0</ele><time>2026-04-04T08:56:04.377Z</time></trkpt><trkpt lat="44.302839" lon="8.4679156"><ele>17.0</ele><time>2026-04-04T08:56:05.377Z</time></trkpt><trkpt lat="44.302815" lon="8.4680741"><ele>17.0</ele><time>2026-04-04T08:56:06.377Z</time></trkpt><trkpt lat="44.3027953" lon="8.4682138"><ele>17.0</ele><time>2026-04-04T08:56:07.377Z</time></trkpt><trkpt lat="44.3027781" lon="8.468335"><ele>17.0</ele><time>2026-04-04T08:56:08.377Z</time></trkpt><trkpt lat="44.3027663" lon="8.4684494"><ele>16.333333333333336</ele><time>2026-04-04T08:56:09.377Z</time></trkpt><trkpt lat="44.3027497" lon="8.4685584"><ele>15.666666666666668</ele><time>2026-04-04T08:56:10.377Z</time></trkpt><trkpt lat="44.3027352" lon="8.4686551"><ele>15.0</ele><time>2026-04-04T08:56:11.377Z</time></trkpt><trkpt lat="44.3027056" lon="8.4687698"><ele>14.333333333333332</ele><time>2026-04-04T08:56:13.377Z</time></trkpt><trkpt lat="44.3026657" lon="8.4688504"><ele>13.666666666666666</ele><time>2026-04-04T08:56:20.377Z</time></trkpt><trkpt lat="44.3026367" lon="8.4689781"><ele>13.0</ele><time>2026-04-04T08:56:22.377Z</time></trkpt><trkpt lat="44.3026937" lon="8.4690702"><ele>12.600000000000001</ele><time>2026-04-04T08:56:24.377Z</time></trkpt><trkpt lat="44.302761" lon="8.4690843"><ele>12.200000000000001</ele><time>2026-04-04T08:56:25.377Z</time></trkpt><trkpt lat="44.3028391" lon="8.4690758"><ele>11.8</ele><time>2026-04-04T08:56:26.377Z</time></trkpt><trkpt lat="44.3029218" lon="8.4690704"><ele>11.4</ele><time>2026-04-04T08:56:27.376Z</time></trkpt><trkpt lat="44.3030577" lon="8.4691067"><ele>11.0</ele><time>2026-04-04T08:56:28.377Z</time></trkpt><trkpt lat="44.3032138" lon="8.4691503"><ele>14.0</ele><time>2026-04-04T08:56:29.377Z</time></trkpt><trkpt lat="44.3033836" lon="8.469204"><ele>17.0</ele><time>2026-04-04T08:56:30.377Z</time></trkpt><trkpt lat="44.3035496" lon="8.4692432"><ele>20.0</ele><time>2026-04-04T08:56:31.376Z</time></trkpt><trkpt lat="44.3037296" lon="8.469272"><ele>20.0</ele><time>2026-04-04T08:56:32.377Z</time></trkpt><trkpt lat="44.3039082" lon="8.4692754"><ele>20.0</ele><time>2026-04-04T08:56:33.377Z</time></trkpt><trkpt lat="44.3040697" lon="8.4692812"><ele>20.0</ele><time>2026-04-04T08:56:34.377Z</time></trkpt><trkpt lat="44.3042152" lon="8.4692948"><ele>20.0</ele><time>2026-04-04T08:56:35.377Z</time></trkpt><trkpt lat="44.3043569" lon="8.4692969"><ele>20.0</ele><time>2026-04-04T08:56:36.377Z</time></trkpt><trkpt lat="44.3045046" lon="8.4692983"><ele>20.0</ele><time>2026-04-04T08:56:37.377Z</time></trkpt><trkpt lat="44.3046551" lon="8.4692901"><ele>20.0</ele><time>2026-04-04T08:56:38.377Z</time></trkpt><trkpt lat="44.3048082" lon="8.4692793"><ele>21.5</ele><time>2026-04-04T08:56:39.377Z</time></trkpt><trkpt lat="44.3049568" lon="8.4692699"><ele>23.0</ele><time>2026-04-04T08:56:40.377Z</time></trkpt><trkpt lat="44.3050967" lon="8.4692592"><ele>24.5</ele><time>2026-04-04T08:56:41.377Z</time></trkpt><trkpt lat="44.3052342" lon="8.4692479"><ele>26.0</ele><time>2026-04-04T08:56:42.377Z</time></trkpt><trkpt lat="44.3053761" lon="8.4692375"><ele>26.0</ele><time>2026-04-04T08:56:43.377Z</time></trkpt><trkpt lat="44.3055261" lon="8.4692284"><ele>26.0</ele><time>2026-04-04T08:56:44.377Z</time></trkpt><trkpt lat="44.3056839" lon="8.4692227"><ele>26.0</ele><time>2026-04-04T08:56:45.377Z</time></trkpt><trkpt lat="44.3058348" lon="8.4692167"><ele>27.0</ele><time>2026-04-04T08:56:46.377Z</time></trkpt><trkpt lat="44.3059875" lon="8.4692122"><ele>28.0</ele><time>2026-04-04T08:56:47.377Z</time></trkpt><trkpt lat="44.3061458" lon="8.469207"><ele>29.0</ele><time>2026-04-04T08:56:48.377Z</time></trkpt><trkpt lat="44.3062889" lon="8.4691881"><ele>27.666666666666664</ele><time>2026-04-04T08:56:49.376Z</time></trkpt><trkpt lat="44.3064526" lon="8.4691864"><ele>26.333333333333336</ele><time>2026-04-04T08:56:50.377Z</time></trkpt><trkpt lat="44.3066044" lon="8.4691977"><ele>25.0</ele><time>2026-04-04T08:56:51.377Z</time></trkpt><trkpt lat="44.3067493" lon="8.469207"><ele>25.0</ele><time>2026-04-04T08:56:52.376Z</time></trkpt><trkpt lat="44.3068987" lon="8.4692189"><ele>25.0</ele><time>2026-04-04T08:56:53.377Z</time></trkpt><trkpt lat="44.3070459" lon="8.4692254"><ele>25.0</ele><time>2026-04-04T08:56:54.377Z</time></trkpt><trkpt lat="44.3071979" lon="8.46923"><ele>25.0</ele><time>2026-04-04T08:56:55.376Z</time></trkpt><trkpt lat="44.307348" lon="8.4692308"><ele>24.666666666666668</ele><time>2026-04-04T08:56:56.376Z</time></trkpt><trkpt lat="44.3075001" lon="8.4692342"><ele>24.333333333333336</ele><time>2026-04-04T08:56:57.377Z</time></trkpt><trkpt lat="44.3076523" lon="8.4692443"><ele>24.0</ele><time>2026-04-04T08:56:58.377Z</time></trkpt><trkpt lat="44.3078072" lon="8.4692567"><ele>24.0</ele><time>2026-04-04T08:56:59.376Z</time></trkpt><trkpt lat="44.3079715" lon="8.4692673"><ele>24.0</ele><time>2026-04-04T08:57:00.377Z</time></trkpt><trkpt lat="44.3081333" lon="8.4692694"><ele>24.0</ele><time>2026-04-04T08:57:01.377Z</time></trkpt><trkpt lat="44.3082932" lon="8.4692671"><ele>23.25</ele><time>2026-04-04T08:57:02.376Z</time></trkpt><trkpt lat="44.3084473" lon="8.4692651"><ele>22.5</ele><time>2026-04-04T08:57:03.377Z</time></trkpt><trkpt lat="44.3085891" lon="8.4692677"><ele>21.75</ele><time>2026-04-04T08:57:04.376Z</time></trkpt><trkpt lat="44.3087305" lon="8.4692765"><ele>21.0</ele><time>2026-04-04T08:57:05.377Z</time></trkpt><trkpt lat="44.3088812" lon="8.4692778"><ele>19.666666666666668</ele><time>2026-04-04T08:57:06.377Z</time></trkpt><trkpt lat="44.3090373" lon="8.4692813"><ele>18.333333333333336</ele><time>2026-04-04T08:57:07.378Z</time></trkpt><trkpt lat="44.3091904" lon="8.4692839"><ele>17.0</ele><time>2026-04-04T08:57:08.377Z</time></trkpt><trkpt lat="44.3093334" lon="8.4692883"><ele>17.0</ele><time>2026-04-04T08:57:09.377Z</time></trkpt><trkpt lat="44.3094679" lon="8.4692935"><ele>17.0</ele><time>2026-04-04T08:57:10.377Z</time></trkpt><trkpt lat="44.3095961" lon="8.4692968"><ele>17.0</ele><time>2026-04-04T08:57:11.377Z</time></trkpt><trkpt lat="44.3097248" lon="8.4693013"><ele>17.0</ele><time>2026-04-04T08:57:12.377Z</time></trkpt><trkpt lat="44.3098497" lon="8.4693013"><ele>17.25</ele><time>2026-04-04T08:57:13.377Z</time></trkpt><trkpt lat="44.3099694" lon="8.4692995"><ele>17.5</ele><time>2026-04-04T08:57:14.378Z</time></trkpt><trkpt lat="44.3100833" lon="8.4692963"><ele>17.75</ele><time>2026-04-04T08:57:15.377Z</time></trkpt><trkpt lat="44.3101981" lon="8.4692979"><ele>18.0</ele><time>2026-04-04T08:57:16.378Z</time></trkpt><trkpt lat="44.3103199" lon="8.4693002"><ele>18.0</ele><time>2026-04-04T08:57:17.378Z</time></trkpt><trkpt lat="44.3104509" lon="8.4692991"><ele>18.0</ele><time>2026-04-04T08:57:18.378Z</time></trkpt><trkpt lat="44.310587" lon="8.4693012"><ele>18.0</ele><time>2026-04-04T08:57:19.378Z</time></trkpt><trkpt lat="44.310724" lon="8.4693031"><ele>18.0</ele><time>2026-04-04T08:57:20.378Z</time></trkpt><trkpt lat="44.3108541" lon="8.4693076"><ele>18.5</ele><time>2026-04-04T08:57:21.377Z</time></trkpt><trkpt lat="44.310979" lon="8.4693118"><ele>19.0</ele><time>2026-04-04T08:57:22.378Z</time></trkpt><trkpt lat="44.3110961" lon="8.4693093"><ele>19.5</ele><time>2026-04-04T08:57:23.377Z</time></trkpt><trkpt lat="44.3112088" lon="8.469304"><ele>20.0</ele><time>2026-04-04T08:57:24.378Z</time></trkpt><trkpt lat="44.3113147" lon="8.4693042"><ele>21.0</ele><time>2026-04-04T08:57:25.378Z</time></trkpt><trkpt lat="44.3114172" lon="8.4693056"><ele>22.0</ele><time>2026-04-04T08:57:26.378Z</time></trkpt><trkpt lat="44.3115204" lon="8.4693066"><ele>23.0</ele><time>2026-04-04T08:57:27.378Z</time></trkpt><trkpt lat="44.3116182" lon="8.4693271"><ele>24.0</ele><time>2026-04-04T08:57:28.378Z</time></trkpt><trkpt lat="44.3117142" lon="8.4693712"><ele>25.0</ele><time>2026-04-04T08:57:29.378Z</time></trkpt><trkpt lat="44.3118011" lon="8.4694255"><ele>22.0</ele><time>2026-04-04T08:57:30.378Z</time></trkpt><trkpt lat="44.3123272" lon="8.4701189"><ele>22.0</ele><time>2026-04-04T08:57:38.378Z</time></trkpt><trkpt lat="44.3123379" lon="8.4704389"><ele>22.0</ele><time>2026-04-04T08:57:39.378Z</time></trkpt><trkpt lat="44.3122304" lon="8.4706619"><ele>22.0</ele><time>2026-04-04T08:57:40.378Z</time></trkpt><trkpt lat="44.312184" lon="8.470803"><ele>20.25</ele><time>2026-04-04T08:57:41.378Z</time></trkpt><trkpt lat="44.3123169" lon="8.4708209"><ele>18.5</ele><time>2026-04-04T08:57:45.378Z</time></trkpt><trkpt lat="44.312435" lon="8.4707795"><ele>16.75</ele><time>2026-04-04T08:57:46.378Z</time></trkpt><trkpt lat="44.3125888" lon="8.470769"><ele>15.0</ele><time>2026-04-04T08:57:47.378Z</time></trkpt><trkpt lat="44.3127456" lon="8.4707784"><ele>15.0</ele><time>2026-04-04T08:57:48.378Z</time></trkpt><trkpt lat="44.3128921" lon="8.4707928"><ele>15.0</ele><time>2026-04-04T08:57:49.378Z</time></trkpt><trkpt lat="44.3130279" lon="8.470809"><ele>15.0</ele><time>2026-04-04T08:57:50.378Z</time></trkpt><trkpt lat="44.3131464" lon="8.4708239"><ele>15.0</ele><time>2026-04-04T08:57:51.378Z</time></trkpt><trkpt lat="44.3132519" lon="8.4708408"><ele>15.333333333333334</ele><time>2026-04-04T08:57:52.378Z</time></trkpt><trkpt lat="44.3133465" lon="8.4708518"><ele>15.666666666666668</ele><time>2026-04-04T08:57:53.378Z</time></trkpt><trkpt lat="44.3134329" lon="8.4708534"><ele>16.0</ele><time>2026-04-04T08:57:54.378Z</time></trkpt><trkpt lat="44.3135174" lon="8.4708537"><ele>16.333333333333336</ele><time>2026-04-04T08:57:55.378Z</time></trkpt><trkpt lat="44.3136011" lon="8.4708622"><ele>16.666666666666668</ele><time>2026-04-04T08:57:56.377Z</time></trkpt><trkpt lat="44.3136834" lon="8.470894"><ele>17.0</ele><time>2026-04-04T08:57:57.378Z</time></trkpt><trkpt lat="44.3137871" lon="8.4710214"><ele>17.0</ele><time>2026-04-04T08:57:59.378Z</time></trkpt><trkpt lat="44.3138281" lon="8.4711665"><ele>17.0</ele><time>2026-04-04T08:58:00.378Z</time></trkpt><trkpt lat="44.3138472" lon="8.4713264"><ele>17.0</ele><time>2026-04-04T08:58:01.378Z</time></trkpt><trkpt lat="44.3138625" lon="8.4714626"><ele>17.0</ele><time>2026-04-04T08:58:02.378Z</time></trkpt><trkpt lat="44.313883" lon="8.4715704"><ele>17.0</ele><time>2026-04-04T08:58:03.377Z</time></trkpt><trkpt lat="44.3139016" lon="8.4716552"><ele>16.5</ele><time>2026-04-04T08:58:04.378Z</time></trkpt><trkpt lat="44.3139297" lon="8.471784"><ele>16.0</ele><time>2026-04-04T08:58:06.377Z</time></trkpt><trkpt lat="44.3139148" lon="8.4718942"><ele>15.5</ele><time>2026-04-04T08:58:19.378Z</time></trkpt><trkpt lat="44.3139389" lon="8.4719888"><ele>15.0</ele><time>2026-04-04T08:58:20.378Z</time></trkpt><trkpt lat="44.3139659" lon="8.4720876"><ele>14.500000000000002</ele><time>2026-04-04T08:58:21.378Z</time></trkpt><trkpt lat="44.3139855" lon="8.4721801"><ele>14.0</ele><time>2026-04-04T08:58:22.379Z</time></trkpt><trkpt lat="44.3140332" lon="8.4723277"><ele>14.0</ele><time>2026-04-04T08:58:24.379Z</time></trkpt><trkpt lat="44.3140873" lon="8.4724218"><ele>13.999999999999998</ele><time>2026-04-04T08:58:26.378Z</time></trkpt><trkpt lat="44.3142034" lon="8.4724239"><ele>13.999999999999998</ele><time>2026-04-04T08:58:28.379Z</time></trkpt><trkpt lat="44.3142788" lon="8.4723933"><ele>14.0</ele><time>2026-04-04T08:58:29.379Z</time></trkpt><trkpt lat="44.3143713" lon="8.4723186"><ele>14.0</ele><time>2026-04-04T08:58:30.379Z</time></trkpt><trkpt lat="44.3144639" lon="8.4722449"><ele>14.0</ele><time>2026-04-04T08:58:31.378Z</time></trkpt><trkpt lat="44.3145583" lon="8.4721803"><ele>13.999999999999998</ele><time>2026-04-04T08:58:32.379Z</time></trkpt><trkpt lat="44.3146481" lon="8.4721194"><ele>13.999999999999998</ele><time>2026-04-04T08:58:33.379Z</time></trkpt><trkpt lat="44.3147419" lon="8.4720615"><ele>14.0</ele><time>2026-04-04T08:58:34.379Z</time></trkpt><trkpt lat="44.3148408" lon="8.4719983"><ele>14.0</ele><time>2026-04-04T08:58:35.379Z</time></trkpt><trkpt lat="44.3149327" lon="8.4719522"><ele>14.75</ele><time>2026-04-04T08:58:36.379Z</time></trkpt><trkpt lat="44.3150326" lon="8.4718928"><ele>15.5</ele><time>2026-04-04T08:58:37.379Z</time></trkpt><trkpt lat="44.3151368" lon="8.4718242"><ele>16.25</ele><time>2026-04-04T08:58:38.379Z</time></trkpt><trkpt lat="44.3152414" lon="8.4717488"><ele>17.0</ele><time>2026-04-04T08:58:39.379Z</time></trkpt><trkpt lat="44.3153499" lon="8.4716729"><ele>17.0</ele><time>2026-04-04T08:58:40.379Z</time></trkpt><trkpt lat="44.315453" lon="8.4715986"><ele>17.0</ele><time>2026-04-04T08:58:41.379Z</time></trkpt><trkpt lat="44.3155568" lon="8.4715237"><ele>17.0</ele><time>2026-04-04T08:58:42.379Z</time></trkpt><trkpt lat="44.3156632" lon="8.4714523"><ele>17.0</ele><time>2026-04-04T08:58:43.378Z</time></trkpt><trkpt lat="44.3157793" lon="8.4713712"><ele>17.0</ele><time>2026-04-04T08:58:44.379Z</time></trkpt><trkpt lat="44.3158971" lon="8.4712857"><ele>17.0</ele><time>2026-04-04T08:58:45.379Z</time></trkpt><trkpt lat="44.3160117" lon="8.4711963"><ele>17.0</ele><time>2026-04-04T08:58:46.379Z</time></trkpt><trkpt lat="44.3161274" lon="8.4711065"><ele>17.0</ele><time>2026-04-04T08:58:47.379Z</time></trkpt><trkpt lat="44.3162414" lon="8.4710139"><ele>17.75</ele><time>2026-04-04T08:58:48.379Z</time></trkpt><trkpt lat="44.3163655" lon="8.4709072"><ele>18.5</ele><time>2026-04-04T08:58:49.379Z</time></trkpt><trkpt lat="44.3164821" lon="8.4708065"><ele>19.25</ele><time>2026-04-04T08:58:50.379Z</time></trkpt><trkpt lat="44.3166034" lon="8.4706901"><ele>20.0</ele><time>2026-04-04T08:58:51.379Z</time></trkpt><trkpt lat="44.3167159" lon="8.4705989"><ele>20.0</ele><time>2026-04-04T08:58:52.379Z</time></trkpt><trkpt lat="44.3168108" lon="8.4705289"><ele>20.0</ele><time>2026-04-04T08:58:53.379Z</time></trkpt><trkpt lat="44.3169075" lon="8.4704552"><ele>20.0</ele><time>2026-04-04T08:58:54.379Z</time></trkpt><trkpt lat="44.3170082" lon="8.4703722"><ele>20.0</ele><time>2026-04-04T08:58:55.379Z</time></trkpt><trkpt lat="44.3171126" lon="8.4702782"><ele>19.5</ele><time>2026-04-04T08:58:56.379Z</time></trkpt><trkpt lat="44.3172198" lon="8.4701914"><ele>19.0</ele><time>2026-04-04T08:58:57.379Z</time></trkpt><trkpt lat="44.3173293" lon="8.4701024"><ele>18.5</ele><time>2026-04-04T08:58:58.379Z</time></trkpt><trkpt lat="44.3174342" lon="8.4700159"><ele>18.0</ele><time>2026-04-04T08:58:59.379Z</time></trkpt><trkpt lat="44.3175453" lon="8.4699199"><ele>18.0</ele><time>2026-04-04T08:59:00.379Z</time></trkpt><trkpt lat="44.3176576" lon="8.4698307"><ele>18.0</ele><time>2026-04-04T08:59:01.379Z</time></trkpt><trkpt lat="44.3177701" lon="8.4697405"><ele>18.0</ele><time>2026-04-04T08:59:02.379Z</time></trkpt><trkpt lat="44.3178796" lon="8.4696521"><ele>18.0</ele><time>2026-04-04T08:59:03.379Z</time></trkpt><trkpt lat="44.3179834" lon="8.4695657"><ele>17.75</ele><time>2026-04-04T08:59:04.379Z</time></trkpt><trkpt lat="44.3180887" lon="8.4694753"><ele>17.5</ele><time>2026-04-04T08:59:05.379Z</time></trkpt><trkpt lat="44.318196" lon="8.4693821"><ele>17.25</ele><time>2026-04-04T08:59:06.379Z</time></trkpt><trkpt lat="44.3183062" lon="8.4692912"><ele>17.0</ele><time>2026-04-04T08:59:07.379Z</time></trkpt><trkpt lat="44.3184153" lon="8.4692024"><ele>17.0</ele><time>2026-04-04T08:59:08.379Z</time></trkpt><trkpt lat="44.31852" lon="8.4691158"><ele>17.0</ele><time>2026-04-04T08:59:09.379Z</time></trkpt><trkpt lat="44.3186268" lon="8.4690265"><ele>17.0</ele><time>2026-04-04T08:59:10.378Z</time></trkpt><trkpt lat="44.318734" lon="8.4689323"><ele>17.0</ele><time>2026-04-04T08:59:11.379Z</time></trkpt><trkpt lat="44.318847" lon="8.4688361"><ele>17.25</ele><time>2026-04-04T08:59:12.378Z</time></trkpt><trkpt lat="44.3189624" lon="8.4687423"><ele>17.5</ele><time>2026-04-04T08:59:13.379Z</time></trkpt><trkpt lat="44.3190752" lon="8.4686423"><ele>17.75</ele><time>2026-04-04T08:59:14.379Z</time></trkpt><trkpt lat="44.3191861" lon="8.4685432"><ele>18.0</ele><time>2026-04-04T08:59:15.379Z</time></trkpt><trkpt lat="44.319299" lon="8.4684481"><ele>18.0</ele><time>2026-04-04T08:59:16.379Z</time></trkpt><trkpt lat="44.319412" lon="8.4683537"><ele>18.0</ele><time>2026-04-04T08:59:17.379Z</time></trkpt><trkpt lat="44.3195218" lon="8.46826"><ele>18.0</ele><time>2026-04-04T08:59:18.379Z</time></trkpt><trkpt lat="44.319626" lon="8.4681729"><ele>18.0</ele><time>2026-04-04T08:59:19.379Z</time></trkpt><trkpt lat="44.3197246" lon="8.4680883"><ele>18.2</ele><time>2026-04-04T08:59:20.379Z</time></trkpt><trkpt lat="44.3198208" lon="8.4680072"><ele>18.4</ele><time>2026-04-04T08:59:21.379Z</time></trkpt><trkpt lat="44.3199157" lon="8.4679284"><ele>18.599999999999998</ele><time>2026-04-04T08:59:22.379Z</time></trkpt><trkpt lat="44.3200071" lon="8.4678495"><ele>18.8</ele><time>2026-04-04T08:59:23.379Z</time></trkpt><trkpt lat="44.3200984" lon="8.4677751"><ele>19.0</ele><time>2026-04-04T08:59:24.379Z</time></trkpt><trkpt lat="44.320187" lon="8.4677041"><ele>19.333333333333332</ele><time>2026-04-04T08:59:25.378Z</time></trkpt><trkpt lat="44.3202647" lon="8.4676386"><ele>19.666666666666664</ele><time>2026-04-04T08:59:26.379Z</time></trkpt><trkpt lat="44.3203343" lon="8.4675787"><ele>20.0</ele><time>2026-04-04T08:59:27.379Z</time></trkpt><trkpt lat="44.3203984" lon="8.4675223"><ele>20.333333333333332</ele><time>2026-04-04T08:59:28.378Z</time></trkpt><trkpt lat="44.320457" lon="8.4674674"><ele>20.666666666666668</ele><time>2026-04-04T08:59:29.378Z</time></trkpt><trkpt lat="44.3205106" lon="8.4674189"><ele>21.0</ele><time>2026-04-04T08:59:30.38Z</time></trkpt><trkpt lat="44.3205922" lon="8.4673385"><ele>21.200000000000003</ele><time>2026-04-04T08:59:32.378Z</time></trkpt><trkpt lat="44.3206868" lon="8.467263"><ele>21.400000000000002</ele><time>2026-04-04T08:59:39.38Z</time></trkpt><trkpt lat="44.3207648" lon="8.4671999"><ele>21.6</ele><time>2026-04-04T08:59:40.38Z</time></trkpt><trkpt lat="44.320832" lon="8.4671468"><ele>21.8</ele><time>2026-04-04T08:59:41.38Z</time></trkpt><trkpt lat="44.3209266" lon="8.4671132"><ele>22.0</ele><time>2026-04-04T08:59:42.379Z</time></trkpt><trkpt lat="44.3210578" lon="8.4670597"><ele>21.666666666666664</ele><time>2026-04-04T08:59:43.38Z</time></trkpt><trkpt lat="44.3211969" lon="8.4669955"><ele>21.333333333333332</ele><time>2026-04-04T08:59:44.38Z</time></trkpt><trkpt lat="44.3213315" lon="8.4668398"><ele>21.0</ele><time>2026-04-04T08:59:45.38Z</time></trkpt><trkpt lat="44.3214642" lon="8.4666599"><ele>21.0</ele><time>2026-04-04T08:59:46.38Z</time></trkpt><trkpt lat="44.3215935" lon="8.4664624"><ele>21.0</ele><time>2026-04-04T08:59:47.38Z</time></trkpt><trkpt lat="44.3217104" lon="8.4662865"><ele>21.0</ele><time>2026-04-04T08:59:48.38Z</time></trkpt><trkpt lat="44.3218151" lon="8.46612"><ele>22.666666666666664</ele><time>2026-04-04T08:59:49.38Z</time></trkpt><trkpt lat="44.3219097" lon="8.4659503"><ele>24.333333333333332</ele><time>2026-04-04T08:59:50.38Z</time></trkpt><trkpt lat="44.3219872" lon="8.4657668"><ele>26.0</ele><time>2026-04-04T08:59:51.38Z</time></trkpt><trkpt lat="44.3220493" lon="8.4655718"><ele>27.666666666666664</ele><time>2026-04-04T08:59:52.38Z</time></trkpt><trkpt lat="44.3221042" lon="8.4653727"><ele>29.333333333333336</ele><time>2026-04-04T08:59:53.38Z</time></trkpt><trkpt lat="44.3221717" lon="8.4651737"><ele>31.0</ele><time>2026-04-04T08:59:54.38Z</time></trkpt><trkpt lat="44.3222642" lon="8.4649894"><ele>31.0</ele><time>2026-04-04T08:59:55.38Z</time></trkpt><trkpt lat="44.3223468" lon="8.4648449"><ele>31.0</ele><time>2026-04-04T08:59:56.379Z</time></trkpt><trkpt lat="44.3224186" lon="8.4646978"><ele>31.0</ele><time>2026-04-04T08:59:57.38Z</time></trkpt><trkpt lat="44.3224572" lon="8.4645297"><ele>31.0</ele><time>2026-04-04T08:59:58.38Z</time></trkpt><trkpt lat="44.3225156" lon="8.4643743"><ele>34.0</ele><time>2026-04-04T08:59:59.38Z</time></trkpt><trkpt lat="44.3226063" lon="8.4642325"><ele>37.0</ele><time>2026-04-04T09:00:00.379Z</time></trkpt><trkpt lat="44.3227166" lon="8.4641069"><ele>40.0</ele><time>2026-04-04T09:00:01.38Z</time></trkpt><trkpt lat="44.3228245" lon="8.4639851"><ele>43.0</ele><time>2026-04-04T09:00:02.38Z</time></trkpt><trkpt lat="44.3229232" lon="8.4638763"><ele>40.25</ele><time>2026-04-04T09:00:03.38Z</time></trkpt><trkpt lat="44.3230343" lon="8.4637725"><ele>37.5</ele><time>2026-04-04T09:00:04.38Z</time></trkpt><trkpt lat="44.3231552" lon="8.4636818"><ele>34.75</ele><time>2026-04-04T09:00:05.379Z</time></trkpt><trkpt lat="44.3232886" lon="8.4636144"><ele>32.0</ele><time>2026-04-04T09:00:06.38Z</time></trkpt><trkpt lat="44.323433" lon="8.4635684"><ele>32.0</ele><time>2026-04-04T09:00:07.379Z</time></trkpt><trkpt lat="44.3235705" lon="8.4635301"><ele>32.0</ele><time>2026-04-04T09:00:08.38Z</time></trkpt><trkpt lat="44.323713" lon="8.4635209"><ele>32.0</ele><time>2026-04-04T09:00:09.38Z</time></trkpt><trkpt lat="44.3238512" lon="8.463508"><ele>32.0</ele><time>2026-04-04T09:00:10.38Z</time></trkpt><trkpt lat="44.3239825" lon="8.4634858"><ele>30.5</ele><time>2026-04-04T09:00:11.38Z</time></trkpt><trkpt lat="44.3241199" lon="8.4634593"><ele>29.0</ele><time>2026-04-04T09:00:12.38Z</time></trkpt><trkpt lat="44.3242516" lon="8.4634288"><ele>27.5</ele><time>2026-04-04T09:00:13.38Z</time></trkpt><trkpt lat="44.3243685" lon="8.4633981"><ele>26.0</ele><time>2026-04-04T09:00:14.38Z</time></trkpt><trkpt lat="44.3244714" lon="8.4633723"><ele>25.999999999999996</ele><time>2026-04-04T09:00:15.38Z</time></trkpt><trkpt lat="44.3245562" lon="8.4633429"><ele>26.0</ele><time>2026-04-04T09:00:16.38Z</time></trkpt><trkpt lat="44.3246353" lon="8.4633135"><ele>26.0</ele><time>2026-04-04T09:00:17.38Z</time></trkpt><trkpt lat="44.3247181" lon="8.4632929"><ele>26.0</ele><time>2026-04-04T09:00:18.379Z</time></trkpt><trkpt lat="44.3248054" lon="8.4632993"><ele>25.999999999999996</ele><time>2026-04-04T09:00:19.38Z</time></trkpt><trkpt lat="44.3248834" lon="8.4633454"><ele>26.0</ele><time>2026-04-04T09:00:20.379Z</time></trkpt><trkpt lat="44.324956" lon="8.463434"><ele>26.999999999999996</ele><time>2026-04-04T09:00:21.379Z</time></trkpt><trkpt lat="44.3250107" lon="8.4635383"><ele>28.0</ele><time>2026-04-04T09:00:22.38Z</time></trkpt><trkpt lat="44.3250602" lon="8.4636443"><ele>29.0</ele><time>2026-04-04T09:00:23.379Z</time></trkpt><trkpt lat="44.3251126" lon="8.4637376"><ele>30.0</ele><time>2026-04-04T09:00:24.38Z</time></trkpt><trkpt lat="44.3251828" lon="8.4638125"><ele>30.999999999999996</ele><time>2026-04-04T09:00:25.38Z</time></trkpt><trkpt lat="44.3252523" lon="8.4638308"><ele>32.0</ele><time>2026-04-04T09:00:26.38Z</time></trkpt><trkpt lat="44.3253423" lon="8.4638497"><ele>33.5</ele><time>2026-04-04T09:00:27.379Z</time></trkpt><trkpt lat="44.3254617" lon="8.4638489"><ele>35.0</ele><time>2026-04-04T09:00:28.38Z</time></trkpt><trkpt lat="44.3255943" lon="8.463838"><ele>36.5</ele><time>2026-04-04T09:00:29.38Z</time></trkpt><trkpt lat="44.325734" lon="8.4638242"><ele>38.0</ele><time>2026-04-04T09:00:30.38Z</time></trkpt><trkpt lat="44.3258876" lon="8.4637947"><ele>37.75</ele><time>2026-04-04T09:00:31.379Z</time></trkpt><trkpt lat="44.3260298" lon="8.4637597"><ele>37.5</ele><time>2026-04-04T09:00:32.38Z</time></trkpt><trkpt lat="44.3261688" lon="8.4637131"><ele>37.25</ele><time>2026-04-04T09:00:33.379Z</time></trkpt><trkpt lat="44.3262944" lon="8.4636684"><ele>37.0</ele><time>2026-04-04T09:00:34.38Z</time></trkpt><trkpt lat="44.3264057" lon="8.4636402"><ele>37.0</ele><time>2026-04-04T09:00:35.38Z</time></trkpt><trkpt lat="44.3265139" lon="8.4636218"><ele>37.0</ele><time>2026-04-04T09:00:36.38Z</time></trkpt><trkpt lat="44.3266236" lon="8.4636138"><ele>37.0</ele><time>2026-04-04T09:00:37.38Z</time></trkpt><trkpt lat="44.3267368" lon="8.46363"><ele>37.0</ele><time>2026-04-04T09:00:38.38Z</time></trkpt><trkpt lat="44.3268445" lon="8.4636829"><ele>37.0</ele><time>2026-04-04T09:00:39.38Z</time></trkpt><trkpt lat="44.3269483" lon="8.4637552"><ele>36.5</ele><time>2026-04-04T09:00:40.38Z</time></trkpt><trkpt lat="44.3270367" lon="8.4638819"><ele>36.0</ele><time>2026-04-04T09:00:41.38Z</time></trkpt><trkpt lat="44.3270908" lon="8.464037"><ele>35.5</ele><time>2026-04-04T09:00:42.379Z</time></trkpt><trkpt lat="44.3271282" lon="8.4642396"><ele>35.0</ele><time>2026-04-04T09:00:43.38Z</time></trkpt><trkpt lat="44.3271466" lon="8.4644674"><ele>41.0</ele><time>2026-04-04T09:00:44.381Z</time></trkpt><trkpt lat="44.3271511" lon="8.4647054"><ele>47.0</ele><time>2026-04-04T09:00:45.38Z</time></trkpt><trkpt lat="44.3271393" lon="8.4649124"><ele>53.0</ele><time>2026-04-04T09:00:46.381Z</time></trkpt><trkpt lat="44.3271083" lon="8.4651042"><ele>53.0</ele><time>2026-04-04T09:00:47.381Z</time></trkpt><trkpt lat="44.3270728" lon="8.4652819"><ele>53.0</ele><time>2026-04-04T09:00:48.381Z</time></trkpt><trkpt lat="44.3270505" lon="8.4654284"><ele>53.0</ele><time>2026-04-04T09:00:49.381Z</time></trkpt><trkpt lat="44.327053" lon="8.4655718"><ele>53.0</ele><time>2026-04-04T09:00:50.381Z</time></trkpt><trkpt lat="44.3270764" lon="8.4656921"><ele>53.0</ele><time>2026-04-04T09:00:51.381Z</time></trkpt><trkpt lat="44.3271097" lon="8.4658082"><ele>48.75</ele><time>2026-04-04T09:00:52.381Z</time></trkpt><trkpt lat="44.3271716" lon="8.4659065"><ele>44.5</ele><time>2026-04-04T09:00:53.38Z</time></trkpt><trkpt lat="44.3272761" lon="8.465954"><ele>40.25</ele><time>2026-04-04T09:00:54.381Z</time></trkpt><trkpt lat="44.3274109" lon="8.4659509"><ele>36.0</ele><time>2026-04-04T09:00:55.381Z</time></trkpt><trkpt lat="44.3275668" lon="8.4659209"><ele>36.0</ele><time>2026-04-04T09:00:56.381Z</time></trkpt><trkpt lat="44.327751" lon="8.4658519"><ele>36.0</ele><time>2026-04-04T09:00:57.381Z</time></trkpt><trkpt lat="44.32796" lon="8.465746"><ele>36.0</ele><time>2026-04-04T09:00:58.381Z</time></trkpt><trkpt lat="44.3281992" lon="8.4655986"><ele>37.0</ele><time>2026-04-04T09:00:59.381Z</time></trkpt><trkpt lat="44.328442" lon="8.4654456"><ele>38.0</ele><time>2026-04-04T09:01:00.381Z</time></trkpt><trkpt lat="44.328675" lon="8.4653271"><ele>39.5</ele><time>2026-04-04T09:01:01.381Z</time></trkpt><trkpt lat="44.3289053" lon="8.4651973"><ele>41.0</ele><time>2026-04-04T09:01:02.38Z</time></trkpt><trkpt lat="44.3291365" lon="8.4650309"><ele>41.0</ele><time>2026-04-04T09:01:03.381Z</time></trkpt><trkpt lat="44.3293345" lon="8.4648802"><ele>41.0</ele><time>2026-04-04T09:01:04.381Z</time></trkpt><trkpt lat="44.329508" lon="8.4647465"><ele>41.0</ele><time>2026-04-04T09:01:05.381Z</time></trkpt><trkpt lat="44.3296767" lon="8.4646155"><ele>40.33333333333333</ele><time>2026-04-04T09:01:06.381Z</time></trkpt><trkpt lat="44.3298258" lon="8.4644811"><ele>39.666666666666664</ele><time>2026-04-04T09:01:07.381Z</time></trkpt><trkpt lat="44.3299611" lon="8.4643434"><ele>39.0</ele><time>2026-04-04T09:01:08.381Z</time></trkpt><trkpt lat="44.330085" lon="8.4641934"><ele>39.0</ele><time>2026-04-04T09:01:09.381Z</time></trkpt><trkpt lat="44.3302144" lon="8.4640322"><ele>39.0</ele><time>2026-04-04T09:01:10.38Z</time></trkpt><trkpt lat="44.3303387" lon="8.4638712"><ele>39.0</ele><time>2026-04-04T09:01:11.381Z</time></trkpt><trkpt lat="44.330451" lon="8.4637093"><ele>48.0</ele><time>2026-04-04T09:01:12.381Z</time></trkpt><trkpt lat="44.3305636" lon="8.4635404"><ele>57.0</ele><time>2026-04-04T09:01:13.381Z</time></trkpt><trkpt lat="44.3306564" lon="8.463355"><ele>66.0</ele><time>2026-04-04T09:01:14.381Z</time></trkpt><trkpt lat="44.3307399" lon="8.4631443"><ele>62.0</ele><time>2026-04-04T09:01:15.38Z</time></trkpt><trkpt lat="44.3307992" lon="8.4628874"><ele>58.0</ele><time>2026-04-04T09:01:16.381Z</time></trkpt><trkpt lat="44.3308476" lon="8.4626364"><ele>54.0</ele><time>2026-04-04T09:01:17.381Z</time></trkpt><trkpt lat="44.330896" lon="8.4623994"><ele>54.0</ele><time>2026-04-04T09:01:18.381Z</time></trkpt><trkpt lat="44.3309875" lon="8.4621742"><ele>54.0</ele><time>2026-04-04T09:01:19.381Z</time></trkpt><trkpt lat="44.3310967" lon="8.4619316"><ele>54.0</ele><time>2026-04-04T09:01:20.381Z</time></trkpt><trkpt lat="44.3312217" lon="8.4616843"><ele>53.66666666666667</ele><time>2026-04-04T09:01:21.381Z</time></trkpt><trkpt lat="44.3313341" lon="8.4614567"><ele>53.333333333333336</ele><time>2026-04-04T09:01:22.381Z</time></trkpt><trkpt lat="44.3314346" lon="8.4612358"><ele>53.0</ele><time>2026-04-04T09:01:23.381Z</time></trkpt><trkpt lat="44.3315265" lon="8.4610319"><ele>53.0</ele><time>2026-04-04T09:01:24.381Z</time></trkpt><trkpt lat="44.3316156" lon="8.4608515"><ele>53.0</ele><time>2026-04-04T09:01:25.381Z</time></trkpt><trkpt lat="44.3317208" lon="8.4606668"><ele>53.0</ele><time>2026-04-04T09:01:26.381Z</time></trkpt><trkpt lat="44.3318466" lon="8.4605002"><ele>52.333333333333336</ele><time>2026-04-04T09:01:27.381Z</time></trkpt><trkpt lat="44.3319744" lon="8.4603506"><ele>51.66666666666667</ele><time>2026-04-04T09:01:28.381Z</time></trkpt><trkpt lat="44.3321127" lon="8.4602042"><ele>51.0</ele><time>2026-04-04T09:01:29.38Z</time></trkpt><trkpt lat="44.3322634" lon="8.4600801"><ele>51.0</ele><time>2026-04-04T09:01:30.381Z</time></trkpt><trkpt lat="44.3324238" lon="8.4599564"><ele>51.0</ele><time>2026-04-04T09:01:31.381Z</time></trkpt><trkpt lat="44.3325805" lon="8.4598406"><ele>51.0</ele><time>2026-04-04T09:01:32.38Z</time></trkpt><trkpt lat="44.3327244" lon="8.4597261"><ele>52.33333333333333</ele><time>2026-04-04T09:01:33.381Z</time></trkpt><trkpt lat="44.3328651" lon="8.4595745"><ele>53.666666666666664</ele><time>2026-04-04T09:01:34.381Z</time></trkpt><trkpt lat="44.3329833" lon="8.4593713"><ele>55.0</ele><time>2026-04-04T09:01:35.38Z</time></trkpt><trkpt lat="44.333058" lon="8.459148"><ele>55.33333333333333</ele><time>2026-04-04T09:01:36.38Z</time></trkpt><trkpt lat="44.3331045" lon="8.4588595"><ele>55.66666666666667</ele><time>2026-04-04T09:01:37.38Z</time></trkpt><trkpt lat="44.3331552" lon="8.458636"><ele>56.0</ele><time>2026-04-04T09:01:38.381Z</time></trkpt><trkpt lat="44.3331965" lon="8.4584414"><ele>56.0</ele><time>2026-04-04T09:01:39.381Z</time></trkpt><trkpt lat="44.3332429" lon="8.458282"><ele>56.0</ele><time>2026-04-04T09:01:40.38Z</time></trkpt><trkpt lat="44.3333162" lon="8.458149"><ele>56.0</ele><time>2026-04-04T09:01:41.382Z</time></trkpt><trkpt lat="44.3334412" lon="8.4580576"><ele>56.0</ele><time>2026-04-04T09:01:42.381Z</time></trkpt><trkpt lat="44.3336646" lon="8.4580174"><ele>66.0</ele><time>2026-04-04T09:01:43.38Z</time></trkpt><trkpt lat="44.3339161" lon="8.4580275"><ele>76.0</ele><time>2026-04-04T09:01:44.381Z</time></trkpt><trkpt lat="44.3341129" lon="8.4579839"><ele>73.75</ele><time>2026-04-04T09:01:45.381Z</time></trkpt><trkpt lat="44.334276" lon="8.4579502"><ele>71.5</ele><time>2026-04-04T09:01:46.381Z</time></trkpt><trkpt lat="44.3344112" lon="8.4578934"><ele>69.25</ele><time>2026-04-04T09:01:47.381Z</time></trkpt><trkpt lat="44.3345288" lon="8.4578265"><ele>67.0</ele><time>2026-04-04T09:01:48.381Z</time></trkpt><trkpt lat="44.3346336" lon="8.4577227"><ele>67.5</ele><time>2026-04-04T09:01:49.381Z</time></trkpt><trkpt lat="44.3347231" lon="8.4575947"><ele>68.0</ele><time>2026-04-04T09:01:50.381Z</time></trkpt><trkpt lat="44.3348196" lon="8.457491"><ele>68.5</ele><time>2026-04-04T09:01:51.382Z</time></trkpt><trkpt lat="44.3349334" lon="8.4574279"><ele>69.0</ele><time>2026-04-04T09:01:52.381Z</time></trkpt><trkpt lat="44.3350577" lon="8.4574208"><ele>69.0</ele><time>2026-04-04T09:01:53.381Z</time></trkpt><trkpt lat="44.3351966" lon="8.4574483"><ele>69.0</ele><time>2026-04-04T09:01:54.382Z</time></trkpt><trkpt lat="44.3353469" lon="8.4575126"><ele>69.0</ele><time>2026-04-04T09:01:55.382Z</time></trkpt><trkpt lat="44.3354719" lon="8.4575837"><ele>69.0</ele><time>2026-04-04T09:01:56.382Z</time></trkpt><trkpt lat="44.3356066" lon="8.4576375"><ele>69.5</ele><time>2026-04-04T09:01:57.382Z</time></trkpt><trkpt lat="44.3357119" lon="8.4577259"><ele>70.0</ele><time>2026-04-04T09:01:58.382Z</time></trkpt><trkpt lat="44.3358463" lon="8.4577099"><ele>70.5</ele><time>2026-04-04T09:01:59.381Z</time></trkpt><trkpt lat="44.335973" lon="8.4576446"><ele>71.0</ele><time>2026-04-04T09:02:00.382Z</time></trkpt><trkpt lat="44.336111" lon="8.4575387"><ele>71.0</ele><time>2026-04-04T09:02:01.382Z</time></trkpt><trkpt lat="44.3362463" lon="8.4574011"><ele>71.0</ele><time>2026-04-04T09:02:02.382Z</time></trkpt><trkpt lat="44.3363598" lon="8.4572606"><ele>71.0</ele><time>2026-04-04T09:02:03.382Z</time></trkpt><trkpt lat="44.3364579" lon="8.4571327"><ele>73.5</ele><time>2026-04-04T09:02:04.382Z</time></trkpt><trkpt lat="44.3365392" lon="8.4569967"><ele>76.0</ele><time>2026-04-04T09:02:05.382Z</time></trkpt><trkpt lat="44.336631" lon="8.4568491"><ele>78.5</ele><time>2026-04-04T09:02:06.382Z</time></trkpt><trkpt lat="44.3367166" lon="8.4566694"><ele>81.0</ele><time>2026-04-04T09:02:07.382Z</time></trkpt><trkpt lat="44.3368267" lon="8.4564378"><ele>82.5</ele><time>2026-04-04T09:02:08.382Z</time></trkpt><trkpt lat="44.3369554" lon="8.4561747"><ele>84.0</ele><time>2026-04-04T09:02:09.382Z</time></trkpt><trkpt lat="44.3370776" lon="8.4558674"><ele>84.0</ele><time>2026-04-04T09:02:10.382Z</time></trkpt><trkpt lat="44.3371487" lon="8.4555951"><ele>84.0</ele><time>2026-04-04T09:02:11.381Z</time></trkpt><trkpt lat="44.337198" lon="8.4553617"><ele>84.0</ele><time>2026-04-04T09:02:12.382Z</time></trkpt><trkpt lat="44.3371997" lon="8.4551224"><ele>84.25</ele><time>2026-04-04T09:02:13.382Z</time></trkpt><trkpt lat="44.337185" lon="8.4549311"><ele>84.5</ele><time>2026-04-04T09:02:14.382Z</time></trkpt><trkpt lat="44.3371855" lon="8.4547593"><ele>84.75</ele><time>2026-04-04T09:02:15.382Z</time></trkpt><trkpt lat="44.3372401" lon="8.4546306"><ele>85.0</ele><time>2026-04-04T09:02:16.381Z</time></trkpt><trkpt lat="44.3373454" lon="8.454515"><ele>83.33333333333333</ele><time>2026-04-04T09:02:17.382Z</time></trkpt><trkpt lat="44.3374925" lon="8.4544823"><ele>81.66666666666667</ele><time>2026-04-04T09:02:18.382Z</time></trkpt><trkpt lat="44.3376669" lon="8.4545251"><ele>80.0</ele><time>2026-04-04T09:02:19.382Z</time></trkpt><trkpt lat="44.3378577" lon="8.4546044"><ele>79.33333333333334</ele><time>2026-04-04T09:02:20.382Z</time></trkpt><trkpt lat="44.3380521" lon="8.454656"><ele>78.66666666666667</ele><time>2026-04-04T09:02:21.382Z</time></trkpt><trkpt lat="44.3382036" lon="8.4546358"><ele>78.0</ele><time>2026-04-04T09:02:22.382Z</time></trkpt><trkpt lat="44.3383347" lon="8.4545558"><ele>78.0</ele><time>2026-04-04T09:02:23.382Z</time></trkpt><trkpt lat="44.3384868" lon="8.4543768"><ele>78.0</ele><time>2026-04-04T09:02:24.382Z</time></trkpt><trkpt lat="44.3386528" lon="8.4541729"><ele>78.0</ele><time>2026-04-04T09:02:25.381Z</time></trkpt><trkpt lat="44.3388162" lon="8.4539501"><ele>78.33333333333333</ele><time>2026-04-04T09:02:26.382Z</time></trkpt><trkpt lat="44.3389846" lon="8.4537298"><ele>78.66666666666666</ele><time>2026-04-04T09:02:27.382Z</time></trkpt><trkpt lat="44.3391328" lon="8.4535893"><ele>79.0</ele><time>2026-04-04T09:02:28.382Z</time></trkpt><trkpt lat="44.3392691" lon="8.4534479"><ele>79.0</ele><time>2026-04-04T09:02:29.381Z</time></trkpt><trkpt lat="44.3394051" lon="8.4533222"><ele>79.0</ele><time>2026-04-04T09:02:30.382Z</time></trkpt><trkpt lat="44.33951" lon="8.4531392"><ele>79.0</ele><time>2026-04-04T09:02:31.382Z</time></trkpt><trkpt lat="44.3395906" lon="8.4529078"><ele>80.0</ele><time>2026-04-04T09:02:32.382Z</time></trkpt><trkpt lat="44.3396591" lon="8.4525715"><ele>81.0</ele><time>2026-04-04T09:02:33.381Z</time></trkpt><trkpt lat="44.3397202" lon="8.4522974"><ele>81.66666666666667</ele><time>2026-04-04T09:02:34.382Z</time></trkpt><trkpt lat="44.3397585" lon="8.4520845"><ele>82.33333333333334</ele><time>2026-04-04T09:02:35.382Z</time></trkpt><trkpt lat="44.3398087" lon="8.4518885"><ele>83.0</ele><time>2026-04-04T09:02:36.382Z</time></trkpt><trkpt lat="44.3398502" lon="8.4516837"><ele>83.0</ele><time>2026-04-04T09:02:37.382Z</time></trkpt><trkpt lat="44.3398874" lon="8.451456"><ele>83.0</ele><time>2026-04-04T09:02:38.382Z</time></trkpt><trkpt lat="44.3399096" lon="8.451214"><ele>83.0</ele><time>2026-04-04T09:02:39.381Z</time></trkpt><trkpt lat="44.3399255" lon="8.450994"><ele>82.0</ele><time>2026-04-04T09:02:40.382Z</time></trkpt><trkpt lat="44.3399532" lon="8.4508117"><ele>81.0</ele><time>2026-04-04T09:02:41.382Z</time></trkpt><trkpt lat="44.3399793" lon="8.450648"><ele>80.0</ele><time>2026-04-04T09:02:42.382Z</time></trkpt><trkpt lat="44.3400252" lon="8.4504934"><ele>79.0</ele><time>2026-04-04T09:02:43.382Z</time></trkpt><trkpt lat="44.3401052" lon="8.4503755"><ele>78.5</ele><time>2026-04-04T09:02:44.382Z</time></trkpt><trkpt lat="44.3402142" lon="8.4503048"><ele>78.0</ele><time>2026-04-04T09:02:45.381Z</time></trkpt><trkpt lat="44.3403402" lon="8.4502901"><ele>77.5</ele><time>2026-04-04T09:02:46.382Z</time></trkpt><trkpt lat="44.340458" lon="8.4503474"><ele>77.0</ele><time>2026-04-04T09:02:47.381Z</time></trkpt><trkpt lat="44.3405555" lon="8.4504812"><ele>77.0</ele><time>2026-04-04T09:02:48.382Z</time></trkpt><trkpt lat="44.3406212" lon="8.4506761"><ele>77.0</ele><time>2026-04-04T09:02:49.381Z</time></trkpt><trkpt lat="44.3406966" lon="8.4508247"><ele>77.0</ele><time>2026-04-04T09:02:50.382Z</time></trkpt><trkpt lat="44.3407705" lon="8.4509486"><ele>77.0</ele><time>2026-04-04T09:02:51.382Z</time></trkpt><trkpt lat="44.3408126" lon="8.4510607"><ele>77.0</ele><time>2026-04-04T09:02:52.382Z</time></trkpt><trkpt lat="44.3409066" lon="8.4510962"><ele>77.0</ele><time>2026-04-04T09:02:53.381Z</time></trkpt><trkpt lat="44.3410196" lon="8.4510621"><ele>77.0</ele><time>2026-04-04T09:02:54.382Z</time></trkpt><trkpt lat="44.3411559" lon="8.4509944"><ele>77.0</ele><time>2026-04-04T09:02:55.382Z</time></trkpt><trkpt lat="44.3412886" lon="8.450914"><ele>77.75</ele><time>2026-04-04T09:02:56.382Z</time></trkpt><trkpt lat="44.3414198" lon="8.4508317"><ele>78.5</ele><time>2026-04-04T09:02:57.382Z</time></trkpt><trkpt lat="44.341547" lon="8.4507643"><ele>79.25</ele><time>2026-04-04T09:02:58.382Z</time></trkpt><trkpt lat="44.3416639" lon="8.4506985"><ele>80.0</ele><time>2026-04-04T09:02:59.382Z</time></trkpt><trkpt lat="44.3417611" lon="8.4506028"><ele>80.0</ele><time>2026-04-04T09:03:00.382Z</time></trkpt><trkpt lat="44.3418574" lon="8.4504961"><ele>80.0</ele><time>2026-04-04T09:03:01.381Z</time></trkpt><trkpt lat="44.3419509" lon="8.4503441"><ele>80.0</ele><time>2026-04-04T09:03:02.383Z</time></trkpt><trkpt lat="44.3420502" lon="8.4502003"><ele>80.0</ele><time>2026-04-04T09:03:03.383Z</time></trkpt><trkpt lat="44.3421556" lon="8.4500773"><ele>80.0</ele><time>2026-04-04T09:03:04.383Z</time></trkpt><trkpt lat="44.3422522" lon="8.4499534"><ele>80.0</ele><time>2026-04-04T09:03:05.383Z</time></trkpt><trkpt lat="44.342349" lon="8.4498161"><ele>80.0</ele><time>2026-04-04T09:03:06.383Z</time></trkpt><trkpt lat="44.342431" lon="8.4496447"><ele>80.0</ele><time>2026-04-04T09:03:07.383Z</time></trkpt><trkpt lat="44.3424753" lon="8.4494237"><ele>82.0</ele><time>2026-04-04T09:03:08.383Z</time></trkpt><trkpt lat="44.3425142" lon="8.4492471"><ele>84.0</ele><time>2026-04-04T09:03:09.383Z</time></trkpt><trkpt lat="44.3425896" lon="8.4490969"><ele>86.0</ele><time>2026-04-04T09:03:10.383Z</time></trkpt><trkpt lat="44.3426689" lon="8.4489577"><ele>88.0</ele><time>2026-04-04T09:03:11.383Z</time></trkpt><trkpt lat="44.3427427" lon="8.4488203"><ele>91.0</ele><time>2026-04-04T09:03:12.382Z</time></trkpt><trkpt lat="44.3428141" lon="8.4486647"><ele>94.0</ele><time>2026-04-04T09:03:13.383Z</time></trkpt><trkpt lat="44.34288" lon="8.4485047"><ele>97.0</ele><time>2026-04-04T09:03:14.383Z</time></trkpt><trkpt lat="44.3429341" lon="8.4483409"><ele>100.0</ele><time>2026-04-04T09:03:15.383Z</time></trkpt><trkpt lat="44.3429711" lon="8.4481732"><ele>100.0</ele><time>2026-04-04T09:03:16.383Z</time></trkpt><trkpt lat="44.3430029" lon="8.4480071"><ele>100.0</ele><time>2026-04-04T09:03:17.383Z</time></trkpt><trkpt lat="44.3430386" lon="8.4478457"><ele>100.0</ele><time>2026-04-04T09:03:18.383Z</time></trkpt><trkpt lat="44.3430881" lon="8.4476729"><ele>100.0</ele><time>2026-04-04T09:03:19.383Z</time></trkpt><trkpt lat="44.343154" lon="8.4475047"><ele>102.75</ele><time>2026-04-04T09:03:20.383Z</time></trkpt><trkpt lat="44.3432517" lon="8.4473622"><ele>105.5</ele><time>2026-04-04T09:03:21.383Z</time></trkpt><trkpt lat="44.3433871" lon="8.4472502"><ele>108.25</ele><time>2026-04-04T09:03:22.383Z</time></trkpt><trkpt lat="44.3435286" lon="8.4471771"><ele>111.0</ele><time>2026-04-04T09:03:23.383Z</time></trkpt><trkpt lat="44.3436615" lon="8.4471176"><ele>111.0</ele><time>2026-04-04T09:03:24.383Z</time></trkpt><trkpt lat="44.3437857" lon="8.4470398"><ele>111.0</ele><time>2026-04-04T09:03:25.383Z</time></trkpt><trkpt lat="44.3438981" lon="8.4469582"><ele>111.0</ele><time>2026-04-04T09:03:26.383Z</time></trkpt><trkpt lat="44.3440042" lon="8.4468779"><ele>111.0</ele><time>2026-04-04T09:03:27.383Z</time></trkpt><trkpt lat="44.3441123" lon="8.4468051"><ele>106.25</ele><time>2026-04-04T09:03:28.383Z</time></trkpt><trkpt lat="44.3442307" lon="8.4467316"><ele>101.5</ele><time>2026-04-04T09:03:29.383Z</time></trkpt><trkpt lat="44.3443488" lon="8.4466514"><ele>96.75</ele><time>2026-04-04T09:03:30.383Z</time></trkpt><trkpt lat="44.3444498" lon="8.4465347"><ele>92.0</ele><time>2026-04-04T09:03:31.383Z</time></trkpt><trkpt lat="44.34454" lon="8.4464124"><ele>91.5</ele><time>2026-04-04T09:03:32.383Z</time></trkpt><trkpt lat="44.3446199" lon="8.4462743"><ele>91.0</ele><time>2026-04-04T09:03:33.383Z</time></trkpt><trkpt lat="44.3447016" lon="8.4461328"><ele>90.5</ele><time>2026-04-04T09:03:34.383Z</time></trkpt><trkpt lat="44.3447815" lon="8.4459948"><ele>90.0</ele><time>2026-04-04T09:03:35.383Z</time></trkpt><trkpt lat="44.3448637" lon="8.4458573"><ele>90.0</ele><time>2026-04-04T09:03:36.382Z</time></trkpt><trkpt lat="44.3449474" lon="8.4457177"><ele>90.0</ele><time>2026-04-04T09:03:37.383Z</time></trkpt><trkpt lat="44.3450301" lon="8.445576"><ele>90.0</ele><time>2026-04-04T09:03:38.383Z</time></trkpt><trkpt lat="44.3451062" lon="8.4454261"><ele>90.0</ele><time>2026-04-04T09:03:39.383Z</time></trkpt><trkpt lat="44.3451731" lon="8.4452564"><ele>90.5</ele><time>2026-04-04T09:03:40.383Z</time></trkpt><trkpt lat="44.3452295" lon="8.4450712"><ele>91.0</ele><time>2026-04-04T09:03:41.383Z</time></trkpt><trkpt lat="44.3452784" lon="8.4448818"><ele>91.5</ele><time>2026-04-04T09:03:42.383Z</time></trkpt><trkpt lat="44.3453156" lon="8.4446955"><ele>92.0</ele><time>2026-04-04T09:03:43.383Z</time></trkpt><trkpt lat="44.3453442" lon="8.4445198"><ele>92.0</ele><time>2026-04-04T09:03:44.383Z</time></trkpt><trkpt lat="44.3453608" lon="8.4443643"><ele>92.0</ele><time>2026-04-04T09:03:45.383Z</time></trkpt><trkpt lat="44.3453725" lon="8.4442265"><ele>92.0</ele><time>2026-04-04T09:03:46.383Z</time></trkpt><trkpt lat="44.3453764" lon="8.4441009"><ele>92.0</ele><time>2026-04-04T09:03:47.383Z</time></trkpt><trkpt lat="44.3453695" lon="8.4439716"><ele>92.0</ele><time>2026-04-04T09:03:48.382Z</time></trkpt><trkpt lat="44.3453431" lon="8.4438477"><ele>91.75</ele><time>2026-04-04T09:03:49.382Z</time></trkpt><trkpt lat="44.3452841" lon="8.4437224"><ele>91.5</ele><time>2026-04-04T09:03:50.382Z</time></trkpt><trkpt lat="44.345207" lon="8.4435803"><ele>91.25</ele><time>2026-04-04T09:03:51.383Z</time></trkpt><trkpt lat="44.345125" lon="8.4434287"><ele>91.0</ele><time>2026-04-04T09:03:52.383Z</time></trkpt><trkpt lat="44.3450397" lon="8.443284"><ele>91.0</ele><time>2026-04-04T09:03:53.382Z</time></trkpt><trkpt lat="44.3449612" lon="8.443148"><ele>91.0</ele><time>2026-04-04T09:03:54.383Z</time></trkpt><trkpt lat="44.344887" lon="8.4430042"><ele>91.0</ele><time>2026-04-04T09:03:55.383Z</time></trkpt><trkpt lat="44.3448193" lon="8.4428674"><ele>91.0</ele><time>2026-04-04T09:03:56.383Z</time></trkpt><trkpt lat="44.3447616" lon="8.4427174"><ele>96.75</ele><time>2026-04-04T09:03:57.383Z</time></trkpt><trkpt lat="44.3447044" lon="8.442559"><ele>102.5</ele><time>2026-04-04T09:03:58.383Z</time></trkpt><trkpt lat="44.3446366" lon="8.4424024"><ele>108.25</ele><time>2026-04-04T09:03:59.383Z</time></trkpt><trkpt lat="44.3445559" lon="8.442245"><ele>114.0</ele><time>2026-04-04T09:04:00.383Z</time></trkpt><trkpt lat="44.3444669" lon="8.4420969"><ele>114.0</ele><time>2026-04-04T09:04:01.383Z</time></trkpt><trkpt lat="44.3443822" lon="8.4419417"><ele>114.0</ele><time>2026-04-04T09:04:02.383Z</time></trkpt><trkpt lat="44.3442979" lon="8.4417792"><ele>114.0</ele><time>2026-04-04T09:04:03.383Z</time></trkpt><trkpt lat="44.3442426" lon="8.4415749"><ele>114.0</ele><time>2026-04-04T09:04:04.382Z</time></trkpt><trkpt lat="44.3442182" lon="8.4413613"><ele>114.75</ele><time>2026-04-04T09:04:05.382Z</time></trkpt><trkpt lat="44.3442186" lon="8.441172"><ele>115.5</ele><time>2026-04-04T09:04:06.383Z</time></trkpt><trkpt lat="44.344221" lon="8.4410074"><ele>116.25</ele><time>2026-04-04T09:04:07.383Z</time></trkpt><trkpt lat="44.3442027" lon="8.4408492"><ele>117.0</ele><time>2026-04-04T09:04:08.383Z</time></trkpt><trkpt lat="44.3441796" lon="8.4407009"><ele>117.0</ele><time>2026-04-04T09:04:09.383Z</time></trkpt><trkpt lat="44.3441586" lon="8.4405364"><ele>117.0</ele><time>2026-04-04T09:04:10.383Z</time></trkpt><trkpt lat="44.3441582" lon="8.4403557"><ele>117.0</ele><time>2026-04-04T09:04:11.383Z</time></trkpt><trkpt lat="44.3441783" lon="8.4401781"><ele>117.0</ele><time>2026-04-04T09:04:12.384Z</time></trkpt><trkpt lat="44.3442088" lon="8.4400095"><ele>117.6</ele><time>2026-04-04T09:04:13.384Z</time></trkpt><trkpt lat="44.3442392" lon="8.4398487"><ele>118.19999999999999</ele><time>2026-04-04T09:04:14.384Z</time></trkpt><trkpt lat="44.3442668" lon="8.4396903"><ele>118.8</ele><time>2026-04-04T09:04:15.384Z</time></trkpt><trkpt lat="44.3442958" lon="8.4395491"><ele>119.4</ele><time>2026-04-04T09:04:16.384Z</time></trkpt><trkpt lat="44.3443314" lon="8.4394234"><ele>120.0</ele><time>2026-04-04T09:04:17.384Z</time></trkpt><trkpt lat="44.344369" lon="8.4392983"><ele>121.6</ele><time>2026-04-04T09:04:18.384Z</time></trkpt><trkpt lat="44.3444141" lon="8.4391688"><ele>123.2</ele><time>2026-04-04T09:04:19.384Z</time></trkpt><trkpt lat="44.3444584" lon="8.4390473"><ele>124.80000000000001</ele><time>2026-04-04T09:04:20.384Z</time></trkpt><trkpt lat="44.3445174" lon="8.4389249"><ele>126.4</ele><time>2026-04-04T09:04:21.384Z</time></trkpt><trkpt lat="44.3445919" lon="8.4388091"><ele>128.0</ele><time>2026-04-04T09:04:22.384Z</time></trkpt><trkpt lat="44.3446728" lon="8.4387049"><ele>122.25</ele><time>2026-04-04T09:04:23.384Z</time></trkpt><trkpt lat="44.3447754" lon="8.4386315"><ele>116.5</ele><time>2026-04-04T09:04:24.384Z</time></trkpt><trkpt lat="44.3448801" lon="8.4385612"><ele>110.75</ele><time>2026-04-04T09:04:25.384Z</time></trkpt><trkpt lat="44.3449828" lon="8.4384832"><ele>105.0</ele><time>2026-04-04T09:04:26.384Z</time></trkpt><trkpt lat="44.3450909" lon="8.4384073"><ele>105.0</ele><time>2026-04-04T09:04:27.384Z</time></trkpt><trkpt lat="44.3451876" lon="8.4383286"><ele>105.0</ele><time>2026-04-04T09:04:28.384Z</time></trkpt><trkpt lat="44.3452681" lon="8.4382366"><ele>105.0</ele><time>2026-04-04T09:04:29.384Z</time></trkpt><trkpt lat="44.3453299" lon="8.4381171"><ele>105.0</ele><time>2026-04-04T09:04:30.384Z</time></trkpt><trkpt lat="44.3453858" lon="8.4379738"><ele>105.0</ele><time>2026-04-04T09:04:31.384Z</time></trkpt><trkpt lat="44.3454049" lon="8.4378273"><ele>103.25</ele><time>2026-04-04T09:04:32.384Z</time></trkpt><trkpt lat="44.3453836" lon="8.4376708"><ele>101.5</ele><time>2026-04-04T09:04:33.384Z</time></trkpt><trkpt lat="44.3453252" lon="8.437474"><ele>99.75</ele><time>2026-04-04T09:04:34.384Z</time></trkpt><trkpt lat="44.3452561" lon="8.4372432"><ele>98.0</ele><time>2026-04-04T09:04:35.384Z</time></trkpt><trkpt lat="44.3451915" lon="8.4370004"><ele>96.66666666666666</ele><time>2026-04-04T09:04:36.384Z</time></trkpt><trkpt lat="44.3451302" lon="8.4367559"><ele>95.33333333333333</ele><time>2026-04-04T09:04:37.384Z</time></trkpt><trkpt lat="44.3450729" lon="8.4365431"><ele>94.0</ele><time>2026-04-04T09:04:38.384Z</time></trkpt><trkpt lat="44.345028" lon="8.4363541"><ele>95.0</ele><time>2026-04-04T09:04:39.383Z</time></trkpt><trkpt lat="44.3449891" lon="8.4361822"><ele>96.0</ele><time>2026-04-04T09:04:40.384Z</time></trkpt><trkpt lat="44.3449535" lon="8.436021"><ele>97.0</ele><time>2026-04-04T09:04:41.384Z</time></trkpt><trkpt lat="44.3449183" lon="8.4358635"><ele>98.0</ele><time>2026-04-04T09:04:42.383Z</time></trkpt><trkpt lat="44.344884" lon="8.435708"><ele>98.0</ele><time>2026-04-04T09:04:43.383Z</time></trkpt><trkpt lat="44.3448486" lon="8.4355527"><ele>98.0</ele><time>2026-04-04T09:04:44.384Z</time></trkpt><trkpt lat="44.3448099" lon="8.4354061"><ele>98.0</ele><time>2026-04-04T09:04:45.384Z</time></trkpt><trkpt lat="44.3447641" lon="8.4352719"><ele>98.0</ele><time>2026-04-04T09:04:46.384Z</time></trkpt><trkpt lat="44.3447015" lon="8.4351629"><ele>98.0</ele><time>2026-04-04T09:04:47.383Z</time></trkpt><trkpt lat="44.3446328" lon="8.4350772"><ele>98.2</ele><time>2026-04-04T09:04:48.384Z</time></trkpt><trkpt lat="44.344575" lon="8.4349948"><ele>98.4</ele><time>2026-04-04T09:04:49.384Z</time></trkpt><trkpt lat="44.3445482" lon="8.4349142"><ele>98.60000000000001</ele><time>2026-04-04T09:04:50.383Z</time></trkpt><trkpt lat="44.3445673" lon="8.4347536"><ele>98.80000000000001</ele><time>2026-04-04T09:04:52.384Z</time></trkpt><trkpt lat="44.3445909" lon="8.4346205"><ele>99.0</ele><time>2026-04-04T09:04:54.384Z</time></trkpt><trkpt lat="44.3445927" lon="8.4344883"><ele>99.16666666666667</ele><time>2026-04-04T09:04:56.384Z</time></trkpt><trkpt lat="44.3445773" lon="8.4344006"><ele>99.33333333333334</ele><time>2026-04-04T09:04:58.384Z</time></trkpt><trkpt lat="44.3445444" lon="8.4343006"><ele>99.5</ele><time>2026-04-04T09:05:03.384Z</time></trkpt><trkpt lat="44.3445011" lon="8.4341932"><ele>99.66666666666667</ele><time>2026-04-04T09:05:05.384Z</time></trkpt><trkpt lat="44.3444665" lon="8.4341"><ele>99.83333333333334</ele><time>2026-04-04T09:05:06.383Z</time></trkpt><trkpt lat="44.3444287" lon="8.4339754"><ele>100.0</ele><time>2026-04-04T09:05:07.384Z</time></trkpt><trkpt lat="44.3443898" lon="8.4338474"><ele>101.25</ele><time>2026-04-04T09:05:08.384Z</time></trkpt><trkpt lat="44.34435" lon="8.433716"><ele>102.5</ele><time>2026-04-04T09:05:09.384Z</time></trkpt><trkpt lat="44.3443124" lon="8.4335571"><ele>103.75</ele><time>2026-04-04T09:05:10.384Z</time></trkpt><trkpt lat="44.3442636" lon="8.4334102"><ele>105.0</ele><time>2026-04-04T09:05:11.384Z</time></trkpt><trkpt lat="44.3442131" lon="8.4332619"><ele>105.0</ele><time>2026-04-04T09:05:12.384Z</time></trkpt><trkpt lat="44.3441534" lon="8.433107"><ele>105.0</ele><time>2026-04-04T09:05:13.384Z</time></trkpt><trkpt lat="44.3440919" lon="8.4329351"><ele>105.0</ele><time>2026-04-04T09:05:14.384Z</time></trkpt><trkpt lat="44.3440306" lon="8.4327713"><ele>105.0</ele><time>2026-04-04T09:05:15.384Z</time></trkpt><trkpt lat="44.3439721" lon="8.4326161"><ele>104.75</ele><time>2026-04-04T09:05:16.384Z</time></trkpt><trkpt lat="44.3439136" lon="8.4324693"><ele>104.5</ele><time>2026-04-04T09:05:17.384Z</time></trkpt><trkpt lat="44.3438433" lon="8.4323241"><ele>104.25</ele><time>2026-04-04T09:05:18.384Z</time></trkpt><trkpt lat="44.3437435" lon="8.4321984"><ele>104.0</ele><time>2026-04-04T09:05:19.384Z</time></trkpt><trkpt lat="44.3436204" lon="8.4320634"><ele>106.0</ele><time>2026-04-04T09:05:20.384Z</time></trkpt><trkpt lat="44.3435026" lon="8.4319292"><ele>108.0</ele><time>2026-04-04T09:05:21.384Z</time></trkpt><trkpt lat="44.3433939" lon="8.4317977"><ele>110.0</ele><time>2026-04-04T09:05:22.383Z</time></trkpt><trkpt lat="44.3433137" lon="8.4316634"><ele>112.0</ele><time>2026-04-04T09:05:23.385Z</time></trkpt><trkpt lat="44.3432304" lon="8.431527"><ele>112.0</ele><time>2026-04-04T09:05:24.385Z</time></trkpt><trkpt lat="44.34313" lon="8.4314058"><ele>112.0</ele><time>2026-04-04T09:05:25.385Z</time></trkpt><trkpt lat="44.3429996" lon="8.4313017"><ele>112.0</ele><time>2026-04-04T09:05:26.385Z</time></trkpt><trkpt lat="44.3428431" lon="8.4312138"><ele>115.0</ele><time>2026-04-04T09:05:27.387Z</time></trkpt><trkpt lat="44.3426666" lon="8.4311232"><ele>118.0</ele><time>2026-04-04T09:05:28.385Z</time></trkpt><trkpt lat="44.3424638" lon="8.431047"><ele>121.0</ele><time>2026-04-04T09:05:29.384Z</time></trkpt><trkpt lat="44.3422557" lon="8.4309687"><ele>118.0</ele><time>2026-04-04T09:05:30.385Z</time></trkpt><trkpt lat="44.3420689" lon="8.4308729"><ele>115.0</ele><time>2026-04-04T09:05:31.385Z</time></trkpt><trkpt lat="44.3419148" lon="8.4307812"><ele>112.0</ele><time>2026-04-04T09:05:32.385Z</time></trkpt><trkpt lat="44.3417892" lon="8.4307063"><ele>112.0</ele><time>2026-04-04T09:05:33.385Z</time></trkpt><trkpt lat="44.3416808" lon="8.4306412"><ele>112.0</ele><time>2026-04-04T09:05:34.385Z</time></trkpt><trkpt lat="44.3415822" lon="8.4305723"><ele>112.0</ele><time>2026-04-04T09:05:35.385Z</time></trkpt><trkpt lat="44.341491" lon="8.4304853"><ele>112.0</ele><time>2026-04-04T09:05:36.385Z</time></trkpt><trkpt lat="44.3414024" lon="8.4303797"><ele>112.19999999999999</ele><time>2026-04-04T09:05:37.385Z</time></trkpt><trkpt lat="44.3413276" lon="8.4302707"><ele>112.39999999999999</ele><time>2026-04-04T09:05:38.384Z</time></trkpt><trkpt lat="44.3412653" lon="8.4301662"><ele>112.60000000000001</ele><time>2026-04-04T09:05:39.385Z</time></trkpt><trkpt lat="44.341217" lon="8.4300672"><ele>112.80000000000001</ele><time>2026-04-04T09:05:40.385Z</time></trkpt><trkpt lat="44.3411964" lon="8.4299605"><ele>113.0</ele><time>2026-04-04T09:05:41.384Z</time></trkpt><trkpt lat="44.3412167" lon="8.429816"><ele>113.0</ele><time>2026-04-04T09:05:42.385Z</time></trkpt><trkpt lat="44.341275" lon="8.4296583"><ele>113.0</ele><time>2026-04-04T09:05:43.385Z</time></trkpt><trkpt lat="44.3413459" lon="8.4295095"><ele>113.0</ele><time>2026-04-04T09:05:44.385Z</time></trkpt><trkpt lat="44.3414201" lon="8.4293475"><ele>113.0</ele><time>2026-04-04T09:05:45.385Z</time></trkpt><trkpt lat="44.341473" lon="8.4291656"><ele>113.66666666666666</ele><time>2026-04-04T09:05:46.385Z</time></trkpt><trkpt lat="44.3414719" lon="8.4289382"><ele>114.33333333333334</ele><time>2026-04-04T09:05:47.385Z</time></trkpt><trkpt lat="44.3414357" lon="8.4286952"><ele>115.0</ele><time>2026-04-04T09:05:48.385Z</time></trkpt><trkpt lat="44.3413811" lon="8.4284574"><ele>115.0</ele><time>2026-04-04T09:05:49.384Z</time></trkpt><trkpt lat="44.3412782" lon="8.4281528"><ele>115.0</ele><time>2026-04-04T09:05:50.385Z</time></trkpt><trkpt lat="44.3411778" lon="8.4278668"><ele>115.66666666666667</ele><time>2026-04-04T09:05:51.384Z</time></trkpt><trkpt lat="44.3410712" lon="8.4276191"><ele>116.33333333333334</ele><time>2026-04-04T09:05:52.385Z</time></trkpt><trkpt lat="44.340967" lon="8.42737"><ele>117.0</ele><time>2026-04-04T09:05:53.385Z</time></trkpt><trkpt lat="44.3408619" lon="8.4271233"><ele>120.33333333333334</ele><time>2026-04-04T09:05:54.384Z</time></trkpt><trkpt lat="44.3407544" lon="8.4268677"><ele>123.66666666666667</ele><time>2026-04-04T09:05:55.385Z</time></trkpt><trkpt lat="44.3406522" lon="8.4266139"><ele>127.0</ele><time>2026-04-04T09:05:56.385Z</time></trkpt><trkpt lat="44.340551" lon="8.4263703"><ele>124.0</ele><time>2026-04-04T09:05:57.385Z</time></trkpt><trkpt lat="44.3404482" lon="8.4261514"><ele>121.0</ele><time>2026-04-04T09:05:58.385Z</time></trkpt><trkpt lat="44.3403422" lon="8.425976"><ele>118.0</ele><time>2026-04-04T09:05:59.385Z</time></trkpt><trkpt lat="44.3402332" lon="8.4258061"><ele>118.0</ele><time>2026-04-04T09:06:00.385Z</time></trkpt><trkpt lat="44.3401509" lon="8.4256125"><ele>118.0</ele><time>2026-04-04T09:06:01.385Z</time></trkpt><trkpt lat="44.3401083" lon="8.4253906"><ele>118.0</ele><time>2026-04-04T09:06:02.385Z</time></trkpt><trkpt lat="44.3400751" lon="8.4251558"><ele>119.66666666666667</ele><time>2026-04-04T09:06:03.384Z</time></trkpt><trkpt lat="44.3400886" lon="8.4248768"><ele>121.33333333333334</ele><time>2026-04-04T09:06:04.385Z</time></trkpt><trkpt lat="44.3400869" lon="8.4245915"><ele>123.0</ele><time>2026-04-04T09:06:05.385Z</time></trkpt><trkpt lat="44.340044" lon="8.4243109"><ele>125.66666666666666</ele><time>2026-04-04T09:06:06.385Z</time></trkpt><trkpt lat="44.3399731" lon="8.4240331"><ele>128.33333333333331</ele><time>2026-04-04T09:06:07.385Z</time></trkpt><trkpt lat="44.3399085" lon="8.4237615"><ele>131.0</ele><time>2026-04-04T09:06:08.384Z</time></trkpt><trkpt lat="44.3398415" lon="8.4235049"><ele>132.66666666666666</ele><time>2026-04-04T09:06:09.385Z</time></trkpt><trkpt lat="44.339777" lon="8.4232642"><ele>134.33333333333334</ele><time>2026-04-04T09:06:10.385Z</time></trkpt><trkpt lat="44.3397141" lon="8.4230436"><ele>136.0</ele><time>2026-04-04T09:06:11.385Z</time></trkpt><trkpt lat="44.3396315" lon="8.4228306"><ele>132.0</ele><time>2026-04-04T09:06:12.384Z</time></trkpt><trkpt lat="44.3395292" lon="8.4226279"><ele>128.0</ele><time>2026-04-04T09:06:13.385Z</time></trkpt><trkpt lat="44.3394038" lon="8.4224298"><ele>124.0</ele><time>2026-04-04T09:06:14.385Z</time></trkpt><trkpt lat="44.3392672" lon="8.422227"><ele>124.66666666666667</ele><time>2026-04-04T09:06:15.385Z</time></trkpt><trkpt lat="44.339133" lon="8.4220324"><ele>125.33333333333334</ele><time>2026-04-04T09:06:16.385Z</time></trkpt><trkpt lat="44.3390029" lon="8.4218541"><ele>126.0</ele><time>2026-04-04T09:06:17.384Z</time></trkpt><trkpt lat="44.3388872" lon="8.4216884"><ele>125.25</ele><time>2026-04-04T09:06:18.385Z</time></trkpt><trkpt lat="44.3387853" lon="8.4215338"><ele>124.5</ele><time>2026-04-04T09:06:19.384Z</time></trkpt><trkpt lat="44.3386863" lon="8.4213844"><ele>123.75</ele><time>2026-04-04T09:06:20.384Z</time></trkpt><trkpt lat="44.3385931" lon="8.4212457"><ele>123.0</ele><time>2026-04-04T09:06:21.385Z</time></trkpt><trkpt lat="44.3385254" lon="8.4211032"><ele>123.0</ele><time>2026-04-04T09:06:22.385Z</time></trkpt><trkpt lat="44.3384905" lon="8.4209329"><ele>123.0</ele><time>2026-04-04T09:06:23.385Z</time></trkpt><trkpt lat="44.3385029" lon="8.420753"><ele>123.0</ele><time>2026-04-04T09:06:24.385Z</time></trkpt><trkpt lat="44.3385718" lon="8.4205517"><ele>123.0</ele><time>2026-04-04T09:06:25.385Z</time></trkpt><trkpt lat="44.3386711" lon="8.4203732"><ele>122.66666666666666</ele><time>2026-04-04T09:06:26.385Z</time></trkpt><trkpt lat="44.3388233" lon="8.420272"><ele>122.33333333333333</ele><time>2026-04-04T09:06:27.385Z</time></trkpt><trkpt lat="44.3390104" lon="8.4202477"><ele>122.0</ele><time>2026-04-04T09:06:28.384Z</time></trkpt><trkpt lat="44.3391967" lon="8.4202417"><ele>122.0</ele><time>2026-04-04T09:06:29.385Z</time></trkpt><trkpt lat="44.3393775" lon="8.4202788"><ele>122.0</ele><time>2026-04-04T09:06:30.385Z</time></trkpt><trkpt lat="44.3395405" lon="8.4202713"><ele>122.0</ele><time>2026-04-04T09:06:31.385Z</time></trkpt><trkpt lat="44.3397031" lon="8.4201903"><ele>126.66666666666666</ele><time>2026-04-04T09:06:32.385Z</time></trkpt><trkpt lat="44.339852" lon="8.4200449"><ele>131.33333333333334</ele><time>2026-04-04T09:06:33.386Z</time></trkpt><trkpt lat="44.3399871" lon="8.419857"><ele>136.0</ele><time>2026-04-04T09:06:34.386Z</time></trkpt><trkpt lat="44.3401018" lon="8.4197048"><ele>133.5</ele><time>2026-04-04T09:06:35.386Z</time></trkpt><trkpt lat="44.3402002" lon="8.4195888"><ele>131.0</ele><time>2026-04-04T09:06:36.386Z</time></trkpt><trkpt lat="44.3402874" lon="8.4195142"><ele>128.5</ele><time>2026-04-04T09:06:37.386Z</time></trkpt><trkpt lat="44.3404056" lon="8.4194964"><ele>126.0</ele><time>2026-04-04T09:06:38.386Z</time></trkpt><trkpt lat="44.340544" lon="8.4195341"><ele>126.66666666666666</ele><time>2026-04-04T09:06:39.386Z</time></trkpt><trkpt lat="44.3407028" lon="8.4196347"><ele>127.33333333333333</ele><time>2026-04-04T09:06:40.386Z</time></trkpt><trkpt lat="44.3408468" lon="8.4197003"><ele>128.0</ele><time>2026-04-04T09:06:41.385Z</time></trkpt><trkpt lat="44.340997" lon="8.4196969"><ele>128.0</ele><time>2026-04-04T09:06:42.386Z</time></trkpt><trkpt lat="44.341157" lon="8.4196062"><ele>128.0</ele><time>2026-04-04T09:06:43.386Z</time></trkpt><trkpt lat="44.3413271" lon="8.4194599"><ele>128.0</ele><time>2026-04-04T09:06:44.386Z</time></trkpt><trkpt lat="44.3415033" lon="8.4193217"><ele>130.66666666666666</ele><time>2026-04-04T09:06:45.386Z</time></trkpt><trkpt lat="44.3416561" lon="8.4192303"><ele>133.33333333333334</ele><time>2026-04-04T09:06:46.386Z</time></trkpt><trkpt lat="44.3418043" lon="8.419142"><ele>136.0</ele><time>2026-04-04T09:06:47.386Z</time></trkpt><trkpt lat="44.3419542" lon="8.4190394"><ele>136.0</ele><time>2026-04-04T09:06:48.386Z</time></trkpt><trkpt lat="44.3420957" lon="8.4189321"><ele>136.0</ele><time>2026-04-04T09:06:49.385Z</time></trkpt><trkpt lat="44.3422355" lon="8.4188287"><ele>136.0</ele><time>2026-04-04T09:06:50.386Z</time></trkpt><trkpt lat="44.3423695" lon="8.4187366"><ele>135.33333333333334</ele><time>2026-04-04T09:06:51.385Z</time></trkpt><trkpt lat="44.3425026" lon="8.4186375"><ele>134.66666666666666</ele><time>2026-04-04T09:06:52.386Z</time></trkpt><trkpt lat="44.3426333" lon="8.418536"><ele>134.0</ele><time>2026-04-04T09:06:53.386Z</time></trkpt><trkpt lat="44.3427685" lon="8.4184219"><ele>134.0</ele><time>2026-04-04T09:06:54.386Z</time></trkpt><trkpt lat="44.3429063" lon="8.4182967"><ele>134.0</ele><time>2026-04-04T09:06:55.386Z</time></trkpt><trkpt lat="44.3430469" lon="8.4181525"><ele>134.0</ele><time>2026-04-04T09:06:56.386Z</time></trkpt><trkpt lat="44.3431946" lon="8.4180065"><ele>134.66666666666666</ele><time>2026-04-04T09:06:57.386Z</time></trkpt><trkpt lat="44.343331" lon="8.4178809"><ele>135.33333333333334</ele><time>2026-04-04T09:06:58.386Z</time></trkpt><trkpt lat="44.3434651" lon="8.4177525"><ele>136.0</ele><time>2026-04-04T09:06:59.386Z</time></trkpt><trkpt lat="44.3436005" lon="8.4176246"><ele>136.0</ele><time>2026-04-04T09:07:00.386Z</time></trkpt><trkpt lat="44.3437331" lon="8.4174953"><ele>136.0</ele><time>2026-04-04T09:07:01.386Z</time></trkpt><trkpt lat="44.3438641" lon="8.4173605"><ele>136.0</ele><time>2026-04-04T09:07:02.386Z</time></trkpt><trkpt lat="44.3439938" lon="8.4172219"><ele>135.33333333333334</ele><time>2026-04-04T09:07:03.386Z</time></trkpt><trkpt lat="44.3441157" lon="8.4170652"><ele>134.66666666666666</ele><time>2026-04-04T09:07:04.385Z</time></trkpt><trkpt lat="44.3442436" lon="8.4169251"><ele>134.0</ele><time>2026-04-04T09:07:05.386Z</time></trkpt><trkpt lat="44.3444235" lon="8.4168471"><ele>134.0</ele><time>2026-04-04T09:07:06.386Z</time></trkpt><trkpt lat="44.3446342" lon="8.4168301"><ele>134.0</ele><time>2026-04-04T09:07:07.386Z</time></trkpt><trkpt lat="44.3448515" lon="8.4168354"><ele>134.0</ele><time>2026-04-04T09:07:08.386Z</time></trkpt><trkpt lat="44.345054" lon="8.4168185"><ele>135.0</ele><time>2026-04-04T09:07:09.386Z</time></trkpt><trkpt lat="44.3452537" lon="8.4168152"><ele>136.0</ele><time>2026-04-04T09:07:10.386Z</time></trkpt><trkpt lat="44.3454455" lon="8.4168228"><ele>137.0</ele><time>2026-04-04T09:07:11.386Z</time></trkpt><trkpt lat="44.3456224" lon="8.4168251"><ele>139.0</ele><time>2026-04-04T09:07:12.386Z</time></trkpt><trkpt lat="44.3457759" lon="8.416784"><ele>141.0</ele><time>2026-04-04T09:07:13.386Z</time></trkpt><trkpt lat="44.345931" lon="8.4167069"><ele>143.0</ele><time>2026-04-04T09:07:14.386Z</time></trkpt><trkpt lat="44.3461036" lon="8.4165923"><ele>143.0</ele><time>2026-04-04T09:07:15.386Z</time></trkpt><trkpt lat="44.346261" lon="8.4164498"><ele>143.0</ele><time>2026-04-04T09:07:16.386Z</time></trkpt><trkpt lat="44.3463984" lon="8.4163311"><ele>143.0</ele><time>2026-04-04T09:07:17.386Z</time></trkpt><trkpt lat="44.346537" lon="8.4162297"><ele>143.66666666666666</ele><time>2026-04-04T09:07:18.386Z</time></trkpt><trkpt lat="44.3466553" lon="8.4160933"><ele>144.33333333333334</ele><time>2026-04-04T09:07:19.386Z</time></trkpt><trkpt lat="44.346749" lon="8.4158871"><ele>145.0</ele><time>2026-04-04T09:07:20.386Z</time></trkpt><trkpt lat="44.3467939" lon="8.4156178"><ele>143.0</ele><time>2026-04-04T09:07:21.386Z</time></trkpt><trkpt lat="44.3467926" lon="8.4153416"><ele>141.0</ele><time>2026-04-04T09:07:22.386Z</time></trkpt><trkpt lat="44.3467881" lon="8.4151286"><ele>139.0</ele><time>2026-04-04T09:07:23.386Z</time></trkpt><trkpt lat="44.3467918" lon="8.4149227"><ele>139.0</ele><time>2026-04-04T09:07:24.385Z</time></trkpt><trkpt lat="44.3468227" lon="8.4147408"><ele>139.0</ele><time>2026-04-04T09:07:25.386Z</time></trkpt><trkpt lat="44.3468761" lon="8.4145706"><ele>139.0</ele><time>2026-04-04T09:07:26.386Z</time></trkpt><trkpt lat="44.3469495" lon="8.414407"><ele>139.0</ele><time>2026-04-04T09:07:27.386Z</time></trkpt><trkpt lat="44.3470593" lon="8.4142885"><ele>138.75</ele><time>2026-04-04T09:07:28.386Z</time></trkpt><trkpt lat="44.3471571" lon="8.4141403"><ele>138.5</ele><time>2026-04-04T09:07:29.386Z</time></trkpt><trkpt lat="44.3472706" lon="8.4140268"><ele>138.25</ele><time>2026-04-04T09:07:30.386Z</time></trkpt><trkpt lat="44.3474053" lon="8.4139773"><ele>138.0</ele><time>2026-04-04T09:07:31.386Z</time></trkpt><trkpt lat="44.3475524" lon="8.413937"><ele>140.66666666666666</ele><time>2026-04-04T09:07:32.386Z</time></trkpt><trkpt lat="44.3477279" lon="8.4139275"><ele>143.33333333333331</ele><time>2026-04-04T09:07:33.386Z</time></trkpt><trkpt lat="44.3478972" lon="8.4139218"><ele>146.0</ele><time>2026-04-04T09:07:34.386Z</time></trkpt><trkpt lat="44.3480596" lon="8.4139243"><ele>150.0</ele><time>2026-04-04T09:07:35.386Z</time></trkpt><trkpt lat="44.3482136" lon="8.4139374"><ele>154.0</ele><time>2026-04-04T09:07:36.386Z</time></trkpt><trkpt lat="44.3483561" lon="8.4139605"><ele>158.0</ele><time>2026-04-04T09:07:37.386Z</time></trkpt><trkpt lat="44.3484981" lon="8.4139776"><ele>162.0</ele><time>2026-04-04T09:07:38.386Z</time></trkpt><trkpt lat="44.3486442" lon="8.4139658"><ele>162.0</ele><time>2026-04-04T09:07:39.386Z</time></trkpt><trkpt lat="44.3487836" lon="8.4139353"><ele>162.0</ele><time>2026-04-04T09:07:40.386Z</time></trkpt><trkpt lat="44.3489199" lon="8.4138986"><ele>162.0</ele><time>2026-04-04T09:07:41.386Z</time></trkpt><trkpt lat="44.3490379" lon="8.4138817"><ele>162.0</ele><time>2026-04-04T09:07:42.386Z</time></trkpt><trkpt lat="44.3491414" lon="8.4139533"><ele>163.75</ele><time>2026-04-04T09:07:43.386Z</time></trkpt><trkpt lat="44.3492296" lon="8.4140319"><ele>165.5</ele><time>2026-04-04T09:07:44.386Z</time></trkpt><trkpt lat="44.349306" lon="8.414176"><ele>167.25</ele><time>2026-04-04T09:07:45.386Z</time></trkpt><trkpt lat="44.3493565" lon="8.4143428"><ele>169.0</ele><time>2026-04-04T09:07:46.386Z</time></trkpt><trkpt lat="44.3494048" lon="8.4145343"><ele>172.66666666666669</ele><time>2026-04-04T09:07:47.387Z</time></trkpt><trkpt lat="44.3494712" lon="8.4147085"><ele>176.33333333333334</ele><time>2026-04-04T09:07:48.387Z</time></trkpt><trkpt lat="44.349585" lon="8.4148593"><ele>180.0</ele><time>2026-04-04T09:07:49.387Z</time></trkpt><trkpt lat="44.349739" lon="8.4150093"><ele>180.0</ele><time>2026-04-04T09:07:50.386Z</time></trkpt><trkpt lat="44.3499765" lon="8.4151888"><ele>180.0</ele><time>2026-04-04T09:07:51.387Z</time></trkpt><trkpt lat="44.3502032" lon="8.4153737"><ele>185.0</ele><time>2026-04-04T09:07:52.387Z</time></trkpt><trkpt lat="44.3504331" lon="8.4155611"><ele>190.0</ele><time>2026-04-04T09:07:53.387Z</time></trkpt><trkpt lat="44.3506599" lon="8.4157307"><ele>190.0</ele><time>2026-04-04T09:07:54.387Z</time></trkpt><trkpt lat="44.3508908" lon="8.415882"><ele>190.0</ele><time>2026-04-04T09:07:55.387Z</time></trkpt><trkpt lat="44.3511121" lon="8.4159854"><ele>190.0</ele><time>2026-04-04T09:07:56.387Z</time></trkpt><trkpt lat="44.3513159" lon="8.4160555"><ele>190.0</ele><time>2026-04-04T09:07:57.387Z</time></trkpt><trkpt lat="44.351481" lon="8.4160984"><ele>190.0</ele><time>2026-04-04T09:07:58.387Z</time></trkpt><trkpt lat="44.3516275" lon="8.416159"><ele>190.5</ele><time>2026-04-04T09:07:59.387Z</time></trkpt><trkpt lat="44.3517549" lon="8.4162206"><ele>191.0</ele><time>2026-04-04T09:08:00.387Z</time></trkpt><trkpt lat="44.3518681" lon="8.4162452"><ele>191.5</ele><time>2026-04-04T09:08:01.387Z</time></trkpt><trkpt lat="44.3519673" lon="8.4162267"><ele>192.0</ele><time>2026-04-04T09:08:02.387Z</time></trkpt><trkpt lat="44.3520484" lon="8.4161218"><ele>192.0</ele><time>2026-04-04T09:08:03.387Z</time></trkpt><trkpt lat="44.3521157" lon="8.4159283"><ele>192.0</ele><time>2026-04-04T09:08:04.387Z</time></trkpt><trkpt lat="44.3521407" lon="8.4157267"><ele>192.0</ele><time>2026-04-04T09:08:05.387Z</time></trkpt><trkpt lat="44.3520893" lon="8.4155203"><ele>200.33333333333331</ele><time>2026-04-04T09:08:06.386Z</time></trkpt><trkpt lat="44.3520144" lon="8.4153756"><ele>208.66666666666666</ele><time>2026-04-04T09:08:07.387Z</time></trkpt><trkpt lat="44.3518607" lon="8.4152365"><ele>217.0</ele><time>2026-04-04T09:08:08.387Z</time></trkpt><trkpt lat="44.3516948" lon="8.4151489"><ele>217.0</ele><time>2026-04-04T09:08:09.387Z</time></trkpt><trkpt lat="44.3515122" lon="8.4150969"><ele>217.0</ele><time>2026-04-04T09:08:10.386Z</time></trkpt><trkpt lat="44.3513019" lon="8.4149782"><ele>217.0</ele><time>2026-04-04T09:08:11.387Z</time></trkpt><trkpt lat="44.3511395" lon="8.4148343"><ele>215.0</ele><time>2026-04-04T09:08:12.387Z</time></trkpt><trkpt lat="44.3510453" lon="8.4146135"><ele>213.0</ele><time>2026-04-04T09:08:13.387Z</time></trkpt><trkpt lat="44.350968" lon="8.4143853"><ele>211.0</ele><time>2026-04-04T09:08:14.387Z</time></trkpt><trkpt lat="44.3509199" lon="8.4141693"><ele>211.0</ele><time>2026-04-04T09:08:15.387Z</time></trkpt><trkpt lat="44.3508567" lon="8.414004"><ele>211.0</ele><time>2026-04-04T09:08:16.387Z</time></trkpt><trkpt lat="44.350763" lon="8.4139037"><ele>211.0</ele><time>2026-04-04T09:08:17.387Z</time></trkpt><trkpt lat="44.350614" lon="8.4138292"><ele>211.0</ele><time>2026-04-04T09:08:18.387Z</time></trkpt><trkpt lat="44.350477" lon="8.4137291"><ele>208.66666666666666</ele><time>2026-04-04T09:08:19.387Z</time></trkpt><trkpt lat="44.3503591" lon="8.4135655"><ele>206.33333333333331</ele><time>2026-04-04T09:08:20.387Z</time></trkpt><trkpt lat="44.3502552" lon="8.4133536"><ele>204.0</ele><time>2026-04-04T09:08:21.387Z</time></trkpt><trkpt lat="44.3501503" lon="8.4131098"><ele>209.0</ele><time>2026-04-04T09:08:22.387Z</time></trkpt><trkpt lat="44.3500414" lon="8.4128951"><ele>214.0</ele><time>2026-04-04T09:08:23.386Z</time></trkpt><trkpt lat="44.3499225" lon="8.4127007"><ele>219.0</ele><time>2026-04-04T09:08:24.387Z</time></trkpt><trkpt lat="44.3498126" lon="8.4125557"><ele>214.39999999999998</ele><time>2026-04-04T09:08:25.387Z</time></trkpt><trkpt lat="44.3497067" lon="8.4124658"><ele>209.79999999999998</ele><time>2026-04-04T09:08:26.387Z</time></trkpt><trkpt lat="44.3496465" lon="8.4123849"><ele>205.2</ele><time>2026-04-04T09:08:27.387Z</time></trkpt><trkpt lat="44.3496465" lon="8.412285"><ele>200.60000000000002</ele><time>2026-04-04T09:08:28.387Z</time></trkpt><trkpt lat="44.3496898" lon="8.4121473"><ele>196.0</ele><time>2026-04-04T09:08:29.387Z</time></trkpt><trkpt lat="44.3497728" lon="8.4120406"><ele>196.0</ele><time>2026-04-04T09:08:30.387Z</time></trkpt><trkpt lat="44.3498954" lon="8.4119982"><ele>196.0</ele><time>2026-04-04T09:08:31.387Z</time></trkpt><trkpt lat="44.3500113" lon="8.4120679"><ele>196.0</ele><time>2026-04-04T09:08:32.386Z</time></trkpt><trkpt lat="44.3501494" lon="8.4122609"><ele>196.0</ele><time>2026-04-04T09:08:33.386Z</time></trkpt><trkpt lat="44.3502959" lon="8.4125266"><ele>205.5</ele><time>2026-04-04T09:08:34.387Z</time></trkpt><trkpt lat="44.3504638" lon="8.4127803"><ele>215.0</ele><time>2026-04-04T09:08:35.387Z</time></trkpt><trkpt lat="44.3506391" lon="8.4129742"><ele>220.33333333333334</ele><time>2026-04-04T09:08:36.387Z</time></trkpt><trkpt lat="44.3507934" lon="8.4131045"><ele>225.66666666666669</ele><time>2026-04-04T09:08:37.387Z</time></trkpt><trkpt lat="44.3509312" lon="8.4131983"><ele>231.0</ele><time>2026-04-04T09:08:38.387Z</time></trkpt><trkpt lat="44.3510552" lon="8.4132563"><ele>231.0</ele><time>2026-04-04T09:08:39.387Z</time></trkpt><trkpt lat="44.3511977" lon="8.4132644"><ele>231.0</ele><time>2026-04-04T09:08:40.387Z</time></trkpt><trkpt lat="44.3513703" lon="8.4132091"><ele>231.0</ele><time>2026-04-04T09:08:41.387Z</time></trkpt><trkpt lat="44.3515535" lon="8.4131091"><ele>235.33333333333331</ele><time>2026-04-04T09:08:42.387Z</time></trkpt><trkpt lat="44.3517051" lon="8.4130472"><ele>239.66666666666666</ele><time>2026-04-04T09:08:43.387Z</time></trkpt><trkpt lat="44.3518472" lon="8.4130136"><ele>244.0</ele><time>2026-04-04T09:08:44.386Z</time></trkpt><trkpt lat="44.3520024" lon="8.4130601"><ele>244.0</ele><time>2026-04-04T09:08:45.386Z</time></trkpt><trkpt lat="44.3521789" lon="8.413129"><ele>244.0</ele><time>2026-04-04T09:08:46.387Z</time></trkpt><trkpt lat="44.3523911" lon="8.4132193"><ele>244.0</ele><time>2026-04-04T09:08:47.387Z</time></trkpt><trkpt lat="44.3526035" lon="8.4132622"><ele>245.66666666666666</ele><time>2026-04-04T09:08:48.387Z</time></trkpt><trkpt lat="44.3528017" lon="8.4133326"><ele>247.33333333333331</ele><time>2026-04-04T09:08:49.387Z</time></trkpt><trkpt lat="44.3529854" lon="8.4134001"><ele>249.0</ele><time>2026-04-04T09:08:50.387Z</time></trkpt><trkpt lat="44.3531587" lon="8.4135144"><ele>249.0</ele><time>2026-04-04T09:08:51.386Z</time></trkpt><trkpt lat="44.3533145" lon="8.4136281"><ele>249.0</ele><time>2026-04-04T09:08:52.387Z</time></trkpt><trkpt lat="44.3534263" lon="8.4137211"><ele>249.0</ele><time>2026-04-04T09:08:53.386Z</time></trkpt><trkpt lat="44.3535321" lon="8.4137793"><ele>249.0</ele><time>2026-04-04T09:08:54.387Z</time></trkpt><trkpt lat="44.3536358" lon="8.4137929"><ele>249.0</ele><time>2026-04-04T09:08:55.387Z</time></trkpt><trkpt lat="44.3538007" lon="8.413694"><ele>249.0</ele><time>2026-04-04T09:08:56.387Z</time></trkpt><trkpt lat="44.3539908" lon="8.4135236"><ele>249.0</ele><time>2026-04-04T09:08:57.386Z</time></trkpt><trkpt lat="44.3541889" lon="8.4133386"><ele>249.66666666666669</ele><time>2026-04-04T09:08:58.387Z</time></trkpt><trkpt lat="44.3543497" lon="8.4131704"><ele>250.33333333333334</ele><time>2026-04-04T09:08:59.388Z</time></trkpt><trkpt lat="44.354506" lon="8.4129909"><ele>251.0</ele><time>2026-04-04T09:09:00.387Z</time></trkpt><trkpt lat="44.3546648" lon="8.4127436"><ele>266.5</ele><time>2026-04-04T09:09:01.388Z</time></trkpt><trkpt lat="44.3548118" lon="8.4124644"><ele>282.0</ele><time>2026-04-04T09:09:02.388Z</time></trkpt><trkpt lat="44.3549424" lon="8.4121749"><ele>279.6666666666667</ele><time>2026-04-04T09:09:03.388Z</time></trkpt><trkpt lat="44.3550619" lon="8.4119471"><ele>277.33333333333337</ele><time>2026-04-04T09:09:04.388Z</time></trkpt><trkpt lat="44.3551685" lon="8.4117543"><ele>275.0</ele><time>2026-04-04T09:09:05.388Z</time></trkpt><trkpt lat="44.3552738" lon="8.4115954"><ele>275.0</ele><time>2026-04-04T09:09:06.388Z</time></trkpt><trkpt lat="44.3553785" lon="8.4114555"><ele>275.0</ele><time>2026-04-04T09:09:07.388Z</time></trkpt><trkpt lat="44.3554932" lon="8.4113528"><ele>275.0</ele><time>2026-04-04T09:09:08.387Z</time></trkpt><trkpt lat="44.3556131" lon="8.4112789"><ele>275.0</ele><time>2026-04-04T09:09:09.388Z</time></trkpt><trkpt lat="44.3557107" lon="8.4112096"><ele>278.0</ele><time>2026-04-04T09:09:10.388Z</time></trkpt><trkpt lat="44.355782" lon="8.4111149"><ele>281.0</ele><time>2026-04-04T09:09:11.388Z</time></trkpt><trkpt lat="44.3558186" lon="8.4110209"><ele>284.0</ele><time>2026-04-04T09:09:12.388Z</time></trkpt><trkpt lat="44.3558171" lon="8.4108736"><ele>287.0</ele><time>2026-04-04T09:09:14.387Z</time></trkpt><trkpt lat="44.3557301" lon="8.4107919"><ele>290.0</ele><time>2026-04-04T09:09:15.388Z</time></trkpt><trkpt lat="44.3555144" lon="8.4106632"><ele>290.0</ele><time>2026-04-04T09:09:16.388Z</time></trkpt><trkpt lat="44.3552327" lon="8.4105815"><ele>290.0</ele><time>2026-04-04T09:09:17.388Z</time></trkpt><trkpt lat="44.3549402" lon="8.4105705"><ele>285.6666666666667</ele><time>2026-04-04T09:09:18.388Z</time></trkpt><trkpt lat="44.3546944" lon="8.4105729"><ele>281.3333333333333</ele><time>2026-04-04T09:09:19.388Z</time></trkpt><trkpt lat="44.3545246" lon="8.4105625"><ele>277.0</ele><time>2026-04-04T09:09:20.388Z</time></trkpt><trkpt lat="44.354391" lon="8.4104951"><ele>279.66666666666663</ele><time>2026-04-04T09:09:21.388Z</time></trkpt><trkpt lat="44.3542838" lon="8.4103706"><ele>282.3333333333333</ele><time>2026-04-04T09:09:22.388Z</time></trkpt><trkpt lat="44.3542197" lon="8.4101681"><ele>285.0</ele><time>2026-04-04T09:09:23.387Z</time></trkpt><trkpt lat="44.3542157" lon="8.4099496"><ele>285.0</ele><time>2026-04-04T09:09:24.388Z</time></trkpt><trkpt lat="44.3542681" lon="8.4097699"><ele>285.0</ele><time>2026-04-04T09:09:25.388Z</time></trkpt><trkpt lat="44.3543586" lon="8.4096198"><ele>285.0</ele><time>2026-04-04T09:09:26.387Z</time></trkpt><trkpt lat="44.3545092" lon="8.409498"><ele>294.0</ele><time>2026-04-04T09:09:27.388Z</time></trkpt><trkpt lat="44.3547247" lon="8.4093491"><ele>303.0</ele><time>2026-04-04T09:09:28.388Z</time></trkpt><trkpt lat="44.3549383" lon="8.4091059"><ele>303.0</ele><time>2026-04-04T09:09:29.388Z</time></trkpt><trkpt lat="44.35508" lon="8.4088521"><ele>303.0</ele><time>2026-04-04T09:09:30.388Z</time></trkpt><trkpt lat="44.3551772" lon="8.4086111"><ele>303.0</ele><time>2026-04-04T09:09:31.388Z</time></trkpt><trkpt lat="44.3552509" lon="8.4083444"><ele>300.6666666666667</ele><time>2026-04-04T09:09:32.388Z</time></trkpt><trkpt lat="44.3553062" lon="8.4080621"><ele>298.33333333333337</ele><time>2026-04-04T09:09:33.388Z</time></trkpt><trkpt lat="44.3553653" lon="8.4077731"><ele>296.0</ele><time>2026-04-04T09:09:34.388Z</time></trkpt><trkpt lat="44.355454" lon="8.4074801"><ele>307.5</ele><time>2026-04-04T09:09:35.387Z</time></trkpt><trkpt lat="44.3555794" lon="8.4071905"><ele>319.0</ele><time>2026-04-04T09:09:36.388Z</time></trkpt><trkpt lat="44.3557119" lon="8.4069394"><ele>319.0</ele><time>2026-04-04T09:09:37.388Z</time></trkpt><trkpt lat="44.3558262" lon="8.4067258"><ele>319.0</ele><time>2026-04-04T09:09:38.388Z</time></trkpt><trkpt lat="44.355924" lon="8.4065413"><ele>319.0</ele><time>2026-04-04T09:09:39.388Z</time></trkpt><trkpt lat="44.3560152" lon="8.4063777"><ele>322.0</ele><time>2026-04-04T09:09:40.388Z</time></trkpt><trkpt lat="44.356093" lon="8.4062264"><ele>325.0</ele><time>2026-04-04T09:09:41.388Z</time></trkpt><trkpt lat="44.3561162" lon="8.4061055"><ele>328.0</ele><time>2026-04-04T09:09:42.388Z</time></trkpt><trkpt lat="44.3560805" lon="8.4059632"><ele>331.0</ele><time>2026-04-04T09:09:43.388Z</time></trkpt><trkpt lat="44.355985" lon="8.405821"><ele>331.0</ele><time>2026-04-04T09:09:44.388Z</time></trkpt><trkpt lat="44.3558376" lon="8.4057007"><ele>331.0</ele><time>2026-04-04T09:09:45.387Z</time></trkpt><trkpt lat="44.3556775" lon="8.4056003"><ele>331.0</ele><time>2026-04-04T09:09:46.388Z</time></trkpt><trkpt lat="44.3554862" lon="8.4055105"><ele>339.0</ele><time>2026-04-04T09:09:47.388Z</time></trkpt><trkpt lat="44.355256" lon="8.4053857"><ele>347.0</ele><time>2026-04-04T09:09:48.388Z</time></trkpt><trkpt lat="44.3550419" lon="8.4052305"><ele>347.0</ele><time>2026-04-04T09:09:49.388Z</time></trkpt><trkpt lat="44.3548548" lon="8.4050726"><ele>347.0</ele><time>2026-04-04T09:09:50.388Z</time></trkpt><trkpt lat="44.3547025" lon="8.4049441"><ele>347.0</ele><time>2026-04-04T09:09:51.388Z</time></trkpt><trkpt lat="44.3545489" lon="8.4048367"><ele>346.75</ele><time>2026-04-04T09:09:52.388Z</time></trkpt><trkpt lat="44.3544151" lon="8.4047343"><ele>346.5</ele><time>2026-04-04T09:09:53.388Z</time></trkpt><trkpt lat="44.3543073" lon="8.4046077"><ele>346.25</ele><time>2026-04-04T09:09:54.388Z</time></trkpt><trkpt lat="44.3542315" lon="8.4044377"><ele>346.0</ele><time>2026-04-04T09:09:55.388Z</time></trkpt><trkpt lat="44.3541972" lon="8.4041735"><ele>346.0</ele><time>2026-04-04T09:09:56.387Z</time></trkpt><trkpt lat="44.3541667" lon="8.4038387"><ele>346.0</ele><time>2026-04-04T09:09:57.387Z</time></trkpt><trkpt lat="44.3541532" lon="8.4034645"><ele>349.0</ele><time>2026-04-04T09:09:58.388Z</time></trkpt><trkpt lat="44.3541378" lon="8.4030896"><ele>352.0</ele><time>2026-04-04T09:09:59.387Z</time></trkpt><trkpt lat="44.3540857" lon="8.4027141"><ele>358.5</ele><time>2026-04-04T09:10:00.387Z</time></trkpt><trkpt lat="44.3540005" lon="8.4023376"><ele>365.0</ele><time>2026-04-04T09:10:01.388Z</time></trkpt><trkpt lat="44.353897" lon="8.4019723"><ele>362.6666666666667</ele><time>2026-04-04T09:10:02.388Z</time></trkpt><trkpt lat="44.3538221" lon="8.4016553"><ele>360.3333333333333</ele><time>2026-04-04T09:10:03.388Z</time></trkpt><trkpt lat="44.3537594" lon="8.401377"><ele>358.0</ele><time>2026-04-04T09:10:04.388Z</time></trkpt><trkpt lat="44.353696" lon="8.4011307"><ele>358.0</ele><time>2026-04-04T09:10:05.388Z</time></trkpt><trkpt lat="44.3536444" lon="8.4009157"><ele>358.0</ele><time>2026-04-04T09:10:06.388Z</time></trkpt><trkpt lat="44.3536017" lon="8.4007172"><ele>358.0</ele><time>2026-04-04T09:10:07.388Z</time></trkpt><trkpt lat="44.353564" lon="8.4005346"><ele>358.0</ele><time>2026-04-04T09:10:08.388Z</time></trkpt><trkpt lat="44.3535472" lon="8.4003661"><ele>357.25</ele><time>2026-04-04T09:10:09.388Z</time></trkpt><trkpt lat="44.3535698" lon="8.4002006"><ele>356.5</ele><time>2026-04-04T09:10:10.389Z</time></trkpt><trkpt lat="44.35363" lon="8.400042"><ele>355.75</ele><time>2026-04-04T09:10:11.389Z</time></trkpt><trkpt lat="44.3537325" lon="8.3998997"><ele>355.0</ele><time>2026-04-04T09:10:12.388Z</time></trkpt><trkpt lat="44.3538649" lon="8.3997597"><ele>362.0</ele><time>2026-04-04T09:10:13.389Z</time></trkpt><trkpt lat="44.353987" lon="8.3995966"><ele>369.0</ele><time>2026-04-04T09:10:14.389Z</time></trkpt><trkpt lat="44.3540612" lon="8.3994428"><ele>376.0</ele><time>2026-04-04T09:10:15.389Z</time></trkpt><trkpt lat="44.3540757" lon="8.3992929"><ele>383.0</ele><time>2026-04-04T09:10:16.388Z</time></trkpt><trkpt lat="44.3540264" lon="8.399117"><ele>383.0</ele><time>2026-04-04T09:10:17.388Z</time></trkpt><trkpt lat="44.3539685" lon="8.3989516"><ele>383.0</ele><time>2026-04-04T09:10:18.388Z</time></trkpt><trkpt lat="44.3539527" lon="8.3988091"><ele>383.0</ele><time>2026-04-04T09:10:19.389Z</time></trkpt><trkpt lat="44.3540002" lon="8.3986749"><ele>383.0</ele><time>2026-04-04T09:10:20.389Z</time></trkpt><trkpt lat="44.3540869" lon="8.3986066"><ele>383.0</ele><time>2026-04-04T09:10:21.389Z</time></trkpt><trkpt lat="44.3541943" lon="8.3985923"><ele>383.0</ele><time>2026-04-04T09:10:22.388Z</time></trkpt><trkpt lat="44.3543221" lon="8.398689"><ele>383.0</ele><time>2026-04-04T09:10:23.388Z</time></trkpt><trkpt lat="44.3544411" lon="8.398901"><ele>383.0</ele><time>2026-04-04T09:10:24.389Z</time></trkpt><trkpt lat="44.3545511" lon="8.3991895"><ele>383.0</ele><time>2026-04-04T09:10:25.389Z</time></trkpt><trkpt lat="44.3546564" lon="8.3994811"><ele>383.0</ele><time>2026-04-04T09:10:26.389Z</time></trkpt><trkpt lat="44.3547793" lon="8.3996977"><ele>383.0</ele><time>2026-04-04T09:10:27.389Z</time></trkpt><trkpt lat="44.3549328" lon="8.39987"><ele>390.0</ele><time>2026-04-04T09:10:28.389Z</time></trkpt><trkpt lat="44.3550804" lon="8.3999811"><ele>397.0</ele><time>2026-04-04T09:10:29.389Z</time></trkpt><trkpt lat="44.3552347" lon="8.4000397"><ele>404.0</ele><time>2026-04-04T09:10:30.389Z</time></trkpt><trkpt lat="44.3553892" lon="8.4000753"><ele>407.66666666666663</ele><time>2026-04-04T09:10:31.389Z</time></trkpt><trkpt lat="44.3555384" lon="8.4000661"><ele>411.33333333333337</ele><time>2026-04-04T09:10:32.389Z</time></trkpt><trkpt lat="44.3556999" lon="8.4000204"><ele>415.0</ele><time>2026-04-04T09:10:33.389Z</time></trkpt><trkpt lat="44.3558519" lon="8.3999138"><ele>415.0</ele><time>2026-04-04T09:10:34.389Z</time></trkpt><trkpt lat="44.3559524" lon="8.3997255"><ele>415.0</ele><time>2026-04-04T09:10:35.389Z</time></trkpt><trkpt lat="44.3560523" lon="8.3995028"><ele>415.0</ele><time>2026-04-04T09:10:36.388Z</time></trkpt><trkpt lat="44.35614" lon="8.399318"><ele>414.4</ele><time>2026-04-04T09:10:37.388Z</time></trkpt><trkpt lat="44.3562083" lon="8.3991855"><ele>413.8</ele><time>2026-04-04T09:10:38.389Z</time></trkpt><trkpt lat="44.356289" lon="8.3991466"><ele>413.20000000000005</ele><time>2026-04-04T09:10:39.389Z</time></trkpt><trkpt lat="44.3563843" lon="8.3991634"><ele>412.6</ele><time>2026-04-04T09:10:40.389Z</time></trkpt><trkpt lat="44.3564965" lon="8.3992337"><ele>412.0</ele><time>2026-04-04T09:10:41.389Z</time></trkpt><trkpt lat="44.356667" lon="8.3993313"><ele>412.0</ele><time>2026-04-04T09:10:42.389Z</time></trkpt><trkpt lat="44.3568453" lon="8.3993768"><ele>412.0</ele><time>2026-04-04T09:10:43.389Z</time></trkpt><trkpt lat="44.3570209" lon="8.399331"><ele>412.0</ele><time>2026-04-04T09:10:44.389Z</time></trkpt><trkpt lat="44.3571919" lon="8.3992251"><ele>417.33333333333337</ele><time>2026-04-04T09:10:45.389Z</time></trkpt><trkpt lat="44.3573451" lon="8.3991034"><ele>422.66666666666663</ele><time>2026-04-04T09:10:46.389Z</time></trkpt><trkpt lat="44.3574745" lon="8.3989993"><ele>428.0</ele><time>2026-04-04T09:10:47.389Z</time></trkpt><trkpt lat="44.3576292" lon="8.3989374"><ele>428.0</ele><time>2026-04-04T09:10:48.389Z</time></trkpt><trkpt lat="44.3577786" lon="8.3989715"><ele>428.0</ele><time>2026-04-04T09:10:49.389Z</time></trkpt><trkpt lat="44.3579344" lon="8.3990551"><ele>428.0</ele><time>2026-04-04T09:10:50.389Z</time></trkpt><trkpt lat="44.3581066" lon="8.3992375"><ele>429.0</ele><time>2026-04-04T09:10:51.389Z</time></trkpt><trkpt lat="44.3582581" lon="8.3993542"><ele>430.0</ele><time>2026-04-04T09:10:52.389Z</time></trkpt><trkpt lat="44.3583948" lon="8.399362"><ele>431.0</ele><time>2026-04-04T09:10:53.388Z</time></trkpt><trkpt lat="44.3585404" lon="8.3993229"><ele>431.0</ele><time>2026-04-04T09:10:54.389Z</time></trkpt><trkpt lat="44.358694" lon="8.3992816"><ele>431.0</ele><time>2026-04-04T09:10:55.389Z</time></trkpt><trkpt lat="44.3588482" lon="8.3992883"><ele>431.0</ele><time>2026-04-04T09:10:56.389Z</time></trkpt><trkpt lat="44.3590256" lon="8.3993538"><ele>431.3333333333333</ele><time>2026-04-04T09:10:57.388Z</time></trkpt><trkpt lat="44.3592391" lon="8.3994708"><ele>431.66666666666663</ele><time>2026-04-04T09:10:58.389Z</time></trkpt><trkpt lat="44.3594303" lon="8.3995981"><ele>432.0</ele><time>2026-04-04T09:10:59.389Z</time></trkpt><trkpt lat="44.359606" lon="8.3997189"><ele>437.0</ele><time>2026-04-04T09:11:00.389Z</time></trkpt><trkpt lat="44.359739" lon="8.3998786"><ele>442.0</ele><time>2026-04-04T09:11:01.389Z</time></trkpt><trkpt lat="44.359864" lon="8.4000847"><ele>447.0</ele><time>2026-04-04T09:11:02.389Z</time></trkpt><trkpt lat="44.3599919" lon="8.4003354"><ele>453.33333333333337</ele><time>2026-04-04T09:11:03.389Z</time></trkpt><trkpt lat="44.3600976" lon="8.4005938"><ele>459.6666666666667</ele><time>2026-04-04T09:11:04.389Z</time></trkpt><trkpt lat="44.3601844" lon="8.4008287"><ele>466.0</ele><time>2026-04-04T09:11:05.389Z</time></trkpt><trkpt lat="44.3602633" lon="8.401037"><ele>466.0</ele><time>2026-04-04T09:11:06.389Z</time></trkpt><trkpt lat="44.3603247" lon="8.4012505"><ele>466.0</ele><time>2026-04-04T09:11:07.388Z</time></trkpt><trkpt lat="44.3603743" lon="8.4014907"><ele>466.0</ele><time>2026-04-04T09:11:08.389Z</time></trkpt><trkpt lat="44.3604054" lon="8.4017658"><ele>470.0</ele><time>2026-04-04T09:11:09.389Z</time></trkpt><trkpt lat="44.3604256" lon="8.402068"><ele>474.0</ele><time>2026-04-04T09:11:10.389Z</time></trkpt><trkpt lat="44.3604428" lon="8.4023779"><ele>478.0</ele><time>2026-04-04T09:11:11.389Z</time></trkpt><trkpt lat="44.3604593" lon="8.4026935"><ele>480.33333333333337</ele><time>2026-04-04T09:11:12.389Z</time></trkpt><trkpt lat="44.3604876" lon="8.4030043"><ele>482.66666666666663</ele><time>2026-04-04T09:11:13.389Z</time></trkpt><trkpt lat="44.3605067" lon="8.403309"><ele>485.0</ele><time>2026-04-04T09:11:14.389Z</time></trkpt><trkpt lat="44.3605453" lon="8.4036031"><ele>487.3333333333333</ele><time>2026-04-04T09:11:15.389Z</time></trkpt><trkpt lat="44.3605697" lon="8.4038547"><ele>489.66666666666663</ele><time>2026-04-04T09:11:16.389Z</time></trkpt><trkpt lat="44.3605912" lon="8.4040674"><ele>492.0</ele><time>2026-04-04T09:11:17.389Z</time></trkpt><trkpt lat="44.3606147" lon="8.4042689"><ele>492.0</ele><time>2026-04-04T09:11:18.389Z</time></trkpt><trkpt lat="44.3606641" lon="8.4044731"><ele>492.0</ele><time>2026-04-04T09:11:19.39Z</time></trkpt><trkpt lat="44.3607428" lon="8.4046696"><ele>492.0</ele><time>2026-04-04T09:11:20.389Z</time></trkpt><trkpt lat="44.3608389" lon="8.4048777"><ele>490.75</ele><time>2026-04-04T09:11:21.39Z</time></trkpt><trkpt lat="44.3609385" lon="8.4050516"><ele>489.5</ele><time>2026-04-04T09:11:22.39Z</time></trkpt><trkpt lat="44.3610295" lon="8.4052093"><ele>488.25</ele><time>2026-04-04T09:11:23.39Z</time></trkpt><trkpt lat="44.3611268" lon="8.4053581"><ele>487.0</ele><time>2026-04-04T09:11:24.389Z</time></trkpt><trkpt lat="44.3612381" lon="8.4054775"><ele>484.33333333333337</ele><time>2026-04-04T09:11:25.39Z</time></trkpt><trkpt lat="44.36136" lon="8.4055662"><ele>481.66666666666663</ele><time>2026-04-04T09:11:26.39Z</time></trkpt><trkpt lat="44.3615055" lon="8.4055925"><ele>479.0</ele><time>2026-04-04T09:11:27.39Z</time></trkpt><trkpt lat="44.361669" lon="8.405554"><ele>490.0</ele><time>2026-04-04T09:11:28.39Z</time></trkpt><trkpt lat="44.3618256" lon="8.4054727"><ele>501.0</ele><time>2026-04-04T09:11:29.39Z</time></trkpt><trkpt lat="44.3619814" lon="8.4053931"><ele>512.0</ele><time>2026-04-04T09:11:30.39Z</time></trkpt><trkpt lat="44.3621113" lon="8.4053055"><ele>511.25</ele><time>2026-04-04T09:11:31.389Z</time></trkpt><trkpt lat="44.362228" lon="8.4052265"><ele>510.5</ele><time>2026-04-04T09:11:32.39Z</time></trkpt><trkpt lat="44.3623365" lon="8.4051705"><ele>509.75</ele><time>2026-04-04T09:11:33.39Z</time></trkpt><trkpt lat="44.3624512" lon="8.4051076"><ele>509.0</ele><time>2026-04-04T09:11:34.39Z</time></trkpt><trkpt lat="44.3625697" lon="8.4050753"><ele>509.0</ele><time>2026-04-04T09:11:35.39Z</time></trkpt><trkpt lat="44.3627102" lon="8.4050658"><ele>509.0</ele><time>2026-04-04T09:11:36.39Z</time></trkpt><trkpt lat="44.3628778" lon="8.4051318"><ele>509.0</ele><time>2026-04-04T09:11:37.39Z</time></trkpt><trkpt lat="44.3630479" lon="8.4052564"><ele>511.0</ele><time>2026-04-04T09:11:38.39Z</time></trkpt><trkpt lat="44.3631983" lon="8.4054045"><ele>513.0</ele><time>2026-04-04T09:11:39.39Z</time></trkpt><trkpt lat="44.3633181" lon="8.4055044"><ele>515.0</ele><time>2026-04-04T09:11:40.39Z</time></trkpt><trkpt lat="44.3634127" lon="8.4055784"><ele>517.0</ele><time>2026-04-04T09:11:41.39Z</time></trkpt><trkpt lat="44.3635002" lon="8.4056335"><ele>517.0</ele><time>2026-04-04T09:11:42.39Z</time></trkpt><trkpt lat="44.3635686" lon="8.4056603"><ele>517.0</ele><time>2026-04-04T09:11:43.39Z</time></trkpt><trkpt lat="44.3636351" lon="8.4056595"><ele>517.0</ele><time>2026-04-04T09:11:44.39Z</time></trkpt><trkpt lat="44.3637168" lon="8.4056207"><ele>517.0</ele><time>2026-04-04T09:11:45.39Z</time></trkpt><trkpt lat="44.3637692" lon="8.4055059"><ele>517.0</ele><time>2026-04-04T09:11:46.389Z</time></trkpt><trkpt lat="44.3638161" lon="8.4053592"><ele>517.0</ele><time>2026-04-04T09:11:47.39Z</time></trkpt><trkpt lat="44.363819" lon="8.4051708"><ele>517.0</ele><time>2026-04-04T09:11:48.39Z</time></trkpt><trkpt lat="44.3638162" lon="8.4049808"><ele>517.0</ele><time>2026-04-04T09:11:49.389Z</time></trkpt><trkpt lat="44.3638257" lon="8.4047982"><ele>517.0</ele><time>2026-04-04T09:11:50.39Z</time></trkpt><trkpt lat="44.363849" lon="8.4045878"><ele>517.0</ele><time>2026-04-04T09:11:51.39Z</time></trkpt><trkpt lat="44.3639145" lon="8.4043983"><ele>524.3333333333334</ele><time>2026-04-04T09:11:52.39Z</time></trkpt><trkpt lat="44.364007" lon="8.4042226"><ele>531.6666666666666</ele><time>2026-04-04T09:11:53.39Z</time></trkpt><trkpt lat="44.3640981" lon="8.4040473"><ele>539.0</ele><time>2026-04-04T09:11:54.389Z</time></trkpt><trkpt lat="44.3641772" lon="8.4038385"><ele>536.0</ele><time>2026-04-04T09:11:55.389Z</time></trkpt><trkpt lat="44.3642465" lon="8.4036222"><ele>533.0</ele><time>2026-04-04T09:11:56.39Z</time></trkpt><trkpt lat="44.3643171" lon="8.4034084"><ele>530.0</ele><time>2026-04-04T09:11:57.39Z</time></trkpt><trkpt lat="44.3643931" lon="8.4031971"><ele>527.0</ele><time>2026-04-04T09:11:58.39Z</time></trkpt><trkpt lat="44.3644768" lon="8.4029933"><ele>524.0</ele><time>2026-04-04T09:11:59.39Z</time></trkpt><trkpt lat="44.36457" lon="8.4028029"><ele>521.0</ele><time>2026-04-04T09:12:00.389Z</time></trkpt><trkpt lat="44.3646586" lon="8.4026139"><ele>527.25</ele><time>2026-04-04T09:12:01.39Z</time></trkpt><trkpt lat="44.3647431" lon="8.4024286"><ele>533.5</ele><time>2026-04-04T09:12:02.39Z</time></trkpt><trkpt lat="44.3647879" lon="8.402236"><ele>539.75</ele><time>2026-04-04T09:12:03.39Z</time></trkpt><trkpt lat="44.3648098" lon="8.4020462"><ele>546.0</ele><time>2026-04-04T09:12:04.39Z</time></trkpt><trkpt lat="44.364812" lon="8.4018641"><ele>546.0</ele><time>2026-04-04T09:12:05.39Z</time></trkpt><trkpt lat="44.3648194" lon="8.4017208"><ele>546.0</ele><time>2026-04-04T09:12:06.39Z</time></trkpt><trkpt lat="44.3648388" lon="8.4016325"><ele>546.0</ele><time>2026-04-04T09:12:07.39Z</time></trkpt><trkpt lat="44.3649273" lon="8.4015335"><ele>546.0</ele><time>2026-04-04T09:12:09.39Z</time></trkpt><trkpt lat="44.3650117" lon="8.4015463"><ele>546.0</ele><time>2026-04-04T09:12:10.39Z</time></trkpt><trkpt lat="44.3650869" lon="8.4016506"><ele>546.0</ele><time>2026-04-04T09:12:11.39Z</time></trkpt><trkpt lat="44.365119" lon="8.4017933"><ele>546.0</ele><time>2026-04-04T09:12:12.389Z</time></trkpt><trkpt lat="44.3650725" lon="8.4019761"><ele>546.0</ele><time>2026-04-04T09:12:13.39Z</time></trkpt><trkpt lat="44.3650082" lon="8.4021737"><ele>546.0</ele><time>2026-04-04T09:12:14.39Z</time></trkpt><trkpt lat="44.3649606" lon="8.4023745"><ele>549.6666666666666</ele><time>2026-04-04T09:12:15.39Z</time></trkpt><trkpt lat="44.3649168" lon="8.4025766"><ele>553.3333333333333</ele><time>2026-04-04T09:12:16.39Z</time></trkpt><trkpt lat="44.3648699" lon="8.4027825"><ele>557.0</ele><time>2026-04-04T09:12:17.39Z</time></trkpt><trkpt lat="44.3648074" lon="8.4029719"><ele>561.0</ele><time>2026-04-04T09:12:18.39Z</time></trkpt><trkpt lat="44.3647522" lon="8.403169"><ele>565.0</ele><time>2026-04-04T09:12:19.39Z</time></trkpt><trkpt lat="44.3647019" lon="8.4033631"><ele>569.0</ele><time>2026-04-04T09:12:20.39Z</time></trkpt><trkpt lat="44.364661" lon="8.4035882"><ele>570.0</ele><time>2026-04-04T09:12:21.391Z</time></trkpt><trkpt lat="44.3646556" lon="8.4038306"><ele>571.0</ele><time>2026-04-04T09:12:22.39Z</time></trkpt><trkpt lat="44.3646637" lon="8.4040926"><ele>572.0</ele><time>2026-04-04T09:12:23.39Z</time></trkpt><trkpt lat="44.3647029" lon="8.4043525"><ele>572.0</ele><time>2026-04-04T09:12:24.39Z</time></trkpt><trkpt lat="44.3647651" lon="8.4046434"><ele>572.0</ele><time>2026-04-04T09:12:25.39Z</time></trkpt><trkpt lat="44.3648288" lon="8.4048987"><ele>572.0</ele><time>2026-04-04T09:12:26.39Z</time></trkpt><trkpt lat="44.3648772" lon="8.4051152"><ele>572.2</ele><time>2026-04-04T09:12:27.39Z</time></trkpt><trkpt lat="44.3649191" lon="8.4053064"><ele>572.4000000000001</ele><time>2026-04-04T09:12:28.39Z</time></trkpt><trkpt lat="44.3649488" lon="8.4054563"><ele>572.5999999999999</ele><time>2026-04-04T09:12:29.39Z</time></trkpt><trkpt lat="44.3649811" lon="8.4055845"><ele>572.8</ele><time>2026-04-04T09:12:30.39Z</time></trkpt><trkpt lat="44.365012" lon="8.4056789"><ele>573.0</ele><time>2026-04-04T09:12:31.39Z</time></trkpt><trkpt lat="44.3650534" lon="8.4057655"><ele>572.1999999999999</ele><time>2026-04-04T09:12:32.391Z</time></trkpt><trkpt lat="44.3651212" lon="8.4058451"><ele>571.4</ele><time>2026-04-04T09:12:33.391Z</time></trkpt><trkpt lat="44.365201" lon="8.4058711"><ele>570.5999999999999</ele><time>2026-04-04T09:12:34.391Z</time></trkpt><trkpt lat="44.3653043" lon="8.4058489"><ele>569.8</ele><time>2026-04-04T09:12:35.391Z</time></trkpt><trkpt lat="44.3653984" lon="8.4057548"><ele>569.0</ele><time>2026-04-04T09:12:36.391Z</time></trkpt><trkpt lat="44.3654837" lon="8.4055859"><ele>570.3333333333333</ele><time>2026-04-04T09:12:37.391Z</time></trkpt><trkpt lat="44.3655045" lon="8.4053817"><ele>571.6666666666666</ele><time>2026-04-04T09:12:38.391Z</time></trkpt><trkpt lat="44.3654478" lon="8.4051469"><ele>573.0</ele><time>2026-04-04T09:12:39.391Z</time></trkpt><trkpt lat="44.3654046" lon="8.4049439"><ele>573.0</ele><time>2026-04-04T09:12:40.391Z</time></trkpt><trkpt lat="44.365383" lon="8.4047668"><ele>573.0</ele><time>2026-04-04T09:12:41.391Z</time></trkpt><trkpt lat="44.3653946" lon="8.4046438"><ele>573.0</ele><time>2026-04-04T09:12:42.39Z</time></trkpt><trkpt lat="44.3654474" lon="8.4045804"><ele>573.0</ele><time>2026-04-04T09:12:43.391Z</time></trkpt><trkpt lat="44.3655436" lon="8.4045837"><ele>573.0</ele><time>2026-04-04T09:12:44.39Z</time></trkpt><trkpt lat="44.3656502" lon="8.4046522"><ele>580.6666666666666</ele><time>2026-04-04T09:12:45.39Z</time></trkpt><trkpt lat="44.3657991" lon="8.4048506"><ele>588.3333333333333</ele><time>2026-04-04T09:12:46.391Z</time></trkpt><trkpt lat="44.3659114" lon="8.4050019"><ele>596.0</ele><time>2026-04-04T09:12:47.391Z</time></trkpt><trkpt lat="44.3660096" lon="8.4051161"><ele>596.0</ele><time>2026-04-04T09:12:48.391Z</time></trkpt><trkpt lat="44.3660954" lon="8.4052138"><ele>596.0</ele><time>2026-04-04T09:12:49.391Z</time></trkpt><trkpt lat="44.3661786" lon="8.4053239"><ele>596.0</ele><time>2026-04-04T09:12:50.391Z</time></trkpt><trkpt lat="44.3662854" lon="8.4054584"><ele>596.0</ele><time>2026-04-04T09:12:51.391Z</time></trkpt><trkpt lat="44.3663952" lon="8.4056147"><ele>599.0</ele><time>2026-04-04T09:12:52.391Z</time></trkpt><trkpt lat="44.3665169" lon="8.4057991"><ele>602.0</ele><time>2026-04-04T09:12:53.391Z</time></trkpt><trkpt lat="44.3666341" lon="8.4059969"><ele>605.0</ele><time>2026-04-04T09:12:54.391Z</time></trkpt><trkpt lat="44.366744" lon="8.4061871"><ele>603.6666666666666</ele><time>2026-04-04T09:12:55.39Z</time></trkpt><trkpt lat="44.3668569" lon="8.4063938"><ele>602.3333333333334</ele><time>2026-04-04T09:12:56.391Z</time></trkpt><trkpt lat="44.366968" lon="8.4065938"><ele>601.0</ele><time>2026-04-04T09:12:57.391Z</time></trkpt><trkpt lat="44.3670826" lon="8.4067926"><ele>601.0</ele><time>2026-04-04T09:12:58.391Z</time></trkpt><trkpt lat="44.3671903" lon="8.406981"><ele>601.0</ele><time>2026-04-04T09:12:59.391Z</time></trkpt><trkpt lat="44.3672937" lon="8.4071273"><ele>601.0</ele><time>2026-04-04T09:13:00.391Z</time></trkpt><trkpt lat="44.3673846" lon="8.4072467"><ele>601.0</ele><time>2026-04-04T09:13:01.391Z</time></trkpt><trkpt lat="44.3674673" lon="8.4073567"><ele>603.8</ele><time>2026-04-04T09:13:02.39Z</time></trkpt><trkpt lat="44.3675486" lon="8.4074385"><ele>606.6</ele><time>2026-04-04T09:13:03.391Z</time></trkpt><trkpt lat="44.3676354" lon="8.4074936"><ele>609.4</ele><time>2026-04-04T09:13:04.391Z</time></trkpt><trkpt lat="44.3677349" lon="8.4075423"><ele>612.2</ele><time>2026-04-04T09:13:05.391Z</time></trkpt><trkpt lat="44.3678441" lon="8.4075529"><ele>615.0</ele><time>2026-04-04T09:13:06.391Z</time></trkpt><trkpt lat="44.3679598" lon="8.4074869"><ele>614.75</ele><time>2026-04-04T09:13:07.391Z</time></trkpt><trkpt lat="44.368043" lon="8.4073564"><ele>614.5</ele><time>2026-04-04T09:13:08.391Z</time></trkpt><trkpt lat="44.368127" lon="8.407199"><ele>614.25</ele><time>2026-04-04T09:13:09.391Z</time></trkpt><trkpt lat="44.3682421" lon="8.4071347"><ele>614.0</ele><time>2026-04-04T09:13:10.391Z</time></trkpt><trkpt lat="44.3683562" lon="8.407163"><ele>618.6666666666666</ele><time>2026-04-04T09:13:11.391Z</time></trkpt><trkpt lat="44.3684772" lon="8.4072847"><ele>623.3333333333334</ele><time>2026-04-04T09:13:12.391Z</time></trkpt><trkpt lat="44.3685658" lon="8.4074863"><ele>628.0</ele><time>2026-04-04T09:13:13.39Z</time></trkpt><trkpt lat="44.368567" lon="8.4077353"><ele>630.3333333333334</ele><time>2026-04-04T09:13:14.391Z</time></trkpt><trkpt lat="44.3685153" lon="8.4080093"><ele>632.6666666666666</ele><time>2026-04-04T09:13:15.391Z</time></trkpt><trkpt lat="44.3684647" lon="8.4082729"><ele>635.0</ele><time>2026-04-04T09:13:16.391Z</time></trkpt><trkpt lat="44.368431" lon="8.4084971"><ele>635.0</ele><time>2026-04-04T09:13:17.391Z</time></trkpt><trkpt lat="44.3684089" lon="8.4087299"><ele>635.0</ele><time>2026-04-04T09:13:18.391Z</time></trkpt><trkpt lat="44.3683908" lon="8.4089406"><ele>635.0</ele><time>2026-04-04T09:13:19.39Z</time></trkpt><trkpt lat="44.3683717" lon="8.4091538"><ele>636.75</ele><time>2026-04-04T09:13:20.391Z</time></trkpt><trkpt lat="44.3683495" lon="8.4093635"><ele>638.5</ele><time>2026-04-04T09:13:21.391Z</time></trkpt><trkpt lat="44.3683312" lon="8.4095754"><ele>640.25</ele><time>2026-04-04T09:13:22.39Z</time></trkpt><trkpt lat="44.3683169" lon="8.4097699"><ele>642.0</ele><time>2026-04-04T09:13:23.391Z</time></trkpt><trkpt lat="44.3683039" lon="8.4099442"><ele>642.0</ele><time>2026-04-04T09:13:24.391Z</time></trkpt><trkpt lat="44.3683011" lon="8.4101101"><ele>642.0</ele><time>2026-04-04T09:13:25.391Z</time></trkpt><trkpt lat="44.3683046" lon="8.4102686"><ele>642.0</ele><time>2026-04-04T09:13:26.391Z</time></trkpt><trkpt lat="44.3683392" lon="8.4104133"><ele>642.0</ele><time>2026-04-04T09:13:27.391Z</time></trkpt><trkpt lat="44.368421" lon="8.4105607"><ele>642.0</ele><time>2026-04-04T09:13:28.39Z</time></trkpt><trkpt lat="44.36856" lon="8.410669"><ele>642.0</ele><time>2026-04-04T09:13:29.39Z</time></trkpt><trkpt lat="44.3687029" lon="8.4107737"><ele>642.0</ele><time>2026-04-04T09:13:30.391Z</time></trkpt><trkpt lat="44.3688192" lon="8.4109223"><ele>652.6666666666666</ele><time>2026-04-04T09:13:31.391Z</time></trkpt><trkpt lat="44.3688944" lon="8.4111198"><ele>663.3333333333333</ele><time>2026-04-04T09:13:32.391Z</time></trkpt><trkpt lat="44.3689444" lon="8.4113339"><ele>674.0</ele><time>2026-04-04T09:13:33.39Z</time></trkpt><trkpt lat="44.3689663" lon="8.4115412"><ele>674.0</ele><time>2026-04-04T09:13:34.391Z</time></trkpt><trkpt lat="44.3689843" lon="8.4117322"><ele>674.0</ele><time>2026-04-04T09:13:35.391Z</time></trkpt><trkpt lat="44.3690094" lon="8.4119247"><ele>674.0</ele><time>2026-04-04T09:13:36.391Z</time></trkpt><trkpt lat="44.3690678" lon="8.4121223"><ele>674.0</ele><time>2026-04-04T09:13:37.391Z</time></trkpt><trkpt lat="44.3691605" lon="8.4123293"><ele>671.3333333333333</ele><time>2026-04-04T09:13:38.391Z</time></trkpt><trkpt lat="44.3692594" lon="8.4125338"><ele>668.6666666666666</ele><time>2026-04-04T09:13:39.39Z</time></trkpt><trkpt lat="44.3693621" lon="8.4127366"><ele>666.0</ele><time>2026-04-04T09:13:40.391Z</time></trkpt><trkpt lat="44.3694471" lon="8.4129112"><ele>666.1999999999999</ele><time>2026-04-04T09:13:41.392Z</time></trkpt><trkpt lat="44.3695189" lon="8.4130716"><ele>666.4</ele><time>2026-04-04T09:13:42.392Z</time></trkpt><trkpt lat="44.369574" lon="8.4132012"><ele>666.6</ele><time>2026-04-04T09:13:43.392Z</time></trkpt><trkpt lat="44.3696273" lon="8.4133146"><ele>666.8</ele><time>2026-04-04T09:13:44.392Z</time></trkpt><trkpt lat="44.3696723" lon="8.4133898"><ele>667.0</ele><time>2026-04-04T09:13:45.392Z</time></trkpt><trkpt lat="44.3697793" lon="8.4134038"><ele>672.8</ele><time>2026-04-04T09:13:47.392Z</time></trkpt><trkpt lat="44.3698475" lon="8.4133547"><ele>678.6</ele><time>2026-04-04T09:13:48.392Z</time></trkpt><trkpt lat="44.3698978" lon="8.4132416"><ele>684.4</ele><time>2026-04-04T09:13:49.392Z</time></trkpt><trkpt lat="44.369908" lon="8.4131081"><ele>690.1999999999999</ele><time>2026-04-04T09:13:50.392Z</time></trkpt><trkpt lat="44.3698522" lon="8.4129534"><ele>696.0</ele><time>2026-04-04T09:13:51.392Z</time></trkpt><trkpt lat="44.3697654" lon="8.4127653"><ele>686.0</ele><time>2026-04-04T09:13:52.392Z</time></trkpt><trkpt lat="44.3696883" lon="8.4125867"><ele>676.0</ele><time>2026-04-04T09:13:53.391Z</time></trkpt><trkpt lat="44.3696195" lon="8.4124083"><ele>666.0</ele><time>2026-04-04T09:13:54.392Z</time></trkpt><trkpt lat="44.3695677" lon="8.4121961"><ele>668.6666666666666</ele><time>2026-04-04T09:13:55.392Z</time></trkpt><trkpt lat="44.3695341" lon="8.4119748"><ele>671.3333333333333</ele><time>2026-04-04T09:13:56.392Z</time></trkpt><trkpt lat="44.3695294" lon="8.4117461"><ele>674.0</ele><time>2026-04-04T09:13:57.392Z</time></trkpt><trkpt lat="44.3695317" lon="8.4115027"><ele>675.0</ele><time>2026-04-04T09:13:58.392Z</time></trkpt><trkpt lat="44.3695369" lon="8.4112881"><ele>676.0</ele><time>2026-04-04T09:13:59.391Z</time></trkpt><trkpt lat="44.369542" lon="8.4111101"><ele>677.0</ele><time>2026-04-04T09:14:00.392Z</time></trkpt><trkpt lat="44.3695473" lon="8.4109866"><ele>678.0</ele><time>2026-04-04T09:14:01.392Z</time></trkpt><trkpt lat="44.369573" lon="8.4109018"><ele>679.0</ele><time>2026-04-04T09:14:02.392Z</time></trkpt><trkpt lat="44.3697113" lon="8.410893"><ele>683.8000000000001</ele><time>2026-04-04T09:14:04.391Z</time></trkpt><trkpt lat="44.3697947" lon="8.4109687"><ele>688.6</ele><time>2026-04-04T09:14:05.392Z</time></trkpt><trkpt lat="44.3698425" lon="8.4110654"><ele>693.4</ele><time>2026-04-04T09:14:06.392Z</time></trkpt><trkpt lat="44.3698626" lon="8.4111977"><ele>698.2</ele><time>2026-04-04T09:14:07.392Z</time></trkpt><trkpt lat="44.3698403" lon="8.4113967"><ele>703.0</ele><time>2026-04-04T09:14:08.392Z</time></trkpt><trkpt lat="44.3698008" lon="8.4116374"><ele>703.3333333333334</ele><time>2026-04-04T09:14:09.392Z</time></trkpt><trkpt lat="44.3697932" lon="8.411874"><ele>703.6666666666666</ele><time>2026-04-04T09:14:10.392Z</time></trkpt><trkpt lat="44.3698132" lon="8.4120945"><ele>704.0</ele><time>2026-04-04T09:14:11.392Z</time></trkpt><trkpt lat="44.369858" lon="8.4122899"><ele>704.0</ele><time>2026-04-04T09:14:12.391Z</time></trkpt><trkpt lat="44.3699458" lon="8.4124662"><ele>704.0</ele><time>2026-04-04T09:14:13.392Z</time></trkpt><trkpt lat="44.370072" lon="8.4126416"><ele>704.0</ele><time>2026-04-04T09:14:14.392Z</time></trkpt><trkpt lat="44.3701858" lon="8.4127932"><ele>704.0</ele><time>2026-04-04T09:14:15.392Z</time></trkpt><trkpt lat="44.3702866" lon="8.4129216"><ele>704.0</ele><time>2026-04-04T09:14:16.392Z</time></trkpt><trkpt lat="44.3703811" lon="8.4130342"><ele>704.0</ele><time>2026-04-04T09:14:17.392Z</time></trkpt><trkpt lat="44.3704701" lon="8.4131195"><ele>704.0</ele><time>2026-04-04T09:14:18.392Z</time></trkpt><trkpt lat="44.3705617" lon="8.4131594"><ele>707.5</ele><time>2026-04-04T09:14:19.392Z</time></trkpt><trkpt lat="44.3706581" lon="8.4131584"><ele>711.0</ele><time>2026-04-04T09:14:20.392Z</time></trkpt><trkpt lat="44.3707504" lon="8.4131409"><ele>714.5</ele><time>2026-04-04T09:14:21.392Z</time></trkpt><trkpt lat="44.3709117" lon="8.4130195"><ele>718.0</ele><time>2026-04-04T09:14:22.392Z</time></trkpt><trkpt lat="44.3711114" lon="8.4129371"><ele>718.0</ele><time>2026-04-04T09:14:23.392Z</time></trkpt><trkpt lat="44.3712931" lon="8.4128571"><ele>718.0</ele><time>2026-04-04T09:14:24.392Z</time></trkpt><trkpt lat="44.3714644" lon="8.412797"><ele>718.0</ele><time>2026-04-04T09:14:25.392Z</time></trkpt><trkpt lat="44.371614" lon="8.4127414"><ele>717.6666666666667</ele><time>2026-04-04T09:14:26.392Z</time></trkpt><trkpt lat="44.3717607" lon="8.4126523"><ele>717.3333333333334</ele><time>2026-04-04T09:14:27.392Z</time></trkpt><trkpt lat="44.3719033" lon="8.4125212"><ele>717.0</ele><time>2026-04-04T09:14:28.392Z</time></trkpt><trkpt lat="44.3720135" lon="8.412335"><ele>714.6666666666666</ele><time>2026-04-04T09:14:29.392Z</time></trkpt><trkpt lat="44.3721392" lon="8.4120867"><ele>712.3333333333333</ele><time>2026-04-04T09:14:30.392Z</time></trkpt><trkpt lat="44.372254" lon="8.4118543"><ele>710.0</ele><time>2026-04-04T09:14:31.392Z</time></trkpt><trkpt lat="44.3723972" lon="8.4116573"><ele>711.0</ele><time>2026-04-04T09:14:32.392Z</time></trkpt><trkpt lat="44.3725601" lon="8.4114938"><ele>712.0</ele><time>2026-04-04T09:14:33.392Z</time></trkpt><trkpt lat="44.3727517" lon="8.4113725"><ele>713.0</ele><time>2026-04-04T09:14:34.392Z</time></trkpt><trkpt lat="44.3729289" lon="8.4112598"><ele>717.6666666666666</ele><time>2026-04-04T09:14:35.392Z</time></trkpt><trkpt lat="44.3730848" lon="8.4111272"><ele>722.3333333333334</ele><time>2026-04-04T09:14:36.392Z</time></trkpt><trkpt lat="44.373217" lon="8.4109554"><ele>727.0</ele><time>2026-04-04T09:14:37.392Z</time></trkpt><trkpt lat="44.3733304" lon="8.4107657"><ele>727.0</ele><time>2026-04-04T09:14:38.392Z</time></trkpt><trkpt lat="44.3734442" lon="8.4105967"><ele>727.0</ele><time>2026-04-04T09:14:39.392Z</time></trkpt><trkpt lat="44.3735874" lon="8.4104745"><ele>727.0</ele><time>2026-04-04T09:14:40.392Z</time></trkpt><trkpt lat="44.3737562" lon="8.4103921"><ele>726.3333333333334</ele><time>2026-04-04T09:14:41.392Z</time></trkpt><trkpt lat="44.3739245" lon="8.4103562"><ele>725.6666666666666</ele><time>2026-04-04T09:14:42.392Z</time></trkpt><trkpt lat="44.374079" lon="8.4103647"><ele>725.0</ele><time>2026-04-04T09:14:43.392Z</time></trkpt><trkpt lat="44.3742291" lon="8.4103693"><ele>725.0</ele><time>2026-04-04T09:14:44.392Z</time></trkpt><trkpt lat="44.3743752" lon="8.4103638"><ele>725.0</ele><time>2026-04-04T09:14:45.392Z</time></trkpt><trkpt lat="44.3745269" lon="8.4103518"><ele>725.0</ele><time>2026-04-04T09:14:46.392Z</time></trkpt><trkpt lat="44.3746744" lon="8.4103511"><ele>725.0</ele><time>2026-04-04T09:14:47.391Z</time></trkpt><trkpt lat="44.3748102" lon="8.4103248"><ele>727.5</ele><time>2026-04-04T09:14:48.392Z</time></trkpt><trkpt lat="44.3749236" lon="8.4102611"><ele>730.0</ele><time>2026-04-04T09:14:49.393Z</time></trkpt><trkpt lat="44.3750503" lon="8.4101493"><ele>732.5</ele><time>2026-04-04T09:14:50.392Z</time></trkpt><trkpt lat="44.3751959" lon="8.4100324"><ele>735.0</ele><time>2026-04-04T09:14:51.393Z</time></trkpt><trkpt lat="44.37535" lon="8.4099316"><ele>738.3333333333334</ele><time>2026-04-04T09:14:52.393Z</time></trkpt><trkpt lat="44.3755205" lon="8.4098475"><ele>741.6666666666667</ele><time>2026-04-04T09:14:53.393Z</time></trkpt><trkpt lat="44.3757033" lon="8.4097909"><ele>745.0</ele><time>2026-04-04T09:14:54.393Z</time></trkpt><trkpt lat="44.3758814" lon="8.4097092"><ele>741.3333333333334</ele><time>2026-04-04T09:14:55.393Z</time></trkpt><trkpt lat="44.376058" lon="8.4096404"><ele>737.6666666666666</ele><time>2026-04-04T09:14:56.393Z</time></trkpt><trkpt lat="44.3762239" lon="8.4096144"><ele>734.0</ele><time>2026-04-04T09:14:57.393Z</time></trkpt><trkpt lat="44.3763757" lon="8.4096274"><ele>734.0</ele><time>2026-04-04T09:14:58.393Z</time></trkpt><trkpt lat="44.3765194" lon="8.4096308"><ele>734.0</ele><time>2026-04-04T09:14:59.393Z</time></trkpt><trkpt lat="44.3766535" lon="8.4096041"><ele>734.0</ele><time>2026-04-04T09:15:00.392Z</time></trkpt><trkpt lat="44.3767825" lon="8.4095382"><ele>734.0</ele><time>2026-04-04T09:15:01.392Z</time></trkpt><trkpt lat="44.3768966" lon="8.4094457"><ele>734.0</ele><time>2026-04-04T09:15:02.393Z</time></trkpt><trkpt lat="44.3769926" lon="8.4092817"><ele>734.0</ele><time>2026-04-04T09:15:03.393Z</time></trkpt><trkpt lat="44.3770392" lon="8.4090701"><ele>734.0</ele><time>2026-04-04T09:15:04.393Z</time></trkpt><trkpt lat="44.3770587" lon="8.4088306"><ele>730.6666666666666</ele><time>2026-04-04T09:15:05.393Z</time></trkpt><trkpt lat="44.3770722" lon="8.4085819"><ele>727.3333333333334</ele><time>2026-04-04T09:15:06.393Z</time></trkpt><trkpt lat="44.3770846" lon="8.4083309"><ele>724.0</ele><time>2026-04-04T09:15:07.393Z</time></trkpt><trkpt lat="44.3771202" lon="8.4080695"><ele>721.0</ele><time>2026-04-04T09:15:08.393Z</time></trkpt><trkpt lat="44.3771799" lon="8.407814"><ele>718.0</ele><time>2026-04-04T09:15:09.393Z</time></trkpt><trkpt lat="44.3772679" lon="8.4075891"><ele>715.0</ele><time>2026-04-04T09:15:10.393Z</time></trkpt><trkpt lat="44.377351" lon="8.4073841"><ele>717.75</ele><time>2026-04-04T09:15:11.393Z</time></trkpt><trkpt lat="44.377428" lon="8.4071938"><ele>720.5</ele><time>2026-04-04T09:15:12.393Z</time></trkpt><trkpt lat="44.3775132" lon="8.4070387"><ele>723.25</ele><time>2026-04-04T09:15:13.393Z</time></trkpt><trkpt lat="44.377619" lon="8.4069073"><ele>726.0</ele><time>2026-04-04T09:15:14.393Z</time></trkpt><trkpt lat="44.3777532" lon="8.4068168"><ele>726.0</ele><time>2026-04-04T09:15:15.393Z</time></trkpt><trkpt lat="44.377913" lon="8.4068061"><ele>726.0</ele><time>2026-04-04T09:15:16.393Z</time></trkpt><trkpt lat="44.3780975" lon="8.406885"><ele>726.0</ele><time>2026-04-04T09:15:17.393Z</time></trkpt><trkpt lat="44.3782583" lon="8.4069953"><ele>733.3333333333334</ele><time>2026-04-04T09:15:18.393Z</time></trkpt><trkpt lat="44.3784137" lon="8.4071612"><ele>740.6666666666667</ele><time>2026-04-04T09:15:19.393Z</time></trkpt><trkpt lat="44.3785424" lon="8.4073501"><ele>748.0</ele><time>2026-04-04T09:15:20.392Z</time></trkpt><trkpt lat="44.3786421" lon="8.4075362"><ele>748.0</ele><time>2026-04-04T09:15:21.392Z</time></trkpt><trkpt lat="44.3787107" lon="8.4077101"><ele>748.0</ele><time>2026-04-04T09:15:22.393Z</time></trkpt><trkpt lat="44.3787579" lon="8.4078727"><ele>748.0</ele><time>2026-04-04T09:15:23.393Z</time></trkpt><trkpt lat="44.378802" lon="8.40803"><ele>748.0</ele><time>2026-04-04T09:15:24.392Z</time></trkpt><trkpt lat="44.3788367" lon="8.4081534"><ele>748.0</ele><time>2026-04-04T09:15:25.393Z</time></trkpt><trkpt lat="44.37887" lon="8.4082471"><ele>748.0</ele><time>2026-04-04T09:15:26.393Z</time></trkpt><trkpt lat="44.3789247" lon="8.4083055"><ele>748.0</ele><time>2026-04-04T09:15:27.393Z</time></trkpt><trkpt lat="44.3789906" lon="8.4083072"><ele>748.0</ele><time>2026-04-04T09:15:28.393Z</time></trkpt><trkpt lat="44.3790776" lon="8.4082631"><ele>748.0</ele><time>2026-04-04T09:15:29.392Z</time></trkpt><trkpt lat="44.3791505" lon="8.4081156"><ele>748.0</ele><time>2026-04-04T09:15:30.393Z</time></trkpt><trkpt lat="44.3792181" lon="8.407855"><ele>745.6666666666667</ele><time>2026-04-04T09:15:31.393Z</time></trkpt><trkpt lat="44.3792517" lon="8.4076268"><ele>743.3333333333334</ele><time>2026-04-04T09:15:32.393Z</time></trkpt><trkpt lat="44.3792149" lon="8.407357"><ele>741.0</ele><time>2026-04-04T09:15:33.393Z</time></trkpt><trkpt lat="44.3791684" lon="8.4071553"><ele>737.6666666666666</ele><time>2026-04-04T09:15:34.393Z</time></trkpt><trkpt lat="44.3791167" lon="8.4069537"><ele>734.3333333333333</ele><time>2026-04-04T09:15:35.393Z</time></trkpt><trkpt lat="44.3791008" lon="8.4067539"><ele>731.0</ele><time>2026-04-04T09:15:36.393Z</time></trkpt><trkpt lat="44.3791317" lon="8.4065238"><ele>724.3333333333333</ele><time>2026-04-04T09:15:37.393Z</time></trkpt><trkpt lat="44.3791947" lon="8.406294"><ele>717.6666666666666</ele><time>2026-04-04T09:15:38.393Z</time></trkpt><trkpt lat="44.3792681" lon="8.4060697"><ele>711.0</ele><time>2026-04-04T09:15:39.394Z</time></trkpt><trkpt lat="44.3793484" lon="8.4058635"><ele>711.0</ele><time>2026-04-04T09:15:40.393Z</time></trkpt><trkpt lat="44.3794229" lon="8.4056762"><ele>711.0</ele><time>2026-04-04T09:15:41.393Z</time></trkpt><trkpt lat="44.3794942" lon="8.4054916"><ele>711.0</ele><time>2026-04-04T09:15:42.393Z</time></trkpt><trkpt lat="44.3795701" lon="8.4053223"><ele>711.0</ele><time>2026-04-04T09:15:43.393Z</time></trkpt><trkpt lat="44.379673" lon="8.4052043"><ele>714.0</ele><time>2026-04-04T09:15:44.393Z</time></trkpt><trkpt lat="44.3797947" lon="8.4050905"><ele>717.0</ele><time>2026-04-04T09:15:45.393Z</time></trkpt><trkpt lat="44.3799473" lon="8.4050136"><ele>720.0</ele><time>2026-04-04T09:15:46.393Z</time></trkpt><trkpt lat="44.380118" lon="8.4049574"><ele>720.0</ele><time>2026-04-04T09:15:47.393Z</time></trkpt><trkpt lat="44.3803061" lon="8.4049198"><ele>720.0</ele><time>2026-04-04T09:15:48.392Z</time></trkpt><trkpt lat="44.3804981" lon="8.4048847"><ele>720.0</ele><time>2026-04-04T09:15:49.393Z</time></trkpt><trkpt lat="44.3806778" lon="8.4048338"><ele>720.0</ele><time>2026-04-04T09:15:50.393Z</time></trkpt><trkpt lat="44.380853" lon="8.4047709"><ele>720.0</ele><time>2026-04-04T09:15:51.393Z</time></trkpt><trkpt lat="44.3810323" lon="8.404726"><ele>720.0</ele><time>2026-04-04T09:15:52.393Z</time></trkpt><trkpt lat="44.3812153" lon="8.404712"><ele>720.3333333333334</ele><time>2026-04-04T09:15:53.393Z</time></trkpt><trkpt lat="44.3813886" lon="8.4047328"><ele>720.6666666666667</ele><time>2026-04-04T09:15:54.393Z</time></trkpt><trkpt lat="44.3815644" lon="8.4047468"><ele>721.0</ele><time>2026-04-04T09:15:55.393Z</time></trkpt><trkpt lat="44.3817365" lon="8.4047305"><ele>721.0</ele><time>2026-04-04T09:15:56.393Z</time></trkpt><trkpt lat="44.3819071" lon="8.4046913"><ele>721.0</ele><time>2026-04-04T09:15:57.393Z</time></trkpt><trkpt lat="44.3820755" lon="8.4046354"><ele>721.0</ele><time>2026-04-04T09:15:58.393Z</time></trkpt><trkpt lat="44.3822269" lon="8.4045694"><ele>717.75</ele><time>2026-04-04T09:15:59.393Z</time></trkpt><trkpt lat="44.3823509" lon="8.4044836"><ele>714.5</ele><time>2026-04-04T09:16:00.393Z</time></trkpt><trkpt lat="44.3824712" lon="8.4043646"><ele>711.25</ele><time>2026-04-04T09:16:01.394Z</time></trkpt><trkpt lat="44.3825909" lon="8.4042448"><ele>708.0</ele><time>2026-04-04T09:16:02.394Z</time></trkpt><trkpt lat="44.3827131" lon="8.4041217"><ele>708.0</ele><time>2026-04-04T09:16:03.393Z</time></trkpt><trkpt lat="44.3828414" lon="8.4040052"><ele>708.0</ele><time>2026-04-04T09:16:04.394Z</time></trkpt><trkpt lat="44.3829765" lon="8.4038846"><ele>708.0</ele><time>2026-04-04T09:16:05.394Z</time></trkpt><trkpt lat="44.3831326" lon="8.4037895"><ele>703.6666666666666</ele><time>2026-04-04T09:16:06.393Z</time></trkpt><trkpt lat="44.3832749" lon="8.4037032"><ele>699.3333333333333</ele><time>2026-04-04T09:16:07.394Z</time></trkpt><trkpt lat="44.3834404" lon="8.4036754"><ele>695.0</ele><time>2026-04-04T09:16:08.394Z</time></trkpt><trkpt lat="44.3836032" lon="8.4036387"><ele>695.0</ele><time>2026-04-04T09:16:09.394Z</time></trkpt><trkpt lat="44.3837623" lon="8.4036102"><ele>695.0</ele><time>2026-04-04T09:16:10.394Z</time></trkpt><trkpt lat="44.3839331" lon="8.4035741"><ele>695.0</ele><time>2026-04-04T09:16:11.394Z</time></trkpt><trkpt lat="44.3841135" lon="8.4035339"><ele>696.3333333333333</ele><time>2026-04-04T09:16:12.394Z</time></trkpt><trkpt lat="44.3842838" lon="8.403472"><ele>697.6666666666666</ele><time>2026-04-04T09:16:13.394Z</time></trkpt><trkpt lat="44.3844463" lon="8.4034006"><ele>699.0</ele><time>2026-04-04T09:16:14.394Z</time></trkpt><trkpt lat="44.3845958" lon="8.4033281"><ele>700.5</ele><time>2026-04-04T09:16:15.394Z</time></trkpt><trkpt lat="44.3847344" lon="8.4032573"><ele>702.0</ele><time>2026-04-04T09:16:16.394Z</time></trkpt><trkpt lat="44.3848738" lon="8.403189"><ele>703.5</ele><time>2026-04-04T09:16:17.394Z</time></trkpt><trkpt lat="44.3850084" lon="8.4031164"><ele>705.0</ele><time>2026-04-04T09:16:18.394Z</time></trkpt><trkpt lat="44.3851434" lon="8.4030197"><ele>704.5</ele><time>2026-04-04T09:16:19.394Z</time></trkpt><trkpt lat="44.3852645" lon="8.4029175"><ele>704.0</ele><time>2026-04-04T09:16:20.394Z</time></trkpt><trkpt lat="44.3853821" lon="8.4028103"><ele>703.5</ele><time>2026-04-04T09:16:21.394Z</time></trkpt><trkpt lat="44.3854928" lon="8.402716"><ele>703.0</ele><time>2026-04-04T09:16:22.394Z</time></trkpt><trkpt lat="44.3855936" lon="8.4026398"><ele>703.0</ele><time>2026-04-04T09:16:23.394Z</time></trkpt><trkpt lat="44.3856848" lon="8.4025604"><ele>703.0</ele><time>2026-04-04T09:16:24.394Z</time></trkpt><trkpt lat="44.3857435" lon="8.4024213"><ele>703.0</ele><time>2026-04-04T09:16:25.394Z</time></trkpt><trkpt lat="44.3857759" lon="8.4022369"><ele>703.0</ele><time>2026-04-04T09:16:26.394Z</time></trkpt><trkpt lat="44.3857832" lon="8.4020566"><ele>699.75</ele><time>2026-04-04T09:16:27.394Z</time></trkpt><trkpt lat="44.3857827" lon="8.4018909"><ele>696.5</ele><time>2026-04-04T09:16:28.394Z</time></trkpt><trkpt lat="44.3858233" lon="8.4017526"><ele>693.25</ele><time>2026-04-04T09:16:29.394Z</time></trkpt><trkpt lat="44.3859335" lon="8.4016719"><ele>690.0</ele><time>2026-04-04T09:16:30.394Z</time></trkpt><trkpt lat="44.38607" lon="8.4016456"><ele>690.0</ele><time>2026-04-04T09:16:31.393Z</time></trkpt><trkpt lat="44.386192" lon="8.4016424"><ele>690.0</ele><time>2026-04-04T09:16:32.394Z</time></trkpt><trkpt lat="44.3862848" lon="8.4016065"><ele>690.0</ele><time>2026-04-04T09:16:33.394Z</time></trkpt><trkpt lat="44.3863612" lon="8.4015125"><ele>690.0</ele><time>2026-04-04T09:16:34.394Z</time></trkpt><trkpt lat="44.3864424" lon="8.40138"><ele>690.0</ele><time>2026-04-04T09:16:35.394Z</time></trkpt><trkpt lat="44.3865465" lon="8.4012621"><ele>690.0</ele><time>2026-04-04T09:16:36.394Z</time></trkpt><trkpt lat="44.3866689" lon="8.401252"><ele>690.0</ele><time>2026-04-04T09:16:37.394Z</time></trkpt><trkpt lat="44.3868182" lon="8.401287"><ele>690.0</ele><time>2026-04-04T09:16:38.394Z</time></trkpt><trkpt lat="44.3869702" lon="8.4013787"><ele>690.0</ele><time>2026-04-04T09:16:39.393Z</time></trkpt><trkpt lat="44.38711" lon="8.4015131"><ele>686.0</ele><time>2026-04-04T09:16:40.394Z</time></trkpt><trkpt lat="44.38722" lon="8.4016609"><ele>682.0</ele><time>2026-04-04T09:16:41.394Z</time></trkpt><trkpt lat="44.3872994" lon="8.401817"><ele>678.0</ele><time>2026-04-04T09:16:42.394Z</time></trkpt><trkpt lat="44.3873809" lon="8.4019674"><ele>674.0</ele><time>2026-04-04T09:16:43.394Z</time></trkpt><trkpt lat="44.3874523" lon="8.4021014"><ele>676.2</ele><time>2026-04-04T09:16:44.394Z</time></trkpt><trkpt lat="44.3875026" lon="8.4022295"><ele>678.4000000000001</ele><time>2026-04-04T09:16:45.394Z</time></trkpt><trkpt lat="44.3875348" lon="8.4023593"><ele>680.6</ele><time>2026-04-04T09:16:46.393Z</time></trkpt><trkpt lat="44.3875435" lon="8.4024911"><ele>682.8</ele><time>2026-04-04T09:16:47.394Z</time></trkpt><trkpt lat="44.3875641" lon="8.4026038"><ele>685.0</ele><time>2026-04-04T09:16:48.394Z</time></trkpt><trkpt lat="44.3876163" lon="8.4026758"><ele>685.0</ele><time>2026-04-04T09:16:49.394Z</time></trkpt><trkpt lat="44.3876833" lon="8.4027285"><ele>685.0</ele><time>2026-04-04T09:16:50.394Z</time></trkpt><trkpt lat="44.3877591" lon="8.4027326"><ele>685.0</ele><time>2026-04-04T09:16:51.394Z</time></trkpt><trkpt lat="44.3878384" lon="8.4026815"><ele>685.0</ele><time>2026-04-04T09:16:52.394Z</time></trkpt><trkpt lat="44.3879264" lon="8.4025887"><ele>685.0</ele><time>2026-04-04T09:16:53.394Z</time></trkpt><trkpt lat="44.3880262" lon="8.4024837"><ele>682.0</ele><time>2026-04-04T09:16:54.394Z</time></trkpt><trkpt lat="44.3881295" lon="8.4023713"><ele>679.0</ele><time>2026-04-04T09:16:55.394Z</time></trkpt><trkpt lat="44.3882482" lon="8.4022955"><ele>676.0</ele><time>2026-04-04T09:16:56.394Z</time></trkpt><trkpt lat="44.3883683" lon="8.402274"><ele>673.0</ele><time>2026-04-04T09:16:57.394Z</time></trkpt><trkpt lat="44.3884912" lon="8.4022934"><ele>673.0</ele><time>2026-04-04T09:16:58.394Z</time></trkpt><trkpt lat="44.3886198" lon="8.4023312"><ele>673.0</ele><time>2026-04-04T09:16:59.394Z</time></trkpt><trkpt lat="44.3887427" lon="8.4023968"><ele>673.0</ele><time>2026-04-04T09:17:00.394Z</time></trkpt><trkpt lat="44.388859" lon="8.4024916"><ele>673.0</ele><time>2026-04-04T09:17:01.394Z</time></trkpt><trkpt lat="44.3889685" lon="8.4025694"><ele>670.25</ele><time>2026-04-04T09:17:02.394Z</time></trkpt><trkpt lat="44.3890806" lon="8.402619"><ele>667.5</ele><time>2026-04-04T09:17:03.394Z</time></trkpt><trkpt lat="44.3891967" lon="8.4026417"><ele>664.75</ele><time>2026-04-04T09:17:04.394Z</time></trkpt><trkpt lat="44.3893197" lon="8.4026585"><ele>662.0</ele><time>2026-04-04T09:17:05.393Z</time></trkpt><trkpt lat="44.3894451" lon="8.4026849"><ele>662.0</ele><time>2026-04-04T09:17:06.393Z</time></trkpt><trkpt lat="44.3895615" lon="8.4027347"><ele>662.0</ele><time>2026-04-04T09:17:07.394Z</time></trkpt><trkpt lat="44.3896645" lon="8.4027987"><ele>662.0</ele><time>2026-04-04T09:17:08.394Z</time></trkpt><trkpt lat="44.3897627" lon="8.4028637"><ele>662.0</ele><time>2026-04-04T09:17:09.395Z</time></trkpt><trkpt lat="44.3898537" lon="8.4029223"><ele>662.0</ele><time>2026-04-04T09:17:10.394Z</time></trkpt><trkpt lat="44.3899326" lon="8.4029713"><ele>661.8</ele><time>2026-04-04T09:17:11.394Z</time></trkpt><trkpt lat="44.3899957" lon="8.4030019"><ele>661.6</ele><time>2026-04-04T09:17:12.395Z</time></trkpt><trkpt lat="44.3900666" lon="8.4030366"><ele>661.4</ele><time>2026-04-04T09:17:13.395Z</time></trkpt><trkpt lat="44.3901555" lon="8.4030755"><ele>661.1999999999999</ele><time>2026-04-04T09:17:14.394Z</time></trkpt><trkpt lat="44.3902632" lon="8.403139"><ele>661.0</ele><time>2026-04-04T09:17:15.395Z</time></trkpt><trkpt lat="44.3903786" lon="8.4032144"><ele>661.0</ele><time>2026-04-04T09:17:16.395Z</time></trkpt><trkpt lat="44.3905056" lon="8.4033063"><ele>661.0</ele><time>2026-04-04T09:17:17.395Z</time></trkpt><trkpt lat="44.3906317" lon="8.4033951"><ele>661.0</ele><time>2026-04-04T09:17:18.394Z</time></trkpt><trkpt lat="44.3907619" lon="8.4034923"><ele>661.0</ele><time>2026-04-04T09:17:19.395Z</time></trkpt><trkpt lat="44.3908894" lon="8.4035965"><ele>660.0</ele><time>2026-04-04T09:17:20.395Z</time></trkpt><trkpt lat="44.3910227" lon="8.4037079"><ele>659.0</ele><time>2026-04-04T09:17:21.395Z</time></trkpt><trkpt lat="44.3911525" lon="8.40382"><ele>658.0</ele><time>2026-04-04T09:17:22.395Z</time></trkpt><trkpt lat="44.3912835" lon="8.4039419"><ele>656.0</ele><time>2026-04-04T09:17:23.395Z</time></trkpt><trkpt lat="44.3914077" lon="8.4040755"><ele>654.0</ele><time>2026-04-04T09:17:24.395Z</time></trkpt><trkpt lat="44.3915277" lon="8.4042165"><ele>652.0</ele><time>2026-04-04T09:17:25.395Z</time></trkpt><trkpt lat="44.3916453" lon="8.4043701"><ele>652.0</ele><time>2026-04-04T09:17:26.395Z</time></trkpt><trkpt lat="44.3917603" lon="8.4045296"><ele>652.0</ele><time>2026-04-04T09:17:27.395Z</time></trkpt><trkpt lat="44.391858" lon="8.4047155"><ele>652.0</ele><time>2026-04-04T09:17:28.395Z</time></trkpt><trkpt lat="44.3919442" lon="8.4049299"><ele>653.0</ele><time>2026-04-04T09:17:29.394Z</time></trkpt><trkpt lat="44.3920312" lon="8.4051355"><ele>654.0</ele><time>2026-04-04T09:17:30.395Z</time></trkpt><trkpt lat="44.3921294" lon="8.4053455"><ele>655.0</ele><time>2026-04-04T09:17:31.395Z</time></trkpt><trkpt lat="44.3922479" lon="8.4055399"><ele>655.0</ele><time>2026-04-04T09:17:32.395Z</time></trkpt><trkpt lat="44.3923827" lon="8.4057113"><ele>655.0</ele><time>2026-04-04T09:17:33.395Z</time></trkpt><trkpt lat="44.3925418" lon="8.405846"><ele>655.0</ele><time>2026-04-04T09:17:34.395Z</time></trkpt><trkpt lat="44.3927174" lon="8.4059617"><ele>655.0</ele><time>2026-04-04T09:17:35.394Z</time></trkpt><trkpt lat="44.3928969" lon="8.4060698"><ele>655.0</ele><time>2026-04-04T09:17:36.394Z</time></trkpt><trkpt lat="44.3930716" lon="8.4061731"><ele>655.0</ele><time>2026-04-04T09:17:37.395Z</time></trkpt><trkpt lat="44.3932371" lon="8.4062693"><ele>657.3333333333334</ele><time>2026-04-04T09:17:38.395Z</time></trkpt><trkpt lat="44.3933923" lon="8.4063506"><ele>659.6666666666666</ele><time>2026-04-04T09:17:39.395Z</time></trkpt><trkpt lat="44.3935351" lon="8.4064186"><ele>662.0</ele><time>2026-04-04T09:17:40.395Z</time></trkpt><trkpt lat="44.3936925" lon="8.4064702"><ele>660.0</ele><time>2026-04-04T09:17:41.394Z</time></trkpt><trkpt lat="44.3938634" lon="8.4064831"><ele>658.0</ele><time>2026-04-04T09:17:42.395Z</time></trkpt><trkpt lat="44.3940514" lon="8.4064505"><ele>656.0</ele><time>2026-04-04T09:17:43.395Z</time></trkpt><trkpt lat="44.3942445" lon="8.4064017"><ele>656.0</ele><time>2026-04-04T09:17:44.395Z</time></trkpt><trkpt lat="44.3944264" lon="8.4063733"><ele>656.0</ele><time>2026-04-04T09:17:45.395Z</time></trkpt><trkpt lat="44.3945871" lon="8.4063806"><ele>656.0</ele><time>2026-04-04T09:17:46.395Z</time></trkpt><trkpt lat="44.3947566" lon="8.4064026"><ele>654.0</ele><time>2026-04-04T09:17:47.395Z</time></trkpt><trkpt lat="44.3949188" lon="8.4064403"><ele>652.0</ele><time>2026-04-04T09:17:48.395Z</time></trkpt><trkpt lat="44.3950739" lon="8.4064969"><ele>650.0</ele><time>2026-04-04T09:17:49.395Z</time></trkpt><trkpt lat="44.3952245" lon="8.4065819"><ele>650.0</ele><time>2026-04-04T09:17:50.395Z</time></trkpt><trkpt lat="44.3953698" lon="8.4067024"><ele>650.0</ele><time>2026-04-04T09:17:51.395Z</time></trkpt><trkpt lat="44.3955089" lon="8.4068542"><ele>650.0</ele><time>2026-04-04T09:17:52.395Z</time></trkpt><trkpt lat="44.3956429" lon="8.4070194"><ele>648.0</ele><time>2026-04-04T09:17:53.395Z</time></trkpt><trkpt lat="44.3957728" lon="8.4071943"><ele>646.0</ele><time>2026-04-04T09:17:54.394Z</time></trkpt><trkpt lat="44.3958919" lon="8.4073685"><ele>644.0</ele><time>2026-04-04T09:17:55.395Z</time></trkpt><trkpt lat="44.3959805" lon="8.4075452"><ele>644.0</ele><time>2026-04-04T09:17:56.395Z</time></trkpt><trkpt lat="44.3960504" lon="8.407727"><ele>644.0</ele><time>2026-04-04T09:17:57.395Z</time></trkpt><trkpt lat="44.3961157" lon="8.4079096"><ele>644.0</ele><time>2026-04-04T09:17:58.395Z</time></trkpt><trkpt lat="44.3961788" lon="8.4080838"><ele>644.0</ele><time>2026-04-04T09:17:59.395Z</time></trkpt><trkpt lat="44.3962531" lon="8.4082468"><ele>642.5</ele><time>2026-04-04T09:18:00.395Z</time></trkpt><trkpt lat="44.3963267" lon="8.4083924"><ele>641.0</ele><time>2026-04-04T09:18:01.395Z</time></trkpt><trkpt lat="44.3964115" lon="8.4085132"><ele>639.5</ele><time>2026-04-04T09:18:02.395Z</time></trkpt><trkpt lat="44.3965021" lon="8.4086096"><ele>638.0</ele><time>2026-04-04T09:18:03.395Z</time></trkpt><trkpt lat="44.3966028" lon="8.408682"><ele>638.0</ele><time>2026-04-04T09:18:04.394Z</time></trkpt><trkpt lat="44.396698" lon="8.4087298"><ele>638.0</ele><time>2026-04-04T09:18:05.394Z</time></trkpt><trkpt lat="44.3967787" lon="8.4087636"><ele>638.0</ele><time>2026-04-04T09:18:06.395Z</time></trkpt><trkpt lat="44.3968477" lon="8.4087907"><ele>638.0</ele><time>2026-04-04T09:18:07.395Z</time></trkpt><trkpt lat="44.3969608" lon="8.4088474"><ele>638.0</ele><time>2026-04-04T09:18:09.395Z</time></trkpt><trkpt lat="44.3970264" lon="8.4088889"><ele>638.0</ele><time>2026-04-04T09:18:10.395Z</time></trkpt><trkpt lat="44.397101" lon="8.4089542"><ele>637.4</ele><time>2026-04-04T09:18:11.395Z</time></trkpt><trkpt lat="44.3971759" lon="8.4090482"><ele>636.8</ele><time>2026-04-04T09:18:12.395Z</time></trkpt><trkpt lat="44.3972435" lon="8.4091618"><ele>636.2</ele><time>2026-04-04T09:18:13.395Z</time></trkpt><trkpt lat="44.3973002" lon="8.409289"><ele>635.6</ele><time>2026-04-04T09:18:14.395Z</time></trkpt><trkpt lat="44.3973493" lon="8.4094286"><ele>635.0</ele><time>2026-04-04T09:18:15.396Z</time></trkpt><trkpt lat="44.3973779" lon="8.4095935"><ele>634.75</ele><time>2026-04-04T09:18:16.395Z</time></trkpt><trkpt lat="44.3973983" lon="8.4097695"><ele>634.5</ele><time>2026-04-04T09:18:17.394Z</time></trkpt><trkpt lat="44.3974149" lon="8.4099453"><ele>634.25</ele><time>2026-04-04T09:18:18.396Z</time></trkpt><trkpt lat="44.3974291" lon="8.4101123"><ele>634.0</ele><time>2026-04-04T09:18:19.394Z</time></trkpt><trkpt lat="44.3974455" lon="8.4102691"><ele>634.0</ele><time>2026-04-04T09:18:20.395Z</time></trkpt><trkpt lat="44.3974669" lon="8.4104127"><ele>634.0</ele><time>2026-04-04T09:18:21.396Z</time></trkpt><trkpt lat="44.3974848" lon="8.4105399"><ele>634.0</ele><time>2026-04-04T09:18:22.396Z</time></trkpt><trkpt lat="44.397502" lon="8.4106558"><ele>634.0</ele><time>2026-04-04T09:18:23.396Z</time></trkpt><trkpt lat="44.3975212" lon="8.4107562"><ele>634.0</ele><time>2026-04-04T09:18:24.396Z</time></trkpt><trkpt lat="44.3975472" lon="8.4108523"><ele>634.0</ele><time>2026-04-04T09:18:25.396Z</time></trkpt><trkpt lat="44.3975932" lon="8.4109387"><ele>634.0</ele><time>2026-04-04T09:18:26.396Z</time></trkpt><trkpt lat="44.3976827" lon="8.4110003"><ele>634.0</ele><time>2026-04-04T09:18:27.396Z</time></trkpt><trkpt lat="44.3978131" lon="8.411045"><ele>634.0</ele><time>2026-04-04T09:18:28.396Z</time></trkpt><trkpt lat="44.3979729" lon="8.4110663"><ele>634.0</ele><time>2026-04-04T09:18:29.396Z</time></trkpt><trkpt lat="44.3981239" lon="8.4110558"><ele>633.6666666666667</ele><time>2026-04-04T09:18:30.396Z</time></trkpt><trkpt lat="44.3982718" lon="8.4110051"><ele>633.3333333333334</ele><time>2026-04-04T09:18:31.396Z</time></trkpt><trkpt lat="44.3984126" lon="8.4109119"><ele>633.0</ele><time>2026-04-04T09:18:32.396Z</time></trkpt><trkpt lat="44.3985475" lon="8.4107662"><ele>633.0</ele><time>2026-04-04T09:18:33.396Z</time></trkpt><trkpt lat="44.3986538" lon="8.4106151"><ele>633.0</ele><time>2026-04-04T09:18:34.396Z</time></trkpt><trkpt lat="44.3987495" lon="8.4104605"><ele>633.0</ele><time>2026-04-04T09:18:35.395Z</time></trkpt><trkpt lat="44.3988345" lon="8.4103227"><ele>633.0</ele><time>2026-04-04T09:18:36.396Z</time></trkpt><trkpt lat="44.398906" lon="8.4102148"><ele>630.5</ele><time>2026-04-04T09:18:37.396Z</time></trkpt><trkpt lat="44.3989816" lon="8.4101333"><ele>628.0</ele><time>2026-04-04T09:18:38.396Z</time></trkpt><trkpt lat="44.3990687" lon="8.4101189"><ele>625.5</ele><time>2026-04-04T09:18:39.396Z</time></trkpt><trkpt lat="44.3991655" lon="8.4102218"><ele>623.0</ele><time>2026-04-04T09:18:40.396Z</time></trkpt><trkpt lat="44.3992539" lon="8.4103992"><ele>623.0</ele><time>2026-04-04T09:18:41.396Z</time></trkpt><trkpt lat="44.3993253" lon="8.4106654"><ele>623.0</ele><time>2026-04-04T09:18:42.396Z</time></trkpt><trkpt lat="44.3993803" lon="8.410867"><ele>623.0</ele><time>2026-04-04T09:18:43.396Z</time></trkpt><trkpt lat="44.399431" lon="8.4110414"><ele>623.0</ele><time>2026-04-04T09:18:44.396Z</time></trkpt><trkpt lat="44.399484" lon="8.411202"><ele>623.0</ele><time>2026-04-04T09:18:45.396Z</time></trkpt><trkpt lat="44.3995463" lon="8.4113619"><ele>623.0</ele><time>2026-04-04T09:18:46.396Z</time></trkpt><trkpt lat="44.3996175" lon="8.4115349"><ele>623.0</ele><time>2026-04-04T09:18:47.396Z</time></trkpt><trkpt lat="44.3996976" lon="8.4117117"><ele>621.25</ele><time>2026-04-04T09:18:48.396Z</time></trkpt><trkpt lat="44.3997821" lon="8.4118842"><ele>619.5</ele><time>2026-04-04T09:18:49.396Z</time></trkpt><trkpt lat="44.3998668" lon="8.4120462"><ele>617.75</ele><time>2026-04-04T09:18:50.395Z</time></trkpt><trkpt lat="44.3999613" lon="8.412192"><ele>616.0</ele><time>2026-04-04T09:18:51.396Z</time></trkpt><trkpt lat="44.4000641" lon="8.4123268"><ele>616.0</ele><time>2026-04-04T09:18:52.395Z</time></trkpt><trkpt lat="44.4001729" lon="8.4124454"><ele>616.0</ele><time>2026-04-04T09:18:53.396Z</time></trkpt><trkpt lat="44.4002704" lon="8.4125514"><ele>616.0</ele><time>2026-04-04T09:18:54.396Z</time></trkpt><trkpt lat="44.4003558" lon="8.4126376"><ele>616.0</ele><time>2026-04-04T09:18:55.396Z</time></trkpt><trkpt lat="44.4004426" lon="8.4126946"><ele>617.0</ele><time>2026-04-04T09:18:56.395Z</time></trkpt><trkpt lat="44.4005377" lon="8.4127125"><ele>618.0</ele><time>2026-04-04T09:18:57.396Z</time></trkpt><trkpt lat="44.400631" lon="8.4126724"><ele>619.0</ele><time>2026-04-04T09:18:58.395Z</time></trkpt><trkpt lat="44.4007404" lon="8.4125651"><ele>620.0</ele><time>2026-04-04T09:18:59.396Z</time></trkpt><trkpt lat="44.4008069" lon="8.4124624"><ele>621.0</ele><time>2026-04-04T09:19:00.396Z</time></trkpt><trkpt lat="44.4008669" lon="8.412361"><ele>621.0</ele><time>2026-04-04T09:19:01.396Z</time></trkpt><trkpt lat="44.4009146" lon="8.412278"><ele>621.0</ele><time>2026-04-04T09:19:02.396Z</time></trkpt><trkpt lat="44.400976" lon="8.4122138"><ele>621.0</ele><time>2026-04-04T09:19:03.396Z</time></trkpt><trkpt lat="44.4010717" lon="8.4121515"><ele>621.0</ele><time>2026-04-04T09:19:04.396Z</time></trkpt><trkpt lat="44.4011637" lon="8.412155"><ele>621.0</ele><time>2026-04-04T09:19:05.396Z</time></trkpt><trkpt lat="44.4012648" lon="8.4122012"><ele>619.75</ele><time>2026-04-04T09:19:06.396Z</time></trkpt><trkpt lat="44.4013714" lon="8.4122962"><ele>618.5</ele><time>2026-04-04T09:19:07.396Z</time></trkpt><trkpt lat="44.4014916" lon="8.4124086"><ele>617.25</ele><time>2026-04-04T09:19:08.396Z</time></trkpt><trkpt lat="44.4016218" lon="8.4125263"><ele>616.0</ele><time>2026-04-04T09:19:09.396Z</time></trkpt><trkpt lat="44.4017585" lon="8.4126343"><ele>616.0</ele><time>2026-04-04T09:19:10.396Z</time></trkpt><trkpt lat="44.4018986" lon="8.4127403"><ele>616.0</ele><time>2026-04-04T09:19:11.396Z</time></trkpt><trkpt lat="44.4020404" lon="8.4128303"><ele>616.0</ele><time>2026-04-04T09:19:12.396Z</time></trkpt><trkpt lat="44.4021888" lon="8.412923"><ele>617.6666666666667</ele><time>2026-04-04T09:19:13.396Z</time></trkpt><trkpt lat="44.4023377" lon="8.4130187"><ele>619.3333333333334</ele><time>2026-04-04T09:19:14.396Z</time></trkpt><trkpt lat="44.4024886" lon="8.4131135"><ele>621.0</ele><time>2026-04-04T09:19:15.396Z</time></trkpt><trkpt lat="44.4026413" lon="8.4132231"><ele>621.0</ele><time>2026-04-04T09:19:16.396Z</time></trkpt><trkpt lat="44.4027932" lon="8.4133254"><ele>621.0</ele><time>2026-04-04T09:19:17.396Z</time></trkpt><trkpt lat="44.402944" lon="8.4134276"><ele>621.0</ele><time>2026-04-04T09:19:18.396Z</time></trkpt><trkpt lat="44.4030956" lon="8.4135295"><ele>619.0</ele><time>2026-04-04T09:19:19.396Z</time></trkpt><trkpt lat="44.4032445" lon="8.413628"><ele>617.0</ele><time>2026-04-04T09:19:20.396Z</time></trkpt><trkpt lat="44.4033928" lon="8.4137206"><ele>615.0</ele><time>2026-04-04T09:19:21.395Z</time></trkpt><trkpt lat="44.4035413" lon="8.4138159"><ele>612.3333333333334</ele><time>2026-04-04T09:19:22.396Z</time></trkpt><trkpt lat="44.403692" lon="8.4139155"><ele>609.6666666666667</ele><time>2026-04-04T09:19:23.396Z</time></trkpt><trkpt lat="44.403841" lon="8.4140176"><ele>607.0</ele><time>2026-04-04T09:19:24.396Z</time></trkpt><trkpt lat="44.4039894" lon="8.4141165"><ele>607.0</ele><time>2026-04-04T09:19:25.396Z</time></trkpt><trkpt lat="44.4041355" lon="8.4142113"><ele>607.0</ele><time>2026-04-04T09:19:26.396Z</time></trkpt><trkpt lat="44.4042719" lon="8.4143004"><ele>607.0</ele><time>2026-04-04T09:19:27.396Z</time></trkpt><trkpt lat="44.4043973" lon="8.414384"><ele>607.0</ele><time>2026-04-04T09:19:28.396Z</time></trkpt><trkpt lat="44.4045172" lon="8.4144555"><ele>607.0</ele><time>2026-04-04T09:19:29.397Z</time></trkpt><trkpt lat="44.404638" lon="8.4145042"><ele>607.0</ele><time>2026-04-04T09:19:30.396Z</time></trkpt><trkpt lat="44.4047659" lon="8.4145211"><ele>607.0</ele><time>2026-04-04T09:19:31.396Z</time></trkpt><trkpt lat="44.4049023" lon="8.4145063"><ele>605.5</ele><time>2026-04-04T09:19:32.397Z</time></trkpt><trkpt lat="44.405051" lon="8.414499"><ele>604.0</ele><time>2026-04-04T09:19:33.397Z</time></trkpt><trkpt lat="44.4051918" lon="8.4145387"><ele>602.5</ele><time>2026-04-04T09:19:34.397Z</time></trkpt><trkpt lat="44.4053317" lon="8.4146111"><ele>601.0</ele><time>2026-04-04T09:19:35.396Z</time></trkpt><trkpt lat="44.4054633" lon="8.4147226"><ele>599.6666666666667</ele><time>2026-04-04T09:19:36.396Z</time></trkpt><trkpt lat="44.4055782" lon="8.4148656"><ele>598.3333333333334</ele><time>2026-04-04T09:19:37.397Z</time></trkpt><trkpt lat="44.4056843" lon="8.4150251"><ele>597.0</ele><time>2026-04-04T09:19:38.397Z</time></trkpt><trkpt lat="44.405775" lon="8.4151985"><ele>597.0</ele><time>2026-04-04T09:19:39.397Z</time></trkpt><trkpt lat="44.4058538" lon="8.4153652"><ele>597.0</ele><time>2026-04-04T09:19:40.397Z</time></trkpt><trkpt lat="44.4059193" lon="8.4155339"><ele>597.0</ele><time>2026-04-04T09:19:41.397Z</time></trkpt><trkpt lat="44.4059629" lon="8.4156431"><ele>597.0</ele><time>2026-04-04T09:19:42.396Z</time></trkpt><trkpt lat="44.4060062" lon="8.4157905"><ele>597.2857142857143</ele><time>2026-04-04T09:19:44.397Z</time></trkpt><trkpt lat="44.4060131" lon="8.4159221"><ele>597.5714285714286</ele><time>2026-04-04T09:19:46.397Z</time></trkpt><trkpt lat="44.4060059" lon="8.4160352"><ele>597.8571428571429</ele><time>2026-04-04T09:19:49.397Z</time></trkpt><trkpt lat="44.4060621" lon="8.4160796"><ele>598.1428571428571</ele><time>2026-04-04T09:19:58.397Z</time></trkpt><trkpt lat="44.4061153" lon="8.4160127"><ele>598.4285714285714</ele><time>2026-04-04T09:20:00.397Z</time></trkpt><trkpt lat="44.4061537" lon="8.4159365"><ele>598.7142857142858</ele><time>2026-04-04T09:20:02.397Z</time></trkpt><trkpt lat="44.4061504" lon="8.4158381"><ele>599.0</ele><time>2026-04-04T09:20:06.396Z</time></trkpt><trkpt lat="44.4060902" lon="8.4159328"><ele>599.0</ele><time>2026-04-04T09:20:09.396Z</time></trkpt><trkpt lat="44.4060957" lon="8.4160356"><ele>599.0</ele><time>2026-04-04T09:20:11.396Z</time></trkpt><trkpt lat="44.4060634" lon="8.4161202"><ele>599.0</ele><time>2026-04-04T09:22:33.399Z</time></trkpt><trkpt lat="44.4061186" lon="8.4160766"><ele>599.0</ele><time>2026-04-04T09:22:53.399Z</time></trkpt><trkpt lat="44.406163" lon="8.4160087"><ele>599.0</ele><time>2026-04-04T09:22:56.4Z</time></trkpt><trkpt lat="44.4062264" lon="8.4159873"><ele>599.0</ele><time>2026-04-04T09:23:23.4Z</time></trkpt><trkpt lat="44.4062497" lon="8.4161041"><ele>599.0</ele><time>2026-04-04T09:24:08.4Z</time></trkpt><trkpt lat="44.406264" lon="8.4161979"><ele>598.6666666666666</ele><time>2026-04-04T09:24:12.4Z</time></trkpt><trkpt lat="44.4063325" lon="8.4162195"><ele>598.3333333333333</ele><time>2026-04-04T09:24:34.401Z</time></trkpt><trkpt lat="44.4064109" lon="8.41628"><ele>598.0</ele><time>2026-04-04T09:24:37.401Z</time></trkpt><trkpt lat="44.4064914" lon="8.4163391"><ele>597.6666666666666</ele><time>2026-04-04T09:24:40.401Z</time></trkpt><trkpt lat="44.4065618" lon="8.4164028"><ele>597.3333333333334</ele><time>2026-04-04T09:24:43.401Z</time></trkpt><trkpt lat="44.4066212" lon="8.4163713"><ele>597.0</ele><time>2026-04-04T09:24:45.401Z</time></trkpt><trkpt lat="44.4066875" lon="8.4163124"><ele>595.8000000000001</ele><time>2026-04-04T09:24:48.401Z</time></trkpt><trkpt lat="44.4067482" lon="8.4162605"><ele>594.6</ele><time>2026-04-04T09:26:39.402Z</time></trkpt><trkpt lat="44.4068368" lon="8.4162371"><ele>593.4000000000001</ele><time>2026-04-04T09:26:40.402Z</time></trkpt><trkpt lat="44.4069205" lon="8.4162329"><ele>592.2</ele><time>2026-04-04T09:26:41.402Z</time></trkpt><trkpt lat="44.407037" lon="8.4162464"><ele>591.0</ele><time>2026-04-04T09:26:42.402Z</time></trkpt><trkpt lat="44.4071659" lon="8.4162719"><ele>591.0</ele><time>2026-04-04T09:26:43.402Z</time></trkpt><trkpt lat="44.4073006" lon="8.4163003"><ele>591.0</ele><time>2026-04-04T09:26:44.402Z</time></trkpt><trkpt lat="44.4074346" lon="8.4163293"><ele>591.0</ele><time>2026-04-04T09:26:45.402Z</time></trkpt><trkpt lat="44.4075772" lon="8.4163501"><ele>591.0</ele><time>2026-04-04T09:26:46.402Z</time></trkpt><trkpt lat="44.4077324" lon="8.4163704"><ele>592.6666666666666</ele><time>2026-04-04T09:26:47.402Z</time></trkpt><trkpt lat="44.4078981" lon="8.4163817"><ele>594.3333333333333</ele><time>2026-04-04T09:26:48.402Z</time></trkpt><trkpt lat="44.4080554" lon="8.4163931"><ele>596.0</ele><time>2026-04-04T09:26:49.402Z</time></trkpt><trkpt lat="44.408206" lon="8.4163929"><ele>597.0</ele><time>2026-04-04T09:26:50.402Z</time></trkpt><trkpt lat="44.4083379" lon="8.4163548"><ele>598.0</ele><time>2026-04-04T09:26:51.402Z</time></trkpt><trkpt lat="44.4084632" lon="8.4162735"><ele>599.0</ele><time>2026-04-04T09:26:52.402Z</time></trkpt><trkpt lat="44.4085912" lon="8.4161539"><ele>600.0</ele><time>2026-04-04T09:26:53.402Z</time></trkpt><trkpt lat="44.4087139" lon="8.416007"><ele>597.3333333333334</ele><time>2026-04-04T09:26:54.401Z</time></trkpt><trkpt lat="44.4088103" lon="8.415832"><ele>594.6666666666667</ele><time>2026-04-04T09:26:55.402Z</time></trkpt><trkpt lat="44.4088962" lon="8.4156203"><ele>592.0</ele><time>2026-04-04T09:26:56.402Z</time></trkpt><trkpt lat="44.4089814" lon="8.4154236"><ele>589.3333333333334</ele><time>2026-04-04T09:26:57.402Z</time></trkpt><trkpt lat="44.4090933" lon="8.4152251"><ele>586.6666666666666</ele><time>2026-04-04T09:26:58.402Z</time></trkpt><trkpt lat="44.4092281" lon="8.4150328"><ele>584.0</ele><time>2026-04-04T09:26:59.402Z</time></trkpt><trkpt lat="44.4093692" lon="8.4148559"><ele>584.0</ele><time>2026-04-04T09:27:00.402Z</time></trkpt><trkpt lat="44.4095191" lon="8.414661"><ele>584.0</ele><time>2026-04-04T09:27:01.402Z</time></trkpt><trkpt lat="44.409692" lon="8.4145004"><ele>584.0</ele><time>2026-04-04T09:27:02.403Z</time></trkpt><trkpt lat="44.4098911" lon="8.4143696"><ele>581.6666666666666</ele><time>2026-04-04T09:27:03.403Z</time></trkpt><trkpt lat="44.4100965" lon="8.4142611"><ele>579.3333333333334</ele><time>2026-04-04T09:27:04.403Z</time></trkpt><trkpt lat="44.4103048" lon="8.41416"><ele>577.0</ele><time>2026-04-04T09:27:05.403Z</time></trkpt><trkpt lat="44.410506" lon="8.4140564"><ele>576.0</ele><time>2026-04-04T09:27:06.403Z</time></trkpt><trkpt lat="44.4107026" lon="8.4139676"><ele>575.0</ele><time>2026-04-04T09:27:07.403Z</time></trkpt><trkpt lat="44.410891" lon="8.4138721"><ele>574.0</ele><time>2026-04-04T09:27:08.403Z</time></trkpt><trkpt lat="44.4110725" lon="8.4137794"><ele>574.0</ele><time>2026-04-04T09:27:09.403Z</time></trkpt><trkpt lat="44.4112443" lon="8.4136794"><ele>574.0</ele><time>2026-04-04T09:27:10.403Z</time></trkpt><trkpt lat="44.411401" lon="8.4135876"><ele>574.0</ele><time>2026-04-04T09:27:11.403Z</time></trkpt><trkpt lat="44.4115357" lon="8.4135123"><ele>571.75</ele><time>2026-04-04T09:27:12.403Z</time></trkpt><trkpt lat="44.4116606" lon="8.4134494"><ele>569.5</ele><time>2026-04-04T09:27:13.403Z</time></trkpt><trkpt lat="44.4117681" lon="8.4133897"><ele>567.25</ele><time>2026-04-04T09:27:14.403Z</time></trkpt><trkpt lat="44.4118732" lon="8.4133446"><ele>565.0</ele><time>2026-04-04T09:27:15.403Z</time></trkpt><trkpt lat="44.4119799" lon="8.4133106"><ele>565.0</ele><time>2026-04-04T09:27:16.403Z</time></trkpt><trkpt lat="44.41208" lon="8.4132744"><ele>565.0</ele><time>2026-04-04T09:27:17.403Z</time></trkpt><trkpt lat="44.4121873" lon="8.4132606"><ele>565.0</ele><time>2026-04-04T09:27:18.403Z</time></trkpt><trkpt lat="44.4123217" lon="8.4133534"><ele>565.0</ele><time>2026-04-04T09:27:19.403Z</time></trkpt><trkpt lat="44.4124431" lon="8.4134542"><ele>564.75</ele><time>2026-04-04T09:27:20.403Z</time></trkpt><trkpt lat="44.4125546" lon="8.4135693"><ele>564.5</ele><time>2026-04-04T09:27:21.403Z</time></trkpt><trkpt lat="44.4126711" lon="8.4136905"><ele>564.25</ele><time>2026-04-04T09:27:22.403Z</time></trkpt><trkpt lat="44.4127904" lon="8.4137802"><ele>564.0</ele><time>2026-04-04T09:27:23.402Z</time></trkpt><trkpt lat="44.412922" lon="8.4138751"><ele>563.6666666666666</ele><time>2026-04-04T09:27:24.403Z</time></trkpt><trkpt lat="44.4130657" lon="8.4139568"><ele>563.3333333333333</ele><time>2026-04-04T09:27:25.403Z</time></trkpt><trkpt lat="44.4132227" lon="8.4140335"><ele>563.0</ele><time>2026-04-04T09:27:26.403Z</time></trkpt><trkpt lat="44.4133771" lon="8.4141201"><ele>563.0</ele><time>2026-04-04T09:27:27.403Z</time></trkpt><trkpt lat="44.4135375" lon="8.4142056"><ele>563.0</ele><time>2026-04-04T09:27:28.403Z</time></trkpt><trkpt lat="44.4136894" lon="8.4142853"><ele>563.0</ele><time>2026-04-04T09:27:29.403Z</time></trkpt><trkpt lat="44.4138439" lon="8.4143723"><ele>563.3333333333333</ele><time>2026-04-04T09:27:30.402Z</time></trkpt><trkpt lat="44.4139939" lon="8.4144743"><ele>563.6666666666666</ele><time>2026-04-04T09:27:31.402Z</time></trkpt><trkpt lat="44.4141435" lon="8.4145722"><ele>564.0</ele><time>2026-04-04T09:27:32.403Z</time></trkpt><trkpt lat="44.4142914" lon="8.4146831"><ele>564.0</ele><time>2026-04-04T09:27:33.403Z</time></trkpt><trkpt lat="44.4144415" lon="8.4147973"><ele>564.0</ele><time>2026-04-04T09:27:34.403Z</time></trkpt><trkpt lat="44.4145961" lon="8.4149262"><ele>564.0</ele><time>2026-04-04T09:27:35.403Z</time></trkpt><trkpt lat="44.4147489" lon="8.4150817"><ele>567.6666666666666</ele><time>2026-04-04T09:27:36.403Z</time></trkpt><trkpt lat="44.4149135" lon="8.4152325"><ele>571.3333333333333</ele><time>2026-04-04T09:27:37.403Z</time></trkpt><trkpt lat="44.4150976" lon="8.4153446"><ele>575.0</ele><time>2026-04-04T09:27:38.403Z</time></trkpt><trkpt lat="44.4152507" lon="8.4154306"><ele>571.6666666666666</ele><time>2026-04-04T09:27:39.403Z</time></trkpt><trkpt lat="44.4154083" lon="8.4155079"><ele>568.3333333333334</ele><time>2026-04-04T09:27:40.403Z</time></trkpt><trkpt lat="44.4155622" lon="8.4155632"><ele>565.0</ele><time>2026-04-04T09:27:41.403Z</time></trkpt><trkpt lat="44.4157252" lon="8.4155697"><ele>565.0</ele><time>2026-04-04T09:27:42.403Z</time></trkpt><trkpt lat="44.4158713" lon="8.4155591"><ele>565.0</ele><time>2026-04-04T09:27:43.402Z</time></trkpt><trkpt lat="44.4160028" lon="8.4155683"><ele>565.0</ele><time>2026-04-04T09:27:44.403Z</time></trkpt><trkpt lat="44.416122" lon="8.4155822"><ele>565.0</ele><time>2026-04-04T09:27:45.403Z</time></trkpt><trkpt lat="44.4162299" lon="8.4155953"><ele>567.0</ele><time>2026-04-04T09:27:46.403Z</time></trkpt><trkpt lat="44.4163412" lon="8.4156068"><ele>569.0</ele><time>2026-04-04T09:27:47.403Z</time></trkpt><trkpt lat="44.4164547" lon="8.4156193"><ele>571.0</ele><time>2026-04-04T09:27:48.403Z</time></trkpt><trkpt lat="44.4165833" lon="8.415667"><ele>573.0</ele><time>2026-04-04T09:27:49.402Z</time></trkpt><trkpt lat="44.4167152" lon="8.415722"><ele>573.0</ele><time>2026-04-04T09:27:50.403Z</time></trkpt><trkpt lat="44.4168485" lon="8.4157742"><ele>573.0</ele><time>2026-04-04T09:27:51.402Z</time></trkpt><trkpt lat="44.4169835" lon="8.4158553"><ele>573.0</ele><time>2026-04-04T09:27:52.403Z</time></trkpt><trkpt lat="44.4171107" lon="8.4159601"><ele>573.0</ele><time>2026-04-04T09:27:53.403Z</time></trkpt><trkpt lat="44.4172086" lon="8.4161063"><ele>575.0</ele><time>2026-04-04T09:27:54.403Z</time></trkpt><trkpt lat="44.4172894" lon="8.4162945"><ele>577.0</ele><time>2026-04-04T09:27:55.403Z</time></trkpt><trkpt lat="44.4173759" lon="8.4164858"><ele>579.0</ele><time>2026-04-04T09:27:56.403Z</time></trkpt><trkpt lat="44.4174625" lon="8.4166817"><ele>579.0</ele><time>2026-04-04T09:27:57.403Z</time></trkpt><trkpt lat="44.4175398" lon="8.4168412"><ele>579.0</ele><time>2026-04-04T09:27:58.402Z</time></trkpt><trkpt lat="44.4176111" lon="8.4169937"><ele>579.0</ele><time>2026-04-04T09:27:59.403Z</time></trkpt><trkpt lat="44.4176726" lon="8.4171193"><ele>579.0</ele><time>2026-04-04T09:28:00.403Z</time></trkpt><trkpt lat="44.417735" lon="8.4172865"><ele>577.0</ele><time>2026-04-04T09:28:01.403Z</time></trkpt><trkpt lat="44.4177734" lon="8.4174955"><ele>575.0</ele><time>2026-04-04T09:28:02.403Z</time></trkpt><trkpt lat="44.4178416" lon="8.4176795"><ele>573.0</ele><time>2026-04-04T09:28:03.404Z</time></trkpt><trkpt lat="44.4179261" lon="8.4178533"><ele>576.3333333333334</ele><time>2026-04-04T09:28:04.403Z</time></trkpt><trkpt lat="44.4180241" lon="8.4180255"><ele>579.6666666666667</ele><time>2026-04-04T09:28:05.403Z</time></trkpt><trkpt lat="44.4181395" lon="8.4181765"><ele>583.0</ele><time>2026-04-04T09:28:06.403Z</time></trkpt><trkpt lat="44.4182675" lon="8.4183117"><ele>583.0</ele><time>2026-04-04T09:28:07.402Z</time></trkpt><trkpt lat="44.4183697" lon="8.418469"><ele>583.0</ele><time>2026-04-04T09:28:08.403Z</time></trkpt><trkpt lat="44.4184813" lon="8.4186214"><ele>583.0</ele><time>2026-04-04T09:28:09.402Z</time></trkpt><trkpt lat="44.4185784" lon="8.418788"><ele>580.0</ele><time>2026-04-04T09:28:10.402Z</time></trkpt><trkpt lat="44.4186605" lon="8.4189823"><ele>577.0</ele><time>2026-04-04T09:28:11.403Z</time></trkpt><trkpt lat="44.418743" lon="8.4191844"><ele>574.0</ele><time>2026-04-04T09:28:12.403Z</time></trkpt><trkpt lat="44.4188292" lon="8.4193883"><ele>578.3333333333334</ele><time>2026-04-04T09:28:13.402Z</time></trkpt><trkpt lat="44.4189119" lon="8.4195881"><ele>582.6666666666666</ele><time>2026-04-04T09:28:14.402Z</time></trkpt><trkpt lat="44.4189923" lon="8.4197905"><ele>587.0</ele><time>2026-04-04T09:28:15.403Z</time></trkpt><trkpt lat="44.4190819" lon="8.4199592"><ele>587.0</ele><time>2026-04-04T09:28:16.403Z</time></trkpt><trkpt lat="44.4191766" lon="8.4201159"><ele>587.0</ele><time>2026-04-04T09:28:17.403Z</time></trkpt><trkpt lat="44.4192551" lon="8.4202466"><ele>587.0</ele><time>2026-04-04T09:28:18.404Z</time></trkpt><trkpt lat="44.419331" lon="8.4203711"><ele>587.0</ele><time>2026-04-04T09:28:19.403Z</time></trkpt><trkpt lat="44.4193821" lon="8.4205044"><ele>586.2</ele><time>2026-04-04T09:28:20.404Z</time></trkpt><trkpt lat="44.419429" lon="8.4206369"><ele>585.4000000000001</ele><time>2026-04-04T09:28:21.404Z</time></trkpt><trkpt lat="44.4194902" lon="8.4207564"><ele>584.5999999999999</ele><time>2026-04-04T09:28:22.403Z</time></trkpt><trkpt lat="44.4195708" lon="8.4208533"><ele>583.8</ele><time>2026-04-04T09:28:23.404Z</time></trkpt><trkpt lat="44.4196627" lon="8.4208899"><ele>583.0</ele><time>2026-04-04T09:28:24.403Z</time></trkpt><trkpt lat="44.4197833" lon="8.4208575"><ele>583.0</ele><time>2026-04-04T09:28:25.404Z</time></trkpt><trkpt lat="44.4198984" lon="8.4207797"><ele>583.0</ele><time>2026-04-04T09:28:26.404Z</time></trkpt><trkpt lat="44.4200189" lon="8.4206228"><ele>583.0</ele><time>2026-04-04T09:28:27.404Z</time></trkpt><trkpt lat="44.4201036" lon="8.4204687"><ele>583.0</ele><time>2026-04-04T09:28:28.404Z</time></trkpt><trkpt lat="44.4201644" lon="8.4203164"><ele>587.75</ele><time>2026-04-04T09:28:29.404Z</time></trkpt><trkpt lat="44.4202123" lon="8.4201626"><ele>592.5</ele><time>2026-04-04T09:28:30.404Z</time></trkpt><trkpt lat="44.4202677" lon="8.4200081"><ele>597.25</ele><time>2026-04-04T09:28:31.404Z</time></trkpt><trkpt lat="44.4203432" lon="8.4198751"><ele>602.0</ele><time>2026-04-04T09:28:32.404Z</time></trkpt><trkpt lat="44.4204377" lon="8.419738"><ele>599.75</ele><time>2026-04-04T09:28:33.404Z</time></trkpt><trkpt lat="44.4205099" lon="8.4195862"><ele>597.5</ele><time>2026-04-04T09:28:34.404Z</time></trkpt><trkpt lat="44.4205695" lon="8.4194227"><ele>595.25</ele><time>2026-04-04T09:28:35.404Z</time></trkpt><trkpt lat="44.4205953" lon="8.4192398"><ele>593.0</ele><time>2026-04-04T09:28:36.404Z</time></trkpt><trkpt lat="44.4206083" lon="8.4190629"><ele>593.0</ele><time>2026-04-04T09:28:37.404Z</time></trkpt><trkpt lat="44.4206072" lon="8.4189139"><ele>593.0</ele><time>2026-04-04T09:28:38.404Z</time></trkpt><trkpt lat="44.4205709" lon="8.4187946"><ele>593.0</ele><time>2026-04-04T09:28:39.404Z</time></trkpt><trkpt lat="44.420498" lon="8.4186662"><ele>593.0</ele><time>2026-04-04T09:28:40.404Z</time></trkpt><trkpt lat="44.4203856" lon="8.4185288"><ele>595.25</ele><time>2026-04-04T09:28:41.404Z</time></trkpt><trkpt lat="44.4202325" lon="8.4184654"><ele>597.5</ele><time>2026-04-04T09:28:42.404Z</time></trkpt><trkpt lat="44.4201213" lon="8.4183696"><ele>599.75</ele><time>2026-04-04T09:28:43.404Z</time></trkpt><trkpt lat="44.4200274" lon="8.4182793"><ele>602.0</ele><time>2026-04-04T09:28:44.404Z</time></trkpt><trkpt lat="44.41993" lon="8.4182034"><ele>602.0</ele><time>2026-04-04T09:28:45.404Z</time></trkpt><trkpt lat="44.419863" lon="8.4180695"><ele>602.0</ele><time>2026-04-04T09:28:46.404Z</time></trkpt><trkpt lat="44.4198048" lon="8.4179409"><ele>602.0</ele><time>2026-04-04T09:28:47.404Z</time></trkpt><trkpt lat="44.4197692" lon="8.4177826"><ele>602.0</ele><time>2026-04-04T09:28:48.404Z</time></trkpt><trkpt lat="44.4197595" lon="8.417614"><ele>602.3333333333333</ele><time>2026-04-04T09:28:49.404Z</time></trkpt><trkpt lat="44.4197842" lon="8.4174147"><ele>602.6666666666666</ele><time>2026-04-04T09:28:50.404Z</time></trkpt><trkpt lat="44.4198397" lon="8.4171972"><ele>603.0</ele><time>2026-04-04T09:28:51.404Z</time></trkpt><trkpt lat="44.4199" lon="8.4170078"><ele>603.0</ele><time>2026-04-04T09:28:52.403Z</time></trkpt><trkpt lat="44.4199966" lon="8.4168378"><ele>603.0</ele><time>2026-04-04T09:28:53.403Z</time></trkpt><trkpt lat="44.4200903" lon="8.416663"><ele>603.0</ele><time>2026-04-04T09:28:54.404Z</time></trkpt><trkpt lat="44.4201928" lon="8.4164606"><ele>605.3333333333334</ele><time>2026-04-04T09:28:55.404Z</time></trkpt><trkpt lat="44.4202726" lon="8.4162642"><ele>607.6666666666667</ele><time>2026-04-04T09:28:56.404Z</time></trkpt><trkpt lat="44.4203365" lon="8.4160683"><ele>610.0</ele><time>2026-04-04T09:28:57.404Z</time></trkpt><trkpt lat="44.420407" lon="8.4158657"><ele>609.25</ele><time>2026-04-04T09:28:58.403Z</time></trkpt><trkpt lat="44.4204876" lon="8.4156786"><ele>608.5</ele><time>2026-04-04T09:28:59.404Z</time></trkpt><trkpt lat="44.4205774" lon="8.4155133"><ele>607.75</ele><time>2026-04-04T09:29:00.404Z</time></trkpt><trkpt lat="44.4206725" lon="8.4153863"><ele>607.0</ele><time>2026-04-04T09:29:01.404Z</time></trkpt><trkpt lat="44.4207669" lon="8.4152824"><ele>607.0</ele><time>2026-04-04T09:29:02.404Z</time></trkpt><trkpt lat="44.4208883" lon="8.4152366"><ele>607.0</ele><time>2026-04-04T09:29:03.404Z</time></trkpt><trkpt lat="44.4210223" lon="8.4152151"><ele>607.0</ele><time>2026-04-04T09:29:04.404Z</time></trkpt><trkpt lat="44.4211922" lon="8.4152002"><ele>607.0</ele><time>2026-04-04T09:29:05.404Z</time></trkpt><trkpt lat="44.4213556" lon="8.4151801"><ele>603.5</ele><time>2026-04-04T09:29:06.403Z</time></trkpt><trkpt lat="44.4215072" lon="8.4151538"><ele>600.0</ele><time>2026-04-04T09:29:07.404Z</time></trkpt><trkpt lat="44.4216375" lon="8.415128"><ele>596.5</ele><time>2026-04-04T09:29:08.404Z</time></trkpt><trkpt lat="44.421744" lon="8.415084"><ele>593.0</ele><time>2026-04-04T09:29:09.404Z</time></trkpt><trkpt lat="44.4218312" lon="8.4150083"><ele>593.0</ele><time>2026-04-04T09:29:10.403Z</time></trkpt><trkpt lat="44.4219076" lon="8.4149102"><ele>593.0</ele><time>2026-04-04T09:29:11.403Z</time></trkpt><trkpt lat="44.4219765" lon="8.4147584"><ele>593.0</ele><time>2026-04-04T09:29:12.404Z</time></trkpt><trkpt lat="44.422029" lon="8.4145835"><ele>593.0</ele><time>2026-04-04T09:29:13.404Z</time></trkpt><trkpt lat="44.4220594" lon="8.4143736"><ele>592.25</ele><time>2026-04-04T09:29:14.404Z</time></trkpt><trkpt lat="44.4220816" lon="8.4141776"><ele>591.5</ele><time>2026-04-04T09:29:15.404Z</time></trkpt><trkpt lat="44.4221043" lon="8.4139727"><ele>590.75</ele><time>2026-04-04T09:29:16.403Z</time></trkpt><trkpt lat="44.4221368" lon="8.4138221"><ele>590.0</ele><time>2026-04-04T09:29:17.404Z</time></trkpt><trkpt lat="44.422185" lon="8.4136758"><ele>590.0</ele><time>2026-04-04T09:29:18.403Z</time></trkpt><trkpt lat="44.4222681" lon="8.4135754"><ele>590.0</ele><time>2026-04-04T09:29:19.404Z</time></trkpt><trkpt lat="44.4223665" lon="8.4135099"><ele>590.0</ele><time>2026-04-04T09:29:20.404Z</time></trkpt><trkpt lat="44.4224985" lon="8.413481"><ele>590.0</ele><time>2026-04-04T09:29:21.403Z</time></trkpt><trkpt lat="44.4226295" lon="8.4135062"><ele>590.0</ele><time>2026-04-04T09:29:22.403Z</time></trkpt><trkpt lat="44.4227746" lon="8.4135729"><ele>590.0</ele><time>2026-04-04T09:29:23.403Z</time></trkpt><trkpt lat="44.4229162" lon="8.4136173"><ele>590.0</ele><time>2026-04-04T09:29:24.404Z</time></trkpt><trkpt lat="44.4230638" lon="8.4135951"><ele>590.0</ele><time>2026-04-04T09:29:25.404Z</time></trkpt><trkpt lat="44.4231981" lon="8.4135025"><ele>589.3333333333333</ele><time>2026-04-04T09:29:26.404Z</time></trkpt><trkpt lat="44.4233237" lon="8.4133822"><ele>588.6666666666666</ele><time>2026-04-04T09:29:27.403Z</time></trkpt><trkpt lat="44.4234559" lon="8.4132703"><ele>588.0</ele><time>2026-04-04T09:29:28.404Z</time></trkpt><trkpt lat="44.4235917" lon="8.4131983"><ele>588.0</ele><time>2026-04-04T09:29:29.404Z</time></trkpt><trkpt lat="44.423744" lon="8.4131803"><ele>588.0</ele><time>2026-04-04T09:29:30.404Z</time></trkpt><trkpt lat="44.423892" lon="8.4132028"><ele>588.0</ele><time>2026-04-04T09:29:31.403Z</time></trkpt><trkpt lat="44.4240261" lon="8.4132516"><ele>588.0</ele><time>2026-04-04T09:29:32.403Z</time></trkpt><trkpt lat="44.4241493" lon="8.4133189"><ele>586.75</ele><time>2026-04-04T09:29:33.404Z</time></trkpt><trkpt lat="44.4242604" lon="8.4133839"><ele>585.5</ele><time>2026-04-04T09:29:34.404Z</time></trkpt><trkpt lat="44.4243692" lon="8.4134377"><ele>584.25</ele><time>2026-04-04T09:29:35.404Z</time></trkpt><trkpt lat="44.4244863" lon="8.4134635"><ele>583.0</ele><time>2026-04-04T09:29:36.405Z</time></trkpt><trkpt lat="44.4246155" lon="8.4134542"><ele>581.0</ele><time>2026-04-04T09:29:37.405Z</time></trkpt><trkpt lat="44.4247576" lon="8.4134185"><ele>579.0</ele><time>2026-04-04T09:29:38.405Z</time></trkpt><trkpt lat="44.4249143" lon="8.4133603"><ele>577.0</ele><time>2026-04-04T09:29:39.405Z</time></trkpt><trkpt lat="44.4250684" lon="8.4132913"><ele>577.0</ele><time>2026-04-04T09:29:40.404Z</time></trkpt><trkpt lat="44.4252108" lon="8.413241"><ele>577.0</ele><time>2026-04-04T09:29:41.404Z</time></trkpt><trkpt lat="44.4253472" lon="8.4132089"><ele>577.0</ele><time>2026-04-04T09:29:42.405Z</time></trkpt><trkpt lat="44.4254834" lon="8.413216"><ele>577.0</ele><time>2026-04-04T09:29:43.405Z</time></trkpt><trkpt lat="44.4256137" lon="8.4132463"><ele>577.0</ele><time>2026-04-04T09:29:44.405Z</time></trkpt><trkpt lat="44.4257436" lon="8.4133125"><ele>577.0</ele><time>2026-04-04T09:29:45.405Z</time></trkpt><trkpt lat="44.4258697" lon="8.4134283"><ele>577.0</ele><time>2026-04-04T09:29:46.405Z</time></trkpt><trkpt lat="44.4260044" lon="8.4135971"><ele>577.0</ele><time>2026-04-04T09:29:47.405Z</time></trkpt><trkpt lat="44.4261535" lon="8.4137766"><ele>577.0</ele><time>2026-04-04T09:29:48.405Z</time></trkpt><trkpt lat="44.426296" lon="8.4139381"><ele>577.0</ele><time>2026-04-04T09:29:49.404Z</time></trkpt><trkpt lat="44.4264289" lon="8.4140767"><ele>574.5</ele><time>2026-04-04T09:29:50.405Z</time></trkpt><trkpt lat="44.426557" lon="8.4141861"><ele>572.0</ele><time>2026-04-04T09:29:51.404Z</time></trkpt><trkpt lat="44.4266793" lon="8.4142806"><ele>569.5</ele><time>2026-04-04T09:29:52.405Z</time></trkpt><trkpt lat="44.4268022" lon="8.4143546"><ele>567.0</ele><time>2026-04-04T09:29:53.405Z</time></trkpt><trkpt lat="44.4269103" lon="8.4144092"><ele>567.0</ele><time>2026-04-04T09:29:54.405Z</time></trkpt><trkpt lat="44.4270088" lon="8.4144722"><ele>567.0</ele><time>2026-04-04T09:29:55.405Z</time></trkpt><trkpt lat="44.4270823" lon="8.4145593"><ele>567.0</ele><time>2026-04-04T09:29:56.405Z</time></trkpt><trkpt lat="44.4271324" lon="8.4147049"><ele>567.0</ele><time>2026-04-04T09:29:57.405Z</time></trkpt><trkpt lat="44.4271588" lon="8.4148906"><ele>566.0</ele><time>2026-04-04T09:29:58.405Z</time></trkpt><trkpt lat="44.4271786" lon="8.4151038"><ele>565.0</ele><time>2026-04-04T09:29:59.405Z</time></trkpt><trkpt lat="44.4271891" lon="8.4153312"><ele>564.0</ele><time>2026-04-04T09:30:00.405Z</time></trkpt><trkpt lat="44.4271885" lon="8.4155976"><ele>562.3333333333334</ele><time>2026-04-04T09:30:01.404Z</time></trkpt><trkpt lat="44.4271623" lon="8.4158717"><ele>560.6666666666667</ele><time>2026-04-04T09:30:02.405Z</time></trkpt><trkpt lat="44.4271414" lon="8.4161398"><ele>559.0</ele><time>2026-04-04T09:30:03.405Z</time></trkpt><trkpt lat="44.4271272" lon="8.4163899"><ele>559.0</ele><time>2026-04-04T09:30:04.405Z</time></trkpt><trkpt lat="44.4271241" lon="8.416621"><ele>559.0</ele><time>2026-04-04T09:30:05.405Z</time></trkpt><trkpt lat="44.4271318" lon="8.4168279"><ele>559.0</ele><time>2026-04-04T09:30:06.405Z</time></trkpt><trkpt lat="44.4271489" lon="8.417014"><ele>559.0</ele><time>2026-04-04T09:30:07.405Z</time></trkpt><trkpt lat="44.4271664" lon="8.4171853"><ele>561.0</ele><time>2026-04-04T09:30:08.405Z</time></trkpt><trkpt lat="44.4272031" lon="8.4173275"><ele>563.0</ele><time>2026-04-04T09:30:09.404Z</time></trkpt><trkpt lat="44.4272709" lon="8.4174408"><ele>565.0</ele><time>2026-04-04T09:30:10.405Z</time></trkpt><trkpt lat="44.4273682" lon="8.4175421"><ele>567.0</ele><time>2026-04-04T09:30:11.405Z</time></trkpt><trkpt lat="44.4275023" lon="8.4176069"><ele>567.0</ele><time>2026-04-04T09:30:12.405Z</time></trkpt><trkpt lat="44.4276383" lon="8.417651"><ele>567.0</ele><time>2026-04-04T09:30:13.405Z</time></trkpt><trkpt lat="44.4277612" lon="8.4176766"><ele>567.0</ele><time>2026-04-04T09:30:14.405Z</time></trkpt><trkpt lat="44.4278733" lon="8.4177174"><ele>567.0</ele><time>2026-04-04T09:30:15.405Z</time></trkpt><trkpt lat="44.4279553" lon="8.4178167"><ele>568.5</ele><time>2026-04-04T09:30:16.404Z</time></trkpt><trkpt lat="44.4279991" lon="8.4179656"><ele>570.0</ele><time>2026-04-04T09:30:17.405Z</time></trkpt><trkpt lat="44.4280045" lon="8.418132"><ele>571.5</ele><time>2026-04-04T09:30:18.405Z</time></trkpt><trkpt lat="44.4279909" lon="8.4183375"><ele>573.0</ele><time>2026-04-04T09:30:19.405Z</time></trkpt><trkpt lat="44.4279667" lon="8.418581"><ele>572.0</ele><time>2026-04-04T09:30:20.405Z</time></trkpt><trkpt lat="44.4279575" lon="8.4188269"><ele>571.0</ele><time>2026-04-04T09:30:21.405Z</time></trkpt><trkpt lat="44.4279718" lon="8.4190669"><ele>570.0</ele><time>2026-04-04T09:30:22.405Z</time></trkpt><trkpt lat="44.4280155" lon="8.4192997"><ele>569.75</ele><time>2026-04-04T09:30:23.405Z</time></trkpt><trkpt lat="44.4280672" lon="8.4194907"><ele>569.5</ele><time>2026-04-04T09:30:24.405Z</time></trkpt><trkpt lat="44.4281253" lon="8.4196522"><ele>569.25</ele><time>2026-04-04T09:30:25.406Z</time></trkpt><trkpt lat="44.4281964" lon="8.4197736"><ele>569.0</ele><time>2026-04-04T09:30:26.405Z</time></trkpt><trkpt lat="44.4282912" lon="8.4198601"><ele>572.6666666666666</ele><time>2026-04-04T09:30:27.405Z</time></trkpt><trkpt lat="44.4284224" lon="8.4199175"><ele>576.3333333333334</ele><time>2026-04-04T09:30:28.405Z</time></trkpt><trkpt lat="44.4285793" lon="8.4199479"><ele>580.0</ele><time>2026-04-04T09:30:29.405Z</time></trkpt><trkpt lat="44.4287414" lon="8.4199866"><ele>579.25</ele><time>2026-04-04T09:30:30.405Z</time></trkpt><trkpt lat="44.4288783" lon="8.4200524"><ele>578.5</ele><time>2026-04-04T09:30:31.405Z</time></trkpt><trkpt lat="44.4289957" lon="8.4201284"><ele>577.75</ele><time>2026-04-04T09:30:32.405Z</time></trkpt><trkpt lat="44.429102" lon="8.4201697"><ele>577.0</ele><time>2026-04-04T09:30:33.405Z</time></trkpt><trkpt lat="44.429212" lon="8.4201871"><ele>577.0</ele><time>2026-04-04T09:30:34.405Z</time></trkpt><trkpt lat="44.4293498" lon="8.4201311"><ele>577.0</ele><time>2026-04-04T09:30:35.404Z</time></trkpt><trkpt lat="44.4294888" lon="8.4200345"><ele>577.0</ele><time>2026-04-04T09:30:36.405Z</time></trkpt><trkpt lat="44.4296437" lon="8.4199328"><ele>578.0</ele><time>2026-04-04T09:30:37.405Z</time></trkpt><trkpt lat="44.4297859" lon="8.419821"><ele>579.0</ele><time>2026-04-04T09:30:38.404Z</time></trkpt><trkpt lat="44.429914" lon="8.4197191"><ele>580.0</ele><time>2026-04-04T09:30:39.405Z</time></trkpt><trkpt lat="44.4300215" lon="8.4196335"><ele>581.0</ele><time>2026-04-04T09:30:40.405Z</time></trkpt><trkpt lat="44.4301218" lon="8.4195871"><ele>581.0</ele><time>2026-04-04T09:30:41.405Z</time></trkpt><trkpt lat="44.4302052" lon="8.4196386"><ele>581.0</ele><time>2026-04-04T09:30:42.405Z</time></trkpt><trkpt lat="44.4302911" lon="8.4197387"><ele>581.0</ele><time>2026-04-04T09:30:43.405Z</time></trkpt><trkpt lat="44.4303628" lon="8.4198979"><ele>581.0</ele><time>2026-04-04T09:30:44.405Z</time></trkpt><trkpt lat="44.4303929" lon="8.4201314"><ele>581.0</ele><time>2026-04-04T09:30:45.405Z</time></trkpt><trkpt lat="44.4304152" lon="8.4203792"><ele>581.0</ele><time>2026-04-04T09:30:46.405Z</time></trkpt><trkpt lat="44.4304292" lon="8.420597"><ele>581.0</ele><time>2026-04-04T09:30:47.405Z</time></trkpt><trkpt lat="44.4304549" lon="8.420783"><ele>579.5</ele><time>2026-04-04T09:30:48.405Z</time></trkpt><trkpt lat="44.4304957" lon="8.4209519"><ele>578.0</ele><time>2026-04-04T09:30:49.407Z</time></trkpt><trkpt lat="44.4305633" lon="8.4211186"><ele>576.5</ele><time>2026-04-04T09:30:50.406Z</time></trkpt><trkpt lat="44.430662" lon="8.4212909"><ele>575.0</ele><time>2026-04-04T09:30:51.406Z</time></trkpt><trkpt lat="44.4307819" lon="8.421437"><ele>572.3333333333333</ele><time>2026-04-04T09:30:52.406Z</time></trkpt><trkpt lat="44.4309282" lon="8.421577"><ele>569.6666666666666</ele><time>2026-04-04T09:30:53.405Z</time></trkpt><trkpt lat="44.4310719" lon="8.4216992"><ele>567.0</ele><time>2026-04-04T09:30:54.406Z</time></trkpt><trkpt lat="44.4312039" lon="8.4218061"><ele>568.25</ele><time>2026-04-04T09:30:55.406Z</time></trkpt><trkpt lat="44.4313189" lon="8.4219132"><ele>569.5</ele><time>2026-04-04T09:30:56.406Z</time></trkpt><trkpt lat="44.4314187" lon="8.4220391"><ele>570.75</ele><time>2026-04-04T09:30:57.406Z</time></trkpt><trkpt lat="44.4315016" lon="8.4221973"><ele>572.0</ele><time>2026-04-04T09:30:58.406Z</time></trkpt><trkpt lat="44.4315676" lon="8.4223738"><ele>572.0</ele><time>2026-04-04T09:30:59.406Z</time></trkpt><trkpt lat="44.4316275" lon="8.4225366"><ele>572.0</ele><time>2026-04-04T09:31:00.406Z</time></trkpt><trkpt lat="44.4316846" lon="8.4226688"><ele>572.0</ele><time>2026-04-04T09:31:01.405Z</time></trkpt><trkpt lat="44.4317428" lon="8.4227779"><ele>572.0</ele><time>2026-04-04T09:31:02.406Z</time></trkpt><trkpt lat="44.4318157" lon="8.4228698"><ele>572.0</ele><time>2026-04-04T09:31:03.406Z</time></trkpt><trkpt lat="44.4319176" lon="8.422952"><ele>571.3333333333333</ele><time>2026-04-04T09:31:04.405Z</time></trkpt><trkpt lat="44.4320557" lon="8.4230245"><ele>570.6666666666666</ele><time>2026-04-04T09:31:05.406Z</time></trkpt><trkpt lat="44.4322391" lon="8.4230978"><ele>570.0</ele><time>2026-04-04T09:31:06.406Z</time></trkpt><trkpt lat="44.4324288" lon="8.4231657"><ele>570.0</ele><time>2026-04-04T09:31:07.406Z</time></trkpt><trkpt lat="44.4326161" lon="8.4232389"><ele>570.0</ele><time>2026-04-04T09:31:08.406Z</time></trkpt><trkpt lat="44.4328051" lon="8.4233341"><ele>570.0</ele><time>2026-04-04T09:31:09.405Z</time></trkpt><trkpt lat="44.4329799" lon="8.4234495"><ele>568.0</ele><time>2026-04-04T09:31:10.406Z</time></trkpt><trkpt lat="44.4331513" lon="8.423589"><ele>566.0</ele><time>2026-04-04T09:31:11.406Z</time></trkpt><trkpt lat="44.4333133" lon="8.4237178"><ele>564.0</ele><time>2026-04-04T09:31:12.406Z</time></trkpt><trkpt lat="44.433468" lon="8.4238255"><ele>564.0</ele><time>2026-04-04T09:31:13.406Z</time></trkpt><trkpt lat="44.4336245" lon="8.4239353"><ele>564.0</ele><time>2026-04-04T09:31:14.406Z</time></trkpt><trkpt lat="44.4337717" lon="8.4240885"><ele>564.0</ele><time>2026-04-04T09:31:15.405Z</time></trkpt><trkpt lat="44.4338906" lon="8.4242591"><ele>564.75</ele><time>2026-04-04T09:31:16.406Z</time></trkpt><trkpt lat="44.4339832" lon="8.4244256"><ele>565.5</ele><time>2026-04-04T09:31:17.406Z</time></trkpt><trkpt lat="44.4340802" lon="8.4245787"><ele>566.25</ele><time>2026-04-04T09:31:18.406Z</time></trkpt><trkpt lat="44.4341812" lon="8.4246882"><ele>567.0</ele><time>2026-04-04T09:31:19.406Z</time></trkpt><trkpt lat="44.4342876" lon="8.4247804"><ele>567.0</ele><time>2026-04-04T09:31:20.406Z</time></trkpt><trkpt lat="44.4344021" lon="8.4248733"><ele>567.0</ele><time>2026-04-04T09:31:21.406Z</time></trkpt><trkpt lat="44.4345126" lon="8.4249978"><ele>567.0</ele><time>2026-04-04T09:31:22.406Z</time></trkpt><trkpt lat="44.4345929" lon="8.4251545"><ele>567.0</ele><time>2026-04-04T09:31:23.406Z</time></trkpt><trkpt lat="44.4346431" lon="8.425331"><ele>568.75</ele><time>2026-04-04T09:31:24.406Z</time></trkpt><trkpt lat="44.4346998" lon="8.4255086"><ele>570.5</ele><time>2026-04-04T09:31:25.406Z</time></trkpt><trkpt lat="44.4347791" lon="8.4256709"><ele>572.25</ele><time>2026-04-04T09:31:26.406Z</time></trkpt><trkpt lat="44.4348876" lon="8.4258047"><ele>574.0</ele><time>2026-04-04T09:31:27.406Z</time></trkpt><trkpt lat="44.43502" lon="8.425912"><ele>574.0</ele><time>2026-04-04T09:31:28.406Z</time></trkpt><trkpt lat="44.435155" lon="8.4260038"><ele>574.0</ele><time>2026-04-04T09:31:29.406Z</time></trkpt><trkpt lat="44.4352903" lon="8.4260691"><ele>574.0</ele><time>2026-04-04T09:31:30.406Z</time></trkpt><trkpt lat="44.4354155" lon="8.4261582"><ele>574.0</ele><time>2026-04-04T09:31:31.406Z</time></trkpt><trkpt lat="44.4355313" lon="8.4262853"><ele>574.0</ele><time>2026-04-04T09:31:32.406Z</time></trkpt><trkpt lat="44.4356237" lon="8.4264887"><ele>574.0</ele><time>2026-04-04T09:31:33.406Z</time></trkpt><trkpt lat="44.435675" lon="8.4267365"><ele>574.0</ele><time>2026-04-04T09:31:34.406Z</time></trkpt><trkpt lat="44.4357189" lon="8.4269888"><ele>575.3333333333334</ele><time>2026-04-04T09:31:35.405Z</time></trkpt><trkpt lat="44.4357497" lon="8.4272345"><ele>576.6666666666666</ele><time>2026-04-04T09:31:36.406Z</time></trkpt><trkpt lat="44.4357792" lon="8.4274608"><ele>578.0</ele><time>2026-04-04T09:31:37.406Z</time></trkpt><trkpt lat="44.4358038" lon="8.4276686"><ele>578.0</ele><time>2026-04-04T09:31:38.405Z</time></trkpt><trkpt lat="44.4358291" lon="8.4278718"><ele>578.0</ele><time>2026-04-04T09:31:39.405Z</time></trkpt><trkpt lat="44.435849" lon="8.428071"><ele>578.0</ele><time>2026-04-04T09:31:40.406Z</time></trkpt><trkpt lat="44.4358696" lon="8.4282644"><ele>578.0</ele><time>2026-04-04T09:31:41.407Z</time></trkpt><trkpt lat="44.4359025" lon="8.4284694"><ele>576.3333333333333</ele><time>2026-04-04T09:31:42.405Z</time></trkpt><trkpt lat="44.4359491" lon="8.42868"><ele>574.6666666666666</ele><time>2026-04-04T09:31:43.406Z</time></trkpt><trkpt lat="44.4360219" lon="8.4288878"><ele>573.0</ele><time>2026-04-04T09:31:44.406Z</time></trkpt><trkpt lat="44.4361215" lon="8.4290886"><ele>575.6666666666666</ele><time>2026-04-04T09:31:45.406Z</time></trkpt><trkpt lat="44.4362434" lon="8.4292772"><ele>578.3333333333333</ele><time>2026-04-04T09:31:46.406Z</time></trkpt><trkpt lat="44.4363721" lon="8.4294369"><ele>581.0</ele><time>2026-04-04T09:31:47.405Z</time></trkpt><trkpt lat="44.4365045" lon="8.4295801"><ele>574.0</ele><time>2026-04-04T09:31:48.406Z</time></trkpt><trkpt lat="44.4366317" lon="8.4297122"><ele>567.0</ele><time>2026-04-04T09:31:49.406Z</time></trkpt><trkpt lat="44.4367508" lon="8.42984"><ele>560.0</ele><time>2026-04-04T09:31:50.406Z</time></trkpt><trkpt lat="44.4368576" lon="8.4299763"><ele>560.0</ele><time>2026-04-04T09:31:51.406Z</time></trkpt><trkpt lat="44.436952" lon="8.4301507"><ele>560.0</ele><time>2026-04-04T09:31:52.406Z</time></trkpt><trkpt lat="44.4370292" lon="8.4303561"><ele>560.0</ele><time>2026-04-04T09:31:53.405Z</time></trkpt><trkpt lat="44.4370967" lon="8.4305678"><ele>561.5</ele><time>2026-04-04T09:31:54.406Z</time></trkpt><trkpt lat="44.4371431" lon="8.4307664"><ele>563.0</ele><time>2026-04-04T09:31:55.406Z</time></trkpt><trkpt lat="44.4371811" lon="8.430957"><ele>564.5</ele><time>2026-04-04T09:31:56.406Z</time></trkpt><trkpt lat="44.4372072" lon="8.4311366"><ele>566.0</ele><time>2026-04-04T09:31:57.406Z</time></trkpt><trkpt lat="44.437201" lon="8.4313192"><ele>560.0</ele><time>2026-04-04T09:31:58.406Z</time></trkpt><trkpt lat="44.437159" lon="8.4315062"><ele>554.0</ele><time>2026-04-04T09:31:59.406Z</time></trkpt><trkpt lat="44.4371133" lon="8.4317095"><ele>548.0</ele><time>2026-04-04T09:32:00.406Z</time></trkpt><trkpt lat="44.4370733" lon="8.4319281"><ele>542.6666666666666</ele><time>2026-04-04T09:32:01.407Z</time></trkpt><trkpt lat="44.4370418" lon="8.4321591"><ele>537.3333333333334</ele><time>2026-04-04T09:32:02.407Z</time></trkpt><trkpt lat="44.4370093" lon="8.4324008"><ele>532.0</ele><time>2026-04-04T09:32:03.407Z</time></trkpt><trkpt lat="44.436974" lon="8.4326449"><ele>532.0</ele><time>2026-04-04T09:32:04.407Z</time></trkpt><trkpt lat="44.436933" lon="8.4328742"><ele>532.0</ele><time>2026-04-04T09:32:05.407Z</time></trkpt><trkpt lat="44.4368884" lon="8.4330902"><ele>532.0</ele><time>2026-04-04T09:32:06.407Z</time></trkpt><trkpt lat="44.4368449" lon="8.4332985"><ele>532.0</ele><time>2026-04-04T09:32:07.406Z</time></trkpt><trkpt lat="44.4368042" lon="8.4335051"><ele>532.0</ele><time>2026-04-04T09:32:08.407Z</time></trkpt><trkpt lat="44.4367634" lon="8.433712"><ele>532.0</ele><time>2026-04-04T09:32:09.407Z</time></trkpt><trkpt lat="44.4367229" lon="8.4339136"><ele>531.25</ele><time>2026-04-04T09:32:10.407Z</time></trkpt><trkpt lat="44.4366807" lon="8.4341037"><ele>530.5</ele><time>2026-04-04T09:32:11.406Z</time></trkpt><trkpt lat="44.4366359" lon="8.4342918"><ele>529.75</ele><time>2026-04-04T09:32:12.407Z</time></trkpt><trkpt lat="44.4365857" lon="8.4344708"><ele>529.0</ele><time>2026-04-04T09:32:13.406Z</time></trkpt><trkpt lat="44.4365303" lon="8.434642"><ele>526.0</ele><time>2026-04-04T09:32:14.407Z</time></trkpt><trkpt lat="44.4364669" lon="8.4348004"><ele>523.0</ele><time>2026-04-04T09:32:15.407Z</time></trkpt><trkpt lat="44.4363974" lon="8.4349347"><ele>520.0</ele><time>2026-04-04T09:32:16.407Z</time></trkpt><trkpt lat="44.436333" lon="8.4350467"><ele>517.0</ele><time>2026-04-04T09:32:17.407Z</time></trkpt><trkpt lat="44.4362841" lon="8.4351581"><ele>514.0</ele><time>2026-04-04T09:32:18.407Z</time></trkpt><trkpt lat="44.4362552" lon="8.4352711"><ele>514.0</ele><time>2026-04-04T09:32:19.406Z</time></trkpt><trkpt lat="44.4362405" lon="8.4353748"><ele>514.0</ele><time>2026-04-04T09:32:20.407Z</time></trkpt><trkpt lat="44.4362951" lon="8.4355121"><ele>514.0</ele><time>2026-04-04T09:32:22.407Z</time></trkpt><trkpt lat="44.4364207" lon="8.4355671"><ele>514.0</ele><time>2026-04-04T09:32:24.407Z</time></trkpt><trkpt lat="44.4365155" lon="8.4354887"><ele>514.0</ele><time>2026-04-04T09:32:25.407Z</time></trkpt><trkpt lat="44.4366461" lon="8.4353208"><ele>514.0</ele><time>2026-04-04T09:32:26.407Z</time></trkpt><trkpt lat="44.4367159" lon="8.4351739"><ele>514.0</ele><time>2026-04-04T09:32:27.407Z</time></trkpt><trkpt lat="44.4367648" lon="8.4350275"><ele>514.0</ele><time>2026-04-04T09:32:28.407Z</time></trkpt><trkpt lat="44.4368304" lon="8.434905"><ele>514.0</ele><time>2026-04-04T09:32:29.407Z</time></trkpt><trkpt lat="44.4369149" lon="8.4348075"><ele>514.0</ele><time>2026-04-04T09:32:30.407Z</time></trkpt><trkpt lat="44.4370184" lon="8.43468"><ele>514.0</ele><time>2026-04-04T09:32:31.407Z</time></trkpt><trkpt lat="44.4371257" lon="8.4345179"><ele>514.0</ele><time>2026-04-04T09:32:32.406Z</time></trkpt><trkpt lat="44.4372136" lon="8.4343281"><ele>513.0</ele><time>2026-04-04T09:32:33.407Z</time></trkpt><trkpt lat="44.4373077" lon="8.4341337"><ele>512.0</ele><time>2026-04-04T09:32:34.407Z</time></trkpt><trkpt lat="44.4374073" lon="8.4339436"><ele>511.0</ele><time>2026-04-04T09:32:35.407Z</time></trkpt><trkpt lat="44.4375196" lon="8.4337661"><ele>511.0</ele><time>2026-04-04T09:32:36.407Z</time></trkpt><trkpt lat="44.437631" lon="8.4335869"><ele>511.0</ele><time>2026-04-04T09:32:37.407Z</time></trkpt><trkpt lat="44.4377495" lon="8.4334048"><ele>511.0</ele><time>2026-04-04T09:32:38.407Z</time></trkpt><trkpt lat="44.4378787" lon="8.433203"><ele>507.0</ele><time>2026-04-04T09:32:39.407Z</time></trkpt><trkpt lat="44.4380103" lon="8.4330553"><ele>503.0</ele><time>2026-04-04T09:32:40.407Z</time></trkpt><trkpt lat="44.4381554" lon="8.432933"><ele>499.0</ele><time>2026-04-04T09:32:41.407Z</time></trkpt><trkpt lat="44.438302" lon="8.4328201"><ele>499.0</ele><time>2026-04-04T09:32:42.407Z</time></trkpt><trkpt lat="44.4384511" lon="8.4327276"><ele>499.0</ele><time>2026-04-04T09:32:43.406Z</time></trkpt><trkpt lat="44.4386331" lon="8.4326413"><ele>499.0</ele><time>2026-04-04T09:32:44.407Z</time></trkpt><trkpt lat="44.4387886" lon="8.4325654"><ele>494.25</ele><time>2026-04-04T09:32:45.407Z</time></trkpt><trkpt lat="44.4389334" lon="8.4325042"><ele>489.5</ele><time>2026-04-04T09:32:46.407Z</time></trkpt><trkpt lat="44.4390723" lon="8.4324546"><ele>484.75</ele><time>2026-04-04T09:32:47.407Z</time></trkpt><trkpt lat="44.4392105" lon="8.4324179"><ele>480.0</ele><time>2026-04-04T09:32:48.407Z</time></trkpt><trkpt lat="44.4393485" lon="8.4324074"><ele>480.0</ele><time>2026-04-04T09:32:49.407Z</time></trkpt><trkpt lat="44.4394953" lon="8.4324127"><ele>480.0</ele><time>2026-04-04T09:32:50.407Z</time></trkpt><trkpt lat="44.4396446" lon="8.4323844"><ele>480.0</ele><time>2026-04-04T09:32:51.407Z</time></trkpt><trkpt lat="44.4397847" lon="8.4323227"><ele>480.0</ele><time>2026-04-04T09:32:52.407Z</time></trkpt><trkpt lat="44.4399133" lon="8.4322444"><ele>480.0</ele><time>2026-04-04T09:32:53.407Z</time></trkpt><trkpt lat="44.4400352" lon="8.4321636"><ele>480.0</ele><time>2026-04-04T09:32:54.407Z</time></trkpt><trkpt lat="44.4401556" lon="8.4320861"><ele>480.0</ele><time>2026-04-04T09:32:55.407Z</time></trkpt><trkpt lat="44.4402849" lon="8.4320418"><ele>480.0</ele><time>2026-04-04T09:32:56.407Z</time></trkpt><trkpt lat="44.4404167" lon="8.43203"><ele>477.0</ele><time>2026-04-04T09:32:57.407Z</time></trkpt><trkpt lat="44.440571" lon="8.4320583"><ele>474.0</ele><time>2026-04-04T09:32:58.407Z</time></trkpt><trkpt lat="44.4407213" lon="8.4321007"><ele>471.0</ele><time>2026-04-04T09:32:59.407Z</time></trkpt><trkpt lat="44.4408569" lon="8.432149"><ele>468.0</ele><time>2026-04-04T09:33:00.407Z</time></trkpt><trkpt lat="44.4409799" lon="8.4321984"><ele>465.75</ele><time>2026-04-04T09:33:01.407Z</time></trkpt><trkpt lat="44.441094" lon="8.4322606"><ele>463.5</ele><time>2026-04-04T09:33:02.407Z</time></trkpt><trkpt lat="44.4412009" lon="8.4323617"><ele>461.25</ele><time>2026-04-04T09:33:03.407Z</time></trkpt><trkpt lat="44.4412909" lon="8.4325227"><ele>459.0</ele><time>2026-04-04T09:33:04.407Z</time></trkpt><trkpt lat="44.4413716" lon="8.4327056"><ele>457.0</ele><time>2026-04-04T09:33:05.407Z</time></trkpt><trkpt lat="44.4414506" lon="8.4328752"><ele>455.0</ele><time>2026-04-04T09:33:06.407Z</time></trkpt><trkpt lat="44.441535" lon="8.4330353"><ele>453.0</ele><time>2026-04-04T09:33:07.407Z</time></trkpt><trkpt lat="44.4416233" lon="8.4331903"><ele>451.0</ele><time>2026-04-04T09:33:08.407Z</time></trkpt><trkpt lat="44.4417068" lon="8.4333359"><ele>450.0</ele><time>2026-04-04T09:33:09.407Z</time></trkpt><trkpt lat="44.4417867" lon="8.4334649"><ele>449.0</ele><time>2026-04-04T09:33:10.407Z</time></trkpt><trkpt lat="44.4418669" lon="8.4335849"><ele>448.0</ele><time>2026-04-04T09:33:11.407Z</time></trkpt><trkpt lat="44.4419566" lon="8.4336831"><ele>447.0</ele><time>2026-04-04T09:33:12.407Z</time></trkpt><trkpt lat="44.4420564" lon="8.4337713"><ele>444.75</ele><time>2026-04-04T09:33:13.408Z</time></trkpt><trkpt lat="44.4421644" lon="8.4338553"><ele>442.5</ele><time>2026-04-04T09:33:14.408Z</time></trkpt><trkpt lat="44.4422866" lon="8.4339428"><ele>440.25</ele><time>2026-04-04T09:33:15.407Z</time></trkpt><trkpt lat="44.4424212" lon="8.4340111"><ele>438.0</ele><time>2026-04-04T09:33:16.408Z</time></trkpt><trkpt lat="44.4425708" lon="8.4340708"><ele>438.0</ele><time>2026-04-04T09:33:17.408Z</time></trkpt><trkpt lat="44.4427244" lon="8.43413"><ele>438.0</ele><time>2026-04-04T09:33:18.408Z</time></trkpt><trkpt lat="44.4428664" lon="8.4341925"><ele>438.0</ele><time>2026-04-04T09:33:19.408Z</time></trkpt><trkpt lat="44.4430013" lon="8.4342562"><ele>436.5</ele><time>2026-04-04T09:33:20.408Z</time></trkpt><trkpt lat="44.4431344" lon="8.4343154"><ele>435.0</ele><time>2026-04-04T09:33:21.408Z</time></trkpt><trkpt lat="44.443266" lon="8.434373"><ele>433.5</ele><time>2026-04-04T09:33:22.408Z</time></trkpt><trkpt lat="44.4433909" lon="8.4344212"><ele>432.0</ele><time>2026-04-04T09:33:23.408Z</time></trkpt><trkpt lat="44.4435172" lon="8.4344561"><ele>432.0</ele><time>2026-04-04T09:33:24.408Z</time></trkpt><trkpt lat="44.4436453" lon="8.434474"><ele>432.0</ele><time>2026-04-04T09:33:25.408Z</time></trkpt><trkpt lat="44.4437695" lon="8.4344807"><ele>432.0</ele><time>2026-04-04T09:33:26.408Z</time></trkpt><trkpt lat="44.4438962" lon="8.4344828"><ele>432.0</ele><time>2026-04-04T09:33:27.408Z</time></trkpt><trkpt lat="44.4440098" lon="8.4344903"><ele>431.6</ele><time>2026-04-04T09:33:28.408Z</time></trkpt><trkpt lat="44.4441164" lon="8.4344966"><ele>431.20000000000005</ele><time>2026-04-04T09:33:29.408Z</time></trkpt><trkpt lat="44.4442126" lon="8.4345102"><ele>430.8</ele><time>2026-04-04T09:33:30.408Z</time></trkpt><trkpt lat="44.4442928" lon="8.4345179"><ele>430.4</ele><time>2026-04-04T09:33:31.408Z</time></trkpt><trkpt lat="44.4443557" lon="8.4345364"><ele>430.0</ele><time>2026-04-04T09:33:32.408Z</time></trkpt><trkpt lat="44.4444481" lon="8.434596"><ele>429.7142857142857</ele><time>2026-04-04T09:33:34.408Z</time></trkpt><trkpt lat="44.4445035" lon="8.4346512"><ele>429.42857142857144</ele><time>2026-04-04T09:33:37.408Z</time></trkpt><trkpt lat="44.4444768" lon="8.4347337"><ele>429.14285714285717</ele><time>2026-04-04T09:34:01.408Z</time></trkpt><trkpt lat="44.4444296" lon="8.4348233"><ele>428.8571428571429</ele><time>2026-04-04T09:35:22.408Z</time></trkpt><trkpt lat="44.4444801" lon="8.4347454"><ele>428.57142857142856</ele><time>2026-04-04T09:36:07.506Z</time></trkpt><trkpt lat="44.4444879" lon="8.434843"><ele>428.28571428571433</ele><time>2026-04-04T09:36:39.513Z</time></trkpt><trkpt lat="44.4444972" lon="8.434937"><ele>428.0</ele><time>2026-04-04T09:36:52.547Z</time></trkpt><trkpt lat="44.444526" lon="8.4350183"><ele>428.00000000000006</ele><time>2026-04-04T09:36:58.323Z</time></trkpt><trkpt lat="44.4445946" lon="8.4350179"><ele>428.0</ele><time>2026-04-04T09:39:23.025Z</time></trkpt><trkpt lat="44.4446296" lon="8.4350925"><ele>428.0</ele><time>2026-04-04T09:39:50.534Z</time></trkpt><trkpt lat="44.4445573" lon="8.4350293"><ele>428.0</ele><time>2026-04-04T09:42:00.491Z</time></trkpt><trkpt lat="44.4444949" lon="8.4349921"><ele>428.0</ele><time>2026-04-04T09:42:04.454Z</time></trkpt><trkpt lat="44.4445634" lon="8.4349562"><ele>428.00000000000006</ele><time>2026-04-04T09:42:48.45Z</time></trkpt><trkpt lat="44.4445207" lon="8.435031"><ele>428.0</ele><time>2026-04-04T09:47:17.506Z</time></trkpt><trkpt lat="44.4445651" lon="8.4349644"><ele>427.99999999999994</ele><time>2026-04-04T09:48:01.501Z</time></trkpt><trkpt lat="44.444517" lon="8.4348938"><ele>428.0</ele><time>2026-04-04T10:21:06.489Z</time></trkpt><trkpt lat="44.4444688" lon="8.434833"><ele>428.0</ele><time>2026-04-04T10:21:13.5Z</time></trkpt><trkpt lat="44.4444477" lon="8.4347461"><ele>428.0</ele><time>2026-04-04T10:21:20.51Z</time></trkpt><trkpt lat="44.4445259" lon="8.4347829"><ele>427.99999999999994</ele><time>2026-04-04T10:23:24.482Z</time></trkpt><trkpt lat="44.4444959" lon="8.4348753"><ele>428.0</ele><time>2026-04-04T10:24:07.457Z</time></trkpt><trkpt lat="44.4445868" lon="8.4348134"><ele>427.99999999999994</ele><time>2026-04-04T10:24:10.459Z</time></trkpt><trkpt lat="44.444646" lon="8.4347307"><ele>428.0</ele><time>2026-04-04T10:24:12.457Z</time></trkpt><trkpt lat="44.4447308" lon="8.4346067"><ele>428.0</ele><time>2026-04-04T10:24:14.456Z</time></trkpt><trkpt lat="44.4447878" lon="8.4345403"><ele>428.0</ele><time>2026-04-04T10:24:15.457Z</time></trkpt><trkpt lat="44.4448551" lon="8.4344743"><ele>427.99999999999994</ele><time>2026-04-04T10:24:16.458Z</time></trkpt><trkpt lat="44.444921" lon="8.4344038"><ele>428.0</ele><time>2026-04-04T10:24:17.457Z</time></trkpt><trkpt lat="44.44499" lon="8.4343261"><ele>427.99999999999994</ele><time>2026-04-04T10:24:18.458Z</time></trkpt><trkpt lat="44.4450653" lon="8.4342406"><ele>428.0</ele><time>2026-04-04T10:24:19.457Z</time></trkpt><trkpt lat="44.4451343" lon="8.4341633"><ele>428.0</ele><time>2026-04-04T10:24:20.457Z</time></trkpt><trkpt lat="44.4451943" lon="8.4340815"><ele>428.0</ele><time>2026-04-04T10:24:21.457Z</time></trkpt><trkpt lat="44.4452586" lon="8.4340223"><ele>427.99999999999994</ele><time>2026-04-04T10:24:22.458Z</time></trkpt><trkpt lat="44.4453032" lon="8.4339581"><ele>428.0</ele><time>2026-04-04T10:24:23.458Z</time></trkpt><trkpt lat="44.445353" lon="8.4338938"><ele>428.0</ele><time>2026-04-04T10:24:24.456Z</time></trkpt><trkpt lat="44.4454054" lon="8.4338185"><ele>427.99999999999994</ele><time>2026-04-04T10:24:25.457Z</time></trkpt><trkpt lat="44.4454596" lon="8.4337248"><ele>427.99999999999994</ele><time>2026-04-04T10:24:26.457Z</time></trkpt><trkpt lat="44.4455138" lon="8.433614"><ele>428.0</ele><time>2026-04-04T10:24:27.457Z</time></trkpt><trkpt lat="44.4455696" lon="8.4335047"><ele>428.0</ele><time>2026-04-04T10:24:28.457Z</time></trkpt><trkpt lat="44.4456257" lon="8.4333801"><ele>427.79999999999995</ele><time>2026-04-04T10:24:29.457Z</time></trkpt><trkpt lat="44.4456755" lon="8.4332449"><ele>427.59999999999997</ele><time>2026-04-04T10:24:30.457Z</time></trkpt><trkpt lat="44.4457263" lon="8.4331129"><ele>427.40000000000003</ele><time>2026-04-04T10:24:31.458Z</time></trkpt><trkpt lat="44.4457769" lon="8.432982"><ele>427.20000000000005</ele><time>2026-04-04T10:24:32.458Z</time></trkpt><trkpt lat="44.4458222" lon="8.4328637"><ele>427.0</ele><time>2026-04-04T10:24:33.458Z</time></trkpt><trkpt lat="44.4458572" lon="8.4327591"><ele>427.50000000000006</ele><time>2026-04-04T10:24:34.458Z</time></trkpt><trkpt lat="44.4458916" lon="8.4326561"><ele>428.0</ele><time>2026-04-04T10:24:35.458Z</time></trkpt><trkpt lat="44.4459217" lon="8.4325527"><ele>428.5</ele><time>2026-04-04T10:24:36.458Z</time></trkpt><trkpt lat="44.4459495" lon="8.432459"><ele>429.0</ele><time>2026-04-04T10:24:37.457Z</time></trkpt><trkpt lat="44.4459831" lon="8.4323673"><ele>429.50000000000006</ele><time>2026-04-04T10:24:38.457Z</time></trkpt><trkpt lat="44.4460146" lon="8.4322638"><ele>430.0</ele><time>2026-04-04T10:24:39.458Z</time></trkpt><trkpt lat="44.4460491" lon="8.432147"><ele>430.2</ele><time>2026-04-04T10:24:40.457Z</time></trkpt><trkpt lat="44.4460835" lon="8.4320117"><ele>430.4</ele><time>2026-04-04T10:24:41.457Z</time></trkpt><trkpt lat="44.4461215" lon="8.431867"><ele>430.6</ele><time>2026-04-04T10:24:42.458Z</time></trkpt><trkpt lat="44.4461623" lon="8.4317155"><ele>430.8</ele><time>2026-04-04T10:24:43.458Z</time></trkpt><trkpt lat="44.446202" lon="8.4315662"><ele>431.0</ele><time>2026-04-04T10:24:44.457Z</time></trkpt><trkpt lat="44.4462429" lon="8.4314213"><ele>431.0</ele><time>2026-04-04T10:24:45.457Z</time></trkpt><trkpt lat="44.4462828" lon="8.431281"><ele>431.0</ele><time>2026-04-04T10:24:46.457Z</time></trkpt><trkpt lat="44.4463221" lon="8.4311462"><ele>431.0</ele><time>2026-04-04T10:24:47.458Z</time></trkpt><trkpt lat="44.4463636" lon="8.4310112"><ele>431.0</ele><time>2026-04-04T10:24:48.457Z</time></trkpt><trkpt lat="44.4464074" lon="8.4308697"><ele>431.0</ele><time>2026-04-04T10:24:49.458Z</time></trkpt><trkpt lat="44.4464542" lon="8.4307166"><ele>428.5</ele><time>2026-04-04T10:24:50.458Z</time></trkpt><trkpt lat="44.4464995" lon="8.4305595"><ele>426.0</ele><time>2026-04-04T10:24:51.458Z</time></trkpt><trkpt lat="44.4465461" lon="8.4303996"><ele>423.5</ele><time>2026-04-04T10:24:52.458Z</time></trkpt><trkpt lat="44.4465899" lon="8.4302441"><ele>421.0</ele><time>2026-04-04T10:24:53.458Z</time></trkpt><trkpt lat="44.4466316" lon="8.4300929"><ele>421.0</ele><time>2026-04-04T10:24:54.458Z</time></trkpt><trkpt lat="44.4466751" lon="8.4299383"><ele>421.0</ele><time>2026-04-04T10:24:55.458Z</time></trkpt><trkpt lat="44.4467179" lon="8.4297836"><ele>421.0</ele><time>2026-04-04T10:24:56.459Z</time></trkpt><trkpt lat="44.4467608" lon="8.4296311"><ele>421.0</ele><time>2026-04-04T10:24:57.458Z</time></trkpt><trkpt lat="44.446807" lon="8.4294764"><ele>420.75</ele><time>2026-04-04T10:24:58.458Z</time></trkpt><trkpt lat="44.4468538" lon="8.4293254"><ele>420.5</ele><time>2026-04-04T10:24:59.458Z</time></trkpt><trkpt lat="44.4469077" lon="8.4291716"><ele>420.25</ele><time>2026-04-04T10:25:00.459Z</time></trkpt><trkpt lat="44.446976" lon="8.4290129"><ele>420.0</ele><time>2026-04-04T10:25:01.457Z</time></trkpt><trkpt lat="44.4470577" lon="8.4288618"><ele>420.0</ele><time>2026-04-04T10:25:02.457Z</time></trkpt><trkpt lat="44.447146" lon="8.4287172"><ele>420.0</ele><time>2026-04-04T10:25:03.458Z</time></trkpt><trkpt lat="44.4472323" lon="8.4285748"><ele>420.0</ele><time>2026-04-04T10:25:04.458Z</time></trkpt><trkpt lat="44.4473148" lon="8.4284312"><ele>420.0</ele><time>2026-04-04T10:25:05.458Z</time></trkpt><trkpt lat="44.4473923" lon="8.428285"><ele>420.0</ele><time>2026-04-04T10:25:06.459Z</time></trkpt><trkpt lat="44.4474668" lon="8.4281391"><ele>420.0</ele><time>2026-04-04T10:25:07.458Z</time></trkpt><trkpt lat="44.4475408" lon="8.4280065"><ele>420.0</ele><time>2026-04-04T10:25:08.457Z</time></trkpt><trkpt lat="44.4476138" lon="8.4278806"><ele>420.0</ele><time>2026-04-04T10:25:09.458Z</time></trkpt><trkpt lat="44.4476838" lon="8.427755"><ele>420.6</ele><time>2026-04-04T10:25:10.458Z</time></trkpt><trkpt lat="44.4477562" lon="8.4276461"><ele>421.2</ele><time>2026-04-04T10:25:11.458Z</time></trkpt><trkpt lat="44.4478326" lon="8.4275572"><ele>421.79999999999995</ele><time>2026-04-04T10:25:12.459Z</time></trkpt><trkpt lat="44.447934" lon="8.4275144"><ele>422.4</ele><time>2026-04-04T10:25:13.458Z</time></trkpt><trkpt lat="44.4480549" lon="8.4275029"><ele>423.0</ele><time>2026-04-04T10:25:14.459Z</time></trkpt><trkpt lat="44.4481752" lon="8.4274868"><ele>423.0</ele><time>2026-04-04T10:25:15.458Z</time></trkpt><trkpt lat="44.448277" lon="8.4274415"><ele>423.0</ele><time>2026-04-04T10:25:16.459Z</time></trkpt><trkpt lat="44.448382" lon="8.4273276"><ele>423.0</ele><time>2026-04-04T10:25:17.458Z</time></trkpt><trkpt lat="44.4484882" lon="8.4271559"><ele>423.0</ele><time>2026-04-04T10:25:18.459Z</time></trkpt><trkpt lat="44.4485901" lon="8.4269894"><ele>422.75</ele><time>2026-04-04T10:25:19.458Z</time></trkpt><trkpt lat="44.4486898" lon="8.4268421"><ele>422.5</ele><time>2026-04-04T10:25:20.459Z</time></trkpt><trkpt lat="44.4487932" lon="8.4266989"><ele>422.25</ele><time>2026-04-04T10:25:21.458Z</time></trkpt><trkpt lat="44.4489037" lon="8.4265659"><ele>422.0</ele><time>2026-04-04T10:25:22.458Z</time></trkpt><trkpt lat="44.4490193" lon="8.4264292"><ele>425.3333333333333</ele><time>2026-04-04T10:25:23.458Z</time></trkpt><trkpt lat="44.4491372" lon="8.426294"><ele>428.66666666666663</ele><time>2026-04-04T10:25:24.457Z</time></trkpt><trkpt lat="44.449257" lon="8.4261602"><ele>432.0</ele><time>2026-04-04T10:25:25.458Z</time></trkpt><trkpt lat="44.4493755" lon="8.4260248"><ele>432.0</ele><time>2026-04-04T10:25:26.457Z</time></trkpt><trkpt lat="44.4495014" lon="8.4258845"><ele>432.0</ele><time>2026-04-04T10:25:27.458Z</time></trkpt><trkpt lat="44.4496299" lon="8.4257408"><ele>432.0</ele><time>2026-04-04T10:25:28.459Z</time></trkpt><trkpt lat="44.4497656" lon="8.4256013"><ele>431.33333333333337</ele><time>2026-04-04T10:25:29.459Z</time></trkpt><trkpt lat="44.4499092" lon="8.4254669"><ele>430.6666666666667</ele><time>2026-04-04T10:25:30.458Z</time></trkpt><trkpt lat="44.4500591" lon="8.4253346"><ele>430.0</ele><time>2026-04-04T10:25:31.458Z</time></trkpt><trkpt lat="44.4502135" lon="8.4251978"><ele>430.0</ele><time>2026-04-04T10:25:32.459Z</time></trkpt><trkpt lat="44.4503619" lon="8.4250676"><ele>430.0</ele><time>2026-04-04T10:25:33.459Z</time></trkpt><trkpt lat="44.4505" lon="8.4249482"><ele>430.0</ele><time>2026-04-04T10:25:34.459Z</time></trkpt><trkpt lat="44.4506303" lon="8.4248334"><ele>431.5</ele><time>2026-04-04T10:25:35.459Z</time></trkpt><trkpt lat="44.4507492" lon="8.4247278"><ele>433.0</ele><time>2026-04-04T10:25:36.458Z</time></trkpt><trkpt lat="44.4508582" lon="8.4246262"><ele>434.5</ele><time>2026-04-04T10:25:37.459Z</time></trkpt><trkpt lat="44.4509582" lon="8.4245343"><ele>436.0</ele><time>2026-04-04T10:25:38.459Z</time></trkpt><trkpt lat="44.4510572" lon="8.4244418"><ele>436.0</ele><time>2026-04-04T10:25:39.458Z</time></trkpt><trkpt lat="44.4511568" lon="8.4243504"><ele>436.0</ele><time>2026-04-04T10:25:40.459Z</time></trkpt><trkpt lat="44.4512657" lon="8.4242507"><ele>436.0</ele><time>2026-04-04T10:25:41.459Z</time></trkpt><trkpt lat="44.451391" lon="8.4241617"><ele>436.0</ele><time>2026-04-04T10:25:42.459Z</time></trkpt><trkpt lat="44.4515426" lon="8.4240873"><ele>432.0</ele><time>2026-04-04T10:25:43.458Z</time></trkpt><trkpt lat="44.4517235" lon="8.4240848"><ele>428.0</ele><time>2026-04-04T10:25:44.458Z</time></trkpt><trkpt lat="44.4519016" lon="8.4241555"><ele>424.0</ele><time>2026-04-04T10:25:45.459Z</time></trkpt><trkpt lat="44.4520634" lon="8.4242748"><ele>421.6666666666667</ele><time>2026-04-04T10:25:46.459Z</time></trkpt><trkpt lat="44.4522027" lon="8.4244122"><ele>419.33333333333337</ele><time>2026-04-04T10:25:47.459Z</time></trkpt><trkpt lat="44.4523007" lon="8.4245671"><ele>417.0</ele><time>2026-04-04T10:25:48.458Z</time></trkpt><trkpt lat="44.452406" lon="8.4247213"><ele>417.0</ele><time>2026-04-04T10:25:49.458Z</time></trkpt><trkpt lat="44.4525381" lon="8.4248672"><ele>417.0</ele><time>2026-04-04T10:25:50.459Z</time></trkpt><trkpt lat="44.4526686" lon="8.4250081"><ele>417.0</ele><time>2026-04-04T10:25:51.458Z</time></trkpt><trkpt lat="44.452789" lon="8.4251454"><ele>417.0</ele><time>2026-04-04T10:25:52.459Z</time></trkpt><trkpt lat="44.4529019" lon="8.4252734"><ele>417.0</ele><time>2026-04-04T10:25:53.459Z</time></trkpt><trkpt lat="44.4530095" lon="8.4253965"><ele>417.0</ele><time>2026-04-04T10:25:54.459Z</time></trkpt><trkpt lat="44.4531204" lon="8.4255111"><ele>417.0</ele><time>2026-04-04T10:25:55.459Z</time></trkpt><trkpt lat="44.4532398" lon="8.4256055"><ele>416.75</ele><time>2026-04-04T10:25:56.459Z</time></trkpt><trkpt lat="44.4533677" lon="8.4256863"><ele>416.5</ele><time>2026-04-04T10:25:57.459Z</time></trkpt><trkpt lat="44.453507" lon="8.4257511"><ele>416.25</ele><time>2026-04-04T10:25:58.458Z</time></trkpt><trkpt lat="44.4536605" lon="8.4258136"><ele>416.0</ele><time>2026-04-04T10:25:59.458Z</time></trkpt><trkpt lat="44.4538133" lon="8.4258932"><ele>418.3333333333333</ele><time>2026-04-04T10:26:00.458Z</time></trkpt><trkpt lat="44.4539574" lon="8.4259893"><ele>420.66666666666663</ele><time>2026-04-04T10:26:01.459Z</time></trkpt><trkpt lat="44.4540966" lon="8.4260998"><ele>423.0</ele><time>2026-04-04T10:26:02.459Z</time></trkpt><trkpt lat="44.4542344" lon="8.4262233"><ele>422.0</ele><time>2026-04-04T10:26:03.459Z</time></trkpt><trkpt lat="44.4543688" lon="8.4263622"><ele>421.0</ele><time>2026-04-04T10:26:04.459Z</time></trkpt><trkpt lat="44.4545037" lon="8.4265107"><ele>420.0</ele><time>2026-04-04T10:26:05.459Z</time></trkpt><trkpt lat="44.454631" lon="8.4266522"><ele>420.0</ele><time>2026-04-04T10:26:06.459Z</time></trkpt><trkpt lat="44.4547563" lon="8.4267909"><ele>420.0</ele><time>2026-04-04T10:26:07.459Z</time></trkpt><trkpt lat="44.4548778" lon="8.4269249"><ele>420.0</ele><time>2026-04-04T10:26:08.459Z</time></trkpt><trkpt lat="44.4549943" lon="8.4270538"><ele>419.0</ele><time>2026-04-04T10:26:09.459Z</time></trkpt><trkpt lat="44.4551092" lon="8.427177"><ele>418.0</ele><time>2026-04-04T10:26:10.459Z</time></trkpt><trkpt lat="44.4552228" lon="8.4272937"><ele>417.0</ele><time>2026-04-04T10:26:11.459Z</time></trkpt><trkpt lat="44.4553417" lon="8.4274029"><ele>416.0</ele><time>2026-04-04T10:26:12.459Z</time></trkpt><trkpt lat="44.4554718" lon="8.4275176"><ele>416.0</ele><time>2026-04-04T10:26:13.46Z</time></trkpt><trkpt lat="44.4556269" lon="8.4276297"><ele>416.0</ele><time>2026-04-04T10:26:14.46Z</time></trkpt><trkpt lat="44.4557678" lon="8.4277289"><ele>416.0</ele><time>2026-04-04T10:26:15.46Z</time></trkpt><trkpt lat="44.4559061" lon="8.4278023"><ele>416.0</ele><time>2026-04-04T10:26:16.46Z</time></trkpt><trkpt lat="44.4560384" lon="8.4278324"><ele>416.0</ele><time>2026-04-04T10:26:17.459Z</time></trkpt><trkpt lat="44.4561714" lon="8.4278134"><ele>416.0</ele><time>2026-04-04T10:26:18.459Z</time></trkpt><trkpt lat="44.4562976" lon="8.4277454"><ele>416.0</ele><time>2026-04-04T10:26:19.459Z</time></trkpt><trkpt lat="44.4564124" lon="8.4276263"><ele>414.3333333333333</ele><time>2026-04-04T10:26:20.459Z</time></trkpt><trkpt lat="44.4565015" lon="8.4274468"><ele>412.66666666666663</ele><time>2026-04-04T10:26:21.459Z</time></trkpt><trkpt lat="44.4565778" lon="8.427252"><ele>411.0</ele><time>2026-04-04T10:26:22.459Z</time></trkpt><trkpt lat="44.4566384" lon="8.4270257"><ele>411.0</ele><time>2026-04-04T10:26:23.459Z</time></trkpt><trkpt lat="44.456673" lon="8.426783"><ele>411.0</ele><time>2026-04-04T10:26:24.459Z</time></trkpt><trkpt lat="44.4566807" lon="8.4265363"><ele>411.0</ele><time>2026-04-04T10:26:25.459Z</time></trkpt><trkpt lat="44.456666" lon="8.4262809"><ele>410.33333333333337</ele><time>2026-04-04T10:26:26.459Z</time></trkpt><trkpt lat="44.4566426" lon="8.4260246"><ele>409.6666666666667</ele><time>2026-04-04T10:26:27.459Z</time></trkpt><trkpt lat="44.4566147" lon="8.4257577"><ele>409.0</ele><time>2026-04-04T10:26:28.459Z</time></trkpt><trkpt lat="44.4565913" lon="8.4255"><ele>408.33333333333337</ele><time>2026-04-04T10:26:29.46Z</time></trkpt><trkpt lat="44.4565745" lon="8.4252408"><ele>407.66666666666663</ele><time>2026-04-04T10:26:30.46Z</time></trkpt><trkpt lat="44.4565652" lon="8.4249705"><ele>407.0</ele><time>2026-04-04T10:26:31.459Z</time></trkpt><trkpt lat="44.4565828" lon="8.4246704"><ele>408.0</ele><time>2026-04-04T10:26:32.46Z</time></trkpt><trkpt lat="44.45663" lon="8.4243595"><ele>409.0</ele><time>2026-04-04T10:26:33.458Z</time></trkpt><trkpt lat="44.456701" lon="8.4240668"><ele>410.0</ele><time>2026-04-04T10:26:34.46Z</time></trkpt><trkpt lat="44.4567684" lon="8.4237944"><ele>414.0</ele><time>2026-04-04T10:26:35.459Z</time></trkpt><trkpt lat="44.4568103" lon="8.4235642"><ele>418.0</ele><time>2026-04-04T10:26:36.46Z</time></trkpt><trkpt lat="44.4568569" lon="8.4233252"><ele>422.0</ele><time>2026-04-04T10:26:37.459Z</time></trkpt><trkpt lat="44.4569094" lon="8.4230877"><ele>426.0</ele><time>2026-04-04T10:26:38.46Z</time></trkpt><trkpt lat="44.4569628" lon="8.4228563"><ele>430.0</ele><time>2026-04-04T10:26:39.46Z</time></trkpt><trkpt lat="44.4570152" lon="8.4226287"><ele>434.0</ele><time>2026-04-04T10:26:40.46Z</time></trkpt><trkpt lat="44.4570702" lon="8.4223854"><ele>426.0</ele><time>2026-04-04T10:26:41.46Z</time></trkpt><trkpt lat="44.4571469" lon="8.4221382"><ele>418.0</ele><time>2026-04-04T10:26:42.458Z</time></trkpt><trkpt lat="44.4572304" lon="8.4219006"><ele>410.0</ele><time>2026-04-04T10:26:43.459Z</time></trkpt><trkpt lat="44.4573335" lon="8.4217047"><ele>410.0</ele><time>2026-04-04T10:26:44.46Z</time></trkpt><trkpt lat="44.4574671" lon="8.4215394"><ele>410.0</ele><time>2026-04-04T10:26:45.46Z</time></trkpt><trkpt lat="44.4576222" lon="8.4213859"><ele>410.0</ele><time>2026-04-04T10:26:46.46Z</time></trkpt><trkpt lat="44.4577973" lon="8.421269"><ele>409.66666666666663</ele><time>2026-04-04T10:26:47.46Z</time></trkpt><trkpt lat="44.4579749" lon="8.4211813"><ele>409.33333333333337</ele><time>2026-04-04T10:26:48.459Z</time></trkpt><trkpt lat="44.4581589" lon="8.4211011"><ele>409.0</ele><time>2026-04-04T10:26:49.46Z</time></trkpt><trkpt lat="44.4583332" lon="8.4210177"><ele>409.0</ele><time>2026-04-04T10:26:50.46Z</time></trkpt><trkpt lat="44.4585134" lon="8.420933"><ele>409.0</ele><time>2026-04-04T10:26:51.46Z</time></trkpt><trkpt lat="44.4586711" lon="8.4208187"><ele>409.0</ele><time>2026-04-04T10:26:52.46Z</time></trkpt><trkpt lat="44.4588158" lon="8.4207153"><ele>407.6666666666667</ele><time>2026-04-04T10:26:53.46Z</time></trkpt><trkpt lat="44.4589633" lon="8.420619"><ele>406.33333333333337</ele><time>2026-04-04T10:26:54.459Z</time></trkpt><trkpt lat="44.4591342" lon="8.4205329"><ele>405.0</ele><time>2026-04-04T10:26:55.46Z</time></trkpt><trkpt lat="44.459317" lon="8.4204473"><ele>408.33333333333337</ele><time>2026-04-04T10:26:56.459Z</time></trkpt><trkpt lat="44.4594996" lon="8.4203629"><ele>411.6666666666667</ele><time>2026-04-04T10:26:57.46Z</time></trkpt><trkpt lat="44.4596915" lon="8.4203186"><ele>415.0</ele><time>2026-04-04T10:26:58.46Z</time></trkpt><trkpt lat="44.4598936" lon="8.4202689"><ele>415.33333333333337</ele><time>2026-04-04T10:26:59.46Z</time></trkpt><trkpt lat="44.4601009" lon="8.4202357"><ele>415.66666666666663</ele><time>2026-04-04T10:27:00.46Z</time></trkpt><trkpt lat="44.4602923" lon="8.4202008"><ele>416.0</ele><time>2026-04-04T10:27:01.46Z</time></trkpt><trkpt lat="44.460476" lon="8.4201666"><ele>416.0</ele><time>2026-04-04T10:27:02.46Z</time></trkpt><trkpt lat="44.4606545" lon="8.4201279"><ele>416.0</ele><time>2026-04-04T10:27:03.46Z</time></trkpt><trkpt lat="44.460797" lon="8.4200796"><ele>416.0</ele><time>2026-04-04T10:27:04.46Z</time></trkpt><trkpt lat="44.4609223" lon="8.4200108"><ele>416.0</ele><time>2026-04-04T10:27:05.46Z</time></trkpt><trkpt lat="44.4610294" lon="8.4199259"><ele>416.0</ele><time>2026-04-04T10:27:06.46Z</time></trkpt><trkpt lat="44.4611338" lon="8.4198433"><ele>416.0</ele><time>2026-04-04T10:27:07.46Z</time></trkpt><trkpt lat="44.461241" lon="8.4198028"><ele>416.0</ele><time>2026-04-04T10:27:08.46Z</time></trkpt><trkpt lat="44.4613494" lon="8.4198226"><ele>417.75</ele><time>2026-04-04T10:27:09.459Z</time></trkpt><trkpt lat="44.4614446" lon="8.4199178"><ele>419.5</ele><time>2026-04-04T10:27:10.46Z</time></trkpt><trkpt lat="44.4615168" lon="8.4200542"><ele>421.25</ele><time>2026-04-04T10:27:11.46Z</time></trkpt><trkpt lat="44.4615723" lon="8.4202325"><ele>423.0</ele><time>2026-04-04T10:27:12.46Z</time></trkpt><trkpt lat="44.4615915" lon="8.4204311"><ele>422.75</ele><time>2026-04-04T10:27:13.46Z</time></trkpt><trkpt lat="44.4615921" lon="8.4206278"><ele>422.5</ele><time>2026-04-04T10:27:14.46Z</time></trkpt><trkpt lat="44.4616067" lon="8.4208381"><ele>422.25</ele><time>2026-04-04T10:27:15.459Z</time></trkpt><trkpt lat="44.4616341" lon="8.4210289"><ele>422.0</ele><time>2026-04-04T10:27:16.459Z</time></trkpt><trkpt lat="44.4616876" lon="8.4212021"><ele>420.25</ele><time>2026-04-04T10:27:17.459Z</time></trkpt><trkpt lat="44.4617572" lon="8.4213664"><ele>418.5</ele><time>2026-04-04T10:27:18.46Z</time></trkpt><trkpt lat="44.4618172" lon="8.4215111"><ele>416.75</ele><time>2026-04-04T10:27:19.46Z</time></trkpt><trkpt lat="44.4618955" lon="8.4216156"><ele>415.0</ele><time>2026-04-04T10:27:20.46Z</time></trkpt><trkpt lat="44.4619882" lon="8.4216642"><ele>415.0</ele><time>2026-04-04T10:27:21.46Z</time></trkpt><trkpt lat="44.4620931" lon="8.4216568"><ele>415.0</ele><time>2026-04-04T10:27:22.459Z</time></trkpt><trkpt lat="44.4621941" lon="8.4215939"><ele>415.0</ele><time>2026-04-04T10:27:23.46Z</time></trkpt><trkpt lat="44.4622937" lon="8.4214563"><ele>415.0</ele><time>2026-04-04T10:27:24.46Z</time></trkpt><trkpt lat="44.4623892" lon="8.4212753"><ele>420.5</ele><time>2026-04-04T10:27:25.46Z</time></trkpt><trkpt lat="44.4624807" lon="8.4210827"><ele>426.0</ele><time>2026-04-04T10:27:26.461Z</time></trkpt><trkpt lat="44.4625313" lon="8.4209191"><ele>431.5</ele><time>2026-04-04T10:27:27.46Z</time></trkpt><trkpt lat="44.4625642" lon="8.4207357"><ele>437.0</ele><time>2026-04-04T10:27:28.461Z</time></trkpt><trkpt lat="44.4625639" lon="8.4205378"><ele>437.0</ele><time>2026-04-04T10:27:29.461Z</time></trkpt><trkpt lat="44.4625651" lon="8.4203213"><ele>437.0</ele><time>2026-04-04T10:27:30.46Z</time></trkpt><trkpt lat="44.4625982" lon="8.4200934"><ele>437.0</ele><time>2026-04-04T10:27:31.46Z</time></trkpt><trkpt lat="44.4626786" lon="8.4199151"><ele>437.0</ele><time>2026-04-04T10:27:32.46Z</time></trkpt><trkpt lat="44.4627869" lon="8.4197552"><ele>437.0</ele><time>2026-04-04T10:27:33.46Z</time></trkpt><trkpt lat="44.4629025" lon="8.4196228"><ele>437.0</ele><time>2026-04-04T10:27:34.46Z</time></trkpt><trkpt lat="44.4630328" lon="8.4195112"><ele>441.0</ele><time>2026-04-04T10:27:35.461Z</time></trkpt><trkpt lat="44.4631758" lon="8.4194144"><ele>445.0</ele><time>2026-04-04T10:27:36.461Z</time></trkpt><trkpt lat="44.4633356" lon="8.4193319"><ele>449.0</ele><time>2026-04-04T10:27:37.46Z</time></trkpt><trkpt lat="44.463495" lon="8.4192494"><ele>449.0</ele><time>2026-04-04T10:27:38.461Z</time></trkpt><trkpt lat="44.4636546" lon="8.4191635"><ele>449.0</ele><time>2026-04-04T10:27:39.46Z</time></trkpt><trkpt lat="44.4638146" lon="8.4190718"><ele>449.0</ele><time>2026-04-04T10:27:40.46Z</time></trkpt><trkpt lat="44.4639663" lon="8.4189798"><ele>450.3333333333333</ele><time>2026-04-04T10:27:41.46Z</time></trkpt><trkpt lat="44.4641165" lon="8.4188972"><ele>451.66666666666663</ele><time>2026-04-04T10:27:42.46Z</time></trkpt><trkpt lat="44.4642858" lon="8.4188582"><ele>453.0</ele><time>2026-04-04T10:27:43.461Z</time></trkpt><trkpt lat="44.464462" lon="8.4188774"><ele>455.66666666666663</ele><time>2026-04-04T10:27:44.461Z</time></trkpt><trkpt lat="44.4646399" lon="8.4189451"><ele>458.3333333333333</ele><time>2026-04-04T10:27:45.461Z</time></trkpt><trkpt lat="44.4648207" lon="8.4190163"><ele>461.0</ele><time>2026-04-04T10:27:46.461Z</time></trkpt><trkpt lat="44.4649848" lon="8.419083"><ele>461.0</ele><time>2026-04-04T10:27:47.46Z</time></trkpt><trkpt lat="44.4651464" lon="8.4191483"><ele>461.0</ele><time>2026-04-04T10:27:48.461Z</time></trkpt><trkpt lat="44.4652805" lon="8.4192351"><ele>461.0</ele><time>2026-04-04T10:27:49.461Z</time></trkpt><trkpt lat="44.4653958" lon="8.4193649"><ele>458.0</ele><time>2026-04-04T10:27:50.46Z</time></trkpt><trkpt lat="44.4655015" lon="8.4195606"><ele>455.0</ele><time>2026-04-04T10:27:51.46Z</time></trkpt><trkpt lat="44.4655935" lon="8.4197857"><ele>452.0</ele><time>2026-04-04T10:27:52.46Z</time></trkpt><trkpt lat="44.4656778" lon="8.4200056"><ele>452.0</ele><time>2026-04-04T10:27:53.461Z</time></trkpt><trkpt lat="44.4657603" lon="8.4202061"><ele>452.0</ele><time>2026-04-04T10:27:54.461Z</time></trkpt><trkpt lat="44.4658435" lon="8.4203968"><ele>452.0</ele><time>2026-04-04T10:27:55.461Z</time></trkpt><trkpt lat="44.4659417" lon="8.4205688"><ele>451.66666666666663</ele><time>2026-04-04T10:27:56.461Z</time></trkpt><trkpt lat="44.4660607" lon="8.4207293"><ele>451.33333333333337</ele><time>2026-04-04T10:27:57.46Z</time></trkpt><trkpt lat="44.46619" lon="8.4208786"><ele>451.0</ele><time>2026-04-04T10:27:58.461Z</time></trkpt><trkpt lat="44.4663282" lon="8.4210159"><ele>449.33333333333337</ele><time>2026-04-04T10:27:59.461Z</time></trkpt><trkpt lat="44.4664649" lon="8.421147"><ele>447.66666666666663</ele><time>2026-04-04T10:28:00.461Z</time></trkpt><trkpt lat="44.4666047" lon="8.4212695"><ele>446.0</ele><time>2026-04-04T10:28:01.461Z</time></trkpt><trkpt lat="44.4667415" lon="8.4213947"><ele>443.75</ele><time>2026-04-04T10:28:02.461Z</time></trkpt><trkpt lat="44.4668637" lon="8.4215139"><ele>441.5</ele><time>2026-04-04T10:28:03.46Z</time></trkpt><trkpt lat="44.4669757" lon="8.4216152"><ele>439.25</ele><time>2026-04-04T10:28:04.461Z</time></trkpt><trkpt lat="44.467082" lon="8.4216994"><ele>437.0</ele><time>2026-04-04T10:28:05.46Z</time></trkpt><trkpt lat="44.4671847" lon="8.4217714"><ele>434.25</ele><time>2026-04-04T10:28:06.461Z</time></trkpt><trkpt lat="44.4672964" lon="8.4218051"><ele>431.5</ele><time>2026-04-04T10:28:07.46Z</time></trkpt><trkpt lat="44.4674159" lon="8.4217898"><ele>428.75</ele><time>2026-04-04T10:28:08.461Z</time></trkpt><trkpt lat="44.4675282" lon="8.4217364"><ele>426.0</ele><time>2026-04-04T10:28:09.461Z</time></trkpt><trkpt lat="44.4676459" lon="8.4216139"><ele>426.0</ele><time>2026-04-04T10:28:10.461Z</time></trkpt><trkpt lat="44.4677526" lon="8.4214419"><ele>426.0</ele><time>2026-04-04T10:28:11.461Z</time></trkpt><trkpt lat="44.4678509" lon="8.4212187"><ele>426.0</ele><time>2026-04-04T10:28:12.461Z</time></trkpt><trkpt lat="44.467938" lon="8.4209843"><ele>422.66666666666663</ele><time>2026-04-04T10:28:13.461Z</time></trkpt><trkpt lat="44.4680192" lon="8.42075"><ele>419.3333333333333</ele><time>2026-04-04T10:28:14.461Z</time></trkpt><trkpt lat="44.4681046" lon="8.4204865"><ele>416.0</ele><time>2026-04-04T10:28:15.461Z</time></trkpt><trkpt lat="44.4682038" lon="8.4202318"><ele>416.0</ele><time>2026-04-04T10:28:16.461Z</time></trkpt><trkpt lat="44.4683591" lon="8.4200168"><ele>416.0</ele><time>2026-04-04T10:28:17.461Z</time></trkpt><trkpt lat="44.4685353" lon="8.4198495"><ele>416.0</ele><time>2026-04-04T10:28:18.461Z</time></trkpt><trkpt lat="44.4687174" lon="8.4197089"><ele>412.66666666666663</ele><time>2026-04-04T10:28:19.461Z</time></trkpt><trkpt lat="44.4689006" lon="8.4195821"><ele>409.33333333333337</ele><time>2026-04-04T10:28:20.461Z</time></trkpt><trkpt lat="44.4690753" lon="8.4194471"><ele>406.0</ele><time>2026-04-04T10:28:21.46Z</time></trkpt><trkpt lat="44.4692361" lon="8.4192839"><ele>406.0</ele><time>2026-04-04T10:28:22.461Z</time></trkpt><trkpt lat="44.4693863" lon="8.4191061"><ele>406.0</ele><time>2026-04-04T10:28:23.46Z</time></trkpt><trkpt lat="44.4695202" lon="8.4189036"><ele>406.0</ele><time>2026-04-04T10:28:24.461Z</time></trkpt><trkpt lat="44.4696255" lon="8.4187093"><ele>406.33333333333337</ele><time>2026-04-04T10:28:25.461Z</time></trkpt><trkpt lat="44.4697298" lon="8.4185165"><ele>406.66666666666663</ele><time>2026-04-04T10:28:26.462Z</time></trkpt><trkpt lat="44.4698248" lon="8.4183415"><ele>407.0</ele><time>2026-04-04T10:28:27.462Z</time></trkpt><trkpt lat="44.4699064" lon="8.4181645"><ele>408.25</ele><time>2026-04-04T10:28:28.461Z</time></trkpt><trkpt lat="44.4699699" lon="8.417977"><ele>409.5</ele><time>2026-04-04T10:28:29.461Z</time></trkpt><trkpt lat="44.4700314" lon="8.4177931"><ele>410.75</ele><time>2026-04-04T10:28:30.462Z</time></trkpt><trkpt lat="44.47011" lon="8.4176346"><ele>412.0</ele><time>2026-04-04T10:28:31.462Z</time></trkpt><trkpt lat="44.4702101" lon="8.4175013"><ele>412.0</ele><time>2026-04-04T10:28:32.462Z</time></trkpt><trkpt lat="44.4703507" lon="8.4174356"><ele>412.0</ele><time>2026-04-04T10:28:33.462Z</time></trkpt><trkpt lat="44.4704752" lon="8.417395"><ele>412.0</ele><time>2026-04-04T10:28:34.462Z</time></trkpt><trkpt lat="44.4705969" lon="8.4173697"><ele>412.0</ele><time>2026-04-04T10:28:35.462Z</time></trkpt><trkpt lat="44.4706999" lon="8.4173174"><ele>411.0</ele><time>2026-04-04T10:28:36.462Z</time></trkpt><trkpt lat="44.4707748" lon="8.4172361"><ele>410.0</ele><time>2026-04-04T10:28:37.461Z</time></trkpt><trkpt lat="44.4708364" lon="8.4171254"><ele>409.0</ele><time>2026-04-04T10:28:38.462Z</time></trkpt><trkpt lat="44.4708903" lon="8.4169693"><ele>408.0</ele><time>2026-04-04T10:28:39.461Z</time></trkpt><trkpt lat="44.4709823" lon="8.416858"><ele>407.0</ele><time>2026-04-04T10:28:40.461Z</time></trkpt><trkpt lat="44.4711013" lon="8.4168173"><ele>407.0</ele><time>2026-04-04T10:28:41.461Z</time></trkpt><trkpt lat="44.4712527" lon="8.4168038"><ele>407.0</ele><time>2026-04-04T10:28:42.461Z</time></trkpt><trkpt lat="44.4714162" lon="8.416785"><ele>407.0</ele><time>2026-04-04T10:28:43.461Z</time></trkpt><trkpt lat="44.4715949" lon="8.4167516"><ele>405.66666666666663</ele><time>2026-04-04T10:28:44.462Z</time></trkpt><trkpt lat="44.4717739" lon="8.416703"><ele>404.33333333333337</ele><time>2026-04-04T10:28:45.462Z</time></trkpt><trkpt lat="44.4719374" lon="8.4166546"><ele>403.0</ele><time>2026-04-04T10:28:46.462Z</time></trkpt><trkpt lat="44.4720968" lon="8.4165996"><ele>405.6666666666667</ele><time>2026-04-04T10:28:47.462Z</time></trkpt><trkpt lat="44.4722533" lon="8.4165423"><ele>408.33333333333337</ele><time>2026-04-04T10:28:48.462Z</time></trkpt><trkpt lat="44.4724016" lon="8.4164632"><ele>411.0</ele><time>2026-04-04T10:28:49.462Z</time></trkpt><trkpt lat="44.4725389" lon="8.4163536"><ele>410.33333333333337</ele><time>2026-04-04T10:28:50.462Z</time></trkpt><trkpt lat="44.4726797" lon="8.4162106"><ele>409.6666666666667</ele><time>2026-04-04T10:28:51.462Z</time></trkpt><trkpt lat="44.4728018" lon="8.4160386"><ele>409.0</ele><time>2026-04-04T10:28:52.462Z</time></trkpt><trkpt lat="44.4729028" lon="8.4158378"><ele>409.6666666666667</ele><time>2026-04-04T10:28:53.462Z</time></trkpt><trkpt lat="44.4729872" lon="8.4156488"><ele>410.33333333333337</ele><time>2026-04-04T10:28:54.461Z</time></trkpt><trkpt lat="44.4730642" lon="8.4154691"><ele>411.0</ele><time>2026-04-04T10:28:55.462Z</time></trkpt><trkpt lat="44.4731591" lon="8.4152938"><ele>411.0</ele><time>2026-04-04T10:28:56.462Z</time></trkpt><trkpt lat="44.4732861" lon="8.415131"><ele>411.0</ele><time>2026-04-04T10:28:57.461Z</time></trkpt><trkpt lat="44.4734247" lon="8.4149941"><ele>411.0</ele><time>2026-04-04T10:28:58.462Z</time></trkpt><trkpt lat="44.4735673" lon="8.4148692"><ele>411.0</ele><time>2026-04-04T10:28:59.46Z</time></trkpt><trkpt lat="44.4737215" lon="8.4147529"><ele>411.0</ele><time>2026-04-04T10:29:00.461Z</time></trkpt><trkpt lat="44.4738662" lon="8.4146466"><ele>411.0</ele><time>2026-04-04T10:29:01.462Z</time></trkpt><trkpt lat="44.4740076" lon="8.4145529"><ele>412.66666666666663</ele><time>2026-04-04T10:29:02.462Z</time></trkpt><trkpt lat="44.4741518" lon="8.414469"><ele>414.3333333333333</ele><time>2026-04-04T10:29:03.462Z</time></trkpt><trkpt lat="44.4743088" lon="8.4144023"><ele>416.0</ele><time>2026-04-04T10:29:04.462Z</time></trkpt><trkpt lat="44.4744785" lon="8.4143547"><ele>417.3333333333333</ele><time>2026-04-04T10:29:05.462Z</time></trkpt><trkpt lat="44.4746385" lon="8.4143294"><ele>418.66666666666663</ele><time>2026-04-04T10:29:06.462Z</time></trkpt><trkpt lat="44.4747985" lon="8.414346"><ele>420.0</ele><time>2026-04-04T10:29:07.462Z</time></trkpt><trkpt lat="44.4749463" lon="8.4143915"><ele>420.0</ele><time>2026-04-04T10:29:08.462Z</time></trkpt><trkpt lat="44.4750921" lon="8.4144734"><ele>420.0</ele><time>2026-04-04T10:29:09.462Z</time></trkpt><trkpt lat="44.475238" lon="8.4145532"><ele>420.0</ele><time>2026-04-04T10:29:10.462Z</time></trkpt><trkpt lat="44.4753849" lon="8.41461"><ele>420.5</ele><time>2026-04-04T10:29:11.462Z</time></trkpt><trkpt lat="44.4755265" lon="8.4146379"><ele>421.0</ele><time>2026-04-04T10:29:12.462Z</time></trkpt><trkpt lat="44.4756683" lon="8.4146395"><ele>421.5</ele><time>2026-04-04T10:29:13.462Z</time></trkpt><trkpt lat="44.4758111" lon="8.4146467"><ele>422.0</ele><time>2026-04-04T10:29:14.461Z</time></trkpt><trkpt lat="44.4759385" lon="8.4146688"><ele>422.0</ele><time>2026-04-04T10:29:15.462Z</time></trkpt><trkpt lat="44.4760602" lon="8.41471"><ele>422.0</ele><time>2026-04-04T10:29:16.462Z</time></trkpt><trkpt lat="44.476172" lon="8.4147977"><ele>422.0</ele><time>2026-04-04T10:29:17.462Z</time></trkpt><trkpt lat="44.4762612" lon="8.4149285"><ele>422.0</ele><time>2026-04-04T10:29:18.462Z</time></trkpt><trkpt lat="44.476338" lon="8.4150783"><ele>419.25</ele><time>2026-04-04T10:29:19.462Z</time></trkpt><trkpt lat="44.4764135" lon="8.4151848"><ele>416.5</ele><time>2026-04-04T10:29:20.462Z</time></trkpt><trkpt lat="44.4765226" lon="8.4152601"><ele>413.75</ele><time>2026-04-04T10:29:21.462Z</time></trkpt><trkpt lat="44.4766514" lon="8.4152848"><ele>411.0</ele><time>2026-04-04T10:29:22.462Z</time></trkpt><trkpt lat="44.4767969" lon="8.4152639"><ele>411.0</ele><time>2026-04-04T10:29:23.462Z</time></trkpt><trkpt lat="44.4769195" lon="8.4151983"><ele>411.0</ele><time>2026-04-04T10:29:24.462Z</time></trkpt><trkpt lat="44.4770243" lon="8.415085"><ele>411.0</ele><time>2026-04-04T10:29:25.462Z</time></trkpt><trkpt lat="44.4771257" lon="8.4149338"><ele>411.0</ele><time>2026-04-04T10:29:26.462Z</time></trkpt><trkpt lat="44.4772391" lon="8.4148041"><ele>411.75</ele><time>2026-04-04T10:29:27.462Z</time></trkpt><trkpt lat="44.4773679" lon="8.4147339"><ele>412.5</ele><time>2026-04-04T10:29:28.462Z</time></trkpt><trkpt lat="44.4774937" lon="8.4146716"><ele>413.25</ele><time>2026-04-04T10:29:29.462Z</time></trkpt><trkpt lat="44.4776036" lon="8.4145775"><ele>414.0</ele><time>2026-04-04T10:29:30.462Z</time></trkpt><trkpt lat="44.4776915" lon="8.4144722"><ele>408.33333333333337</ele><time>2026-04-04T10:29:31.463Z</time></trkpt><trkpt lat="44.4778012" lon="8.4143455"><ele>402.6666666666667</ele><time>2026-04-04T10:29:32.462Z</time></trkpt><trkpt lat="44.4779359" lon="8.4142599"><ele>397.0</ele><time>2026-04-04T10:29:33.462Z</time></trkpt><trkpt lat="44.4781154" lon="8.4142624"><ele>397.0</ele><time>2026-04-04T10:29:34.461Z</time></trkpt><trkpt lat="44.4782935" lon="8.4142752"><ele>397.0</ele><time>2026-04-04T10:29:35.462Z</time></trkpt><trkpt lat="44.4784676" lon="8.4142652"><ele>397.0</ele><time>2026-04-04T10:29:36.461Z</time></trkpt><trkpt lat="44.4786368" lon="8.4142477"><ele>395.6666666666667</ele><time>2026-04-04T10:29:37.462Z</time></trkpt><trkpt lat="44.478803" lon="8.4142186"><ele>394.33333333333337</ele><time>2026-04-04T10:29:38.462Z</time></trkpt><trkpt lat="44.4789678" lon="8.4141869"><ele>393.0</ele><time>2026-04-04T10:29:39.462Z</time></trkpt><trkpt lat="44.4791288" lon="8.414147"><ele>393.0</ele><time>2026-04-04T10:29:40.462Z</time></trkpt><trkpt lat="44.4792969" lon="8.4141201"><ele>393.0</ele><time>2026-04-04T10:29:41.461Z</time></trkpt><trkpt lat="44.4794704" lon="8.4141033"><ele>393.0</ele><time>2026-04-04T10:29:42.462Z</time></trkpt><trkpt lat="44.479639" lon="8.4140808"><ele>392.0</ele><time>2026-04-04T10:29:43.463Z</time></trkpt><trkpt lat="44.4798132" lon="8.4140239"><ele>391.0</ele><time>2026-04-04T10:29:44.463Z</time></trkpt><trkpt lat="44.4799825" lon="8.4139575"><ele>390.0</ele><time>2026-04-04T10:29:45.461Z</time></trkpt><trkpt lat="44.4801501" lon="8.4138882"><ele>389.0</ele><time>2026-04-04T10:29:46.463Z</time></trkpt><trkpt lat="44.4803303" lon="8.4138123"><ele>388.0</ele><time>2026-04-04T10:29:47.463Z</time></trkpt><trkpt lat="44.4805083" lon="8.4137403"><ele>387.0</ele><time>2026-04-04T10:29:48.463Z</time></trkpt><trkpt lat="44.4806868" lon="8.4136715"><ele>387.0</ele><time>2026-04-04T10:29:49.462Z</time></trkpt><trkpt lat="44.4808612" lon="8.4136037"><ele>387.0</ele><time>2026-04-04T10:29:50.463Z</time></trkpt><trkpt lat="44.4810307" lon="8.4135312"><ele>387.0</ele><time>2026-04-04T10:29:51.462Z</time></trkpt><trkpt lat="44.4811973" lon="8.4134641"><ele>386.66666666666663</ele><time>2026-04-04T10:29:52.463Z</time></trkpt><trkpt lat="44.4813704" lon="8.4134013"><ele>386.3333333333333</ele><time>2026-04-04T10:29:53.462Z</time></trkpt><trkpt lat="44.4815459" lon="8.4133529"><ele>386.0</ele><time>2026-04-04T10:29:54.463Z</time></trkpt><trkpt lat="44.481731" lon="8.4133245"><ele>386.0</ele><time>2026-04-04T10:29:55.462Z</time></trkpt><trkpt lat="44.4819156" lon="8.4133119"><ele>386.0</ele><time>2026-04-04T10:29:56.463Z</time></trkpt><trkpt lat="44.4821004" lon="8.4133046"><ele>386.0</ele><time>2026-04-04T10:29:57.463Z</time></trkpt><trkpt lat="44.4822853" lon="8.4133013"><ele>383.3333333333333</ele><time>2026-04-04T10:29:58.463Z</time></trkpt><trkpt lat="44.4824669" lon="8.4132921"><ele>380.66666666666663</ele><time>2026-04-04T10:29:59.462Z</time></trkpt><trkpt lat="44.482642" lon="8.4132882"><ele>378.0</ele><time>2026-04-04T10:30:00.463Z</time></trkpt><trkpt lat="44.4828144" lon="8.4132798"><ele>376.3333333333333</ele><time>2026-04-04T10:30:01.462Z</time></trkpt><trkpt lat="44.482978" lon="8.4132748"><ele>374.66666666666663</ele><time>2026-04-04T10:30:02.462Z</time></trkpt><trkpt lat="44.4831493" lon="8.4132522"><ele>373.0</ele><time>2026-04-04T10:30:03.463Z</time></trkpt><trkpt lat="44.4833205" lon="8.4132203"><ele>373.0</ele><time>2026-04-04T10:30:04.463Z</time></trkpt><trkpt lat="44.4834946" lon="8.4131817"><ele>373.0</ele><time>2026-04-04T10:30:05.463Z</time></trkpt><trkpt lat="44.4836677" lon="8.4131415"><ele>373.0</ele><time>2026-04-04T10:30:06.462Z</time></trkpt><trkpt lat="44.4838446" lon="8.4130885"><ele>373.66666666666663</ele><time>2026-04-04T10:30:07.462Z</time></trkpt><trkpt lat="44.4840198" lon="8.4130249"><ele>374.3333333333333</ele><time>2026-04-04T10:30:08.463Z</time></trkpt><trkpt lat="44.4841953" lon="8.4129592"><ele>375.0</ele><time>2026-04-04T10:30:09.462Z</time></trkpt><trkpt lat="44.4843717" lon="8.4128981"><ele>372.3333333333333</ele><time>2026-04-04T10:30:10.462Z</time></trkpt><trkpt lat="44.484543" lon="8.4128437"><ele>369.66666666666663</ele><time>2026-04-04T10:30:11.463Z</time></trkpt><trkpt lat="44.4847125" lon="8.412789"><ele>367.0</ele><time>2026-04-04T10:30:12.463Z</time></trkpt><trkpt lat="44.484877" lon="8.4127395"><ele>367.0</ele><time>2026-04-04T10:30:13.463Z</time></trkpt><trkpt lat="44.4850304" lon="8.4126853"><ele>367.0</ele><time>2026-04-04T10:30:14.463Z</time></trkpt><trkpt lat="44.4851719" lon="8.4126385"><ele>367.0</ele><time>2026-04-04T10:30:15.463Z</time></trkpt><trkpt lat="44.4852879" lon="8.4125993"><ele>367.0</ele><time>2026-04-04T10:30:16.462Z</time></trkpt><trkpt lat="44.4853977" lon="8.4125587"><ele>367.6</ele><time>2026-04-04T10:30:17.463Z</time></trkpt><trkpt lat="44.485496" lon="8.4125206"><ele>368.20000000000005</ele><time>2026-04-04T10:30:18.463Z</time></trkpt><trkpt lat="44.4855872" lon="8.4124705"><ele>368.8</ele><time>2026-04-04T10:30:19.463Z</time></trkpt><trkpt lat="44.4856747" lon="8.4123855"><ele>369.4</ele><time>2026-04-04T10:30:20.463Z</time></trkpt><trkpt lat="44.4857185" lon="8.4122636"><ele>370.0</ele><time>2026-04-04T10:30:21.463Z</time></trkpt><trkpt lat="44.4857304" lon="8.4121205"><ele>367.6</ele><time>2026-04-04T10:30:22.463Z</time></trkpt><trkpt lat="44.4856991" lon="8.4119721"><ele>365.2</ele><time>2026-04-04T10:30:23.463Z</time></trkpt><trkpt lat="44.4856573" lon="8.4118196"><ele>362.79999999999995</ele><time>2026-04-04T10:30:24.462Z</time></trkpt><trkpt lat="44.4856385" lon="8.4116826"><ele>360.4</ele><time>2026-04-04T10:30:25.463Z</time></trkpt><trkpt lat="44.485652" lon="8.4115908"><ele>358.0</ele><time>2026-04-04T10:30:26.463Z</time></trkpt><trkpt lat="44.4857291" lon="8.4115427"><ele>358.0</ele><time>2026-04-04T10:30:27.463Z</time></trkpt><trkpt lat="44.4858757" lon="8.4115709"><ele>358.0</ele><time>2026-04-04T10:30:28.462Z</time></trkpt><trkpt lat="44.4859966" lon="8.4115759"><ele>358.0</ele><time>2026-04-04T10:30:29.462Z</time></trkpt><trkpt lat="44.4861314" lon="8.4115297"><ele>358.0</ele><time>2026-04-04T10:30:30.463Z</time></trkpt><trkpt lat="44.4862964" lon="8.4114972"><ele>357.66666666666663</ele><time>2026-04-04T10:30:31.463Z</time></trkpt><trkpt lat="44.4864764" lon="8.41148"><ele>357.3333333333333</ele><time>2026-04-04T10:30:32.463Z</time></trkpt><trkpt lat="44.4866369" lon="8.4114693"><ele>357.0</ele><time>2026-04-04T10:30:33.464Z</time></trkpt><trkpt lat="44.4867779" lon="8.4114413"><ele>357.0</ele><time>2026-04-04T10:30:34.463Z</time></trkpt><trkpt lat="44.4868969" lon="8.4113941"><ele>357.0</ele><time>2026-04-04T10:30:35.462Z</time></trkpt><trkpt lat="44.4870161" lon="8.411355"><ele>357.0</ele><time>2026-04-04T10:30:36.463Z</time></trkpt><trkpt lat="44.4871352" lon="8.4113205"><ele>357.0</ele><time>2026-04-04T10:30:37.463Z</time></trkpt><trkpt lat="44.4872608" lon="8.4112938"><ele>355.0</ele><time>2026-04-04T10:30:38.463Z</time></trkpt><trkpt lat="44.4873902" lon="8.4112434"><ele>353.0</ele><time>2026-04-04T10:30:39.463Z</time></trkpt><trkpt lat="44.4875174" lon="8.411187"><ele>351.0</ele><time>2026-04-04T10:30:40.463Z</time></trkpt><trkpt lat="44.4876489" lon="8.4111369"><ele>349.0</ele><time>2026-04-04T10:30:41.462Z</time></trkpt><trkpt lat="44.4877706" lon="8.4111002"><ele>349.0</ele><time>2026-04-04T10:30:42.463Z</time></trkpt><trkpt lat="44.487888" lon="8.4110492"><ele>349.0</ele><time>2026-04-04T10:30:43.463Z</time></trkpt><trkpt lat="44.4880187" lon="8.4110117"><ele>349.0</ele><time>2026-04-04T10:30:44.464Z</time></trkpt><trkpt lat="44.4881384" lon="8.4109783"><ele>349.0</ele><time>2026-04-04T10:30:45.464Z</time></trkpt><trkpt lat="44.4882478" lon="8.4109442"><ele>349.25</ele><time>2026-04-04T10:30:46.463Z</time></trkpt><trkpt lat="44.4883545" lon="8.4109158"><ele>349.5</ele><time>2026-04-04T10:30:47.464Z</time></trkpt><trkpt lat="44.488485" lon="8.4109047"><ele>349.75</ele><time>2026-04-04T10:30:48.464Z</time></trkpt><trkpt lat="44.4886258" lon="8.4109603"><ele>350.0</ele><time>2026-04-04T10:30:49.464Z</time></trkpt><trkpt lat="44.4887382" lon="8.4109936"><ele>350.2</ele><time>2026-04-04T10:30:50.464Z</time></trkpt><trkpt lat="44.4888222" lon="8.4110413"><ele>350.4</ele><time>2026-04-04T10:30:51.464Z</time></trkpt><trkpt lat="44.4888895" lon="8.411089"><ele>350.6</ele><time>2026-04-04T10:30:52.464Z</time></trkpt><trkpt lat="44.4889809" lon="8.411117"><ele>350.8</ele><time>2026-04-04T10:30:53.464Z</time></trkpt><trkpt lat="44.4890802" lon="8.4111474"><ele>351.0</ele><time>2026-04-04T10:30:54.464Z</time></trkpt><trkpt lat="44.4891848" lon="8.4111844"><ele>351.0</ele><time>2026-04-04T10:30:55.463Z</time></trkpt><trkpt lat="44.4892909" lon="8.4112291"><ele>351.0</ele><time>2026-04-04T10:30:56.464Z</time></trkpt><trkpt lat="44.4893821" lon="8.4112683"><ele>351.0</ele><time>2026-04-04T10:30:57.464Z</time></trkpt><trkpt lat="44.4894504" lon="8.4113189"><ele>351.0</ele><time>2026-04-04T10:30:58.464Z</time></trkpt><trkpt lat="44.4895219" lon="8.4113962"><ele>351.0</ele><time>2026-04-04T10:30:59.463Z</time></trkpt><trkpt lat="44.489569" lon="8.4114726"><ele>351.0</ele><time>2026-04-04T10:31:00.463Z</time></trkpt><trkpt lat="44.4896323" lon="8.4116054"><ele>350.8333333333333</ele><time>2026-04-04T10:31:02.464Z</time></trkpt><trkpt lat="44.489685" lon="8.4116776"><ele>350.6666666666667</ele><time>2026-04-04T10:31:03.463Z</time></trkpt><trkpt lat="44.4897368" lon="8.4117492"><ele>350.5</ele><time>2026-04-04T10:31:04.464Z</time></trkpt><trkpt lat="44.4897869" lon="8.4118287"><ele>350.33333333333337</ele><time>2026-04-04T10:31:05.463Z</time></trkpt><trkpt lat="44.4898376" lon="8.4119101"><ele>350.1666666666667</ele><time>2026-04-04T10:31:06.464Z</time></trkpt><trkpt lat="44.4898906" lon="8.4120001"><ele>350.0</ele><time>2026-04-04T10:31:07.464Z</time></trkpt><trkpt lat="44.4899427" lon="8.4121011"><ele>349.6666666666667</ele><time>2026-04-04T10:31:08.463Z</time></trkpt><trkpt lat="44.4899952" lon="8.4122053"><ele>349.33333333333337</ele><time>2026-04-04T10:31:09.464Z</time></trkpt><trkpt lat="44.4900475" lon="8.4123125"><ele>349.0</ele><time>2026-04-04T10:31:10.464Z</time></trkpt><trkpt lat="44.4900972" lon="8.4124179"><ele>348.6666666666667</ele><time>2026-04-04T10:31:11.464Z</time></trkpt><trkpt lat="44.4901446" lon="8.4125221"><ele>348.3333333333333</ele><time>2026-04-04T10:31:12.464Z</time></trkpt><trkpt lat="44.4901873" lon="8.412615"><ele>348.0</ele><time>2026-04-04T10:31:13.464Z</time></trkpt><trkpt lat="44.4902216" lon="8.4126997"><ele>348.0</ele><time>2026-04-04T10:31:14.464Z</time></trkpt><trkpt lat="44.4902563" lon="8.4127847"><ele>348.0</ele><time>2026-04-04T10:31:15.464Z</time></trkpt><trkpt lat="44.4902872" lon="8.4128701"><ele>348.0</ele><time>2026-04-04T10:31:16.464Z</time></trkpt><trkpt lat="44.4903221" lon="8.4129663"><ele>348.0</ele><time>2026-04-04T10:31:17.464Z</time></trkpt><trkpt lat="44.4903606" lon="8.4130695"><ele>348.0</ele><time>2026-04-04T10:31:18.464Z</time></trkpt><trkpt lat="44.4904029" lon="8.4131692"><ele>348.0</ele><time>2026-04-04T10:31:19.464Z</time></trkpt><trkpt lat="44.4904497" lon="8.4132672"><ele>347.59999999999997</ele><time>2026-04-04T10:31:20.464Z</time></trkpt><trkpt lat="44.4904991" lon="8.4133552"><ele>347.2</ele><time>2026-04-04T10:31:21.464Z</time></trkpt><trkpt lat="44.4905618" lon="8.4134385"><ele>346.8</ele><time>2026-04-04T10:31:22.464Z</time></trkpt><trkpt lat="44.4906437" lon="8.4135262"><ele>346.4</ele><time>2026-04-04T10:31:23.463Z</time></trkpt><trkpt lat="44.4907422" lon="8.4135975"><ele>346.0</ele><time>2026-04-04T10:31:24.463Z</time></trkpt><trkpt lat="44.4908347" lon="8.4136557"><ele>346.0</ele><time>2026-04-04T10:31:25.463Z</time></trkpt><trkpt lat="44.490937" lon="8.4137082"><ele>346.0</ele><time>2026-04-04T10:31:26.464Z</time></trkpt><trkpt lat="44.491036" lon="8.413774"><ele>346.0</ele><time>2026-04-04T10:31:27.464Z</time></trkpt><trkpt lat="44.4911328" lon="8.4138472"><ele>346.0</ele><time>2026-04-04T10:31:28.464Z</time></trkpt><trkpt lat="44.4912291" lon="8.4139397"><ele>346.0</ele><time>2026-04-04T10:31:29.464Z</time></trkpt><trkpt lat="44.4913133" lon="8.4140457"><ele>345.8</ele><time>2026-04-04T10:31:30.464Z</time></trkpt><trkpt lat="44.4913778" lon="8.4141484"><ele>345.6</ele><time>2026-04-04T10:31:31.464Z</time></trkpt><trkpt lat="44.4914221" lon="8.4142398"><ele>345.4</ele><time>2026-04-04T10:31:32.464Z</time></trkpt><trkpt lat="44.4914661" lon="8.4143198"><ele>345.2</ele><time>2026-04-04T10:31:33.464Z</time></trkpt><trkpt lat="44.4915556" lon="8.4144216"><ele>345.0</ele><time>2026-04-04T10:31:34.464Z</time></trkpt><trkpt lat="44.4916617" lon="8.4145224"><ele>345.0</ele><time>2026-04-04T10:31:35.463Z</time></trkpt><trkpt lat="44.4917906" lon="8.4146086"><ele>345.0</ele><time>2026-04-04T10:31:36.464Z</time></trkpt><trkpt lat="44.491926" lon="8.4146918"><ele>345.0</ele><time>2026-04-04T10:31:37.463Z</time></trkpt><trkpt lat="44.4920577" lon="8.4147685"><ele>345.0</ele><time>2026-04-04T10:31:38.464Z</time></trkpt><trkpt lat="44.4921909" lon="8.414838"><ele>345.5</ele><time>2026-04-04T10:31:39.465Z</time></trkpt><trkpt lat="44.4923289" lon="8.4149194"><ele>346.0</ele><time>2026-04-04T10:31:40.465Z</time></trkpt><trkpt lat="44.4924631" lon="8.4150047"><ele>346.5</ele><time>2026-04-04T10:31:41.464Z</time></trkpt><trkpt lat="44.492601" lon="8.4150816"><ele>347.0</ele><time>2026-04-04T10:31:42.465Z</time></trkpt><trkpt lat="44.4927386" lon="8.4151499"><ele>347.0</ele><time>2026-04-04T10:31:43.465Z</time></trkpt><trkpt lat="44.4928793" lon="8.4152121"><ele>347.0</ele><time>2026-04-04T10:31:44.464Z</time></trkpt><trkpt lat="44.4930216" lon="8.4152716"><ele>347.0</ele><time>2026-04-04T10:31:45.465Z</time></trkpt><trkpt lat="44.4931581" lon="8.4153308"><ele>347.0</ele><time>2026-04-04T10:31:46.465Z</time></trkpt><trkpt lat="44.4933117" lon="8.4153738"><ele>346.33333333333337</ele><time>2026-04-04T10:31:47.465Z</time></trkpt><trkpt lat="44.4934721" lon="8.4154205"><ele>345.6666666666667</ele><time>2026-04-04T10:31:48.464Z</time></trkpt><trkpt lat="44.493644" lon="8.4154779"><ele>345.0</ele><time>2026-04-04T10:31:49.465Z</time></trkpt><trkpt lat="44.4938225" lon="8.4155497"><ele>344.3333333333333</ele><time>2026-04-04T10:31:50.464Z</time></trkpt><trkpt lat="44.4940066" lon="8.4156361"><ele>343.66666666666663</ele><time>2026-04-04T10:31:51.464Z</time></trkpt><trkpt lat="44.4941852" lon="8.4157545"><ele>343.0</ele><time>2026-04-04T10:31:52.465Z</time></trkpt><trkpt lat="44.4943585" lon="8.4159002"><ele>343.0</ele><time>2026-04-04T10:31:53.464Z</time></trkpt><trkpt lat="44.494534" lon="8.4160517"><ele>343.0</ele><time>2026-04-04T10:31:54.464Z</time></trkpt><trkpt lat="44.494711" lon="8.4161967"><ele>343.0</ele><time>2026-04-04T10:31:55.464Z</time></trkpt><trkpt lat="44.494887" lon="8.41634"><ele>343.0</ele><time>2026-04-04T10:31:56.464Z</time></trkpt><trkpt lat="44.4950651" lon="8.4164853"><ele>343.0</ele><time>2026-04-04T10:31:57.464Z</time></trkpt><trkpt lat="44.4952446" lon="8.4166349"><ele>343.0</ele><time>2026-04-04T10:31:58.463Z</time></trkpt><trkpt lat="44.4954274" lon="8.4167934"><ele>344.5</ele><time>2026-04-04T10:31:59.465Z</time></trkpt><trkpt lat="44.4956261" lon="8.4169657"><ele>346.0</ele><time>2026-04-04T10:32:00.465Z</time></trkpt><trkpt lat="44.4958311" lon="8.4171376"><ele>344.5</ele><time>2026-04-04T10:32:01.465Z</time></trkpt><trkpt lat="44.4960407" lon="8.4173122"><ele>343.0</ele><time>2026-04-04T10:32:02.465Z</time></trkpt><trkpt lat="44.4962479" lon="8.4174891"><ele>345.0</ele><time>2026-04-04T10:32:03.464Z</time></trkpt><trkpt lat="44.496448" lon="8.4176652"><ele>347.0</ele><time>2026-04-04T10:32:04.465Z</time></trkpt><trkpt lat="44.4966479" lon="8.4178439"><ele>346.0</ele><time>2026-04-04T10:32:05.464Z</time></trkpt><trkpt lat="44.4968372" lon="8.4180172"><ele>345.0</ele><time>2026-04-04T10:32:06.465Z</time></trkpt><trkpt lat="44.4970166" lon="8.418184"><ele>344.0</ele><time>2026-04-04T10:32:07.464Z</time></trkpt><trkpt lat="44.4971914" lon="8.4183395"><ele>347.33333333333337</ele><time>2026-04-04T10:32:08.465Z</time></trkpt><trkpt lat="44.4973586" lon="8.4184927"><ele>350.6666666666667</ele><time>2026-04-04T10:32:09.464Z</time></trkpt><trkpt lat="44.497524" lon="8.4186422"><ele>354.0</ele><time>2026-04-04T10:32:10.464Z</time></trkpt><trkpt lat="44.4976966" lon="8.418788"><ele>352.3333333333333</ele><time>2026-04-04T10:32:11.464Z</time></trkpt><trkpt lat="44.4978782" lon="8.4189396"><ele>350.66666666666663</ele><time>2026-04-04T10:32:12.465Z</time></trkpt><trkpt lat="44.4980585" lon="8.4190911"><ele>349.0</ele><time>2026-04-04T10:32:13.464Z</time></trkpt><trkpt lat="44.4982454" lon="8.4192489"><ele>349.0</ele><time>2026-04-04T10:32:14.465Z</time></trkpt><trkpt lat="44.4984202" lon="8.4194153"><ele>349.0</ele><time>2026-04-04T10:32:15.465Z</time></trkpt><trkpt lat="44.4986004" lon="8.4195776"><ele>349.0</ele><time>2026-04-04T10:32:16.465Z</time></trkpt><trkpt lat="44.4987835" lon="8.4197365"><ele>346.66666666666663</ele><time>2026-04-04T10:32:17.465Z</time></trkpt><trkpt lat="44.498965" lon="8.4198893"><ele>344.3333333333333</ele><time>2026-04-04T10:32:18.465Z</time></trkpt><trkpt lat="44.4991392" lon="8.4200228"><ele>342.0</ele><time>2026-04-04T10:32:19.465Z</time></trkpt><trkpt lat="44.4992968" lon="8.420146"><ele>342.0</ele><time>2026-04-04T10:32:20.465Z</time></trkpt><trkpt lat="44.499446" lon="8.4202638"><ele>342.0</ele><time>2026-04-04T10:32:21.465Z</time></trkpt><trkpt lat="44.4995794" lon="8.4203792"><ele>342.0</ele><time>2026-04-04T10:32:22.465Z</time></trkpt><trkpt lat="44.4997046" lon="8.4205019"><ele>344.3333333333333</ele><time>2026-04-04T10:32:23.465Z</time></trkpt><trkpt lat="44.4998046" lon="8.4206641"><ele>346.66666666666663</ele><time>2026-04-04T10:32:24.465Z</time></trkpt><trkpt lat="44.4998673" lon="8.4208519"><ele>349.0</ele><time>2026-04-04T10:32:25.465Z</time></trkpt><trkpt lat="44.4998857" lon="8.4210858"><ele>348.3333333333333</ele><time>2026-04-04T10:32:26.465Z</time></trkpt><trkpt lat="44.4998788" lon="8.4213228"><ele>347.6666666666667</ele><time>2026-04-04T10:32:27.465Z</time></trkpt><trkpt lat="44.4998177" lon="8.4215697"><ele>347.0</ele><time>2026-04-04T10:32:28.466Z</time></trkpt><trkpt lat="44.4997927" lon="8.4218057"><ele>347.0</ele><time>2026-04-04T10:32:29.465Z</time></trkpt><trkpt lat="44.4997619" lon="8.4220342"><ele>347.0</ele><time>2026-04-04T10:32:30.464Z</time></trkpt><trkpt lat="44.499706" lon="8.4222613"><ele>347.0</ele><time>2026-04-04T10:32:31.465Z</time></trkpt><trkpt lat="44.4996327" lon="8.4224655"><ele>344.0</ele><time>2026-04-04T10:32:32.465Z</time></trkpt><trkpt lat="44.4995497" lon="8.4226548"><ele>341.0</ele><time>2026-04-04T10:32:33.465Z</time></trkpt><trkpt lat="44.499484" lon="8.4228539"><ele>338.0</ele><time>2026-04-04T10:32:34.465Z</time></trkpt><trkpt lat="44.4994319" lon="8.4230635"><ele>337.6666666666667</ele><time>2026-04-04T10:32:35.465Z</time></trkpt><trkpt lat="44.4994061" lon="8.4232857"><ele>337.3333333333333</ele><time>2026-04-04T10:32:36.465Z</time></trkpt><trkpt lat="44.4994066" lon="8.4235241"><ele>337.0</ele><time>2026-04-04T10:32:37.465Z</time></trkpt><trkpt lat="44.4994412" lon="8.423757"><ele>337.0</ele><time>2026-04-04T10:32:38.465Z</time></trkpt><trkpt lat="44.4994959" lon="8.4239867"><ele>337.0</ele><time>2026-04-04T10:32:39.465Z</time></trkpt><trkpt lat="44.4995564" lon="8.4242068"><ele>337.0</ele><time>2026-04-04T10:32:40.465Z</time></trkpt><trkpt lat="44.4996363" lon="8.424406"><ele>337.66666666666663</ele><time>2026-04-04T10:32:41.464Z</time></trkpt><trkpt lat="44.499732" lon="8.4245857"><ele>338.3333333333333</ele><time>2026-04-04T10:32:42.465Z</time></trkpt><trkpt lat="44.4998611" lon="8.4247515"><ele>339.0</ele><time>2026-04-04T10:32:43.466Z</time></trkpt><trkpt lat="44.5000299" lon="8.4249102"><ele>337.3333333333333</ele><time>2026-04-04T10:32:44.466Z</time></trkpt><trkpt lat="44.5002076" lon="8.4250714"><ele>335.66666666666663</ele><time>2026-04-04T10:32:45.466Z</time></trkpt><trkpt lat="44.5003854" lon="8.4252366"><ele>334.0</ele><time>2026-04-04T10:32:46.466Z</time></trkpt><trkpt lat="44.5005581" lon="8.4254108"><ele>335.66666666666663</ele><time>2026-04-04T10:32:47.464Z</time></trkpt><trkpt lat="44.5007218" lon="8.4255926"><ele>337.3333333333333</ele><time>2026-04-04T10:32:48.465Z</time></trkpt><trkpt lat="44.5008876" lon="8.4257805"><ele>339.0</ele><time>2026-04-04T10:32:49.466Z</time></trkpt><trkpt lat="44.501053" lon="8.4259605"><ele>339.0</ele><time>2026-04-04T10:32:50.466Z</time></trkpt><trkpt lat="44.5012246" lon="8.4261352"><ele>339.0</ele><time>2026-04-04T10:32:51.465Z</time></trkpt><trkpt lat="44.5013927" lon="8.4263158"><ele>339.0</ele><time>2026-04-04T10:32:52.465Z</time></trkpt><trkpt lat="44.5015592" lon="8.4264946"><ele>341.0</ele><time>2026-04-04T10:32:53.465Z</time></trkpt><trkpt lat="44.501714" lon="8.4266756"><ele>343.0</ele><time>2026-04-04T10:32:54.464Z</time></trkpt><trkpt lat="44.5018658" lon="8.4268501"><ele>345.0</ele><time>2026-04-04T10:32:55.465Z</time></trkpt><trkpt lat="44.5020138" lon="8.4270106"><ele>342.6666666666667</ele><time>2026-04-04T10:32:56.465Z</time></trkpt><trkpt lat="44.5021471" lon="8.4271635"><ele>340.33333333333337</ele><time>2026-04-04T10:32:57.466Z</time></trkpt><trkpt lat="44.5023011" lon="8.4272968"><ele>338.0</ele><time>2026-04-04T10:32:58.464Z</time></trkpt><trkpt lat="44.5024627" lon="8.4273507"><ele>338.0</ele><time>2026-04-04T10:32:59.466Z</time></trkpt><trkpt lat="44.5026166" lon="8.4273646"><ele>338.0</ele><time>2026-04-04T10:33:00.466Z</time></trkpt><trkpt lat="44.5027534" lon="8.4273484"><ele>338.0</ele><time>2026-04-04T10:33:01.466Z</time></trkpt><trkpt lat="44.5028735" lon="8.4273598"><ele>338.0</ele><time>2026-04-04T10:33:02.466Z</time></trkpt><trkpt lat="44.5029436" lon="8.4274331"><ele>339.75</ele><time>2026-04-04T10:33:03.466Z</time></trkpt><trkpt lat="44.5030018" lon="8.4275684"><ele>341.5</ele><time>2026-04-04T10:33:04.466Z</time></trkpt><trkpt lat="44.503033" lon="8.4277478"><ele>343.25</ele><time>2026-04-04T10:33:05.465Z</time></trkpt><trkpt lat="44.5030368" lon="8.4279305"><ele>345.0</ele><time>2026-04-04T10:33:06.466Z</time></trkpt><trkpt lat="44.5030549" lon="8.4281334"><ele>345.6666666666667</ele><time>2026-04-04T10:33:07.466Z</time></trkpt><trkpt lat="44.5031089" lon="8.428355"><ele>346.33333333333337</ele><time>2026-04-04T10:33:08.466Z</time></trkpt><trkpt lat="44.5031827" lon="8.4285641"><ele>347.0</ele><time>2026-04-04T10:33:09.466Z</time></trkpt><trkpt lat="44.5033024" lon="8.4287636"><ele>346.6666666666667</ele><time>2026-04-04T10:33:10.466Z</time></trkpt><trkpt lat="44.5033932" lon="8.4289944"><ele>346.3333333333333</ele><time>2026-04-04T10:33:11.465Z</time></trkpt><trkpt lat="44.503454" lon="8.4292223"><ele>346.0</ele><time>2026-04-04T10:33:12.466Z</time></trkpt><trkpt lat="44.5034816" lon="8.4294516"><ele>345.66666666666663</ele><time>2026-04-04T10:33:13.466Z</time></trkpt><trkpt lat="44.5034789" lon="8.4296761"><ele>345.3333333333333</ele><time>2026-04-04T10:33:14.466Z</time></trkpt><trkpt lat="44.503449" lon="8.429937"><ele>345.0</ele><time>2026-04-04T10:33:15.466Z</time></trkpt><trkpt lat="44.5033986" lon="8.4301951"><ele>345.0</ele><time>2026-04-04T10:33:16.466Z</time></trkpt><trkpt lat="44.5033355" lon="8.4304598"><ele>345.0</ele><time>2026-04-04T10:33:17.465Z</time></trkpt><trkpt lat="44.5032752" lon="8.4307214"><ele>345.0</ele><time>2026-04-04T10:33:18.465Z</time></trkpt><trkpt lat="44.5032218" lon="8.4309876"><ele>345.3333333333333</ele><time>2026-04-04T10:33:19.466Z</time></trkpt><trkpt lat="44.5031677" lon="8.4312135"><ele>345.66666666666663</ele><time>2026-04-04T10:33:20.466Z</time></trkpt><trkpt lat="44.5031125" lon="8.4314194"><ele>346.0</ele><time>2026-04-04T10:33:21.466Z</time></trkpt><trkpt lat="44.5030678" lon="8.4316187"><ele>345.5</ele><time>2026-04-04T10:33:22.465Z</time></trkpt><trkpt lat="44.5030431" lon="8.4318158"><ele>345.0</ele><time>2026-04-04T10:33:23.466Z</time></trkpt><trkpt lat="44.5030363" lon="8.4320038"><ele>344.5</ele><time>2026-04-04T10:33:24.466Z</time></trkpt><trkpt lat="44.5030444" lon="8.4321721"><ele>344.0</ele><time>2026-04-04T10:33:25.466Z</time></trkpt><trkpt lat="44.5030769" lon="8.4323403"><ele>344.0</ele><time>2026-04-04T10:33:26.466Z</time></trkpt><trkpt lat="44.5031286" lon="8.4324981"><ele>344.0</ele><time>2026-04-04T10:33:27.466Z</time></trkpt><trkpt lat="44.50323" lon="8.4326974"><ele>344.0</ele><time>2026-04-04T10:33:28.466Z</time></trkpt><trkpt lat="44.503338" lon="8.432924"><ele>341.6666666666667</ele><time>2026-04-04T10:33:29.466Z</time></trkpt><trkpt lat="44.5034354" lon="8.4331488"><ele>339.3333333333333</ele><time>2026-04-04T10:33:30.466Z</time></trkpt><trkpt lat="44.5035312" lon="8.4333421"><ele>337.0</ele><time>2026-04-04T10:33:31.465Z</time></trkpt><trkpt lat="44.5036393" lon="8.4334724"><ele>340.0</ele><time>2026-04-04T10:33:32.466Z</time></trkpt><trkpt lat="44.5037611" lon="8.4336037"><ele>343.0</ele><time>2026-04-04T10:33:33.466Z</time></trkpt><trkpt lat="44.5038485" lon="8.433749"><ele>346.0</ele><time>2026-04-04T10:33:34.466Z</time></trkpt><trkpt lat="44.5038974" lon="8.4339344"><ele>349.0</ele><time>2026-04-04T10:33:35.466Z</time></trkpt><trkpt lat="44.5039137" lon="8.4341201"><ele>349.0</ele><time>2026-04-04T10:33:36.465Z</time></trkpt><trkpt lat="44.5038973" lon="8.4343023"><ele>349.0</ele><time>2026-04-04T10:33:37.465Z</time></trkpt><trkpt lat="44.5038892" lon="8.4344627"><ele>349.0</ele><time>2026-04-04T10:33:38.466Z</time></trkpt><trkpt lat="44.5039025" lon="8.4345773"><ele>349.0</ele><time>2026-04-04T10:33:39.465Z</time></trkpt><trkpt lat="44.5039695" lon="8.4346932"><ele>349.0</ele><time>2026-04-04T10:33:40.466Z</time></trkpt><trkpt lat="44.5040838" lon="8.4347782"><ele>343.66666666666663</ele><time>2026-04-04T10:33:41.466Z</time></trkpt><trkpt lat="44.5042321" lon="8.4348642"><ele>338.3333333333333</ele><time>2026-04-04T10:33:42.466Z</time></trkpt><trkpt lat="44.5043674" lon="8.4349605"><ele>333.0</ele><time>2026-04-04T10:33:43.466Z</time></trkpt><trkpt lat="44.5044968" lon="8.4350447"><ele>333.3333333333333</ele><time>2026-04-04T10:33:44.466Z</time></trkpt><trkpt lat="44.5046376" lon="8.4350884"><ele>333.66666666666663</ele><time>2026-04-04T10:33:45.465Z</time></trkpt><trkpt lat="44.5048228" lon="8.4350781"><ele>334.0</ele><time>2026-04-04T10:33:46.466Z</time></trkpt><trkpt lat="44.5049901" lon="8.4350498"><ele>334.0</ele><time>2026-04-04T10:33:47.466Z</time></trkpt><trkpt lat="44.5051711" lon="8.4350331"><ele>334.0</ele><time>2026-04-04T10:33:48.466Z</time></trkpt><trkpt lat="44.5053606" lon="8.4350636"><ele>334.0</ele><time>2026-04-04T10:33:49.467Z</time></trkpt><trkpt lat="44.5055345" lon="8.4351836"><ele>335.0</ele><time>2026-04-04T10:33:50.466Z</time></trkpt><trkpt lat="44.5056825" lon="8.4353258"><ele>336.0</ele><time>2026-04-04T10:33:51.466Z</time></trkpt><trkpt lat="44.5057998" lon="8.435458"><ele>337.0</ele><time>2026-04-04T10:33:52.466Z</time></trkpt><trkpt lat="44.5059256" lon="8.4355673"><ele>334.66666666666663</ele><time>2026-04-04T10:33:53.466Z</time></trkpt><trkpt lat="44.5060754" lon="8.435625"><ele>332.3333333333333</ele><time>2026-04-04T10:33:54.466Z</time></trkpt><trkpt lat="44.506247" lon="8.4356151"><ele>330.0</ele><time>2026-04-04T10:33:55.466Z</time></trkpt><trkpt lat="44.5064363" lon="8.4356113"><ele>328.3333333333333</ele><time>2026-04-04T10:33:56.466Z</time></trkpt><trkpt lat="44.5066242" lon="8.4356491"><ele>326.66666666666663</ele><time>2026-04-04T10:33:57.466Z</time></trkpt><trkpt lat="44.5067795" lon="8.4357776"><ele>325.0</ele><time>2026-04-04T10:33:58.466Z</time></trkpt><trkpt lat="44.5069163" lon="8.4358987"><ele>325.0</ele><time>2026-04-04T10:33:59.466Z</time></trkpt><trkpt lat="44.5070378" lon="8.4360152"><ele>325.0</ele><time>2026-04-04T10:34:00.466Z</time></trkpt><trkpt lat="44.5071732" lon="8.4360836"><ele>325.0</ele><time>2026-04-04T10:34:01.466Z</time></trkpt><trkpt lat="44.5073397" lon="8.4360954"><ele>326.0</ele><time>2026-04-04T10:34:02.466Z</time></trkpt><trkpt lat="44.5075272" lon="8.4360727"><ele>327.0</ele><time>2026-04-04T10:34:03.467Z</time></trkpt><trkpt lat="44.5077196" lon="8.4360089"><ele>328.0</ele><time>2026-04-04T10:34:04.467Z</time></trkpt><trkpt lat="44.5079274" lon="8.4359928"><ele>328.0</ele><time>2026-04-04T10:34:05.467Z</time></trkpt><trkpt lat="44.5081495" lon="8.4359949"><ele>328.0</ele><time>2026-04-04T10:34:06.466Z</time></trkpt><trkpt lat="44.5083625" lon="8.4360037"><ele>328.0</ele><time>2026-04-04T10:34:07.467Z</time></trkpt><trkpt lat="44.5085567" lon="8.4360136"><ele>328.0</ele><time>2026-04-04T10:34:08.467Z</time></trkpt><trkpt lat="44.5087286" lon="8.4360171"><ele>328.0</ele><time>2026-04-04T10:34:09.466Z</time></trkpt><trkpt lat="44.5088874" lon="8.436028"><ele>328.0</ele><time>2026-04-04T10:34:10.466Z</time></trkpt><trkpt lat="44.5090471" lon="8.4360676"><ele>328.0</ele><time>2026-04-04T10:34:11.466Z</time></trkpt><trkpt lat="44.5092153" lon="8.4361785"><ele>328.0</ele><time>2026-04-04T10:34:12.467Z</time></trkpt><trkpt lat="44.5093664" lon="8.4363894"><ele>328.0</ele><time>2026-04-04T10:34:13.467Z</time></trkpt><trkpt lat="44.5095011" lon="8.4365974"><ele>327.66666666666663</ele><time>2026-04-04T10:34:14.467Z</time></trkpt><trkpt lat="44.5096197" lon="8.4367872"><ele>327.3333333333333</ele><time>2026-04-04T10:34:15.465Z</time></trkpt><trkpt lat="44.5097547" lon="8.4369485"><ele>327.0</ele><time>2026-04-04T10:34:16.466Z</time></trkpt><trkpt lat="44.5099023" lon="8.437109"><ele>325.3333333333333</ele><time>2026-04-04T10:34:17.467Z</time></trkpt><trkpt lat="44.5100484" lon="8.4372737"><ele>323.66666666666663</ele><time>2026-04-04T10:34:18.467Z</time></trkpt><trkpt lat="44.5101748" lon="8.4374792"><ele>322.0</ele><time>2026-04-04T10:34:19.467Z</time></trkpt><trkpt lat="44.5102845" lon="8.4377291"><ele>321.3333333333333</ele><time>2026-04-04T10:34:20.467Z</time></trkpt><trkpt lat="44.510377" lon="8.4379831"><ele>320.6666666666667</ele><time>2026-04-04T10:34:21.466Z</time></trkpt><trkpt lat="44.5104507" lon="8.4382695"><ele>320.0</ele><time>2026-04-04T10:34:22.467Z</time></trkpt><trkpt lat="44.5105309" lon="8.4385522"><ele>319.6666666666667</ele><time>2026-04-04T10:34:23.466Z</time></trkpt><trkpt lat="44.5106169" lon="8.4388247"><ele>319.3333333333333</ele><time>2026-04-04T10:34:24.467Z</time></trkpt><trkpt lat="44.510704" lon="8.4390678"><ele>319.0</ele><time>2026-04-04T10:34:25.467Z</time></trkpt><trkpt lat="44.5107954" lon="8.4392789"><ele>319.0</ele><time>2026-04-04T10:34:26.468Z</time></trkpt><trkpt lat="44.5108859" lon="8.4394577"><ele>319.0</ele><time>2026-04-04T10:34:27.466Z</time></trkpt><trkpt lat="44.5109713" lon="8.4396074"><ele>319.0</ele><time>2026-04-04T10:34:28.468Z</time></trkpt><trkpt lat="44.5110376" lon="8.4397574"><ele>319.0</ele><time>2026-04-04T10:34:29.467Z</time></trkpt><trkpt lat="44.5110571" lon="8.4399247"><ele>318.66666666666663</ele><time>2026-04-04T10:34:30.467Z</time></trkpt><trkpt lat="44.5110229" lon="8.4401137"><ele>318.3333333333333</ele><time>2026-04-04T10:34:31.467Z</time></trkpt><trkpt lat="44.5109437" lon="8.4403152"><ele>318.0</ele><time>2026-04-04T10:34:32.467Z</time></trkpt><trkpt lat="44.5108421" lon="8.4405244"><ele>319.0</ele><time>2026-04-04T10:34:33.467Z</time></trkpt><trkpt lat="44.5107281" lon="8.4407274"><ele>320.0</ele><time>2026-04-04T10:34:34.467Z</time></trkpt><trkpt lat="44.5106235" lon="8.4408929"><ele>321.0</ele><time>2026-04-04T10:34:35.467Z</time></trkpt><trkpt lat="44.5105197" lon="8.4410294"><ele>321.0</ele><time>2026-04-04T10:34:36.467Z</time></trkpt><trkpt lat="44.5104227" lon="8.4411455"><ele>321.0</ele><time>2026-04-04T10:34:37.466Z</time></trkpt><trkpt lat="44.5103483" lon="8.4412504"><ele>321.0</ele><time>2026-04-04T10:34:38.467Z</time></trkpt><trkpt lat="44.5103112" lon="8.4413694"><ele>321.0</ele><time>2026-04-04T10:34:39.466Z</time></trkpt><trkpt lat="44.5103017" lon="8.4415107"><ele>321.0</ele><time>2026-04-04T10:34:40.467Z</time></trkpt><trkpt lat="44.5103327" lon="8.4416543"><ele>321.3333333333333</ele><time>2026-04-04T10:34:41.466Z</time></trkpt><trkpt lat="44.510398" lon="8.4418113"><ele>321.66666666666663</ele><time>2026-04-04T10:34:42.467Z</time></trkpt><trkpt lat="44.5105077" lon="8.4419719"><ele>322.0</ele><time>2026-04-04T10:34:43.467Z</time></trkpt><trkpt lat="44.5106487" lon="8.4421579"><ele>320.66666666666663</ele><time>2026-04-04T10:34:44.467Z</time></trkpt><trkpt lat="44.5107868" lon="8.4423473"><ele>319.3333333333333</ele><time>2026-04-04T10:34:45.468Z</time></trkpt><trkpt lat="44.5109119" lon="8.4425495"><ele>318.0</ele><time>2026-04-04T10:34:46.466Z</time></trkpt><trkpt lat="44.511019" lon="8.4427624"><ele>316.6666666666667</ele><time>2026-04-04T10:34:47.467Z</time></trkpt><trkpt lat="44.5111019" lon="8.442977"><ele>315.33333333333337</ele><time>2026-04-04T10:34:48.467Z</time></trkpt><trkpt lat="44.5111724" lon="8.4431882"><ele>314.0</ele><time>2026-04-04T10:34:49.467Z</time></trkpt><trkpt lat="44.5112388" lon="8.4433754"><ele>314.25</ele><time>2026-04-04T10:34:50.467Z</time></trkpt><trkpt lat="44.5113028" lon="8.4435533"><ele>314.5</ele><time>2026-04-04T10:34:51.467Z</time></trkpt><trkpt lat="44.5113754" lon="8.4437163"><ele>314.75</ele><time>2026-04-04T10:34:52.467Z</time></trkpt><trkpt lat="44.5114615" lon="8.4438677"><ele>315.0</ele><time>2026-04-04T10:34:53.467Z</time></trkpt><trkpt lat="44.5115802" lon="8.443995"><ele>315.0</ele><time>2026-04-04T10:34:54.467Z</time></trkpt><trkpt lat="44.5117098" lon="8.4440881"><ele>315.0</ele><time>2026-04-04T10:34:55.467Z</time></trkpt><trkpt lat="44.5118647" lon="8.4441512"><ele>315.0</ele><time>2026-04-04T10:34:56.467Z</time></trkpt><trkpt lat="44.5120297" lon="8.4441599"><ele>315.3333333333333</ele><time>2026-04-04T10:34:57.466Z</time></trkpt><trkpt lat="44.5121859" lon="8.4441251"><ele>315.66666666666663</ele><time>2026-04-04T10:34:58.467Z</time></trkpt><trkpt lat="44.5123324" lon="8.4440755"><ele>316.0</ele><time>2026-04-04T10:34:59.467Z</time></trkpt><trkpt lat="44.5124765" lon="8.4440466"><ele>316.0</ele><time>2026-04-04T10:35:00.467Z</time></trkpt><trkpt lat="44.5126297" lon="8.4441056"><ele>316.0</ele><time>2026-04-04T10:35:01.467Z</time></trkpt><trkpt lat="44.5127563" lon="8.4441922"><ele>316.0</ele><time>2026-04-04T10:35:02.467Z</time></trkpt><trkpt lat="44.5128733" lon="8.4443087"><ele>316.0</ele><time>2026-04-04T10:35:03.468Z</time></trkpt><trkpt lat="44.5129574" lon="8.4444803"><ele>317.66666666666663</ele><time>2026-04-04T10:35:04.467Z</time></trkpt><trkpt lat="44.5130215" lon="8.4446732"><ele>319.3333333333333</ele><time>2026-04-04T10:35:05.468Z</time></trkpt><trkpt lat="44.5130586" lon="8.4448849"><ele>321.0</ele><time>2026-04-04T10:35:06.467Z</time></trkpt><trkpt lat="44.5131" lon="8.4451191"><ele>321.0</ele><time>2026-04-04T10:35:07.468Z</time></trkpt><trkpt lat="44.5131495" lon="8.4453648"><ele>321.0</ele><time>2026-04-04T10:35:08.468Z</time></trkpt><trkpt lat="44.5131987" lon="8.4456146"><ele>321.0</ele><time>2026-04-04T10:35:09.467Z</time></trkpt><trkpt lat="44.5132236" lon="8.4458623"><ele>319.6666666666667</ele><time>2026-04-04T10:35:10.467Z</time></trkpt><trkpt lat="44.513245" lon="8.4461323"><ele>318.33333333333337</ele><time>2026-04-04T10:35:11.467Z</time></trkpt><trkpt lat="44.5132769" lon="8.4464091"><ele>317.0</ele><time>2026-04-04T10:35:12.467Z</time></trkpt><trkpt lat="44.5133309" lon="8.4466936"><ele>316.33333333333337</ele><time>2026-04-04T10:35:13.467Z</time></trkpt><trkpt lat="44.5133933" lon="8.4469672"><ele>315.6666666666667</ele><time>2026-04-04T10:35:14.466Z</time></trkpt><trkpt lat="44.5134564" lon="8.4472278"><ele>315.0</ele><time>2026-04-04T10:35:15.467Z</time></trkpt><trkpt lat="44.5135146" lon="8.4474772"><ele>314.6666666666667</ele><time>2026-04-04T10:35:16.468Z</time></trkpt><trkpt lat="44.5135659" lon="8.4477087"><ele>314.33333333333337</ele><time>2026-04-04T10:35:17.467Z</time></trkpt><trkpt lat="44.5136079" lon="8.4479144"><ele>314.0</ele><time>2026-04-04T10:35:18.468Z</time></trkpt><trkpt lat="44.5136457" lon="8.448098"><ele>313.4</ele><time>2026-04-04T10:35:19.467Z</time></trkpt><trkpt lat="44.5136774" lon="8.4482591"><ele>312.79999999999995</ele><time>2026-04-04T10:35:20.468Z</time></trkpt><trkpt lat="44.5137152" lon="8.4484011"><ele>312.20000000000005</ele><time>2026-04-04T10:35:21.468Z</time></trkpt><trkpt lat="44.5137509" lon="8.4485301"><ele>311.6</ele><time>2026-04-04T10:35:22.467Z</time></trkpt><trkpt lat="44.5137855" lon="8.4486476"><ele>311.0</ele><time>2026-04-04T10:35:23.468Z</time></trkpt><trkpt lat="44.5138135" lon="8.4487565"><ele>312.5</ele><time>2026-04-04T10:35:24.468Z</time></trkpt><trkpt lat="44.5138417" lon="8.4488596"><ele>314.0</ele><time>2026-04-04T10:35:25.467Z</time></trkpt><trkpt lat="44.5138673" lon="8.4489603"><ele>315.5</ele><time>2026-04-04T10:35:26.468Z</time></trkpt><trkpt lat="44.5138956" lon="8.4490694"><ele>317.0</ele><time>2026-04-04T10:35:27.468Z</time></trkpt><trkpt lat="44.5139263" lon="8.449177"><ele>318.5</ele><time>2026-04-04T10:35:28.468Z</time></trkpt><trkpt lat="44.5139516" lon="8.4492765"><ele>320.0</ele><time>2026-04-04T10:35:29.468Z</time></trkpt><trkpt lat="44.5139746" lon="8.4493853"><ele>320.0</ele><time>2026-04-04T10:35:30.468Z</time></trkpt><trkpt lat="44.5140056" lon="8.4495179"><ele>320.0</ele><time>2026-04-04T10:35:31.468Z</time></trkpt><trkpt lat="44.5140264" lon="8.4496661"><ele>320.0</ele><time>2026-04-04T10:35:32.468Z</time></trkpt><trkpt lat="44.5140043" lon="8.449829"><ele>320.0</ele><time>2026-04-04T10:35:33.468Z</time></trkpt><trkpt lat="44.5139356" lon="8.4499936"><ele>321.0</ele><time>2026-04-04T10:35:34.468Z</time></trkpt><trkpt lat="44.5138405" lon="8.4501769"><ele>322.0</ele><time>2026-04-04T10:35:35.468Z</time></trkpt><trkpt lat="44.5137456" lon="8.4503675"><ele>323.0</ele><time>2026-04-04T10:35:36.468Z</time></trkpt><trkpt lat="44.5136795" lon="8.4505393"><ele>321.25</ele><time>2026-04-04T10:35:37.468Z</time></trkpt><trkpt lat="44.5136208" lon="8.4506933"><ele>319.5</ele><time>2026-04-04T10:35:38.468Z</time></trkpt><trkpt lat="44.5135654" lon="8.450855"><ele>317.75</ele><time>2026-04-04T10:35:39.468Z</time></trkpt><trkpt lat="44.5135147" lon="8.4510458"><ele>316.0</ele><time>2026-04-04T10:35:40.468Z</time></trkpt><trkpt lat="44.5134725" lon="8.4512422"><ele>317.3333333333333</ele><time>2026-04-04T10:35:41.468Z</time></trkpt><trkpt lat="44.513444" lon="8.4514591"><ele>318.6666666666667</ele><time>2026-04-04T10:35:42.468Z</time></trkpt><trkpt lat="44.5134094" lon="8.451665"><ele>320.0</ele><time>2026-04-04T10:35:43.469Z</time></trkpt><trkpt lat="44.5133683" lon="8.4518587"><ele>320.0</ele><time>2026-04-04T10:35:44.468Z</time></trkpt><trkpt lat="44.5133304" lon="8.4520457"><ele>320.0</ele><time>2026-04-04T10:35:45.468Z</time></trkpt><trkpt lat="44.5132906" lon="8.4522247"><ele>320.0</ele><time>2026-04-04T10:35:46.468Z</time></trkpt><trkpt lat="44.5132523" lon="8.4523921"><ele>320.0</ele><time>2026-04-04T10:35:47.468Z</time></trkpt><trkpt lat="44.5131983" lon="8.4525542"><ele>320.0</ele><time>2026-04-04T10:35:48.468Z</time></trkpt><trkpt lat="44.5131062" lon="8.4527017"><ele>320.0</ele><time>2026-04-04T10:35:49.468Z</time></trkpt><trkpt lat="44.5129943" lon="8.452811"><ele>320.0</ele><time>2026-04-04T10:35:50.468Z</time></trkpt><trkpt lat="44.5128781" lon="8.4529177"><ele>320.0</ele><time>2026-04-04T10:35:51.468Z</time></trkpt><trkpt lat="44.512767" lon="8.4530077"><ele>318.0</ele><time>2026-04-04T10:35:52.468Z</time></trkpt><trkpt lat="44.51266" lon="8.4531032"><ele>316.0</ele><time>2026-04-04T10:35:53.467Z</time></trkpt><trkpt lat="44.5125679" lon="8.4532214"><ele>314.0</ele><time>2026-04-04T10:35:54.469Z</time></trkpt><trkpt lat="44.5124952" lon="8.4533544"><ele>312.0</ele><time>2026-04-04T10:35:55.468Z</time></trkpt><trkpt lat="44.5124443" lon="8.4534921"><ele>312.0</ele><time>2026-04-04T10:35:56.469Z</time></trkpt><trkpt lat="44.5124203" lon="8.4536384"><ele>312.0</ele><time>2026-04-04T10:35:57.468Z</time></trkpt><trkpt lat="44.5124257" lon="8.4537972"><ele>312.0</ele><time>2026-04-04T10:35:58.468Z</time></trkpt><trkpt lat="44.5124513" lon="8.453977"><ele>312.0</ele><time>2026-04-04T10:35:59.469Z</time></trkpt><trkpt lat="44.5125244" lon="8.4541506"><ele>311.25</ele><time>2026-04-04T10:36:00.468Z</time></trkpt><trkpt lat="44.5126158" lon="8.4543014"><ele>310.5</ele><time>2026-04-04T10:36:01.468Z</time></trkpt><trkpt lat="44.5127264" lon="8.4543819"><ele>309.75</ele><time>2026-04-04T10:36:02.469Z</time></trkpt><trkpt lat="44.5128592" lon="8.4544215"><ele>309.0</ele><time>2026-04-04T10:36:03.469Z</time></trkpt><trkpt lat="44.5129917" lon="8.4544308"><ele>309.0</ele><time>2026-04-04T10:36:04.468Z</time></trkpt><trkpt lat="44.5131401" lon="8.4544002"><ele>309.0</ele><time>2026-04-04T10:36:05.469Z</time></trkpt><trkpt lat="44.513313" lon="8.4543291"><ele>309.0</ele><time>2026-04-04T10:36:06.468Z</time></trkpt><trkpt lat="44.5134884" lon="8.4542615"><ele>309.0</ele><time>2026-04-04T10:36:07.468Z</time></trkpt><trkpt lat="44.5136597" lon="8.4542141"><ele>309.0</ele><time>2026-04-04T10:36:08.467Z</time></trkpt><trkpt lat="44.5138242" lon="8.4541846"><ele>309.0</ele><time>2026-04-04T10:36:09.468Z</time></trkpt><trkpt lat="44.5139947" lon="8.454174"><ele>310.6666666666667</ele><time>2026-04-04T10:36:10.469Z</time></trkpt><trkpt lat="44.5141645" lon="8.4542052"><ele>312.33333333333337</ele><time>2026-04-04T10:36:11.469Z</time></trkpt><trkpt lat="44.5143352" lon="8.4543214"><ele>314.0</ele><time>2026-04-04T10:36:12.469Z</time></trkpt><trkpt lat="44.5144851" lon="8.4544835"><ele>312.0</ele><time>2026-04-04T10:36:13.468Z</time></trkpt><trkpt lat="44.5146302" lon="8.4546476"><ele>310.0</ele><time>2026-04-04T10:36:14.469Z</time></trkpt><trkpt lat="44.5147843" lon="8.4547971"><ele>308.0</ele><time>2026-04-04T10:36:15.468Z</time></trkpt><trkpt lat="44.5149488" lon="8.4549334"><ele>308.0</ele><time>2026-04-04T10:36:16.469Z</time></trkpt><trkpt lat="44.5151176" lon="8.4550635"><ele>308.0</ele><time>2026-04-04T10:36:17.47Z</time></trkpt><trkpt lat="44.5152977" lon="8.455172"><ele>308.0</ele><time>2026-04-04T10:36:18.468Z</time></trkpt><trkpt lat="44.51546" lon="8.4552738"><ele>308.33333333333337</ele><time>2026-04-04T10:36:19.468Z</time></trkpt><trkpt lat="44.5156111" lon="8.4553789"><ele>308.6666666666667</ele><time>2026-04-04T10:36:20.468Z</time></trkpt><trkpt lat="44.515751" lon="8.4555002"><ele>309.0</ele><time>2026-04-04T10:36:21.469Z</time></trkpt><trkpt lat="44.515873" lon="8.4556378"><ele>309.0</ele><time>2026-04-04T10:36:22.468Z</time></trkpt><trkpt lat="44.5159778" lon="8.4557865"><ele>309.0</ele><time>2026-04-04T10:36:23.468Z</time></trkpt><trkpt lat="44.5160739" lon="8.4559378"><ele>309.0</ele><time>2026-04-04T10:36:24.469Z</time></trkpt><trkpt lat="44.5161625" lon="8.4560984"><ele>309.0</ele><time>2026-04-04T10:36:25.469Z</time></trkpt><trkpt lat="44.5162392" lon="8.4562799"><ele>311.6666666666667</ele><time>2026-04-04T10:36:26.467Z</time></trkpt><trkpt lat="44.5163016" lon="8.4564923"><ele>314.33333333333337</ele><time>2026-04-04T10:36:27.469Z</time></trkpt><trkpt lat="44.5163372" lon="8.4567288"><ele>317.0</ele><time>2026-04-04T10:36:28.468Z</time></trkpt><trkpt lat="44.5163617" lon="8.4569644"><ele>315.5</ele><time>2026-04-04T10:36:29.469Z</time></trkpt><trkpt lat="44.5163729" lon="8.4571735"><ele>314.0</ele><time>2026-04-04T10:36:30.469Z</time></trkpt><trkpt lat="44.5163716" lon="8.4573501"><ele>312.5</ele><time>2026-04-04T10:36:31.469Z</time></trkpt><trkpt lat="44.5163502" lon="8.457514"><ele>311.0</ele><time>2026-04-04T10:36:32.469Z</time></trkpt><trkpt lat="44.5163411" lon="8.4576782"><ele>311.0</ele><time>2026-04-04T10:36:33.469Z</time></trkpt><trkpt lat="44.5163808" lon="8.4578631"><ele>311.0</ele><time>2026-04-04T10:36:34.469Z</time></trkpt><trkpt lat="44.5164489" lon="8.458033"><ele>311.0</ele><time>2026-04-04T10:36:35.469Z</time></trkpt><trkpt lat="44.5165327" lon="8.458186"><ele>311.0</ele><time>2026-04-04T10:36:36.469Z</time></trkpt><trkpt lat="44.5166281" lon="8.4582833"><ele>309.5</ele><time>2026-04-04T10:36:37.469Z</time></trkpt><trkpt lat="44.5167413" lon="8.4583383"><ele>308.0</ele><time>2026-04-04T10:36:38.47Z</time></trkpt><trkpt lat="44.5168636" lon="8.4583663"><ele>306.5</ele><time>2026-04-04T10:36:39.469Z</time></trkpt><trkpt lat="44.5170093" lon="8.4583815"><ele>305.0</ele><time>2026-04-04T10:36:40.469Z</time></trkpt><trkpt lat="44.5171592" lon="8.4584601"><ele>305.0</ele><time>2026-04-04T10:36:41.469Z</time></trkpt><trkpt lat="44.5173004" lon="8.458633"><ele>305.0</ele><time>2026-04-04T10:36:42.469Z</time></trkpt><trkpt lat="44.5174347" lon="8.4588824"><ele>305.0</ele><time>2026-04-04T10:36:43.469Z</time></trkpt><trkpt lat="44.5175778" lon="8.4591517"><ele>301.5</ele><time>2026-04-04T10:36:44.469Z</time></trkpt><trkpt lat="44.5177152" lon="8.4594212"><ele>298.0</ele><time>2026-04-04T10:36:45.468Z</time></trkpt><trkpt lat="44.5178516" lon="8.4596705"><ele>298.66666666666663</ele><time>2026-04-04T10:36:46.469Z</time></trkpt><trkpt lat="44.5179876" lon="8.45991"><ele>299.3333333333333</ele><time>2026-04-04T10:36:47.469Z</time></trkpt><trkpt lat="44.5181225" lon="8.4601452"><ele>300.0</ele><time>2026-04-04T10:36:48.469Z</time></trkpt><trkpt lat="44.5182526" lon="8.4603862"><ele>299.6666666666667</ele><time>2026-04-04T10:36:49.469Z</time></trkpt><trkpt lat="44.5183775" lon="8.4606288"><ele>299.33333333333337</ele><time>2026-04-04T10:36:50.468Z</time></trkpt><trkpt lat="44.5184968" lon="8.460875"><ele>299.0</ele><time>2026-04-04T10:36:51.469Z</time></trkpt><trkpt lat="44.5186154" lon="8.4611218"><ele>298.0</ele><time>2026-04-04T10:36:52.469Z</time></trkpt><trkpt lat="44.5187338" lon="8.4613661"><ele>297.0</ele><time>2026-04-04T10:36:53.47Z</time></trkpt><trkpt lat="44.5188448" lon="8.4616172"><ele>296.0</ele><time>2026-04-04T10:36:54.468Z</time></trkpt><trkpt lat="44.5189571" lon="8.4618728"><ele>297.0</ele><time>2026-04-04T10:36:55.468Z</time></trkpt><trkpt lat="44.5190752" lon="8.4621447"><ele>298.0</ele><time>2026-04-04T10:36:56.469Z</time></trkpt><trkpt lat="44.5191834" lon="8.4624123"><ele>299.0</ele><time>2026-04-04T10:36:57.469Z</time></trkpt><trkpt lat="44.5192808" lon="8.4626943"><ele>296.5</ele><time>2026-04-04T10:36:58.47Z</time></trkpt><trkpt lat="44.5193717" lon="8.462995"><ele>294.0</ele><time>2026-04-04T10:36:59.47Z</time></trkpt><trkpt lat="44.5194586" lon="8.4632843"><ele>294.0</ele><time>2026-04-04T10:37:00.468Z</time></trkpt><trkpt lat="44.5195511" lon="8.4635687"><ele>294.0</ele><time>2026-04-04T10:37:01.47Z</time></trkpt><trkpt lat="44.5196459" lon="8.4638394"><ele>294.0</ele><time>2026-04-04T10:37:02.468Z</time></trkpt><trkpt lat="44.5197377" lon="8.4641047"><ele>296.3333333333333</ele><time>2026-04-04T10:37:03.47Z</time></trkpt><trkpt lat="44.5198235" lon="8.4643744"><ele>298.66666666666663</ele><time>2026-04-04T10:37:04.468Z</time></trkpt><trkpt lat="44.5199086" lon="8.4646377"><ele>301.0</ele><time>2026-04-04T10:37:05.468Z</time></trkpt><trkpt lat="44.5199845" lon="8.4648786"><ele>301.0</ele><time>2026-04-04T10:37:06.47Z</time></trkpt><trkpt lat="44.5200512" lon="8.4651053"><ele>301.0</ele><time>2026-04-04T10:37:07.469Z</time></trkpt><trkpt lat="44.5201179" lon="8.4653179"><ele>301.0</ele><time>2026-04-04T10:37:08.468Z</time></trkpt><trkpt lat="44.5201688" lon="8.4655107"><ele>299.66666666666663</ele><time>2026-04-04T10:37:09.469Z</time></trkpt><trkpt lat="44.5202199" lon="8.4656842"><ele>298.3333333333333</ele><time>2026-04-04T10:37:10.47Z</time></trkpt><trkpt lat="44.5203169" lon="8.4658407"><ele>297.0</ele><time>2026-04-04T10:37:11.469Z</time></trkpt><trkpt lat="44.5204675" lon="8.465986"><ele>297.0</ele><time>2026-04-04T10:37:12.47Z</time></trkpt><trkpt lat="44.5206608" lon="8.4660969"><ele>297.0</ele><time>2026-04-04T10:37:13.469Z</time></trkpt><trkpt lat="44.5208492" lon="8.4661875"><ele>297.0</ele><time>2026-04-04T10:37:14.469Z</time></trkpt><trkpt lat="44.521026" lon="8.4662617"><ele>296.75</ele><time>2026-04-04T10:37:15.47Z</time></trkpt><trkpt lat="44.5211783" lon="8.4663375"><ele>296.5</ele><time>2026-04-04T10:37:16.47Z</time></trkpt><trkpt lat="44.5213063" lon="8.466432"><ele>296.25</ele><time>2026-04-04T10:37:17.47Z</time></trkpt><trkpt lat="44.5214135" lon="8.4665387"><ele>296.0</ele><time>2026-04-04T10:37:18.47Z</time></trkpt><trkpt lat="44.5215088" lon="8.4666387"><ele>297.8</ele><time>2026-04-04T10:37:19.47Z</time></trkpt><trkpt lat="44.521583" lon="8.4667397"><ele>299.6</ele><time>2026-04-04T10:37:20.469Z</time></trkpt><trkpt lat="44.5216244" lon="8.4668578"><ele>301.4</ele><time>2026-04-04T10:37:21.47Z</time></trkpt><trkpt lat="44.5216124" lon="8.4670171"><ele>303.2</ele><time>2026-04-04T10:37:22.468Z</time></trkpt><trkpt lat="44.5215638" lon="8.4671802"><ele>305.0</ele><time>2026-04-04T10:37:23.469Z</time></trkpt><trkpt lat="44.5215123" lon="8.4673091"><ele>305.25</ele><time>2026-04-04T10:37:24.469Z</time></trkpt><trkpt lat="44.5214877" lon="8.4674654"><ele>305.5</ele><time>2026-04-04T10:37:25.469Z</time></trkpt><trkpt lat="44.5214989" lon="8.4676395"><ele>305.75</ele><time>2026-04-04T10:37:26.468Z</time></trkpt><trkpt lat="44.5215766" lon="8.4678431"><ele>306.0</ele><time>2026-04-04T10:37:27.47Z</time></trkpt><trkpt lat="44.5216615" lon="8.4680185"><ele>304.5</ele><time>2026-04-04T10:37:28.469Z</time></trkpt><trkpt lat="44.5217566" lon="8.4681711"><ele>303.0</ele><time>2026-04-04T10:37:29.47Z</time></trkpt><trkpt lat="44.5218505" lon="8.4683208"><ele>301.5</ele><time>2026-04-04T10:37:30.47Z</time></trkpt><trkpt lat="44.5219287" lon="8.4684873"><ele>300.0</ele><time>2026-04-04T10:37:31.469Z</time></trkpt><trkpt lat="44.5219591" lon="8.4686485"><ele>298.6</ele><time>2026-04-04T10:37:32.47Z</time></trkpt><trkpt lat="44.5219552" lon="8.4687925"><ele>297.2</ele><time>2026-04-04T10:37:33.47Z</time></trkpt><trkpt lat="44.5219312" lon="8.4689037"><ele>295.8</ele><time>2026-04-04T10:37:34.468Z</time></trkpt><trkpt lat="44.5219213" lon="8.4690029"><ele>294.4</ele><time>2026-04-04T10:37:35.47Z</time></trkpt><trkpt lat="44.521937" lon="8.4691343"><ele>293.0</ele><time>2026-04-04T10:37:37.47Z</time></trkpt><trkpt lat="44.5219347" lon="8.4692925"><ele>293.0</ele><time>2026-04-04T10:37:39.47Z</time></trkpt><trkpt lat="44.5218867" lon="8.4694015"><ele>293.0</ele><time>2026-04-04T10:37:40.47Z</time></trkpt><trkpt lat="44.5218163" lon="8.4695211"><ele>293.0</ele><time>2026-04-04T10:37:41.47Z</time></trkpt><trkpt lat="44.5217343" lon="8.4696349"><ele>293.0</ele><time>2026-04-04T10:37:42.47Z</time></trkpt><trkpt lat="44.5216418" lon="8.4697666"><ele>293.0</ele><time>2026-04-04T10:37:43.47Z</time></trkpt><trkpt lat="44.521545" lon="8.4699188"><ele>293.33333333333337</ele><time>2026-04-04T10:37:44.47Z</time></trkpt><trkpt lat="44.5214352" lon="8.4700808"><ele>293.6666666666667</ele><time>2026-04-04T10:37:45.47Z</time></trkpt><trkpt lat="44.5213066" lon="8.4702405"><ele>294.0</ele><time>2026-04-04T10:37:46.47Z</time></trkpt><trkpt lat="44.5211677" lon="8.4703718"><ele>296.0</ele><time>2026-04-04T10:37:47.47Z</time></trkpt><trkpt lat="44.521027" lon="8.4705007"><ele>298.0</ele><time>2026-04-04T10:37:48.47Z</time></trkpt><trkpt lat="44.5208928" lon="8.4706345"><ele>300.0</ele><time>2026-04-04T10:37:49.47Z</time></trkpt><trkpt lat="44.5207605" lon="8.4707766"><ele>300.0</ele><time>2026-04-04T10:37:50.47Z</time></trkpt><trkpt lat="44.5206295" lon="8.4709311"><ele>300.0</ele><time>2026-04-04T10:37:51.47Z</time></trkpt><trkpt lat="44.5204951" lon="8.4710848"><ele>300.0</ele><time>2026-04-04T10:37:52.47Z</time></trkpt><trkpt lat="44.5203539" lon="8.4712377"><ele>303.6666666666667</ele><time>2026-04-04T10:37:53.47Z</time></trkpt><trkpt lat="44.5202133" lon="8.4713498"><ele>307.33333333333337</ele><time>2026-04-04T10:37:54.47Z</time></trkpt><trkpt lat="44.5200512" lon="8.4714258"><ele>311.0</ele><time>2026-04-04T10:37:55.471Z</time></trkpt><trkpt lat="44.5198824" lon="8.4714994"><ele>311.0</ele><time>2026-04-04T10:37:56.47Z</time></trkpt><trkpt lat="44.5197324" lon="8.4715764"><ele>311.0</ele><time>2026-04-04T10:37:57.469Z</time></trkpt><trkpt lat="44.5196011" lon="8.4716547"><ele>311.0</ele><time>2026-04-04T10:37:58.471Z</time></trkpt><trkpt lat="44.5194992" lon="8.4717711"><ele>311.0</ele><time>2026-04-04T10:37:59.47Z</time></trkpt><trkpt lat="44.5194175" lon="8.4719245"><ele>317.6666666666667</ele><time>2026-04-04T10:38:00.471Z</time></trkpt><trkpt lat="44.5193684" lon="8.4721355"><ele>324.3333333333333</ele><time>2026-04-04T10:38:01.471Z</time></trkpt><trkpt lat="44.5193449" lon="8.472373"><ele>331.0</ele><time>2026-04-04T10:38:02.47Z</time></trkpt><trkpt lat="44.5193776" lon="8.4726266"><ele>331.0</ele><time>2026-04-04T10:38:03.471Z</time></trkpt><trkpt lat="44.5194161" lon="8.472846"><ele>331.0</ele><time>2026-04-04T10:38:04.47Z</time></trkpt><trkpt lat="44.5194443" lon="8.4730357"><ele>331.0</ele><time>2026-04-04T10:38:05.469Z</time></trkpt><trkpt lat="44.5194414" lon="8.4732185"><ele>331.0</ele><time>2026-04-04T10:38:06.47Z</time></trkpt><trkpt lat="44.5193834" lon="8.4734125"><ele>329.3333333333333</ele><time>2026-04-04T10:38:07.47Z</time></trkpt><trkpt lat="44.5192517" lon="8.4735791"><ele>327.6666666666667</ele><time>2026-04-04T10:38:08.47Z</time></trkpt><trkpt lat="44.5190706" lon="8.4737057"><ele>326.0</ele><time>2026-04-04T10:38:09.471Z</time></trkpt><trkpt lat="44.518865" lon="8.4737822"><ele>323.6666666666667</ele><time>2026-04-04T10:38:10.47Z</time></trkpt><trkpt lat="44.5186593" lon="8.4738301"><ele>321.3333333333333</ele><time>2026-04-04T10:38:11.469Z</time></trkpt><trkpt lat="44.5184353" lon="8.4738895"><ele>319.0</ele><time>2026-04-04T10:38:12.47Z</time></trkpt><trkpt lat="44.518233" lon="8.4739596"><ele>319.0</ele><time>2026-04-04T10:38:13.471Z</time></trkpt><trkpt lat="44.5180457" lon="8.4740293"><ele>319.0</ele><time>2026-04-04T10:38:14.47Z</time></trkpt><trkpt lat="44.5178725" lon="8.474102"><ele>319.0</ele><time>2026-04-04T10:38:15.469Z</time></trkpt><trkpt lat="44.5177154" lon="8.4741625"><ele>319.0</ele><time>2026-04-04T10:38:16.47Z</time></trkpt><trkpt lat="44.5175678" lon="8.4742213"><ele>319.0</ele><time>2026-04-04T10:38:17.47Z</time></trkpt><trkpt lat="44.517425" lon="8.4742657"><ele>319.0</ele><time>2026-04-04T10:38:18.471Z</time></trkpt><trkpt lat="44.5172808" lon="8.4742634"><ele>319.0</ele><time>2026-04-04T10:38:19.471Z</time></trkpt><trkpt lat="44.5171278" lon="8.4742124"><ele>318.3333333333333</ele><time>2026-04-04T10:38:20.47Z</time></trkpt><trkpt lat="44.5169691" lon="8.47409"><ele>317.6666666666667</ele><time>2026-04-04T10:38:21.47Z</time></trkpt><trkpt lat="44.5168174" lon="8.473926"><ele>317.0</ele><time>2026-04-04T10:38:22.471Z</time></trkpt><trkpt lat="44.5166846" lon="8.4738151"><ele>319.0</ele><time>2026-04-04T10:38:23.471Z</time></trkpt><trkpt lat="44.5165722" lon="8.4737219"><ele>321.0</ele><time>2026-04-04T10:38:24.471Z</time></trkpt><trkpt lat="44.5164551" lon="8.473622"><ele>323.0</ele><time>2026-04-04T10:38:25.47Z</time></trkpt><trkpt lat="44.51635" lon="8.4734607"><ele>325.0</ele><time>2026-04-04T10:38:26.47Z</time></trkpt><trkpt lat="44.5162619" lon="8.4732548"><ele>325.0</ele><time>2026-04-04T10:38:27.47Z</time></trkpt><trkpt lat="44.5161895" lon="8.4730471"><ele>325.0</ele><time>2026-04-04T10:38:28.47Z</time></trkpt><trkpt lat="44.5161189" lon="8.4728749"><ele>325.0</ele><time>2026-04-04T10:38:29.47Z</time></trkpt><trkpt lat="44.5160306" lon="8.4727373"><ele>325.0</ele><time>2026-04-04T10:38:30.47Z</time></trkpt><trkpt lat="44.5159222" lon="8.472633"><ele>325.0</ele><time>2026-04-04T10:38:31.471Z</time></trkpt><trkpt lat="44.5157829" lon="8.4725759"><ele>325.0</ele><time>2026-04-04T10:38:32.47Z</time></trkpt><trkpt lat="44.5156273" lon="8.4725626"><ele>325.0</ele><time>2026-04-04T10:38:33.47Z</time></trkpt><trkpt lat="44.5154475" lon="8.4725908"><ele>318.0</ele><time>2026-04-04T10:38:34.471Z</time></trkpt><trkpt lat="44.5130353" lon="8.4735305"><ele>318.0</ele><time>2026-04-04T10:38:50.471Z</time></trkpt><trkpt lat="44.5129103" lon="8.47358"><ele>318.0</ele><time>2026-04-04T10:38:51.471Z</time></trkpt><trkpt lat="44.5127869" lon="8.4736245"><ele>318.0</ele><time>2026-04-04T10:38:52.471Z</time></trkpt><trkpt lat="44.5126657" lon="8.4736666"><ele>318.0</ele><time>2026-04-04T10:38:53.471Z</time></trkpt><trkpt lat="44.512531" lon="8.4737124"><ele>318.5</ele><time>2026-04-04T10:38:54.471Z</time></trkpt><trkpt lat="44.5123916" lon="8.4737587"><ele>319.0</ele><time>2026-04-04T10:38:55.471Z</time></trkpt><trkpt lat="44.5122465" lon="8.4738123"><ele>319.5</ele><time>2026-04-04T10:38:56.471Z</time></trkpt><trkpt lat="44.5120958" lon="8.4738691"><ele>320.0</ele><time>2026-04-04T10:38:57.471Z</time></trkpt><trkpt lat="44.5119328" lon="8.4739262"><ele>320.6666666666667</ele><time>2026-04-04T10:38:58.471Z</time></trkpt><trkpt lat="44.5117689" lon="8.4739818"><ele>321.3333333333333</ele><time>2026-04-04T10:38:59.471Z</time></trkpt><trkpt lat="44.5116021" lon="8.4740401"><ele>322.0</ele><time>2026-04-04T10:39:00.471Z</time></trkpt><trkpt lat="44.5114343" lon="8.4741019"><ele>322.0</ele><time>2026-04-04T10:39:01.471Z</time></trkpt><trkpt lat="44.5112693" lon="8.4741789"><ele>322.0</ele><time>2026-04-04T10:39:02.47Z</time></trkpt><trkpt lat="44.5111056" lon="8.474282"><ele>322.0</ele><time>2026-04-04T10:39:03.471Z</time></trkpt><trkpt lat="44.5109438" lon="8.4744161"><ele>321.66666666666663</ele><time>2026-04-04T10:39:04.471Z</time></trkpt><trkpt lat="44.5107835" lon="8.4745845"><ele>321.3333333333333</ele><time>2026-04-04T10:39:05.47Z</time></trkpt><trkpt lat="44.5106312" lon="8.4747785"><ele>321.0</ele><time>2026-04-04T10:39:06.471Z</time></trkpt><trkpt lat="44.5104922" lon="8.47499"><ele>321.6666666666667</ele><time>2026-04-04T10:39:07.472Z</time></trkpt><trkpt lat="44.5103752" lon="8.4752211"><ele>322.33333333333337</ele><time>2026-04-04T10:39:08.471Z</time></trkpt><trkpt lat="44.5102859" lon="8.4754745"><ele>323.0</ele><time>2026-04-04T10:39:09.471Z</time></trkpt><trkpt lat="44.5102156" lon="8.4757512"><ele>323.0</ele><time>2026-04-04T10:39:10.472Z</time></trkpt><trkpt lat="44.5101611" lon="8.4760395"><ele>323.0</ele><time>2026-04-04T10:39:11.472Z</time></trkpt><trkpt lat="44.5101078" lon="8.4763223"><ele>323.0</ele><time>2026-04-04T10:39:12.471Z</time></trkpt><trkpt lat="44.5100512" lon="8.4765998"><ele>323.0</ele><time>2026-04-04T10:39:13.47Z</time></trkpt><trkpt lat="44.5099881" lon="8.4768727"><ele>323.0</ele><time>2026-04-04T10:39:14.47Z</time></trkpt><trkpt lat="44.509922" lon="8.4771456"><ele>323.0</ele><time>2026-04-04T10:39:15.472Z</time></trkpt><trkpt lat="44.5098504" lon="8.4774323"><ele>323.0</ele><time>2026-04-04T10:39:16.472Z</time></trkpt><trkpt lat="44.5097804" lon="8.4777223"><ele>323.0</ele><time>2026-04-04T10:39:17.472Z</time></trkpt><trkpt lat="44.5097132" lon="8.4780197"><ele>323.0</ele><time>2026-04-04T10:39:18.472Z</time></trkpt><trkpt lat="44.5096429" lon="8.4783239"><ele>332.0</ele><time>2026-04-04T10:39:19.471Z</time></trkpt><trkpt lat="44.5095752" lon="8.4786328"><ele>341.0</ele><time>2026-04-04T10:39:20.472Z</time></trkpt><trkpt lat="44.5095162" lon="8.4789416"><ele>341.0</ele><time>2026-04-04T10:39:21.47Z</time></trkpt><trkpt lat="44.5094611" lon="8.47924"><ele>341.0</ele><time>2026-04-04T10:39:22.471Z</time></trkpt><trkpt lat="44.5094102" lon="8.4795226"><ele>341.0</ele><time>2026-04-04T10:39:23.472Z</time></trkpt><trkpt lat="44.5093614" lon="8.4797867"><ele>341.0</ele><time>2026-04-04T10:39:24.471Z</time></trkpt><trkpt lat="44.5093154" lon="8.4800358"><ele>341.0</ele><time>2026-04-04T10:39:25.472Z</time></trkpt><trkpt lat="44.5092656" lon="8.4802716"><ele>341.0</ele><time>2026-04-04T10:39:26.471Z</time></trkpt><trkpt lat="44.5092099" lon="8.4805101"><ele>338.6666666666667</ele><time>2026-04-04T10:39:27.472Z</time></trkpt><trkpt lat="44.509138" lon="8.4807385"><ele>336.3333333333333</ele><time>2026-04-04T10:39:28.472Z</time></trkpt><trkpt lat="44.5090451" lon="8.4809526"><ele>334.0</ele><time>2026-04-04T10:39:29.472Z</time></trkpt><trkpt lat="44.5089411" lon="8.4811561"><ele>333.66666666666663</ele><time>2026-04-04T10:39:30.472Z</time></trkpt><trkpt lat="44.5088278" lon="8.4813473"><ele>333.3333333333333</ele><time>2026-04-04T10:39:31.471Z</time></trkpt><trkpt lat="44.5087006" lon="8.4815249"><ele>333.0</ele><time>2026-04-04T10:39:32.472Z</time></trkpt><trkpt lat="44.5085546" lon="8.4816809"><ele>335.6666666666667</ele><time>2026-04-04T10:39:33.472Z</time></trkpt><trkpt lat="44.5084057" lon="8.481808"><ele>338.33333333333337</ele><time>2026-04-04T10:39:34.472Z</time></trkpt><trkpt lat="44.5082606" lon="8.4819119"><ele>341.0</ele><time>2026-04-04T10:39:35.472Z</time></trkpt><trkpt lat="44.508107" lon="8.4819793"><ele>341.0</ele><time>2026-04-04T10:39:36.472Z</time></trkpt><trkpt lat="44.5079776" lon="8.4820841"><ele>341.0</ele><time>2026-04-04T10:39:37.472Z</time></trkpt><trkpt lat="44.5078958" lon="8.4822542"><ele>341.0</ele><time>2026-04-04T10:39:38.472Z</time></trkpt><trkpt lat="44.5078335" lon="8.4824428"><ele>341.0</ele><time>2026-04-04T10:39:39.472Z</time></trkpt><trkpt lat="44.5077442" lon="8.4825798"><ele>340.6666666666667</ele><time>2026-04-04T10:39:40.472Z</time></trkpt><trkpt lat="44.5076325" lon="8.4826382"><ele>340.3333333333333</ele><time>2026-04-04T10:39:41.472Z</time></trkpt><trkpt lat="44.5074822" lon="8.4826217"><ele>340.0</ele><time>2026-04-04T10:39:42.472Z</time></trkpt><trkpt lat="44.507301" lon="8.4825586"><ele>340.0</ele><time>2026-04-04T10:39:43.471Z</time></trkpt><trkpt lat="44.5071243" lon="8.4824721"><ele>340.0</ele><time>2026-04-04T10:39:44.472Z</time></trkpt><trkpt lat="44.5069767" lon="8.4823802"><ele>340.0</ele><time>2026-04-04T10:39:45.472Z</time></trkpt><trkpt lat="44.5068635" lon="8.4822738"><ele>339.4</ele><time>2026-04-04T10:39:46.472Z</time></trkpt><trkpt lat="44.5067716" lon="8.4821878"><ele>338.8</ele><time>2026-04-04T10:39:47.472Z</time></trkpt><trkpt lat="44.5066793" lon="8.482144"><ele>338.20000000000005</ele><time>2026-04-04T10:39:48.473Z</time></trkpt><trkpt lat="44.506591" lon="8.4821645"><ele>337.6</ele><time>2026-04-04T10:39:49.472Z</time></trkpt><trkpt lat="44.5065031" lon="8.4822633"><ele>337.0</ele><time>2026-04-04T10:39:50.472Z</time></trkpt><trkpt lat="44.5064163" lon="8.4824355"><ele>337.0</ele><time>2026-04-04T10:39:51.472Z</time></trkpt><trkpt lat="44.5063146" lon="8.4826128"><ele>337.0</ele><time>2026-04-04T10:39:52.472Z</time></trkpt><trkpt lat="44.5062197" lon="8.4827691"><ele>337.0</ele><time>2026-04-04T10:39:53.473Z</time></trkpt><trkpt lat="44.5061169" lon="8.4828886"><ele>337.0</ele><time>2026-04-04T10:39:54.472Z</time></trkpt><trkpt lat="44.5059824" lon="8.4829521"><ele>337.66666666666663</ele><time>2026-04-04T10:39:55.472Z</time></trkpt><trkpt lat="44.5058256" lon="8.4829476"><ele>338.3333333333333</ele><time>2026-04-04T10:39:56.472Z</time></trkpt><trkpt lat="44.5056561" lon="8.4829159"><ele>339.0</ele><time>2026-04-04T10:39:57.472Z</time></trkpt><trkpt lat="44.5054799" lon="8.4828927"><ele>339.3333333333333</ele><time>2026-04-04T10:39:58.472Z</time></trkpt><trkpt lat="44.505315" lon="8.4829112"><ele>339.66666666666663</ele><time>2026-04-04T10:39:59.472Z</time></trkpt><trkpt lat="44.50515" lon="8.4829807"><ele>340.0</ele><time>2026-04-04T10:40:00.472Z</time></trkpt><trkpt lat="44.5049884" lon="8.4830738"><ele>340.0</ele><time>2026-04-04T10:40:01.472Z</time></trkpt><trkpt lat="44.5048005" lon="8.483186"><ele>340.0</ele><time>2026-04-04T10:40:02.472Z</time></trkpt><trkpt lat="44.5046244" lon="8.4832782"><ele>340.0</ele><time>2026-04-04T10:40:03.472Z</time></trkpt><trkpt lat="44.5044729" lon="8.4833487"><ele>339.2</ele><time>2026-04-04T10:40:04.472Z</time></trkpt><trkpt lat="44.5043496" lon="8.4834103"><ele>338.4</ele><time>2026-04-04T10:40:05.471Z</time></trkpt><trkpt lat="44.5042587" lon="8.4834652"><ele>337.6</ele><time>2026-04-04T10:40:06.472Z</time></trkpt><trkpt lat="44.5041765" lon="8.4835161"><ele>336.8</ele><time>2026-04-04T10:40:07.472Z</time></trkpt><trkpt lat="44.5040943" lon="8.4835661"><ele>336.0</ele><time>2026-04-04T10:40:08.472Z</time></trkpt><trkpt lat="44.5040035" lon="8.4836172"><ele>336.0</ele><time>2026-04-04T10:40:09.473Z</time></trkpt><trkpt lat="44.5039063" lon="8.483666"><ele>336.0</ele><time>2026-04-04T10:40:10.473Z</time></trkpt><trkpt lat="44.5038006" lon="8.4837124"><ele>336.0</ele><time>2026-04-04T10:40:11.472Z</time></trkpt><trkpt lat="44.5036942" lon="8.4837603"><ele>336.0</ele><time>2026-04-04T10:40:12.472Z</time></trkpt><trkpt lat="44.5035879" lon="8.4838138"><ele>336.0</ele><time>2026-04-04T10:40:13.472Z</time></trkpt><trkpt lat="44.5034847" lon="8.4838674"><ele>335.8</ele><time>2026-04-04T10:40:14.471Z</time></trkpt><trkpt lat="44.503384" lon="8.4839327"><ele>335.6</ele><time>2026-04-04T10:40:15.472Z</time></trkpt><trkpt lat="44.5032842" lon="8.4839848"><ele>335.4</ele><time>2026-04-04T10:40:16.472Z</time></trkpt><trkpt lat="44.5031847" lon="8.48403"><ele>335.2</ele><time>2026-04-04T10:40:17.472Z</time></trkpt><trkpt lat="44.5030771" lon="8.4840804"><ele>335.0</ele><time>2026-04-04T10:40:18.472Z</time></trkpt><trkpt lat="44.5029661" lon="8.4841314"><ele>335.25</ele><time>2026-04-04T10:40:19.472Z</time></trkpt><trkpt lat="44.5028432" lon="8.484183"><ele>335.5</ele><time>2026-04-04T10:40:20.472Z</time></trkpt><trkpt lat="44.5027268" lon="8.4842443"><ele>335.75</ele><time>2026-04-04T10:40:21.473Z</time></trkpt><trkpt lat="44.502613" lon="8.4842996"><ele>336.0</ele><time>2026-04-04T10:40:22.471Z</time></trkpt><trkpt lat="44.5024982" lon="8.4843535"><ele>336.0</ele><time>2026-04-04T10:40:23.472Z</time></trkpt><trkpt lat="44.5023847" lon="8.4844026"><ele>336.0</ele><time>2026-04-04T10:40:24.472Z</time></trkpt><trkpt lat="44.502272" lon="8.4844552"><ele>336.0</ele><time>2026-04-04T10:40:25.473Z</time></trkpt><trkpt lat="44.5021564" lon="8.4845164"><ele>336.0</ele><time>2026-04-04T10:40:26.471Z</time></trkpt><trkpt lat="44.5020266" lon="8.4845844"><ele>338.0</ele><time>2026-04-04T10:40:27.473Z</time></trkpt><trkpt lat="44.5018815" lon="8.4846561"><ele>340.0</ele><time>2026-04-04T10:40:28.472Z</time></trkpt><trkpt lat="44.5017303" lon="8.4847301"><ele>342.0</ele><time>2026-04-04T10:40:29.472Z</time></trkpt><trkpt lat="44.5015851" lon="8.4847988"><ele>342.0</ele><time>2026-04-04T10:40:30.473Z</time></trkpt><trkpt lat="44.5014647" lon="8.4848557"><ele>342.0</ele><time>2026-04-04T10:40:31.473Z</time></trkpt><trkpt lat="44.5013586" lon="8.4849285"><ele>342.0</ele><time>2026-04-04T10:40:32.473Z</time></trkpt><trkpt lat="44.5012723" lon="8.4850343"><ele>342.0</ele><time>2026-04-04T10:40:33.472Z</time></trkpt><trkpt lat="44.5012005" lon="8.4851954"><ele>341.6666666666667</ele><time>2026-04-04T10:40:34.472Z</time></trkpt><trkpt lat="44.501135" lon="8.4854282"><ele>341.33333333333337</ele><time>2026-04-04T10:40:35.472Z</time></trkpt><trkpt lat="44.501097" lon="8.4856456"><ele>341.0</ele><time>2026-04-04T10:40:36.472Z</time></trkpt><trkpt lat="44.501055" lon="8.4858449"><ele>341.5</ele><time>2026-04-04T10:40:37.472Z</time></trkpt><trkpt lat="44.5010121" lon="8.4860241"><ele>342.0</ele><time>2026-04-04T10:40:38.472Z</time></trkpt><trkpt lat="44.5009708" lon="8.4861938"><ele>342.5</ele><time>2026-04-04T10:40:39.473Z</time></trkpt><trkpt lat="44.5009302" lon="8.4863601"><ele>343.0</ele><time>2026-04-04T10:40:40.472Z</time></trkpt><trkpt lat="44.5008844" lon="8.4865264"><ele>344.0</ele><time>2026-04-04T10:40:41.473Z</time></trkpt><trkpt lat="44.5008448" lon="8.4866902"><ele>345.0</ele><time>2026-04-04T10:40:42.473Z</time></trkpt><trkpt lat="44.500804" lon="8.486855"><ele>346.0</ele><time>2026-04-04T10:40:43.473Z</time></trkpt><trkpt lat="44.5007623" lon="8.4870151"><ele>347.0</ele><time>2026-04-04T10:40:44.473Z</time></trkpt><trkpt lat="44.5007183" lon="8.487182"><ele>347.25</ele><time>2026-04-04T10:40:45.472Z</time></trkpt><trkpt lat="44.5006749" lon="8.487356"><ele>347.5</ele><time>2026-04-04T10:40:46.473Z</time></trkpt><trkpt lat="44.5006315" lon="8.4875299"><ele>347.75</ele><time>2026-04-04T10:40:47.473Z</time></trkpt><trkpt lat="44.5005907" lon="8.4876996"><ele>348.0</ele><time>2026-04-04T10:40:48.473Z</time></trkpt><trkpt lat="44.5005501" lon="8.4878635"><ele>348.0</ele><time>2026-04-04T10:40:49.473Z</time></trkpt><trkpt lat="44.5005073" lon="8.4880266"><ele>348.0</ele><time>2026-04-04T10:40:50.473Z</time></trkpt><trkpt lat="44.5004625" lon="8.4881944"><ele>348.0</ele><time>2026-04-04T10:40:51.473Z</time></trkpt><trkpt lat="44.5004155" lon="8.4883628"><ele>348.0</ele><time>2026-04-04T10:40:52.473Z</time></trkpt><trkpt lat="44.5003641" lon="8.4885336"><ele>347.25</ele><time>2026-04-04T10:40:53.473Z</time></trkpt><trkpt lat="44.5003123" lon="8.4887115"><ele>346.5</ele><time>2026-04-04T10:40:54.472Z</time></trkpt><trkpt lat="44.5002617" lon="8.4888959"><ele>345.75</ele><time>2026-04-04T10:40:55.473Z</time></trkpt><trkpt lat="44.5002119" lon="8.4890921"><ele>345.0</ele><time>2026-04-04T10:40:56.473Z</time></trkpt><trkpt lat="44.5001643" lon="8.4892903"><ele>345.0</ele><time>2026-04-04T10:40:57.473Z</time></trkpt><trkpt lat="44.5001133" lon="8.4894882"><ele>345.0</ele><time>2026-04-04T10:40:58.473Z</time></trkpt><trkpt lat="44.5000583" lon="8.4896915"><ele>345.0</ele><time>2026-04-04T10:40:59.473Z</time></trkpt><trkpt lat="44.5000021" lon="8.4898952"><ele>344.6666666666667</ele><time>2026-04-04T10:41:00.474Z</time></trkpt><trkpt lat="44.4999476" lon="8.4900962"><ele>344.33333333333337</ele><time>2026-04-04T10:41:01.473Z</time></trkpt><trkpt lat="44.4998964" lon="8.4902958"><ele>344.0</ele><time>2026-04-04T10:41:02.473Z</time></trkpt><trkpt lat="44.4998443" lon="8.4904891"><ele>344.0</ele><time>2026-04-04T10:41:03.473Z</time></trkpt><trkpt lat="44.4997901" lon="8.4906798"><ele>344.0</ele><time>2026-04-04T10:41:04.473Z</time></trkpt><trkpt lat="44.4997283" lon="8.4908701"><ele>344.0</ele><time>2026-04-04T10:41:05.473Z</time></trkpt><trkpt lat="44.4996604" lon="8.4910585"><ele>344.0</ele><time>2026-04-04T10:41:06.472Z</time></trkpt><trkpt lat="44.4995879" lon="8.4912484"><ele>344.33333333333337</ele><time>2026-04-04T10:41:07.472Z</time></trkpt><trkpt lat="44.499512" lon="8.4914385"><ele>344.6666666666667</ele><time>2026-04-04T10:41:08.474Z</time></trkpt><trkpt lat="44.4994356" lon="8.4916205"><ele>345.0</ele><time>2026-04-04T10:41:09.472Z</time></trkpt><trkpt lat="44.4993601" lon="8.4917917"><ele>345.0</ele><time>2026-04-04T10:41:10.473Z</time></trkpt><trkpt lat="44.4992876" lon="8.4919543"><ele>345.0</ele><time>2026-04-04T10:41:11.473Z</time></trkpt><trkpt lat="44.4992188" lon="8.4921074"><ele>345.0</ele><time>2026-04-04T10:41:12.473Z</time></trkpt><trkpt lat="44.4991547" lon="8.4922567"><ele>345.0</ele><time>2026-04-04T10:41:13.473Z</time></trkpt><trkpt lat="44.4990902" lon="8.4924092"><ele>345.5</ele><time>2026-04-04T10:41:14.473Z</time></trkpt><trkpt lat="44.4990257" lon="8.4925665"><ele>346.0</ele><time>2026-04-04T10:41:15.473Z</time></trkpt><trkpt lat="44.4989593" lon="8.4927271"><ele>346.5</ele><time>2026-04-04T10:41:16.474Z</time></trkpt><trkpt lat="44.4988919" lon="8.4928896"><ele>347.0</ele><time>2026-04-04T10:41:17.474Z</time></trkpt><trkpt lat="44.498824" lon="8.4930494"><ele>347.75</ele><time>2026-04-04T10:41:18.473Z</time></trkpt><trkpt lat="44.4987577" lon="8.493205"><ele>348.5</ele><time>2026-04-04T10:41:19.473Z</time></trkpt><trkpt lat="44.4986938" lon="8.4933551"><ele>349.25</ele><time>2026-04-04T10:41:20.474Z</time></trkpt><trkpt lat="44.4986316" lon="8.4934987"><ele>350.0</ele><time>2026-04-04T10:41:21.473Z</time></trkpt><trkpt lat="44.4985728" lon="8.4936409"><ele>350.5</ele><time>2026-04-04T10:41:22.473Z</time></trkpt><trkpt lat="44.4985162" lon="8.4937881"><ele>351.0</ele><time>2026-04-04T10:41:23.473Z</time></trkpt><trkpt lat="44.4984594" lon="8.4939407"><ele>351.5</ele><time>2026-04-04T10:41:24.474Z</time></trkpt><trkpt lat="44.4983995" lon="8.4940976"><ele>352.0</ele><time>2026-04-04T10:41:25.474Z</time></trkpt><trkpt lat="44.4983344" lon="8.4942561"><ele>352.0</ele><time>2026-04-04T10:41:26.474Z</time></trkpt><trkpt lat="44.4982662" lon="8.4944171"><ele>352.0</ele><time>2026-04-04T10:41:27.474Z</time></trkpt><trkpt lat="44.4981998" lon="8.4945792"><ele>352.0</ele><time>2026-04-04T10:41:28.473Z</time></trkpt><trkpt lat="44.498134" lon="8.4947426"><ele>352.0</ele><time>2026-04-04T10:41:29.474Z</time></trkpt><trkpt lat="44.4980676" lon="8.4949091"><ele>351.75</ele><time>2026-04-04T10:41:30.473Z</time></trkpt><trkpt lat="44.4979999" lon="8.4950786"><ele>351.5</ele><time>2026-04-04T10:41:31.474Z</time></trkpt><trkpt lat="44.4979302" lon="8.4952547"><ele>351.25</ele><time>2026-04-04T10:41:32.474Z</time></trkpt><trkpt lat="44.4978572" lon="8.4954349"><ele>351.0</ele><time>2026-04-04T10:41:33.474Z</time></trkpt><trkpt lat="44.4977852" lon="8.4956158"><ele>351.0</ele><time>2026-04-04T10:41:34.474Z</time></trkpt><trkpt lat="44.4977118" lon="8.4957918"><ele>351.0</ele><time>2026-04-04T10:41:35.474Z</time></trkpt><trkpt lat="44.4976275" lon="8.4959564"><ele>351.0</ele><time>2026-04-04T10:41:36.473Z</time></trkpt><trkpt lat="44.4975129" lon="8.4960932"><ele>351.0</ele><time>2026-04-04T10:41:37.474Z</time></trkpt><trkpt lat="44.4973632" lon="8.4961759"><ele>351.0</ele><time>2026-04-04T10:41:38.474Z</time></trkpt><trkpt lat="44.497201" lon="8.496216"><ele>351.0</ele><time>2026-04-04T10:41:39.474Z</time></trkpt><trkpt lat="44.4970238" lon="8.4962195"><ele>351.0</ele><time>2026-04-04T10:41:40.474Z</time></trkpt><trkpt lat="44.4968285" lon="8.4962246"><ele>351.6666666666667</ele><time>2026-04-04T10:41:41.473Z</time></trkpt><trkpt lat="44.4966203" lon="8.4962422"><ele>352.33333333333337</ele><time>2026-04-04T10:41:42.474Z</time></trkpt><trkpt lat="44.4964053" lon="8.4962655"><ele>353.0</ele><time>2026-04-04T10:41:43.474Z</time></trkpt><trkpt lat="44.4961862" lon="8.4962906"><ele>354.6666666666667</ele><time>2026-04-04T10:41:44.474Z</time></trkpt><trkpt lat="44.4959747" lon="8.4963122"><ele>356.3333333333333</ele><time>2026-04-04T10:41:45.473Z</time></trkpt><trkpt lat="44.4957765" lon="8.4963248"><ele>358.0</ele><time>2026-04-04T10:41:46.474Z</time></trkpt><trkpt lat="44.4955849" lon="8.4963231"><ele>361.3333333333333</ele><time>2026-04-04T10:41:47.473Z</time></trkpt><trkpt lat="44.4953895" lon="8.496313"><ele>364.6666666666667</ele><time>2026-04-04T10:41:48.473Z</time></trkpt><trkpt lat="44.4951971" lon="8.496307"><ele>368.0</ele><time>2026-04-04T10:41:49.474Z</time></trkpt><trkpt lat="44.4950149" lon="8.4963073"><ele>368.0</ele><time>2026-04-04T10:41:50.474Z</time></trkpt><trkpt lat="44.4948515" lon="8.4963014"><ele>368.0</ele><time>2026-04-04T10:41:51.474Z</time></trkpt><trkpt lat="44.494717" lon="8.4962916"><ele>368.0</ele><time>2026-04-04T10:41:52.474Z</time></trkpt><trkpt lat="44.4945931" lon="8.4962867"><ele>368.0</ele><time>2026-04-04T10:41:53.474Z</time></trkpt><trkpt lat="44.4944805" lon="8.4963026"><ele>367.5</ele><time>2026-04-04T10:41:54.473Z</time></trkpt><trkpt lat="44.4943625" lon="8.4963628"><ele>367.0</ele><time>2026-04-04T10:41:55.475Z</time></trkpt><trkpt lat="44.4942326" lon="8.4964653"><ele>366.5</ele><time>2026-04-04T10:41:56.474Z</time></trkpt><trkpt lat="44.4940888" lon="8.4965585"><ele>366.0</ele><time>2026-04-04T10:41:57.474Z</time></trkpt><trkpt lat="44.493935" lon="8.4966288"><ele>366.0</ele><time>2026-04-04T10:41:58.474Z</time></trkpt><trkpt lat="44.4937883" lon="8.4966992"><ele>366.0</ele><time>2026-04-04T10:41:59.474Z</time></trkpt><trkpt lat="44.4936608" lon="8.4968001"><ele>366.0</ele><time>2026-04-04T10:42:00.475Z</time></trkpt><trkpt lat="44.4935272" lon="8.4968927"><ele>366.3333333333333</ele><time>2026-04-04T10:42:01.474Z</time></trkpt><trkpt lat="44.493385" lon="8.4969477"><ele>366.66666666666663</ele><time>2026-04-04T10:42:02.474Z</time></trkpt><trkpt lat="44.4932288" lon="8.496962"><ele>367.0</ele><time>2026-04-04T10:42:03.473Z</time></trkpt><trkpt lat="44.4930644" lon="8.4969453"><ele>369.0</ele><time>2026-04-04T10:42:04.474Z</time></trkpt><trkpt lat="44.4929183" lon="8.4969209"><ele>371.0</ele><time>2026-04-04T10:42:05.473Z</time></trkpt><trkpt lat="44.4927879" lon="8.4968806"><ele>373.0</ele><time>2026-04-04T10:42:06.474Z</time></trkpt><trkpt lat="44.4926656" lon="8.4967789"><ele>375.0</ele><time>2026-04-04T10:42:07.474Z</time></trkpt><trkpt lat="44.4925636" lon="8.4966493"><ele>375.0</ele><time>2026-04-04T10:42:08.474Z</time></trkpt><trkpt lat="44.4924693" lon="8.4965286"><ele>375.0</ele><time>2026-04-04T10:42:09.474Z</time></trkpt><trkpt lat="44.4923823" lon="8.4964449"><ele>375.0</ele><time>2026-04-04T10:42:10.474Z</time></trkpt><trkpt lat="44.4922928" lon="8.4964281"><ele>375.0</ele><time>2026-04-04T10:42:11.473Z</time></trkpt><trkpt lat="44.4922113" lon="8.4964836"><ele>375.0</ele><time>2026-04-04T10:42:12.475Z</time></trkpt><trkpt lat="44.4921252" lon="8.4965934"><ele>375.6666666666667</ele><time>2026-04-04T10:42:13.474Z</time></trkpt><trkpt lat="44.4920246" lon="8.4967392"><ele>376.33333333333337</ele><time>2026-04-04T10:42:14.475Z</time></trkpt><trkpt lat="44.4918931" lon="8.4968704"><ele>377.0</ele><time>2026-04-04T10:42:15.474Z</time></trkpt><trkpt lat="44.4917447" lon="8.4969644"><ele>377.0</ele><time>2026-04-04T10:42:16.475Z</time></trkpt><trkpt lat="44.4916066" lon="8.4970244"><ele>377.0</ele><time>2026-04-04T10:42:17.475Z</time></trkpt><trkpt lat="44.4914748" lon="8.4970786"><ele>377.0</ele><time>2026-04-04T10:42:18.475Z</time></trkpt><trkpt lat="44.4913668" lon="8.4971046"><ele>377.0</ele><time>2026-04-04T10:42:19.475Z</time></trkpt><trkpt lat="44.4912668" lon="8.497074"><ele>378.6</ele><time>2026-04-04T10:42:20.475Z</time></trkpt><trkpt lat="44.4912092" lon="8.4969592"><ele>380.20000000000005</ele><time>2026-04-04T10:42:21.475Z</time></trkpt><trkpt lat="44.4911885" lon="8.4967927"><ele>381.8</ele><time>2026-04-04T10:42:22.474Z</time></trkpt><trkpt lat="44.491177" lon="8.4966406"><ele>383.4</ele><time>2026-04-04T10:42:23.474Z</time></trkpt><trkpt lat="44.4911589" lon="8.4965252"><ele>385.0</ele><time>2026-04-04T10:42:24.474Z</time></trkpt><trkpt lat="44.4911215" lon="8.4964232"><ele>385.00000000000006</ele><time>2026-04-04T10:42:25.474Z</time></trkpt><trkpt lat="44.4910693" lon="8.4963272"><ele>385.0</ele><time>2026-04-04T10:42:26.475Z</time></trkpt><trkpt lat="44.4910071" lon="8.4962526"><ele>385.0</ele><time>2026-04-04T10:42:27.475Z</time></trkpt><trkpt lat="44.4909329" lon="8.4962093"><ele>385.0</ele><time>2026-04-04T10:42:28.475Z</time></trkpt><trkpt lat="44.4908576" lon="8.4961884"><ele>385.00000000000006</ele><time>2026-04-04T10:42:29.475Z</time></trkpt><trkpt lat="44.4907719" lon="8.4962397"><ele>385.0</ele><time>2026-04-04T10:42:30.475Z</time></trkpt><trkpt lat="44.490704" lon="8.4963462"><ele>385.0</ele><time>2026-04-04T10:42:31.474Z</time></trkpt><trkpt lat="44.4906714" lon="8.4965058"><ele>385.0</ele><time>2026-04-04T10:42:32.475Z</time></trkpt><trkpt lat="44.4906498" lon="8.4966846"><ele>385.0</ele><time>2026-04-04T10:42:33.474Z</time></trkpt><trkpt lat="44.4906082" lon="8.4968411"><ele>385.0</ele><time>2026-04-04T10:42:34.475Z</time></trkpt><trkpt lat="44.4904996" lon="8.4969826"><ele>384.33333333333337</ele><time>2026-04-04T10:42:35.474Z</time></trkpt><trkpt lat="44.4903589" lon="8.4970545"><ele>383.6666666666667</ele><time>2026-04-04T10:42:36.475Z</time></trkpt><trkpt lat="44.4902048" lon="8.4970768"><ele>383.0</ele><time>2026-04-04T10:42:37.475Z</time></trkpt><trkpt lat="44.4900561" lon="8.4970873"><ele>385.75</ele><time>2026-04-04T10:42:38.475Z</time></trkpt><trkpt lat="44.4899237" lon="8.4971238"><ele>388.5</ele><time>2026-04-04T10:42:39.474Z</time></trkpt><trkpt lat="44.4898106" lon="8.4972177"><ele>391.25</ele><time>2026-04-04T10:42:40.475Z</time></trkpt><trkpt lat="44.4897066" lon="8.4973584"><ele>394.0</ele><time>2026-04-04T10:42:41.475Z</time></trkpt><trkpt lat="44.4896095" lon="8.4975288"><ele>394.5</ele><time>2026-04-04T10:42:42.475Z</time></trkpt><trkpt lat="44.4895171" lon="8.4976996"><ele>395.0</ele><time>2026-04-04T10:42:43.474Z</time></trkpt><trkpt lat="44.4894079" lon="8.4978433"><ele>395.5</ele><time>2026-04-04T10:42:44.475Z</time></trkpt><trkpt lat="44.4892809" lon="8.4979288"><ele>396.0</ele><time>2026-04-04T10:42:45.474Z</time></trkpt><trkpt lat="44.4891374" lon="8.4979474"><ele>396.0</ele><time>2026-04-04T10:42:46.475Z</time></trkpt><trkpt lat="44.4889918" lon="8.4978739"><ele>396.0</ele><time>2026-04-04T10:42:47.475Z</time></trkpt><trkpt lat="44.4888623" lon="8.4977346"><ele>396.0</ele><time>2026-04-04T10:42:48.474Z</time></trkpt><trkpt lat="44.488765" lon="8.4975973"><ele>400.0</ele><time>2026-04-04T10:42:49.474Z</time></trkpt><trkpt lat="44.4886966" lon="8.4974485"><ele>404.0</ele><time>2026-04-04T10:42:50.475Z</time></trkpt><trkpt lat="44.4886094" lon="8.497319"><ele>408.0</ele><time>2026-04-04T10:42:51.474Z</time></trkpt><trkpt lat="44.4885063" lon="8.4972479"><ele>412.0</ele><time>2026-04-04T10:42:52.475Z</time></trkpt><trkpt lat="44.4883939" lon="8.4972439"><ele>412.0</ele><time>2026-04-04T10:42:53.475Z</time></trkpt><trkpt lat="44.4882861" lon="8.4972879"><ele>412.0</ele><time>2026-04-04T10:42:54.476Z</time></trkpt><trkpt lat="44.488198" lon="8.4973673"><ele>412.0</ele><time>2026-04-04T10:42:55.475Z</time></trkpt><trkpt lat="44.488123" lon="8.497454"><ele>412.0</ele><time>2026-04-04T10:42:56.476Z</time></trkpt><trkpt lat="44.4880294" lon="8.4975076"><ele>412.0</ele><time>2026-04-04T10:42:57.475Z</time></trkpt><trkpt lat="44.487926" lon="8.4974964"><ele>413.20000000000005</ele><time>2026-04-04T10:42:58.475Z</time></trkpt><trkpt lat="44.4878455" lon="8.4974213"><ele>414.4</ele><time>2026-04-04T10:42:59.475Z</time></trkpt><trkpt lat="44.4877877" lon="8.4973218"><ele>415.6</ele><time>2026-04-04T10:43:00.474Z</time></trkpt><trkpt lat="44.4877294" lon="8.4972329"><ele>416.79999999999995</ele><time>2026-04-04T10:43:01.475Z</time></trkpt><trkpt lat="44.487657" lon="8.4971685"><ele>418.0</ele><time>2026-04-04T10:43:02.474Z</time></trkpt><trkpt lat="44.4875712" lon="8.4971151"><ele>418.0</ele><time>2026-04-04T10:43:03.475Z</time></trkpt><trkpt lat="44.4874688" lon="8.4970867"><ele>418.0</ele><time>2026-04-04T10:43:04.475Z</time></trkpt><trkpt lat="44.4873522" lon="8.4970745"><ele>418.0</ele><time>2026-04-04T10:43:05.475Z</time></trkpt><trkpt lat="44.4872279" lon="8.4970775"><ele>418.0</ele><time>2026-04-04T10:43:06.474Z</time></trkpt><trkpt lat="44.4870974" lon="8.497101"><ele>417.0</ele><time>2026-04-04T10:43:07.476Z</time></trkpt><trkpt lat="44.4869642" lon="8.4971765"><ele>416.0</ele><time>2026-04-04T10:43:08.475Z</time></trkpt><trkpt lat="44.4868264" lon="8.4972588"><ele>415.0</ele><time>2026-04-04T10:43:09.475Z</time></trkpt><trkpt lat="44.48669" lon="8.4973347"><ele>414.0</ele><time>2026-04-04T10:43:10.475Z</time></trkpt><trkpt lat="44.4865447" lon="8.4973917"><ele>414.0</ele><time>2026-04-04T10:43:11.476Z</time></trkpt><trkpt lat="44.4864046" lon="8.4974047"><ele>414.0</ele><time>2026-04-04T10:43:12.474Z</time></trkpt><trkpt lat="44.4862685" lon="8.4973776"><ele>414.0</ele><time>2026-04-04T10:43:13.474Z</time></trkpt><trkpt lat="44.4861439" lon="8.4973272"><ele>414.0</ele><time>2026-04-04T10:43:14.475Z</time></trkpt><trkpt lat="44.4860175" lon="8.4972671"><ele>413.25</ele><time>2026-04-04T10:43:15.475Z</time></trkpt><trkpt lat="44.4858879" lon="8.4972017"><ele>412.5</ele><time>2026-04-04T10:43:16.475Z</time></trkpt><trkpt lat="44.4857554" lon="8.4971391"><ele>411.75</ele><time>2026-04-04T10:43:17.475Z</time></trkpt><trkpt lat="44.4856192" lon="8.4970682"><ele>411.0</ele><time>2026-04-04T10:43:18.475Z</time></trkpt><trkpt lat="44.485481" lon="8.4969867"><ele>407.66666666666663</ele><time>2026-04-04T10:43:19.476Z</time></trkpt><trkpt lat="44.4853477" lon="8.49689"><ele>404.3333333333333</ele><time>2026-04-04T10:43:20.475Z</time></trkpt><trkpt lat="44.4852212" lon="8.4967859"><ele>401.0</ele><time>2026-04-04T10:43:21.476Z</time></trkpt><trkpt lat="44.4850886" lon="8.4966635"><ele>401.0</ele><time>2026-04-04T10:43:22.475Z</time></trkpt><trkpt lat="44.4849632" lon="8.4965337"><ele>401.0</ele><time>2026-04-04T10:43:23.476Z</time></trkpt><trkpt lat="44.4848575" lon="8.49639"><ele>401.0</ele><time>2026-04-04T10:43:24.476Z</time></trkpt><trkpt lat="44.4847739" lon="8.4962414"><ele>401.0</ele><time>2026-04-04T10:43:25.475Z</time></trkpt><trkpt lat="44.4847187" lon="8.4960917"><ele>401.0</ele><time>2026-04-04T10:43:26.476Z</time></trkpt><trkpt lat="44.4847001" lon="8.4959276"><ele>401.0</ele><time>2026-04-04T10:43:27.476Z</time></trkpt><trkpt lat="44.4847188" lon="8.4957397"><ele>401.0</ele><time>2026-04-04T10:43:28.476Z</time></trkpt><trkpt lat="44.4847603" lon="8.4955532"><ele>401.0</ele><time>2026-04-04T10:43:29.476Z</time></trkpt><trkpt lat="44.4847981" lon="8.4953874"><ele>401.0</ele><time>2026-04-04T10:43:30.476Z</time></trkpt><trkpt lat="44.4848168" lon="8.4952362"><ele>401.0</ele><time>2026-04-04T10:43:31.476Z</time></trkpt><trkpt lat="44.4848088" lon="8.4950737"><ele>401.0</ele><time>2026-04-04T10:43:32.475Z</time></trkpt><trkpt lat="44.4847446" lon="8.494941"><ele>401.0</ele><time>2026-04-04T10:43:33.475Z</time></trkpt><trkpt lat="44.4846373" lon="8.4948563"><ele>397.75</ele><time>2026-04-04T10:43:34.474Z</time></trkpt><trkpt lat="44.4844892" lon="8.4948188"><ele>394.5</ele><time>2026-04-04T10:43:35.476Z</time></trkpt><trkpt lat="44.4843522" lon="8.4948142"><ele>391.25</ele><time>2026-04-04T10:43:36.475Z</time></trkpt><trkpt lat="44.4842224" lon="8.4947988"><ele>388.0</ele><time>2026-04-04T10:43:37.476Z</time></trkpt><trkpt lat="44.4841019" lon="8.4947167"><ele>387.0</ele><time>2026-04-04T10:43:38.476Z</time></trkpt><trkpt lat="44.4839845" lon="8.4945862"><ele>386.0</ele><time>2026-04-04T10:43:39.475Z</time></trkpt><trkpt lat="44.4838601" lon="8.4944404"><ele>385.0</ele><time>2026-04-04T10:43:40.476Z</time></trkpt><trkpt lat="44.4837378" lon="8.4943138"><ele>385.0</ele><time>2026-04-04T10:43:41.476Z</time></trkpt><trkpt lat="44.4836305" lon="8.4942167"><ele>385.0</ele><time>2026-04-04T10:43:42.476Z</time></trkpt><trkpt lat="44.4835421" lon="8.494133"><ele>385.0</ele><time>2026-04-04T10:43:43.475Z</time></trkpt><trkpt lat="44.4834721" lon="8.4940318"><ele>385.0</ele><time>2026-04-04T10:43:44.476Z</time></trkpt><trkpt lat="44.483444" lon="8.4938926"><ele>385.0</ele><time>2026-04-04T10:43:45.475Z</time></trkpt><trkpt lat="44.4834349" lon="8.49372"><ele>385.75</ele><time>2026-04-04T10:43:46.476Z</time></trkpt><trkpt lat="44.4834297" lon="8.4935227"><ele>386.5</ele><time>2026-04-04T10:43:47.476Z</time></trkpt><trkpt lat="44.483412" lon="8.4933387"><ele>387.25</ele><time>2026-04-04T10:43:48.476Z</time></trkpt><trkpt lat="44.4833706" lon="8.4931659"><ele>388.0</ele><time>2026-04-04T10:43:49.476Z</time></trkpt><trkpt lat="44.4833019" lon="8.4930143"><ele>388.0</ele><time>2026-04-04T10:43:50.475Z</time></trkpt><trkpt lat="44.4832002" lon="8.4929026"><ele>388.0</ele><time>2026-04-04T10:43:51.476Z</time></trkpt><trkpt lat="44.4830733" lon="8.4928023"><ele>388.0</ele><time>2026-04-04T10:43:52.476Z</time></trkpt><trkpt lat="44.4829455" lon="8.4927448"><ele>388.0</ele><time>2026-04-04T10:43:53.476Z</time></trkpt><trkpt lat="44.4828016" lon="8.4926942"><ele>388.0</ele><time>2026-04-04T10:43:54.476Z</time></trkpt><trkpt lat="44.4826445" lon="8.4926657"><ele>388.0</ele><time>2026-04-04T10:43:55.476Z</time></trkpt><trkpt lat="44.4824942" lon="8.4926347"><ele>388.0</ele><time>2026-04-04T10:43:56.476Z</time></trkpt><trkpt lat="44.4823541" lon="8.4925996"><ele>388.0</ele><time>2026-04-04T10:43:57.476Z</time></trkpt><trkpt lat="44.4822298" lon="8.4925586"><ele>388.0</ele><time>2026-04-04T10:43:58.476Z</time></trkpt><trkpt lat="44.4821285" lon="8.4924792"><ele>388.0</ele><time>2026-04-04T10:43:59.476Z</time></trkpt><trkpt lat="44.4820502" lon="8.4923586"><ele>388.0</ele><time>2026-04-04T10:44:00.477Z</time></trkpt><trkpt lat="44.4819951" lon="8.4921886"><ele>384.0</ele><time>2026-04-04T10:44:01.476Z</time></trkpt><trkpt lat="44.4819589" lon="8.4919904"><ele>380.0</ele><time>2026-04-04T10:44:02.476Z</time></trkpt><trkpt lat="44.4819414" lon="8.4917726"><ele>376.0</ele><time>2026-04-04T10:44:03.477Z</time></trkpt><trkpt lat="44.4819245" lon="8.4915639"><ele>376.0</ele><time>2026-04-04T10:44:04.477Z</time></trkpt><trkpt lat="44.4819078" lon="8.4913569"><ele>376.0</ele><time>2026-04-04T10:44:05.476Z</time></trkpt><trkpt lat="44.4818917" lon="8.491171"><ele>376.0</ele><time>2026-04-04T10:44:06.476Z</time></trkpt><trkpt lat="44.48188" lon="8.4909855"><ele>376.0</ele><time>2026-04-04T10:44:07.475Z</time></trkpt><trkpt lat="44.4818633" lon="8.4908189"><ele>375.75</ele><time>2026-04-04T10:44:08.476Z</time></trkpt><trkpt lat="44.4818334" lon="8.4906517"><ele>375.5</ele><time>2026-04-04T10:44:09.476Z</time></trkpt><trkpt lat="44.4817822" lon="8.4904879"><ele>375.25</ele><time>2026-04-04T10:44:10.476Z</time></trkpt><trkpt lat="44.4817054" lon="8.4903332"><ele>375.0</ele><time>2026-04-04T10:44:11.476Z</time></trkpt><trkpt lat="44.4816186" lon="8.4901998"><ele>373.75</ele><time>2026-04-04T10:44:12.476Z</time></trkpt><trkpt lat="44.481519" lon="8.4900987"><ele>372.5</ele><time>2026-04-04T10:44:13.475Z</time></trkpt><trkpt lat="44.4814076" lon="8.4900363"><ele>371.25</ele><time>2026-04-04T10:44:14.477Z</time></trkpt><trkpt lat="44.4812903" lon="8.4900095"><ele>370.0</ele><time>2026-04-04T10:44:15.477Z</time></trkpt><trkpt lat="44.4811553" lon="8.4900325"><ele>369.75</ele><time>2026-04-04T10:44:16.476Z</time></trkpt><trkpt lat="44.4810249" lon="8.4900654"><ele>369.5</ele><time>2026-04-04T10:44:17.476Z</time></trkpt><trkpt lat="44.4809008" lon="8.4900927"><ele>369.25</ele><time>2026-04-04T10:44:18.475Z</time></trkpt><trkpt lat="44.4807903" lon="8.4901107"><ele>369.0</ele><time>2026-04-04T10:44:19.476Z</time></trkpt><trkpt lat="44.4806848" lon="8.4901229"><ele>369.0</ele><time>2026-04-04T10:44:20.476Z</time></trkpt><trkpt lat="44.4805768" lon="8.4901323"><ele>369.0</ele><time>2026-04-04T10:44:21.477Z</time></trkpt><trkpt lat="44.4804721" lon="8.4901409"><ele>369.0</ele><time>2026-04-04T10:44:22.476Z</time></trkpt><trkpt lat="44.480368" lon="8.4901505"><ele>369.0</ele><time>2026-04-04T10:44:23.476Z</time></trkpt><trkpt lat="44.4802683" lon="8.4901604"><ele>369.0</ele><time>2026-04-04T10:44:24.476Z</time></trkpt><trkpt lat="44.4801778" lon="8.490168"><ele>370.3333333333333</ele><time>2026-04-04T10:44:25.477Z</time></trkpt><trkpt lat="44.4800859" lon="8.4901691"><ele>371.6666666666667</ele><time>2026-04-04T10:44:26.476Z</time></trkpt><trkpt lat="44.4799896" lon="8.4901686"><ele>373.0</ele><time>2026-04-04T10:44:27.476Z</time></trkpt><trkpt lat="44.4798975" lon="8.4901654"><ele>374.33333333333337</ele><time>2026-04-04T10:44:28.476Z</time></trkpt><trkpt lat="44.4798166" lon="8.4901623"><ele>375.6666666666667</ele><time>2026-04-04T10:44:29.475Z</time></trkpt><trkpt lat="44.4797432" lon="8.4901646"><ele>377.0</ele><time>2026-04-04T10:44:30.476Z</time></trkpt><trkpt lat="44.4796778" lon="8.4901734"><ele>378.83333333333337</ele><time>2026-04-04T10:44:31.476Z</time></trkpt><trkpt lat="44.4795701" lon="8.4901829"><ele>380.6666666666667</ele><time>2026-04-04T10:44:33.476Z</time></trkpt><trkpt lat="44.4794953" lon="8.4901792"><ele>382.5</ele><time>2026-04-04T10:44:35.476Z</time></trkpt><trkpt lat="44.4794193" lon="8.4902457"><ele>384.33333333333337</ele><time>2026-04-04T10:44:38.476Z</time></trkpt><trkpt lat="44.4793853" lon="8.4903455"><ele>386.1666666666667</ele><time>2026-04-04T10:44:39.476Z</time></trkpt><trkpt lat="44.47938" lon="8.4904604"><ele>388.0</ele><time>2026-04-04T10:44:40.477Z</time></trkpt><trkpt lat="44.4793933" lon="8.4905692"><ele>388.0</ele><time>2026-04-04T10:44:41.476Z</time></trkpt><trkpt lat="44.4794116" lon="8.4906611"><ele>388.0</ele><time>2026-04-04T10:44:42.477Z</time></trkpt><trkpt lat="44.4794369" lon="8.4907976"><ele>388.0</ele><time>2026-04-04T10:44:44.476Z</time></trkpt><trkpt lat="44.4794654" lon="8.4909473"><ele>388.0</ele><time>2026-04-04T10:44:46.477Z</time></trkpt><trkpt lat="44.4794837" lon="8.4910526"><ele>388.0</ele><time>2026-04-04T10:44:47.476Z</time></trkpt><trkpt lat="44.4795063" lon="8.4911806"><ele>388.2</ele><time>2026-04-04T10:44:48.476Z</time></trkpt><trkpt lat="44.4795296" lon="8.4913235"><ele>388.4</ele><time>2026-04-04T10:44:49.477Z</time></trkpt><trkpt lat="44.4795519" lon="8.4914682"><ele>388.59999999999997</ele><time>2026-04-04T10:44:50.477Z</time></trkpt><trkpt lat="44.479572" lon="8.4916159"><ele>388.79999999999995</ele><time>2026-04-04T10:44:51.477Z</time></trkpt><trkpt lat="44.4795884" lon="8.4917575"><ele>389.0</ele><time>2026-04-04T10:44:52.477Z</time></trkpt><trkpt lat="44.4796087" lon="8.4918885"><ele>388.16666666666663</ele><time>2026-04-04T10:44:53.477Z</time></trkpt><trkpt lat="44.4796356" lon="8.4920029"><ele>387.3333333333333</ele><time>2026-04-04T10:44:54.477Z</time></trkpt><trkpt lat="44.4796674" lon="8.4921052"><ele>386.5</ele><time>2026-04-04T10:44:55.477Z</time></trkpt><trkpt lat="44.4797011" lon="8.4922131"><ele>385.66666666666663</ele><time>2026-04-04T10:44:56.477Z</time></trkpt><trkpt lat="44.4797394" lon="8.4923307"><ele>384.8333333333333</ele><time>2026-04-04T10:44:57.477Z</time></trkpt><trkpt lat="44.4797827" lon="8.4924664"><ele>384.0</ele><time>2026-04-04T10:44:58.477Z</time></trkpt><trkpt lat="44.4798206" lon="8.4926192"><ele>384.0</ele><time>2026-04-04T10:44:59.477Z</time></trkpt><trkpt lat="44.4798653" lon="8.492788"><ele>384.0</ele><time>2026-04-04T10:45:00.477Z</time></trkpt><trkpt lat="44.4799133" lon="8.4929618"><ele>384.0</ele><time>2026-04-04T10:45:01.477Z</time></trkpt><trkpt lat="44.4799603" lon="8.4931359"><ele>384.0</ele><time>2026-04-04T10:45:02.477Z</time></trkpt><trkpt lat="44.4800106" lon="8.4933161"><ele>386.0</ele><time>2026-04-04T10:45:03.477Z</time></trkpt><trkpt lat="44.4800648" lon="8.4935067"><ele>388.0</ele><time>2026-04-04T10:45:04.476Z</time></trkpt><trkpt lat="44.4801247" lon="8.4937061"><ele>390.0</ele><time>2026-04-04T10:45:05.477Z</time></trkpt><trkpt lat="44.4801968" lon="8.4938997"><ele>386.6666666666667</ele><time>2026-04-04T10:45:06.477Z</time></trkpt><trkpt lat="44.4802849" lon="8.4940833"><ele>383.33333333333337</ele><time>2026-04-04T10:45:07.477Z</time></trkpt><trkpt lat="44.4803938" lon="8.4942534"><ele>380.0</ele><time>2026-04-04T10:45:08.477Z</time></trkpt><trkpt lat="44.4805189" lon="8.4943993"><ele>380.0</ele><time>2026-04-04T10:45:09.477Z</time></trkpt><trkpt lat="44.4806609" lon="8.494527"><ele>380.0</ele><time>2026-04-04T10:45:10.477Z</time></trkpt><trkpt lat="44.4808118" lon="8.4946412"><ele>380.0</ele><time>2026-04-04T10:45:11.477Z</time></trkpt><trkpt lat="44.4809641" lon="8.4947521"><ele>379.33333333333337</ele><time>2026-04-04T10:45:12.477Z</time></trkpt><trkpt lat="44.4811083" lon="8.4948633"><ele>378.6666666666667</ele><time>2026-04-04T10:45:13.477Z</time></trkpt><trkpt lat="44.4812411" lon="8.4949772"><ele>378.0</ele><time>2026-04-04T10:45:14.477Z</time></trkpt><trkpt lat="44.4813621" lon="8.4950954"><ele>378.0</ele><time>2026-04-04T10:45:15.478Z</time></trkpt><trkpt lat="44.481473" lon="8.4952239"><ele>378.0</ele><time>2026-04-04T10:45:16.478Z</time></trkpt><trkpt lat="44.481572" lon="8.4953773"><ele>378.0</ele><time>2026-04-04T10:45:17.478Z</time></trkpt><trkpt lat="44.4816617" lon="8.4955565"><ele>378.0</ele><time>2026-04-04T10:45:18.478Z</time></trkpt><trkpt lat="44.4817496" lon="8.4957518"><ele>380.33333333333337</ele><time>2026-04-04T10:45:19.478Z</time></trkpt><trkpt lat="44.481835" lon="8.4959567"><ele>382.6666666666667</ele><time>2026-04-04T10:45:20.476Z</time></trkpt><trkpt lat="44.4819223" lon="8.4961679"><ele>385.0</ele><time>2026-04-04T10:45:21.477Z</time></trkpt><trkpt lat="44.482013" lon="8.4963768"><ele>383.6666666666667</ele><time>2026-04-04T10:45:22.477Z</time></trkpt><trkpt lat="44.482104" lon="8.4965797"><ele>382.33333333333337</ele><time>2026-04-04T10:45:23.477Z</time></trkpt><trkpt lat="44.4821923" lon="8.4967818"><ele>381.0</ele><time>2026-04-04T10:45:24.477Z</time></trkpt><trkpt lat="44.4822726" lon="8.4969932"><ele>382.0</ele><time>2026-04-04T10:45:25.477Z</time></trkpt><trkpt lat="44.4823443" lon="8.4972091"><ele>383.0</ele><time>2026-04-04T10:45:26.478Z</time></trkpt><trkpt lat="44.4824059" lon="8.4974154"><ele>384.0</ele><time>2026-04-04T10:45:27.478Z</time></trkpt><trkpt lat="44.4824635" lon="8.497612"><ele>384.0</ele><time>2026-04-04T10:45:28.477Z</time></trkpt><trkpt lat="44.482519" lon="8.4978039"><ele>384.0</ele><time>2026-04-04T10:45:29.478Z</time></trkpt><trkpt lat="44.4825767" lon="8.4979999"><ele>384.0</ele><time>2026-04-04T10:45:30.478Z</time></trkpt><trkpt lat="44.4826369" lon="8.4982036"><ele>384.66666666666663</ele><time>2026-04-04T10:45:31.477Z</time></trkpt><trkpt lat="44.4827046" lon="8.4984154"><ele>385.3333333333333</ele><time>2026-04-04T10:45:32.477Z</time></trkpt><trkpt lat="44.4827856" lon="8.4986306"><ele>386.0</ele><time>2026-04-04T10:45:33.477Z</time></trkpt><trkpt lat="44.4828814" lon="8.4988491"><ele>385.0</ele><time>2026-04-04T10:45:34.477Z</time></trkpt><trkpt lat="44.4829864" lon="8.4990592"><ele>384.0</ele><time>2026-04-04T10:45:35.478Z</time></trkpt><trkpt lat="44.4830949" lon="8.4992626"><ele>383.0</ele><time>2026-04-04T10:45:36.478Z</time></trkpt><trkpt lat="44.4832051" lon="8.4994642"><ele>383.6666666666667</ele><time>2026-04-04T10:45:37.477Z</time></trkpt><trkpt lat="44.483311" lon="8.4996576"><ele>384.33333333333337</ele><time>2026-04-04T10:45:38.477Z</time></trkpt><trkpt lat="44.4834088" lon="8.4998412"><ele>385.0</ele><time>2026-04-04T10:45:39.478Z</time></trkpt><trkpt lat="44.4834918" lon="8.5000254"><ele>385.0</ele><time>2026-04-04T10:45:40.478Z</time></trkpt><trkpt lat="44.4835456" lon="8.500223"><ele>385.0</ele><time>2026-04-04T10:45:41.477Z</time></trkpt><trkpt lat="44.4835662" lon="8.5004344"><ele>385.0</ele><time>2026-04-04T10:45:42.477Z</time></trkpt><trkpt lat="44.4835719" lon="8.5006543"><ele>385.0</ele><time>2026-04-04T10:45:43.477Z</time></trkpt><trkpt lat="44.4835754" lon="8.5008648"><ele>385.0</ele><time>2026-04-04T10:45:44.478Z</time></trkpt><trkpt lat="44.4835817" lon="8.5010586"><ele>385.0</ele><time>2026-04-04T10:45:45.478Z</time></trkpt><trkpt lat="44.4835965" lon="8.5012508"><ele>385.0</ele><time>2026-04-04T10:45:46.478Z</time></trkpt><trkpt lat="44.4836299" lon="8.5014433"><ele>385.0</ele><time>2026-04-04T10:45:47.478Z</time></trkpt><trkpt lat="44.4836837" lon="8.5016279"><ele>385.0</ele><time>2026-04-04T10:45:48.478Z</time></trkpt><trkpt lat="44.4837721" lon="8.5017938"><ele>385.0</ele><time>2026-04-04T10:45:49.478Z</time></trkpt><trkpt lat="44.48388" lon="8.501957"><ele>385.0</ele><time>2026-04-04T10:45:50.478Z</time></trkpt><trkpt lat="44.4839783" lon="8.5021173"><ele>386.0</ele><time>2026-04-04T10:45:51.477Z</time></trkpt><trkpt lat="44.4840526" lon="8.5023012"><ele>387.0</ele><time>2026-04-04T10:45:52.478Z</time></trkpt><trkpt lat="44.4841041" lon="8.5025141"><ele>388.0</ele><time>2026-04-04T10:45:53.478Z</time></trkpt><trkpt lat="44.4841414" lon="8.5027227"><ele>388.75</ele><time>2026-04-04T10:45:54.478Z</time></trkpt><trkpt lat="44.4841709" lon="8.5029161"><ele>389.5</ele><time>2026-04-04T10:45:55.478Z</time></trkpt><trkpt lat="44.4841871" lon="8.5030981"><ele>390.25</ele><time>2026-04-04T10:45:56.478Z</time></trkpt><trkpt lat="44.4841825" lon="8.5032816"><ele>391.0</ele><time>2026-04-04T10:45:57.478Z</time></trkpt><trkpt lat="44.4841521" lon="8.5034536"><ele>391.0</ele><time>2026-04-04T10:45:58.477Z</time></trkpt><trkpt lat="44.4840996" lon="8.5035978"><ele>391.0</ele><time>2026-04-04T10:45:59.478Z</time></trkpt><trkpt lat="44.4840651" lon="8.5037284"><ele>391.0</ele><time>2026-04-04T10:46:00.478Z</time></trkpt><trkpt lat="44.4840618" lon="8.503851"><ele>391.0</ele><time>2026-04-04T10:46:01.478Z</time></trkpt><trkpt lat="44.4840952" lon="8.5039698"><ele>391.0</ele><time>2026-04-04T10:46:02.478Z</time></trkpt><trkpt lat="44.4841864" lon="8.5040838"><ele>390.75</ele><time>2026-04-04T10:46:03.478Z</time></trkpt><trkpt lat="44.4843" lon="8.5041785"><ele>390.5</ele><time>2026-04-04T10:46:04.477Z</time></trkpt><trkpt lat="44.4844439" lon="8.5042421"><ele>390.25</ele><time>2026-04-04T10:46:05.477Z</time></trkpt><trkpt lat="44.4845827" lon="8.5042768"><ele>390.0</ele><time>2026-04-04T10:46:06.478Z</time></trkpt><trkpt lat="44.4847229" lon="8.5042852"><ele>390.0</ele><time>2026-04-04T10:46:07.478Z</time></trkpt><trkpt lat="44.4848524" lon="8.5042445"><ele>390.0</ele><time>2026-04-04T10:46:08.478Z</time></trkpt><trkpt lat="44.4849666" lon="8.5041639"><ele>390.0</ele><time>2026-04-04T10:46:09.478Z</time></trkpt><trkpt lat="44.4850529" lon="8.5040536"><ele>390.0</ele><time>2026-04-04T10:46:10.478Z</time></trkpt><trkpt lat="44.4851118" lon="8.5039285"><ele>390.0</ele><time>2026-04-04T10:46:11.478Z</time></trkpt><trkpt lat="44.4851789" lon="8.5038126"><ele>390.0</ele><time>2026-04-04T10:46:12.477Z</time></trkpt><trkpt lat="44.4852577" lon="8.5037541"><ele>390.0</ele><time>2026-04-04T10:46:13.478Z</time></trkpt><trkpt lat="44.4853342" lon="8.5037842"><ele>390.0</ele><time>2026-04-04T10:46:14.478Z</time></trkpt><trkpt lat="44.4854152" lon="8.5038903"><ele>390.0</ele><time>2026-04-04T10:46:15.478Z</time></trkpt><trkpt lat="44.4855151" lon="8.5040377"><ele>390.0</ele><time>2026-04-04T10:46:16.478Z</time></trkpt><trkpt lat="44.485628" lon="8.5041917"><ele>390.0</ele><time>2026-04-04T10:46:17.478Z</time></trkpt><trkpt lat="44.4857426" lon="8.5043354"><ele>390.0</ele><time>2026-04-04T10:46:18.478Z</time></trkpt><trkpt lat="44.4858525" lon="8.504477"><ele>390.0</ele><time>2026-04-04T10:46:19.479Z</time></trkpt><trkpt lat="44.485963" lon="8.5046159"><ele>390.0</ele><time>2026-04-04T10:46:20.478Z</time></trkpt><trkpt lat="44.4860722" lon="8.5047579"><ele>390.0</ele><time>2026-04-04T10:46:21.479Z</time></trkpt><trkpt lat="44.4861803" lon="8.5049022"><ele>390.0</ele><time>2026-04-04T10:46:22.479Z</time></trkpt><trkpt lat="44.4862854" lon="8.5050457"><ele>390.0</ele><time>2026-04-04T10:46:23.478Z</time></trkpt><trkpt lat="44.4863855" lon="8.5051734"><ele>390.0</ele><time>2026-04-04T10:46:24.479Z</time></trkpt><trkpt lat="44.4864889" lon="8.5052783"><ele>390.0</ele><time>2026-04-04T10:46:25.478Z</time></trkpt><trkpt lat="44.4865944" lon="8.5053355"><ele>390.0</ele><time>2026-04-04T10:46:26.478Z</time></trkpt><trkpt lat="44.4867006" lon="8.5053401"><ele>390.0</ele><time>2026-04-04T10:46:27.479Z</time></trkpt><trkpt lat="44.486804" lon="8.5052777"><ele>390.0</ele><time>2026-04-04T10:46:28.478Z</time></trkpt><trkpt lat="44.4868992" lon="8.5051511"><ele>390.0</ele><time>2026-04-04T10:46:29.479Z</time></trkpt><trkpt lat="44.4869818" lon="8.5049729"><ele>390.0</ele><time>2026-04-04T10:46:30.479Z</time></trkpt><trkpt lat="44.4870657" lon="8.5048015"><ele>391.0</ele><time>2026-04-04T10:46:31.479Z</time></trkpt><trkpt lat="44.4871604" lon="8.5046669"><ele>392.0</ele><time>2026-04-04T10:46:32.478Z</time></trkpt><trkpt lat="44.4872976" lon="8.5045919"><ele>393.0</ele><time>2026-04-04T10:46:33.479Z</time></trkpt><trkpt lat="44.4874674" lon="8.5046101"><ele>393.0</ele><time>2026-04-04T10:46:34.477Z</time></trkpt><trkpt lat="44.4876409" lon="8.5047003"><ele>393.0</ele><time>2026-04-04T10:46:35.478Z</time></trkpt><trkpt lat="44.48782" lon="8.5048473"><ele>393.0</ele><time>2026-04-04T10:46:36.478Z</time></trkpt><trkpt lat="44.4880011" lon="8.5050313"><ele>393.66666666666663</ele><time>2026-04-04T10:46:37.478Z</time></trkpt><trkpt lat="44.4881681" lon="8.5052193"><ele>394.3333333333333</ele><time>2026-04-04T10:46:38.478Z</time></trkpt><trkpt lat="44.4883205" lon="8.5053891"><ele>395.0</ele><time>2026-04-04T10:46:39.479Z</time></trkpt><trkpt lat="44.4884642" lon="8.5055399"><ele>395.0</ele><time>2026-04-04T10:46:40.479Z</time></trkpt><trkpt lat="44.488607" lon="8.5056756"><ele>395.0</ele><time>2026-04-04T10:46:41.478Z</time></trkpt><trkpt lat="44.4887508" lon="8.5057999"><ele>395.0</ele><time>2026-04-04T10:46:42.479Z</time></trkpt><trkpt lat="44.4888942" lon="8.5059253"><ele>396.0</ele><time>2026-04-04T10:46:43.479Z</time></trkpt><trkpt lat="44.4890334" lon="8.5060723"><ele>397.0</ele><time>2026-04-04T10:46:44.479Z</time></trkpt><trkpt lat="44.4891539" lon="8.5062684"><ele>398.0</ele><time>2026-04-04T10:46:45.479Z</time></trkpt><trkpt lat="44.489258" lon="8.5065049"><ele>398.0</ele><time>2026-04-04T10:46:46.479Z</time></trkpt><trkpt lat="44.4893531" lon="8.5067654"><ele>398.0</ele><time>2026-04-04T10:46:47.479Z</time></trkpt><trkpt lat="44.4894454" lon="8.5070315"><ele>398.0</ele><time>2026-04-04T10:46:48.479Z</time></trkpt><trkpt lat="44.4895374" lon="8.5073084"><ele>401.3333333333333</ele><time>2026-04-04T10:46:49.479Z</time></trkpt><trkpt lat="44.4896294" lon="8.5075795"><ele>404.66666666666663</ele><time>2026-04-04T10:46:50.479Z</time></trkpt><trkpt lat="44.4897215" lon="8.507847"><ele>408.0</ele><time>2026-04-04T10:46:51.479Z</time></trkpt><trkpt lat="44.4898225" lon="8.5081146"><ele>408.0</ele><time>2026-04-04T10:46:52.479Z</time></trkpt><trkpt lat="44.4899236" lon="8.5083714"><ele>408.0</ele><time>2026-04-04T10:46:53.479Z</time></trkpt><trkpt lat="44.4900219" lon="8.508626"><ele>408.0</ele><time>2026-04-04T10:46:54.478Z</time></trkpt><trkpt lat="44.4901019" lon="8.5088689"><ele>408.33333333333337</ele><time>2026-04-04T10:46:55.479Z</time></trkpt><trkpt lat="44.4901445" lon="8.5090911"><ele>408.6666666666667</ele><time>2026-04-04T10:46:56.479Z</time></trkpt><trkpt lat="44.4901696" lon="8.5093082"><ele>409.0</ele><time>2026-04-04T10:46:57.478Z</time></trkpt><trkpt lat="44.4902034" lon="8.5095276"><ele>411.0</ele><time>2026-04-04T10:46:58.479Z</time></trkpt><trkpt lat="44.4902582" lon="8.5097468"><ele>413.0</ele><time>2026-04-04T10:46:59.479Z</time></trkpt><trkpt lat="44.4903497" lon="8.5099707"><ele>415.0</ele><time>2026-04-04T10:47:00.479Z</time></trkpt><trkpt lat="44.49047" lon="8.5101782"><ele>414.6666666666667</ele><time>2026-04-04T10:47:01.479Z</time></trkpt><trkpt lat="44.4906041" lon="8.5103751"><ele>414.33333333333337</ele><time>2026-04-04T10:47:02.479Z</time></trkpt><trkpt lat="44.4907536" lon="8.5105639"><ele>414.0</ele><time>2026-04-04T10:47:03.479Z</time></trkpt><trkpt lat="44.4909012" lon="8.5107479"><ele>414.0</ele><time>2026-04-04T10:47:04.479Z</time></trkpt><trkpt lat="44.4910504" lon="8.5109326"><ele>414.0</ele><time>2026-04-04T10:47:05.479Z</time></trkpt><trkpt lat="44.4911938" lon="8.5111223"><ele>414.0</ele><time>2026-04-04T10:47:06.48Z</time></trkpt><trkpt lat="44.4913324" lon="8.511315"><ele>414.66666666666663</ele><time>2026-04-04T10:47:07.479Z</time></trkpt><trkpt lat="44.4914703" lon="8.5115055"><ele>415.3333333333333</ele><time>2026-04-04T10:47:08.479Z</time></trkpt><trkpt lat="44.4916057" lon="8.5116988"><ele>416.0</ele><time>2026-04-04T10:47:09.478Z</time></trkpt><trkpt lat="44.4917417" lon="8.5118897"><ele>416.0</ele><time>2026-04-04T10:47:10.479Z</time></trkpt><trkpt lat="44.4918747" lon="8.5120716"><ele>416.0</ele><time>2026-04-04T10:47:11.479Z</time></trkpt><trkpt lat="44.4920025" lon="8.5122565"><ele>416.0</ele><time>2026-04-04T10:47:12.479Z</time></trkpt><trkpt lat="44.4921187" lon="8.5124526"><ele>417.3333333333333</ele><time>2026-04-04T10:47:13.479Z</time></trkpt><trkpt lat="44.4922171" lon="8.5126576"><ele>418.66666666666663</ele><time>2026-04-04T10:47:14.479Z</time></trkpt><trkpt lat="44.4923054" lon="8.5128749"><ele>420.0</ele><time>2026-04-04T10:47:15.478Z</time></trkpt><trkpt lat="44.4923965" lon="8.5130974"><ele>420.0</ele><time>2026-04-04T10:47:16.479Z</time></trkpt><trkpt lat="44.4924929" lon="8.5133168"><ele>420.0</ele><time>2026-04-04T10:47:17.479Z</time></trkpt><trkpt lat="44.4925958" lon="8.5135393"><ele>420.0</ele><time>2026-04-04T10:47:18.48Z</time></trkpt><trkpt lat="44.492688" lon="8.5137678"><ele>419.33333333333337</ele><time>2026-04-04T10:47:19.479Z</time></trkpt><trkpt lat="44.4927585" lon="8.5139964"><ele>418.6666666666667</ele><time>2026-04-04T10:47:20.48Z</time></trkpt><trkpt lat="44.492808" lon="8.5142135"><ele>418.0</ele><time>2026-04-04T10:47:21.479Z</time></trkpt><trkpt lat="44.4928484" lon="8.5144055"><ele>418.59999999999997</ele><time>2026-04-04T10:47:22.48Z</time></trkpt><trkpt lat="44.4928819" lon="8.5145767"><ele>419.2</ele><time>2026-04-04T10:47:23.48Z</time></trkpt><trkpt lat="44.4929082" lon="8.5147213"><ele>419.8</ele><time>2026-04-04T10:47:24.48Z</time></trkpt><trkpt lat="44.4929344" lon="8.5148484"><ele>420.4</ele><time>2026-04-04T10:47:25.479Z</time></trkpt><trkpt lat="44.4929693" lon="8.5149625"><ele>421.0</ele><time>2026-04-04T10:47:26.48Z</time></trkpt><trkpt lat="44.4930322" lon="8.5150793"><ele>422.0</ele><time>2026-04-04T10:47:27.48Z</time></trkpt><trkpt lat="44.4931208" lon="8.5151694"><ele>423.0</ele><time>2026-04-04T10:47:28.479Z</time></trkpt><trkpt lat="44.4932448" lon="8.5152142"><ele>424.0</ele><time>2026-04-04T10:47:29.479Z</time></trkpt><trkpt lat="44.4934108" lon="8.5152117"><ele>425.0</ele><time>2026-04-04T10:47:30.479Z</time></trkpt><trkpt lat="44.4935818" lon="8.5151962"><ele>425.0</ele><time>2026-04-04T10:47:31.479Z</time></trkpt><trkpt lat="44.4937429" lon="8.5152074"><ele>425.0</ele><time>2026-04-04T10:47:32.479Z</time></trkpt><trkpt lat="44.4939024" lon="8.5152542"><ele>425.0</ele><time>2026-04-04T10:47:33.479Z</time></trkpt><trkpt lat="44.4940522" lon="8.5153441"><ele>426.66666666666663</ele><time>2026-04-04T10:47:34.479Z</time></trkpt><trkpt lat="44.4941823" lon="8.515486"><ele>428.33333333333337</ele><time>2026-04-04T10:47:35.479Z</time></trkpt><trkpt lat="44.4942748" lon="8.5156844"><ele>430.0</ele><time>2026-04-04T10:47:36.48Z</time></trkpt><trkpt lat="44.4943464" lon="8.5159213"><ele>430.0</ele><time>2026-04-04T10:47:37.48Z</time></trkpt><trkpt lat="44.4944137" lon="8.5161713"><ele>430.0</ele><time>2026-04-04T10:47:38.479Z</time></trkpt><trkpt lat="44.4944993" lon="8.516408"><ele>430.0</ele><time>2026-04-04T10:47:39.479Z</time></trkpt><trkpt lat="44.4946134" lon="8.5166215"><ele>430.33333333333337</ele><time>2026-04-04T10:47:40.479Z</time></trkpt><trkpt lat="44.4947374" lon="8.5168192"><ele>430.66666666666663</ele><time>2026-04-04T10:47:41.48Z</time></trkpt><trkpt lat="44.4948542" lon="8.5170061"><ele>431.0</ele><time>2026-04-04T10:47:42.48Z</time></trkpt><trkpt lat="44.4949485" lon="8.5171869"><ele>431.0</ele><time>2026-04-04T10:47:43.479Z</time></trkpt><trkpt lat="44.4950243" lon="8.5173725"><ele>431.0</ele><time>2026-04-04T10:47:44.48Z</time></trkpt><trkpt lat="44.4950922" lon="8.5175714"><ele>431.0</ele><time>2026-04-04T10:47:45.48Z</time></trkpt><trkpt lat="44.4951582" lon="8.517778"><ele>429.3333333333333</ele><time>2026-04-04T10:47:46.48Z</time></trkpt><trkpt lat="44.4952294" lon="8.5179925"><ele>427.66666666666663</ele><time>2026-04-04T10:47:47.479Z</time></trkpt><trkpt lat="44.4953058" lon="8.518214"><ele>426.0</ele><time>2026-04-04T10:47:48.479Z</time></trkpt><trkpt lat="44.4953846" lon="8.518442"><ele>429.0</ele><time>2026-04-04T10:47:49.479Z</time></trkpt><trkpt lat="44.4954674" lon="8.5186729"><ele>432.0</ele><time>2026-04-04T10:47:50.48Z</time></trkpt><trkpt lat="44.4955506" lon="8.5188934"><ele>435.0</ele><time>2026-04-04T10:47:51.48Z</time></trkpt><trkpt lat="44.4956277" lon="8.5190975"><ele>435.0</ele><time>2026-04-04T10:47:52.48Z</time></trkpt><trkpt lat="44.495702" lon="8.5193008"><ele>435.0</ele><time>2026-04-04T10:47:53.48Z</time></trkpt><trkpt lat="44.4957749" lon="8.5195011"><ele>435.0</ele><time>2026-04-04T10:47:54.479Z</time></trkpt><trkpt lat="44.4958474" lon="8.5196943"><ele>434.0</ele><time>2026-04-04T10:47:55.48Z</time></trkpt><trkpt lat="44.495918" lon="8.5198813"><ele>433.0</ele><time>2026-04-04T10:47:56.48Z</time></trkpt><trkpt lat="44.495974" lon="8.5200698"><ele>432.0</ele><time>2026-04-04T10:47:57.48Z</time></trkpt><trkpt lat="44.4960059" lon="8.5202858"><ele>432.33333333333337</ele><time>2026-04-04T10:47:58.48Z</time></trkpt><trkpt lat="44.4960008" lon="8.5205156"><ele>432.6666666666667</ele><time>2026-04-04T10:47:59.48Z</time></trkpt><trkpt lat="44.4959759" lon="8.5207568"><ele>433.0</ele><time>2026-04-04T10:48:00.48Z</time></trkpt><trkpt lat="44.4959569" lon="8.5210131"><ele>433.0</ele><time>2026-04-04T10:48:01.48Z</time></trkpt><trkpt lat="44.4959451" lon="8.5212511"><ele>433.0</ele><time>2026-04-04T10:48:02.48Z</time></trkpt><trkpt lat="44.495925" lon="8.5214661"><ele>433.0</ele><time>2026-04-04T10:48:03.48Z</time></trkpt><trkpt lat="44.4958783" lon="8.5216565"><ele>433.0</ele><time>2026-04-04T10:48:04.48Z</time></trkpt><trkpt lat="44.4958138" lon="8.5218322"><ele>433.0</ele><time>2026-04-04T10:48:05.479Z</time></trkpt><trkpt lat="44.4957442" lon="8.5219941"><ele>433.0</ele><time>2026-04-04T10:48:06.48Z</time></trkpt><trkpt lat="44.4956655" lon="8.5221389"><ele>433.0</ele><time>2026-04-04T10:48:07.48Z</time></trkpt><trkpt lat="44.495566" lon="8.5222538"><ele>433.0</ele><time>2026-04-04T10:48:08.48Z</time></trkpt><trkpt lat="44.4954318" lon="8.5223188"><ele>433.0</ele><time>2026-04-04T10:48:09.48Z</time></trkpt><trkpt lat="44.4952755" lon="8.5223394"><ele>433.0</ele><time>2026-04-04T10:48:10.479Z</time></trkpt><trkpt lat="44.4951304" lon="8.5223488"><ele>433.0</ele><time>2026-04-04T10:48:11.48Z</time></trkpt><trkpt lat="44.4950093" lon="8.5223955"><ele>433.0</ele><time>2026-04-04T10:48:12.48Z</time></trkpt><trkpt lat="44.4949276" lon="8.5224847"><ele>433.0</ele><time>2026-04-04T10:48:13.479Z</time></trkpt><trkpt lat="44.4948699" lon="8.5226537"><ele>433.0</ele><time>2026-04-04T10:48:14.48Z</time></trkpt><trkpt lat="44.4948311" lon="8.5228712"><ele>433.0</ele><time>2026-04-04T10:48:15.48Z</time></trkpt><trkpt lat="44.4947892" lon="8.5231096"><ele>434.6666666666667</ele><time>2026-04-04T10:48:16.48Z</time></trkpt><trkpt lat="44.4947386" lon="8.5233389"><ele>436.33333333333337</ele><time>2026-04-04T10:48:17.48Z</time></trkpt><trkpt lat="44.4946923" lon="8.5235696"><ele>438.0</ele><time>2026-04-04T10:48:18.479Z</time></trkpt><trkpt lat="44.4946569" lon="8.5238084"><ele>439.0</ele><time>2026-04-04T10:48:19.479Z</time></trkpt><trkpt lat="44.4946382" lon="8.5240682"><ele>440.0</ele><time>2026-04-04T10:48:20.479Z</time></trkpt><trkpt lat="44.4946316" lon="8.52433"><ele>441.0</ele><time>2026-04-04T10:48:21.481Z</time></trkpt><trkpt lat="44.4946308" lon="8.5245622"><ele>442.25</ele><time>2026-04-04T10:48:22.48Z</time></trkpt><trkpt lat="44.4946243" lon="8.5247638"><ele>443.5</ele><time>2026-04-04T10:48:23.481Z</time></trkpt><trkpt lat="44.4946048" lon="8.5249422"><ele>444.75</ele><time>2026-04-04T10:48:24.48Z</time></trkpt><trkpt lat="44.4945441" lon="8.5251103"><ele>446.0</ele><time>2026-04-04T10:48:25.48Z</time></trkpt><trkpt lat="44.4944552" lon="8.5252664"><ele>448.0</ele><time>2026-04-04T10:48:26.48Z</time></trkpt><trkpt lat="44.4943668" lon="8.5254099"><ele>450.0</ele><time>2026-04-04T10:48:27.48Z</time></trkpt><trkpt lat="44.4942864" lon="8.5255305"><ele>452.0</ele><time>2026-04-04T10:48:28.48Z</time></trkpt><trkpt lat="44.4942193" lon="8.5256533"><ele>454.0</ele><time>2026-04-04T10:48:29.481Z</time></trkpt><trkpt lat="44.4941719" lon="8.5257908"><ele>454.0</ele><time>2026-04-04T10:48:30.479Z</time></trkpt><trkpt lat="44.4941467" lon="8.5259656"><ele>454.0</ele><time>2026-04-04T10:48:31.481Z</time></trkpt><trkpt lat="44.4941629" lon="8.5261632"><ele>454.0</ele><time>2026-04-04T10:48:32.481Z</time></trkpt><trkpt lat="44.4942041" lon="8.5263703"><ele>454.0</ele><time>2026-04-04T10:48:33.48Z</time></trkpt><trkpt lat="44.4942866" lon="8.5266052"><ele>454.6666666666667</ele><time>2026-04-04T10:48:34.48Z</time></trkpt><trkpt lat="44.4943748" lon="8.5268238"><ele>455.33333333333337</ele><time>2026-04-04T10:48:35.479Z</time></trkpt><trkpt lat="44.4944532" lon="8.5270539"><ele>456.0</ele><time>2026-04-04T10:48:36.481Z</time></trkpt><trkpt lat="44.4945011" lon="8.5272877"><ele>457.33333333333337</ele><time>2026-04-04T10:48:37.481Z</time></trkpt><trkpt lat="44.494508" lon="8.527528"><ele>458.6666666666667</ele><time>2026-04-04T10:48:38.481Z</time></trkpt><trkpt lat="44.494483" lon="8.5277479"><ele>460.0</ele><time>2026-04-04T10:48:39.479Z</time></trkpt><trkpt lat="44.4944229" lon="8.5279566"><ele>462.25</ele><time>2026-04-04T10:48:40.48Z</time></trkpt><trkpt lat="44.4943545" lon="8.5281345"><ele>464.5</ele><time>2026-04-04T10:48:41.481Z</time></trkpt><trkpt lat="44.4942714" lon="8.5282846"><ele>466.75</ele><time>2026-04-04T10:48:42.48Z</time></trkpt><trkpt lat="44.4941861" lon="8.5283861"><ele>469.0</ele><time>2026-04-04T10:48:43.48Z</time></trkpt><trkpt lat="44.4940939" lon="8.5284961"><ele>469.0</ele><time>2026-04-04T10:48:44.48Z</time></trkpt><trkpt lat="44.4940079" lon="8.5286037"><ele>469.0</ele><time>2026-04-04T10:48:45.48Z</time></trkpt><trkpt lat="44.4939459" lon="8.5287161"><ele>469.0</ele><time>2026-04-04T10:48:46.48Z</time></trkpt><trkpt lat="44.49391" lon="8.5288554"><ele>469.0</ele><time>2026-04-04T10:48:47.48Z</time></trkpt><trkpt lat="44.4939117" lon="8.5290194"><ele>469.0</ele><time>2026-04-04T10:48:48.48Z</time></trkpt><trkpt lat="44.4939552" lon="8.5292016"><ele>471.0</ele><time>2026-04-04T10:48:49.481Z</time></trkpt><trkpt lat="44.4940211" lon="8.5293882"><ele>473.0</ele><time>2026-04-04T10:48:50.481Z</time></trkpt><trkpt lat="44.4941114" lon="8.5295906"><ele>475.0</ele><time>2026-04-04T10:48:51.481Z</time></trkpt><trkpt lat="44.4942163" lon="8.5298009"><ele>475.0</ele><time>2026-04-04T10:48:52.48Z</time></trkpt><trkpt lat="44.494306" lon="8.529993"><ele>475.0</ele><time>2026-04-04T10:48:53.481Z</time></trkpt><trkpt lat="44.4943833" lon="8.5301553"><ele>475.0</ele><time>2026-04-04T10:48:54.481Z</time></trkpt><trkpt lat="44.4944536" lon="8.5302846"><ele>475.0</ele><time>2026-04-04T10:48:55.481Z</time></trkpt><trkpt lat="44.4945451" lon="8.5304019"><ele>477.0</ele><time>2026-04-04T10:48:56.481Z</time></trkpt><trkpt lat="44.4946729" lon="8.5305098"><ele>479.0</ele><time>2026-04-04T10:48:57.481Z</time></trkpt><trkpt lat="44.4948239" lon="8.5306038"><ele>481.0</ele><time>2026-04-04T10:48:58.481Z</time></trkpt><trkpt lat="44.4949669" lon="8.5306991"><ele>481.0</ele><time>2026-04-04T10:48:59.481Z</time></trkpt><trkpt lat="44.4950885" lon="8.5308006"><ele>481.0</ele><time>2026-04-04T10:49:00.481Z</time></trkpt><trkpt lat="44.4951976" lon="8.530893"><ele>481.0</ele><time>2026-04-04T10:49:01.481Z</time></trkpt><trkpt lat="44.4952845" lon="8.5309887"><ele>481.0</ele><time>2026-04-04T10:49:02.481Z</time></trkpt><trkpt lat="44.4953671" lon="8.5310793"><ele>484.25</ele><time>2026-04-04T10:49:03.481Z</time></trkpt><trkpt lat="44.4954535" lon="8.5311684"><ele>487.5</ele><time>2026-04-04T10:49:04.481Z</time></trkpt><trkpt lat="44.4955483" lon="8.5312556"><ele>490.75</ele><time>2026-04-04T10:49:05.48Z</time></trkpt><trkpt lat="44.4956475" lon="8.5313447"><ele>494.0</ele><time>2026-04-04T10:49:06.481Z</time></trkpt><trkpt lat="44.4957397" lon="8.5314417"><ele>494.0</ele><time>2026-04-04T10:49:07.481Z</time></trkpt><trkpt lat="44.4958136" lon="8.531548"><ele>494.0</ele><time>2026-04-04T10:49:08.481Z</time></trkpt><trkpt lat="44.4958559" lon="8.531678"><ele>494.0</ele><time>2026-04-04T10:49:09.48Z</time></trkpt><trkpt lat="44.4958573" lon="8.5318187"><ele>494.0</ele><time>2026-04-04T10:49:10.481Z</time></trkpt><trkpt lat="44.4958305" lon="8.5319727"><ele>494.0</ele><time>2026-04-04T10:49:11.481Z</time></trkpt><trkpt lat="44.4957756" lon="8.5321147"><ele>494.4</ele><time>2026-04-04T10:49:12.481Z</time></trkpt><trkpt lat="44.4957143" lon="8.5322427"><ele>494.79999999999995</ele><time>2026-04-04T10:49:13.481Z</time></trkpt><trkpt lat="44.4956573" lon="8.5323697"><ele>495.20000000000005</ele><time>2026-04-04T10:49:14.481Z</time></trkpt><trkpt lat="44.4956186" lon="8.5325027"><ele>495.6</ele><time>2026-04-04T10:49:15.481Z</time></trkpt><trkpt lat="44.4956179" lon="8.5326514"><ele>496.0</ele><time>2026-04-04T10:49:16.481Z</time></trkpt><trkpt lat="44.495637" lon="8.5328289"><ele>497.75</ele><time>2026-04-04T10:49:17.481Z</time></trkpt><trkpt lat="44.4956398" lon="8.5330327"><ele>499.5</ele><time>2026-04-04T10:49:18.481Z</time></trkpt><trkpt lat="44.4956304" lon="8.5332227"><ele>501.25</ele><time>2026-04-04T10:49:19.481Z</time></trkpt><trkpt lat="44.4956005" lon="8.5333987"><ele>503.0</ele><time>2026-04-04T10:49:20.481Z</time></trkpt><trkpt lat="44.4955729" lon="8.5335664"><ele>503.25</ele><time>2026-04-04T10:49:21.481Z</time></trkpt><trkpt lat="44.4955677" lon="8.5337369"><ele>503.5</ele><time>2026-04-04T10:49:22.481Z</time></trkpt><trkpt lat="44.4955872" lon="8.5339104"><ele>503.75</ele><time>2026-04-04T10:49:23.481Z</time></trkpt><trkpt lat="44.4956254" lon="8.5340885"><ele>504.0</ele><time>2026-04-04T10:49:24.481Z</time></trkpt><trkpt lat="44.4956751" lon="8.5342778"><ele>504.0</ele><time>2026-04-04T10:49:25.48Z</time></trkpt><trkpt lat="44.4957398" lon="8.5344495"><ele>504.0</ele><time>2026-04-04T10:49:26.482Z</time></trkpt><trkpt lat="44.4958222" lon="8.5346119"><ele>504.0</ele><time>2026-04-04T10:49:27.482Z</time></trkpt><trkpt lat="44.495918" lon="8.5347664"><ele>504.0</ele><time>2026-04-04T10:49:28.48Z</time></trkpt><trkpt lat="44.4960272" lon="8.5349107"><ele>504.0</ele><time>2026-04-04T10:49:29.482Z</time></trkpt><trkpt lat="44.4961522" lon="8.5350391"><ele>504.0</ele><time>2026-04-04T10:49:30.481Z</time></trkpt><trkpt lat="44.4962669" lon="8.535135"><ele>504.0</ele><time>2026-04-04T10:49:31.481Z</time></trkpt><trkpt lat="44.4963719" lon="8.5351868"><ele>504.0</ele><time>2026-04-04T10:49:32.482Z</time></trkpt><trkpt lat="44.4964738" lon="8.535197"><ele>504.0</ele><time>2026-04-04T10:49:33.482Z</time></trkpt><trkpt lat="44.496586" lon="8.5351416"><ele>504.0</ele><time>2026-04-04T10:49:34.482Z</time></trkpt><trkpt lat="44.4966874" lon="8.5350538"><ele>504.0</ele><time>2026-04-04T10:49:35.482Z</time></trkpt><trkpt lat="44.4967767" lon="8.5349147"><ele>504.0</ele><time>2026-04-04T10:49:36.482Z</time></trkpt><trkpt lat="44.4968404" lon="8.5347645"><ele>504.0</ele><time>2026-04-04T10:49:37.482Z</time></trkpt><trkpt lat="44.4968884" lon="8.5345824"><ele>504.0</ele><time>2026-04-04T10:49:38.482Z</time></trkpt><trkpt lat="44.4969385" lon="8.5343986"><ele>504.0</ele><time>2026-04-04T10:49:39.481Z</time></trkpt><trkpt lat="44.497019" lon="8.5342965"><ele>504.0</ele><time>2026-04-04T10:49:40.482Z</time></trkpt><trkpt lat="44.4971252" lon="8.5342567"><ele>506.75</ele><time>2026-04-04T10:49:41.481Z</time></trkpt><trkpt lat="44.4972403" lon="8.5342032"><ele>509.5</ele><time>2026-04-04T10:49:42.481Z</time></trkpt><trkpt lat="44.4973674" lon="8.5341071"><ele>512.25</ele><time>2026-04-04T10:49:43.481Z</time></trkpt><trkpt lat="44.4974939" lon="8.5340265"><ele>515.0</ele><time>2026-04-04T10:49:44.481Z</time></trkpt><trkpt lat="44.4976218" lon="8.5340144"><ele>515.0</ele><time>2026-04-04T10:49:45.481Z</time></trkpt><trkpt lat="44.4977643" lon="8.5340711"><ele>515.0</ele><time>2026-04-04T10:49:46.482Z</time></trkpt><trkpt lat="44.4979292" lon="8.5341537"><ele>515.0</ele><time>2026-04-04T10:49:47.481Z</time></trkpt><trkpt lat="44.498092" lon="8.5342725"><ele>514.6666666666666</ele><time>2026-04-04T10:49:48.482Z</time></trkpt><trkpt lat="44.4982321" lon="8.5344217"><ele>514.3333333333334</ele><time>2026-04-04T10:49:49.482Z</time></trkpt><trkpt lat="44.498355" lon="8.5345971"><ele>514.0</ele><time>2026-04-04T10:49:50.482Z</time></trkpt><trkpt lat="44.4984527" lon="8.5348099"><ele>516.3333333333334</ele><time>2026-04-04T10:49:51.481Z</time></trkpt><trkpt lat="44.4985137" lon="8.535055"><ele>518.6666666666666</ele><time>2026-04-04T10:49:52.481Z</time></trkpt><trkpt lat="44.4985402" lon="8.5353149"><ele>521.0</ele><time>2026-04-04T10:49:53.484Z</time></trkpt><trkpt lat="44.4985414" lon="8.5355832"><ele>521.3333333333333</ele><time>2026-04-04T10:49:54.482Z</time></trkpt><trkpt lat="44.4985303" lon="8.5358399"><ele>521.6666666666666</ele><time>2026-04-04T10:49:55.482Z</time></trkpt><trkpt lat="44.498522" lon="8.5360835"><ele>522.0</ele><time>2026-04-04T10:49:56.481Z</time></trkpt><trkpt lat="44.4985077" lon="8.5363212"><ele>524.6666666666666</ele><time>2026-04-04T10:49:57.481Z</time></trkpt><trkpt lat="44.4984847" lon="8.5365543"><ele>527.3333333333333</ele><time>2026-04-04T10:49:58.482Z</time></trkpt><trkpt lat="44.4984594" lon="8.5367813"><ele>530.0</ele><time>2026-04-04T10:49:59.482Z</time></trkpt><trkpt lat="44.4984436" lon="8.5369892"><ele>531.25</ele><time>2026-04-04T10:50:00.482Z</time></trkpt><trkpt lat="44.4984347" lon="8.5371817"><ele>532.5</ele><time>2026-04-04T10:50:01.482Z</time></trkpt><trkpt lat="44.498431" lon="8.5373714"><ele>533.75</ele><time>2026-04-04T10:50:02.482Z</time></trkpt><trkpt lat="44.4984421" lon="8.5375604"><ele>535.0</ele><time>2026-04-04T10:50:03.482Z</time></trkpt><trkpt lat="44.4984887" lon="8.5377432"><ele>534.5</ele><time>2026-04-04T10:50:04.482Z</time></trkpt><trkpt lat="44.4985548" lon="8.5379181"><ele>534.0</ele><time>2026-04-04T10:50:05.481Z</time></trkpt><trkpt lat="44.4986105" lon="8.5380805"><ele>533.5</ele><time>2026-04-04T10:50:06.481Z</time></trkpt><trkpt lat="44.4986296" lon="8.5382415"><ele>533.0</ele><time>2026-04-04T10:50:07.482Z</time></trkpt><trkpt lat="44.4986217" lon="8.5384099"><ele>533.0</ele><time>2026-04-04T10:50:08.482Z</time></trkpt><trkpt lat="44.4986212" lon="8.5385726"><ele>533.0</ele><time>2026-04-04T10:50:09.482Z</time></trkpt><trkpt lat="44.4986518" lon="8.5387348"><ele>533.0</ele><time>2026-04-04T10:50:10.482Z</time></trkpt><trkpt lat="44.4987075" lon="8.5388967"><ele>533.0</ele><time>2026-04-04T10:50:11.482Z</time></trkpt><trkpt lat="44.4988012" lon="8.5390635"><ele>536.0</ele><time>2026-04-04T10:50:12.481Z</time></trkpt><trkpt lat="44.4988955" lon="8.5392361"><ele>539.0</ele><time>2026-04-04T10:50:13.482Z</time></trkpt><trkpt lat="44.4989757" lon="8.5394207"><ele>542.0</ele><time>2026-04-04T10:50:14.481Z</time></trkpt><trkpt lat="44.4990457" lon="8.5396169"><ele>543.3333333333333</ele><time>2026-04-04T10:50:15.481Z</time></trkpt><trkpt lat="44.4991092" lon="8.539816"><ele>544.6666666666666</ele><time>2026-04-04T10:50:16.482Z</time></trkpt><trkpt lat="44.4991739" lon="8.5400172"><ele>546.0</ele><time>2026-04-04T10:50:17.482Z</time></trkpt><trkpt lat="44.4992421" lon="8.5402205"><ele>547.3333333333334</ele><time>2026-04-04T10:50:18.482Z</time></trkpt><trkpt lat="44.4993072" lon="8.5404194"><ele>548.6666666666667</ele><time>2026-04-04T10:50:19.482Z</time></trkpt><trkpt lat="44.4993624" lon="8.5406265"><ele>550.0</ele><time>2026-04-04T10:50:20.482Z</time></trkpt><trkpt lat="44.4993831" lon="8.5408404"><ele>550.0</ele><time>2026-04-04T10:50:21.482Z</time></trkpt><trkpt lat="44.4993659" lon="8.5410617"><ele>550.0</ele><time>2026-04-04T10:50:22.482Z</time></trkpt><trkpt lat="44.4993187" lon="8.5412718"><ele>550.0</ele><time>2026-04-04T10:50:23.482Z</time></trkpt><trkpt lat="44.4992714" lon="8.5414698"><ele>551.0</ele><time>2026-04-04T10:50:24.482Z</time></trkpt><trkpt lat="44.4992406" lon="8.5416597"><ele>552.0</ele><time>2026-04-04T10:50:25.482Z</time></trkpt><trkpt lat="44.4992548" lon="8.5418581"><ele>553.0</ele><time>2026-04-04T10:50:26.482Z</time></trkpt><trkpt lat="44.4992933" lon="8.5420394"><ele>554.0</ele><time>2026-04-04T10:50:27.482Z</time></trkpt><trkpt lat="44.499359" lon="8.5422159"><ele>554.0</ele><time>2026-04-04T10:50:28.483Z</time></trkpt><trkpt lat="44.4994608" lon="8.5423823"><ele>554.0</ele><time>2026-04-04T10:50:29.483Z</time></trkpt><trkpt lat="44.4995794" lon="8.542532"><ele>554.0</ele><time>2026-04-04T10:50:30.482Z</time></trkpt><trkpt lat="44.4996948" lon="8.5426896"><ele>560.3333333333333</ele><time>2026-04-04T10:50:31.483Z</time></trkpt><trkpt lat="44.4997859" lon="8.5428688"><ele>566.6666666666666</ele><time>2026-04-04T10:50:32.482Z</time></trkpt><trkpt lat="44.4998541" lon="8.5430662"><ele>573.0</ele><time>2026-04-04T10:50:33.482Z</time></trkpt><trkpt lat="44.4999146" lon="8.5432793"><ele>573.6666666666666</ele><time>2026-04-04T10:50:34.482Z</time></trkpt><trkpt lat="44.4999622" lon="8.5435036"><ele>574.3333333333333</ele><time>2026-04-04T10:50:35.482Z</time></trkpt><trkpt lat="44.5000072" lon="8.5437294"><ele>575.0</ele><time>2026-04-04T10:50:36.482Z</time></trkpt><trkpt lat="44.5000458" lon="8.543951"><ele>576.0</ele><time>2026-04-04T10:50:37.482Z</time></trkpt><trkpt lat="44.5000746" lon="8.5441474"><ele>577.0</ele><time>2026-04-04T10:50:38.483Z</time></trkpt><trkpt lat="44.5000933" lon="8.5443138"><ele>578.0</ele><time>2026-04-04T10:50:39.483Z</time></trkpt><trkpt lat="44.5000998" lon="8.5444515"><ele>579.0</ele><time>2026-04-04T10:50:40.483Z</time></trkpt><trkpt lat="44.5000895" lon="8.544568"><ele>580.0</ele><time>2026-04-04T10:50:41.483Z</time></trkpt><trkpt lat="44.5000557" lon="8.544688"><ele>582.75</ele><time>2026-04-04T10:50:42.482Z</time></trkpt><trkpt lat="44.499975" lon="8.5447933"><ele>585.5</ele><time>2026-04-04T10:50:43.482Z</time></trkpt><trkpt lat="44.4998614" lon="8.5448626"><ele>588.25</ele><time>2026-04-04T10:50:44.483Z</time></trkpt><trkpt lat="44.4997402" lon="8.5448889"><ele>591.0</ele><time>2026-04-04T10:50:45.483Z</time></trkpt><trkpt lat="44.4996125" lon="8.5448758"><ele>591.5</ele><time>2026-04-04T10:50:46.483Z</time></trkpt><trkpt lat="44.4994802" lon="8.5448587"><ele>592.0</ele><time>2026-04-04T10:50:47.482Z</time></trkpt><trkpt lat="44.4993529" lon="8.5448905"><ele>592.5</ele><time>2026-04-04T10:50:48.482Z</time></trkpt><trkpt lat="44.4992337" lon="8.5449436"><ele>593.0</ele><time>2026-04-04T10:50:49.483Z</time></trkpt><trkpt lat="44.4991194" lon="8.5449716"><ele>593.0</ele><time>2026-04-04T10:50:50.482Z</time></trkpt><trkpt lat="44.498999" lon="8.5449696"><ele>593.0</ele><time>2026-04-04T10:50:51.482Z</time></trkpt><trkpt lat="44.4988684" lon="8.5448947"><ele>593.0</ele><time>2026-04-04T10:50:52.482Z</time></trkpt><trkpt lat="44.4987733" lon="8.5447692"><ele>593.0</ele><time>2026-04-04T10:50:53.483Z</time></trkpt><trkpt lat="44.4986941" lon="8.544651"><ele>593.0</ele><time>2026-04-04T10:50:54.483Z</time></trkpt><trkpt lat="44.4986091" lon="8.5445549"><ele>593.0</ele><time>2026-04-04T10:50:55.483Z</time></trkpt><trkpt lat="44.4985253" lon="8.5445195"><ele>593.0</ele><time>2026-04-04T10:50:56.482Z</time></trkpt><trkpt lat="44.4984359" lon="8.5445645"><ele>593.0</ele><time>2026-04-04T10:50:57.483Z</time></trkpt><trkpt lat="44.4983425" lon="8.5446612"><ele>593.0</ele><time>2026-04-04T10:50:58.483Z</time></trkpt><trkpt lat="44.4982453" lon="8.5447805"><ele>593.0</ele><time>2026-04-04T10:50:59.483Z</time></trkpt><trkpt lat="44.4981545" lon="8.5449105"><ele>593.0</ele><time>2026-04-04T10:51:00.483Z</time></trkpt><trkpt lat="44.4980752" lon="8.5450401"><ele>593.0</ele><time>2026-04-04T10:51:01.483Z</time></trkpt><trkpt lat="44.4980055" lon="8.5451585"><ele>593.0</ele><time>2026-04-04T10:51:02.483Z</time></trkpt><trkpt lat="44.497942" lon="8.5452616"><ele>593.8333333333333</ele><time>2026-04-04T10:51:03.482Z</time></trkpt><trkpt lat="44.4978867" lon="8.5453433"><ele>594.6666666666666</ele><time>2026-04-04T10:51:04.483Z</time></trkpt><trkpt lat="44.4978097" lon="8.5454433"><ele>595.5</ele><time>2026-04-04T10:51:06.483Z</time></trkpt><trkpt lat="44.4977595" lon="8.5455188"><ele>596.3333333333334</ele><time>2026-04-04T10:51:08.484Z</time></trkpt><trkpt lat="44.4977762" lon="8.5456145"><ele>597.1666666666667</ele><time>2026-04-04T10:51:10.483Z</time></trkpt><trkpt lat="44.4978869" lon="8.545657"><ele>598.0</ele><time>2026-04-04T10:51:12.483Z</time></trkpt><trkpt lat="44.4979921" lon="8.5456098"><ele>598.5</ele><time>2026-04-04T10:51:13.483Z</time></trkpt><trkpt lat="44.4981097" lon="8.5455416"><ele>599.0</ele><time>2026-04-04T10:51:14.483Z</time></trkpt><trkpt lat="44.4982346" lon="8.5454671"><ele>599.5</ele><time>2026-04-04T10:51:15.483Z</time></trkpt><trkpt lat="44.4983661" lon="8.5454028"><ele>600.0</ele><time>2026-04-04T10:51:16.483Z</time></trkpt><trkpt lat="44.4984981" lon="8.5453658"><ele>600.0</ele><time>2026-04-04T10:51:17.483Z</time></trkpt><trkpt lat="44.498641" lon="8.5453845"><ele>600.0</ele><time>2026-04-04T10:51:18.483Z</time></trkpt><trkpt lat="44.4987908" lon="8.5454506"><ele>600.0</ele><time>2026-04-04T10:51:19.483Z</time></trkpt><trkpt lat="44.498931" lon="8.5455457"><ele>601.25</ele><time>2026-04-04T10:51:20.483Z</time></trkpt><trkpt lat="44.499065" lon="8.5456452"><ele>602.5</ele><time>2026-04-04T10:51:21.483Z</time></trkpt><trkpt lat="44.4991918" lon="8.5457355"><ele>603.75</ele><time>2026-04-04T10:51:22.483Z</time></trkpt><trkpt lat="44.4993128" lon="8.5458189"><ele>605.0</ele><time>2026-04-04T10:51:23.483Z</time></trkpt><trkpt lat="44.499431" lon="8.5458914"><ele>605.0</ele><time>2026-04-04T10:51:24.483Z</time></trkpt><trkpt lat="44.4995518" lon="8.5459456"><ele>605.0</ele><time>2026-04-04T10:51:25.483Z</time></trkpt><trkpt lat="44.4996776" lon="8.5459681"><ele>605.0</ele><time>2026-04-04T10:51:26.482Z</time></trkpt><trkpt lat="44.4998119" lon="8.5459316"><ele>605.0</ele><time>2026-04-04T10:51:27.483Z</time></trkpt><trkpt lat="44.4999478" lon="8.5458508"><ele>603.0</ele><time>2026-04-04T10:51:28.483Z</time></trkpt><trkpt lat="44.5000804" lon="8.5457308"><ele>601.0</ele><time>2026-04-04T10:51:29.483Z</time></trkpt><trkpt lat="44.5002023" lon="8.545592"><ele>599.0</ele><time>2026-04-04T10:51:30.483Z</time></trkpt><trkpt lat="44.5003194" lon="8.5454323"><ele>599.3333333333333</ele><time>2026-04-04T10:51:31.483Z</time></trkpt><trkpt lat="44.5004497" lon="8.5452382"><ele>599.6666666666666</ele><time>2026-04-04T10:51:32.483Z</time></trkpt><trkpt lat="44.5005954" lon="8.5450473"><ele>600.0</ele><time>2026-04-04T10:51:33.483Z</time></trkpt><trkpt lat="44.5007529" lon="8.5448511"><ele>600.0</ele><time>2026-04-04T10:51:34.483Z</time></trkpt><trkpt lat="44.5009141" lon="8.5446559"><ele>600.0</ele><time>2026-04-04T10:51:35.484Z</time></trkpt><trkpt lat="44.5010734" lon="8.5444611"><ele>600.0</ele><time>2026-04-04T10:51:36.483Z</time></trkpt><trkpt lat="44.5012302" lon="8.5442755"><ele>605.6666666666666</ele><time>2026-04-04T10:51:37.484Z</time></trkpt><trkpt lat="44.5013732" lon="8.5440977"><ele>611.3333333333333</ele><time>2026-04-04T10:51:38.483Z</time></trkpt><trkpt lat="44.5014948" lon="8.5439325"><ele>617.0</ele><time>2026-04-04T10:51:39.484Z</time></trkpt><trkpt lat="44.5016085" lon="8.5437898"><ele>619.75</ele><time>2026-04-04T10:51:40.483Z</time></trkpt><trkpt lat="44.5017223" lon="8.5436782"><ele>622.5</ele><time>2026-04-04T10:51:41.484Z</time></trkpt><trkpt lat="44.5018463" lon="8.5436145"><ele>625.25</ele><time>2026-04-04T10:51:42.484Z</time></trkpt><trkpt lat="44.5019768" lon="8.5435862"><ele>628.0</ele><time>2026-04-04T10:51:43.484Z</time></trkpt><trkpt lat="44.5021057" lon="8.5435584"><ele>628.0</ele><time>2026-04-04T10:51:44.484Z</time></trkpt><trkpt lat="44.5022244" lon="8.5435064"><ele>628.0</ele><time>2026-04-04T10:51:45.484Z</time></trkpt><trkpt lat="44.5023357" lon="8.5434109"><ele>628.0</ele><time>2026-04-04T10:51:46.483Z</time></trkpt><trkpt lat="44.5024315" lon="8.5432734"><ele>628.0</ele><time>2026-04-04T10:51:47.482Z</time></trkpt><trkpt lat="44.5025289" lon="8.5430968"><ele>628.0</ele><time>2026-04-04T10:51:48.484Z</time></trkpt><trkpt lat="44.5026164" lon="8.5428944"><ele>628.0</ele><time>2026-04-04T10:51:49.484Z</time></trkpt><trkpt lat="44.5026877" lon="8.5426514"><ele>628.0</ele><time>2026-04-04T10:51:50.483Z</time></trkpt><trkpt lat="44.5027474" lon="8.5423912"><ele>624.6666666666667</ele><time>2026-04-04T10:51:51.484Z</time></trkpt><trkpt lat="44.5027962" lon="8.5421266"><ele>621.3333333333334</ele><time>2026-04-04T10:51:52.484Z</time></trkpt><trkpt lat="44.502834" lon="8.5418568"><ele>618.0</ele><time>2026-04-04T10:51:53.483Z</time></trkpt><trkpt lat="44.5028758" lon="8.5416048"><ele>627.3333333333334</ele><time>2026-04-04T10:51:54.484Z</time></trkpt><trkpt lat="44.5029232" lon="8.5413733"><ele>636.6666666666667</ele><time>2026-04-04T10:51:55.484Z</time></trkpt><trkpt lat="44.5029742" lon="8.5411585"><ele>646.0</ele><time>2026-04-04T10:51:56.483Z</time></trkpt><trkpt lat="44.5030306" lon="8.5409558"><ele>646.0</ele><time>2026-04-04T10:51:57.483Z</time></trkpt><trkpt lat="44.5030908" lon="8.5407605"><ele>646.0</ele><time>2026-04-04T10:51:58.484Z</time></trkpt><trkpt lat="44.5031452" lon="8.5405606"><ele>646.0</ele><time>2026-04-04T10:51:59.484Z</time></trkpt><trkpt lat="44.5031933" lon="8.5403498"><ele>646.3333333333334</ele><time>2026-04-04T10:52:00.483Z</time></trkpt><trkpt lat="44.5032323" lon="8.540131"><ele>646.6666666666666</ele><time>2026-04-04T10:52:01.484Z</time></trkpt><trkpt lat="44.5032611" lon="8.5399082"><ele>647.0</ele><time>2026-04-04T10:52:02.484Z</time></trkpt><trkpt lat="44.5032827" lon="8.5396806"><ele>647.3333333333333</ele><time>2026-04-04T10:52:03.484Z</time></trkpt><trkpt lat="44.5032944" lon="8.5394478"><ele>647.6666666666666</ele><time>2026-04-04T10:52:04.484Z</time></trkpt><trkpt lat="44.5033037" lon="8.5392191"><ele>648.0</ele><time>2026-04-04T10:52:05.484Z</time></trkpt><trkpt lat="44.5033153" lon="8.5389928"><ele>648.0</ele><time>2026-04-04T10:52:06.484Z</time></trkpt><trkpt lat="44.5033282" lon="8.5387722"><ele>648.0</ele><time>2026-04-04T10:52:07.483Z</time></trkpt><trkpt lat="44.5033439" lon="8.538563"><ele>648.0</ele><time>2026-04-04T10:52:08.484Z</time></trkpt><trkpt lat="44.5033661" lon="8.5383663"><ele>648.5</ele><time>2026-04-04T10:52:09.484Z</time></trkpt><trkpt lat="44.5033958" lon="8.5381815"><ele>649.0</ele><time>2026-04-04T10:52:10.484Z</time></trkpt><trkpt lat="44.5034312" lon="8.5380123"><ele>649.5</ele><time>2026-04-04T10:52:11.484Z</time></trkpt><trkpt lat="44.5034632" lon="8.5378575"><ele>650.0</ele><time>2026-04-04T10:52:12.484Z</time></trkpt><trkpt lat="44.503487" lon="8.53772"><ele>650.8</ele><time>2026-04-04T10:52:13.484Z</time></trkpt><trkpt lat="44.5035009" lon="8.537584"><ele>651.6</ele><time>2026-04-04T10:52:14.484Z</time></trkpt><trkpt lat="44.5035034" lon="8.5374506"><ele>652.4000000000001</ele><time>2026-04-04T10:52:15.484Z</time></trkpt><trkpt lat="44.5035039" lon="8.5373194"><ele>653.2</ele><time>2026-04-04T10:52:16.484Z</time></trkpt><trkpt lat="44.5035121" lon="8.5371928"><ele>654.0</ele><time>2026-04-04T10:52:17.484Z</time></trkpt><trkpt lat="44.5035364" lon="8.5370756"><ele>653.2</ele><time>2026-04-04T10:52:18.484Z</time></trkpt><trkpt lat="44.5035826" lon="8.5369831"><ele>652.4000000000001</ele><time>2026-04-04T10:52:19.484Z</time></trkpt><trkpt lat="44.5036641" lon="8.5369244"><ele>651.6</ele><time>2026-04-04T10:52:20.483Z</time></trkpt><trkpt lat="44.5037747" lon="8.5369269"><ele>650.8</ele><time>2026-04-04T10:52:21.484Z</time></trkpt><trkpt lat="44.5038932" lon="8.5369668"><ele>650.0</ele><time>2026-04-04T10:52:22.484Z</time></trkpt><trkpt lat="44.5040072" lon="8.5370035"><ele>655.0</ele><time>2026-04-04T10:52:23.484Z</time></trkpt><trkpt lat="44.5041126" lon="8.5370075"><ele>660.0</ele><time>2026-04-04T10:52:24.483Z</time></trkpt><trkpt lat="44.5041896" lon="8.536956"><ele>665.0</ele><time>2026-04-04T10:52:25.484Z</time></trkpt><trkpt lat="44.5042489" lon="8.5368621"><ele>670.0</ele><time>2026-04-04T10:52:26.484Z</time></trkpt><trkpt lat="44.5042946" lon="8.5367432"><ele>675.0</ele><time>2026-04-04T10:52:27.483Z</time></trkpt><trkpt lat="44.5043206" lon="8.5366151"><ele>675.0</ele><time>2026-04-04T10:52:28.484Z</time></trkpt><trkpt lat="44.5043324" lon="8.536481"><ele>675.0</ele><time>2026-04-04T10:52:29.484Z</time></trkpt><trkpt lat="44.5043443" lon="8.5363472"><ele>675.0</ele><time>2026-04-04T10:52:30.484Z</time></trkpt><trkpt lat="44.5043694" lon="8.5362307"><ele>675.0</ele><time>2026-04-04T10:52:31.484Z</time></trkpt><trkpt lat="44.5044128" lon="8.5361294"><ele>675.0</ele><time>2026-04-04T10:52:32.484Z</time></trkpt><trkpt lat="44.5044782" lon="8.5360539"><ele>675.0</ele><time>2026-04-04T10:52:33.484Z</time></trkpt><trkpt lat="44.504567" lon="8.5359898"><ele>678.0</ele><time>2026-04-04T10:52:34.485Z</time></trkpt><trkpt lat="44.5046842" lon="8.5359355"><ele>681.0</ele><time>2026-04-04T10:52:35.485Z</time></trkpt><trkpt lat="44.5048138" lon="8.535887"><ele>684.0</ele><time>2026-04-04T10:52:36.485Z</time></trkpt><trkpt lat="44.5049513" lon="8.5358386"><ele>687.0</ele><time>2026-04-04T10:52:37.484Z</time></trkpt><trkpt lat="44.5050889" lon="8.5357848"><ele>687.0</ele><time>2026-04-04T10:52:38.485Z</time></trkpt><trkpt lat="44.5052223" lon="8.5357292"><ele>687.0</ele><time>2026-04-04T10:52:39.485Z</time></trkpt><trkpt lat="44.5053494" lon="8.5356724"><ele>687.0</ele><time>2026-04-04T10:52:40.485Z</time></trkpt><trkpt lat="44.5054692" lon="8.535622"><ele>687.0</ele><time>2026-04-04T10:52:41.483Z</time></trkpt><trkpt lat="44.5055816" lon="8.5355837"><ele>688.4000000000001</ele><time>2026-04-04T10:52:42.484Z</time></trkpt><trkpt lat="44.5056846" lon="8.5355698"><ele>689.8000000000001</ele><time>2026-04-04T10:52:43.485Z</time></trkpt><trkpt lat="44.5057798" lon="8.5355884"><ele>691.2</ele><time>2026-04-04T10:52:44.484Z</time></trkpt><trkpt lat="44.5058717" lon="8.5356404"><ele>692.6</ele><time>2026-04-04T10:52:45.485Z</time></trkpt><trkpt lat="44.5059675" lon="8.5357415"><ele>694.0</ele><time>2026-04-04T10:52:46.485Z</time></trkpt><trkpt lat="44.5060567" lon="8.5358855"><ele>694.0</ele><time>2026-04-04T10:52:47.485Z</time></trkpt><trkpt lat="44.5061326" lon="8.5360471"><ele>694.0</ele><time>2026-04-04T10:52:48.484Z</time></trkpt><trkpt lat="44.5062035" lon="8.5362106"><ele>694.0</ele><time>2026-04-04T10:52:49.485Z</time></trkpt><trkpt lat="44.5062755" lon="8.5363683"><ele>694.0</ele><time>2026-04-04T10:52:50.484Z</time></trkpt><trkpt lat="44.5063527" lon="8.5365193"><ele>696.25</ele><time>2026-04-04T10:52:51.485Z</time></trkpt><trkpt lat="44.5064339" lon="8.5366551"><ele>698.5</ele><time>2026-04-04T10:52:52.484Z</time></trkpt><trkpt lat="44.5065301" lon="8.5367751"><ele>700.75</ele><time>2026-04-04T10:52:53.485Z</time></trkpt><trkpt lat="44.5066444" lon="8.5368569"><ele>703.0</ele><time>2026-04-04T10:52:54.484Z</time></trkpt><trkpt lat="44.5067689" lon="8.5368985"><ele>703.0</ele><time>2026-04-04T10:52:55.485Z</time></trkpt><trkpt lat="44.5068918" lon="8.536917"><ele>703.0</ele><time>2026-04-04T10:52:56.484Z</time></trkpt><trkpt lat="44.5070092" lon="8.5369323"><ele>703.0</ele><time>2026-04-04T10:52:57.485Z</time></trkpt><trkpt lat="44.5071101" lon="8.5369672"><ele>703.0</ele><time>2026-04-04T10:52:58.484Z</time></trkpt><trkpt lat="44.5071997" lon="8.5370397"><ele>703.0</ele><time>2026-04-04T10:52:59.485Z</time></trkpt><trkpt lat="44.5072806" lon="8.5371423"><ele>704.2</ele><time>2026-04-04T10:53:00.484Z</time></trkpt><trkpt lat="44.5073494" lon="8.5372603"><ele>705.4</ele><time>2026-04-04T10:53:01.485Z</time></trkpt><trkpt lat="44.5074083" lon="8.5373801"><ele>706.6</ele><time>2026-04-04T10:53:02.485Z</time></trkpt><trkpt lat="44.5074572" lon="8.5374913"><ele>707.8000000000001</ele><time>2026-04-04T10:53:03.484Z</time></trkpt><trkpt lat="44.5075056" lon="8.5375975"><ele>709.0</ele><time>2026-04-04T10:53:04.485Z</time></trkpt><trkpt lat="44.5075578" lon="8.5377082"><ele>709.0</ele><time>2026-04-04T10:53:05.485Z</time></trkpt><trkpt lat="44.5076138" lon="8.5378266"><ele>709.0</ele><time>2026-04-04T10:53:06.485Z</time></trkpt><trkpt lat="44.507672" lon="8.5379481"><ele>709.0</ele><time>2026-04-04T10:53:07.485Z</time></trkpt><trkpt lat="44.5077317" lon="8.5380657"><ele>709.0</ele><time>2026-04-04T10:53:08.485Z</time></trkpt><trkpt lat="44.5077932" lon="8.5381786"><ele>709.0</ele><time>2026-04-04T10:53:09.485Z</time></trkpt><trkpt lat="44.5078554" lon="8.5382906"><ele>710.6</ele><time>2026-04-04T10:53:10.485Z</time></trkpt><trkpt lat="44.507925" lon="8.5384031"><ele>712.2</ele><time>2026-04-04T10:53:11.485Z</time></trkpt><trkpt lat="44.5080015" lon="8.5385125"><ele>713.8000000000001</ele><time>2026-04-04T10:53:12.484Z</time></trkpt><trkpt lat="44.5080836" lon="8.538614"><ele>715.4000000000001</ele><time>2026-04-04T10:53:13.485Z</time></trkpt><trkpt lat="44.5081673" lon="8.5387094"><ele>717.0</ele><time>2026-04-04T10:53:14.485Z</time></trkpt><trkpt lat="44.508249" lon="8.5387963"><ele>718.2</ele><time>2026-04-04T10:53:15.485Z</time></trkpt><trkpt lat="44.5083285" lon="8.5388768"><ele>719.4000000000001</ele><time>2026-04-04T10:53:16.485Z</time></trkpt><trkpt lat="44.5084115" lon="8.5389596"><ele>720.5999999999999</ele><time>2026-04-04T10:53:17.486Z</time></trkpt><trkpt lat="44.5084949" lon="8.5390425"><ele>721.8</ele><time>2026-04-04T10:53:18.485Z</time></trkpt><trkpt lat="44.5085821" lon="8.5391251"><ele>723.0</ele><time>2026-04-04T10:53:19.485Z</time></trkpt><trkpt lat="44.5086751" lon="8.5392057"><ele>724.5999999999999</ele><time>2026-04-04T10:53:20.484Z</time></trkpt><trkpt lat="44.5087705" lon="8.5392755"><ele>726.1999999999999</ele><time>2026-04-04T10:53:21.485Z</time></trkpt><trkpt lat="44.5088696" lon="8.539338"><ele>727.8</ele><time>2026-04-04T10:53:22.485Z</time></trkpt><trkpt lat="44.5089749" lon="8.5393771"><ele>729.4</ele><time>2026-04-04T10:53:23.484Z</time></trkpt><trkpt lat="44.5090871" lon="8.5393894"><ele>731.0</ele><time>2026-04-04T10:53:24.486Z</time></trkpt><trkpt lat="44.5092013" lon="8.5393691"><ele>731.0</ele><time>2026-04-04T10:53:25.484Z</time></trkpt><trkpt lat="44.5093131" lon="8.539338"><ele>731.0</ele><time>2026-04-04T10:53:26.485Z</time></trkpt><trkpt lat="44.509426" lon="8.5392966"><ele>731.0</ele><time>2026-04-04T10:53:27.485Z</time></trkpt><trkpt lat="44.5095356" lon="8.5392492"><ele>731.0</ele><time>2026-04-04T10:53:28.486Z</time></trkpt><trkpt lat="44.50964" lon="8.5391922"><ele>732.25</ele><time>2026-04-04T10:53:29.485Z</time></trkpt><trkpt lat="44.5097489" lon="8.539135"><ele>733.5</ele><time>2026-04-04T10:53:30.486Z</time></trkpt><trkpt lat="44.5098652" lon="8.5390883"><ele>734.75</ele><time>2026-04-04T10:53:31.484Z</time></trkpt><trkpt lat="44.5099862" lon="8.5390575"><ele>736.0</ele><time>2026-04-04T10:53:32.485Z</time></trkpt><trkpt lat="44.5101057" lon="8.5390368"><ele>736.0</ele><time>2026-04-04T10:53:33.485Z</time></trkpt><trkpt lat="44.5102165" lon="8.5390232"><ele>736.0</ele><time>2026-04-04T10:53:34.486Z</time></trkpt><trkpt lat="44.5103159" lon="8.5390153"><ele>736.0</ele><time>2026-04-04T10:53:35.485Z</time></trkpt><trkpt lat="44.5104172" lon="8.5390057"><ele>736.0</ele><time>2026-04-04T10:53:36.484Z</time></trkpt><trkpt lat="44.5105228" lon="8.5389945"><ele>736.0</ele><time>2026-04-04T10:53:37.485Z</time></trkpt><trkpt lat="44.5106365" lon="8.5389848"><ele>736.75</ele><time>2026-04-04T10:53:38.485Z</time></trkpt><trkpt lat="44.5107566" lon="8.5389767"><ele>737.5</ele><time>2026-04-04T10:53:39.485Z</time></trkpt><trkpt lat="44.5108762" lon="8.5389654"><ele>738.25</ele><time>2026-04-04T10:53:40.485Z</time></trkpt><trkpt lat="44.5109939" lon="8.5389442"><ele>739.0</ele><time>2026-04-04T10:53:41.484Z</time></trkpt><trkpt lat="44.5111085" lon="8.5389037"><ele>739.0</ele><time>2026-04-04T10:53:42.485Z</time></trkpt><trkpt lat="44.5112179" lon="8.5388326"><ele>739.0</ele><time>2026-04-04T10:53:43.486Z</time></trkpt><trkpt lat="44.5113261" lon="8.5387417"><ele>739.0</ele><time>2026-04-04T10:53:44.484Z</time></trkpt><trkpt lat="44.5114381" lon="8.5386569"><ele>739.0</ele><time>2026-04-04T10:53:45.485Z</time></trkpt><trkpt lat="44.5115531" lon="8.5386032"><ele>738.5</ele><time>2026-04-04T10:53:46.486Z</time></trkpt><trkpt lat="44.5116816" lon="8.5385812"><ele>738.0</ele><time>2026-04-04T10:53:47.486Z</time></trkpt><trkpt lat="44.5118163" lon="8.5385828"><ele>737.5</ele><time>2026-04-04T10:53:48.486Z</time></trkpt><trkpt lat="44.5119532" lon="8.5385793"><ele>737.0</ele><time>2026-04-04T10:53:49.486Z</time></trkpt><trkpt lat="44.5120966" lon="8.5385573"><ele>737.0</ele><time>2026-04-04T10:53:50.486Z</time></trkpt><trkpt lat="44.5122386" lon="8.5385215"><ele>737.0</ele><time>2026-04-04T10:53:51.486Z</time></trkpt><trkpt lat="44.5123801" lon="8.538477"><ele>737.0</ele><time>2026-04-04T10:53:52.485Z</time></trkpt><trkpt lat="44.5125242" lon="8.5384277"><ele>737.0</ele><time>2026-04-04T10:53:53.485Z</time></trkpt><trkpt lat="44.5126677" lon="8.5383858"><ele>737.0</ele><time>2026-04-04T10:53:54.486Z</time></trkpt><trkpt lat="44.512808" lon="8.5383663"><ele>737.0</ele><time>2026-04-04T10:53:55.487Z</time></trkpt><trkpt lat="44.5129405" lon="8.5383783"><ele>737.0</ele><time>2026-04-04T10:53:56.486Z</time></trkpt><trkpt lat="44.5130616" lon="8.5384326"><ele>737.0</ele><time>2026-04-04T10:53:57.485Z</time></trkpt><trkpt lat="44.5131737" lon="8.5385335"><ele>737.0</ele><time>2026-04-04T10:53:58.486Z</time></trkpt><trkpt lat="44.5132831" lon="8.5386629"><ele>737.0</ele><time>2026-04-04T10:53:59.485Z</time></trkpt><trkpt lat="44.5133896" lon="8.538798"><ele>737.0</ele><time>2026-04-04T10:54:00.486Z</time></trkpt><trkpt lat="44.5134931" lon="8.538925"><ele>737.0</ele><time>2026-04-04T10:54:01.486Z</time></trkpt><trkpt lat="44.5135941" lon="8.5390472"><ele>738.25</ele><time>2026-04-04T10:54:02.486Z</time></trkpt><trkpt lat="44.5136898" lon="8.5391708"><ele>739.5</ele><time>2026-04-04T10:54:03.486Z</time></trkpt><trkpt lat="44.5137794" lon="8.539304"><ele>740.75</ele><time>2026-04-04T10:54:04.486Z</time></trkpt><trkpt lat="44.5138619" lon="8.5394414"><ele>742.0</ele><time>2026-04-04T10:54:05.486Z</time></trkpt><trkpt lat="44.5139319" lon="8.5395899"><ele>743.5</ele><time>2026-04-04T10:54:06.486Z</time></trkpt><trkpt lat="44.5139927" lon="8.5397423"><ele>745.0</ele><time>2026-04-04T10:54:07.486Z</time></trkpt><trkpt lat="44.5140566" lon="8.5398842"><ele>746.5</ele><time>2026-04-04T10:54:08.486Z</time></trkpt><trkpt lat="44.514138" lon="8.5400023"><ele>748.0</ele><time>2026-04-04T10:54:09.485Z</time></trkpt><trkpt lat="44.5142463" lon="8.5400827"><ele>748.0</ele><time>2026-04-04T10:54:10.486Z</time></trkpt><trkpt lat="44.5143761" lon="8.5401293"><ele>748.0</ele><time>2026-04-04T10:54:11.486Z</time></trkpt><trkpt lat="44.514513" lon="8.540161"><ele>748.0</ele><time>2026-04-04T10:54:12.485Z</time></trkpt><trkpt lat="44.5146532" lon="8.5401941"><ele>748.0</ele><time>2026-04-04T10:54:13.485Z</time></trkpt><trkpt lat="44.5147941" lon="8.5402446"><ele>748.25</ele><time>2026-04-04T10:54:14.486Z</time></trkpt><trkpt lat="44.5149346" lon="8.5403037"><ele>748.5</ele><time>2026-04-04T10:54:15.486Z</time></trkpt><trkpt lat="44.515068" lon="8.5403629"><ele>748.75</ele><time>2026-04-04T10:54:16.486Z</time></trkpt><trkpt lat="44.5151949" lon="8.5404165"><ele>749.0</ele><time>2026-04-04T10:54:17.486Z</time></trkpt><trkpt lat="44.5153205" lon="8.5404716"><ele>749.5</ele><time>2026-04-04T10:54:18.486Z</time></trkpt><trkpt lat="44.5154462" lon="8.5405124"><ele>750.0</ele><time>2026-04-04T10:54:19.486Z</time></trkpt><trkpt lat="44.5155802" lon="8.5405155"><ele>750.5</ele><time>2026-04-04T10:54:20.486Z</time></trkpt><trkpt lat="44.5157147" lon="8.5404739"><ele>751.0</ele><time>2026-04-04T10:54:21.486Z</time></trkpt><trkpt lat="44.5158477" lon="8.5403856"><ele>751.75</ele><time>2026-04-04T10:54:22.485Z</time></trkpt><trkpt lat="44.5159609" lon="8.5402599"><ele>752.5</ele><time>2026-04-04T10:54:23.487Z</time></trkpt><trkpt lat="44.5160489" lon="8.5400939"><ele>753.25</ele><time>2026-04-04T10:54:24.486Z</time></trkpt><trkpt lat="44.5161226" lon="8.5399073"><ele>754.0</ele><time>2026-04-04T10:54:25.486Z</time></trkpt><trkpt lat="44.5161881" lon="8.5397184"><ele>752.75</ele><time>2026-04-04T10:54:26.485Z</time></trkpt><trkpt lat="44.5162258" lon="8.5395209"><ele>751.5</ele><time>2026-04-04T10:54:27.486Z</time></trkpt><trkpt lat="44.5162319" lon="8.5393302"><ele>750.25</ele><time>2026-04-04T10:54:28.487Z</time></trkpt><trkpt lat="44.516196" lon="8.5391541"><ele>749.0</ele><time>2026-04-04T10:54:29.486Z</time></trkpt><trkpt lat="44.5161584" lon="8.538995"><ele>749.0</ele><time>2026-04-04T10:54:30.486Z</time></trkpt><trkpt lat="44.5161492" lon="8.5388717"><ele>749.0</ele><time>2026-04-04T10:54:31.487Z</time></trkpt><trkpt lat="44.5162421" lon="8.5387483"><ele>749.0</ele><time>2026-04-04T10:54:33.486Z</time></trkpt><trkpt lat="44.5163231" lon="8.5387197"><ele>749.0</ele><time>2026-04-04T10:54:34.486Z</time></trkpt><trkpt lat="44.5164126" lon="8.5386993"><ele>749.0</ele><time>2026-04-04T10:54:35.486Z</time></trkpt><trkpt lat="44.5165114" lon="8.5386787"><ele>750.0</ele><time>2026-04-04T10:54:36.486Z</time></trkpt><trkpt lat="44.5166233" lon="8.5386563"><ele>751.0</ele><time>2026-04-04T10:54:37.485Z</time></trkpt><trkpt lat="44.5167335" lon="8.5386228"><ele>752.0</ele><time>2026-04-04T10:54:38.486Z</time></trkpt><trkpt lat="44.516844" lon="8.5385609"><ele>753.0</ele><time>2026-04-04T10:54:39.486Z</time></trkpt><trkpt lat="44.5169479" lon="8.5384648"><ele>753.0</ele><time>2026-04-04T10:54:40.487Z</time></trkpt><trkpt lat="44.5170467" lon="8.5383374"><ele>753.0</ele><time>2026-04-04T10:54:41.487Z</time></trkpt><trkpt lat="44.517144" lon="8.5382023"><ele>753.0</ele><time>2026-04-04T10:54:42.487Z</time></trkpt><trkpt lat="44.5172441" lon="8.5380744"><ele>753.0</ele><time>2026-04-04T10:54:43.487Z</time></trkpt><trkpt lat="44.5173464" lon="8.5379512"><ele>754.5</ele><time>2026-04-04T10:54:44.485Z</time></trkpt><trkpt lat="44.5174514" lon="8.5378339"><ele>756.0</ele><time>2026-04-04T10:54:45.486Z</time></trkpt><trkpt lat="44.5175534" lon="8.5377163"><ele>757.5</ele><time>2026-04-04T10:54:46.486Z</time></trkpt><trkpt lat="44.5176424" lon="8.5376146"><ele>759.0</ele><time>2026-04-04T10:54:47.486Z</time></trkpt><trkpt lat="44.5177158" lon="8.537528"><ele>759.0</ele><time>2026-04-04T10:54:48.487Z</time></trkpt><trkpt lat="44.517779" lon="8.5374496"><ele>759.0</ele><time>2026-04-04T10:54:49.486Z</time></trkpt><trkpt lat="44.5178252" lon="8.5373737"><ele>759.0</ele><time>2026-04-04T10:54:50.487Z</time></trkpt><trkpt lat="44.5178555" lon="8.5372897"><ele>759.0</ele><time>2026-04-04T10:54:51.487Z</time></trkpt><trkpt lat="44.5178668" lon="8.5371881"><ele>759.0</ele><time>2026-04-04T10:54:52.487Z</time></trkpt><trkpt lat="44.5178612" lon="8.5370756"><ele>759.0</ele><time>2026-04-04T10:54:53.485Z</time></trkpt><trkpt lat="44.5178364" lon="8.5369614"><ele>758.8333333333334</ele><time>2026-04-04T10:54:54.486Z</time></trkpt><trkpt lat="44.517807" lon="8.5368464"><ele>758.6666666666666</ele><time>2026-04-04T10:54:55.487Z</time></trkpt><trkpt lat="44.5177841" lon="8.5367231"><ele>758.5</ele><time>2026-04-04T10:54:56.485Z</time></trkpt><trkpt lat="44.5177728" lon="8.5365943"><ele>758.3333333333333</ele><time>2026-04-04T10:54:57.486Z</time></trkpt><trkpt lat="44.5177841" lon="8.5364766"><ele>758.1666666666666</ele><time>2026-04-04T10:54:58.487Z</time></trkpt><trkpt lat="44.51782" lon="8.5363701"><ele>758.0</ele><time>2026-04-04T10:54:59.487Z</time></trkpt><trkpt lat="44.5178716" lon="8.5362625"><ele>757.0</ele><time>2026-04-04T10:55:00.487Z</time></trkpt><trkpt lat="44.5179302" lon="8.5361599"><ele>756.0</ele><time>2026-04-04T10:55:01.487Z</time></trkpt><trkpt lat="44.5179877" lon="8.5360628"><ele>755.0</ele><time>2026-04-04T10:55:02.487Z</time></trkpt><trkpt lat="44.5180435" lon="8.535972"><ele>754.0</ele><time>2026-04-04T10:55:03.487Z</time></trkpt><trkpt lat="44.5181099" lon="8.5359047"><ele>753.0</ele><time>2026-04-04T10:55:04.487Z</time></trkpt><trkpt lat="44.51819" lon="8.5358752"><ele>752.0</ele><time>2026-04-04T10:55:05.487Z</time></trkpt><trkpt lat="44.5182898" lon="8.5358953"><ele>752.0</ele><time>2026-04-04T10:55:06.487Z</time></trkpt><trkpt lat="44.5183892" lon="8.5359658"><ele>752.0</ele><time>2026-04-04T10:55:07.486Z</time></trkpt><trkpt lat="44.5184725" lon="8.5360744"><ele>752.0</ele><time>2026-04-04T10:55:08.486Z</time></trkpt><trkpt lat="44.5185275" lon="8.5361904"><ele>752.0</ele><time>2026-04-04T10:55:09.486Z</time></trkpt><trkpt lat="44.5185526" lon="8.5363207"><ele>752.0</ele><time>2026-04-04T10:55:10.487Z</time></trkpt><trkpt lat="44.5185689" lon="8.5364668"><ele>751.0</ele><time>2026-04-04T10:55:11.487Z</time></trkpt><trkpt lat="44.5185933" lon="8.5365942"><ele>750.0</ele><time>2026-04-04T10:55:12.486Z</time></trkpt><trkpt lat="44.5186312" lon="8.5366799"><ele>749.0</ele><time>2026-04-04T10:55:13.487Z</time></trkpt><trkpt lat="44.5186915" lon="8.5367212"><ele>748.0</ele><time>2026-04-04T10:55:14.487Z</time></trkpt><trkpt lat="44.5187624" lon="8.5367268"><ele>747.0</ele><time>2026-04-04T10:55:15.487Z</time></trkpt><trkpt lat="44.5188328" lon="8.5367162"><ele>746.0</ele><time>2026-04-04T10:55:16.487Z</time></trkpt><trkpt lat="44.5189092" lon="8.5367041"><ele>746.0</ele><time>2026-04-04T10:55:17.487Z</time></trkpt><trkpt lat="44.5189959" lon="8.5367019"><ele>746.0</ele><time>2026-04-04T10:55:18.487Z</time></trkpt><trkpt lat="44.5190953" lon="8.5367037"><ele>746.0</ele><time>2026-04-04T10:55:19.487Z</time></trkpt><trkpt lat="44.5191993" lon="8.5366905"><ele>746.0</ele><time>2026-04-04T10:55:20.487Z</time></trkpt><trkpt lat="44.5192957" lon="8.5366326"><ele>746.0</ele><time>2026-04-04T10:55:21.487Z</time></trkpt><trkpt lat="44.5193774" lon="8.53653"><ele>746.0</ele><time>2026-04-04T10:55:22.487Z</time></trkpt><trkpt lat="44.519427" lon="8.5363885"><ele>746.0</ele><time>2026-04-04T10:55:23.487Z</time></trkpt><trkpt lat="44.5194557" lon="8.5362441"><ele>746.0</ele><time>2026-04-04T10:55:24.487Z</time></trkpt><trkpt lat="44.5194733" lon="8.536097"><ele>746.0</ele><time>2026-04-04T10:55:25.487Z</time></trkpt><trkpt lat="44.5194861" lon="8.5359437"><ele>746.0</ele><time>2026-04-04T10:55:26.488Z</time></trkpt><trkpt lat="44.5194999" lon="8.5357962"><ele>745.0</ele><time>2026-04-04T10:55:27.487Z</time></trkpt><trkpt lat="44.5195132" lon="8.5356552"><ele>744.0</ele><time>2026-04-04T10:55:28.488Z</time></trkpt><trkpt lat="44.5195236" lon="8.5355184"><ele>743.0</ele><time>2026-04-04T10:55:29.487Z</time></trkpt><trkpt lat="44.5195174" lon="8.5353756"><ele>742.0</ele><time>2026-04-04T10:55:30.486Z</time></trkpt><trkpt lat="44.519496" lon="8.5352246"><ele>741.0</ele><time>2026-04-04T10:55:31.487Z</time></trkpt><trkpt lat="44.519467" lon="8.5350734"><ele>739.1999999999999</ele><time>2026-04-04T10:55:32.487Z</time></trkpt><trkpt lat="44.519435" lon="8.5349269"><ele>737.4</ele><time>2026-04-04T10:55:33.487Z</time></trkpt><trkpt lat="44.5194076" lon="8.5347921"><ele>735.6</ele><time>2026-04-04T10:55:34.487Z</time></trkpt><trkpt lat="44.5193845" lon="8.5346693"><ele>733.8</ele><time>2026-04-04T10:55:35.487Z</time></trkpt><trkpt lat="44.5193643" lon="8.5345538"><ele>732.0</ele><time>2026-04-04T10:55:36.487Z</time></trkpt><trkpt lat="44.5193471" lon="8.5344405"><ele>731.6666666666666</ele><time>2026-04-04T10:55:37.488Z</time></trkpt><trkpt lat="44.5193409" lon="8.5343361"><ele>731.3333333333334</ele><time>2026-04-04T10:55:38.487Z</time></trkpt><trkpt lat="44.5193625" lon="8.5342344"><ele>731.0</ele><time>2026-04-04T10:55:39.488Z</time></trkpt><trkpt lat="44.5194197" lon="8.5341511"><ele>730.6666666666667</ele><time>2026-04-04T10:55:40.488Z</time></trkpt><trkpt lat="44.5195203" lon="8.5341103"><ele>730.3333333333334</ele><time>2026-04-04T10:55:41.487Z</time></trkpt><trkpt lat="44.5196297" lon="8.5340985"><ele>730.0</ele><time>2026-04-04T10:55:42.487Z</time></trkpt><trkpt lat="44.5197286" lon="8.5340877"><ele>730.2</ele><time>2026-04-04T10:55:43.487Z</time></trkpt><trkpt lat="44.5198247" lon="8.5340647"><ele>730.4</ele><time>2026-04-04T10:55:44.488Z</time></trkpt><trkpt lat="44.5199084" lon="8.5340101"><ele>730.5999999999999</ele><time>2026-04-04T10:55:45.488Z</time></trkpt><trkpt lat="44.519969" lon="8.533917"><ele>730.8</ele><time>2026-04-04T10:55:46.487Z</time></trkpt><trkpt lat="44.519995" lon="8.5337868"><ele>731.0</ele><time>2026-04-04T10:55:47.487Z</time></trkpt><trkpt lat="44.5199915" lon="8.5336482"><ele>731.0</ele><time>2026-04-04T10:55:48.487Z</time></trkpt><trkpt lat="44.5199559" lon="8.5335158"><ele>731.0</ele><time>2026-04-04T10:55:49.488Z</time></trkpt><trkpt lat="44.519914" lon="8.5333902"><ele>731.0</ele><time>2026-04-04T10:55:50.488Z</time></trkpt><trkpt lat="44.5198909" lon="8.5332692"><ele>731.0</ele><time>2026-04-04T10:55:51.487Z</time></trkpt><trkpt lat="44.5199147" lon="8.5331531"><ele>731.0</ele><time>2026-04-04T10:55:52.486Z</time></trkpt><trkpt lat="44.5199683" lon="8.5330356"><ele>731.0</ele><time>2026-04-04T10:55:53.488Z</time></trkpt><trkpt lat="44.5200511" lon="8.5329325"><ele>731.0</ele><time>2026-04-04T10:55:54.488Z</time></trkpt><trkpt lat="44.520141" lon="8.5328201"><ele>731.0</ele><time>2026-04-04T10:55:55.487Z</time></trkpt><trkpt lat="44.5202088" lon="8.5326905"><ele>731.0</ele><time>2026-04-04T10:55:56.488Z</time></trkpt><trkpt lat="44.5202538" lon="8.5325563"><ele>730.8</ele><time>2026-04-04T10:55:57.486Z</time></trkpt><trkpt lat="44.5202859" lon="8.5324098"><ele>730.5999999999999</ele><time>2026-04-04T10:55:58.487Z</time></trkpt><trkpt lat="44.5203265" lon="8.5322742"><ele>730.4</ele><time>2026-04-04T10:55:59.488Z</time></trkpt><trkpt lat="44.5203847" lon="8.5321596"><ele>730.2</ele><time>2026-04-04T10:56:00.488Z</time></trkpt><trkpt lat="44.5204668" lon="8.5320889"><ele>730.0</ele><time>2026-04-04T10:56:01.487Z</time></trkpt><trkpt lat="44.5205786" lon="8.5320474"><ele>727.8</ele><time>2026-04-04T10:56:02.488Z</time></trkpt><trkpt lat="44.5206846" lon="8.5319874"><ele>725.6</ele><time>2026-04-04T10:56:03.487Z</time></trkpt><trkpt lat="44.5207825" lon="8.5319034"><ele>723.4000000000001</ele><time>2026-04-04T10:56:04.488Z</time></trkpt><trkpt lat="44.5208715" lon="8.5318"><ele>721.2</ele><time>2026-04-04T10:56:05.487Z</time></trkpt><trkpt lat="44.5209473" lon="8.5317088"><ele>719.0</ele><time>2026-04-04T10:56:06.488Z</time></trkpt><trkpt lat="44.5210119" lon="8.5316413"><ele>719.0</ele><time>2026-04-04T10:56:07.488Z</time></trkpt><trkpt lat="44.5210697" lon="8.5316023"><ele>719.0</ele><time>2026-04-04T10:56:08.488Z</time></trkpt><trkpt lat="44.5211861" lon="8.5316698"><ele>719.0</ele><time>2026-04-04T10:56:10.488Z</time></trkpt><trkpt lat="44.5212346" lon="8.5317633"><ele>719.0</ele><time>2026-04-04T10:56:11.488Z</time></trkpt><trkpt lat="44.5212709" lon="8.531896"><ele>719.0</ele><time>2026-04-04T10:56:12.486Z</time></trkpt><trkpt lat="44.5212972" lon="8.5320506"><ele>716.6</ele><time>2026-04-04T10:56:13.488Z</time></trkpt><trkpt lat="44.5213242" lon="8.5322026"><ele>714.2</ele><time>2026-04-04T10:56:14.488Z</time></trkpt><trkpt lat="44.5213591" lon="8.5323594"><ele>711.8000000000001</ele><time>2026-04-04T10:56:15.488Z</time></trkpt><trkpt lat="44.5214099" lon="8.5324953"><ele>709.4000000000001</ele><time>2026-04-04T10:56:16.488Z</time></trkpt><trkpt lat="44.5214765" lon="8.5325909"><ele>707.0</ele><time>2026-04-04T10:56:17.487Z</time></trkpt><trkpt lat="44.5215475" lon="8.5326458"><ele>707.0</ele><time>2026-04-04T10:56:18.488Z</time></trkpt><trkpt lat="44.5216061" lon="8.5326905"><ele>707.0</ele><time>2026-04-04T10:56:19.488Z</time></trkpt><trkpt lat="44.5216702" lon="8.5328122"><ele>707.0</ele><time>2026-04-04T10:56:21.489Z</time></trkpt><trkpt lat="44.521695" lon="8.5328938"><ele>707.0</ele><time>2026-04-04T10:56:22.488Z</time></trkpt><trkpt lat="44.5217237" lon="8.5329749"><ele>707.0</ele><time>2026-04-04T10:56:23.488Z</time></trkpt><trkpt lat="44.5217741" lon="8.5331267"><ele>707.0</ele><time>2026-04-04T10:56:25.488Z</time></trkpt><trkpt lat="44.5218222" lon="8.5332672"><ele>707.0</ele><time>2026-04-04T10:56:27.488Z</time></trkpt><trkpt lat="44.5218976" lon="8.5333519"><ele>707.0</ele><time>2026-04-04T10:56:29.488Z</time></trkpt><trkpt lat="44.521985" lon="8.5333025"><ele>707.0</ele><time>2026-04-04T10:56:31.488Z</time></trkpt><trkpt lat="44.5220049" lon="8.5331231"><ele>707.0</ele><time>2026-04-04T10:56:33.488Z</time></trkpt><trkpt lat="44.5219648" lon="8.533003"><ele>707.0</ele><time>2026-04-04T10:56:34.488Z</time></trkpt><trkpt lat="44.5219042" lon="8.5328832"><ele>707.0</ele><time>2026-04-04T10:56:35.488Z</time></trkpt><trkpt lat="44.5218384" lon="8.5327611"><ele>707.0</ele><time>2026-04-04T10:56:36.488Z</time></trkpt><trkpt lat="44.5217845" lon="8.5326465"><ele>707.0</ele><time>2026-04-04T10:56:37.488Z</time></trkpt><trkpt lat="44.5217362" lon="8.5325402"><ele>707.0</ele><time>2026-04-04T10:56:38.488Z</time></trkpt><trkpt lat="44.5216846" lon="8.5324394"><ele>707.0</ele><time>2026-04-04T10:56:39.488Z</time></trkpt><trkpt lat="44.5216237" lon="8.5323423"><ele>707.0</ele><time>2026-04-04T10:56:40.488Z</time></trkpt><trkpt lat="44.5215596" lon="8.5322444"><ele>707.0</ele><time>2026-04-04T10:56:41.488Z</time></trkpt><trkpt lat="44.5214957" lon="8.5321362"><ele>707.0</ele><time>2026-04-04T10:56:42.488Z</time></trkpt><trkpt lat="44.52145" lon="8.5320208"><ele>707.0</ele><time>2026-04-04T10:56:43.488Z</time></trkpt><trkpt lat="44.5214253" lon="8.5318994"><ele>707.0</ele><time>2026-04-04T10:56:44.488Z</time></trkpt><trkpt lat="44.5214113" lon="8.5317838"><ele>706.3333333333333</ele><time>2026-04-04T10:56:45.488Z</time></trkpt><trkpt lat="44.5214075" lon="8.5316736"><ele>705.6666666666666</ele><time>2026-04-04T10:56:46.488Z</time></trkpt><trkpt lat="44.5214144" lon="8.5315739"><ele>705.0</ele><time>2026-04-04T10:56:47.488Z</time></trkpt><trkpt lat="44.5214449" lon="8.5314927"><ele>704.3333333333334</ele><time>2026-04-04T10:56:48.487Z</time></trkpt><trkpt lat="44.521504" lon="8.5314576"><ele>703.6666666666667</ele><time>2026-04-04T10:56:49.488Z</time></trkpt><trkpt lat="44.5215851" lon="8.5314944"><ele>703.0</ele><time>2026-04-04T10:56:50.488Z</time></trkpt><trkpt lat="44.521678" lon="8.5315819"><ele>703.0</ele><time>2026-04-04T10:56:51.488Z</time></trkpt><trkpt lat="44.521767" lon="8.5316784"><ele>703.0</ele><time>2026-04-04T10:56:52.488Z</time></trkpt><trkpt lat="44.5218656" lon="8.5317585"><ele>703.0</ele><time>2026-04-04T10:56:53.489Z</time></trkpt><trkpt lat="44.5219735" lon="8.5318018"><ele>703.0</ele><time>2026-04-04T10:56:54.489Z</time></trkpt><trkpt lat="44.5220843" lon="8.531802"><ele>703.0</ele><time>2026-04-04T10:56:55.488Z</time></trkpt><trkpt lat="44.5221892" lon="8.5317878"><ele>699.0</ele><time>2026-04-04T10:56:56.488Z</time></trkpt><trkpt lat="44.5222841" lon="8.5317805"><ele>695.0</ele><time>2026-04-04T10:56:57.488Z</time></trkpt><trkpt lat="44.5223693" lon="8.5317941"><ele>691.0</ele><time>2026-04-04T10:56:58.487Z</time></trkpt><trkpt lat="44.5224547" lon="8.5318272"><ele>687.0</ele><time>2026-04-04T10:56:59.489Z</time></trkpt><trkpt lat="44.5225441" lon="8.5318697"><ele>683.0</ele><time>2026-04-04T10:57:00.488Z</time></trkpt><trkpt lat="44.522641" lon="8.5319155"><ele>683.0</ele><time>2026-04-04T10:57:01.489Z</time></trkpt><trkpt lat="44.5227452" lon="8.5319707"><ele>683.0</ele><time>2026-04-04T10:57:02.489Z</time></trkpt><trkpt lat="44.522858" lon="8.5320339"><ele>683.0</ele><time>2026-04-04T10:57:03.489Z</time></trkpt><trkpt lat="44.5229745" lon="8.5320991"><ele>683.0</ele><time>2026-04-04T10:57:04.489Z</time></trkpt><trkpt lat="44.5230952" lon="8.5321632"><ele>681.5</ele><time>2026-04-04T10:57:05.489Z</time></trkpt><trkpt lat="44.5232195" lon="8.5322286"><ele>680.0</ele><time>2026-04-04T10:57:06.488Z</time></trkpt><trkpt lat="44.5233398" lon="8.5322992"><ele>678.5</ele><time>2026-04-04T10:57:07.488Z</time></trkpt><trkpt lat="44.5234542" lon="8.5323744"><ele>677.0</ele><time>2026-04-04T10:57:08.489Z</time></trkpt><trkpt lat="44.5235603" lon="8.5324497"><ele>677.0</ele><time>2026-04-04T10:57:09.488Z</time></trkpt><trkpt lat="44.5236586" lon="8.5325219"><ele>677.0</ele><time>2026-04-04T10:57:10.488Z</time></trkpt><trkpt lat="44.523753" lon="8.5325905"><ele>677.0</ele><time>2026-04-04T10:57:11.488Z</time></trkpt><trkpt lat="44.5238486" lon="8.5326423"><ele>677.0</ele><time>2026-04-04T10:57:12.488Z</time></trkpt><trkpt lat="44.5239516" lon="8.5326509"><ele>677.0</ele><time>2026-04-04T10:57:13.489Z</time></trkpt><trkpt lat="44.5240522" lon="8.5326075"><ele>679.5</ele><time>2026-04-04T10:57:14.488Z</time></trkpt><trkpt lat="44.5241447" lon="8.5324944"><ele>682.0</ele><time>2026-04-04T10:57:15.488Z</time></trkpt><trkpt lat="44.5242273" lon="8.5323619"><ele>684.5</ele><time>2026-04-04T10:57:16.489Z</time></trkpt><trkpt lat="44.5243025" lon="8.5322095"><ele>687.0</ele><time>2026-04-04T10:57:17.489Z</time></trkpt><trkpt lat="44.5243704" lon="8.532075"><ele>687.2</ele><time>2026-04-04T10:57:18.489Z</time></trkpt><trkpt lat="44.5244414" lon="8.5319834"><ele>687.4000000000001</ele><time>2026-04-04T10:57:19.489Z</time></trkpt><trkpt lat="44.5245242" lon="8.5319402"><ele>687.5999999999999</ele><time>2026-04-04T10:57:20.489Z</time></trkpt><trkpt lat="44.5246352" lon="8.5319617"><ele>687.8</ele><time>2026-04-04T10:57:21.489Z</time></trkpt><trkpt lat="44.5247518" lon="8.5320044"><ele>688.0</ele><time>2026-04-04T10:57:22.489Z</time></trkpt><trkpt lat="44.5248726" lon="8.5320463"><ele>688.0</ele><time>2026-04-04T10:57:23.489Z</time></trkpt><trkpt lat="44.5249959" lon="8.5320702"><ele>688.0</ele><time>2026-04-04T10:57:24.49Z</time></trkpt><trkpt lat="44.5251262" lon="8.5320611"><ele>688.0</ele><time>2026-04-04T10:57:25.489Z</time></trkpt><trkpt lat="44.5252614" lon="8.5320224"><ele>688.0</ele><time>2026-04-04T10:57:26.488Z</time></trkpt><trkpt lat="44.5253906" lon="8.5319739"><ele>688.5999999999999</ele><time>2026-04-04T10:57:27.488Z</time></trkpt><trkpt lat="44.5255104" lon="8.5319375"><ele>689.1999999999999</ele><time>2026-04-04T10:57:28.488Z</time></trkpt><trkpt lat="44.5256177" lon="8.5319211"><ele>689.8</ele><time>2026-04-04T10:57:29.489Z</time></trkpt><trkpt lat="44.525722" lon="8.5319389"><ele>690.4</ele><time>2026-04-04T10:57:30.489Z</time></trkpt><trkpt lat="44.525824" lon="8.5319833"><ele>691.0</ele><time>2026-04-04T10:57:31.489Z</time></trkpt><trkpt lat="44.5259261" lon="8.5320279"><ele>691.25</ele><time>2026-04-04T10:57:32.49Z</time></trkpt><trkpt lat="44.5260322" lon="8.53206"><ele>691.5</ele><time>2026-04-04T10:57:33.489Z</time></trkpt><trkpt lat="44.526141" lon="8.532085"><ele>691.75</ele><time>2026-04-04T10:57:34.49Z</time></trkpt><trkpt lat="44.5262539" lon="8.5321091"><ele>692.0</ele><time>2026-04-04T10:57:35.489Z</time></trkpt><trkpt lat="44.5263709" lon="8.5321398"><ele>692.6</ele><time>2026-04-04T10:57:36.489Z</time></trkpt><trkpt lat="44.526484" lon="8.5321749"><ele>693.2</ele><time>2026-04-04T10:57:37.489Z</time></trkpt><trkpt lat="44.5265877" lon="8.5322142"><ele>693.8</ele><time>2026-04-04T10:57:38.489Z</time></trkpt><trkpt lat="44.526678" lon="8.5322609"><ele>694.4</ele><time>2026-04-04T10:57:39.489Z</time></trkpt><trkpt lat="44.52676" lon="8.5323168"><ele>695.0</ele><time>2026-04-04T10:57:40.489Z</time></trkpt><trkpt lat="44.5268337" lon="8.5323918"><ele>695.0</ele><time>2026-04-04T10:57:41.489Z</time></trkpt><trkpt lat="44.5269112" lon="8.5324804"><ele>695.0</ele><time>2026-04-04T10:57:42.489Z</time></trkpt><trkpt lat="44.5269974" lon="8.5325681"><ele>695.0</ele><time>2026-04-04T10:57:43.49Z</time></trkpt><trkpt lat="44.5270947" lon="8.532649"><ele>695.0</ele><time>2026-04-04T10:57:44.489Z</time></trkpt><trkpt lat="44.5272012" lon="8.5327215"><ele>695.0</ele><time>2026-04-04T10:57:45.488Z</time></trkpt><trkpt lat="44.5273113" lon="8.5327875"><ele>696.0</ele><time>2026-04-04T10:57:46.489Z</time></trkpt><trkpt lat="44.5274211" lon="8.5328486"><ele>697.0</ele><time>2026-04-04T10:57:47.489Z</time></trkpt><trkpt lat="44.5275276" lon="8.5329069"><ele>698.0</ele><time>2026-04-04T10:57:48.489Z</time></trkpt><trkpt lat="44.527636" lon="8.5329625"><ele>699.0</ele><time>2026-04-04T10:57:49.489Z</time></trkpt><trkpt lat="44.5277465" lon="8.5330067"><ele>699.0</ele><time>2026-04-04T10:57:50.489Z</time></trkpt><trkpt lat="44.5278625" lon="8.5330307"><ele>699.0</ele><time>2026-04-04T10:57:51.49Z</time></trkpt><trkpt lat="44.5279828" lon="8.5330418"><ele>699.0</ele><time>2026-04-04T10:57:52.49Z</time></trkpt><trkpt lat="44.5281036" lon="8.5330511"><ele>699.0</ele><time>2026-04-04T10:57:53.49Z</time></trkpt><trkpt lat="44.5282264" lon="8.5330643"><ele>701.5</ele><time>2026-04-04T10:57:54.489Z</time></trkpt><trkpt lat="44.5283478" lon="8.5330789"><ele>704.0</ele><time>2026-04-04T10:57:55.49Z</time></trkpt><trkpt lat="44.5284683" lon="8.5330962"><ele>706.5</ele><time>2026-04-04T10:57:56.489Z</time></trkpt><trkpt lat="44.5285871" lon="8.533115"><ele>709.0</ele><time>2026-04-04T10:57:57.49Z</time></trkpt><trkpt lat="44.5287029" lon="8.5331375"><ele>710.6</ele><time>2026-04-04T10:57:58.49Z</time></trkpt><trkpt lat="44.5288149" lon="8.5331631"><ele>712.2</ele><time>2026-04-04T10:57:59.49Z</time></trkpt><trkpt lat="44.5289212" lon="8.5331853"><ele>713.8000000000001</ele><time>2026-04-04T10:58:00.49Z</time></trkpt><trkpt lat="44.5290306" lon="8.5331998"><ele>715.4000000000001</ele><time>2026-04-04T10:58:01.49Z</time></trkpt><trkpt lat="44.5291421" lon="8.5332043"><ele>717.0</ele><time>2026-04-04T10:58:02.49Z</time></trkpt><trkpt lat="44.5292483" lon="8.5331989"><ele>717.0</ele><time>2026-04-04T10:58:03.489Z</time></trkpt><trkpt lat="44.529351" lon="8.5331714"><ele>717.0</ele><time>2026-04-04T10:58:04.489Z</time></trkpt><trkpt lat="44.529455" lon="8.5331209"><ele>717.0</ele><time>2026-04-04T10:58:05.489Z</time></trkpt><trkpt lat="44.5295562" lon="8.5330574"><ele>717.0</ele><time>2026-04-04T10:58:06.489Z</time></trkpt><trkpt lat="44.5296533" lon="8.5329849"><ele>717.0</ele><time>2026-04-04T10:58:07.49Z</time></trkpt><trkpt lat="44.5297479" lon="8.5329149"><ele>717.0</ele><time>2026-04-04T10:58:08.49Z</time></trkpt><trkpt lat="44.5298424" lon="8.5328436"><ele>717.0</ele><time>2026-04-04T10:58:09.49Z</time></trkpt><trkpt lat="44.5299341" lon="8.5327752"><ele>717.0</ele><time>2026-04-04T10:58:10.489Z</time></trkpt><trkpt lat="44.5300253" lon="8.5327229"><ele>717.0</ele><time>2026-04-04T10:58:11.49Z</time></trkpt><trkpt lat="44.5301091" lon="8.5326778"><ele>717.0</ele><time>2026-04-04T10:58:12.489Z</time></trkpt><trkpt lat="44.5301924" lon="8.5326377"><ele>717.0</ele><time>2026-04-04T10:58:13.49Z</time></trkpt><trkpt lat="44.5302804" lon="8.5325998"><ele>717.0</ele><time>2026-04-04T10:58:14.488Z</time></trkpt><trkpt lat="44.5303781" lon="8.53257"><ele>717.0</ele><time>2026-04-04T10:58:15.49Z</time></trkpt><trkpt lat="44.5304844" lon="8.5325451"><ele>717.0</ele><time>2026-04-04T10:58:16.49Z</time></trkpt><trkpt lat="44.5305919" lon="8.532528"><ele>717.0</ele><time>2026-04-04T10:58:17.49Z</time></trkpt><trkpt lat="44.53069" lon="8.5325116"><ele>718.25</ele><time>2026-04-04T10:58:18.49Z</time></trkpt><trkpt lat="44.5307945" lon="8.5325345"><ele>719.5</ele><time>2026-04-04T10:58:19.49Z</time></trkpt><trkpt lat="44.5309013" lon="8.532604"><ele>720.75</ele><time>2026-04-04T10:58:20.489Z</time></trkpt><trkpt lat="44.5310043" lon="8.5326959"><ele>722.0</ele><time>2026-04-04T10:58:21.49Z</time></trkpt><trkpt lat="44.531114" lon="8.5327972"><ele>722.0</ele><time>2026-04-04T10:58:22.489Z</time></trkpt><trkpt lat="44.5312237" lon="8.5328868"><ele>722.0</ele><time>2026-04-04T10:58:23.49Z</time></trkpt><trkpt lat="44.5313354" lon="8.5329651"><ele>722.0</ele><time>2026-04-04T10:58:24.49Z</time></trkpt><trkpt lat="44.5314524" lon="8.5330367"><ele>722.0</ele><time>2026-04-04T10:58:25.49Z</time></trkpt><trkpt lat="44.5315731" lon="8.5330925"><ele>724.5</ele><time>2026-04-04T10:58:26.49Z</time></trkpt><trkpt lat="44.5316913" lon="8.53313"><ele>727.0</ele><time>2026-04-04T10:58:27.49Z</time></trkpt><trkpt lat="44.5318081" lon="8.5331536"><ele>729.5</ele><time>2026-04-04T10:58:28.49Z</time></trkpt><trkpt lat="44.5319228" lon="8.5331738"><ele>732.0</ele><time>2026-04-04T10:58:29.49Z</time></trkpt><trkpt lat="44.5320354" lon="8.5331915"><ele>734.25</ele><time>2026-04-04T10:58:30.49Z</time></trkpt><trkpt lat="44.5321474" lon="8.5332125"><ele>736.5</ele><time>2026-04-04T10:58:31.489Z</time></trkpt><trkpt lat="44.5322617" lon="8.5332419"><ele>738.75</ele><time>2026-04-04T10:58:32.491Z</time></trkpt><trkpt lat="44.5323829" lon="8.5332764"><ele>741.0</ele><time>2026-04-04T10:58:33.49Z</time></trkpt><trkpt lat="44.5325096" lon="8.5333166"><ele>741.0</ele><time>2026-04-04T10:58:34.49Z</time></trkpt><trkpt lat="44.5326461" lon="8.5333554"><ele>741.0</ele><time>2026-04-04T10:58:35.49Z</time></trkpt><trkpt lat="44.5327859" lon="8.5333912"><ele>741.0</ele><time>2026-04-04T10:58:36.491Z</time></trkpt><trkpt lat="44.5329193" lon="8.5334259"><ele>741.0</ele><time>2026-04-04T10:58:37.489Z</time></trkpt><trkpt lat="44.5330392" lon="8.5334647"><ele>740.25</ele><time>2026-04-04T10:58:38.491Z</time></trkpt><trkpt lat="44.5331492" lon="8.5335085"><ele>739.5</ele><time>2026-04-04T10:58:39.49Z</time></trkpt><trkpt lat="44.5332581" lon="8.5335516"><ele>738.75</ele><time>2026-04-04T10:58:40.491Z</time></trkpt><trkpt lat="44.5333723" lon="8.5335909"><ele>738.0</ele><time>2026-04-04T10:58:41.489Z</time></trkpt><trkpt lat="44.5334876" lon="8.5336284"><ele>738.0</ele><time>2026-04-04T10:58:42.491Z</time></trkpt><trkpt lat="44.5336086" lon="8.5336613"><ele>738.0</ele><time>2026-04-04T10:58:43.49Z</time></trkpt><trkpt lat="44.5337369" lon="8.5336861"><ele>738.0</ele><time>2026-04-04T10:58:44.49Z</time></trkpt><trkpt lat="44.5338643" lon="8.5336987"><ele>738.0</ele><time>2026-04-04T10:58:45.49Z</time></trkpt><trkpt lat="44.5339817" lon="8.5337046"><ele>737.4</ele><time>2026-04-04T10:58:46.49Z</time></trkpt><trkpt lat="44.5340872" lon="8.5337074"><ele>736.8</ele><time>2026-04-04T10:58:47.49Z</time></trkpt><trkpt lat="44.5341813" lon="8.5337126"><ele>736.2</ele><time>2026-04-04T10:58:48.49Z</time></trkpt><trkpt lat="44.5342597" lon="8.5337187"><ele>735.6</ele><time>2026-04-04T10:58:49.489Z</time></trkpt><trkpt lat="44.5343695" lon="8.5337222"><ele>735.0</ele><time>2026-04-04T10:58:51.491Z</time></trkpt><trkpt lat="44.5344853" lon="8.5337275"><ele>735.8</ele><time>2026-04-04T10:58:53.49Z</time></trkpt><trkpt lat="44.5345677" lon="8.5337378"><ele>736.6</ele><time>2026-04-04T10:58:54.49Z</time></trkpt><trkpt lat="44.5346688" lon="8.533754"><ele>737.4000000000001</ele><time>2026-04-04T10:58:55.491Z</time></trkpt><trkpt lat="44.5347764" lon="8.5337695"><ele>738.2</ele><time>2026-04-04T10:58:56.49Z</time></trkpt><trkpt lat="44.5348877" lon="8.5337811"><ele>739.0</ele><time>2026-04-04T10:58:57.49Z</time></trkpt><trkpt lat="44.5349968" lon="8.533793"><ele>739.0</ele><time>2026-04-04T10:58:58.49Z</time></trkpt><trkpt lat="44.5351065" lon="8.5338103"><ele>739.0</ele><time>2026-04-04T10:58:59.491Z</time></trkpt><trkpt lat="44.5352245" lon="8.5338365"><ele>739.0</ele><time>2026-04-04T10:59:00.491Z</time></trkpt><trkpt lat="44.5353473" lon="8.5338764"><ele>739.0</ele><time>2026-04-04T10:59:01.491Z</time></trkpt><trkpt lat="44.5354701" lon="8.5339312"><ele>739.25</ele><time>2026-04-04T10:59:02.491Z</time></trkpt><trkpt lat="44.5355886" lon="8.533995"><ele>739.5</ele><time>2026-04-04T10:59:03.49Z</time></trkpt><trkpt lat="44.5357042" lon="8.5340646"><ele>739.75</ele><time>2026-04-04T10:59:04.49Z</time></trkpt><trkpt lat="44.5358235" lon="8.5341373"><ele>740.0</ele><time>2026-04-04T10:59:05.49Z</time></trkpt><trkpt lat="44.5359449" lon="8.5342166"><ele>740.0</ele><time>2026-04-04T10:59:06.491Z</time></trkpt><trkpt lat="44.5360675" lon="8.5343056"><ele>740.0</ele><time>2026-04-04T10:59:07.49Z</time></trkpt><trkpt lat="44.5361879" lon="8.5344101"><ele>740.0</ele><time>2026-04-04T10:59:08.49Z</time></trkpt><trkpt lat="44.5363019" lon="8.5345275"><ele>740.0</ele><time>2026-04-04T10:59:09.49Z</time></trkpt><trkpt lat="44.5364087" lon="8.5346571"><ele>740.25</ele><time>2026-04-04T10:59:10.489Z</time></trkpt><trkpt lat="44.536509" lon="8.5347909"><ele>740.5</ele><time>2026-04-04T10:59:11.489Z</time></trkpt><trkpt lat="44.5366028" lon="8.534925"><ele>740.75</ele><time>2026-04-04T10:59:12.49Z</time></trkpt><trkpt lat="44.5366892" lon="8.535058"><ele>741.0</ele><time>2026-04-04T10:59:13.489Z</time></trkpt><trkpt lat="44.536772" lon="8.5351826"><ele>741.0</ele><time>2026-04-04T10:59:14.489Z</time></trkpt><trkpt lat="44.5368595" lon="8.5352894"><ele>741.0</ele><time>2026-04-04T10:59:15.49Z</time></trkpt><trkpt lat="44.5369548" lon="8.535383"><ele>741.0</ele><time>2026-04-04T10:59:16.49Z</time></trkpt><trkpt lat="44.5370572" lon="8.5354678"><ele>741.0</ele><time>2026-04-04T10:59:17.491Z</time></trkpt><trkpt lat="44.5371687" lon="8.5355317"><ele>739.5</ele><time>2026-04-04T10:59:18.49Z</time></trkpt><trkpt lat="44.5372888" lon="8.5355667"><ele>738.0</ele><time>2026-04-04T10:59:19.491Z</time></trkpt><trkpt lat="44.5374161" lon="8.5355774"><ele>736.5</ele><time>2026-04-04T10:59:20.491Z</time></trkpt><trkpt lat="44.5375415" lon="8.5355972"><ele>735.0</ele><time>2026-04-04T10:59:21.49Z</time></trkpt><trkpt lat="44.5376553" lon="8.5356581"><ele>735.0</ele><time>2026-04-04T10:59:22.49Z</time></trkpt><trkpt lat="44.5377555" lon="8.5357797"><ele>735.0</ele><time>2026-04-04T10:59:23.49Z</time></trkpt><trkpt lat="44.5378431" lon="8.5359237"><ele>735.0</ele><time>2026-04-04T10:59:24.49Z</time></trkpt><trkpt lat="44.5379241" lon="8.5360597"><ele>735.0</ele><time>2026-04-04T10:59:25.491Z</time></trkpt><trkpt lat="44.538001" lon="8.5361863"><ele>733.6</ele><time>2026-04-04T10:59:26.491Z</time></trkpt><trkpt lat="44.5380769" lon="8.5363068"><ele>732.2</ele><time>2026-04-04T10:59:27.491Z</time></trkpt><trkpt lat="44.5381506" lon="8.53642"><ele>730.8</ele><time>2026-04-04T10:59:28.491Z</time></trkpt><trkpt lat="44.5382224" lon="8.5365207"><ele>729.4</ele><time>2026-04-04T10:59:29.491Z</time></trkpt><trkpt lat="44.5383071" lon="8.5365904"><ele>728.0</ele><time>2026-04-04T10:59:30.491Z</time></trkpt><trkpt lat="44.53841" lon="8.5366188"><ele>728.0</ele><time>2026-04-04T10:59:31.491Z</time></trkpt><trkpt lat="44.5385306" lon="8.5366008"><ele>728.0</ele><time>2026-04-04T10:59:32.491Z</time></trkpt><trkpt lat="44.5386553" lon="8.5365474"><ele>728.0</ele><time>2026-04-04T10:59:33.491Z</time></trkpt><trkpt lat="44.5387767" lon="8.5364654"><ele>728.0</ele><time>2026-04-04T10:59:34.491Z</time></trkpt><trkpt lat="44.5388848" lon="8.5363872"><ele>728.5999999999999</ele><time>2026-04-04T10:59:35.491Z</time></trkpt><trkpt lat="44.5389901" lon="8.5363148"><ele>729.1999999999999</ele><time>2026-04-04T10:59:36.491Z</time></trkpt><trkpt lat="44.5390917" lon="8.5362454"><ele>729.8</ele><time>2026-04-04T10:59:37.49Z</time></trkpt><trkpt lat="44.539189" lon="8.5361913"><ele>730.4</ele><time>2026-04-04T10:59:38.491Z</time></trkpt><trkpt lat="44.5392837" lon="8.5361595"><ele>731.0</ele><time>2026-04-04T10:59:39.491Z</time></trkpt><trkpt lat="44.5393711" lon="8.5361718"><ele>731.0</ele><time>2026-04-04T10:59:40.491Z</time></trkpt><trkpt lat="44.5394362" lon="8.5362597"><ele>731.0</ele><time>2026-04-04T10:59:41.491Z</time></trkpt><trkpt lat="44.5395091" lon="8.5363874"><ele>731.0</ele><time>2026-04-04T10:59:42.491Z</time></trkpt><trkpt lat="44.5395851" lon="8.5365126"><ele>731.0</ele><time>2026-04-04T10:59:43.491Z</time></trkpt><trkpt lat="44.5396687" lon="8.5366375"><ele>731.0</ele><time>2026-04-04T10:59:44.491Z</time></trkpt><trkpt lat="44.5397626" lon="8.5367496"><ele>729.5</ele><time>2026-04-04T10:59:45.491Z</time></trkpt><trkpt lat="44.5398811" lon="8.5368276"><ele>728.0</ele><time>2026-04-04T10:59:46.491Z</time></trkpt><trkpt lat="44.5400051" lon="8.5368701"><ele>726.5</ele><time>2026-04-04T10:59:47.49Z</time></trkpt><trkpt lat="44.5401462" lon="8.5368753"><ele>725.0</ele><time>2026-04-04T10:59:48.491Z</time></trkpt><trkpt lat="44.5402857" lon="8.5368765"><ele>724.25</ele><time>2026-04-04T10:59:49.491Z</time></trkpt><trkpt lat="44.5404191" lon="8.5368853"><ele>723.5</ele><time>2026-04-04T10:59:50.491Z</time></trkpt><trkpt lat="44.5405386" lon="8.5369016"><ele>722.75</ele><time>2026-04-04T10:59:51.491Z</time></trkpt><trkpt lat="44.5406503" lon="8.5369212"><ele>722.0</ele><time>2026-04-04T10:59:52.492Z</time></trkpt><trkpt lat="44.5407583" lon="8.5369393"><ele>722.0</ele><time>2026-04-04T10:59:53.491Z</time></trkpt><trkpt lat="44.5408631" lon="8.5369437"><ele>722.0</ele><time>2026-04-04T10:59:54.49Z</time></trkpt><trkpt lat="44.5409672" lon="8.5369335"><ele>722.0</ele><time>2026-04-04T10:59:55.491Z</time></trkpt><trkpt lat="44.5410731" lon="8.536887"><ele>722.0</ele><time>2026-04-04T10:59:56.491Z</time></trkpt><trkpt lat="44.5411668" lon="8.53678"><ele>722.0</ele><time>2026-04-04T10:59:57.491Z</time></trkpt><trkpt lat="44.5412379" lon="8.5366382"><ele>723.5</ele><time>2026-04-04T10:59:58.492Z</time></trkpt><trkpt lat="44.5412906" lon="8.5364904"><ele>725.0</ele><time>2026-04-04T10:59:59.49Z</time></trkpt><trkpt lat="44.5413393" lon="8.5363404"><ele>726.5</ele><time>2026-04-04T11:00:00.491Z</time></trkpt><trkpt lat="44.5413946" lon="8.5361491"><ele>728.0</ele><time>2026-04-04T11:00:01.491Z</time></trkpt><trkpt lat="44.5414446" lon="8.5359625"><ele>728.0</ele><time>2026-04-04T11:00:02.49Z</time></trkpt><trkpt lat="44.5415018" lon="8.5357923"><ele>728.0</ele><time>2026-04-04T11:00:03.491Z</time></trkpt><trkpt lat="44.5415766" lon="8.5356447"><ele>728.0</ele><time>2026-04-04T11:00:04.491Z</time></trkpt><trkpt lat="44.5416637" lon="8.5355081"><ele>728.0</ele><time>2026-04-04T11:00:05.492Z</time></trkpt><trkpt lat="44.5417562" lon="8.5353758"><ele>727.75</ele><time>2026-04-04T11:00:06.491Z</time></trkpt><trkpt lat="44.5418472" lon="8.5352488"><ele>727.5</ele><time>2026-04-04T11:00:07.491Z</time></trkpt><trkpt lat="44.5419354" lon="8.5351274"><ele>727.25</ele><time>2026-04-04T11:00:08.49Z</time></trkpt><trkpt lat="44.5420192" lon="8.5350135"><ele>727.0</ele><time>2026-04-04T11:00:09.491Z</time></trkpt><trkpt lat="44.5421049" lon="8.5349089"><ele>727.0</ele><time>2026-04-04T11:00:10.492Z</time></trkpt><trkpt lat="44.5421959" lon="8.5348054"><ele>727.0</ele><time>2026-04-04T11:00:11.492Z</time></trkpt><trkpt lat="44.5422835" lon="8.5346918"><ele>727.0</ele><time>2026-04-04T11:00:12.492Z</time></trkpt><trkpt lat="44.5423682" lon="8.5345835"><ele>727.0</ele><time>2026-04-04T11:00:13.492Z</time></trkpt><trkpt lat="44.5424527" lon="8.5345013"><ele>720.5</ele><time>2026-04-04T11:00:14.492Z</time></trkpt><trkpt lat="44.5425433" lon="8.5344341"><ele>714.0</ele><time>2026-04-04T11:00:15.491Z</time></trkpt><trkpt lat="44.5426452" lon="8.5343647"><ele>707.5</ele><time>2026-04-04T11:00:16.491Z</time></trkpt><trkpt lat="44.5427417" lon="8.5342558"><ele>701.0</ele><time>2026-04-04T11:00:17.491Z</time></trkpt><trkpt lat="44.5428266" lon="8.5341046"><ele>702.5</ele><time>2026-04-04T11:00:18.492Z</time></trkpt><trkpt lat="44.5428968" lon="8.5339482"><ele>704.0</ele><time>2026-04-04T11:00:19.492Z</time></trkpt><trkpt lat="44.542967" lon="8.5338207"><ele>705.5</ele><time>2026-04-04T11:00:20.492Z</time></trkpt><trkpt lat="44.5430475" lon="8.5337215"><ele>707.0</ele><time>2026-04-04T11:00:21.491Z</time></trkpt><trkpt lat="44.5431445" lon="8.5336359"><ele>707.0</ele><time>2026-04-04T11:00:22.491Z</time></trkpt><trkpt lat="44.5432265" lon="8.5335075"><ele>707.0</ele><time>2026-04-04T11:00:23.492Z</time></trkpt><trkpt lat="44.5432856" lon="8.5333463"><ele>707.0</ele><time>2026-04-04T11:00:24.491Z</time></trkpt><trkpt lat="44.5433139" lon="8.5331774"><ele>707.0</ele><time>2026-04-04T11:00:25.492Z</time></trkpt><trkpt lat="44.5433354" lon="8.5330116"><ele>702.25</ele><time>2026-04-04T11:00:26.491Z</time></trkpt><trkpt lat="44.5433628" lon="8.5328547"><ele>697.5</ele><time>2026-04-04T11:00:27.492Z</time></trkpt><trkpt lat="44.5434182" lon="8.5327186"><ele>692.75</ele><time>2026-04-04T11:00:28.492Z</time></trkpt><trkpt lat="44.5434973" lon="8.5326045"><ele>688.0</ele><time>2026-04-04T11:00:29.492Z</time></trkpt><trkpt lat="44.5435767" lon="8.5324983"><ele>688.0</ele><time>2026-04-04T11:00:30.492Z</time></trkpt><trkpt lat="44.5436342" lon="8.5323753"><ele>688.0</ele><time>2026-04-04T11:00:31.492Z</time></trkpt><trkpt lat="44.543664" lon="8.5322355"><ele>688.0</ele><time>2026-04-04T11:00:32.491Z</time></trkpt><trkpt lat="44.5436888" lon="8.5320958"><ele>688.0</ele><time>2026-04-04T11:00:33.492Z</time></trkpt><trkpt lat="44.5437309" lon="8.5319808"><ele>688.0</ele><time>2026-04-04T11:00:34.492Z</time></trkpt><trkpt lat="44.5438089" lon="8.5319137"><ele>690.8</ele><time>2026-04-04T11:00:35.492Z</time></trkpt><trkpt lat="44.5439321" lon="8.5319192"><ele>693.5999999999999</ele><time>2026-04-04T11:00:36.492Z</time></trkpt><trkpt lat="44.5440541" lon="8.5319316"><ele>696.4000000000001</ele><time>2026-04-04T11:00:37.492Z</time></trkpt><trkpt lat="44.5441523" lon="8.5319133"><ele>699.2</ele><time>2026-04-04T11:00:38.492Z</time></trkpt><trkpt lat="44.5442331" lon="8.5318372"><ele>702.0</ele><time>2026-04-04T11:00:39.492Z</time></trkpt><trkpt lat="44.5442845" lon="8.5317003"><ele>702.0</ele><time>2026-04-04T11:00:40.492Z</time></trkpt><trkpt lat="44.5442991" lon="8.531538"><ele>702.0</ele><time>2026-04-04T11:00:41.492Z</time></trkpt><trkpt lat="44.5442871" lon="8.5313765"><ele>702.0</ele><time>2026-04-04T11:00:42.492Z</time></trkpt><trkpt lat="44.5442617" lon="8.5312233"><ele>702.0</ele><time>2026-04-04T11:00:43.492Z</time></trkpt><trkpt lat="44.5442438" lon="8.5310898"><ele>702.0</ele><time>2026-04-04T11:00:44.492Z</time></trkpt><trkpt lat="44.5442425" lon="8.5309612"><ele>703.2</ele><time>2026-04-04T11:00:45.492Z</time></trkpt><trkpt lat="44.5442697" lon="8.5308312"><ele>704.4000000000001</ele><time>2026-04-04T11:00:46.492Z</time></trkpt><trkpt lat="44.54433" lon="8.5307214"><ele>705.5999999999999</ele><time>2026-04-04T11:00:47.492Z</time></trkpt><trkpt lat="44.5444171" lon="8.5306694"><ele>706.8</ele><time>2026-04-04T11:00:48.492Z</time></trkpt><trkpt lat="44.5445199" lon="8.5306866"><ele>708.0</ele><time>2026-04-04T11:00:49.492Z</time></trkpt><trkpt lat="44.5446232" lon="8.5307217"><ele>708.0</ele><time>2026-04-04T11:00:50.492Z</time></trkpt><trkpt lat="44.5447346" lon="8.5307418"><ele>708.0</ele><time>2026-04-04T11:00:51.491Z</time></trkpt><trkpt lat="44.5448441" lon="8.5307147"><ele>708.0</ele><time>2026-04-04T11:00:52.492Z</time></trkpt><trkpt lat="44.5449299" lon="8.5306357"><ele>708.0</ele><time>2026-04-04T11:00:53.492Z</time></trkpt><trkpt lat="44.5449927" lon="8.5305278"><ele>708.0</ele><time>2026-04-04T11:00:54.492Z</time></trkpt><trkpt lat="44.5450462" lon="8.5304066"><ele>705.4</ele><time>2026-04-04T11:00:55.492Z</time></trkpt><trkpt lat="44.5451124" lon="8.5303119"><ele>702.8</ele><time>2026-04-04T11:00:56.492Z</time></trkpt><trkpt lat="44.545192" lon="8.5302674"><ele>700.2</ele><time>2026-04-04T11:00:57.491Z</time></trkpt><trkpt lat="44.545292" lon="8.5302508"><ele>697.6</ele><time>2026-04-04T11:00:58.492Z</time></trkpt><trkpt lat="44.545408" lon="8.530262"><ele>695.0</ele><time>2026-04-04T11:00:59.491Z</time></trkpt><trkpt lat="44.5455276" lon="8.5302787"><ele>695.0</ele><time>2026-04-04T11:01:00.491Z</time></trkpt><trkpt lat="44.5456422" lon="8.5302818"><ele>695.0</ele><time>2026-04-04T11:01:01.492Z</time></trkpt><trkpt lat="44.5457604" lon="8.5302833"><ele>695.0</ele><time>2026-04-04T11:01:02.492Z</time></trkpt><trkpt lat="44.545882" lon="8.530279"><ele>695.0</ele><time>2026-04-04T11:01:03.492Z</time></trkpt><trkpt lat="44.5460114" lon="8.5302822"><ele>695.0</ele><time>2026-04-04T11:01:04.492Z</time></trkpt><trkpt lat="44.5461381" lon="8.5302924"><ele>695.0</ele><time>2026-04-04T11:01:05.492Z</time></trkpt><trkpt lat="44.546267" lon="8.5303105"><ele>695.0</ele><time>2026-04-04T11:01:06.493Z</time></trkpt><trkpt lat="44.5463848" lon="8.5303161"><ele>695.0</ele><time>2026-04-04T11:01:07.493Z</time></trkpt><trkpt lat="44.5464949" lon="8.5302976"><ele>697.75</ele><time>2026-04-04T11:01:08.493Z</time></trkpt><trkpt lat="44.5465985" lon="8.5302493"><ele>700.5</ele><time>2026-04-04T11:01:09.493Z</time></trkpt><trkpt lat="44.5466901" lon="8.5301547"><ele>703.25</ele><time>2026-04-04T11:01:10.492Z</time></trkpt><trkpt lat="44.5467657" lon="8.5300102"><ele>706.0</ele><time>2026-04-04T11:01:11.493Z</time></trkpt><trkpt lat="44.5468065" lon="8.5298333"><ele>706.0</ele><time>2026-04-04T11:01:12.493Z</time></trkpt><trkpt lat="44.5468064" lon="8.5296443"><ele>706.0</ele><time>2026-04-04T11:01:13.493Z</time></trkpt><trkpt lat="44.546779" lon="8.5294424"><ele>706.0</ele><time>2026-04-04T11:01:14.492Z</time></trkpt><trkpt lat="44.5467699" lon="8.5292415"><ele>706.0</ele><time>2026-04-04T11:01:15.493Z</time></trkpt><trkpt lat="44.546787" lon="8.5290376"><ele>704.0</ele><time>2026-04-04T11:01:16.492Z</time></trkpt><trkpt lat="44.5468309" lon="8.528849"><ele>702.0</ele><time>2026-04-04T11:01:17.493Z</time></trkpt><trkpt lat="44.546858" lon="8.5286618"><ele>700.0</ele><time>2026-04-04T11:01:18.492Z</time></trkpt><trkpt lat="44.5468514" lon="8.5284643"><ele>698.0</ele><time>2026-04-04T11:01:19.492Z</time></trkpt><trkpt lat="44.5468289" lon="8.5282731"><ele>697.0</ele><time>2026-04-04T11:01:20.492Z</time></trkpt><trkpt lat="44.5468023" lon="8.5280868"><ele>696.0</ele><time>2026-04-04T11:01:21.492Z</time></trkpt><trkpt lat="44.5467869" lon="8.5279188"><ele>695.0</ele><time>2026-04-04T11:01:22.492Z</time></trkpt><trkpt lat="44.5467722" lon="8.5277586"><ele>694.0</ele><time>2026-04-04T11:01:23.493Z</time></trkpt><trkpt lat="44.5467605" lon="8.5276109"><ele>693.75</ele><time>2026-04-04T11:01:24.492Z</time></trkpt><trkpt lat="44.546752" lon="8.5274583"><ele>693.5</ele><time>2026-04-04T11:01:25.492Z</time></trkpt><trkpt lat="44.5467565" lon="8.5272958"><ele>693.25</ele><time>2026-04-04T11:01:26.492Z</time></trkpt><trkpt lat="44.5467796" lon="8.5271329"><ele>693.0</ele><time>2026-04-04T11:01:27.492Z</time></trkpt><trkpt lat="44.5468161" lon="8.5269727"><ele>692.5</ele><time>2026-04-04T11:01:28.493Z</time></trkpt><trkpt lat="44.5468512" lon="8.5268121"><ele>692.0</ele><time>2026-04-04T11:01:29.493Z</time></trkpt><trkpt lat="44.5468675" lon="8.5266399"><ele>691.5</ele><time>2026-04-04T11:01:30.493Z</time></trkpt><trkpt lat="44.5468618" lon="8.5264547"><ele>691.0</ele><time>2026-04-04T11:01:31.493Z</time></trkpt><trkpt lat="44.5468427" lon="8.5262504"><ele>692.0</ele><time>2026-04-04T11:01:32.492Z</time></trkpt><trkpt lat="44.5468235" lon="8.5260348"><ele>693.0</ele><time>2026-04-04T11:01:33.493Z</time></trkpt><trkpt lat="44.5468114" lon="8.5258169"><ele>694.0</ele><time>2026-04-04T11:01:34.493Z</time></trkpt><trkpt lat="44.5468052" lon="8.5255999"><ele>693.5</ele><time>2026-04-04T11:01:35.493Z</time></trkpt><trkpt lat="44.5468175" lon="8.5253864"><ele>693.0</ele><time>2026-04-04T11:01:36.493Z</time></trkpt><trkpt lat="44.5468532" lon="8.5251897"><ele>692.5</ele><time>2026-04-04T11:01:37.493Z</time></trkpt><trkpt lat="44.5469116" lon="8.5250263"><ele>692.0</ele><time>2026-04-04T11:01:38.492Z</time></trkpt><trkpt lat="44.5469779" lon="8.5248837"><ele>692.0</ele><time>2026-04-04T11:01:39.493Z</time></trkpt><trkpt lat="44.5470394" lon="8.5247525"><ele>692.0</ele><time>2026-04-04T11:01:40.493Z</time></trkpt><trkpt lat="44.5471051" lon="8.5246313"><ele>692.0</ele><time>2026-04-04T11:01:41.493Z</time></trkpt><trkpt lat="44.5471843" lon="8.5245252"><ele>692.0</ele><time>2026-04-04T11:01:42.492Z</time></trkpt><trkpt lat="44.5472786" lon="8.5244355"><ele>692.0</ele><time>2026-04-04T11:01:43.493Z</time></trkpt><trkpt lat="44.5473811" lon="8.5243556"><ele>694.25</ele><time>2026-04-04T11:01:44.493Z</time></trkpt><trkpt lat="44.5474922" lon="8.5242813"><ele>696.5</ele><time>2026-04-04T11:01:45.493Z</time></trkpt><trkpt lat="44.5476057" lon="8.5242323"><ele>698.75</ele><time>2026-04-04T11:01:46.492Z</time></trkpt><trkpt lat="44.5477247" lon="8.5241526"><ele>701.0</ele><time>2026-04-04T11:01:47.493Z</time></trkpt><trkpt lat="44.5478235" lon="8.5240435"><ele>701.0</ele><time>2026-04-04T11:01:48.492Z</time></trkpt><trkpt lat="44.547908" lon="8.5239142"><ele>701.0</ele><time>2026-04-04T11:01:49.494Z</time></trkpt><trkpt lat="44.5479803" lon="8.5237828"><ele>701.0</ele><time>2026-04-04T11:01:50.493Z</time></trkpt><trkpt lat="44.5480506" lon="8.5236566"><ele>701.0</ele><time>2026-04-04T11:01:51.493Z</time></trkpt><trkpt lat="44.5481217" lon="8.5235406"><ele>702.4</ele><time>2026-04-04T11:01:52.493Z</time></trkpt><trkpt lat="44.5482039" lon="8.5234426"><ele>703.8</ele><time>2026-04-04T11:01:53.494Z</time></trkpt><trkpt lat="44.5482998" lon="8.5233627"><ele>705.1999999999999</ele><time>2026-04-04T11:01:54.492Z</time></trkpt><trkpt lat="44.5483974" lon="8.5232873"><ele>706.5999999999999</ele><time>2026-04-04T11:01:55.493Z</time></trkpt><trkpt lat="44.5484939" lon="8.523205"><ele>708.0</ele><time>2026-04-04T11:01:56.493Z</time></trkpt><trkpt lat="44.5485873" lon="8.5231033"><ele>708.0</ele><time>2026-04-04T11:01:57.493Z</time></trkpt><trkpt lat="44.5486791" lon="8.5229828"><ele>708.0</ele><time>2026-04-04T11:01:58.493Z</time></trkpt><trkpt lat="44.5487641" lon="8.5228551"><ele>708.0</ele><time>2026-04-04T11:01:59.493Z</time></trkpt><trkpt lat="44.5488353" lon="8.5227222"><ele>708.0</ele><time>2026-04-04T11:02:00.493Z</time></trkpt><trkpt lat="44.5488777" lon="8.5225735"><ele>713.5</ele><time>2026-04-04T11:02:01.493Z</time></trkpt><trkpt lat="44.548899" lon="8.5224218"><ele>719.0</ele><time>2026-04-04T11:02:02.493Z</time></trkpt><trkpt lat="44.5488967" lon="8.5222457"><ele>724.5</ele><time>2026-04-04T11:02:03.493Z</time></trkpt><trkpt lat="44.5488842" lon="8.5220631"><ele>730.0</ele><time>2026-04-04T11:02:04.493Z</time></trkpt><trkpt lat="44.5488695" lon="8.5218808"><ele>730.0</ele><time>2026-04-04T11:02:05.494Z</time></trkpt><trkpt lat="44.5488578" lon="8.5216903"><ele>730.0</ele><time>2026-04-04T11:02:06.492Z</time></trkpt><trkpt lat="44.5488494" lon="8.5215102"><ele>730.0</ele><time>2026-04-04T11:02:07.494Z</time></trkpt><trkpt lat="44.5488444" lon="8.5213465"><ele>730.0</ele><time>2026-04-04T11:02:08.494Z</time></trkpt><trkpt lat="44.5488443" lon="8.5211946"><ele>729.8</ele><time>2026-04-04T11:02:09.493Z</time></trkpt><trkpt lat="44.5488411" lon="8.5210356"><ele>729.6</ele><time>2026-04-04T11:02:10.494Z</time></trkpt><trkpt lat="44.548836" lon="8.5208688"><ele>729.4000000000001</ele><time>2026-04-04T11:02:11.494Z</time></trkpt><trkpt lat="44.5488365" lon="8.5207054"><ele>729.2</ele><time>2026-04-04T11:02:12.494Z</time></trkpt><trkpt lat="44.548851" lon="8.5205663"><ele>729.0</ele><time>2026-04-04T11:02:13.494Z</time></trkpt><trkpt lat="44.5488892" lon="8.5204492"><ele>728.2</ele><time>2026-04-04T11:02:14.493Z</time></trkpt><trkpt lat="44.5489555" lon="8.5203596"><ele>727.4000000000001</ele><time>2026-04-04T11:02:15.494Z</time></trkpt><trkpt lat="44.5490349" lon="8.5202966"><ele>726.6</ele><time>2026-04-04T11:02:16.494Z</time></trkpt><trkpt lat="44.5491201" lon="8.5202346"><ele>725.8</ele><time>2026-04-04T11:02:17.493Z</time></trkpt><trkpt lat="44.5491989" lon="8.5201662"><ele>725.0</ele><time>2026-04-04T11:02:18.493Z</time></trkpt><trkpt lat="44.5492713" lon="8.5200689"><ele>725.0</ele><time>2026-04-04T11:02:19.493Z</time></trkpt><trkpt lat="44.5493318" lon="8.5199398"><ele>725.0</ele><time>2026-04-04T11:02:20.493Z</time></trkpt><trkpt lat="44.5493664" lon="8.5197955"><ele>725.0</ele><time>2026-04-04T11:02:21.496Z</time></trkpt><trkpt lat="44.5493787" lon="8.5196513"><ele>725.0</ele><time>2026-04-04T11:02:22.494Z</time></trkpt><trkpt lat="44.5493776" lon="8.5195205"><ele>725.0</ele><time>2026-04-04T11:02:23.493Z</time></trkpt><trkpt lat="44.5493729" lon="8.5193935"><ele>725.8</ele><time>2026-04-04T11:02:24.494Z</time></trkpt><trkpt lat="44.5493728" lon="8.5192715"><ele>726.6</ele><time>2026-04-04T11:02:25.493Z</time></trkpt><trkpt lat="44.5493757" lon="8.5191455"><ele>727.4000000000001</ele><time>2026-04-04T11:02:26.494Z</time></trkpt><trkpt lat="44.5493806" lon="8.5190152"><ele>728.2</ele><time>2026-04-04T11:02:27.494Z</time></trkpt><trkpt lat="44.5493858" lon="8.5188783"><ele>729.0</ele><time>2026-04-04T11:02:28.494Z</time></trkpt><trkpt lat="44.5493894" lon="8.5187338"><ele>729.6</ele><time>2026-04-04T11:02:29.494Z</time></trkpt><trkpt lat="44.5493903" lon="8.5185812"><ele>730.2</ele><time>2026-04-04T11:02:30.493Z</time></trkpt><trkpt lat="44.5493919" lon="8.5184314"><ele>730.8000000000001</ele><time>2026-04-04T11:02:31.494Z</time></trkpt><trkpt lat="44.5493917" lon="8.5182822"><ele>731.4000000000001</ele><time>2026-04-04T11:02:32.494Z</time></trkpt><trkpt lat="44.5493927" lon="8.5181365"><ele>732.0</ele><time>2026-04-04T11:02:33.494Z</time></trkpt><trkpt lat="44.5493999" lon="8.5179924"><ele>734.0</ele><time>2026-04-04T11:02:34.494Z</time></trkpt><trkpt lat="44.5494193" lon="8.5178492"><ele>736.0</ele><time>2026-04-04T11:02:35.494Z</time></trkpt><trkpt lat="44.5494536" lon="8.5177025"><ele>738.0</ele><time>2026-04-04T11:02:36.494Z</time></trkpt><trkpt lat="44.5494999" lon="8.5175582"><ele>740.0</ele><time>2026-04-04T11:02:37.493Z</time></trkpt><trkpt lat="44.5495491" lon="8.517417"><ele>742.0</ele><time>2026-04-04T11:02:38.494Z</time></trkpt><trkpt lat="44.5495945" lon="8.5172853"><ele>738.25</ele><time>2026-04-04T11:02:39.493Z</time></trkpt><trkpt lat="44.5496327" lon="8.5171455"><ele>734.5</ele><time>2026-04-04T11:02:40.494Z</time></trkpt><trkpt lat="44.5496655" lon="8.5169964"><ele>730.75</ele><time>2026-04-04T11:02:41.494Z</time></trkpt><trkpt lat="44.5497012" lon="8.5168435"><ele>727.0</ele><time>2026-04-04T11:02:42.496Z</time></trkpt><trkpt lat="44.5497531" lon="8.5166892"><ele>727.0</ele><time>2026-04-04T11:02:43.494Z</time></trkpt><trkpt lat="44.5498212" lon="8.5165414"><ele>727.0</ele><time>2026-04-04T11:02:44.494Z</time></trkpt><trkpt lat="44.5499016" lon="8.5164028"><ele>727.0</ele><time>2026-04-04T11:02:45.494Z</time></trkpt><trkpt lat="44.5499867" lon="8.5162699"><ele>727.0</ele><time>2026-04-04T11:02:46.494Z</time></trkpt><trkpt lat="44.5500701" lon="8.5161352"><ele>726.25</ele><time>2026-04-04T11:02:47.493Z</time></trkpt><trkpt lat="44.5501519" lon="8.5159937"><ele>725.5</ele><time>2026-04-04T11:02:48.494Z</time></trkpt><trkpt lat="44.5502334" lon="8.5158439"><ele>724.75</ele><time>2026-04-04T11:02:49.494Z</time></trkpt><trkpt lat="44.5503212" lon="8.5156973"><ele>724.0</ele><time>2026-04-04T11:02:50.494Z</time></trkpt><trkpt lat="44.5504105" lon="8.5155565"><ele>724.0</ele><time>2026-04-04T11:02:51.494Z</time></trkpt><trkpt lat="44.5505015" lon="8.5154263"><ele>724.0</ele><time>2026-04-04T11:02:52.493Z</time></trkpt><trkpt lat="44.5505927" lon="8.5153056"><ele>724.0</ele><time>2026-04-04T11:02:53.493Z</time></trkpt><trkpt lat="44.5506787" lon="8.5151867"><ele>724.0</ele><time>2026-04-04T11:02:54.494Z</time></trkpt><trkpt lat="44.5507587" lon="8.5150523"><ele>726.0</ele><time>2026-04-04T11:02:55.494Z</time></trkpt><trkpt lat="44.5508295" lon="8.5149048"><ele>728.0</ele><time>2026-04-04T11:02:56.494Z</time></trkpt><trkpt lat="44.5508893" lon="8.5147505"><ele>730.0</ele><time>2026-04-04T11:02:57.493Z</time></trkpt><trkpt lat="44.5509427" lon="8.5145995"><ele>732.0</ele><time>2026-04-04T11:02:58.493Z</time></trkpt><trkpt lat="44.5509885" lon="8.5144534"><ele>732.0</ele><time>2026-04-04T11:02:59.494Z</time></trkpt><trkpt lat="44.5510257" lon="8.5143108"><ele>732.0</ele><time>2026-04-04T11:03:00.494Z</time></trkpt><trkpt lat="44.551049" lon="8.5141637"><ele>732.0</ele><time>2026-04-04T11:03:01.493Z</time></trkpt><trkpt lat="44.5510458" lon="8.5140055"><ele>732.0</ele><time>2026-04-04T11:03:02.494Z</time></trkpt><trkpt lat="44.5510119" lon="8.5138559"><ele>732.0</ele><time>2026-04-04T11:03:03.495Z</time></trkpt><trkpt lat="44.5509482" lon="8.5137182"><ele>731.4000000000001</ele><time>2026-04-04T11:03:04.494Z</time></trkpt><trkpt lat="44.5508779" lon="8.5136063"><ele>730.8000000000001</ele><time>2026-04-04T11:03:05.495Z</time></trkpt><trkpt lat="44.5508226" lon="8.513495"><ele>730.2</ele><time>2026-04-04T11:03:06.495Z</time></trkpt><trkpt lat="44.5508065" lon="8.5133601"><ele>729.6</ele><time>2026-04-04T11:03:07.494Z</time></trkpt><trkpt lat="44.5508243" lon="8.5132161"><ele>729.0</ele><time>2026-04-04T11:03:08.495Z</time></trkpt><trkpt lat="44.5508718" lon="8.5130734"><ele>729.0</ele><time>2026-04-04T11:03:09.494Z</time></trkpt><trkpt lat="44.5509423" lon="8.5129448"><ele>729.0</ele><time>2026-04-04T11:03:10.495Z</time></trkpt><trkpt lat="44.5510204" lon="8.5128248"><ele>729.0</ele><time>2026-04-04T11:03:11.495Z</time></trkpt><trkpt lat="44.5511043" lon="8.5127108"><ele>729.0</ele><time>2026-04-04T11:03:12.494Z</time></trkpt><trkpt lat="44.5511855" lon="8.512581"><ele>726.5</ele><time>2026-04-04T11:03:13.495Z</time></trkpt><trkpt lat="44.5512511" lon="8.5124328"><ele>724.0</ele><time>2026-04-04T11:03:14.495Z</time></trkpt><trkpt lat="44.5512949" lon="8.5122777"><ele>721.5</ele><time>2026-04-04T11:03:15.494Z</time></trkpt><trkpt lat="44.5513399" lon="8.5121191"><ele>719.0</ele><time>2026-04-04T11:03:16.495Z</time></trkpt><trkpt lat="44.5514031" lon="8.5119629"><ele>719.0</ele><time>2026-04-04T11:03:17.494Z</time></trkpt><trkpt lat="44.5514872" lon="8.5118251"><ele>719.0</ele><time>2026-04-04T11:03:18.495Z</time></trkpt><trkpt lat="44.5515884" lon="8.5116946"><ele>719.0</ele><time>2026-04-04T11:03:19.495Z</time></trkpt><trkpt lat="44.5516977" lon="8.5115566"><ele>719.0</ele><time>2026-04-04T11:03:20.494Z</time></trkpt><trkpt lat="44.5518055" lon="8.5114178"><ele>719.0</ele><time>2026-04-04T11:03:21.495Z</time></trkpt><trkpt lat="44.5519121" lon="8.5112879"><ele>719.0</ele><time>2026-04-04T11:03:22.494Z</time></trkpt><trkpt lat="44.552023" lon="8.5111636"><ele>719.0</ele><time>2026-04-04T11:03:23.495Z</time></trkpt><trkpt lat="44.5521393" lon="8.5110578"><ele>719.0</ele><time>2026-04-04T11:03:24.495Z</time></trkpt><trkpt lat="44.5522603" lon="8.5109703"><ele>716.75</ele><time>2026-04-04T11:03:25.494Z</time></trkpt><trkpt lat="44.552384" lon="8.5109057"><ele>714.5</ele><time>2026-04-04T11:03:26.495Z</time></trkpt><trkpt lat="44.5525061" lon="8.5108614"><ele>712.25</ele><time>2026-04-04T11:03:27.495Z</time></trkpt><trkpt lat="44.5526192" lon="8.5108438"><ele>710.0</ele><time>2026-04-04T11:03:28.495Z</time></trkpt><trkpt lat="44.5527151" lon="8.5108535"><ele>710.0</ele><time>2026-04-04T11:03:29.494Z</time></trkpt><trkpt lat="44.5528041" lon="8.5108526"><ele>710.0</ele><time>2026-04-04T11:03:30.494Z</time></trkpt><trkpt lat="44.552884" lon="8.5108176"><ele>710.0</ele><time>2026-04-04T11:03:31.495Z</time></trkpt><trkpt lat="44.5529589" lon="8.5107512"><ele>710.0</ele><time>2026-04-04T11:03:32.494Z</time></trkpt><trkpt lat="44.553012" lon="8.5106683"><ele>710.0</ele><time>2026-04-04T11:03:33.494Z</time></trkpt><trkpt lat="44.5530504" lon="8.5105841"><ele>710.0</ele><time>2026-04-04T11:03:34.494Z</time></trkpt><trkpt lat="44.5530841" lon="8.5105022"><ele>710.4</ele><time>2026-04-04T11:03:35.495Z</time></trkpt><trkpt lat="44.553128" lon="8.5104198"><ele>710.8</ele><time>2026-04-04T11:03:36.494Z</time></trkpt><trkpt lat="44.5531895" lon="8.5103387"><ele>711.2</ele><time>2026-04-04T11:03:37.495Z</time></trkpt><trkpt lat="44.5532719" lon="8.5102612"><ele>711.6</ele><time>2026-04-04T11:03:38.495Z</time></trkpt><trkpt lat="44.5533645" lon="8.5101919"><ele>712.0</ele><time>2026-04-04T11:03:39.494Z</time></trkpt><trkpt lat="44.5534571" lon="8.5101223"><ele>712.0</ele><time>2026-04-04T11:03:40.495Z</time></trkpt><trkpt lat="44.5535461" lon="8.5100413"><ele>712.0</ele><time>2026-04-04T11:03:41.495Z</time></trkpt><trkpt lat="44.5536203" lon="8.5099321"><ele>712.0</ele><time>2026-04-04T11:03:42.495Z</time></trkpt><trkpt lat="44.5536738" lon="8.5097935"><ele>712.0</ele><time>2026-04-04T11:03:43.495Z</time></trkpt><trkpt lat="44.5537056" lon="8.5096366"><ele>712.0</ele><time>2026-04-04T11:03:44.494Z</time></trkpt><trkpt lat="44.5537113" lon="8.5094659"><ele>710.2</ele><time>2026-04-04T11:03:45.495Z</time></trkpt><trkpt lat="44.5536971" lon="8.5092981"><ele>708.4000000000001</ele><time>2026-04-04T11:03:46.495Z</time></trkpt><trkpt lat="44.5536787" lon="8.5091418"><ele>706.5999999999999</ele><time>2026-04-04T11:03:47.495Z</time></trkpt><trkpt lat="44.5536696" lon="8.5090003"><ele>704.8</ele><time>2026-04-04T11:03:48.496Z</time></trkpt><trkpt lat="44.5536801" lon="8.5088728"><ele>703.0</ele><time>2026-04-04T11:03:49.495Z</time></trkpt><trkpt lat="44.5537097" lon="8.5087525"><ele>706.4</ele><time>2026-04-04T11:03:50.495Z</time></trkpt><trkpt lat="44.553753" lon="8.5086337"><ele>709.8</ele><time>2026-04-04T11:03:51.494Z</time></trkpt><trkpt lat="44.553805" lon="8.5085152"><ele>713.2</ele><time>2026-04-04T11:03:52.495Z</time></trkpt><trkpt lat="44.5538609" lon="8.5084018"><ele>716.6</ele><time>2026-04-04T11:03:53.495Z</time></trkpt><trkpt lat="44.553908" lon="8.5082863"><ele>720.0</ele><time>2026-04-04T11:03:54.495Z</time></trkpt><trkpt lat="44.5539367" lon="8.508166"><ele>720.0</ele><time>2026-04-04T11:03:55.495Z</time></trkpt><trkpt lat="44.5539506" lon="8.5080525"><ele>720.0</ele><time>2026-04-04T11:03:56.495Z</time></trkpt><trkpt lat="44.5539511" lon="8.5079514"><ele>720.0</ele><time>2026-04-04T11:03:57.495Z</time></trkpt><trkpt lat="44.5539365" lon="8.5078584"><ele>720.0</ele><time>2026-04-04T11:03:58.495Z</time></trkpt><trkpt lat="44.5539077" lon="8.5077759"><ele>720.0</ele><time>2026-04-04T11:03:59.495Z</time></trkpt><trkpt lat="44.5538739" lon="8.5077005"><ele>720.0</ele><time>2026-04-04T11:04:00.495Z</time></trkpt><trkpt lat="44.5538278" lon="8.5075551"><ele>718.0</ele><time>2026-04-04T11:04:02.495Z</time></trkpt><trkpt lat="44.5538464" lon="8.5074005"><ele>716.0</ele><time>2026-04-04T11:04:04.496Z</time></trkpt><trkpt lat="44.5538935" lon="8.507329"><ele>714.0</ele><time>2026-04-04T11:04:05.496Z</time></trkpt><trkpt lat="44.5539556" lon="8.5072861"><ele>712.0</ele><time>2026-04-04T11:04:06.496Z</time></trkpt><trkpt lat="44.5540346" lon="8.5072963"><ele>710.0</ele><time>2026-04-04T11:04:07.495Z</time></trkpt><trkpt lat="44.554117" lon="8.5073294"><ele>708.0</ele><time>2026-04-04T11:04:08.495Z</time></trkpt><trkpt lat="44.5542027" lon="8.507365"><ele>708.0</ele><time>2026-04-04T11:04:09.494Z</time></trkpt><trkpt lat="44.5542854" lon="8.5073966"><ele>708.0</ele><time>2026-04-04T11:04:10.495Z</time></trkpt><trkpt lat="44.5543613" lon="8.5074033"><ele>708.0</ele><time>2026-04-04T11:04:11.495Z</time></trkpt><trkpt lat="44.5544352" lon="8.5073788"><ele>708.0</ele><time>2026-04-04T11:04:12.495Z</time></trkpt><trkpt lat="44.5545096" lon="8.507321"><ele>708.0</ele><time>2026-04-04T11:04:13.494Z</time></trkpt><trkpt lat="44.5545839" lon="8.5072351"><ele>708.0</ele><time>2026-04-04T11:04:14.495Z</time></trkpt><trkpt lat="44.5546591" lon="8.5071269"><ele>705.5</ele><time>2026-04-04T11:04:15.496Z</time></trkpt><trkpt lat="44.5547318" lon="8.5070036"><ele>703.0</ele><time>2026-04-04T11:04:16.495Z</time></trkpt><trkpt lat="44.5547985" lon="8.5068699"><ele>700.5</ele><time>2026-04-04T11:04:17.496Z</time></trkpt><trkpt lat="44.5548602" lon="8.5067299"><ele>698.0</ele><time>2026-04-04T11:04:18.496Z</time></trkpt><trkpt lat="44.55492" lon="8.5065909"><ele>698.0</ele><time>2026-04-04T11:04:19.495Z</time></trkpt><trkpt lat="44.554982" lon="8.5064569"><ele>698.0</ele><time>2026-04-04T11:04:20.495Z</time></trkpt><trkpt lat="44.5550417" lon="8.5063239"><ele>698.0</ele><time>2026-04-04T11:04:21.494Z</time></trkpt><trkpt lat="44.5550938" lon="8.5061892"><ele>698.0</ele><time>2026-04-04T11:04:22.496Z</time></trkpt><trkpt lat="44.5551264" lon="8.5060509"><ele>698.0</ele><time>2026-04-04T11:04:23.496Z</time></trkpt><trkpt lat="44.555132" lon="8.5059134"><ele>695.4</ele><time>2026-04-04T11:04:24.496Z</time></trkpt><trkpt lat="44.5551033" lon="8.5057707"><ele>692.8</ele><time>2026-04-04T11:04:25.497Z</time></trkpt><trkpt lat="44.5550582" lon="8.5056246"><ele>690.2</ele><time>2026-04-04T11:04:26.496Z</time></trkpt><trkpt lat="44.5550237" lon="8.5054799"><ele>687.6</ele><time>2026-04-04T11:04:27.495Z</time></trkpt><trkpt lat="44.5550256" lon="8.5053412"><ele>685.0</ele><time>2026-04-04T11:04:28.495Z</time></trkpt><trkpt lat="44.5550585" lon="8.5052073"><ele>682.75</ele><time>2026-04-04T11:04:29.495Z</time></trkpt><trkpt lat="44.5551487" lon="8.5051147"><ele>680.5</ele><time>2026-04-04T11:04:30.494Z</time></trkpt><trkpt lat="44.5552633" lon="8.5050612"><ele>678.25</ele><time>2026-04-04T11:04:31.496Z</time></trkpt><trkpt lat="44.5553811" lon="8.5050085"><ele>676.0</ele><time>2026-04-04T11:04:32.495Z</time></trkpt><trkpt lat="44.5554943" lon="8.5049515"><ele>675.1999999999999</ele><time>2026-04-04T11:04:33.494Z</time></trkpt><trkpt lat="44.5555886" lon="8.5048657"><ele>674.4</ele><time>2026-04-04T11:04:34.496Z</time></trkpt><trkpt lat="44.5556441" lon="8.5047621"><ele>673.6</ele><time>2026-04-04T11:04:35.496Z</time></trkpt><trkpt lat="44.5556581" lon="8.5046481"><ele>672.8</ele><time>2026-04-04T11:04:36.495Z</time></trkpt><trkpt lat="44.5556584" lon="8.5045355"><ele>672.0</ele><time>2026-04-04T11:04:37.496Z</time></trkpt><trkpt lat="44.5556493" lon="8.5044047"><ele>671.2</ele><time>2026-04-04T11:04:38.496Z</time></trkpt><trkpt lat="44.5556403" lon="8.5042625"><ele>670.4000000000001</ele><time>2026-04-04T11:04:39.496Z</time></trkpt><trkpt lat="44.5556312" lon="8.5041233"><ele>669.5999999999999</ele><time>2026-04-04T11:04:40.496Z</time></trkpt><trkpt lat="44.5556152" lon="8.5039971"><ele>668.8</ele><time>2026-04-04T11:04:41.496Z</time></trkpt><trkpt lat="44.5555926" lon="8.5038824"><ele>668.0</ele><time>2026-04-04T11:04:42.496Z</time></trkpt><trkpt lat="44.5555631" lon="8.5037675"><ele>667.0</ele><time>2026-04-04T11:04:43.496Z</time></trkpt><trkpt lat="44.5555325" lon="8.5036521"><ele>666.0</ele><time>2026-04-04T11:04:44.496Z</time></trkpt><trkpt lat="44.5555034" lon="8.503534"><ele>665.0</ele><time>2026-04-04T11:04:45.496Z</time></trkpt><trkpt lat="44.5554767" lon="8.5034125"><ele>664.0</ele><time>2026-04-04T11:04:46.496Z</time></trkpt><trkpt lat="44.5554431" lon="8.5032855"><ele>663.0</ele><time>2026-04-04T11:04:47.496Z</time></trkpt><trkpt lat="44.5554017" lon="8.5031546"><ele>663.8</ele><time>2026-04-04T11:04:48.495Z</time></trkpt><trkpt lat="44.5553435" lon="8.5030193"><ele>664.5999999999999</ele><time>2026-04-04T11:04:49.496Z</time></trkpt><trkpt lat="44.5552753" lon="8.5028878"><ele>665.4000000000001</ele><time>2026-04-04T11:04:50.496Z</time></trkpt><trkpt lat="44.5552086" lon="8.5027629"><ele>666.2</ele><time>2026-04-04T11:04:51.495Z</time></trkpt><trkpt lat="44.5551485" lon="8.5026442"><ele>667.0</ele><time>2026-04-04T11:04:52.496Z</time></trkpt><trkpt lat="44.5550889" lon="8.5025224"><ele>669.0</ele><time>2026-04-04T11:04:53.496Z</time></trkpt><trkpt lat="44.5550307" lon="8.5024034"><ele>671.0</ele><time>2026-04-04T11:04:54.496Z</time></trkpt><trkpt lat="44.5549725" lon="8.5022774"><ele>673.0</ele><time>2026-04-04T11:04:55.496Z</time></trkpt><trkpt lat="44.5549135" lon="8.5021386"><ele>675.0</ele><time>2026-04-04T11:04:56.496Z</time></trkpt><trkpt lat="44.5548575" lon="8.5019904"><ele>677.0</ele><time>2026-04-04T11:04:57.496Z</time></trkpt><trkpt lat="44.5548062" lon="8.5018427"><ele>676.8</ele><time>2026-04-04T11:04:58.496Z</time></trkpt><trkpt lat="44.5547499" lon="8.5017068"><ele>676.6</ele><time>2026-04-04T11:04:59.496Z</time></trkpt><trkpt lat="44.5546891" lon="8.5015902"><ele>676.4</ele><time>2026-04-04T11:05:00.496Z</time></trkpt><trkpt lat="44.554626" lon="8.5014908"><ele>676.1999999999999</ele><time>2026-04-04T11:05:01.496Z</time></trkpt><trkpt lat="44.554562" lon="8.5014026"><ele>676.0</ele><time>2026-04-04T11:05:02.497Z</time></trkpt><trkpt lat="44.5545018" lon="8.5013182"><ele>676.6666666666667</ele><time>2026-04-04T11:05:03.496Z</time></trkpt><trkpt lat="44.5544462" lon="8.5012349"><ele>677.3333333333334</ele><time>2026-04-04T11:05:04.496Z</time></trkpt><trkpt lat="44.5544048" lon="8.5011465"><ele>678.0</ele><time>2026-04-04T11:05:05.496Z</time></trkpt><trkpt lat="44.5543976" lon="8.5010539"><ele>678.6666666666666</ele><time>2026-04-04T11:05:06.495Z</time></trkpt><trkpt lat="44.5544374" lon="8.5009515"><ele>679.3333333333333</ele><time>2026-04-04T11:05:07.495Z</time></trkpt><trkpt lat="44.5545045" lon="8.5008805"><ele>680.0</ele><time>2026-04-04T11:05:08.496Z</time></trkpt><trkpt lat="44.5546074" lon="8.5008646"><ele>680.25</ele><time>2026-04-04T11:05:09.496Z</time></trkpt><trkpt lat="44.5547186" lon="8.5008727"><ele>680.5</ele><time>2026-04-04T11:05:10.496Z</time></trkpt><trkpt lat="44.5548386" lon="8.5008787"><ele>680.75</ele><time>2026-04-04T11:05:11.497Z</time></trkpt><trkpt lat="44.5549556" lon="8.5008728"><ele>681.0</ele><time>2026-04-04T11:05:12.496Z</time></trkpt><trkpt lat="44.5550562" lon="8.5008403"><ele>681.0</ele><time>2026-04-04T11:05:13.496Z</time></trkpt><trkpt lat="44.5551331" lon="8.5007702"><ele>681.0</ele><time>2026-04-04T11:05:14.496Z</time></trkpt><trkpt lat="44.5551657" lon="8.500656"><ele>681.0</ele><time>2026-04-04T11:05:15.497Z</time></trkpt><trkpt lat="44.55517" lon="8.5005219"><ele>681.0</ele><time>2026-04-04T11:05:16.497Z</time></trkpt><trkpt lat="44.5551534" lon="8.5003758"><ele>681.0</ele><time>2026-04-04T11:05:17.496Z</time></trkpt><trkpt lat="44.5551356" lon="8.5002311"><ele>679.25</ele><time>2026-04-04T11:05:18.497Z</time></trkpt><trkpt lat="44.5551303" lon="8.5000796"><ele>677.5</ele><time>2026-04-04T11:05:19.497Z</time></trkpt><trkpt lat="44.555136" lon="8.4999108"><ele>675.75</ele><time>2026-04-04T11:05:20.497Z</time></trkpt><trkpt lat="44.5551496" lon="8.4997163"><ele>674.0</ele><time>2026-04-04T11:05:21.497Z</time></trkpt><trkpt lat="44.5551703" lon="8.4995336"><ele>672.75</ele><time>2026-04-04T11:05:22.496Z</time></trkpt><trkpt lat="44.5551945" lon="8.4993559"><ele>671.5</ele><time>2026-04-04T11:05:23.496Z</time></trkpt><trkpt lat="44.5552109" lon="8.4991761"><ele>670.25</ele><time>2026-04-04T11:05:24.496Z</time></trkpt><trkpt lat="44.5552182" lon="8.4989996"><ele>669.0</ele><time>2026-04-04T11:05:25.496Z</time></trkpt><trkpt lat="44.5552171" lon="8.4988253"><ele>669.0</ele><time>2026-04-04T11:05:26.496Z</time></trkpt><trkpt lat="44.5552087" lon="8.498651"><ele>669.0</ele><time>2026-04-04T11:05:27.496Z</time></trkpt><trkpt lat="44.5551932" lon="8.4984774"><ele>669.0</ele><time>2026-04-04T11:05:28.497Z</time></trkpt><trkpt lat="44.5551722" lon="8.4983026"><ele>669.0</ele><time>2026-04-04T11:05:29.497Z</time></trkpt><trkpt lat="44.5551541" lon="8.4981294"><ele>669.0</ele><time>2026-04-04T11:05:30.496Z</time></trkpt><trkpt lat="44.5551451" lon="8.4979597"><ele>669.0</ele><time>2026-04-04T11:05:31.497Z</time></trkpt><trkpt lat="44.5551509" lon="8.4977849"><ele>669.0</ele><time>2026-04-04T11:05:32.497Z</time></trkpt><trkpt lat="44.5551705" lon="8.4976094"><ele>669.0</ele><time>2026-04-04T11:05:33.496Z</time></trkpt><trkpt lat="44.5551945" lon="8.4974392"><ele>669.25</ele><time>2026-04-04T11:05:34.496Z</time></trkpt><trkpt lat="44.5552163" lon="8.4972669"><ele>669.5</ele><time>2026-04-04T11:05:35.497Z</time></trkpt><trkpt lat="44.5552406" lon="8.4970861"><ele>669.75</ele><time>2026-04-04T11:05:36.497Z</time></trkpt><trkpt lat="44.5552709" lon="8.4968981"><ele>670.0</ele><time>2026-04-04T11:05:37.497Z</time></trkpt><trkpt lat="44.5553092" lon="8.4967099"><ele>669.5</ele><time>2026-04-04T11:05:38.496Z</time></trkpt><trkpt lat="44.5553553" lon="8.49653"><ele>669.0</ele><time>2026-04-04T11:05:39.497Z</time></trkpt><trkpt lat="44.5554115" lon="8.496367"><ele>668.5</ele><time>2026-04-04T11:05:40.497Z</time></trkpt><trkpt lat="44.5554787" lon="8.4962166"><ele>668.0</ele><time>2026-04-04T11:05:41.497Z</time></trkpt><trkpt lat="44.5555536" lon="8.4960779"><ele>669.25</ele><time>2026-04-04T11:05:42.497Z</time></trkpt><trkpt lat="44.5556296" lon="8.4959464"><ele>670.5</ele><time>2026-04-04T11:05:43.496Z</time></trkpt><trkpt lat="44.5557042" lon="8.4958139"><ele>671.75</ele><time>2026-04-04T11:05:44.497Z</time></trkpt><trkpt lat="44.5557762" lon="8.4956764"><ele>673.0</ele><time>2026-04-04T11:05:45.497Z</time></trkpt><trkpt lat="44.5558501" lon="8.4955309"><ele>673.25</ele><time>2026-04-04T11:05:46.497Z</time></trkpt><trkpt lat="44.5559216" lon="8.495378"><ele>673.5</ele><time>2026-04-04T11:05:47.497Z</time></trkpt><trkpt lat="44.5559719" lon="8.4952076"><ele>673.75</ele><time>2026-04-04T11:05:48.496Z</time></trkpt><trkpt lat="44.5559927" lon="8.4950213"><ele>674.0</ele><time>2026-04-04T11:05:49.498Z</time></trkpt><trkpt lat="44.5559829" lon="8.4948224"><ele>674.0</ele><time>2026-04-04T11:05:50.498Z</time></trkpt><trkpt lat="44.5559572" lon="8.4946255"><ele>674.0</ele><time>2026-04-04T11:05:51.497Z</time></trkpt><trkpt lat="44.555907" lon="8.4944249"><ele>674.0</ele><time>2026-04-04T11:05:52.497Z</time></trkpt><trkpt lat="44.5558255" lon="8.4942301"><ele>672.3333333333333</ele><time>2026-04-04T11:05:53.497Z</time></trkpt><trkpt lat="44.5557159" lon="8.4940502"><ele>670.6666666666666</ele><time>2026-04-04T11:05:54.497Z</time></trkpt><trkpt lat="44.5556043" lon="8.4938941"><ele>669.0</ele><time>2026-04-04T11:05:55.497Z</time></trkpt><trkpt lat="44.5554945" lon="8.4937787"><ele>669.4000000000001</ele><time>2026-04-04T11:05:56.497Z</time></trkpt><trkpt lat="44.5553907" lon="8.4937046"><ele>669.8</ele><time>2026-04-04T11:05:57.497Z</time></trkpt><trkpt lat="44.5552903" lon="8.4936461"><ele>670.2</ele><time>2026-04-04T11:05:58.497Z</time></trkpt><trkpt lat="44.5551931" lon="8.4935817"><ele>670.5999999999999</ele><time>2026-04-04T11:05:59.498Z</time></trkpt><trkpt lat="44.555106" lon="8.4934986"><ele>671.0</ele><time>2026-04-04T11:06:00.497Z</time></trkpt><trkpt lat="44.5550444" lon="8.4933812"><ele>672.1999999999999</ele><time>2026-04-04T11:06:01.497Z</time></trkpt><trkpt lat="44.5550059" lon="8.4932412"><ele>673.4</ele><time>2026-04-04T11:06:02.497Z</time></trkpt><trkpt lat="44.5549806" lon="8.4930949"><ele>674.6</ele><time>2026-04-04T11:06:03.497Z</time></trkpt><trkpt lat="44.55496" lon="8.4929452"><ele>675.8</ele><time>2026-04-04T11:06:04.497Z</time></trkpt><trkpt lat="44.5549436" lon="8.4927945"><ele>677.0</ele><time>2026-04-04T11:06:05.497Z</time></trkpt><trkpt lat="44.5549376" lon="8.4926465"><ele>676.8</ele><time>2026-04-04T11:06:06.497Z</time></trkpt><trkpt lat="44.554938" lon="8.4925034"><ele>676.6</ele><time>2026-04-04T11:06:07.497Z</time></trkpt><trkpt lat="44.5549397" lon="8.4923716"><ele>676.4</ele><time>2026-04-04T11:06:08.497Z</time></trkpt><trkpt lat="44.5549276" lon="8.4922529"><ele>676.1999999999999</ele><time>2026-04-04T11:06:09.497Z</time></trkpt><trkpt lat="44.5548948" lon="8.4921402"><ele>676.0</ele><time>2026-04-04T11:06:10.497Z</time></trkpt><trkpt lat="44.554825" lon="8.4920224"><ele>676.0</ele><time>2026-04-04T11:06:11.498Z</time></trkpt><trkpt lat="44.5547255" lon="8.4919151"><ele>676.0</ele><time>2026-04-04T11:06:12.498Z</time></trkpt><trkpt lat="44.5546147" lon="8.4918259"><ele>676.0</ele><time>2026-04-04T11:06:13.497Z</time></trkpt><trkpt lat="44.5545057" lon="8.4917488"><ele>676.0</ele><time>2026-04-04T11:06:14.497Z</time></trkpt><trkpt lat="44.5544013" lon="8.4916801"><ele>677.1999999999999</ele><time>2026-04-04T11:06:15.498Z</time></trkpt><trkpt lat="44.5542992" lon="8.4916095"><ele>678.4</ele><time>2026-04-04T11:06:16.498Z</time></trkpt><trkpt lat="44.5542171" lon="8.4915329"><ele>679.6</ele><time>2026-04-04T11:06:17.497Z</time></trkpt><trkpt lat="44.5541575" lon="8.4914368"><ele>680.8</ele><time>2026-04-04T11:06:18.497Z</time></trkpt><trkpt lat="44.5541316" lon="8.4913158"><ele>682.0</ele><time>2026-04-04T11:06:19.497Z</time></trkpt><trkpt lat="44.5541359" lon="8.4911752"><ele>682.0</ele><time>2026-04-04T11:06:20.497Z</time></trkpt><trkpt lat="44.5541519" lon="8.4910199"><ele>682.0</ele><time>2026-04-04T11:06:21.497Z</time></trkpt><trkpt lat="44.5541657" lon="8.4908674"><ele>682.0</ele><time>2026-04-04T11:06:22.498Z</time></trkpt><trkpt lat="44.5541624" lon="8.4907186"><ele>682.0</ele><time>2026-04-04T11:06:23.497Z</time></trkpt><trkpt lat="44.5541379" lon="8.490596"><ele>682.0</ele><time>2026-04-04T11:06:24.498Z</time></trkpt><trkpt lat="44.5541085" lon="8.4905013"><ele>682.1666666666667</ele><time>2026-04-04T11:06:25.498Z</time></trkpt><trkpt lat="44.5540613" lon="8.4903999"><ele>682.3333333333334</ele><time>2026-04-04T11:06:27.498Z</time></trkpt><trkpt lat="44.5540388" lon="8.490244"><ele>682.5</ele><time>2026-04-04T11:06:29.497Z</time></trkpt><trkpt lat="44.554031" lon="8.4901391"><ele>682.6666666666666</ele><time>2026-04-04T11:06:30.498Z</time></trkpt><trkpt lat="44.554027" lon="8.4900279"><ele>682.8333333333333</ele><time>2026-04-04T11:06:31.498Z</time></trkpt><trkpt lat="44.5540252" lon="8.4899108"><ele>683.0</ele><time>2026-04-04T11:06:32.496Z</time></trkpt><trkpt lat="44.554025" lon="8.4897795"><ele>683.0</ele><time>2026-04-04T11:06:33.497Z</time></trkpt><trkpt lat="44.5540221" lon="8.4896347"><ele>683.0</ele><time>2026-04-04T11:06:34.498Z</time></trkpt><trkpt lat="44.5540145" lon="8.4894966"><ele>683.0</ele><time>2026-04-04T11:06:35.497Z</time></trkpt><trkpt lat="44.5540045" lon="8.489369"><ele>683.0</ele><time>2026-04-04T11:06:36.498Z</time></trkpt><trkpt lat="44.5539911" lon="8.4892393"><ele>683.0</ele><time>2026-04-04T11:06:37.498Z</time></trkpt><trkpt lat="44.553985" lon="8.4891011"><ele>683.4</ele><time>2026-04-04T11:06:38.498Z</time></trkpt><trkpt lat="44.553982" lon="8.4889516"><ele>683.8</ele><time>2026-04-04T11:06:39.498Z</time></trkpt><trkpt lat="44.5539788" lon="8.4887965"><ele>684.2</ele><time>2026-04-04T11:06:40.497Z</time></trkpt><trkpt lat="44.5539738" lon="8.4886408"><ele>684.6</ele><time>2026-04-04T11:06:41.498Z</time></trkpt><trkpt lat="44.5539711" lon="8.4884853"><ele>685.0</ele><time>2026-04-04T11:06:42.498Z</time></trkpt><trkpt lat="44.5539725" lon="8.4883301"><ele>685.0</ele><time>2026-04-04T11:06:43.497Z</time></trkpt><trkpt lat="44.5539754" lon="8.4881749"><ele>685.0</ele><time>2026-04-04T11:06:44.498Z</time></trkpt><trkpt lat="44.5539797" lon="8.4880158"><ele>685.0</ele><time>2026-04-04T11:06:45.497Z</time></trkpt><trkpt lat="44.5539916" lon="8.487852"><ele>685.0</ele><time>2026-04-04T11:06:46.498Z</time></trkpt><trkpt lat="44.554022" lon="8.4876836"><ele>686.0</ele><time>2026-04-04T11:06:47.498Z</time></trkpt><trkpt lat="44.5540819" lon="8.4875069"><ele>687.0</ele><time>2026-04-04T11:06:48.498Z</time></trkpt><trkpt lat="44.5541559" lon="8.4873324"><ele>688.0</ele><time>2026-04-04T11:06:49.498Z</time></trkpt><trkpt lat="44.5542337" lon="8.4871683"><ele>689.0</ele><time>2026-04-04T11:06:50.498Z</time></trkpt><trkpt lat="44.5543009" lon="8.4870223"><ele>689.25</ele><time>2026-04-04T11:06:51.498Z</time></trkpt><trkpt lat="44.5543466" lon="8.4868744"><ele>689.5</ele><time>2026-04-04T11:06:52.498Z</time></trkpt><trkpt lat="44.5543626" lon="8.4866999"><ele>689.75</ele><time>2026-04-04T11:06:53.498Z</time></trkpt><trkpt lat="44.5543551" lon="8.4865106"><ele>690.0</ele><time>2026-04-04T11:06:54.497Z</time></trkpt><trkpt lat="44.5543234" lon="8.4863137"><ele>690.0</ele><time>2026-04-04T11:06:55.498Z</time></trkpt><trkpt lat="44.5542675" lon="8.4861229"><ele>690.0</ele><time>2026-04-04T11:06:56.498Z</time></trkpt><trkpt lat="44.5541964" lon="8.4859448"><ele>690.0</ele><time>2026-04-04T11:06:57.498Z</time></trkpt><trkpt lat="44.5541215" lon="8.4858046"><ele>690.0</ele><time>2026-04-04T11:06:58.498Z</time></trkpt><trkpt lat="44.5540405" lon="8.4856847"><ele>690.0</ele><time>2026-04-04T11:06:59.498Z</time></trkpt><trkpt lat="44.553961" lon="8.485572"><ele>690.0</ele><time>2026-04-04T11:07:00.498Z</time></trkpt><trkpt lat="44.5538893" lon="8.4854642"><ele>690.0</ele><time>2026-04-04T11:07:01.5Z</time></trkpt><trkpt lat="44.5538216" lon="8.4853706"><ele>690.0</ele><time>2026-04-04T11:07:02.498Z</time></trkpt><trkpt lat="44.5537516" lon="8.4852919"><ele>690.0</ele><time>2026-04-04T11:07:03.497Z</time></trkpt><trkpt lat="44.5536842" lon="8.485227"><ele>690.8</ele><time>2026-04-04T11:07:04.498Z</time></trkpt><trkpt lat="44.5536284" lon="8.4851665"><ele>691.6</ele><time>2026-04-04T11:07:05.498Z</time></trkpt><trkpt lat="44.5535939" lon="8.485036"><ele>692.4000000000001</ele><time>2026-04-04T11:07:07.498Z</time></trkpt><trkpt lat="44.5535893" lon="8.4848655"><ele>693.2</ele><time>2026-04-04T11:07:09.498Z</time></trkpt><trkpt lat="44.5535582" lon="8.4847766"><ele>694.0</ele><time>2026-04-04T11:07:10.498Z</time></trkpt><trkpt lat="44.553492" lon="8.4846897"><ele>694.0</ele><time>2026-04-04T11:07:11.499Z</time></trkpt><trkpt lat="44.5534053" lon="8.4846032"><ele>694.0</ele><time>2026-04-04T11:07:12.497Z</time></trkpt><trkpt lat="44.5533235" lon="8.4845061"><ele>694.0</ele><time>2026-04-04T11:07:13.498Z</time></trkpt><trkpt lat="44.5532653" lon="8.4844003"><ele>694.0</ele><time>2026-04-04T11:07:14.498Z</time></trkpt><trkpt lat="44.5532376" lon="8.484271"><ele>694.0</ele><time>2026-04-04T11:07:15.498Z</time></trkpt><trkpt lat="44.5532391" lon="8.4841139"><ele>693.0</ele><time>2026-04-04T11:07:16.498Z</time></trkpt><trkpt lat="44.5532477" lon="8.4839501"><ele>692.0</ele><time>2026-04-04T11:07:17.498Z</time></trkpt><trkpt lat="44.5532524" lon="8.4837782"><ele>691.0</ele><time>2026-04-04T11:07:18.498Z</time></trkpt><trkpt lat="44.5532402" lon="8.4836077"><ele>690.0</ele><time>2026-04-04T11:07:19.499Z</time></trkpt><trkpt lat="44.553226" lon="8.483443"><ele>688.4</ele><time>2026-04-04T11:07:20.499Z</time></trkpt><trkpt lat="44.5532118" lon="8.4832869"><ele>686.8</ele><time>2026-04-04T11:07:21.499Z</time></trkpt><trkpt lat="44.5531896" lon="8.4831351"><ele>685.2</ele><time>2026-04-04T11:07:22.499Z</time></trkpt><trkpt lat="44.5531566" lon="8.482994"><ele>683.6</ele><time>2026-04-04T11:07:23.498Z</time></trkpt><trkpt lat="44.55311" lon="8.4828584"><ele>682.0</ele><time>2026-04-04T11:07:24.499Z</time></trkpt><trkpt lat="44.5530453" lon="8.4827282"><ele>681.0</ele><time>2026-04-04T11:07:25.498Z</time></trkpt><trkpt lat="44.5529723" lon="8.4826038"><ele>680.0</ele><time>2026-04-04T11:07:26.498Z</time></trkpt><trkpt lat="44.5528996" lon="8.4824878"><ele>679.0</ele><time>2026-04-04T11:07:27.498Z</time></trkpt><trkpt lat="44.552839" lon="8.4823815"><ele>678.0</ele><time>2026-04-04T11:07:28.499Z</time></trkpt><trkpt lat="44.5527953" lon="8.4822965"><ele>677.0</ele><time>2026-04-04T11:07:29.498Z</time></trkpt><trkpt lat="44.5527471" lon="8.4822041"><ele>677.0</ele><time>2026-04-04T11:07:31.498Z</time></trkpt><trkpt lat="44.5527606" lon="8.4820921"><ele>677.0</ele><time>2026-04-04T11:07:35.498Z</time></trkpt><trkpt lat="44.5528622" lon="8.4821233"><ele>677.0</ele><time>2026-04-04T11:07:37.498Z</time></trkpt><trkpt lat="44.5529266" lon="8.4821879"><ele>677.0</ele><time>2026-04-04T11:07:38.499Z</time></trkpt><trkpt lat="44.5529963" lon="8.4822558"><ele>677.0</ele><time>2026-04-04T11:07:39.499Z</time></trkpt><trkpt lat="44.5530671" lon="8.4823038"><ele>677.0</ele><time>2026-04-04T11:07:40.499Z</time></trkpt><trkpt lat="44.5531525" lon="8.4823277"><ele>676.2</ele><time>2026-04-04T11:07:41.499Z</time></trkpt><trkpt lat="44.5532521" lon="8.4823284"><ele>675.4000000000001</ele><time>2026-04-04T11:07:42.499Z</time></trkpt><trkpt lat="44.5533555" lon="8.4823075"><ele>674.5999999999999</ele><time>2026-04-04T11:07:43.499Z</time></trkpt><trkpt lat="44.5534566" lon="8.4822729"><ele>673.8</ele><time>2026-04-04T11:07:44.499Z</time></trkpt><trkpt lat="44.5535678" lon="8.4822029"><ele>673.0</ele><time>2026-04-04T11:07:45.499Z</time></trkpt><trkpt lat="44.5536698" lon="8.4820951"><ele>671.0</ele><time>2026-04-04T11:07:46.499Z</time></trkpt><trkpt lat="44.5537531" lon="8.4819447"><ele>669.0</ele><time>2026-04-04T11:07:47.499Z</time></trkpt><trkpt lat="44.5538344" lon="8.481801"><ele>667.0</ele><time>2026-04-04T11:07:48.498Z</time></trkpt><trkpt lat="44.5539281" lon="8.4816879"><ele>665.0</ele><time>2026-04-04T11:07:49.498Z</time></trkpt><trkpt lat="44.5540377" lon="8.4816037"><ele>665.0</ele><time>2026-04-04T11:07:50.499Z</time></trkpt><trkpt lat="44.5541619" lon="8.4815653"><ele>665.0</ele><time>2026-04-04T11:07:51.499Z</time></trkpt><trkpt lat="44.5542788" lon="8.4815669"><ele>665.0</ele><time>2026-04-04T11:07:52.499Z</time></trkpt><trkpt lat="44.5543791" lon="8.4815747"><ele>665.0</ele><time>2026-04-04T11:07:53.498Z</time></trkpt><trkpt lat="44.5544662" lon="8.4815465"><ele>665.0</ele><time>2026-04-04T11:07:54.499Z</time></trkpt><trkpt lat="44.5545438" lon="8.4814681"><ele>666.2</ele><time>2026-04-04T11:07:55.499Z</time></trkpt><trkpt lat="44.5546086" lon="8.4813527"><ele>667.4</ele><time>2026-04-04T11:07:56.499Z</time></trkpt><trkpt lat="44.5546552" lon="8.4812165"><ele>668.5999999999999</ele><time>2026-04-04T11:07:57.498Z</time></trkpt><trkpt lat="44.5546798" lon="8.4810758"><ele>669.8</ele><time>2026-04-04T11:07:58.499Z</time></trkpt><trkpt lat="44.5546926" lon="8.4809252"><ele>671.0</ele><time>2026-04-04T11:07:59.499Z</time></trkpt><trkpt lat="44.5547083" lon="8.4807671"><ele>671.0</ele><time>2026-04-04T11:08:00.499Z</time></trkpt><trkpt lat="44.55474" lon="8.4806151"><ele>671.0</ele><time>2026-04-04T11:08:01.499Z</time></trkpt><trkpt lat="44.5547848" lon="8.4804757"><ele>671.0</ele><time>2026-04-04T11:08:02.499Z</time></trkpt><trkpt lat="44.5548314" lon="8.4803434"><ele>671.0</ele><time>2026-04-04T11:08:03.499Z</time></trkpt><trkpt lat="44.5548712" lon="8.4802153"><ele>671.0</ele><time>2026-04-04T11:08:04.498Z</time></trkpt><trkpt lat="44.5549097" lon="8.48009"><ele>668.5</ele><time>2026-04-04T11:08:05.499Z</time></trkpt><trkpt lat="44.554959" lon="8.4799621"><ele>666.0</ele><time>2026-04-04T11:08:06.498Z</time></trkpt><trkpt lat="44.5550206" lon="8.4798344"><ele>663.5</ele><time>2026-04-04T11:08:07.499Z</time></trkpt><trkpt lat="44.5550902" lon="8.479704"><ele>661.0</ele><time>2026-04-04T11:08:08.499Z</time></trkpt><trkpt lat="44.5551663" lon="8.4795696"><ele>661.5</ele><time>2026-04-04T11:08:09.499Z</time></trkpt><trkpt lat="44.5552448" lon="8.4794298"><ele>662.0</ele><time>2026-04-04T11:08:10.499Z</time></trkpt><trkpt lat="44.5553206" lon="8.4792884"><ele>662.5</ele><time>2026-04-04T11:08:11.499Z</time></trkpt><trkpt lat="44.5553926" lon="8.4791544"><ele>663.0</ele><time>2026-04-04T11:08:12.499Z</time></trkpt><trkpt lat="44.555467" lon="8.4790419"><ele>663.0</ele><time>2026-04-04T11:08:13.498Z</time></trkpt><trkpt lat="44.5555547" lon="8.4789514"><ele>663.0</ele><time>2026-04-04T11:08:14.499Z</time></trkpt><trkpt lat="44.5556474" lon="8.4788817"><ele>663.0</ele><time>2026-04-04T11:08:15.499Z</time></trkpt><trkpt lat="44.5557459" lon="8.4788176"><ele>663.0</ele><time>2026-04-04T11:08:16.499Z</time></trkpt><trkpt lat="44.5558296" lon="8.478754"><ele>663.0</ele><time>2026-04-04T11:08:17.5Z</time></trkpt><trkpt lat="44.5558965" lon="8.4786526"><ele>660.8</ele><time>2026-04-04T11:08:18.5Z</time></trkpt><trkpt lat="44.5559398" lon="8.4785102"><ele>658.5999999999999</ele><time>2026-04-04T11:08:19.499Z</time></trkpt><trkpt lat="44.5559506" lon="8.4783658"><ele>656.4000000000001</ele><time>2026-04-04T11:08:20.5Z</time></trkpt><trkpt lat="44.555969" lon="8.4782255"><ele>654.2</ele><time>2026-04-04T11:08:21.5Z</time></trkpt><trkpt lat="44.5560229" lon="8.4781192"><ele>652.0</ele><time>2026-04-04T11:08:22.499Z</time></trkpt><trkpt lat="44.5561072" lon="8.4780495"><ele>653.0</ele><time>2026-04-04T11:08:23.499Z</time></trkpt><trkpt lat="44.5562145" lon="8.4780262"><ele>654.0</ele><time>2026-04-04T11:08:24.499Z</time></trkpt><trkpt lat="44.5563321" lon="8.4780305"><ele>655.0</ele><time>2026-04-04T11:08:25.499Z</time></trkpt><trkpt lat="44.5564566" lon="8.4780465"><ele>656.0</ele><time>2026-04-04T11:08:26.499Z</time></trkpt><trkpt lat="44.5565873" lon="8.4780503"><ele>656.0</ele><time>2026-04-04T11:08:27.5Z</time></trkpt><trkpt lat="44.5567121" lon="8.4780315"><ele>656.0</ele><time>2026-04-04T11:08:28.499Z</time></trkpt><trkpt lat="44.5568284" lon="8.4779815"><ele>656.0</ele><time>2026-04-04T11:08:29.499Z</time></trkpt><trkpt lat="44.5569321" lon="8.4779112"><ele>656.0</ele><time>2026-04-04T11:08:30.499Z</time></trkpt><trkpt lat="44.5570262" lon="8.4778414"><ele>654.0</ele><time>2026-04-04T11:08:31.5Z</time></trkpt><trkpt lat="44.5571133" lon="8.4777789"><ele>652.0</ele><time>2026-04-04T11:08:32.499Z</time></trkpt><trkpt lat="44.5571986" lon="8.4777514"><ele>650.0</ele><time>2026-04-04T11:08:33.5Z</time></trkpt><trkpt lat="44.5572922" lon="8.4777742"><ele>648.0</ele><time>2026-04-04T11:08:34.498Z</time></trkpt><trkpt lat="44.5573921" lon="8.4778573"><ele>646.0</ele><time>2026-04-04T11:08:35.5Z</time></trkpt><trkpt lat="44.5574994" lon="8.4779727"><ele>646.0</ele><time>2026-04-04T11:08:36.5Z</time></trkpt><trkpt lat="44.5575797" lon="8.4781572"><ele>646.0</ele><time>2026-04-04T11:08:37.5Z</time></trkpt><trkpt lat="44.5576758" lon="8.4783017"><ele>646.0</ele><time>2026-04-04T11:08:38.5Z</time></trkpt><trkpt lat="44.5577792" lon="8.4784098"><ele>646.0</ele><time>2026-04-04T11:08:39.499Z</time></trkpt><trkpt lat="44.5578879" lon="8.4784863"><ele>645.25</ele><time>2026-04-04T11:08:40.5Z</time></trkpt><trkpt lat="44.5580012" lon="8.4785301"><ele>644.5</ele><time>2026-04-04T11:08:41.5Z</time></trkpt><trkpt lat="44.5581168" lon="8.4785439"><ele>643.75</ele><time>2026-04-04T11:08:42.499Z</time></trkpt><trkpt lat="44.5582273" lon="8.4785257"><ele>643.0</ele><time>2026-04-04T11:08:43.499Z</time></trkpt><trkpt lat="44.5583335" lon="8.4784722"><ele>643.0</ele><time>2026-04-04T11:08:44.5Z</time></trkpt><trkpt lat="44.5584395" lon="8.4783767"><ele>643.0</ele><time>2026-04-04T11:08:45.5Z</time></trkpt><trkpt lat="44.5585374" lon="8.478235"><ele>643.0</ele><time>2026-04-04T11:08:46.5Z</time></trkpt><trkpt lat="44.5586257" lon="8.4780597"><ele>643.0</ele><time>2026-04-04T11:08:47.501Z</time></trkpt><trkpt lat="44.5587104" lon="8.4778772"><ele>642.3333333333334</ele><time>2026-04-04T11:08:48.5Z</time></trkpt><trkpt lat="44.5587952" lon="8.4776965"><ele>641.6666666666666</ele><time>2026-04-04T11:08:49.499Z</time></trkpt><trkpt lat="44.5588845" lon="8.4775286"><ele>641.0</ele><time>2026-04-04T11:08:50.5Z</time></trkpt><trkpt lat="44.5589731" lon="8.4773626"><ele>641.0</ele><time>2026-04-04T11:08:51.5Z</time></trkpt><trkpt lat="44.559056" lon="8.4771978"><ele>641.0</ele><time>2026-04-04T11:08:52.5Z</time></trkpt><trkpt lat="44.5591333" lon="8.4770345"><ele>641.0</ele><time>2026-04-04T11:08:53.5Z</time></trkpt><trkpt lat="44.5592039" lon="8.4768764"><ele>641.0</ele><time>2026-04-04T11:08:54.499Z</time></trkpt><trkpt lat="44.5592645" lon="8.4767282"><ele>639.0</ele><time>2026-04-04T11:08:55.5Z</time></trkpt><trkpt lat="44.5593197" lon="8.4765876"><ele>637.0</ele><time>2026-04-04T11:08:56.5Z</time></trkpt><trkpt lat="44.5593793" lon="8.4764578"><ele>635.0</ele><time>2026-04-04T11:08:57.5Z</time></trkpt><trkpt lat="44.5594602" lon="8.4763371"><ele>633.0</ele><time>2026-04-04T11:08:58.5Z</time></trkpt><trkpt lat="44.5595655" lon="8.4762309"><ele>632.25</ele><time>2026-04-04T11:08:59.5Z</time></trkpt><trkpt lat="44.5596877" lon="8.4761384"><ele>631.5</ele><time>2026-04-04T11:09:00.5Z</time></trkpt><trkpt lat="44.5598145" lon="8.476047"><ele>630.75</ele><time>2026-04-04T11:09:01.5Z</time></trkpt><trkpt lat="44.559935" lon="8.4759457"><ele>630.0</ele><time>2026-04-04T11:09:02.499Z</time></trkpt><trkpt lat="44.5600426" lon="8.4758309"><ele>630.0</ele><time>2026-04-04T11:09:03.5Z</time></trkpt><trkpt lat="44.5601435" lon="8.4757055"><ele>630.0</ele><time>2026-04-04T11:09:04.5Z</time></trkpt><trkpt lat="44.5602449" lon="8.4755752"><ele>630.0</ele><time>2026-04-04T11:09:05.5Z</time></trkpt><trkpt lat="44.5603458" lon="8.4754468"><ele>630.0</ele><time>2026-04-04T11:09:06.5Z</time></trkpt><trkpt lat="44.5604411" lon="8.4753119"><ele>628.5</ele><time>2026-04-04T11:09:07.5Z</time></trkpt><trkpt lat="44.5605277" lon="8.4751583"><ele>627.0</ele><time>2026-04-04T11:09:08.499Z</time></trkpt><trkpt lat="44.560597" lon="8.4749746"><ele>625.5</ele><time>2026-04-04T11:09:09.5Z</time></trkpt><trkpt lat="44.5606501" lon="8.4747844"><ele>624.0</ele><time>2026-04-04T11:09:10.5Z</time></trkpt><trkpt lat="44.5606982" lon="8.4745921"><ele>623.5</ele><time>2026-04-04T11:09:11.5Z</time></trkpt><trkpt lat="44.5607554" lon="8.4744143"><ele>623.0</ele><time>2026-04-04T11:09:12.5Z</time></trkpt><trkpt lat="44.5608295" lon="8.4742563"><ele>622.5</ele><time>2026-04-04T11:09:13.5Z</time></trkpt><trkpt lat="44.5609116" lon="8.4741056"><ele>622.0</ele><time>2026-04-04T11:09:14.5Z</time></trkpt><trkpt lat="44.560994" lon="8.4739546"><ele>622.0</ele><time>2026-04-04T11:09:15.501Z</time></trkpt><trkpt lat="44.5610781" lon="8.4737987"><ele>622.0</ele><time>2026-04-04T11:09:16.5Z</time></trkpt><trkpt lat="44.5611684" lon="8.4736403"><ele>622.0</ele><time>2026-04-04T11:09:17.499Z</time></trkpt><trkpt lat="44.5612648" lon="8.4734874"><ele>622.0</ele><time>2026-04-04T11:09:18.5Z</time></trkpt><trkpt lat="44.5613667" lon="8.4733454"><ele>623.0</ele><time>2026-04-04T11:09:19.499Z</time></trkpt><trkpt lat="44.5614802" lon="8.4732192"><ele>624.0</ele><time>2026-04-04T11:09:20.5Z</time></trkpt><trkpt lat="44.5615952" lon="8.4731047"><ele>625.0</ele><time>2026-04-04T11:09:21.5Z</time></trkpt><trkpt lat="44.5617028" lon="8.4729882"><ele>626.0</ele><time>2026-04-04T11:09:22.499Z</time></trkpt><trkpt lat="44.5617982" lon="8.4728475"><ele>627.5</ele><time>2026-04-04T11:09:23.499Z</time></trkpt><trkpt lat="44.5618762" lon="8.4726807"><ele>629.0</ele><time>2026-04-04T11:09:24.499Z</time></trkpt><trkpt lat="44.5619414" lon="8.4725085"><ele>630.5</ele><time>2026-04-04T11:09:25.5Z</time></trkpt><trkpt lat="44.5620053" lon="8.4723404"><ele>632.0</ele><time>2026-04-04T11:09:26.499Z</time></trkpt><trkpt lat="44.5620802" lon="8.4721885"><ele>631.0</ele><time>2026-04-04T11:09:27.501Z</time></trkpt><trkpt lat="44.5621698" lon="8.4720581"><ele>630.0</ele><time>2026-04-04T11:09:28.5Z</time></trkpt><trkpt lat="44.5622754" lon="8.4719354"><ele>629.0</ele><time>2026-04-04T11:09:29.501Z</time></trkpt><trkpt lat="44.5623905" lon="8.4718178"><ele>628.0</ele><time>2026-04-04T11:09:30.501Z</time></trkpt><trkpt lat="44.5625081" lon="8.4717058"><ele>628.0</ele><time>2026-04-04T11:09:31.501Z</time></trkpt><trkpt lat="44.5626234" lon="8.4715854"><ele>628.0</ele><time>2026-04-04T11:09:32.501Z</time></trkpt><trkpt lat="44.5627235" lon="8.4714472"><ele>628.0</ele><time>2026-04-04T11:09:33.5Z</time></trkpt><trkpt lat="44.5628048" lon="8.4712885"><ele>628.0</ele><time>2026-04-04T11:09:34.501Z</time></trkpt><trkpt lat="44.5628691" lon="8.4711149"><ele>627.5</ele><time>2026-04-04T11:09:35.501Z</time></trkpt><trkpt lat="44.5629232" lon="8.4709538"><ele>627.0</ele><time>2026-04-04T11:09:36.501Z</time></trkpt><trkpt lat="44.5629813" lon="8.4708138"><ele>626.5</ele><time>2026-04-04T11:09:37.5Z</time></trkpt><trkpt lat="44.5630514" lon="8.4706878"><ele>626.0</ele><time>2026-04-04T11:09:38.5Z</time></trkpt><trkpt lat="44.5631335" lon="8.4705592"><ele>625.75</ele><time>2026-04-04T11:09:39.5Z</time></trkpt><trkpt lat="44.5632158" lon="8.4704327"><ele>625.5</ele><time>2026-04-04T11:09:40.5Z</time></trkpt><trkpt lat="44.5632991" lon="8.4703081"><ele>625.25</ele><time>2026-04-04T11:09:41.501Z</time></trkpt><trkpt lat="44.5633849" lon="8.4701832"><ele>625.0</ele><time>2026-04-04T11:09:42.501Z</time></trkpt><trkpt lat="44.563475" lon="8.4700605"><ele>625.0</ele><time>2026-04-04T11:09:43.501Z</time></trkpt><trkpt lat="44.5635866" lon="8.4699555"><ele>625.0</ele><time>2026-04-04T11:09:44.501Z</time></trkpt><trkpt lat="44.5637116" lon="8.4698761"><ele>625.0</ele><time>2026-04-04T11:09:45.5Z</time></trkpt><trkpt lat="44.5638538" lon="8.4698265"><ele>625.0</ele><time>2026-04-04T11:09:46.501Z</time></trkpt><trkpt lat="44.5639988" lon="8.4697882"><ele>625.25</ele><time>2026-04-04T11:09:47.501Z</time></trkpt><trkpt lat="44.5641441" lon="8.46975"><ele>625.5</ele><time>2026-04-04T11:09:48.501Z</time></trkpt><trkpt lat="44.5642889" lon="8.4697198"><ele>625.75</ele><time>2026-04-04T11:09:49.501Z</time></trkpt><trkpt lat="44.5644315" lon="8.4697058"><ele>626.0</ele><time>2026-04-04T11:09:50.501Z</time></trkpt><trkpt lat="44.5645659" lon="8.4697111"><ele>626.5</ele><time>2026-04-04T11:09:51.501Z</time></trkpt><trkpt lat="44.5646922" lon="8.4697282"><ele>627.0</ele><time>2026-04-04T11:09:52.501Z</time></trkpt><trkpt lat="44.5648127" lon="8.469755"><ele>627.5</ele><time>2026-04-04T11:09:53.501Z</time></trkpt><trkpt lat="44.5649256" lon="8.4697886"><ele>628.0</ele><time>2026-04-04T11:09:54.501Z</time></trkpt><trkpt lat="44.5650327" lon="8.4698233"><ele>628.0</ele><time>2026-04-04T11:09:55.501Z</time></trkpt><trkpt lat="44.5651383" lon="8.4698538"><ele>628.0</ele><time>2026-04-04T11:09:56.501Z</time></trkpt><trkpt lat="44.5652467" lon="8.4698823"><ele>628.0</ele><time>2026-04-04T11:09:57.501Z</time></trkpt><trkpt lat="44.5653563" lon="8.4699065"><ele>628.0</ele><time>2026-04-04T11:09:58.501Z</time></trkpt><trkpt lat="44.5654678" lon="8.4699252"><ele>628.0</ele><time>2026-04-04T11:09:59.5Z</time></trkpt><trkpt lat="44.5655802" lon="8.4699412"><ele>627.25</ele><time>2026-04-04T11:10:00.501Z</time></trkpt><trkpt lat="44.5656941" lon="8.4699551"><ele>626.5</ele><time>2026-04-04T11:10:01.501Z</time></trkpt><trkpt lat="44.5658102" lon="8.4699709"><ele>625.75</ele><time>2026-04-04T11:10:02.501Z</time></trkpt><trkpt lat="44.5659326" lon="8.4699878"><ele>625.0</ele><time>2026-04-04T11:10:03.501Z</time></trkpt><trkpt lat="44.5660574" lon="8.4700007"><ele>625.0</ele><time>2026-04-04T11:10:04.501Z</time></trkpt><trkpt lat="44.5661884" lon="8.4700125"><ele>625.0</ele><time>2026-04-04T11:10:05.502Z</time></trkpt><trkpt lat="44.566325" lon="8.4700226"><ele>625.0</ele><time>2026-04-04T11:10:06.501Z</time></trkpt><trkpt lat="44.5664636" lon="8.4700259"><ele>625.0</ele><time>2026-04-04T11:10:07.5Z</time></trkpt><trkpt lat="44.5666002" lon="8.4700166"><ele>624.25</ele><time>2026-04-04T11:10:08.501Z</time></trkpt><trkpt lat="44.5667358" lon="8.4699998"><ele>623.5</ele><time>2026-04-04T11:10:09.5Z</time></trkpt><trkpt lat="44.5668699" lon="8.469985"><ele>622.75</ele><time>2026-04-04T11:10:10.501Z</time></trkpt><trkpt lat="44.5669987" lon="8.4699808"><ele>622.0</ele><time>2026-04-04T11:10:11.501Z</time></trkpt><trkpt lat="44.5671231" lon="8.4699834"><ele>620.75</ele><time>2026-04-04T11:10:12.501Z</time></trkpt><trkpt lat="44.5672457" lon="8.4699933"><ele>619.5</ele><time>2026-04-04T11:10:13.501Z</time></trkpt><trkpt lat="44.56737" lon="8.4700193"><ele>618.25</ele><time>2026-04-04T11:10:14.501Z</time></trkpt><trkpt lat="44.5674938" lon="8.4700527"><ele>617.0</ele><time>2026-04-04T11:10:15.501Z</time></trkpt><trkpt lat="44.5676156" lon="8.4700852"><ele>617.0</ele><time>2026-04-04T11:10:16.501Z</time></trkpt><trkpt lat="44.5677339" lon="8.4701178"><ele>617.0</ele><time>2026-04-04T11:10:17.501Z</time></trkpt><trkpt lat="44.5678486" lon="8.470155"><ele>617.0</ele><time>2026-04-04T11:10:18.501Z</time></trkpt><trkpt lat="44.5679624" lon="8.470203"><ele>617.0</ele><time>2026-04-04T11:10:19.501Z</time></trkpt><trkpt lat="44.5680784" lon="8.47027"><ele>616.75</ele><time>2026-04-04T11:10:20.502Z</time></trkpt><trkpt lat="44.5681959" lon="8.4703442"><ele>616.5</ele><time>2026-04-04T11:10:21.501Z</time></trkpt><trkpt lat="44.5683148" lon="8.4704121"><ele>616.25</ele><time>2026-04-04T11:10:22.502Z</time></trkpt><trkpt lat="44.5684367" lon="8.470465"><ele>616.0</ele><time>2026-04-04T11:10:23.501Z</time></trkpt><trkpt lat="44.5685577" lon="8.4704973"><ele>616.0</ele><time>2026-04-04T11:10:24.502Z</time></trkpt><trkpt lat="44.5686752" lon="8.4705185"><ele>616.0</ele><time>2026-04-04T11:10:25.502Z</time></trkpt><trkpt lat="44.5687883" lon="8.4705356"><ele>616.0</ele><time>2026-04-04T11:10:26.502Z</time></trkpt><trkpt lat="44.5688966" lon="8.4705504"><ele>616.0</ele><time>2026-04-04T11:10:27.502Z</time></trkpt><trkpt lat="44.5690023" lon="8.4705744"><ele>616.0</ele><time>2026-04-04T11:10:28.502Z</time></trkpt><trkpt lat="44.5691155" lon="8.470612"><ele>617.0</ele><time>2026-04-04T11:10:29.502Z</time></trkpt><trkpt lat="44.56923" lon="8.4706642"><ele>618.0</ele><time>2026-04-04T11:10:30.502Z</time></trkpt><trkpt lat="44.5693419" lon="8.4707231"><ele>619.0</ele><time>2026-04-04T11:10:31.502Z</time></trkpt><trkpt lat="44.5694483" lon="8.4707804"><ele>620.0</ele><time>2026-04-04T11:10:32.501Z</time></trkpt><trkpt lat="44.5695534" lon="8.4708338"><ele>620.0</ele><time>2026-04-04T11:10:33.501Z</time></trkpt><trkpt lat="44.5696566" lon="8.4708792"><ele>620.0</ele><time>2026-04-04T11:10:34.501Z</time></trkpt><trkpt lat="44.5697498" lon="8.4709114"><ele>620.0</ele><time>2026-04-04T11:10:35.502Z</time></trkpt><trkpt lat="44.5698342" lon="8.4709295"><ele>620.0</ele><time>2026-04-04T11:10:36.502Z</time></trkpt><trkpt lat="44.569917" lon="8.4709409"><ele>620.0</ele><time>2026-04-04T11:10:37.502Z</time></trkpt><trkpt lat="44.570003" lon="8.4709524"><ele>620.0</ele><time>2026-04-04T11:10:38.501Z</time></trkpt><trkpt lat="44.5700964" lon="8.4709671"><ele>620.0</ele><time>2026-04-04T11:10:39.502Z</time></trkpt><trkpt lat="44.5702039" lon="8.4709888"><ele>620.0</ele><time>2026-04-04T11:10:40.501Z</time></trkpt><trkpt lat="44.5703128" lon="8.4710082"><ele>620.0</ele><time>2026-04-04T11:10:41.502Z</time></trkpt><trkpt lat="44.5704259" lon="8.4710107"><ele>620.0</ele><time>2026-04-04T11:10:42.501Z</time></trkpt><trkpt lat="44.5705416" lon="8.4709957"><ele>618.75</ele><time>2026-04-04T11:10:43.502Z</time></trkpt><trkpt lat="44.5706619" lon="8.4709781"><ele>617.5</ele><time>2026-04-04T11:10:44.502Z</time></trkpt><trkpt lat="44.5707861" lon="8.4709699"><ele>616.25</ele><time>2026-04-04T11:10:45.502Z</time></trkpt><trkpt lat="44.5709094" lon="8.4709701"><ele>615.0</ele><time>2026-04-04T11:10:46.502Z</time></trkpt><trkpt lat="44.5710332" lon="8.4709687"><ele>615.0</ele><time>2026-04-04T11:10:47.502Z</time></trkpt><trkpt lat="44.5711538" lon="8.4709493"><ele>615.0</ele><time>2026-04-04T11:10:48.501Z</time></trkpt><trkpt lat="44.5712664" lon="8.4709036"><ele>615.0</ele><time>2026-04-04T11:10:49.502Z</time></trkpt><trkpt lat="44.5713696" lon="8.470839"><ele>615.0</ele><time>2026-04-04T11:10:50.502Z</time></trkpt><trkpt lat="44.5714698" lon="8.470765"><ele>614.25</ele><time>2026-04-04T11:10:51.502Z</time></trkpt><trkpt lat="44.5715667" lon="8.4706697"><ele>613.5</ele><time>2026-04-04T11:10:52.502Z</time></trkpt><trkpt lat="44.5716537" lon="8.4705473"><ele>612.75</ele><time>2026-04-04T11:10:53.502Z</time></trkpt><trkpt lat="44.5717316" lon="8.4704073"><ele>612.0</ele><time>2026-04-04T11:10:54.502Z</time></trkpt><trkpt lat="44.5717971" lon="8.4702457"><ele>610.5</ele><time>2026-04-04T11:10:55.502Z</time></trkpt><trkpt lat="44.5718463" lon="8.4700746"><ele>609.0</ele><time>2026-04-04T11:10:56.502Z</time></trkpt><trkpt lat="44.571887" lon="8.4699094"><ele>607.5</ele><time>2026-04-04T11:10:57.502Z</time></trkpt><trkpt lat="44.5719407" lon="8.469749"><ele>606.0</ele><time>2026-04-04T11:10:58.502Z</time></trkpt><trkpt lat="44.5720187" lon="8.4695964"><ele>604.75</ele><time>2026-04-04T11:10:59.502Z</time></trkpt><trkpt lat="44.5721138" lon="8.4694506"><ele>603.5</ele><time>2026-04-04T11:11:00.502Z</time></trkpt><trkpt lat="44.5722095" lon="8.4693111"><ele>602.25</ele><time>2026-04-04T11:11:01.502Z</time></trkpt><trkpt lat="44.5722962" lon="8.4691833"><ele>601.0</ele><time>2026-04-04T11:11:02.501Z</time></trkpt><trkpt lat="44.5723796" lon="8.4690645"><ele>601.0</ele><time>2026-04-04T11:11:03.502Z</time></trkpt><trkpt lat="44.5724688" lon="8.4689531"><ele>601.0</ele><time>2026-04-04T11:11:04.502Z</time></trkpt><trkpt lat="44.5725641" lon="8.4688507"><ele>601.0</ele><time>2026-04-04T11:11:05.502Z</time></trkpt><trkpt lat="44.5726607" lon="8.4687654"><ele>601.0</ele><time>2026-04-04T11:11:06.502Z</time></trkpt><trkpt lat="44.5727566" lon="8.4686931"><ele>601.3333333333334</ele><time>2026-04-04T11:11:07.502Z</time></trkpt><trkpt lat="44.5728548" lon="8.468649"><ele>601.6666666666667</ele><time>2026-04-04T11:11:08.503Z</time></trkpt><trkpt lat="44.5729452" lon="8.4686333"><ele>602.0</ele><time>2026-04-04T11:11:09.502Z</time></trkpt><trkpt lat="44.5730175" lon="8.4686084"><ele>602.3333333333334</ele><time>2026-04-04T11:11:10.502Z</time></trkpt><trkpt lat="44.5730841" lon="8.4685439"><ele>602.6666666666666</ele><time>2026-04-04T11:11:11.502Z</time></trkpt><trkpt lat="44.5731425" lon="8.4684397"><ele>603.0</ele><time>2026-04-04T11:11:12.501Z</time></trkpt><trkpt lat="44.5731984" lon="8.4683191"><ele>603.0</ele><time>2026-04-04T11:11:13.502Z</time></trkpt><trkpt lat="44.5732526" lon="8.4681965"><ele>603.0</ele><time>2026-04-04T11:11:14.502Z</time></trkpt><trkpt lat="44.5733113" lon="8.4680951"><ele>603.0</ele><time>2026-04-04T11:11:15.502Z</time></trkpt><trkpt lat="44.573386" lon="8.4680054"><ele>603.0</ele><time>2026-04-04T11:11:16.502Z</time></trkpt><trkpt lat="44.5734733" lon="8.4679244"><ele>603.0</ele><time>2026-04-04T11:11:17.502Z</time></trkpt><trkpt lat="44.5735709" lon="8.4678462"><ele>601.4</ele><time>2026-04-04T11:11:18.503Z</time></trkpt><trkpt lat="44.5736641" lon="8.467765"><ele>599.8</ele><time>2026-04-04T11:11:19.501Z</time></trkpt><trkpt lat="44.5737484" lon="8.4676869"><ele>598.2</ele><time>2026-04-04T11:11:20.503Z</time></trkpt><trkpt lat="44.5738262" lon="8.4676134"><ele>596.6</ele><time>2026-04-04T11:11:21.503Z</time></trkpt><trkpt lat="44.5739044" lon="8.4675478"><ele>595.0</ele><time>2026-04-04T11:11:22.503Z</time></trkpt><trkpt lat="44.5739837" lon="8.4674906"><ele>595.0</ele><time>2026-04-04T11:11:23.502Z</time></trkpt><trkpt lat="44.5740671" lon="8.4674386"><ele>595.0</ele><time>2026-04-04T11:11:24.503Z</time></trkpt><trkpt lat="44.5741497" lon="8.4673775"><ele>595.0</ele><time>2026-04-04T11:11:25.501Z</time></trkpt><trkpt lat="44.5742246" lon="8.467294"><ele>595.0</ele><time>2026-04-04T11:11:26.503Z</time></trkpt><trkpt lat="44.5742892" lon="8.4671793"><ele>595.0</ele><time>2026-04-04T11:11:27.501Z</time></trkpt><trkpt lat="44.5743541" lon="8.4670477"><ele>594.6</ele><time>2026-04-04T11:11:28.503Z</time></trkpt><trkpt lat="44.5744255" lon="8.4669138"><ele>594.2</ele><time>2026-04-04T11:11:29.502Z</time></trkpt><trkpt lat="44.5744955" lon="8.4667956"><ele>593.8</ele><time>2026-04-04T11:11:30.502Z</time></trkpt><trkpt lat="44.5745634" lon="8.4667016"><ele>593.4</ele><time>2026-04-04T11:11:31.502Z</time></trkpt><trkpt lat="44.5746393" lon="8.4666287"><ele>593.0</ele><time>2026-04-04T11:11:32.502Z</time></trkpt><trkpt lat="44.5747233" lon="8.4665667"><ele>593.0</ele><time>2026-04-04T11:11:33.502Z</time></trkpt><trkpt lat="44.5748169" lon="8.4665255"><ele>593.0</ele><time>2026-04-04T11:11:34.502Z</time></trkpt><trkpt lat="44.574915" lon="8.4664987"><ele>593.0</ele><time>2026-04-04T11:11:35.503Z</time></trkpt><trkpt lat="44.5750189" lon="8.4664767"><ele>593.0</ele><time>2026-04-04T11:11:36.502Z</time></trkpt><trkpt lat="44.5751289" lon="8.466457"><ele>593.0</ele><time>2026-04-04T11:11:37.502Z</time></trkpt><trkpt lat="44.5752453" lon="8.4664457"><ele>593.25</ele><time>2026-04-04T11:11:38.502Z</time></trkpt><trkpt lat="44.5753667" lon="8.4664453"><ele>593.5</ele><time>2026-04-04T11:11:39.503Z</time></trkpt><trkpt lat="44.5754923" lon="8.4664509"><ele>593.75</ele><time>2026-04-04T11:11:40.503Z</time></trkpt><trkpt lat="44.5756214" lon="8.4664592"><ele>594.0</ele><time>2026-04-04T11:11:41.503Z</time></trkpt><trkpt lat="44.5757467" lon="8.466456"><ele>594.0</ele><time>2026-04-04T11:11:42.502Z</time></trkpt><trkpt lat="44.5758773" lon="8.4664388"><ele>594.0</ele><time>2026-04-04T11:11:43.503Z</time></trkpt><trkpt lat="44.5760039" lon="8.4664152"><ele>594.0</ele><time>2026-04-04T11:11:44.503Z</time></trkpt><trkpt lat="44.5761224" lon="8.4663949"><ele>594.0</ele><time>2026-04-04T11:11:45.502Z</time></trkpt><trkpt lat="44.5762348" lon="8.4663799"><ele>595.0</ele><time>2026-04-04T11:11:46.503Z</time></trkpt><trkpt lat="44.5763452" lon="8.4663688"><ele>596.0</ele><time>2026-04-04T11:11:47.503Z</time></trkpt><trkpt lat="44.5764536" lon="8.4663565"><ele>597.0</ele><time>2026-04-04T11:11:48.503Z</time></trkpt><trkpt lat="44.5765546" lon="8.4663377"><ele>598.0</ele><time>2026-04-04T11:11:49.502Z</time></trkpt><trkpt lat="44.5766519" lon="8.4663093"><ele>599.0</ele><time>2026-04-04T11:11:50.502Z</time></trkpt><trkpt lat="44.5767441" lon="8.4662642"><ele>595.8</ele><time>2026-04-04T11:11:51.503Z</time></trkpt><trkpt lat="44.5768306" lon="8.4661963"><ele>592.5999999999999</ele><time>2026-04-04T11:11:52.503Z</time></trkpt><trkpt lat="44.5769132" lon="8.4661104"><ele>589.4</ele><time>2026-04-04T11:11:53.503Z</time></trkpt><trkpt lat="44.5769894" lon="8.4660113"><ele>586.1999999999999</ele><time>2026-04-04T11:11:54.502Z</time></trkpt><trkpt lat="44.5770605" lon="8.4659102"><ele>583.0</ele><time>2026-04-04T11:11:55.502Z</time></trkpt><trkpt lat="44.5771306" lon="8.4658167"><ele>583.0</ele><time>2026-04-04T11:11:56.503Z</time></trkpt><trkpt lat="44.5772034" lon="8.465729"><ele>583.0</ele><time>2026-04-04T11:11:57.502Z</time></trkpt><trkpt lat="44.5772783" lon="8.4656569"><ele>583.0</ele><time>2026-04-04T11:11:58.503Z</time></trkpt><trkpt lat="44.5773568" lon="8.4655925"><ele>583.0</ele><time>2026-04-04T11:11:59.502Z</time></trkpt><trkpt lat="44.5774401" lon="8.4655331"><ele>583.0</ele><time>2026-04-04T11:12:00.502Z</time></trkpt><trkpt lat="44.5775285" lon="8.465474"><ele>578.5</ele><time>2026-04-04T11:12:01.504Z</time></trkpt><trkpt lat="44.5776197" lon="8.4653955"><ele>574.0</ele><time>2026-04-04T11:12:02.503Z</time></trkpt><trkpt lat="44.5777107" lon="8.4653033"><ele>569.5</ele><time>2026-04-04T11:12:03.504Z</time></trkpt><trkpt lat="44.5777987" lon="8.4652002"><ele>565.0</ele><time>2026-04-04T11:12:04.503Z</time></trkpt><trkpt lat="44.5778836" lon="8.4650824"><ele>565.0</ele><time>2026-04-04T11:12:05.503Z</time></trkpt><trkpt lat="44.5779614" lon="8.4649549"><ele>565.0</ele><time>2026-04-04T11:12:06.504Z</time></trkpt><trkpt lat="44.5780388" lon="8.4648283"><ele>565.0</ele><time>2026-04-04T11:12:07.503Z</time></trkpt><trkpt lat="44.5781177" lon="8.4647046"><ele>565.0</ele><time>2026-04-04T11:12:08.503Z</time></trkpt><trkpt lat="44.578192" lon="8.4645839"><ele>563.5</ele><time>2026-04-04T11:12:09.502Z</time></trkpt><trkpt lat="44.5782651" lon="8.4644648"><ele>562.0</ele><time>2026-04-04T11:12:10.502Z</time></trkpt><trkpt lat="44.5783412" lon="8.4643447"><ele>560.5</ele><time>2026-04-04T11:12:11.503Z</time></trkpt><trkpt lat="44.5784236" lon="8.4642191"><ele>559.0</ele><time>2026-04-04T11:12:12.502Z</time></trkpt><trkpt lat="44.5785152" lon="8.4640888"><ele>559.0</ele><time>2026-04-04T11:12:13.503Z</time></trkpt><trkpt lat="44.5786139" lon="8.4639528"><ele>559.0</ele><time>2026-04-04T11:12:14.502Z</time></trkpt><trkpt lat="44.5787146" lon="8.4638249"><ele>559.0</ele><time>2026-04-04T11:12:15.503Z</time></trkpt><trkpt lat="44.5788127" lon="8.4637047"><ele>559.0</ele><time>2026-04-04T11:12:16.503Z</time></trkpt><trkpt lat="44.5788973" lon="8.4635883"><ele>558.6</ele><time>2026-04-04T11:12:17.504Z</time></trkpt><trkpt lat="44.5789749" lon="8.4634783"><ele>558.2</ele><time>2026-04-04T11:12:18.503Z</time></trkpt><trkpt lat="44.5790488" lon="8.4633737"><ele>557.8000000000001</ele><time>2026-04-04T11:12:19.503Z</time></trkpt><trkpt lat="44.579128" lon="8.4632749"><ele>557.4</ele><time>2026-04-04T11:12:20.502Z</time></trkpt><trkpt lat="44.5792159" lon="8.4632074"><ele>557.0</ele><time>2026-04-04T11:12:21.504Z</time></trkpt><trkpt lat="44.5793275" lon="8.4631386"><ele>557.0</ele><time>2026-04-04T11:12:22.503Z</time></trkpt><trkpt lat="44.5794484" lon="8.4630648"><ele>557.0</ele><time>2026-04-04T11:12:23.503Z</time></trkpt><trkpt lat="44.5795567" lon="8.4629612"><ele>557.0</ele><time>2026-04-04T11:12:24.503Z</time></trkpt><trkpt lat="44.5796391" lon="8.4628307"><ele>557.0</ele><time>2026-04-04T11:12:25.504Z</time></trkpt><trkpt lat="44.5796914" lon="8.4626855"><ele>557.8000000000001</ele><time>2026-04-04T11:12:26.504Z</time></trkpt><trkpt lat="44.5797394" lon="8.4625521"><ele>558.6</ele><time>2026-04-04T11:12:27.504Z</time></trkpt><trkpt lat="44.5798018" lon="8.4624409"><ele>559.4000000000001</ele><time>2026-04-04T11:12:28.503Z</time></trkpt><trkpt lat="44.5798948" lon="8.4623675"><ele>560.2</ele><time>2026-04-04T11:12:29.503Z</time></trkpt><trkpt lat="44.5800154" lon="8.4623258"><ele>561.0</ele><time>2026-04-04T11:12:30.503Z</time></trkpt><trkpt lat="44.5801402" lon="8.4622892"><ele>561.0</ele><time>2026-04-04T11:12:31.503Z</time></trkpt><trkpt lat="44.5802725" lon="8.4622553"><ele>561.0</ele><time>2026-04-04T11:12:32.503Z</time></trkpt><trkpt lat="44.5804119" lon="8.4622222"><ele>561.0</ele><time>2026-04-04T11:12:33.503Z</time></trkpt><trkpt lat="44.5805538" lon="8.4621903"><ele>561.0</ele><time>2026-04-04T11:12:34.504Z</time></trkpt><trkpt lat="44.58069" lon="8.4621571"><ele>561.25</ele><time>2026-04-04T11:12:35.503Z</time></trkpt><trkpt lat="44.5808146" lon="8.4621183"><ele>561.5</ele><time>2026-04-04T11:12:36.504Z</time></trkpt><trkpt lat="44.5809236" lon="8.4620735"><ele>561.75</ele><time>2026-04-04T11:12:37.503Z</time></trkpt><trkpt lat="44.5810233" lon="8.4620016"><ele>562.0</ele><time>2026-04-04T11:12:38.504Z</time></trkpt><trkpt lat="44.5811246" lon="8.4618943"><ele>559.75</ele><time>2026-04-04T11:12:39.504Z</time></trkpt><trkpt lat="44.5812151" lon="8.4617494"><ele>557.5</ele><time>2026-04-04T11:12:40.504Z</time></trkpt><trkpt lat="44.5812996" lon="8.4615791"><ele>555.25</ele><time>2026-04-04T11:12:41.504Z</time></trkpt><trkpt lat="44.5813706" lon="8.4614187"><ele>553.0</ele><time>2026-04-04T11:12:42.503Z</time></trkpt><trkpt lat="44.5814427" lon="8.4612689"><ele>552.75</ele><time>2026-04-04T11:12:43.503Z</time></trkpt><trkpt lat="44.5815217" lon="8.4611277"><ele>552.5</ele><time>2026-04-04T11:12:44.504Z</time></trkpt><trkpt lat="44.5816064" lon="8.4609925"><ele>552.25</ele><time>2026-04-04T11:12:45.503Z</time></trkpt><trkpt lat="44.5817109" lon="8.4608919"><ele>552.0</ele><time>2026-04-04T11:12:46.504Z</time></trkpt><trkpt lat="44.58182" lon="8.4608232"><ele>552.0</ele><time>2026-04-04T11:12:47.503Z</time></trkpt><trkpt lat="44.5819304" lon="8.4607798"><ele>552.0</ele><time>2026-04-04T11:12:48.503Z</time></trkpt><trkpt lat="44.5820395" lon="8.4607408"><ele>552.0</ele><time>2026-04-04T11:12:49.503Z</time></trkpt><trkpt lat="44.5821412" lon="8.4606752"><ele>552.0</ele><time>2026-04-04T11:12:50.504Z</time></trkpt><trkpt lat="44.5822274" lon="8.460558"><ele>555.25</ele><time>2026-04-04T11:12:51.503Z</time></trkpt><trkpt lat="44.5822926" lon="8.4603989"><ele>558.5</ele><time>2026-04-04T11:12:52.504Z</time></trkpt><trkpt lat="44.5823342" lon="8.4602195"><ele>561.75</ele><time>2026-04-04T11:12:53.503Z</time></trkpt><trkpt lat="44.5823699" lon="8.4600432"><ele>565.0</ele><time>2026-04-04T11:12:54.509Z</time></trkpt><trkpt lat="44.5824116" lon="8.4598859"><ele>565.0</ele><time>2026-04-04T11:12:55.503Z</time></trkpt><trkpt lat="44.5824546" lon="8.4597439"><ele>565.0</ele><time>2026-04-04T11:12:56.504Z</time></trkpt><trkpt lat="44.5824965" lon="8.4596168"><ele>565.0</ele><time>2026-04-04T11:12:57.502Z</time></trkpt><trkpt lat="44.5825338" lon="8.4594974"><ele>565.0</ele><time>2026-04-04T11:12:58.504Z</time></trkpt><trkpt lat="44.5825663" lon="8.4593941"><ele>565.0</ele><time>2026-04-04T11:12:59.504Z</time></trkpt><trkpt lat="44.5825993" lon="8.4593081"><ele>565.0</ele><time>2026-04-04T11:13:00.503Z</time></trkpt><trkpt lat="44.5826864" lon="8.459244"><ele>565.0</ele><time>2026-04-04T11:13:02.505Z</time></trkpt><trkpt lat="44.5827356" lon="8.4593854"><ele>565.0</ele><time>2026-04-04T11:13:04.504Z</time></trkpt><trkpt lat="44.5827083" lon="8.4594978"><ele>565.0</ele><time>2026-04-04T11:13:05.503Z</time></trkpt><trkpt lat="44.5826549" lon="8.4596238"><ele>565.0</ele><time>2026-04-04T11:13:06.504Z</time></trkpt><trkpt lat="44.5825921" lon="8.45975"><ele>565.0</ele><time>2026-04-04T11:13:07.503Z</time></trkpt><trkpt lat="44.5825449" lon="8.4598596"><ele>565.0</ele><time>2026-04-04T11:13:08.504Z</time></trkpt><trkpt lat="44.5825122" lon="8.4599598"><ele>565.0</ele><time>2026-04-04T11:13:09.504Z</time></trkpt><trkpt lat="44.5824902" lon="8.4600531"><ele>565.0</ele><time>2026-04-04T11:13:10.503Z</time></trkpt><trkpt lat="44.5824811" lon="8.4602131"><ele>565.0</ele><time>2026-04-04T11:13:12.504Z</time></trkpt><trkpt lat="44.5825345" lon="8.4603892"><ele>563.6</ele><time>2026-04-04T11:13:14.504Z</time></trkpt><trkpt lat="44.5826052" lon="8.4604767"><ele>562.2</ele><time>2026-04-04T11:13:15.504Z</time></trkpt><trkpt lat="44.5826858" lon="8.4605162"><ele>560.8</ele><time>2026-04-04T11:13:16.504Z</time></trkpt><trkpt lat="44.5827738" lon="8.4605216"><ele>559.4</ele><time>2026-04-04T11:13:17.504Z</time></trkpt><trkpt lat="44.5828636" lon="8.4605252"><ele>558.0</ele><time>2026-04-04T11:13:18.503Z</time></trkpt><trkpt lat="44.5829611" lon="8.4605351"><ele>561.8</ele><time>2026-04-04T11:13:19.505Z</time></trkpt><trkpt lat="44.5830642" lon="8.4605553"><ele>565.5999999999999</ele><time>2026-04-04T11:13:20.504Z</time></trkpt><trkpt lat="44.5831679" lon="8.4605844"><ele>569.4000000000001</ele><time>2026-04-04T11:13:21.505Z</time></trkpt><trkpt lat="44.5832711" lon="8.4606155"><ele>573.2</ele><time>2026-04-04T11:13:22.504Z</time></trkpt><trkpt lat="44.5833785" lon="8.4606531"><ele>577.0</ele><time>2026-04-04T11:13:23.504Z</time></trkpt><trkpt lat="44.5834915" lon="8.4606927"><ele>577.0</ele><time>2026-04-04T11:13:24.504Z</time></trkpt><trkpt lat="44.5836025" lon="8.4607235"><ele>577.0</ele><time>2026-04-04T11:13:25.504Z</time></trkpt><trkpt lat="44.5837154" lon="8.4607507"><ele>577.0</ele><time>2026-04-04T11:13:26.504Z</time></trkpt><trkpt lat="44.5838311" lon="8.4607676"><ele>577.0</ele><time>2026-04-04T11:13:27.504Z</time></trkpt><trkpt lat="44.5839478" lon="8.4607792"><ele>579.75</ele><time>2026-04-04T11:13:28.504Z</time></trkpt><trkpt lat="44.5840714" lon="8.4607923"><ele>582.5</ele><time>2026-04-04T11:13:29.504Z</time></trkpt><trkpt lat="44.5841986" lon="8.4608057"><ele>585.25</ele><time>2026-04-04T11:13:30.504Z</time></trkpt><trkpt lat="44.5843273" lon="8.460819"><ele>588.0</ele><time>2026-04-04T11:13:31.505Z</time></trkpt><trkpt lat="44.5844635" lon="8.4608294"><ele>588.6</ele><time>2026-04-04T11:13:32.505Z</time></trkpt><trkpt lat="44.584595" lon="8.4608455"><ele>589.1999999999999</ele><time>2026-04-04T11:13:33.504Z</time></trkpt><trkpt lat="44.5847076" lon="8.4608764"><ele>589.8</ele><time>2026-04-04T11:13:34.504Z</time></trkpt><trkpt lat="44.5848018" lon="8.4609203"><ele>590.4</ele><time>2026-04-04T11:13:35.504Z</time></trkpt><trkpt lat="44.5848824" lon="8.4609591"><ele>591.0</ele><time>2026-04-04T11:13:36.504Z</time></trkpt><trkpt lat="44.5849599" lon="8.4609726"><ele>591.0</ele><time>2026-04-04T11:13:37.503Z</time></trkpt><trkpt lat="44.5850515" lon="8.4609359"><ele>591.0</ele><time>2026-04-04T11:13:38.505Z</time></trkpt><trkpt lat="44.5851537" lon="8.4608316"><ele>591.0</ele><time>2026-04-04T11:13:39.505Z</time></trkpt><trkpt lat="44.5852486" lon="8.4607057"><ele>591.0</ele><time>2026-04-04T11:13:40.505Z</time></trkpt><trkpt lat="44.5853487" lon="8.4605894"><ele>587.75</ele><time>2026-04-04T11:13:41.503Z</time></trkpt><trkpt lat="44.5854561" lon="8.4605207"><ele>584.5</ele><time>2026-04-04T11:13:42.505Z</time></trkpt><trkpt lat="44.5855758" lon="8.4604654"><ele>581.25</ele><time>2026-04-04T11:13:43.504Z</time></trkpt><trkpt lat="44.5857036" lon="8.4604013"><ele>578.0</ele><time>2026-04-04T11:13:44.504Z</time></trkpt><trkpt lat="44.5858265" lon="8.4603398"><ele>584.75</ele><time>2026-04-04T11:13:45.504Z</time></trkpt><trkpt lat="44.5859409" lon="8.4602836"><ele>591.5</ele><time>2026-04-04T11:13:46.504Z</time></trkpt><trkpt lat="44.5860522" lon="8.4602336"><ele>598.25</ele><time>2026-04-04T11:13:47.504Z</time></trkpt><trkpt lat="44.5861651" lon="8.4601954"><ele>605.0</ele><time>2026-04-04T11:13:48.504Z</time></trkpt><trkpt lat="44.5862881" lon="8.4601739"><ele>605.0</ele><time>2026-04-04T11:13:49.504Z</time></trkpt><trkpt lat="44.5864095" lon="8.4601742"><ele>605.0</ele><time>2026-04-04T11:13:50.504Z</time></trkpt><trkpt lat="44.586525" lon="8.4601904"><ele>605.0</ele><time>2026-04-04T11:13:51.504Z</time></trkpt><trkpt lat="44.5866397" lon="8.4602164"><ele>605.0</ele><time>2026-04-04T11:13:52.505Z</time></trkpt><trkpt lat="44.5867519" lon="8.4602446"><ele>605.0</ele><time>2026-04-04T11:13:53.505Z</time></trkpt><trkpt lat="44.5868591" lon="8.4602691"><ele>605.0</ele><time>2026-04-04T11:13:54.504Z</time></trkpt><trkpt lat="44.5869606" lon="8.4602922"><ele>605.0</ele><time>2026-04-04T11:13:55.505Z</time></trkpt><trkpt lat="44.5870506" lon="8.4603145"><ele>605.0</ele><time>2026-04-04T11:13:56.505Z</time></trkpt><trkpt lat="44.5871295" lon="8.4603346"><ele>605.0</ele><time>2026-04-04T11:13:57.505Z</time></trkpt><trkpt lat="44.5872057" lon="8.4603484"><ele>604.4</ele><time>2026-04-04T11:13:58.505Z</time></trkpt><trkpt lat="44.5872828" lon="8.4603485"><ele>603.8</ele><time>2026-04-04T11:13:59.505Z</time></trkpt><trkpt lat="44.587358" lon="8.4603087"><ele>603.2</ele><time>2026-04-04T11:14:00.505Z</time></trkpt><trkpt lat="44.5874351" lon="8.4602393"><ele>602.6</ele><time>2026-04-04T11:14:01.504Z</time></trkpt><trkpt lat="44.5875122" lon="8.4601513"><ele>602.0</ele><time>2026-04-04T11:14:02.505Z</time></trkpt><trkpt lat="44.5875883" lon="8.4600548"><ele>602.0</ele><time>2026-04-04T11:14:03.505Z</time></trkpt><trkpt lat="44.5876715" lon="8.4599422"><ele>602.0</ele><time>2026-04-04T11:14:04.505Z</time></trkpt><trkpt lat="44.587751" lon="8.4598364"><ele>602.0</ele><time>2026-04-04T11:14:05.504Z</time></trkpt><trkpt lat="44.5878268" lon="8.4597358"><ele>602.0</ele><time>2026-04-04T11:14:06.505Z</time></trkpt><trkpt lat="44.5878991" lon="8.4596284"><ele>602.0</ele><time>2026-04-04T11:14:07.505Z</time></trkpt><trkpt lat="44.5879625" lon="8.4595154"><ele>602.0</ele><time>2026-04-04T11:14:08.505Z</time></trkpt><trkpt lat="44.5880262" lon="8.4594"><ele>602.0</ele><time>2026-04-04T11:14:09.505Z</time></trkpt><trkpt lat="44.5880947" lon="8.4593059"><ele>602.0</ele><time>2026-04-04T11:14:10.505Z</time></trkpt><trkpt lat="44.5881826" lon="8.4592356"><ele>602.0</ele><time>2026-04-04T11:14:11.505Z</time></trkpt><trkpt lat="44.5882781" lon="8.4591943"><ele>602.0</ele><time>2026-04-04T11:14:12.505Z</time></trkpt><trkpt lat="44.5883821" lon="8.4591853"><ele>602.0</ele><time>2026-04-04T11:14:13.505Z</time></trkpt><trkpt lat="44.5884894" lon="8.4592026"><ele>602.0</ele><time>2026-04-04T11:14:14.505Z</time></trkpt><trkpt lat="44.5885832" lon="8.4592495"><ele>602.0</ele><time>2026-04-04T11:14:15.506Z</time></trkpt><trkpt lat="44.5886635" lon="8.4593192"><ele>602.0</ele><time>2026-04-04T11:14:16.505Z</time></trkpt><trkpt lat="44.5887394" lon="8.4593826"><ele>602.0</ele><time>2026-04-04T11:14:17.505Z</time></trkpt><trkpt lat="44.5888176" lon="8.4594378"><ele>602.8333333333333</ele><time>2026-04-04T11:14:18.505Z</time></trkpt><trkpt lat="44.5889001" lon="8.4594869"><ele>603.6666666666666</ele><time>2026-04-04T11:14:19.505Z</time></trkpt><trkpt lat="44.5889802" lon="8.4595324"><ele>604.5</ele><time>2026-04-04T11:14:20.505Z</time></trkpt><trkpt lat="44.5890555" lon="8.4595733"><ele>605.3333333333334</ele><time>2026-04-04T11:14:21.504Z</time></trkpt><trkpt lat="44.5891373" lon="8.4596161"><ele>606.1666666666667</ele><time>2026-04-04T11:14:22.505Z</time></trkpt><trkpt lat="44.5892211" lon="8.4596609"><ele>607.0</ele><time>2026-04-04T11:14:23.506Z</time></trkpt><trkpt lat="44.5893045" lon="8.4597144"><ele>605.2</ele><time>2026-04-04T11:14:24.505Z</time></trkpt><trkpt lat="44.5893919" lon="8.4597791"><ele>603.4000000000001</ele><time>2026-04-04T11:14:25.505Z</time></trkpt><trkpt lat="44.5894745" lon="8.4598481"><ele>601.5999999999999</ele><time>2026-04-04T11:14:26.505Z</time></trkpt><trkpt lat="44.58956" lon="8.4599192"><ele>599.8</ele><time>2026-04-04T11:14:27.505Z</time></trkpt><trkpt lat="44.5896552" lon="8.4599906"><ele>598.0</ele><time>2026-04-04T11:14:28.505Z</time></trkpt><trkpt lat="44.5897564" lon="8.460055"><ele>598.0</ele><time>2026-04-04T11:14:29.506Z</time></trkpt><trkpt lat="44.5898649" lon="8.4601138"><ele>598.0</ele><time>2026-04-04T11:14:30.506Z</time></trkpt><trkpt lat="44.5899654" lon="8.4601654"><ele>598.0</ele><time>2026-04-04T11:14:31.505Z</time></trkpt><trkpt lat="44.5900599" lon="8.4602116"><ele>598.0</ele><time>2026-04-04T11:14:32.506Z</time></trkpt><trkpt lat="44.5901396" lon="8.46025"><ele>598.0</ele><time>2026-04-04T11:14:33.505Z</time></trkpt><trkpt lat="44.5902116" lon="8.4602835"><ele>598.0</ele><time>2026-04-04T11:14:34.506Z</time></trkpt><trkpt lat="44.5902761" lon="8.4603134"><ele>598.0</ele><time>2026-04-04T11:14:35.505Z</time></trkpt><trkpt lat="44.5903721" lon="8.4603735"><ele>598.0</ele><time>2026-04-04T11:14:37.506Z</time></trkpt><trkpt lat="44.5903884" lon="8.4604812"><ele>598.0</ele><time>2026-04-04T11:14:39.504Z</time></trkpt><trkpt lat="44.5903371" lon="8.4605361"><ele>598.0</ele><time>2026-04-04T11:14:40.505Z</time></trkpt><trkpt lat="44.5902568" lon="8.4605343"><ele>598.0</ele><time>2026-04-04T11:14:41.505Z</time></trkpt><trkpt lat="44.5901889" lon="8.4604837"><ele>598.0</ele><time>2026-04-04T11:14:42.506Z</time></trkpt><trkpt lat="44.5901207" lon="8.4604066"><ele>598.0</ele><time>2026-04-04T11:14:43.505Z</time></trkpt><trkpt lat="44.5900503" lon="8.4603281"><ele>598.0</ele><time>2026-04-04T11:14:44.506Z</time></trkpt><trkpt lat="44.5899601" lon="8.4602608"><ele>598.0</ele><time>2026-04-04T11:14:45.505Z</time></trkpt><trkpt lat="44.5898579" lon="8.4602095"><ele>598.0</ele><time>2026-04-04T11:14:46.506Z</time></trkpt><trkpt lat="44.5897619" lon="8.4601811"><ele>598.0</ele><time>2026-04-04T11:14:47.505Z</time></trkpt><trkpt lat="44.5896762" lon="8.4601871"><ele>598.0</ele><time>2026-04-04T11:14:48.506Z</time></trkpt><trkpt lat="44.5896001" lon="8.4602171"><ele>598.0</ele><time>2026-04-04T11:14:49.506Z</time></trkpt><trkpt lat="44.5895287" lon="8.4602567"><ele>598.0</ele><time>2026-04-04T11:14:50.505Z</time></trkpt><trkpt lat="44.5894533" lon="8.4602843"><ele>598.0</ele><time>2026-04-04T11:14:51.507Z</time></trkpt><trkpt lat="44.5893768" lon="8.4602783"><ele>598.0</ele><time>2026-04-04T11:14:52.506Z</time></trkpt><trkpt lat="44.5893007" lon="8.4602424"><ele>595.6</ele><time>2026-04-04T11:14:53.506Z</time></trkpt><trkpt lat="44.5892349" lon="8.4601928"><ele>593.1999999999999</ele><time>2026-04-04T11:14:54.506Z</time></trkpt><trkpt lat="44.5891454" lon="8.4601175"><ele>590.8</ele><time>2026-04-04T11:14:56.506Z</time></trkpt><trkpt lat="44.5890653" lon="8.4601591"><ele>588.4</ele><time>2026-04-04T11:14:58.504Z</time></trkpt><trkpt lat="44.589042" lon="8.4603099"><ele>586.0</ele><time>2026-04-04T11:15:00.506Z</time></trkpt><trkpt lat="44.5890879" lon="8.4604031"><ele>582.8</ele><time>2026-04-04T11:15:01.506Z</time></trkpt><trkpt lat="44.5891725" lon="8.4604651"><ele>579.6</ele><time>2026-04-04T11:15:02.506Z</time></trkpt><trkpt lat="44.589272" lon="8.4604995"><ele>576.4</ele><time>2026-04-04T11:15:03.505Z</time></trkpt><trkpt lat="44.5893953" lon="8.4605022"><ele>573.2</ele><time>2026-04-04T11:15:04.506Z</time></trkpt><trkpt lat="44.5895202" lon="8.4604992"><ele>570.0</ele><time>2026-04-04T11:15:05.505Z</time></trkpt><trkpt lat="44.5896442" lon="8.4605132"><ele>570.0</ele><time>2026-04-04T11:15:06.506Z</time></trkpt><trkpt lat="44.5897809" lon="8.4605642"><ele>570.0</ele><time>2026-04-04T11:15:07.506Z</time></trkpt><trkpt lat="44.5899285" lon="8.4606419"><ele>570.0</ele><time>2026-04-04T11:15:08.506Z</time></trkpt><trkpt lat="44.5900678" lon="8.4607404"><ele>570.0</ele><time>2026-04-04T11:15:09.506Z</time></trkpt><trkpt lat="44.5901929" lon="8.4608414"><ele>570.0</ele><time>2026-04-04T11:15:10.506Z</time></trkpt><trkpt lat="44.5903102" lon="8.4609305"><ele>570.0</ele><time>2026-04-04T11:15:11.506Z</time></trkpt><trkpt lat="44.5904235" lon="8.4610201"><ele>570.0</ele><time>2026-04-04T11:15:12.507Z</time></trkpt><trkpt lat="44.5905317" lon="8.4611094"><ele>572.4</ele><time>2026-04-04T11:15:13.505Z</time></trkpt><trkpt lat="44.5906373" lon="8.4611958"><ele>574.8</ele><time>2026-04-04T11:15:14.505Z</time></trkpt><trkpt lat="44.5907381" lon="8.4612778"><ele>577.2</ele><time>2026-04-04T11:15:15.505Z</time></trkpt><trkpt lat="44.5908297" lon="8.4613546"><ele>579.6</ele><time>2026-04-04T11:15:16.506Z</time></trkpt><trkpt lat="44.5909184" lon="8.461429"><ele>582.0</ele><time>2026-04-04T11:15:17.506Z</time></trkpt><trkpt lat="44.5910055" lon="8.461501"><ele>576.2</ele><time>2026-04-04T11:15:18.506Z</time></trkpt><trkpt lat="44.5910933" lon="8.4615721"><ele>570.4000000000001</ele><time>2026-04-04T11:15:19.506Z</time></trkpt><trkpt lat="44.5911866" lon="8.4616286"><ele>564.5999999999999</ele><time>2026-04-04T11:15:20.506Z</time></trkpt><trkpt lat="44.5912873" lon="8.4616529"><ele>558.8</ele><time>2026-04-04T11:15:21.507Z</time></trkpt><trkpt lat="44.591392" lon="8.4616366"><ele>553.0</ele><time>2026-04-04T11:15:22.506Z</time></trkpt><trkpt lat="44.5914977" lon="8.4615737"><ele>552.5</ele><time>2026-04-04T11:15:23.506Z</time></trkpt><trkpt lat="44.5916081" lon="8.4615035"><ele>552.0</ele><time>2026-04-04T11:15:24.506Z</time></trkpt><trkpt lat="44.591728" lon="8.4614452"><ele>551.5</ele><time>2026-04-04T11:15:25.506Z</time></trkpt><trkpt lat="44.5918726" lon="8.4614357"><ele>551.0</ele><time>2026-04-04T11:15:26.505Z</time></trkpt><trkpt lat="44.5920189" lon="8.4614467"><ele>550.0</ele><time>2026-04-04T11:15:27.506Z</time></trkpt><trkpt lat="44.5921637" lon="8.4614642"><ele>549.0</ele><time>2026-04-04T11:15:28.506Z</time></trkpt><trkpt lat="44.5923038" lon="8.4614813"><ele>548.0</ele><time>2026-04-04T11:15:29.506Z</time></trkpt><trkpt lat="44.5924367" lon="8.4614955"><ele>547.0</ele><time>2026-04-04T11:15:30.506Z</time></trkpt><trkpt lat="44.592566" lon="8.4615154"><ele>547.0</ele><time>2026-04-04T11:15:31.506Z</time></trkpt><trkpt lat="44.5926896" lon="8.4615512"><ele>547.0</ele><time>2026-04-04T11:15:32.506Z</time></trkpt><trkpt lat="44.5927997" lon="8.4616309"><ele>547.0</ele><time>2026-04-04T11:15:33.506Z</time></trkpt><trkpt lat="44.5928987" lon="8.4617564"><ele>547.0</ele><time>2026-04-04T11:15:34.506Z</time></trkpt><trkpt lat="44.5929886" lon="8.461904"><ele>546.25</ele><time>2026-04-04T11:15:35.506Z</time></trkpt><trkpt lat="44.5930663" lon="8.4620675"><ele>545.5</ele><time>2026-04-04T11:15:36.506Z</time></trkpt><trkpt lat="44.593138" lon="8.462231"><ele>544.75</ele><time>2026-04-04T11:15:37.506Z</time></trkpt><trkpt lat="44.5932084" lon="8.4623891"><ele>544.0</ele><time>2026-04-04T11:15:38.505Z</time></trkpt><trkpt lat="44.593276" lon="8.4625395"><ele>544.0</ele><time>2026-04-04T11:15:39.507Z</time></trkpt><trkpt lat="44.5933414" lon="8.4626856"><ele>544.0</ele><time>2026-04-04T11:15:40.507Z</time></trkpt><trkpt lat="44.5934013" lon="8.4628272"><ele>544.0</ele><time>2026-04-04T11:15:41.506Z</time></trkpt><trkpt lat="44.5934528" lon="8.4629607"><ele>544.0</ele><time>2026-04-04T11:15:42.506Z</time></trkpt><trkpt lat="44.5934987" lon="8.4630899"><ele>544.5</ele><time>2026-04-04T11:15:43.506Z</time></trkpt><trkpt lat="44.5935424" lon="8.4632163"><ele>545.0</ele><time>2026-04-04T11:15:44.506Z</time></trkpt><trkpt lat="44.5935823" lon="8.463332"><ele>545.5</ele><time>2026-04-04T11:15:45.506Z</time></trkpt><trkpt lat="44.5936127" lon="8.4634294"><ele>546.0</ele><time>2026-04-04T11:15:46.506Z</time></trkpt><trkpt lat="44.5936516" lon="8.4635693"><ele>546.5</ele><time>2026-04-04T11:15:48.507Z</time></trkpt><trkpt lat="44.5936698" lon="8.463654"><ele>547.0</ele><time>2026-04-04T11:15:52.506Z</time></trkpt><trkpt lat="44.5937122" lon="8.4637378"><ele>544.0</ele><time>2026-04-04T11:29:06.554Z</time></trkpt><trkpt lat="44.593762" lon="8.4638083"><ele>541.0</ele><time>2026-04-04T11:29:13.519Z</time></trkpt><trkpt lat="44.5938135" lon="8.4638772"><ele>538.0</ele><time>2026-04-04T11:29:15.519Z</time></trkpt><trkpt lat="44.5938678" lon="8.4639877"><ele>535.0</ele><time>2026-04-04T11:29:18.519Z</time></trkpt><trkpt lat="44.5939066" lon="8.4640641"><ele>532.0</ele><time>2026-04-04T11:29:20.519Z</time></trkpt><trkpt lat="44.5939626" lon="8.4641506"><ele>529.0</ele><time>2026-04-04T11:29:22.519Z</time></trkpt><trkpt lat="44.5940367" lon="8.4642581"><ele>529.0</ele><time>2026-04-04T11:29:24.519Z</time></trkpt><trkpt lat="44.5941331" lon="8.4643296"><ele>529.0</ele><time>2026-04-04T11:29:26.519Z</time></trkpt><trkpt lat="44.5941933" lon="8.4643567"><ele>529.0</ele><time>2026-04-04T11:29:27.519Z</time></trkpt><trkpt lat="44.594257" lon="8.4643823"><ele>529.0</ele><time>2026-04-04T11:29:28.519Z</time></trkpt><trkpt lat="44.5943219" lon="8.464407"><ele>529.0</ele><time>2026-04-04T11:29:29.519Z</time></trkpt><trkpt lat="44.5943921" lon="8.4644384"><ele>529.0</ele><time>2026-04-04T11:29:30.519Z</time></trkpt><trkpt lat="44.5944647" lon="8.4644724"><ele>529.5</ele><time>2026-04-04T11:29:31.519Z</time></trkpt><trkpt lat="44.5945327" lon="8.4645208"><ele>530.0</ele><time>2026-04-04T11:29:32.519Z</time></trkpt><trkpt lat="44.5945964" lon="8.4645904"><ele>530.5</ele><time>2026-04-04T11:29:33.519Z</time></trkpt><trkpt lat="44.5946612" lon="8.4646693"><ele>531.0</ele><time>2026-04-04T11:29:34.519Z</time></trkpt><trkpt lat="44.5947259" lon="8.464741"><ele>531.5</ele><time>2026-04-04T11:29:35.519Z</time></trkpt><trkpt lat="44.5947989" lon="8.4647851"><ele>532.0</ele><time>2026-04-04T11:29:36.518Z</time></trkpt><trkpt lat="44.5948861" lon="8.464793"><ele>529.0</ele><time>2026-04-04T11:29:37.519Z</time></trkpt><trkpt lat="44.5949774" lon="8.4647885"><ele>526.0</ele><time>2026-04-04T11:29:38.519Z</time></trkpt><trkpt lat="44.5950645" lon="8.4648348"><ele>523.0</ele><time>2026-04-04T11:29:39.518Z</time></trkpt><trkpt lat="44.5951447" lon="8.4649435"><ele>520.0</ele><time>2026-04-04T11:29:40.519Z</time></trkpt><trkpt lat="44.5952006" lon="8.4650933"><ele>517.0</ele><time>2026-04-04T11:29:41.519Z</time></trkpt><trkpt lat="44.5952378" lon="8.4652383"><ele>517.0</ele><time>2026-04-04T11:29:42.519Z</time></trkpt><trkpt lat="44.5952805" lon="8.4653611"><ele>517.0</ele><time>2026-04-04T11:29:43.519Z</time></trkpt><trkpt lat="44.5953409" lon="8.4654447"><ele>517.0</ele><time>2026-04-04T11:29:44.519Z</time></trkpt><trkpt lat="44.5954153" lon="8.465499"><ele>517.0</ele><time>2026-04-04T11:29:45.519Z</time></trkpt><trkpt lat="44.5955045" lon="8.4655225"><ele>517.0</ele><time>2026-04-04T11:29:46.519Z</time></trkpt><trkpt lat="44.5955948" lon="8.4655284"><ele>517.0</ele><time>2026-04-04T11:29:47.519Z</time></trkpt><trkpt lat="44.5956836" lon="8.4655201"><ele>516.8333333333334</ele><time>2026-04-04T11:29:48.518Z</time></trkpt><trkpt lat="44.5957656" lon="8.4654981"><ele>516.6666666666667</ele><time>2026-04-04T11:29:49.519Z</time></trkpt><trkpt lat="44.5958406" lon="8.465452"><ele>516.5</ele><time>2026-04-04T11:29:50.519Z</time></trkpt><trkpt lat="44.5959114" lon="8.465376"><ele>516.3333333333334</ele><time>2026-04-04T11:29:51.519Z</time></trkpt><trkpt lat="44.5959697" lon="8.4652869"><ele>516.1666666666666</ele><time>2026-04-04T11:29:52.518Z</time></trkpt><trkpt lat="44.5960238" lon="8.4651921"><ele>516.0</ele><time>2026-04-04T11:29:53.519Z</time></trkpt><trkpt lat="44.596079" lon="8.4651005"><ele>516.0</ele><time>2026-04-04T11:29:54.519Z</time></trkpt><trkpt lat="44.5961466" lon="8.4650369"><ele>516.0</ele><time>2026-04-04T11:29:55.518Z</time></trkpt><trkpt lat="44.596235" lon="8.4650196"><ele>516.0</ele><time>2026-04-04T11:29:56.519Z</time></trkpt><trkpt lat="44.5963243" lon="8.4650393"><ele>516.0</ele><time>2026-04-04T11:29:57.519Z</time></trkpt><trkpt lat="44.5964092" lon="8.4650586"><ele>516.0</ele><time>2026-04-04T11:29:58.519Z</time></trkpt><trkpt lat="44.5964843" lon="8.4650545"><ele>516.0</ele><time>2026-04-04T11:29:59.519Z</time></trkpt><trkpt lat="44.5965599" lon="8.4650456"><ele>512.2</ele><time>2026-04-04T11:30:00.519Z</time></trkpt><trkpt lat="44.596652" lon="8.4650771"><ele>508.40000000000003</ele><time>2026-04-04T11:30:01.519Z</time></trkpt><trkpt lat="44.5967368" lon="8.4651536"><ele>504.6</ele><time>2026-04-04T11:30:02.52Z</time></trkpt><trkpt lat="44.5968004" lon="8.465266"><ele>500.8</ele><time>2026-04-04T11:30:03.52Z</time></trkpt><trkpt lat="44.5968517" lon="8.4653805"><ele>497.0</ele><time>2026-04-04T11:30:04.519Z</time></trkpt><trkpt lat="44.5968974" lon="8.4654825"><ele>494.8333333333333</ele><time>2026-04-04T11:30:05.52Z</time></trkpt><trkpt lat="44.5969431" lon="8.4655701"><ele>492.66666666666663</ele><time>2026-04-04T11:30:06.52Z</time></trkpt><trkpt lat="44.5969906" lon="8.4656523"><ele>490.5</ele><time>2026-04-04T11:30:07.518Z</time></trkpt><trkpt lat="44.5970581" lon="8.4657442"><ele>488.33333333333337</ele><time>2026-04-04T11:30:08.52Z</time></trkpt><trkpt lat="44.5971338" lon="8.4658288"><ele>486.1666666666667</ele><time>2026-04-04T11:30:09.518Z</time></trkpt><trkpt lat="44.5972152" lon="8.4658919"><ele>484.0</ele><time>2026-04-04T11:30:10.52Z</time></trkpt><trkpt lat="44.5973051" lon="8.4659261"><ele>484.0</ele><time>2026-04-04T11:30:11.52Z</time></trkpt><trkpt lat="44.5974008" lon="8.46593"><ele>484.0</ele><time>2026-04-04T11:30:12.52Z</time></trkpt><trkpt lat="44.5975085" lon="8.4658911"><ele>484.0</ele><time>2026-04-04T11:30:13.52Z</time></trkpt><trkpt lat="44.5976097" lon="8.4658038"><ele>484.0</ele><time>2026-04-04T11:30:14.519Z</time></trkpt><trkpt lat="44.5977006" lon="8.4656826"><ele>484.0</ele><time>2026-04-04T11:30:15.519Z</time></trkpt><trkpt lat="44.5977956" lon="8.4655609"><ele>484.0</ele><time>2026-04-04T11:30:16.52Z</time></trkpt><trkpt lat="44.5978989" lon="8.4654634"><ele>484.0</ele><time>2026-04-04T11:30:17.519Z</time></trkpt><trkpt lat="44.5980135" lon="8.4653919"><ele>484.0</ele><time>2026-04-04T11:30:18.52Z</time></trkpt><trkpt lat="44.5981316" lon="8.4653323"><ele>481.5</ele><time>2026-04-04T11:30:19.519Z</time></trkpt><trkpt lat="44.5982545" lon="8.4652832"><ele>479.0</ele><time>2026-04-04T11:30:20.52Z</time></trkpt><trkpt lat="44.5983777" lon="8.4652516"><ele>476.5</ele><time>2026-04-04T11:30:21.52Z</time></trkpt><trkpt lat="44.5985103" lon="8.465249"><ele>474.0</ele><time>2026-04-04T11:30:22.52Z</time></trkpt><trkpt lat="44.5986538" lon="8.4652718"><ele>471.75</ele><time>2026-04-04T11:30:23.519Z</time></trkpt><trkpt lat="44.5987909" lon="8.465308"><ele>469.5</ele><time>2026-04-04T11:30:24.52Z</time></trkpt><trkpt lat="44.5989244" lon="8.4653478"><ele>467.25</ele><time>2026-04-04T11:30:25.519Z</time></trkpt><trkpt lat="44.5990527" lon="8.4653852"><ele>465.0</ele><time>2026-04-04T11:30:26.52Z</time></trkpt><trkpt lat="44.5991786" lon="8.4654257"><ele>468.0</ele><time>2026-04-04T11:30:27.519Z</time></trkpt><trkpt lat="44.5993059" lon="8.4654771"><ele>471.0</ele><time>2026-04-04T11:30:28.52Z</time></trkpt><trkpt lat="44.5994305" lon="8.4655332"><ele>474.0</ele><time>2026-04-04T11:30:29.52Z</time></trkpt><trkpt lat="44.5995603" lon="8.465581"><ele>477.0</ele><time>2026-04-04T11:30:30.52Z</time></trkpt><trkpt lat="44.5996957" lon="8.4655866"><ele>476.25</ele><time>2026-04-04T11:30:31.519Z</time></trkpt><trkpt lat="44.5998402" lon="8.465541"><ele>475.5</ele><time>2026-04-04T11:30:32.52Z</time></trkpt><trkpt lat="44.5999758" lon="8.4654604"><ele>474.75</ele><time>2026-04-04T11:30:33.52Z</time></trkpt><trkpt lat="44.6000824" lon="8.4653453"><ele>474.0</ele><time>2026-04-04T11:30:34.52Z</time></trkpt><trkpt lat="44.6001683" lon="8.4652246"><ele>474.0</ele><time>2026-04-04T11:30:35.52Z</time></trkpt><trkpt lat="44.6002553" lon="8.4651225"><ele>474.0</ele><time>2026-04-04T11:30:36.519Z</time></trkpt><trkpt lat="44.600356" lon="8.4650536"><ele>474.0</ele><time>2026-04-04T11:30:37.52Z</time></trkpt><trkpt lat="44.6004637" lon="8.4650131"><ele>474.0</ele><time>2026-04-04T11:30:38.52Z</time></trkpt><trkpt lat="44.6005661" lon="8.4649967"><ele>474.0</ele><time>2026-04-04T11:30:39.52Z</time></trkpt><trkpt lat="44.600651" lon="8.4650041"><ele>474.79999999999995</ele><time>2026-04-04T11:30:40.52Z</time></trkpt><trkpt lat="44.6007402" lon="8.4650377"><ele>475.59999999999997</ele><time>2026-04-04T11:30:41.519Z</time></trkpt><trkpt lat="44.6008353" lon="8.4650968"><ele>476.4</ele><time>2026-04-04T11:30:42.52Z</time></trkpt><trkpt lat="44.6009343" lon="8.4651717"><ele>477.2</ele><time>2026-04-04T11:30:43.52Z</time></trkpt><trkpt lat="44.6010252" lon="8.465258"><ele>478.0</ele><time>2026-04-04T11:30:44.52Z</time></trkpt><trkpt lat="44.6011078" lon="8.4653542"><ele>478.0</ele><time>2026-04-04T11:30:45.52Z</time></trkpt><trkpt lat="44.6011915" lon="8.4654428"><ele>477.99999999999994</ele><time>2026-04-04T11:30:46.52Z</time></trkpt><trkpt lat="44.6012823" lon="8.4655065"><ele>477.99999999999994</ele><time>2026-04-04T11:30:47.52Z</time></trkpt><trkpt lat="44.6013933" lon="8.4655237"><ele>478.0</ele><time>2026-04-04T11:30:48.52Z</time></trkpt><trkpt lat="44.6015152" lon="8.4655068"><ele>478.0</ele><time>2026-04-04T11:30:49.52Z</time></trkpt><trkpt lat="44.6016416" lon="8.4654881"><ele>478.0</ele><time>2026-04-04T11:30:50.52Z</time></trkpt><trkpt lat="44.601768" lon="8.4654883"><ele>478.0</ele><time>2026-04-04T11:30:51.52Z</time></trkpt><trkpt lat="44.6018925" lon="8.465503"><ele>478.0</ele><time>2026-04-04T11:30:52.519Z</time></trkpt><trkpt lat="44.602013" lon="8.4654963"><ele>478.0</ele><time>2026-04-04T11:30:53.52Z</time></trkpt><trkpt lat="44.6021391" lon="8.465436"><ele>473.25</ele><time>2026-04-04T11:30:54.52Z</time></trkpt><trkpt lat="44.6022647" lon="8.4653156"><ele>468.5</ele><time>2026-04-04T11:30:55.52Z</time></trkpt><trkpt lat="44.6023735" lon="8.4651792"><ele>463.75</ele><time>2026-04-04T11:30:56.521Z</time></trkpt><trkpt lat="44.6024669" lon="8.4650531"><ele>459.0</ele><time>2026-04-04T11:30:57.52Z</time></trkpt><trkpt lat="44.6025534" lon="8.4649307"><ele>459.0</ele><time>2026-04-04T11:30:58.521Z</time></trkpt><trkpt lat="44.6026267" lon="8.4648029"><ele>459.0</ele><time>2026-04-04T11:30:59.52Z</time></trkpt><trkpt lat="44.6026756" lon="8.4646571"><ele>459.0</ele><time>2026-04-04T11:31:00.521Z</time></trkpt><trkpt lat="44.6026961" lon="8.4644776"><ele>459.0</ele><time>2026-04-04T11:31:01.52Z</time></trkpt><trkpt lat="44.6026964" lon="8.4642826"><ele>456.25</ele><time>2026-04-04T11:31:02.521Z</time></trkpt><trkpt lat="44.6027176" lon="8.4640844"><ele>453.5</ele><time>2026-04-04T11:31:03.519Z</time></trkpt><trkpt lat="44.6027589" lon="8.4638994"><ele>450.75</ele><time>2026-04-04T11:31:04.52Z</time></trkpt><trkpt lat="44.6028353" lon="8.4637318"><ele>448.0</ele><time>2026-04-04T11:31:05.521Z</time></trkpt><trkpt lat="44.6029004" lon="8.4635711"><ele>447.4</ele><time>2026-04-04T11:31:06.52Z</time></trkpt><trkpt lat="44.6029407" lon="8.4634201"><ele>446.79999999999995</ele><time>2026-04-04T11:31:07.52Z</time></trkpt><trkpt lat="44.6029575" lon="8.4632792"><ele>446.2</ele><time>2026-04-04T11:31:08.52Z</time></trkpt><trkpt lat="44.6029477" lon="8.4631465"><ele>445.6</ele><time>2026-04-04T11:31:09.52Z</time></trkpt><trkpt lat="44.6029355" lon="8.463027"><ele>445.0</ele><time>2026-04-04T11:31:10.52Z</time></trkpt><trkpt lat="44.6030043" lon="8.4629035"><ele>445.0</ele><time>2026-04-04T11:31:12.52Z</time></trkpt><trkpt lat="44.6030989" lon="8.4629283"><ele>445.0</ele><time>2026-04-04T11:31:13.521Z</time></trkpt><trkpt lat="44.6031836" lon="8.4630118"><ele>445.0</ele><time>2026-04-04T11:31:14.519Z</time></trkpt><trkpt lat="44.6032757" lon="8.4631724"><ele>445.0</ele><time>2026-04-04T11:31:15.521Z</time></trkpt><trkpt lat="44.6033634" lon="8.4633379"><ele>445.0</ele><time>2026-04-04T11:31:16.521Z</time></trkpt><trkpt lat="44.6034526" lon="8.4634521"><ele>445.0</ele><time>2026-04-04T11:31:17.521Z</time></trkpt><trkpt lat="44.6035556" lon="8.4635354"><ele>445.0</ele><time>2026-04-04T11:31:18.521Z</time></trkpt><trkpt lat="44.6036558" lon="8.463559"><ele>445.0</ele><time>2026-04-04T11:31:19.521Z</time></trkpt><trkpt lat="44.6037721" lon="8.4635388"><ele>441.75</ele><time>2026-04-04T11:31:20.521Z</time></trkpt><trkpt lat="44.6038995" lon="8.4634624"><ele>438.5</ele><time>2026-04-04T11:31:21.521Z</time></trkpt><trkpt lat="44.6040172" lon="8.4633397"><ele>435.25</ele><time>2026-04-04T11:31:22.519Z</time></trkpt><trkpt lat="44.6041261" lon="8.4631962"><ele>432.0</ele><time>2026-04-04T11:31:23.521Z</time></trkpt><trkpt lat="44.6042578" lon="8.4630799"><ele>432.0</ele><time>2026-04-04T11:31:24.521Z</time></trkpt><trkpt lat="44.6044094" lon="8.4630335"><ele>432.0</ele><time>2026-04-04T11:31:25.521Z</time></trkpt><trkpt lat="44.6045575" lon="8.4630244"><ele>432.0</ele><time>2026-04-04T11:31:26.52Z</time></trkpt><trkpt lat="44.6046943" lon="8.4630285"><ele>432.0</ele><time>2026-04-04T11:31:27.52Z</time></trkpt><trkpt lat="44.6048198" lon="8.463045"><ele>433.0</ele><time>2026-04-04T11:31:28.52Z</time></trkpt><trkpt lat="44.6049267" lon="8.4630843"><ele>434.0</ele><time>2026-04-04T11:31:29.521Z</time></trkpt><trkpt lat="44.605035" lon="8.4631412"><ele>435.0</ele><time>2026-04-04T11:31:30.521Z</time></trkpt><trkpt lat="44.6051508" lon="8.4631976"><ele>436.0</ele><time>2026-04-04T11:31:31.521Z</time></trkpt><trkpt lat="44.6052795" lon="8.4632356"><ele>437.25</ele><time>2026-04-04T11:31:32.521Z</time></trkpt><trkpt lat="44.6054149" lon="8.4632467"><ele>438.5</ele><time>2026-04-04T11:31:33.521Z</time></trkpt><trkpt lat="44.6055547" lon="8.4632542"><ele>439.75</ele><time>2026-04-04T11:31:34.521Z</time></trkpt><trkpt lat="44.6056889" lon="8.4632739"><ele>441.0</ele><time>2026-04-04T11:31:35.521Z</time></trkpt><trkpt lat="44.6058158" lon="8.4633298"><ele>441.0</ele><time>2026-04-04T11:31:36.521Z</time></trkpt><trkpt lat="44.605933" lon="8.4634243"><ele>441.0</ele><time>2026-04-04T11:31:37.521Z</time></trkpt><trkpt lat="44.6060396" lon="8.4635415"><ele>441.0</ele><time>2026-04-04T11:31:38.521Z</time></trkpt><trkpt lat="44.6061451" lon="8.4636715"><ele>441.0</ele><time>2026-04-04T11:31:39.521Z</time></trkpt><trkpt lat="44.6062237" lon="8.4638069"><ele>442.25</ele><time>2026-04-04T11:31:40.521Z</time></trkpt><trkpt lat="44.6062894" lon="8.4639501"><ele>443.5</ele><time>2026-04-04T11:31:41.522Z</time></trkpt><trkpt lat="44.6063258" lon="8.4641061"><ele>444.75</ele><time>2026-04-04T11:31:42.521Z</time></trkpt><trkpt lat="44.6063628" lon="8.4642568"><ele>446.0</ele><time>2026-04-04T11:31:43.52Z</time></trkpt><trkpt lat="44.6064429" lon="8.4643876"><ele>446.0</ele><time>2026-04-04T11:31:44.52Z</time></trkpt><trkpt lat="44.6065585" lon="8.4645026"><ele>446.0</ele><time>2026-04-04T11:31:45.521Z</time></trkpt><trkpt lat="44.6066723" lon="8.464604"><ele>446.0</ele><time>2026-04-04T11:31:46.522Z</time></trkpt><trkpt lat="44.6067859" lon="8.4646993"><ele>446.0</ele><time>2026-04-04T11:31:47.521Z</time></trkpt><trkpt lat="44.6068987" lon="8.4647893"><ele>442.75</ele><time>2026-04-04T11:31:48.522Z</time></trkpt><trkpt lat="44.6070271" lon="8.4648603"><ele>439.5</ele><time>2026-04-04T11:31:49.521Z</time></trkpt><trkpt lat="44.6071609" lon="8.4649195"><ele>436.25</ele><time>2026-04-04T11:31:50.521Z</time></trkpt><trkpt lat="44.6072953" lon="8.4649542"><ele>433.0</ele><time>2026-04-04T11:31:51.521Z</time></trkpt><trkpt lat="44.6074209" lon="8.4649924"><ele>433.0</ele><time>2026-04-04T11:31:52.521Z</time></trkpt><trkpt lat="44.6075369" lon="8.4650113"><ele>433.0</ele><time>2026-04-04T11:31:53.521Z</time></trkpt><trkpt lat="44.6076561" lon="8.4649735"><ele>433.0</ele><time>2026-04-04T11:31:54.521Z</time></trkpt><trkpt lat="44.607783" lon="8.4648942"><ele>433.0</ele><time>2026-04-04T11:31:55.521Z</time></trkpt><trkpt lat="44.6079259" lon="8.4647711"><ele>433.25</ele><time>2026-04-04T11:31:56.521Z</time></trkpt><trkpt lat="44.6080353" lon="8.4646451"><ele>433.5</ele><time>2026-04-04T11:31:57.52Z</time></trkpt><trkpt lat="44.6081127" lon="8.4645145"><ele>433.75</ele><time>2026-04-04T11:31:58.521Z</time></trkpt><trkpt lat="44.6081718" lon="8.4643725"><ele>434.0</ele><time>2026-04-04T11:31:59.521Z</time></trkpt><trkpt lat="44.6082246" lon="8.4642153"><ele>434.0</ele><time>2026-04-04T11:32:00.521Z</time></trkpt><trkpt lat="44.6082808" lon="8.4640414"><ele>434.0</ele><time>2026-04-04T11:32:01.521Z</time></trkpt><trkpt lat="44.6083611" lon="8.4638639"><ele>434.0</ele><time>2026-04-04T11:32:02.521Z</time></trkpt><trkpt lat="44.6084695" lon="8.4637365"><ele>434.0</ele><time>2026-04-04T11:32:03.521Z</time></trkpt><trkpt lat="44.6086033" lon="8.4636624"><ele>432.0</ele><time>2026-04-04T11:32:04.522Z</time></trkpt><trkpt lat="44.6087572" lon="8.4636"><ele>430.0</ele><time>2026-04-04T11:32:05.52Z</time></trkpt><trkpt lat="44.6089277" lon="8.4635253"><ele>428.0</ele><time>2026-04-04T11:32:06.522Z</time></trkpt><trkpt lat="44.6090807" lon="8.4634477"><ele>428.0</ele><time>2026-04-04T11:32:07.521Z</time></trkpt><trkpt lat="44.6092243" lon="8.4633856"><ele>428.0</ele><time>2026-04-04T11:32:08.521Z</time></trkpt><trkpt lat="44.609365" lon="8.4633629"><ele>428.0</ele><time>2026-04-04T11:32:09.521Z</time></trkpt><trkpt lat="44.609494" lon="8.4633792"><ele>428.0</ele><time>2026-04-04T11:32:10.522Z</time></trkpt><trkpt lat="44.609618" lon="8.4634244"><ele>430.25</ele><time>2026-04-04T11:32:11.522Z</time></trkpt><trkpt lat="44.609732" lon="8.463434"><ele>432.5</ele><time>2026-04-04T11:32:12.52Z</time></trkpt><trkpt lat="44.6098429" lon="8.46341"><ele>434.75</ele><time>2026-04-04T11:32:13.521Z</time></trkpt><trkpt lat="44.609934" lon="8.463326"><ele>437.0</ele><time>2026-04-04T11:32:14.521Z</time></trkpt><trkpt lat="44.6100167" lon="8.4632094"><ele>437.0</ele><time>2026-04-04T11:32:15.521Z</time></trkpt><trkpt lat="44.610098" lon="8.4631148"><ele>437.00000000000006</ele><time>2026-04-04T11:32:16.52Z</time></trkpt><trkpt lat="44.6101913" lon="8.4630668"><ele>437.00000000000006</ele><time>2026-04-04T11:32:17.522Z</time></trkpt><trkpt lat="44.6102996" lon="8.4630351"><ele>437.0</ele><time>2026-04-04T11:32:18.521Z</time></trkpt><trkpt lat="44.6104232" lon="8.4630301"><ele>437.0</ele><time>2026-04-04T11:32:19.522Z</time></trkpt><trkpt lat="44.6105516" lon="8.4630474"><ele>439.25</ele><time>2026-04-04T11:32:20.522Z</time></trkpt><trkpt lat="44.6106827" lon="8.4630602"><ele>441.5</ele><time>2026-04-04T11:32:21.521Z</time></trkpt><trkpt lat="44.6108048" lon="8.4630278"><ele>443.75</ele><time>2026-04-04T11:32:22.522Z</time></trkpt><trkpt lat="44.6109186" lon="8.4629733"><ele>446.0</ele><time>2026-04-04T11:32:23.521Z</time></trkpt><trkpt lat="44.6110276" lon="8.4629313"><ele>444.0</ele><time>2026-04-04T11:32:24.522Z</time></trkpt><trkpt lat="44.6111321" lon="8.4629319"><ele>442.0</ele><time>2026-04-04T11:32:25.522Z</time></trkpt><trkpt lat="44.6112504" lon="8.462975"><ele>440.0</ele><time>2026-04-04T11:32:26.52Z</time></trkpt><trkpt lat="44.6113923" lon="8.4630591"><ele>438.0</ele><time>2026-04-04T11:32:27.522Z</time></trkpt><trkpt lat="44.6115368" lon="8.4631559"><ele>438.0</ele><time>2026-04-04T11:32:28.521Z</time></trkpt><trkpt lat="44.611678" lon="8.4632302"><ele>438.0</ele><time>2026-04-04T11:32:29.522Z</time></trkpt><trkpt lat="44.6118205" lon="8.4632892"><ele>438.0</ele><time>2026-04-04T11:32:30.521Z</time></trkpt><trkpt lat="44.6119629" lon="8.4633234"><ele>438.0</ele><time>2026-04-04T11:32:31.522Z</time></trkpt><trkpt lat="44.6121057" lon="8.4633488"><ele>439.25</ele><time>2026-04-04T11:32:32.522Z</time></trkpt><trkpt lat="44.6122435" lon="8.4633731"><ele>440.5</ele><time>2026-04-04T11:32:33.521Z</time></trkpt><trkpt lat="44.6123751" lon="8.4634109"><ele>441.75</ele><time>2026-04-04T11:32:34.522Z</time></trkpt><trkpt lat="44.6125091" lon="8.4634625"><ele>443.0</ele><time>2026-04-04T11:32:35.521Z</time></trkpt><trkpt lat="44.6126385" lon="8.463524"><ele>443.0</ele><time>2026-04-04T11:32:36.522Z</time></trkpt><trkpt lat="44.6127555" lon="8.4636025"><ele>443.0</ele><time>2026-04-04T11:32:37.521Z</time></trkpt><trkpt lat="44.612871" lon="8.4637185"><ele>443.0</ele><time>2026-04-04T11:32:38.522Z</time></trkpt><trkpt lat="44.6129462" lon="8.4638754"><ele>443.0</ele><time>2026-04-04T11:32:39.522Z</time></trkpt><trkpt lat="44.6129799" lon="8.4640529"><ele>445.2</ele><time>2026-04-04T11:32:40.522Z</time></trkpt><trkpt lat="44.613004" lon="8.4642104"><ele>447.4</ele><time>2026-04-04T11:32:41.522Z</time></trkpt><trkpt lat="44.6130422" lon="8.464322"><ele>449.59999999999997</ele><time>2026-04-04T11:32:42.522Z</time></trkpt><trkpt lat="44.6130981" lon="8.4644104"><ele>451.79999999999995</ele><time>2026-04-04T11:32:43.522Z</time></trkpt><trkpt lat="44.613189" lon="8.4644391"><ele>454.0</ele><time>2026-04-04T11:32:44.521Z</time></trkpt><trkpt lat="44.6132933" lon="8.4644342"><ele>454.0</ele><time>2026-04-04T11:32:45.521Z</time></trkpt><trkpt lat="44.6133995" lon="8.4644185"><ele>454.0</ele><time>2026-04-04T11:32:46.522Z</time></trkpt><trkpt lat="44.613524" lon="8.4643784"><ele>454.0</ele><time>2026-04-04T11:32:47.523Z</time></trkpt><trkpt lat="44.6136632" lon="8.4643707"><ele>454.0</ele><time>2026-04-04T11:32:48.522Z</time></trkpt><trkpt lat="44.6137956" lon="8.4643921"><ele>453.25</ele><time>2026-04-04T11:32:49.522Z</time></trkpt><trkpt lat="44.6139186" lon="8.4644135"><ele>452.5</ele><time>2026-04-04T11:32:50.522Z</time></trkpt><trkpt lat="44.614038" lon="8.4644533"><ele>451.75</ele><time>2026-04-04T11:32:51.522Z</time></trkpt><trkpt lat="44.6141459" lon="8.464522"><ele>451.0</ele><time>2026-04-04T11:32:52.523Z</time></trkpt><trkpt lat="44.6142286" lon="8.4646114"><ele>447.0</ele><time>2026-04-04T11:32:53.522Z</time></trkpt><trkpt lat="44.6143074" lon="8.4647144"><ele>443.0</ele><time>2026-04-04T11:32:54.522Z</time></trkpt><trkpt lat="44.6143983" lon="8.4648092"><ele>439.0</ele><time>2026-04-04T11:32:55.522Z</time></trkpt><trkpt lat="44.6145141" lon="8.4648602"><ele>435.0</ele><time>2026-04-04T11:32:56.522Z</time></trkpt><trkpt lat="44.6146588" lon="8.4648771"><ele>435.0</ele><time>2026-04-04T11:32:57.522Z</time></trkpt><trkpt lat="44.614808" lon="8.4649261"><ele>435.0</ele><time>2026-04-04T11:32:58.522Z</time></trkpt><trkpt lat="44.6149556" lon="8.4649913"><ele>435.0</ele><time>2026-04-04T11:32:59.522Z</time></trkpt><trkpt lat="44.6151072" lon="8.4650534"><ele>435.0</ele><time>2026-04-04T11:33:00.522Z</time></trkpt><trkpt lat="44.6152667" lon="8.4650827"><ele>435.0</ele><time>2026-04-04T11:33:01.521Z</time></trkpt><trkpt lat="44.6154188" lon="8.4650967"><ele>435.0</ele><time>2026-04-04T11:33:02.522Z</time></trkpt><trkpt lat="44.615567" lon="8.4651101"><ele>434.75</ele><time>2026-04-04T11:33:03.522Z</time></trkpt><trkpt lat="44.6157149" lon="8.4651269"><ele>434.5</ele><time>2026-04-04T11:33:04.522Z</time></trkpt><trkpt lat="44.6158616" lon="8.4651484"><ele>434.25</ele><time>2026-04-04T11:33:05.521Z</time></trkpt><trkpt lat="44.6159989" lon="8.4651652"><ele>434.0</ele><time>2026-04-04T11:33:06.522Z</time></trkpt><trkpt lat="44.6161284" lon="8.4651681"><ele>433.0</ele><time>2026-04-04T11:33:07.522Z</time></trkpt><trkpt lat="44.6162524" lon="8.4651404"><ele>432.0</ele><time>2026-04-04T11:33:08.522Z</time></trkpt><trkpt lat="44.616389" lon="8.4650761"><ele>431.0</ele><time>2026-04-04T11:33:09.523Z</time></trkpt><trkpt lat="44.6165214" lon="8.4649686"><ele>430.0</ele><time>2026-04-04T11:33:10.523Z</time></trkpt><trkpt lat="44.6166278" lon="8.4648106"><ele>430.0</ele><time>2026-04-04T11:33:11.523Z</time></trkpt><trkpt lat="44.6167084" lon="8.4646351"><ele>430.0</ele><time>2026-04-04T11:33:12.522Z</time></trkpt><trkpt lat="44.6167758" lon="8.4644378"><ele>430.0</ele><time>2026-04-04T11:33:13.522Z</time></trkpt><trkpt lat="44.6168296" lon="8.4642659"><ele>430.0</ele><time>2026-04-04T11:33:14.522Z</time></trkpt><trkpt lat="44.6168973" lon="8.4641257"><ele>429.0</ele><time>2026-04-04T11:33:15.523Z</time></trkpt><trkpt lat="44.6169944" lon="8.4640125"><ele>428.0</ele><time>2026-04-04T11:33:16.522Z</time></trkpt><trkpt lat="44.6171281" lon="8.463945"><ele>427.0</ele><time>2026-04-04T11:33:17.522Z</time></trkpt><trkpt lat="44.6172833" lon="8.4639167"><ele>426.0</ele><time>2026-04-04T11:33:18.522Z</time></trkpt><trkpt lat="44.6174478" lon="8.4639081"><ele>426.0</ele><time>2026-04-04T11:33:19.522Z</time></trkpt><trkpt lat="44.6176036" lon="8.4639059"><ele>426.0</ele><time>2026-04-04T11:33:20.522Z</time></trkpt><trkpt lat="44.6177586" lon="8.4639054"><ele>426.0</ele><time>2026-04-04T11:33:21.522Z</time></trkpt><trkpt lat="44.6179214" lon="8.4639179"><ele>427.33333333333337</ele><time>2026-04-04T11:33:22.523Z</time></trkpt><trkpt lat="44.6180831" lon="8.4639348"><ele>428.6666666666667</ele><time>2026-04-04T11:33:23.522Z</time></trkpt><trkpt lat="44.6182503" lon="8.4639628"><ele>430.0</ele><time>2026-04-04T11:33:24.521Z</time></trkpt><trkpt lat="44.6184176" lon="8.4639962"><ele>430.0</ele><time>2026-04-04T11:33:25.523Z</time></trkpt><trkpt lat="44.6185867" lon="8.4640276"><ele>430.0</ele><time>2026-04-04T11:33:26.523Z</time></trkpt><trkpt lat="44.6187575" lon="8.4640465"><ele>430.0</ele><time>2026-04-04T11:33:27.523Z</time></trkpt><trkpt lat="44.6189219" lon="8.4640458"><ele>432.75</ele><time>2026-04-04T11:33:28.522Z</time></trkpt><trkpt lat="44.6190795" lon="8.4640218"><ele>435.5</ele><time>2026-04-04T11:33:29.523Z</time></trkpt><trkpt lat="44.6192158" lon="8.4639739"><ele>438.25</ele><time>2026-04-04T11:33:30.523Z</time></trkpt><trkpt lat="44.6193497" lon="8.4639385"><ele>441.0</ele><time>2026-04-04T11:33:31.523Z</time></trkpt><trkpt lat="44.6194797" lon="8.4639436"><ele>440.0</ele><time>2026-04-04T11:33:32.521Z</time></trkpt><trkpt lat="44.6196042" lon="8.4640021"><ele>439.0</ele><time>2026-04-04T11:33:33.523Z</time></trkpt><trkpt lat="44.6197376" lon="8.4641042"><ele>438.0</ele><time>2026-04-04T11:33:34.523Z</time></trkpt><trkpt lat="44.6198626" lon="8.4641994"><ele>437.0</ele><time>2026-04-04T11:33:35.523Z</time></trkpt><trkpt lat="44.6199861" lon="8.4642721"><ele>437.0</ele><time>2026-04-04T11:33:36.523Z</time></trkpt><trkpt lat="44.6201089" lon="8.4643196"><ele>437.0</ele><time>2026-04-04T11:33:37.523Z</time></trkpt><trkpt lat="44.6202254" lon="8.4643224"><ele>437.0</ele><time>2026-04-04T11:33:38.522Z</time></trkpt><trkpt lat="44.6203441" lon="8.464277"><ele>437.0</ele><time>2026-04-04T11:33:39.522Z</time></trkpt><trkpt lat="44.6204673" lon="8.464184"><ele>438.0</ele><time>2026-04-04T11:33:40.523Z</time></trkpt><trkpt lat="44.6205992" lon="8.4640432"><ele>439.0</ele><time>2026-04-04T11:33:41.523Z</time></trkpt><trkpt lat="44.6207343" lon="8.4638971"><ele>440.0</ele><time>2026-04-04T11:33:42.522Z</time></trkpt><trkpt lat="44.6208741" lon="8.4637674"><ele>440.0</ele><time>2026-04-04T11:33:43.523Z</time></trkpt><trkpt lat="44.6210154" lon="8.4636477"><ele>440.0</ele><time>2026-04-04T11:33:44.523Z</time></trkpt><trkpt lat="44.6211584" lon="8.4635295"><ele>440.0</ele><time>2026-04-04T11:33:45.522Z</time></trkpt><trkpt lat="44.6213017" lon="8.4634051"><ele>448.66666666666663</ele><time>2026-04-04T11:33:46.522Z</time></trkpt><trkpt lat="44.6214456" lon="8.4632764"><ele>457.33333333333337</ele><time>2026-04-04T11:33:47.523Z</time></trkpt><trkpt lat="44.6215864" lon="8.4631447"><ele>466.0</ele><time>2026-04-04T11:33:48.523Z</time></trkpt><trkpt lat="44.6217173" lon="8.4630007"><ele>467.0</ele><time>2026-04-04T11:33:49.523Z</time></trkpt><trkpt lat="44.6218373" lon="8.4628417"><ele>468.0</ele><time>2026-04-04T11:33:50.523Z</time></trkpt><trkpt lat="44.6219534" lon="8.4626654"><ele>469.0</ele><time>2026-04-04T11:33:51.523Z</time></trkpt><trkpt lat="44.622064" lon="8.4624918"><ele>469.0</ele><time>2026-04-04T11:33:52.523Z</time></trkpt><trkpt lat="44.6221745" lon="8.4623204"><ele>469.0</ele><time>2026-04-04T11:33:53.524Z</time></trkpt><trkpt lat="44.6222826" lon="8.4621579"><ele>469.0</ele><time>2026-04-04T11:33:54.523Z</time></trkpt><trkpt lat="44.6223881" lon="8.4620022"><ele>464.75</ele><time>2026-04-04T11:33:55.523Z</time></trkpt><trkpt lat="44.6224968" lon="8.461856"><ele>460.5</ele><time>2026-04-04T11:33:56.522Z</time></trkpt><trkpt lat="44.6226078" lon="8.4617156"><ele>456.25</ele><time>2026-04-04T11:33:57.523Z</time></trkpt><trkpt lat="44.6227138" lon="8.461573"><ele>452.0</ele><time>2026-04-04T11:33:58.523Z</time></trkpt><trkpt lat="44.6228051" lon="8.4614217"><ele>454.0</ele><time>2026-04-04T11:33:59.523Z</time></trkpt><trkpt lat="44.6228749" lon="8.4612469"><ele>456.0</ele><time>2026-04-04T11:34:00.523Z</time></trkpt><trkpt lat="44.6229265" lon="8.4610546"><ele>458.0</ele><time>2026-04-04T11:34:01.523Z</time></trkpt><trkpt lat="44.6229662" lon="8.4608603"><ele>460.0</ele><time>2026-04-04T11:34:02.523Z</time></trkpt><trkpt lat="44.6230096" lon="8.460678"><ele>460.0</ele><time>2026-04-04T11:34:03.523Z</time></trkpt><trkpt lat="44.6230719" lon="8.4605248"><ele>460.0</ele><time>2026-04-04T11:34:04.523Z</time></trkpt><trkpt lat="44.6231556" lon="8.4603893"><ele>460.0</ele><time>2026-04-04T11:34:05.523Z</time></trkpt><trkpt lat="44.6232792" lon="8.460294"><ele>460.0</ele><time>2026-04-04T11:34:06.523Z</time></trkpt><trkpt lat="44.6234136" lon="8.4601998"><ele>458.0</ele><time>2026-04-04T11:34:07.522Z</time></trkpt><trkpt lat="44.6235122" lon="8.4600773"><ele>456.0</ele><time>2026-04-04T11:34:08.522Z</time></trkpt><trkpt lat="44.6235885" lon="8.4599519"><ele>454.0</ele><time>2026-04-04T11:34:09.523Z</time></trkpt><trkpt lat="44.6236739" lon="8.4598507"><ele>452.0</ele><time>2026-04-04T11:34:10.523Z</time></trkpt><trkpt lat="44.6237792" lon="8.4597728"><ele>452.0</ele><time>2026-04-04T11:34:11.523Z</time></trkpt><trkpt lat="44.6238984" lon="8.4597486"><ele>452.0</ele><time>2026-04-04T11:34:12.524Z</time></trkpt><trkpt lat="44.6240235" lon="8.4597415"><ele>452.0</ele><time>2026-04-04T11:34:13.524Z</time></trkpt><trkpt lat="44.624151" lon="8.4597409"><ele>452.0</ele><time>2026-04-04T11:34:14.524Z</time></trkpt><trkpt lat="44.624276" lon="8.4597517"><ele>452.0</ele><time>2026-04-04T11:34:15.522Z</time></trkpt><trkpt lat="44.6243941" lon="8.4597915"><ele>452.0</ele><time>2026-04-04T11:34:16.524Z</time></trkpt><trkpt lat="44.6245031" lon="8.4598685"><ele>452.0</ele><time>2026-04-04T11:34:17.524Z</time></trkpt><trkpt lat="44.6246086" lon="8.4599692"><ele>452.0</ele><time>2026-04-04T11:34:18.524Z</time></trkpt><trkpt lat="44.6246987" lon="8.4600405"><ele>453.6</ele><time>2026-04-04T11:34:19.524Z</time></trkpt><trkpt lat="44.6247817" lon="8.4600527"><ele>455.20000000000005</ele><time>2026-04-04T11:34:20.523Z</time></trkpt><trkpt lat="44.6248798" lon="8.4600058"><ele>456.8</ele><time>2026-04-04T11:34:21.522Z</time></trkpt><trkpt lat="44.6249713" lon="8.4599149"><ele>458.4</ele><time>2026-04-04T11:34:22.523Z</time></trkpt><trkpt lat="44.6250681" lon="8.4597987"><ele>460.0</ele><time>2026-04-04T11:34:23.523Z</time></trkpt><trkpt lat="44.6251614" lon="8.4596648"><ele>458.75</ele><time>2026-04-04T11:34:24.523Z</time></trkpt><trkpt lat="44.6252672" lon="8.4595392"><ele>457.5</ele><time>2026-04-04T11:34:25.523Z</time></trkpt><trkpt lat="44.625383" lon="8.4594262"><ele>456.25</ele><time>2026-04-04T11:34:26.522Z</time></trkpt><trkpt lat="44.625506" lon="8.4593533"><ele>455.0</ele><time>2026-04-04T11:34:27.524Z</time></trkpt><trkpt lat="44.6256216" lon="8.459312"><ele>455.0</ele><time>2026-04-04T11:34:28.524Z</time></trkpt><trkpt lat="44.6257332" lon="8.4593048"><ele>455.0</ele><time>2026-04-04T11:34:29.524Z</time></trkpt><trkpt lat="44.6258478" lon="8.4592848"><ele>455.0</ele><time>2026-04-04T11:34:30.524Z</time></trkpt><trkpt lat="44.6259632" lon="8.4592261"><ele>455.0</ele><time>2026-04-04T11:34:31.524Z</time></trkpt><trkpt lat="44.6260681" lon="8.4591058"><ele>454.25</ele><time>2026-04-04T11:34:32.524Z</time></trkpt><trkpt lat="44.6261562" lon="8.4589193"><ele>453.5</ele><time>2026-04-04T11:34:33.524Z</time></trkpt><trkpt lat="44.626248" lon="8.4587693"><ele>452.75</ele><time>2026-04-04T11:34:34.523Z</time></trkpt><trkpt lat="44.6263608" lon="8.4586437"><ele>452.0</ele><time>2026-04-04T11:34:35.524Z</time></trkpt><trkpt lat="44.6265039" lon="8.4585608"><ele>452.0</ele><time>2026-04-04T11:34:36.524Z</time></trkpt><trkpt lat="44.6266483" lon="8.4584821"><ele>452.0</ele><time>2026-04-04T11:34:37.524Z</time></trkpt><trkpt lat="44.6267779" lon="8.4584183"><ele>452.0</ele><time>2026-04-04T11:34:38.524Z</time></trkpt><trkpt lat="44.6269049" lon="8.4583837"><ele>452.0</ele><time>2026-04-04T11:34:39.523Z</time></trkpt><trkpt lat="44.6270319" lon="8.4583813"><ele>454.25</ele><time>2026-04-04T11:34:40.524Z</time></trkpt><trkpt lat="44.6271715" lon="8.4583828"><ele>456.5</ele><time>2026-04-04T11:34:41.523Z</time></trkpt><trkpt lat="44.6273106" lon="8.4583621"><ele>458.75</ele><time>2026-04-04T11:34:42.523Z</time></trkpt><trkpt lat="44.627453" lon="8.4582961"><ele>461.0</ele><time>2026-04-04T11:34:43.523Z</time></trkpt><trkpt lat="44.6275886" lon="8.4581779"><ele>461.0</ele><time>2026-04-04T11:34:44.524Z</time></trkpt><trkpt lat="44.6277214" lon="8.4580496"><ele>461.0</ele><time>2026-04-04T11:34:45.523Z</time></trkpt><trkpt lat="44.6278464" lon="8.457921"><ele>461.0</ele><time>2026-04-04T11:34:46.524Z</time></trkpt><trkpt lat="44.6279699" lon="8.4578013"><ele>461.0</ele><time>2026-04-04T11:34:47.522Z</time></trkpt><trkpt lat="44.6280944" lon="8.4576889"><ele>461.0</ele><time>2026-04-04T11:34:48.524Z</time></trkpt><trkpt lat="44.6282213" lon="8.4575766"><ele>461.0</ele><time>2026-04-04T11:34:49.524Z</time></trkpt><trkpt lat="44.6283446" lon="8.4574553"><ele>461.0</ele><time>2026-04-04T11:34:50.524Z</time></trkpt><trkpt lat="44.6284627" lon="8.4573182"><ele>461.0</ele><time>2026-04-04T11:34:51.524Z</time></trkpt><trkpt lat="44.6285757" lon="8.4571616"><ele>461.0</ele><time>2026-04-04T11:34:52.524Z</time></trkpt><trkpt lat="44.6286854" lon="8.4569942"><ele>461.0</ele><time>2026-04-04T11:34:53.523Z</time></trkpt><trkpt lat="44.6287937" lon="8.4568279"><ele>460.25</ele><time>2026-04-04T11:34:54.524Z</time></trkpt><trkpt lat="44.628902" lon="8.4566723"><ele>459.5</ele><time>2026-04-04T11:34:55.524Z</time></trkpt><trkpt lat="44.6290107" lon="8.4565291"><ele>458.75</ele><time>2026-04-04T11:34:56.524Z</time></trkpt><trkpt lat="44.6291166" lon="8.4563909"><ele>458.0</ele><time>2026-04-04T11:34:57.524Z</time></trkpt><trkpt lat="44.6292195" lon="8.4562555"><ele>460.75</ele><time>2026-04-04T11:34:58.525Z</time></trkpt><trkpt lat="44.6293193" lon="8.4561246"><ele>463.5</ele><time>2026-04-04T11:34:59.524Z</time></trkpt><trkpt lat="44.6294152" lon="8.4560005"><ele>466.25</ele><time>2026-04-04T11:35:00.524Z</time></trkpt><trkpt lat="44.6295147" lon="8.4558908"><ele>469.0</ele><time>2026-04-04T11:35:01.523Z</time></trkpt><trkpt lat="44.6296268" lon="8.4558082"><ele>469.25</ele><time>2026-04-04T11:35:02.524Z</time></trkpt><trkpt lat="44.6297527" lon="8.4557825"><ele>469.5</ele><time>2026-04-04T11:35:03.524Z</time></trkpt><trkpt lat="44.6298908" lon="8.4557912"><ele>469.75</ele><time>2026-04-04T11:35:04.524Z</time></trkpt><trkpt lat="44.6300322" lon="8.4558396"><ele>470.0</ele><time>2026-04-04T11:35:05.524Z</time></trkpt><trkpt lat="44.6301599" lon="8.4559255"><ele>470.0</ele><time>2026-04-04T11:35:06.524Z</time></trkpt><trkpt lat="44.6302809" lon="8.4560277"><ele>470.0</ele><time>2026-04-04T11:35:07.524Z</time></trkpt><trkpt lat="44.6303992" lon="8.4561418"><ele>470.0</ele><time>2026-04-04T11:35:08.524Z</time></trkpt><trkpt lat="44.630503" lon="8.4562442"><ele>470.0</ele><time>2026-04-04T11:35:09.523Z</time></trkpt><trkpt lat="44.6306031" lon="8.4563212"><ele>470.5</ele><time>2026-04-04T11:35:10.523Z</time></trkpt><trkpt lat="44.6307096" lon="8.4563686"><ele>471.0</ele><time>2026-04-04T11:35:11.524Z</time></trkpt><trkpt lat="44.6308306" lon="8.4563699"><ele>471.5</ele><time>2026-04-04T11:35:12.523Z</time></trkpt><trkpt lat="44.6309677" lon="8.4563189"><ele>472.0</ele><time>2026-04-04T11:35:13.523Z</time></trkpt><trkpt lat="44.6311163" lon="8.4562276"><ele>468.6666666666667</ele><time>2026-04-04T11:35:14.524Z</time></trkpt><trkpt lat="44.6312487" lon="8.4561279"><ele>465.33333333333337</ele><time>2026-04-04T11:35:15.524Z</time></trkpt><trkpt lat="44.6313808" lon="8.4560139"><ele>462.0</ele><time>2026-04-04T11:35:16.524Z</time></trkpt><trkpt lat="44.6315038" lon="8.4558775"><ele>462.0</ele><time>2026-04-04T11:35:17.524Z</time></trkpt><trkpt lat="44.631613" lon="8.4557291"><ele>462.0</ele><time>2026-04-04T11:35:18.523Z</time></trkpt><trkpt lat="44.6317166" lon="8.4555933"><ele>462.0</ele><time>2026-04-04T11:35:19.524Z</time></trkpt><trkpt lat="44.6318215" lon="8.4554791"><ele>462.0</ele><time>2026-04-04T11:35:20.524Z</time></trkpt><trkpt lat="44.6319317" lon="8.4553978"><ele>461.5</ele><time>2026-04-04T11:35:21.524Z</time></trkpt><trkpt lat="44.6320549" lon="8.4553557"><ele>461.0</ele><time>2026-04-04T11:35:22.525Z</time></trkpt><trkpt lat="44.6321985" lon="8.4553781"><ele>460.5</ele><time>2026-04-04T11:35:23.524Z</time></trkpt><trkpt lat="44.6323479" lon="8.4554463"><ele>460.0</ele><time>2026-04-04T11:35:24.524Z</time></trkpt><trkpt lat="44.6324839" lon="8.4555491"><ele>460.0</ele><time>2026-04-04T11:35:25.524Z</time></trkpt><trkpt lat="44.6326088" lon="8.4556682"><ele>460.0</ele><time>2026-04-04T11:35:26.524Z</time></trkpt><trkpt lat="44.6327272" lon="8.4558026"><ele>460.0</ele><time>2026-04-04T11:35:27.524Z</time></trkpt><trkpt lat="44.6328339" lon="8.4559463"><ele>460.25</ele><time>2026-04-04T11:35:28.524Z</time></trkpt><trkpt lat="44.6329396" lon="8.4560938"><ele>460.5</ele><time>2026-04-04T11:35:29.524Z</time></trkpt><trkpt lat="44.6330477" lon="8.4562374"><ele>460.75</ele><time>2026-04-04T11:35:30.524Z</time></trkpt><trkpt lat="44.6331595" lon="8.4563754"><ele>461.0</ele><time>2026-04-04T11:35:31.524Z</time></trkpt><trkpt lat="44.6332689" lon="8.4565106"><ele>461.0</ele><time>2026-04-04T11:35:32.523Z</time></trkpt><trkpt lat="44.6333759" lon="8.456644"><ele>461.0</ele><time>2026-04-04T11:35:33.525Z</time></trkpt><trkpt lat="44.6334823" lon="8.4567771"><ele>461.0</ele><time>2026-04-04T11:35:34.525Z</time></trkpt><trkpt lat="44.6335931" lon="8.4569099"><ele>461.0</ele><time>2026-04-04T11:35:35.524Z</time></trkpt><trkpt lat="44.6337086" lon="8.4570409"><ele>460.5</ele><time>2026-04-04T11:35:36.524Z</time></trkpt><trkpt lat="44.6338263" lon="8.4571562"><ele>460.0</ele><time>2026-04-04T11:35:37.525Z</time></trkpt><trkpt lat="44.6339458" lon="8.4572494"><ele>459.5</ele><time>2026-04-04T11:35:38.525Z</time></trkpt><trkpt lat="44.6340668" lon="8.457327"><ele>459.0</ele><time>2026-04-04T11:35:39.525Z</time></trkpt><trkpt lat="44.6341844" lon="8.4573955"><ele>459.0</ele><time>2026-04-04T11:35:40.525Z</time></trkpt><trkpt lat="44.634295" lon="8.4574574"><ele>459.0</ele><time>2026-04-04T11:35:41.525Z</time></trkpt><trkpt lat="44.6343927" lon="8.457505"><ele>459.0</ele><time>2026-04-04T11:35:42.525Z</time></trkpt><trkpt lat="44.6344826" lon="8.4575238"><ele>459.0</ele><time>2026-04-04T11:35:43.524Z</time></trkpt><trkpt lat="44.6345693" lon="8.4575085"><ele>459.0</ele><time>2026-04-04T11:35:44.524Z</time></trkpt><trkpt lat="44.6346614" lon="8.4574694"><ele>457.6</ele><time>2026-04-04T11:35:45.524Z</time></trkpt><trkpt lat="44.6347351" lon="8.4573833"><ele>456.2</ele><time>2026-04-04T11:35:46.523Z</time></trkpt><trkpt lat="44.6347857" lon="8.4572639"><ele>454.80000000000007</ele><time>2026-04-04T11:35:47.524Z</time></trkpt><trkpt lat="44.6348021" lon="8.4571203"><ele>453.40000000000003</ele><time>2026-04-04T11:35:48.525Z</time></trkpt><trkpt lat="44.634817" lon="8.4569447"><ele>452.0</ele><time>2026-04-04T11:35:49.523Z</time></trkpt><trkpt lat="44.6348273" lon="8.4567739"><ele>452.0</ele><time>2026-04-04T11:35:50.525Z</time></trkpt><trkpt lat="44.6348477" lon="8.4565977"><ele>452.0</ele><time>2026-04-04T11:35:51.525Z</time></trkpt><trkpt lat="44.6348637" lon="8.456411"><ele>452.0</ele><time>2026-04-04T11:35:52.525Z</time></trkpt><trkpt lat="44.6348798" lon="8.4562105"><ele>452.0</ele><time>2026-04-04T11:35:53.525Z</time></trkpt><trkpt lat="44.6348959" lon="8.4560026"><ele>452.0</ele><time>2026-04-04T11:35:54.525Z</time></trkpt><trkpt lat="44.6349139" lon="8.4557893"><ele>452.0</ele><time>2026-04-04T11:35:55.525Z</time></trkpt><trkpt lat="44.6349398" lon="8.4555891"><ele>452.0</ele><time>2026-04-04T11:35:56.525Z</time></trkpt><trkpt lat="44.6349677" lon="8.4553862"><ele>452.0</ele><time>2026-04-04T11:35:57.525Z</time></trkpt><trkpt lat="44.6349936" lon="8.4551916"><ele>451.75</ele><time>2026-04-04T11:35:58.525Z</time></trkpt><trkpt lat="44.6350187" lon="8.4549992"><ele>451.5</ele><time>2026-04-04T11:35:59.525Z</time></trkpt><trkpt lat="44.6350452" lon="8.4548107"><ele>451.25</ele><time>2026-04-04T11:36:00.525Z</time></trkpt><trkpt lat="44.6350736" lon="8.4546224"><ele>451.0</ele><time>2026-04-04T11:36:01.525Z</time></trkpt><trkpt lat="44.6351057" lon="8.4544309"><ele>450.75</ele><time>2026-04-04T11:36:02.525Z</time></trkpt><trkpt lat="44.6351428" lon="8.4542373"><ele>450.5</ele><time>2026-04-04T11:36:03.524Z</time></trkpt><trkpt lat="44.6351844" lon="8.4540375"><ele>450.25</ele><time>2026-04-04T11:36:04.525Z</time></trkpt><trkpt lat="44.6352293" lon="8.4538383"><ele>450.0</ele><time>2026-04-04T11:36:05.525Z</time></trkpt><trkpt lat="44.6352777" lon="8.4536374"><ele>442.66666666666663</ele><time>2026-04-04T11:36:06.524Z</time></trkpt><trkpt lat="44.6353298" lon="8.4534382"><ele>435.3333333333333</ele><time>2026-04-04T11:36:07.525Z</time></trkpt><trkpt lat="44.635383" lon="8.4532395"><ele>428.0</ele><time>2026-04-04T11:36:08.525Z</time></trkpt><trkpt lat="44.6354396" lon="8.4530446"><ele>429.75</ele><time>2026-04-04T11:36:09.525Z</time></trkpt><trkpt lat="44.6354975" lon="8.4528553"><ele>431.5</ele><time>2026-04-04T11:36:10.525Z</time></trkpt><trkpt lat="44.6355595" lon="8.4526805"><ele>433.25</ele><time>2026-04-04T11:36:11.525Z</time></trkpt><trkpt lat="44.6356253" lon="8.4525176"><ele>435.0</ele><time>2026-04-04T11:36:12.525Z</time></trkpt><trkpt lat="44.6356942" lon="8.4523591"><ele>435.0</ele><time>2026-04-04T11:36:13.525Z</time></trkpt><trkpt lat="44.6357859" lon="8.4522128"><ele>435.0</ele><time>2026-04-04T11:36:14.525Z</time></trkpt><trkpt lat="44.6359026" lon="8.4520957"><ele>435.0</ele><time>2026-04-04T11:36:15.524Z</time></trkpt><trkpt lat="44.6360376" lon="8.4520153"><ele>435.0</ele><time>2026-04-04T11:36:16.524Z</time></trkpt><trkpt lat="44.6361882" lon="8.451974"><ele>435.75</ele><time>2026-04-04T11:36:17.525Z</time></trkpt><trkpt lat="44.6363314" lon="8.4519698"><ele>436.5</ele><time>2026-04-04T11:36:18.525Z</time></trkpt><trkpt lat="44.6364581" lon="8.4520053"><ele>437.25</ele><time>2026-04-04T11:36:19.525Z</time></trkpt><trkpt lat="44.6365697" lon="8.4520484"><ele>438.0</ele><time>2026-04-04T11:36:20.524Z</time></trkpt><trkpt lat="44.6366681" lon="8.4521076"><ele>434.75</ele><time>2026-04-04T11:36:21.525Z</time></trkpt><trkpt lat="44.6367599" lon="8.4521497"><ele>431.5</ele><time>2026-04-04T11:36:22.525Z</time></trkpt><trkpt lat="44.6368635" lon="8.4521415"><ele>428.25</ele><time>2026-04-04T11:36:23.524Z</time></trkpt><trkpt lat="44.6369777" lon="8.4520704"><ele>425.0</ele><time>2026-04-04T11:36:24.525Z</time></trkpt><trkpt lat="44.6370802" lon="8.4519563"><ele>425.0</ele><time>2026-04-04T11:36:25.525Z</time></trkpt><trkpt lat="44.6371659" lon="8.4518244"><ele>425.0</ele><time>2026-04-04T11:36:26.525Z</time></trkpt><trkpt lat="44.6372532" lon="8.4516954"><ele>425.0</ele><time>2026-04-04T11:36:27.525Z</time></trkpt><trkpt lat="44.6373398" lon="8.4515832"><ele>425.0</ele><time>2026-04-04T11:36:28.525Z</time></trkpt><trkpt lat="44.6374299" lon="8.4514847"><ele>425.0</ele><time>2026-04-04T11:36:29.525Z</time></trkpt><trkpt lat="44.6375288" lon="8.4514099"><ele>425.0</ele><time>2026-04-04T11:36:30.525Z</time></trkpt><trkpt lat="44.6376336" lon="8.4513598"><ele>425.0</ele><time>2026-04-04T11:36:31.526Z</time></trkpt><trkpt lat="44.6377485" lon="8.4513702"><ele>425.0</ele><time>2026-04-04T11:36:32.525Z</time></trkpt><trkpt lat="44.6378655" lon="8.4514302"><ele>422.4</ele><time>2026-04-04T11:36:33.526Z</time></trkpt><trkpt lat="44.6379724" lon="8.4515004"><ele>419.8</ele><time>2026-04-04T11:36:34.525Z</time></trkpt><trkpt lat="44.6380621" lon="8.4515274"><ele>417.20000000000005</ele><time>2026-04-04T11:36:35.525Z</time></trkpt><trkpt lat="44.6381613" lon="8.4514933"><ele>414.6</ele><time>2026-04-04T11:36:36.526Z</time></trkpt><trkpt lat="44.6382576" lon="8.4514348"><ele>412.0</ele><time>2026-04-04T11:36:37.526Z</time></trkpt><trkpt lat="44.6383541" lon="8.4513692"><ele>412.0</ele><time>2026-04-04T11:36:38.525Z</time></trkpt><trkpt lat="44.6384579" lon="8.4513297"><ele>412.0</ele><time>2026-04-04T11:36:39.526Z</time></trkpt><trkpt lat="44.638568" lon="8.4513341"><ele>412.0</ele><time>2026-04-04T11:36:40.525Z</time></trkpt><trkpt lat="44.6386779" lon="8.4513538"><ele>412.0</ele><time>2026-04-04T11:36:41.526Z</time></trkpt><trkpt lat="44.6387795" lon="8.4513554"><ele>412.0</ele><time>2026-04-04T11:36:42.526Z</time></trkpt><trkpt lat="44.6388846" lon="8.4513219"><ele>412.75</ele><time>2026-04-04T11:36:43.526Z</time></trkpt><trkpt lat="44.6389973" lon="8.4512618"><ele>413.5</ele><time>2026-04-04T11:36:44.526Z</time></trkpt><trkpt lat="44.639114" lon="8.4511918"><ele>414.25</ele><time>2026-04-04T11:36:45.525Z</time></trkpt><trkpt lat="44.6392222" lon="8.4511217"><ele>415.0</ele><time>2026-04-04T11:36:46.525Z</time></trkpt><trkpt lat="44.6393215" lon="8.4510633"><ele>415.0</ele><time>2026-04-04T11:36:47.525Z</time></trkpt><trkpt lat="44.6394101" lon="8.4510199"><ele>415.0</ele><time>2026-04-04T11:36:48.526Z</time></trkpt><trkpt lat="44.6395064" lon="8.4510189"><ele>415.0</ele><time>2026-04-04T11:36:49.526Z</time></trkpt><trkpt lat="44.639605" lon="8.4510693"><ele>415.0</ele><time>2026-04-04T11:36:50.525Z</time></trkpt><trkpt lat="44.639704" lon="8.4511791"><ele>415.0</ele><time>2026-04-04T11:36:51.526Z</time></trkpt><trkpt lat="44.6397941" lon="8.4513106"><ele>412.0</ele><time>2026-04-04T11:36:52.525Z</time></trkpt><trkpt lat="44.6398771" lon="8.4514513"><ele>409.0</ele><time>2026-04-04T11:36:53.525Z</time></trkpt><trkpt lat="44.6399533" lon="8.4515865"><ele>406.0</ele><time>2026-04-04T11:36:54.525Z</time></trkpt><trkpt lat="44.6400274" lon="8.4517078"><ele>403.0</ele><time>2026-04-04T11:36:55.525Z</time></trkpt><trkpt lat="44.6401009" lon="8.4518131"><ele>403.0</ele><time>2026-04-04T11:36:56.526Z</time></trkpt><trkpt lat="44.640175" lon="8.4519079"><ele>403.0</ele><time>2026-04-04T11:36:57.526Z</time></trkpt><trkpt lat="44.6402532" lon="8.4519952"><ele>403.0</ele><time>2026-04-04T11:36:58.525Z</time></trkpt><trkpt lat="44.6403286" lon="8.4520706"><ele>403.0</ele><time>2026-04-04T11:36:59.526Z</time></trkpt><trkpt lat="44.6404062" lon="8.4521296"><ele>403.0</ele><time>2026-04-04T11:37:00.526Z</time></trkpt><trkpt lat="44.6404907" lon="8.4521652"><ele>404.0</ele><time>2026-04-04T11:37:01.526Z</time></trkpt><trkpt lat="44.6405829" lon="8.4521769"><ele>405.0</ele><time>2026-04-04T11:37:02.526Z</time></trkpt><trkpt lat="44.6406923" lon="8.4521568"><ele>406.0</ele><time>2026-04-04T11:37:03.526Z</time></trkpt><trkpt lat="44.6408098" lon="8.4520913"><ele>407.0</ele><time>2026-04-04T11:37:04.526Z</time></trkpt><trkpt lat="44.6409185" lon="8.4520087"><ele>407.0</ele><time>2026-04-04T11:37:05.526Z</time></trkpt><trkpt lat="44.6410397" lon="8.4519317"><ele>407.0</ele><time>2026-04-04T11:37:06.525Z</time></trkpt><trkpt lat="44.6411666" lon="8.4518837"><ele>407.0</ele><time>2026-04-04T11:37:07.526Z</time></trkpt><trkpt lat="44.6412954" lon="8.4518695"><ele>407.0</ele><time>2026-04-04T11:37:08.526Z</time></trkpt><trkpt lat="44.6414135" lon="8.4518645"><ele>404.20000000000005</ele><time>2026-04-04T11:37:09.526Z</time></trkpt><trkpt lat="44.6415298" lon="8.4518368"><ele>401.4</ele><time>2026-04-04T11:37:10.525Z</time></trkpt><trkpt lat="44.6416375" lon="8.4517869"><ele>398.6</ele><time>2026-04-04T11:37:11.526Z</time></trkpt><trkpt lat="44.6417382" lon="8.451721"><ele>395.79999999999995</ele><time>2026-04-04T11:37:12.525Z</time></trkpt><trkpt lat="44.6418321" lon="8.4516532"><ele>393.0</ele><time>2026-04-04T11:37:13.526Z</time></trkpt><trkpt lat="44.6419323" lon="8.4515982"><ele>391.75</ele><time>2026-04-04T11:37:14.526Z</time></trkpt><trkpt lat="44.6420543" lon="8.4515677"><ele>390.5</ele><time>2026-04-04T11:37:15.526Z</time></trkpt><trkpt lat="44.6421799" lon="8.4515733"><ele>389.25</ele><time>2026-04-04T11:37:16.526Z</time></trkpt><trkpt lat="44.6423053" lon="8.4516268"><ele>388.0</ele><time>2026-04-04T11:37:17.526Z</time></trkpt><trkpt lat="44.6424193" lon="8.4517446"><ele>388.0</ele><time>2026-04-04T11:37:18.526Z</time></trkpt><trkpt lat="44.6425315" lon="8.4518939"><ele>388.0</ele><time>2026-04-04T11:37:19.526Z</time></trkpt><trkpt lat="44.6426315" lon="8.4520405"><ele>388.0</ele><time>2026-04-04T11:37:20.525Z</time></trkpt><trkpt lat="44.6427319" lon="8.4521731"><ele>388.0</ele><time>2026-04-04T11:37:21.526Z</time></trkpt><trkpt lat="44.6428311" lon="8.4522897"><ele>386.5</ele><time>2026-04-04T11:37:22.525Z</time></trkpt><trkpt lat="44.6429254" lon="8.4523938"><ele>385.0</ele><time>2026-04-04T11:37:23.526Z</time></trkpt><trkpt lat="44.6430176" lon="8.4525016"><ele>383.5</ele><time>2026-04-04T11:37:24.526Z</time></trkpt><trkpt lat="44.6431112" lon="8.4526166"><ele>382.0</ele><time>2026-04-04T11:37:25.526Z</time></trkpt><trkpt lat="44.6431994" lon="8.452748"><ele>382.0</ele><time>2026-04-04T11:37:26.526Z</time></trkpt><trkpt lat="44.6432759" lon="8.4528921"><ele>382.0</ele><time>2026-04-04T11:37:27.526Z</time></trkpt><trkpt lat="44.6433383" lon="8.4530513"><ele>382.0</ele><time>2026-04-04T11:37:28.526Z</time></trkpt><trkpt lat="44.6434127" lon="8.4532012"><ele>382.0</ele><time>2026-04-04T11:37:29.526Z</time></trkpt><trkpt lat="44.6434974" lon="8.4533273"><ele>378.40000000000003</ele><time>2026-04-04T11:37:30.525Z</time></trkpt><trkpt lat="44.6435869" lon="8.4534321"><ele>374.8</ele><time>2026-04-04T11:37:31.526Z</time></trkpt><trkpt lat="44.6436673" lon="8.4535068"><ele>371.2</ele><time>2026-04-04T11:37:32.526Z</time></trkpt><trkpt lat="44.6437417" lon="8.4535655"><ele>367.6</ele><time>2026-04-04T11:37:33.527Z</time></trkpt><trkpt lat="44.6438137" lon="8.4535958"><ele>364.0</ele><time>2026-04-04T11:37:34.526Z</time></trkpt><trkpt lat="44.6438924" lon="8.4535819"><ele>362.75</ele><time>2026-04-04T11:37:35.526Z</time></trkpt><trkpt lat="44.6439875" lon="8.4535165"><ele>361.5</ele><time>2026-04-04T11:37:36.527Z</time></trkpt><trkpt lat="44.6440801" lon="8.4533935"><ele>360.25</ele><time>2026-04-04T11:37:37.526Z</time></trkpt><trkpt lat="44.6441552" lon="8.4532624"><ele>359.0</ele><time>2026-04-04T11:37:38.527Z</time></trkpt><trkpt lat="44.6442134" lon="8.4531373"><ele>359.0</ele><time>2026-04-04T11:37:39.527Z</time></trkpt><trkpt lat="44.6442612" lon="8.4530171"><ele>359.0</ele><time>2026-04-04T11:37:40.526Z</time></trkpt><trkpt lat="44.6443111" lon="8.4529108"><ele>359.0</ele><time>2026-04-04T11:37:41.527Z</time></trkpt><trkpt lat="44.6443753" lon="8.4528275"><ele>359.0</ele><time>2026-04-04T11:37:42.527Z</time></trkpt><trkpt lat="44.6444686" lon="8.4527878"><ele>359.0</ele><time>2026-04-04T11:37:43.527Z</time></trkpt><trkpt lat="44.6445808" lon="8.4527885"><ele>359.25</ele><time>2026-04-04T11:37:44.527Z</time></trkpt><trkpt lat="44.644708" lon="8.4528242"><ele>359.5</ele><time>2026-04-04T11:37:45.526Z</time></trkpt><trkpt lat="44.6448275" lon="8.4529117"><ele>359.75</ele><time>2026-04-04T11:37:46.527Z</time></trkpt><trkpt lat="44.644916" lon="8.4530061"><ele>360.0</ele><time>2026-04-04T11:37:47.526Z</time></trkpt><trkpt lat="44.6450009" lon="8.4531192"><ele>360.0</ele><time>2026-04-04T11:37:48.526Z</time></trkpt><trkpt lat="44.6450698" lon="8.4532335"><ele>360.0</ele><time>2026-04-04T11:37:49.526Z</time></trkpt><trkpt lat="44.6451382" lon="8.4533523"><ele>360.0</ele><time>2026-04-04T11:37:50.527Z</time></trkpt><trkpt lat="44.6452026" lon="8.4534724"><ele>360.0</ele><time>2026-04-04T11:37:51.527Z</time></trkpt><trkpt lat="44.6452559" lon="8.4535972"><ele>360.0</ele><time>2026-04-04T11:37:52.527Z</time></trkpt><trkpt lat="44.6452922" lon="8.4537253"><ele>361.0</ele><time>2026-04-04T11:37:53.526Z</time></trkpt><trkpt lat="44.6453197" lon="8.4538662"><ele>362.0</ele><time>2026-04-04T11:37:54.527Z</time></trkpt><trkpt lat="44.6453497" lon="8.4540172"><ele>363.0</ele><time>2026-04-04T11:37:55.526Z</time></trkpt><trkpt lat="44.6453889" lon="8.4541608"><ele>364.0</ele><time>2026-04-04T11:37:56.526Z</time></trkpt><trkpt lat="44.6454358" lon="8.4542844"><ele>365.0</ele><time>2026-04-04T11:37:57.527Z</time></trkpt><trkpt lat="44.6454849" lon="8.454403"><ele>365.0</ele><time>2026-04-04T11:37:58.527Z</time></trkpt><trkpt lat="44.6455258" lon="8.4545317"><ele>365.0</ele><time>2026-04-04T11:37:59.526Z</time></trkpt><trkpt lat="44.6455654" lon="8.4546635"><ele>365.0</ele><time>2026-04-04T11:38:00.526Z</time></trkpt><trkpt lat="44.6456122" lon="8.4547786"><ele>365.0</ele><time>2026-04-04T11:38:01.527Z</time></trkpt><trkpt lat="44.6456688" lon="8.4548866"><ele>365.0</ele><time>2026-04-04T11:38:02.527Z</time></trkpt><trkpt lat="44.6457251" lon="8.4549792"><ele>362.0</ele><time>2026-04-04T11:38:03.527Z</time></trkpt><trkpt lat="44.6457792" lon="8.4550548"><ele>359.0</ele><time>2026-04-04T11:38:04.526Z</time></trkpt><trkpt lat="44.6458289" lon="8.455129"><ele>356.0</ele><time>2026-04-04T11:38:05.527Z</time></trkpt><trkpt lat="44.6458787" lon="8.4551843"><ele>353.0</ele><time>2026-04-04T11:38:06.527Z</time></trkpt><trkpt lat="44.6460032" lon="8.4551985"><ele>350.0</ele><time>2026-04-04T11:38:08.527Z</time></trkpt><trkpt lat="44.6460852" lon="8.4551173"><ele>347.0</ele><time>2026-04-04T11:38:09.527Z</time></trkpt><trkpt lat="44.646145" lon="8.4550217"><ele>347.0</ele><time>2026-04-04T11:38:10.527Z</time></trkpt><trkpt lat="44.6461992" lon="8.4549315"><ele>347.0</ele><time>2026-04-04T11:38:11.526Z</time></trkpt><trkpt lat="44.6462624" lon="8.454855"><ele>347.0</ele><time>2026-04-04T11:38:12.527Z</time></trkpt><trkpt lat="44.6463352" lon="8.4548315"><ele>347.0</ele><time>2026-04-04T11:38:13.527Z</time></trkpt><trkpt lat="44.646423" lon="8.4548646"><ele>347.0</ele><time>2026-04-04T11:38:14.527Z</time></trkpt><trkpt lat="44.6465145" lon="8.4549331"><ele>347.0</ele><time>2026-04-04T11:38:15.528Z</time></trkpt><trkpt lat="44.6465941" lon="8.4550074"><ele>347.0</ele><time>2026-04-04T11:38:16.527Z</time></trkpt><trkpt lat="44.6466811" lon="8.4550638"><ele>347.0</ele><time>2026-04-04T11:38:17.527Z</time></trkpt><trkpt lat="44.6467884" lon="8.455091"><ele>347.0</ele><time>2026-04-04T11:38:18.527Z</time></trkpt><trkpt lat="44.6468973" lon="8.4550961"><ele>347.0</ele><time>2026-04-04T11:38:19.527Z</time></trkpt><trkpt lat="44.6470087" lon="8.4550938"><ele>347.0</ele><time>2026-04-04T11:38:20.528Z</time></trkpt><trkpt lat="44.6471205" lon="8.4550916"><ele>346.20000000000005</ele><time>2026-04-04T11:38:21.527Z</time></trkpt><trkpt lat="44.6472274" lon="8.4550921"><ele>345.4</ele><time>2026-04-04T11:38:22.528Z</time></trkpt><trkpt lat="44.6473338" lon="8.4550988"><ele>344.6</ele><time>2026-04-04T11:38:23.527Z</time></trkpt><trkpt lat="44.6474413" lon="8.4551074"><ele>343.79999999999995</ele><time>2026-04-04T11:38:24.528Z</time></trkpt><trkpt lat="44.647553" lon="8.4551176"><ele>343.0</ele><time>2026-04-04T11:38:25.528Z</time></trkpt><trkpt lat="44.6476705" lon="8.455117"><ele>343.0</ele><time>2026-04-04T11:38:26.527Z</time></trkpt><trkpt lat="44.647785" lon="8.4551027"><ele>343.0</ele><time>2026-04-04T11:38:27.527Z</time></trkpt><trkpt lat="44.6478981" lon="8.4550863"><ele>343.0</ele><time>2026-04-04T11:38:28.526Z</time></trkpt><trkpt lat="44.6480064" lon="8.4550652"><ele>343.0</ele><time>2026-04-04T11:38:29.527Z</time></trkpt><trkpt lat="44.6481095" lon="8.4550392"><ele>343.0</ele><time>2026-04-04T11:38:30.527Z</time></trkpt><trkpt lat="44.6482146" lon="8.4550048"><ele>340.0</ele><time>2026-04-04T11:38:31.527Z</time></trkpt><trkpt lat="44.6483196" lon="8.4549637"><ele>337.0</ele><time>2026-04-04T11:38:32.527Z</time></trkpt><trkpt lat="44.6484287" lon="8.4549191"><ele>334.0</ele><time>2026-04-04T11:38:33.527Z</time></trkpt><trkpt lat="44.6485466" lon="8.454862"><ele>331.0</ele><time>2026-04-04T11:38:34.527Z</time></trkpt><trkpt lat="44.6486657" lon="8.4548032"><ele>329.5</ele><time>2026-04-04T11:38:35.527Z</time></trkpt><trkpt lat="44.6487821" lon="8.4547545"><ele>328.0</ele><time>2026-04-04T11:38:36.527Z</time></trkpt><trkpt lat="44.6488937" lon="8.4547232"><ele>326.5</ele><time>2026-04-04T11:38:37.528Z</time></trkpt><trkpt lat="44.6490033" lon="8.4547162"><ele>325.0</ele><time>2026-04-04T11:38:38.528Z</time></trkpt><trkpt lat="44.649118" lon="8.4547374"><ele>325.0</ele><time>2026-04-04T11:38:39.528Z</time></trkpt><trkpt lat="44.649233" lon="8.4547915"><ele>325.0</ele><time>2026-04-04T11:38:40.527Z</time></trkpt><trkpt lat="44.6493379" lon="8.4548673"><ele>325.0</ele><time>2026-04-04T11:38:41.528Z</time></trkpt><trkpt lat="44.6494377" lon="8.4549659"><ele>325.0</ele><time>2026-04-04T11:38:42.528Z</time></trkpt><trkpt lat="44.6495179" lon="8.4550872"><ele>325.6</ele><time>2026-04-04T11:38:43.528Z</time></trkpt><trkpt lat="44.6495622" lon="8.4551928"><ele>326.2</ele><time>2026-04-04T11:38:44.528Z</time></trkpt><trkpt lat="44.6496127" lon="8.4553045"><ele>326.79999999999995</ele><time>2026-04-04T11:38:45.527Z</time></trkpt><trkpt lat="44.6496745" lon="8.4553874"><ele>327.4</ele><time>2026-04-04T11:38:46.528Z</time></trkpt><trkpt lat="44.6497545" lon="8.455429"><ele>328.0</ele><time>2026-04-04T11:38:47.528Z</time></trkpt><trkpt lat="44.6498551" lon="8.4554347"><ele>328.0</ele><time>2026-04-04T11:38:48.527Z</time></trkpt><trkpt lat="44.6499632" lon="8.4554256"><ele>328.0</ele><time>2026-04-04T11:38:49.527Z</time></trkpt><trkpt lat="44.6500683" lon="8.4554388"><ele>328.0</ele><time>2026-04-04T11:38:50.527Z</time></trkpt><trkpt lat="44.6501617" lon="8.4554871"><ele>328.0</ele><time>2026-04-04T11:38:51.528Z</time></trkpt><trkpt lat="44.6502463" lon="8.4555662"><ele>328.0</ele><time>2026-04-04T11:38:52.527Z</time></trkpt><trkpt lat="44.6503208" lon="8.4556518"><ele>322.79999999999995</ele><time>2026-04-04T11:38:53.528Z</time></trkpt><trkpt lat="44.650394" lon="8.4557222"><ele>317.59999999999997</ele><time>2026-04-04T11:38:54.528Z</time></trkpt><trkpt lat="44.6504802" lon="8.4557652"><ele>312.4</ele><time>2026-04-04T11:38:55.528Z</time></trkpt><trkpt lat="44.6505839" lon="8.455783"><ele>307.2</ele><time>2026-04-04T11:38:56.527Z</time></trkpt><trkpt lat="44.6507172" lon="8.4557699"><ele>302.0</ele><time>2026-04-04T11:38:57.526Z</time></trkpt><trkpt lat="44.6508778" lon="8.455722"><ele>302.0</ele><time>2026-04-04T11:38:58.528Z</time></trkpt><trkpt lat="44.6510613" lon="8.4556617"><ele>302.0</ele><time>2026-04-04T11:38:59.527Z</time></trkpt><trkpt lat="44.6512501" lon="8.45561"><ele>302.0</ele><time>2026-04-04T11:39:00.528Z</time></trkpt><trkpt lat="44.6514373" lon="8.4555562"><ele>301.6666666666667</ele><time>2026-04-04T11:39:01.528Z</time></trkpt><trkpt lat="44.6516013" lon="8.4555419"><ele>301.3333333333333</ele><time>2026-04-04T11:39:02.528Z</time></trkpt><trkpt lat="44.6517574" lon="8.455591"><ele>301.0</ele><time>2026-04-04T11:39:03.528Z</time></trkpt><trkpt lat="44.6519156" lon="8.4556915"><ele>300.66666666666663</ele><time>2026-04-04T11:39:04.527Z</time></trkpt><trkpt lat="44.652062" lon="8.4558374"><ele>300.3333333333333</ele><time>2026-04-04T11:39:05.528Z</time></trkpt><trkpt lat="44.6522014" lon="8.4559315"><ele>300.0</ele><time>2026-04-04T11:39:06.528Z</time></trkpt><trkpt lat="44.652347" lon="8.4559705"><ele>300.0</ele><time>2026-04-04T11:39:07.528Z</time></trkpt><trkpt lat="44.6524921" lon="8.4559679"><ele>300.0</ele><time>2026-04-04T11:39:08.527Z</time></trkpt><trkpt lat="44.6526514" lon="8.4559195"><ele>300.0</ele><time>2026-04-04T11:39:09.528Z</time></trkpt><trkpt lat="44.6527921" lon="8.4558481"><ele>300.25</ele><time>2026-04-04T11:39:10.527Z</time></trkpt><trkpt lat="44.6529256" lon="8.4558011"><ele>300.5</ele><time>2026-04-04T11:39:11.528Z</time></trkpt><trkpt lat="44.6530671" lon="8.4557783"><ele>300.75</ele><time>2026-04-04T11:39:12.528Z</time></trkpt><trkpt lat="44.6532051" lon="8.4557596"><ele>301.0</ele><time>2026-04-04T11:39:13.528Z</time></trkpt><trkpt lat="44.653345" lon="8.4557146"><ele>301.0</ele><time>2026-04-04T11:39:14.528Z</time></trkpt><trkpt lat="44.6534748" lon="8.4556542"><ele>301.0</ele><time>2026-04-04T11:39:15.528Z</time></trkpt><trkpt lat="44.6535933" lon="8.4555955"><ele>301.0</ele><time>2026-04-04T11:39:16.528Z</time></trkpt><trkpt lat="44.6537062" lon="8.4555403"><ele>301.0</ele><time>2026-04-04T11:39:17.529Z</time></trkpt><trkpt lat="44.6538248" lon="8.4554932"><ele>299.75</ele><time>2026-04-04T11:39:18.528Z</time></trkpt><trkpt lat="44.6539459" lon="8.4554546"><ele>298.5</ele><time>2026-04-04T11:39:19.528Z</time></trkpt><trkpt lat="44.6540681" lon="8.4554358"><ele>297.25</ele><time>2026-04-04T11:39:20.528Z</time></trkpt><trkpt lat="44.6542005" lon="8.4554368"><ele>296.0</ele><time>2026-04-04T11:39:21.528Z</time></trkpt><trkpt lat="44.6543374" lon="8.4554505"><ele>296.25</ele><time>2026-04-04T11:39:22.528Z</time></trkpt><trkpt lat="44.6544664" lon="8.455466"><ele>296.5</ele><time>2026-04-04T11:39:23.528Z</time></trkpt><trkpt lat="44.6545863" lon="8.4554791"><ele>296.75</ele><time>2026-04-04T11:39:24.528Z</time></trkpt><trkpt lat="44.6547031" lon="8.455506"><ele>297.0</ele><time>2026-04-04T11:39:25.528Z</time></trkpt><trkpt lat="44.6548226" lon="8.4555663"><ele>297.0</ele><time>2026-04-04T11:39:26.528Z</time></trkpt><trkpt lat="44.6549498" lon="8.4556877"><ele>297.0</ele><time>2026-04-04T11:39:27.528Z</time></trkpt><trkpt lat="44.6550689" lon="8.4558271"><ele>297.0</ele><time>2026-04-04T11:39:28.527Z</time></trkpt><trkpt lat="44.6551839" lon="8.4559629"><ele>297.0</ele><time>2026-04-04T11:39:29.528Z</time></trkpt><trkpt lat="44.6552815" lon="8.4560715"><ele>297.0</ele><time>2026-04-04T11:39:30.528Z</time></trkpt><trkpt lat="44.6553641" lon="8.4561477"><ele>297.0</ele><time>2026-04-04T11:39:31.529Z</time></trkpt><trkpt lat="44.6554434" lon="8.4561828"><ele>297.0</ele><time>2026-04-04T11:39:32.528Z</time></trkpt><trkpt lat="44.6555171" lon="8.4561741"><ele>297.0</ele><time>2026-04-04T11:39:33.528Z</time></trkpt><trkpt lat="44.6555878" lon="8.4561299"><ele>295.8</ele><time>2026-04-04T11:39:34.528Z</time></trkpt><trkpt lat="44.6556607" lon="8.4560544"><ele>294.6</ele><time>2026-04-04T11:39:35.528Z</time></trkpt><trkpt lat="44.6557272" lon="8.4559471"><ele>293.40000000000003</ele><time>2026-04-04T11:39:36.528Z</time></trkpt><trkpt lat="44.6557852" lon="8.4558369"><ele>292.2</ele><time>2026-04-04T11:39:37.528Z</time></trkpt><trkpt lat="44.655838" lon="8.4557204"><ele>291.0</ele><time>2026-04-04T11:39:38.528Z</time></trkpt><trkpt lat="44.6558882" lon="8.4556048"><ele>291.0</ele><time>2026-04-04T11:39:39.528Z</time></trkpt><trkpt lat="44.6559423" lon="8.4555028"><ele>291.0</ele><time>2026-04-04T11:39:40.528Z</time></trkpt><trkpt lat="44.6559974" lon="8.455401"><ele>291.0</ele><time>2026-04-04T11:39:41.527Z</time></trkpt><trkpt lat="44.6560459" lon="8.455301"><ele>291.0</ele><time>2026-04-04T11:39:42.528Z</time></trkpt><trkpt lat="44.6560787" lon="8.4551997"><ele>291.0</ele><time>2026-04-04T11:39:43.528Z</time></trkpt><trkpt lat="44.6560823" lon="8.4550971"><ele>291.0</ele><time>2026-04-04T11:39:44.528Z</time></trkpt><trkpt lat="44.6560549" lon="8.4549894"><ele>290.5</ele><time>2026-04-04T11:39:45.528Z</time></trkpt><trkpt lat="44.6559918" lon="8.4548902"><ele>290.0</ele><time>2026-04-04T11:39:46.528Z</time></trkpt><trkpt lat="44.6559228" lon="8.4548129"><ele>289.5</ele><time>2026-04-04T11:39:47.529Z</time></trkpt><trkpt lat="44.655875" lon="8.4547315"><ele>289.0</ele><time>2026-04-04T11:39:48.528Z</time></trkpt><trkpt lat="44.6558769" lon="8.4546326"><ele>288.5</ele><time>2026-04-04T11:39:49.528Z</time></trkpt><trkpt lat="44.6559159" lon="8.4545556"><ele>288.0</ele><time>2026-04-04T11:39:50.529Z</time></trkpt><trkpt lat="44.6559795" lon="8.4545218"><ele>285.2</ele><time>2026-04-04T11:39:51.527Z</time></trkpt><trkpt lat="44.6560582" lon="8.4545706"><ele>282.4</ele><time>2026-04-04T11:39:52.528Z</time></trkpt><trkpt lat="44.6561305" lon="8.4546573"><ele>279.59999999999997</ele><time>2026-04-04T11:39:53.528Z</time></trkpt><trkpt lat="44.656173" lon="8.4547828"><ele>276.8</ele><time>2026-04-04T11:39:54.527Z</time></trkpt><trkpt lat="44.6561952" lon="8.4549477"><ele>274.0</ele><time>2026-04-04T11:39:55.527Z</time></trkpt><trkpt lat="44.6562173" lon="8.4551258"><ele>273.2</ele><time>2026-04-04T11:39:56.527Z</time></trkpt><trkpt lat="44.6562424" lon="8.4552984"><ele>272.4</ele><time>2026-04-04T11:39:57.528Z</time></trkpt><trkpt lat="44.6562718" lon="8.4554542"><ele>271.6</ele><time>2026-04-04T11:39:58.528Z</time></trkpt><trkpt lat="44.6562958" lon="8.45559"><ele>270.8</ele><time>2026-04-04T11:39:59.529Z</time></trkpt><trkpt lat="44.6563184" lon="8.4557059"><ele>270.0</ele><time>2026-04-04T11:40:00.529Z</time></trkpt><trkpt lat="44.6563506" lon="8.4558036"><ele>271.6</ele><time>2026-04-04T11:40:01.529Z</time></trkpt><trkpt lat="44.6564021" lon="8.455884"><ele>273.2</ele><time>2026-04-04T11:40:02.528Z</time></trkpt><trkpt lat="44.6564794" lon="8.4559345"><ele>274.8</ele><time>2026-04-04T11:40:03.529Z</time></trkpt><trkpt lat="44.6565986" lon="8.4559419"><ele>276.4</ele><time>2026-04-04T11:40:04.529Z</time></trkpt><trkpt lat="44.6567322" lon="8.4559076"><ele>278.0</ele><time>2026-04-04T11:40:05.529Z</time></trkpt><trkpt lat="44.6568565" lon="8.455857"><ele>276.5</ele><time>2026-04-04T11:40:06.528Z</time></trkpt><trkpt lat="44.6569765" lon="8.455808"><ele>275.0</ele><time>2026-04-04T11:40:07.529Z</time></trkpt><trkpt lat="44.657104" lon="8.4557547"><ele>273.5</ele><time>2026-04-04T11:40:08.529Z</time></trkpt><trkpt lat="44.657226" lon="8.455715"><ele>272.0</ele><time>2026-04-04T11:40:09.529Z</time></trkpt><trkpt lat="44.6573441" lon="8.4556805"><ele>272.0</ele><time>2026-04-04T11:40:10.527Z</time></trkpt><trkpt lat="44.6574485" lon="8.455646"><ele>272.0</ele><time>2026-04-04T11:40:11.528Z</time></trkpt><trkpt lat="44.6575475" lon="8.455601"><ele>272.0</ele><time>2026-04-04T11:40:12.528Z</time></trkpt><trkpt lat="44.6576298" lon="8.455525"><ele>272.0</ele><time>2026-04-04T11:40:13.529Z</time></trkpt><trkpt lat="44.6576954" lon="8.4554257"><ele>272.0</ele><time>2026-04-04T11:40:14.528Z</time></trkpt><trkpt lat="44.6577238" lon="8.455305"><ele>269.8</ele><time>2026-04-04T11:40:15.529Z</time></trkpt><trkpt lat="44.65775" lon="8.4551654"><ele>267.6</ele><time>2026-04-04T11:40:16.529Z</time></trkpt><trkpt lat="44.657807" lon="8.4550587"><ele>265.40000000000003</ele><time>2026-04-04T11:40:17.528Z</time></trkpt><trkpt lat="44.6578839" lon="8.4549772"><ele>263.2</ele><time>2026-04-04T11:40:18.529Z</time></trkpt><trkpt lat="44.6579885" lon="8.4549616"><ele>261.0</ele><time>2026-04-04T11:40:19.529Z</time></trkpt><trkpt lat="44.6581063" lon="8.4549842"><ele>260.75</ele><time>2026-04-04T11:40:20.529Z</time></trkpt><trkpt lat="44.6582328" lon="8.454996"><ele>260.5</ele><time>2026-04-04T11:40:21.529Z</time></trkpt><trkpt lat="44.6583429" lon="8.4549518"><ele>260.25</ele><time>2026-04-04T11:40:22.529Z</time></trkpt><trkpt lat="44.6584337" lon="8.4548757"><ele>260.0</ele><time>2026-04-04T11:40:23.529Z</time></trkpt><trkpt lat="44.6585167" lon="8.454755"><ele>260.0</ele><time>2026-04-04T11:40:24.529Z</time></trkpt><trkpt lat="44.6585891" lon="8.4546254"><ele>260.0</ele><time>2026-04-04T11:40:25.529Z</time></trkpt><trkpt lat="44.6586544" lon="8.4545098"><ele>260.0</ele><time>2026-04-04T11:40:26.529Z</time></trkpt><trkpt lat="44.6587156" lon="8.454396"><ele>260.0</ele><time>2026-04-04T11:40:27.53Z</time></trkpt><trkpt lat="44.6587658" lon="8.4542986"><ele>260.0</ele><time>2026-04-04T11:40:28.529Z</time></trkpt><trkpt lat="44.6588257" lon="8.4542328"><ele>258.83333333333337</ele><time>2026-04-04T11:40:29.529Z</time></trkpt><trkpt lat="44.6588916" lon="8.4542193"><ele>257.6666666666667</ele><time>2026-04-04T11:40:30.529Z</time></trkpt><trkpt lat="44.6589703" lon="8.454272"><ele>256.5</ele><time>2026-04-04T11:40:31.528Z</time></trkpt><trkpt lat="44.6590276" lon="8.4543829"><ele>255.33333333333331</ele><time>2026-04-04T11:40:32.528Z</time></trkpt><trkpt lat="44.6590782" lon="8.4544897"><ele>254.16666666666666</ele><time>2026-04-04T11:40:33.529Z</time></trkpt><trkpt lat="44.6591284" lon="8.45459"><ele>253.0</ele><time>2026-04-04T11:40:34.53Z</time></trkpt><trkpt lat="44.6591933" lon="8.4546629"><ele>252.99999999999997</ele><time>2026-04-04T11:40:35.529Z</time></trkpt><trkpt lat="44.659285" lon="8.4547051"><ele>253.0</ele><time>2026-04-04T11:40:36.529Z</time></trkpt><trkpt lat="44.659376" lon="8.4547281"><ele>253.0</ele><time>2026-04-04T11:40:37.528Z</time></trkpt><trkpt lat="44.6594658" lon="8.4547476"><ele>253.0</ele><time>2026-04-04T11:40:38.529Z</time></trkpt><trkpt lat="44.6595532" lon="8.4547682"><ele>252.99999999999997</ele><time>2026-04-04T11:40:39.529Z</time></trkpt><trkpt lat="44.6596226" lon="8.4548077"><ele>253.0</ele><time>2026-04-04T11:40:40.529Z</time></trkpt><trkpt lat="44.6596838" lon="8.4548767"><ele>251.33333333333331</ele><time>2026-04-04T11:40:41.528Z</time></trkpt><trkpt lat="44.6597242" lon="8.454976"><ele>249.66666666666666</ele><time>2026-04-04T11:40:42.53Z</time></trkpt><trkpt lat="44.6597378" lon="8.4550962"><ele>248.0</ele><time>2026-04-04T11:40:43.529Z</time></trkpt><trkpt lat="44.6597356" lon="8.4552274"><ele>246.33333333333331</ele><time>2026-04-04T11:40:44.529Z</time></trkpt><trkpt lat="44.6597336" lon="8.4553511"><ele>244.66666666666666</ele><time>2026-04-04T11:40:45.529Z</time></trkpt><trkpt lat="44.6597401" lon="8.4554741"><ele>243.0</ele><time>2026-04-04T11:40:46.53Z</time></trkpt><trkpt lat="44.6597638" lon="8.4555856"><ele>243.0</ele><time>2026-04-04T11:40:47.529Z</time></trkpt><trkpt lat="44.6598239" lon="8.4556765"><ele>243.0</ele><time>2026-04-04T11:40:48.53Z</time></trkpt><trkpt lat="44.6599151" lon="8.4557441"><ele>243.0</ele><time>2026-04-04T11:40:49.529Z</time></trkpt><trkpt lat="44.6600183" lon="8.4557894"><ele>243.0</ele><time>2026-04-04T11:40:50.529Z</time></trkpt><trkpt lat="44.6601305" lon="8.455828"><ele>243.0</ele><time>2026-04-04T11:40:51.529Z</time></trkpt><trkpt lat="44.6602449" lon="8.4558856"><ele>239.75</ele><time>2026-04-04T11:40:52.53Z</time></trkpt><trkpt lat="44.6603531" lon="8.4559419"><ele>236.5</ele><time>2026-04-04T11:40:53.53Z</time></trkpt><trkpt lat="44.6604663" lon="8.4559932"><ele>233.25</ele><time>2026-04-04T11:40:54.53Z</time></trkpt><trkpt lat="44.6605779" lon="8.4560384"><ele>230.0</ele><time>2026-04-04T11:40:55.53Z</time></trkpt><trkpt lat="44.6606893" lon="8.4560708"><ele>230.0</ele><time>2026-04-04T11:40:56.529Z</time></trkpt><trkpt lat="44.6608157" lon="8.4560825"><ele>230.0</ele><time>2026-04-04T11:40:57.529Z</time></trkpt><trkpt lat="44.6609505" lon="8.4560734"><ele>230.0</ele><time>2026-04-04T11:40:58.529Z</time></trkpt><trkpt lat="44.6610849" lon="8.456054"><ele>230.0</ele><time>2026-04-04T11:40:59.528Z</time></trkpt><trkpt lat="44.6612078" lon="8.4560465"><ele>226.75</ele><time>2026-04-04T11:41:00.529Z</time></trkpt><trkpt lat="44.661324" lon="8.4560423"><ele>223.5</ele><time>2026-04-04T11:41:01.53Z</time></trkpt><trkpt lat="44.6614477" lon="8.4560381"><ele>220.25</ele><time>2026-04-04T11:41:02.53Z</time></trkpt><trkpt lat="44.6615767" lon="8.456028"><ele>217.0</ele><time>2026-04-04T11:41:03.529Z</time></trkpt><trkpt lat="44.6617051" lon="8.4560221"><ele>217.0</ele><time>2026-04-04T11:41:04.53Z</time></trkpt><trkpt lat="44.66183" lon="8.4560208"><ele>217.0</ele><time>2026-04-04T11:41:05.53Z</time></trkpt><trkpt lat="44.6619511" lon="8.4560351"><ele>217.0</ele><time>2026-04-04T11:41:06.53Z</time></trkpt><trkpt lat="44.6620645" lon="8.4560619"><ele>217.0</ele><time>2026-04-04T11:41:07.53Z</time></trkpt><trkpt lat="44.6621743" lon="8.4560993"><ele>216.39999999999998</ele><time>2026-04-04T11:41:08.53Z</time></trkpt><trkpt lat="44.6622785" lon="8.4561505"><ele>215.79999999999998</ele><time>2026-04-04T11:41:09.53Z</time></trkpt><trkpt lat="44.6623743" lon="8.4562134"><ele>215.2</ele><time>2026-04-04T11:41:10.53Z</time></trkpt><trkpt lat="44.6624607" lon="8.4562833"><ele>214.6</ele><time>2026-04-04T11:41:11.529Z</time></trkpt><trkpt lat="44.6625338" lon="8.4563574"><ele>214.0</ele><time>2026-04-04T11:41:12.53Z</time></trkpt><trkpt lat="44.6625903" lon="8.4564344"><ele>214.0</ele><time>2026-04-04T11:41:13.53Z</time></trkpt><trkpt lat="44.6626312" lon="8.4565336"><ele>213.99999999999997</ele><time>2026-04-04T11:41:14.529Z</time></trkpt><trkpt lat="44.6626525" lon="8.4566438"><ele>213.99999999999997</ele><time>2026-04-04T11:41:15.53Z</time></trkpt><trkpt lat="44.6626554" lon="8.4567685"><ele>214.0</ele><time>2026-04-04T11:41:16.529Z</time></trkpt><trkpt lat="44.6626515" lon="8.4569117"><ele>214.0</ele><time>2026-04-04T11:41:17.53Z</time></trkpt><trkpt lat="44.6626446" lon="8.457063"><ele>213.0</ele><time>2026-04-04T11:41:18.529Z</time></trkpt><trkpt lat="44.6626338" lon="8.4572163"><ele>211.99999999999997</ele><time>2026-04-04T11:41:19.529Z</time></trkpt><trkpt lat="44.6626217" lon="8.4573713"><ele>211.0</ele><time>2026-04-04T11:41:20.53Z</time></trkpt><trkpt lat="44.6626083" lon="8.4575212"><ele>210.0</ele><time>2026-04-04T11:41:21.529Z</time></trkpt><trkpt lat="44.662595" lon="8.4576752"><ele>209.0</ele><time>2026-04-04T11:41:22.53Z</time></trkpt><trkpt lat="44.6625873" lon="8.45783"><ele>209.2</ele><time>2026-04-04T11:41:23.53Z</time></trkpt><trkpt lat="44.66259" lon="8.4579821"><ele>209.39999999999998</ele><time>2026-04-04T11:41:24.53Z</time></trkpt><trkpt lat="44.6626061" lon="8.4581221"><ele>209.6</ele><time>2026-04-04T11:41:25.53Z</time></trkpt><trkpt lat="44.6626445" lon="8.458259"><ele>209.8</ele><time>2026-04-04T11:41:26.529Z</time></trkpt><trkpt lat="44.6626896" lon="8.4583903"><ele>210.0</ele><time>2026-04-04T11:41:27.53Z</time></trkpt><trkpt lat="44.6627371" lon="8.4585165"><ele>210.0</ele><time>2026-04-04T11:41:28.53Z</time></trkpt><trkpt lat="44.6627769" lon="8.458644"><ele>210.0</ele><time>2026-04-04T11:41:29.53Z</time></trkpt><trkpt lat="44.6628033" lon="8.4587845"><ele>210.0</ele><time>2026-04-04T11:41:30.53Z</time></trkpt><trkpt lat="44.6628203" lon="8.4589401"><ele>210.0</ele><time>2026-04-04T11:41:31.53Z</time></trkpt><trkpt lat="44.6628294" lon="8.4590934"><ele>210.0</ele><time>2026-04-04T11:41:32.529Z</time></trkpt><trkpt lat="44.6628331" lon="8.4592443"><ele>205.6</ele><time>2026-04-04T11:41:33.529Z</time></trkpt><trkpt lat="44.6628339" lon="8.4593888"><ele>201.2</ele><time>2026-04-04T11:41:34.531Z</time></trkpt><trkpt lat="44.6628405" lon="8.4595214"><ele>196.8</ele><time>2026-04-04T11:41:35.53Z</time></trkpt><trkpt lat="44.662849" lon="8.45965"><ele>192.4</ele><time>2026-04-04T11:41:36.53Z</time></trkpt><trkpt lat="44.6628573" lon="8.4597787"><ele>188.0</ele><time>2026-04-04T11:41:37.53Z</time></trkpt><trkpt lat="44.6628652" lon="8.4599054"><ele>187.66666666666666</ele><time>2026-04-04T11:41:38.53Z</time></trkpt><trkpt lat="44.6628617" lon="8.4600357"><ele>187.33333333333331</ele><time>2026-04-04T11:41:39.53Z</time></trkpt><trkpt lat="44.6628504" lon="8.4601535"><ele>187.0</ele><time>2026-04-04T11:41:40.53Z</time></trkpt><trkpt lat="44.6628305" lon="8.4602597"><ele>186.66666666666666</ele><time>2026-04-04T11:41:41.53Z</time></trkpt><trkpt lat="44.662812" lon="8.4603586"><ele>186.33333333333334</ele><time>2026-04-04T11:41:42.53Z</time></trkpt><trkpt lat="44.6628004" lon="8.4604565"><ele>186.0</ele><time>2026-04-04T11:41:43.529Z</time></trkpt><trkpt lat="44.6628042" lon="8.4605551"><ele>185.5</ele><time>2026-04-04T11:41:44.53Z</time></trkpt><trkpt lat="44.662826" lon="8.4606541"><ele>185.0</ele><time>2026-04-04T11:41:45.53Z</time></trkpt><trkpt lat="44.6628676" lon="8.4607432"><ele>184.5</ele><time>2026-04-04T11:41:46.529Z</time></trkpt><trkpt lat="44.6629228" lon="8.460833"><ele>184.0</ele><time>2026-04-04T11:41:47.53Z</time></trkpt><trkpt lat="44.6629935" lon="8.4609202"><ele>183.5</ele><time>2026-04-04T11:41:48.53Z</time></trkpt><trkpt lat="44.6630635" lon="8.4610072"><ele>183.0</ele><time>2026-04-04T11:41:49.53Z</time></trkpt><trkpt lat="44.6631288" lon="8.4610951"><ele>183.0</ele><time>2026-04-04T11:41:50.53Z</time></trkpt><trkpt lat="44.6632013" lon="8.4611882"><ele>183.0</ele><time>2026-04-04T11:41:51.53Z</time></trkpt><trkpt lat="44.6632663" lon="8.4612729"><ele>183.0</ele><time>2026-04-04T11:41:52.53Z</time></trkpt><trkpt lat="44.6633305" lon="8.4613531"><ele>183.0</ele><time>2026-04-04T11:41:53.529Z</time></trkpt><trkpt lat="44.6633945" lon="8.4614407"><ele>183.0</ele><time>2026-04-04T11:41:54.529Z</time></trkpt><trkpt lat="44.6634508" lon="8.4615452"><ele>182.60000000000002</ele><time>2026-04-04T11:41:55.53Z</time></trkpt><trkpt lat="44.6634958" lon="8.4616799"><ele>182.20000000000002</ele><time>2026-04-04T11:41:56.53Z</time></trkpt><trkpt lat="44.6635266" lon="8.4618237"><ele>181.8</ele><time>2026-04-04T11:41:57.529Z</time></trkpt><trkpt lat="44.6635314" lon="8.461989"><ele>181.4</ele><time>2026-04-04T11:41:58.531Z</time></trkpt><trkpt lat="44.6635284" lon="8.4621554"><ele>181.0</ele><time>2026-04-04T11:41:59.53Z</time></trkpt><trkpt lat="44.66353" lon="8.46231"><ele>180.0</ele><time>2026-04-04T11:42:00.53Z</time></trkpt><trkpt lat="44.6635383" lon="8.4624547"><ele>179.0</ele><time>2026-04-04T11:42:01.53Z</time></trkpt><trkpt lat="44.6635473" lon="8.4626037"><ele>178.0</ele><time>2026-04-04T11:42:02.53Z</time></trkpt><trkpt lat="44.6635547" lon="8.4627504"><ele>177.0</ele><time>2026-04-04T11:42:03.53Z</time></trkpt><trkpt lat="44.663558" lon="8.4628985"><ele>176.0</ele><time>2026-04-04T11:42:04.53Z</time></trkpt><trkpt lat="44.6635484" lon="8.463048"><ele>174.75</ele><time>2026-04-04T11:42:05.53Z</time></trkpt><trkpt lat="44.6635232" lon="8.4632063"><ele>173.5</ele><time>2026-04-04T11:42:06.53Z</time></trkpt><trkpt lat="44.6634816" lon="8.463359"><ele>172.25</ele><time>2026-04-04T11:42:07.531Z</time></trkpt><trkpt lat="44.6634346" lon="8.4635074"><ele>171.0</ele><time>2026-04-04T11:42:08.531Z</time></trkpt><trkpt lat="44.6633883" lon="8.463652"><ele>170.0</ele><time>2026-04-04T11:42:09.53Z</time></trkpt><trkpt lat="44.6633474" lon="8.4637904"><ele>169.0</ele><time>2026-04-04T11:42:10.531Z</time></trkpt><trkpt lat="44.6633049" lon="8.4639389"><ele>168.0</ele><time>2026-04-04T11:42:11.53Z</time></trkpt><trkpt lat="44.6632713" lon="8.4640849"><ele>167.0</ele><time>2026-04-04T11:42:12.531Z</time></trkpt><trkpt lat="44.6632508" lon="8.4642156"><ele>166.0</ele><time>2026-04-04T11:42:13.531Z</time></trkpt><trkpt lat="44.6632465" lon="8.4643265"><ele>166.0</ele><time>2026-04-04T11:42:14.531Z</time></trkpt><trkpt lat="44.6632724" lon="8.4644438"><ele>166.0</ele><time>2026-04-04T11:42:16.531Z</time></trkpt><trkpt lat="44.6633144" lon="8.4645523"><ele>166.0</ele><time>2026-04-04T11:42:21.53Z</time></trkpt><trkpt lat="44.663323" lon="8.4646416"><ele>166.0</ele><time>2026-04-04T11:42:31.53Z</time></trkpt><trkpt lat="44.6633391" lon="8.4647976"><ele>166.0</ele><time>2026-04-04T11:42:33.531Z</time></trkpt><trkpt lat="44.6633479" lon="8.4649335"><ele>166.0</ele><time>2026-04-04T11:42:34.531Z</time></trkpt><trkpt lat="44.6633416" lon="8.4650837"><ele>165.60000000000002</ele><time>2026-04-04T11:42:35.531Z</time></trkpt><trkpt lat="44.663338" lon="8.4652378"><ele>165.2</ele><time>2026-04-04T11:42:36.531Z</time></trkpt><trkpt lat="44.663331" lon="8.4653889"><ele>164.8</ele><time>2026-04-04T11:42:37.53Z</time></trkpt><trkpt lat="44.6633266" lon="8.4655461"><ele>164.39999999999998</ele><time>2026-04-04T11:42:38.531Z</time></trkpt><trkpt lat="44.6633174" lon="8.4657116"><ele>164.0</ele><time>2026-04-04T11:42:39.531Z</time></trkpt><trkpt lat="44.6633081" lon="8.4658822"><ele>163.25</ele><time>2026-04-04T11:42:40.531Z</time></trkpt><trkpt lat="44.6633006" lon="8.4660503"><ele>162.5</ele><time>2026-04-04T11:42:41.531Z</time></trkpt><trkpt lat="44.6632943" lon="8.4662185"><ele>161.75</ele><time>2026-04-04T11:42:42.531Z</time></trkpt><trkpt lat="44.6632904" lon="8.4663881"><ele>161.0</ele><time>2026-04-04T11:42:43.531Z</time></trkpt><trkpt lat="44.6632876" lon="8.4665585"><ele>160.20000000000002</ele><time>2026-04-04T11:42:44.531Z</time></trkpt><trkpt lat="44.663283" lon="8.4667257"><ele>159.4</ele><time>2026-04-04T11:42:45.531Z</time></trkpt><trkpt lat="44.6632797" lon="8.4668773"><ele>158.6</ele><time>2026-04-04T11:42:46.531Z</time></trkpt><trkpt lat="44.6632758" lon="8.4670175"><ele>157.8</ele><time>2026-04-04T11:42:47.531Z</time></trkpt><trkpt lat="44.6632697" lon="8.4671516"><ele>157.0</ele><time>2026-04-04T11:42:48.531Z</time></trkpt><trkpt lat="44.6632632" lon="8.4672877"><ele>157.0</ele><time>2026-04-04T11:42:49.53Z</time></trkpt><trkpt lat="44.6632581" lon="8.4674392"><ele>157.0</ele><time>2026-04-04T11:42:50.531Z</time></trkpt><trkpt lat="44.6632505" lon="8.4675883"><ele>157.0</ele><time>2026-04-04T11:42:51.531Z</time></trkpt><trkpt lat="44.6632419" lon="8.4677354"><ele>157.0</ele><time>2026-04-04T11:42:52.531Z</time></trkpt><trkpt lat="44.663236" lon="8.4678831"><ele>157.0</ele><time>2026-04-04T11:42:53.53Z</time></trkpt><trkpt lat="44.6632353" lon="8.4680299"><ele>157.0</ele><time>2026-04-04T11:42:54.531Z</time></trkpt><trkpt lat="44.6632386" lon="8.4681779"><ele>157.0</ele><time>2026-04-04T11:42:55.531Z</time></trkpt><trkpt lat="44.6632465" lon="8.4683141"><ele>157.0</ele><time>2026-04-04T11:42:56.532Z</time></trkpt><trkpt lat="44.6632715" lon="8.4684452"><ele>157.0</ele><time>2026-04-04T11:42:57.531Z</time></trkpt><trkpt lat="44.6633227" lon="8.4685652"><ele>157.0</ele><time>2026-04-04T11:42:58.532Z</time></trkpt><trkpt lat="44.6633895" lon="8.4686556"><ele>157.0</ele><time>2026-04-04T11:42:59.532Z</time></trkpt><trkpt lat="44.6634788" lon="8.4687124"><ele>157.0</ele><time>2026-04-04T11:43:00.531Z</time></trkpt><trkpt lat="44.6635635" lon="8.4687459"><ele>157.0</ele><time>2026-04-04T11:43:01.531Z</time></trkpt><trkpt lat="44.6636276" lon="8.4687744"><ele>157.0</ele><time>2026-04-04T11:43:02.532Z</time></trkpt><trkpt lat="44.6637148" lon="8.4688216"><ele>157.0</ele><time>2026-04-04T11:43:04.531Z</time></trkpt><trkpt lat="44.663812" lon="8.4688224"><ele>157.0</ele><time>2026-04-04T11:43:06.532Z</time></trkpt><trkpt lat="44.6638783" lon="8.4688025"><ele>156.4</ele><time>2026-04-04T11:43:07.531Z</time></trkpt><trkpt lat="44.6639692" lon="8.4687459"><ele>155.79999999999998</ele><time>2026-04-04T11:43:08.532Z</time></trkpt><trkpt lat="44.6640636" lon="8.4686983"><ele>155.2</ele><time>2026-04-04T11:43:09.532Z</time></trkpt><trkpt lat="44.664158" lon="8.4686741"><ele>154.6</ele><time>2026-04-04T11:43:10.532Z</time></trkpt><trkpt lat="44.6642556" lon="8.4686651"><ele>154.0</ele><time>2026-04-04T11:43:11.531Z</time></trkpt><trkpt lat="44.6643568" lon="8.4686682"><ele>154.0</ele><time>2026-04-04T11:43:12.531Z</time></trkpt><trkpt lat="44.6644583" lon="8.4686775"><ele>154.0</ele><time>2026-04-04T11:43:13.531Z</time></trkpt><trkpt lat="44.6645607" lon="8.4686797"><ele>154.0</ele><time>2026-04-04T11:43:14.532Z</time></trkpt><trkpt lat="44.6646651" lon="8.46868"><ele>154.0</ele><time>2026-04-04T11:43:15.532Z</time></trkpt><trkpt lat="44.6647637" lon="8.4686809"><ele>154.0</ele><time>2026-04-04T11:43:16.532Z</time></trkpt><trkpt lat="44.664854" lon="8.4686853"><ele>154.0</ele><time>2026-04-04T11:43:17.532Z</time></trkpt><trkpt lat="44.6649308" lon="8.4686838"><ele>154.0</ele><time>2026-04-04T11:43:18.532Z</time></trkpt><trkpt lat="44.6650475" lon="8.4686864"><ele>154.0</ele><time>2026-04-04T11:43:20.532Z</time></trkpt><trkpt lat="44.665147" lon="8.4687341"><ele>154.0</ele><time>2026-04-04T11:43:22.532Z</time></trkpt><trkpt lat="44.6652223" lon="8.4688775"><ele>154.0</ele><time>2026-04-04T11:43:24.531Z</time></trkpt><trkpt lat="44.6653019" lon="8.4689035"><ele>153.33333333333334</ele><time>2026-04-04T11:43:26.531Z</time></trkpt><trkpt lat="44.6653922" lon="8.468785"><ele>152.66666666666669</ele><time>2026-04-04T11:43:28.531Z</time></trkpt><trkpt lat="44.6654348" lon="8.4687119"><ele>152.0</ele><time>2026-04-04T11:43:29.532Z</time></trkpt><trkpt lat="44.6654918" lon="8.468672"><ele>151.33333333333334</ele><time>2026-04-04T11:43:30.531Z</time></trkpt><trkpt lat="44.6655733" lon="8.4686583"><ele>150.66666666666666</ele><time>2026-04-04T11:43:31.532Z</time></trkpt><trkpt lat="44.6656586" lon="8.4686564"><ele>150.0</ele><time>2026-04-04T11:43:32.531Z</time></trkpt><trkpt lat="44.6657356" lon="8.4686721"><ele>149.8</ele><time>2026-04-04T11:43:33.53Z</time></trkpt><trkpt lat="44.6658468" lon="8.4686819"><ele>149.6</ele><time>2026-04-04T11:43:35.532Z</time></trkpt><trkpt lat="44.6659488" lon="8.468688"><ele>149.4</ele><time>2026-04-04T11:43:37.532Z</time></trkpt><trkpt lat="44.6660588" lon="8.4686896"><ele>149.2</ele><time>2026-04-04T11:43:39.532Z</time></trkpt><trkpt lat="44.6661233" lon="8.4686884"><ele>149.0</ele><time>2026-04-04T11:43:40.532Z</time></trkpt><trkpt lat="44.6661977" lon="8.4686884"><ele>148.0</ele><time>2026-04-04T11:43:41.532Z</time></trkpt><trkpt lat="44.666279" lon="8.4686887"><ele>147.0</ele><time>2026-04-04T11:43:42.531Z</time></trkpt><trkpt lat="44.6663588" lon="8.468688"><ele>146.0</ele><time>2026-04-04T11:43:43.532Z</time></trkpt><trkpt lat="44.6664333" lon="8.4686891"><ele>145.0</ele><time>2026-04-04T11:43:44.532Z</time></trkpt><trkpt lat="44.6665019" lon="8.4686908"><ele>144.0</ele><time>2026-04-04T11:43:45.531Z</time></trkpt><trkpt lat="44.6665696" lon="8.4686897"><ele>143.0</ele><time>2026-04-04T11:43:46.532Z</time></trkpt><trkpt lat="44.66664" lon="8.4686878"><ele>142.0</ele><time>2026-04-04T11:43:47.531Z</time></trkpt><trkpt lat="44.6667172" lon="8.468687"><ele>142.0</ele><time>2026-04-04T11:43:48.532Z</time></trkpt><trkpt lat="44.6667958" lon="8.4686887"><ele>142.0</ele><time>2026-04-04T11:43:49.532Z</time></trkpt><trkpt lat="44.6668726" lon="8.4686908"><ele>142.0</ele><time>2026-04-04T11:43:50.531Z</time></trkpt><trkpt lat="44.6669442" lon="8.4686909"><ele>142.0</ele><time>2026-04-04T11:43:51.532Z</time></trkpt><trkpt lat="44.6670132" lon="8.468692"><ele>142.0</ele><time>2026-04-04T11:43:52.532Z</time></trkpt><trkpt lat="44.6670776" lon="8.4686925"><ele>142.0</ele><time>2026-04-04T11:43:53.531Z</time></trkpt><trkpt lat="44.667141" lon="8.468692"><ele>142.0</ele><time>2026-04-04T11:43:54.532Z</time></trkpt><trkpt lat="44.6672566" lon="8.468695"><ele>143.6</ele><time>2026-04-04T11:43:56.532Z</time></trkpt><trkpt lat="44.6673364" lon="8.4687111"><ele>145.2</ele><time>2026-04-04T11:43:58.532Z</time></trkpt><trkpt lat="44.6674276" lon="8.4687487"><ele>146.8</ele><time>2026-04-04T11:44:00.532Z</time></trkpt><trkpt lat="44.6675435" lon="8.46874"><ele>148.4</ele><time>2026-04-04T11:44:02.531Z</time></trkpt><trkpt lat="44.6676439" lon="8.4686193"><ele>150.0</ele><time>2026-04-04T11:44:04.531Z</time></trkpt><trkpt lat="44.6676747" lon="8.4685032"><ele>150.0</ele><time>2026-04-04T11:44:05.532Z</time></trkpt><trkpt lat="44.6676958" lon="8.4683662"><ele>150.0</ele><time>2026-04-04T11:44:06.532Z</time></trkpt><trkpt lat="44.6677178" lon="8.4682236"><ele>150.0</ele><time>2026-04-04T11:44:07.532Z</time></trkpt><trkpt lat="44.6677428" lon="8.4680942"><ele>150.0</ele><time>2026-04-04T11:44:08.531Z</time></trkpt><trkpt lat="44.6677678" lon="8.4679705"><ele>150.0</ele><time>2026-04-04T11:44:09.532Z</time></trkpt><trkpt lat="44.6677953" lon="8.4678435"><ele>149.8</ele><time>2026-04-04T11:44:10.533Z</time></trkpt><trkpt lat="44.6678239" lon="8.4677048"><ele>149.6</ele><time>2026-04-04T11:44:11.533Z</time></trkpt><trkpt lat="44.6678521" lon="8.4675559"><ele>149.4</ele><time>2026-04-04T11:44:12.533Z</time></trkpt><trkpt lat="44.667876" lon="8.4674008"><ele>149.2</ele><time>2026-04-04T11:44:13.532Z</time></trkpt><trkpt lat="44.6678928" lon="8.4672503"><ele>149.0</ele><time>2026-04-04T11:44:14.532Z</time></trkpt><trkpt lat="44.6679047" lon="8.4670982"><ele>149.0</ele><time>2026-04-04T11:44:15.532Z</time></trkpt><trkpt lat="44.6679125" lon="8.4669431"><ele>149.0</ele><time>2026-04-04T11:44:16.532Z</time></trkpt><trkpt lat="44.667914" lon="8.4667922"><ele>149.0</ele><time>2026-04-04T11:44:17.533Z</time></trkpt><trkpt lat="44.6679089" lon="8.4666504"><ele>149.0</ele><time>2026-04-04T11:44:18.533Z</time></trkpt><trkpt lat="44.667894" lon="8.4665131"><ele>149.0</ele><time>2026-04-04T11:44:19.533Z</time></trkpt><trkpt lat="44.6678702" lon="8.4663695"><ele>149.0</ele><time>2026-04-04T11:44:20.533Z</time></trkpt><trkpt lat="44.66784" lon="8.4662046"><ele>149.0</ele><time>2026-04-04T11:44:21.533Z</time></trkpt><trkpt lat="44.6678102" lon="8.4659991"><ele>149.0</ele><time>2026-04-04T11:44:22.533Z</time></trkpt><trkpt lat="44.6677846" lon="8.4657832"><ele>149.0</ele><time>2026-04-04T11:44:23.533Z</time></trkpt><trkpt lat="44.6677632" lon="8.4655719"><ele>148.33333333333331</ele><time>2026-04-04T11:44:24.533Z</time></trkpt><trkpt lat="44.6677422" lon="8.4653604"><ele>147.66666666666666</ele><time>2026-04-04T11:44:25.533Z</time></trkpt><trkpt lat="44.6677211" lon="8.4651444"><ele>147.0</ele><time>2026-04-04T11:44:26.532Z</time></trkpt><trkpt lat="44.6677005" lon="8.4649309"><ele>147.0</ele><time>2026-04-04T11:44:27.533Z</time></trkpt><trkpt lat="44.6676788" lon="8.4647173"><ele>147.0</ele><time>2026-04-04T11:44:28.532Z</time></trkpt><trkpt lat="44.6676517" lon="8.4644984"><ele>147.0</ele><time>2026-04-04T11:44:29.533Z</time></trkpt><trkpt lat="44.6676294" lon="8.4642849"><ele>147.0</ele><time>2026-04-04T11:44:30.532Z</time></trkpt><trkpt lat="44.6676079" lon="8.4640677"><ele>147.0</ele><time>2026-04-04T11:44:31.533Z</time></trkpt><trkpt lat="44.6675862" lon="8.4638473"><ele>147.0</ele><time>2026-04-04T11:44:32.532Z</time></trkpt><trkpt lat="44.6675675" lon="8.4636271"><ele>146.66666666666666</ele><time>2026-04-04T11:44:33.533Z</time></trkpt><trkpt lat="44.6675517" lon="8.46341"><ele>146.33333333333331</ele><time>2026-04-04T11:44:34.531Z</time></trkpt><trkpt lat="44.6675322" lon="8.4632022"><ele>146.0</ele><time>2026-04-04T11:44:35.533Z</time></trkpt><trkpt lat="44.6675115" lon="8.4629965"><ele>146.25</ele><time>2026-04-04T11:44:36.533Z</time></trkpt><trkpt lat="44.6674893" lon="8.4627989"><ele>146.5</ele><time>2026-04-04T11:44:37.533Z</time></trkpt><trkpt lat="44.6674643" lon="8.4625897"><ele>146.75</ele><time>2026-04-04T11:44:38.533Z</time></trkpt><trkpt lat="44.6674448" lon="8.4623785"><ele>147.0</ele><time>2026-04-04T11:44:39.532Z</time></trkpt><trkpt lat="44.6674256" lon="8.4621653"><ele>147.66666666666666</ele><time>2026-04-04T11:44:40.533Z</time></trkpt><trkpt lat="44.6674056" lon="8.4619402"><ele>148.33333333333331</ele><time>2026-04-04T11:44:41.533Z</time></trkpt><trkpt lat="44.6673864" lon="8.4617076"><ele>149.0</ele><time>2026-04-04T11:44:42.533Z</time></trkpt><trkpt lat="44.6673672" lon="8.4614702"><ele>149.66666666666666</ele><time>2026-04-04T11:44:43.533Z</time></trkpt><trkpt lat="44.6673514" lon="8.4612269"><ele>150.33333333333334</ele><time>2026-04-04T11:44:44.533Z</time></trkpt><trkpt lat="44.6673409" lon="8.4609777"><ele>151.0</ele><time>2026-04-04T11:44:45.533Z</time></trkpt><trkpt lat="44.6673341" lon="8.4607242"><ele>151.0</ele><time>2026-04-04T11:44:46.533Z</time></trkpt><trkpt lat="44.6673346" lon="8.4604716"><ele>151.0</ele><time>2026-04-04T11:44:47.533Z</time></trkpt><trkpt lat="44.6673414" lon="8.460222"><ele>151.0</ele><time>2026-04-04T11:44:48.533Z</time></trkpt><trkpt lat="44.6673505" lon="8.4599805"><ele>151.0</ele><time>2026-04-04T11:44:49.533Z</time></trkpt><trkpt lat="44.6673617" lon="8.4597435"><ele>151.0</ele><time>2026-04-04T11:44:50.533Z</time></trkpt><trkpt lat="44.6673758" lon="8.4595081"><ele>151.0</ele><time>2026-04-04T11:44:51.533Z</time></trkpt><trkpt lat="44.667397" lon="8.4592752"><ele>151.0</ele><time>2026-04-04T11:44:52.533Z</time></trkpt><trkpt lat="44.6674336" lon="8.4590617"><ele>151.0</ele><time>2026-04-04T11:44:53.533Z</time></trkpt><trkpt lat="44.6674672" lon="8.4588348"><ele>151.0</ele><time>2026-04-04T11:44:54.532Z</time></trkpt><trkpt lat="44.667499" lon="8.4586099"><ele>151.0</ele><time>2026-04-04T11:44:55.532Z</time></trkpt><trkpt lat="44.6675268" lon="8.4583881"><ele>151.0</ele><time>2026-04-04T11:44:56.533Z</time></trkpt><trkpt lat="44.6675577" lon="8.4581804"><ele>151.0</ele><time>2026-04-04T11:44:57.533Z</time></trkpt><trkpt lat="44.667594" lon="8.4579932"><ele>151.0</ele><time>2026-04-04T11:44:58.533Z</time></trkpt><trkpt lat="44.6676406" lon="8.4578376"><ele>150.8</ele><time>2026-04-04T11:44:59.533Z</time></trkpt><trkpt lat="44.6676788" lon="8.457692"><ele>150.6</ele><time>2026-04-04T11:45:00.533Z</time></trkpt><trkpt lat="44.6677107" lon="8.4575454"><ele>150.4</ele><time>2026-04-04T11:45:01.533Z</time></trkpt><trkpt lat="44.6677483" lon="8.4574054"><ele>150.2</ele><time>2026-04-04T11:45:02.533Z</time></trkpt><trkpt lat="44.6677808" lon="8.4572677"><ele>150.0</ele><time>2026-04-04T11:45:03.533Z</time></trkpt><trkpt lat="44.6678107" lon="8.4571301"><ele>150.33333333333334</ele><time>2026-04-04T11:45:04.532Z</time></trkpt><trkpt lat="44.6678409" lon="8.4569987"><ele>150.66666666666666</ele><time>2026-04-04T11:45:05.533Z</time></trkpt><trkpt lat="44.6678782" lon="8.456882"><ele>151.0</ele><time>2026-04-04T11:45:06.533Z</time></trkpt><trkpt lat="44.6679192" lon="8.4567806"><ele>151.33333333333331</ele><time>2026-04-04T11:45:07.533Z</time></trkpt><trkpt lat="44.6679791" lon="8.4566974"><ele>151.66666666666666</ele><time>2026-04-04T11:45:08.533Z</time></trkpt><trkpt lat="44.6680438" lon="8.4566356"><ele>152.0</ele><time>2026-04-04T11:45:09.533Z</time></trkpt><trkpt lat="44.6681083" lon="8.4565558"><ele>152.0</ele><time>2026-04-04T11:45:10.533Z</time></trkpt><trkpt lat="44.6681513" lon="8.4564491"><ele>152.0</ele><time>2026-04-04T11:45:11.533Z</time></trkpt><trkpt lat="44.6681859" lon="8.4563203"><ele>152.0</ele><time>2026-04-04T11:45:12.533Z</time></trkpt><trkpt lat="44.6681985" lon="8.4561551"><ele>152.0</ele><time>2026-04-04T11:45:13.533Z</time></trkpt><trkpt lat="44.6682092" lon="8.4560028"><ele>152.0</ele><time>2026-04-04T11:45:14.533Z</time></trkpt><trkpt lat="44.6682304" lon="8.4558776"><ele>152.0</ele><time>2026-04-04T11:45:15.534Z</time></trkpt><trkpt lat="44.6682724" lon="8.4557473"><ele>152.0</ele><time>2026-04-04T11:45:16.534Z</time></trkpt><trkpt lat="44.6683198" lon="8.4556215"><ele>152.0</ele><time>2026-04-04T11:45:17.534Z</time></trkpt><trkpt lat="44.6683731" lon="8.4554993"><ele>152.0</ele><time>2026-04-04T11:45:18.534Z</time></trkpt><trkpt lat="44.6684271" lon="8.4553791"><ele>152.0</ele><time>2026-04-04T11:45:19.534Z</time></trkpt><trkpt lat="44.668468" lon="8.4552575"><ele>152.2</ele><time>2026-04-04T11:45:20.534Z</time></trkpt><trkpt lat="44.6685083" lon="8.455134"><ele>152.39999999999998</ele><time>2026-04-04T11:45:21.533Z</time></trkpt><trkpt lat="44.6685539" lon="8.4550056"><ele>152.60000000000002</ele><time>2026-04-04T11:45:22.534Z</time></trkpt><trkpt lat="44.6686041" lon="8.4548611"><ele>152.8</ele><time>2026-04-04T11:45:23.533Z</time></trkpt><trkpt lat="44.6686573" lon="8.4547142"><ele>153.0</ele><time>2026-04-04T11:45:24.534Z</time></trkpt><trkpt lat="44.668707" lon="8.4545793"><ele>153.0</ele><time>2026-04-04T11:45:25.534Z</time></trkpt><trkpt lat="44.6687493" lon="8.4544597"><ele>153.0</ele><time>2026-04-04T11:45:26.533Z</time></trkpt><trkpt lat="44.6687992" lon="8.4543432"><ele>153.0</ele><time>2026-04-04T11:45:27.533Z</time></trkpt><trkpt lat="44.6688464" lon="8.4542205"><ele>153.0</ele><time>2026-04-04T11:45:28.534Z</time></trkpt><trkpt lat="44.6688865" lon="8.4541171"><ele>153.0</ele><time>2026-04-04T11:45:29.533Z</time></trkpt><trkpt lat="44.6689193" lon="8.4540382"><ele>153.0</ele><time>2026-04-04T11:45:30.534Z</time></trkpt><trkpt lat="44.6689801" lon="8.4539063"><ele>153.20000000000002</ele><time>2026-04-04T11:45:32.534Z</time></trkpt><trkpt lat="44.6690376" lon="8.4537796"><ele>153.4</ele><time>2026-04-04T11:45:34.534Z</time></trkpt><trkpt lat="44.6690872" lon="8.4536592"><ele>153.60000000000002</ele><time>2026-04-04T11:45:36.534Z</time></trkpt><trkpt lat="44.6691647" lon="8.4535375"><ele>153.8</ele><time>2026-04-04T11:45:38.533Z</time></trkpt><trkpt lat="44.6692178" lon="8.4534823"><ele>154.0</ele><time>2026-04-04T11:45:39.534Z</time></trkpt><trkpt lat="44.6692745" lon="8.4534347"><ele>154.0</ele><time>2026-04-04T11:45:40.534Z</time></trkpt><trkpt lat="44.6693275" lon="8.4533843"><ele>154.0</ele><time>2026-04-04T11:45:41.534Z</time></trkpt><trkpt lat="44.6693743" lon="8.4533157"><ele>154.0</ele><time>2026-04-04T11:45:42.533Z</time></trkpt><trkpt lat="44.6694068" lon="8.4532148"><ele>154.0</ele><time>2026-04-04T11:45:43.534Z</time></trkpt><trkpt lat="44.6694217" lon="8.4530785"><ele>154.0</ele><time>2026-04-04T11:45:44.534Z</time></trkpt><trkpt lat="44.6694351" lon="8.4529263"><ele>154.0</ele><time>2026-04-04T11:45:45.533Z</time></trkpt><trkpt lat="44.6694684" lon="8.4527654"><ele>154.25</ele><time>2026-04-04T11:45:46.534Z</time></trkpt><trkpt lat="44.6695282" lon="8.4526058"><ele>154.5</ele><time>2026-04-04T11:45:47.534Z</time></trkpt><trkpt lat="44.6696002" lon="8.4524364"><ele>154.75</ele><time>2026-04-04T11:45:48.534Z</time></trkpt><trkpt lat="44.6696753" lon="8.4522636"><ele>155.0</ele><time>2026-04-04T11:45:49.534Z</time></trkpt><trkpt lat="44.6697438" lon="8.4520977"><ele>155.0</ele><time>2026-04-04T11:45:50.534Z</time></trkpt><trkpt lat="44.6698104" lon="8.4519321"><ele>155.0</ele><time>2026-04-04T11:45:51.534Z</time></trkpt><trkpt lat="44.6698742" lon="8.4517647"><ele>155.0</ele><time>2026-04-04T11:45:52.534Z</time></trkpt><trkpt lat="44.6699381" lon="8.451593"><ele>155.0</ele><time>2026-04-04T11:45:53.534Z</time></trkpt><trkpt lat="44.6700039" lon="8.4514182"><ele>155.0</ele><time>2026-04-04T11:45:54.534Z</time></trkpt><trkpt lat="44.6700739" lon="8.4512435"><ele>155.0</ele><time>2026-04-04T11:45:55.534Z</time></trkpt><trkpt lat="44.6701514" lon="8.4510601"><ele>155.0</ele><time>2026-04-04T11:45:56.534Z</time></trkpt><trkpt lat="44.670232" lon="8.4508624"><ele>154.66666666666666</ele><time>2026-04-04T11:45:57.534Z</time></trkpt><trkpt lat="44.6703147" lon="8.4506549"><ele>154.33333333333334</ele><time>2026-04-04T11:45:58.534Z</time></trkpt><trkpt lat="44.6703974" lon="8.4504476"><ele>154.0</ele><time>2026-04-04T11:45:59.533Z</time></trkpt><trkpt lat="44.6704755" lon="8.4502529"><ele>154.66666666666669</ele><time>2026-04-04T11:46:00.534Z</time></trkpt><trkpt lat="44.6705528" lon="8.4500592"><ele>155.33333333333334</ele><time>2026-04-04T11:46:01.534Z</time></trkpt><trkpt lat="44.670633" lon="8.4498639"><ele>156.0</ele><time>2026-04-04T11:46:02.534Z</time></trkpt><trkpt lat="44.6707177" lon="8.4496652"><ele>156.33333333333334</ele><time>2026-04-04T11:46:03.533Z</time></trkpt><trkpt lat="44.6708037" lon="8.4494568"><ele>156.66666666666669</ele><time>2026-04-04T11:46:04.534Z</time></trkpt><trkpt lat="44.67089" lon="8.4492465"><ele>157.0</ele><time>2026-04-04T11:46:05.534Z</time></trkpt><trkpt lat="44.6709744" lon="8.4490342"><ele>157.0</ele><time>2026-04-04T11:46:06.534Z</time></trkpt><trkpt lat="44.6710604" lon="8.4488199"><ele>157.0</ele><time>2026-04-04T11:46:07.534Z</time></trkpt><trkpt lat="44.6711472" lon="8.4486039"><ele>157.0</ele><time>2026-04-04T11:46:08.533Z</time></trkpt><trkpt lat="44.6712344" lon="8.4483879"><ele>157.0</ele><time>2026-04-04T11:46:09.534Z</time></trkpt><trkpt lat="44.6713229" lon="8.4481707"><ele>157.0</ele><time>2026-04-04T11:46:10.534Z</time></trkpt><trkpt lat="44.6714108" lon="8.4479511"><ele>157.0</ele><time>2026-04-04T11:46:11.534Z</time></trkpt><trkpt lat="44.6714985" lon="8.4477291"><ele>157.0</ele><time>2026-04-04T11:46:12.534Z</time></trkpt><trkpt lat="44.6715936" lon="8.4475242"><ele>157.0</ele><time>2026-04-04T11:46:13.533Z</time></trkpt><trkpt lat="44.6716831" lon="8.4473051"><ele>157.0</ele><time>2026-04-04T11:46:14.535Z</time></trkpt><trkpt lat="44.67177" lon="8.4470834"><ele>157.0</ele><time>2026-04-04T11:46:15.535Z</time></trkpt><trkpt lat="44.6718597" lon="8.4468571"><ele>157.0</ele><time>2026-04-04T11:46:16.535Z</time></trkpt><trkpt lat="44.6719533" lon="8.4466321"><ele>157.0</ele><time>2026-04-04T11:46:17.534Z</time></trkpt><trkpt lat="44.6720418" lon="8.4464092"><ele>159.33333333333334</ele><time>2026-04-04T11:46:18.534Z</time></trkpt><trkpt lat="44.6721276" lon="8.4461854"><ele>161.66666666666666</ele><time>2026-04-04T11:46:19.535Z</time></trkpt><trkpt lat="44.6722134" lon="8.4459544"><ele>164.0</ele><time>2026-04-04T11:46:20.534Z</time></trkpt><trkpt lat="44.6723066" lon="8.4457198"><ele>164.0</ele><time>2026-04-04T11:46:21.534Z</time></trkpt><trkpt lat="44.6724068" lon="8.4454845"><ele>164.0</ele><time>2026-04-04T11:46:22.535Z</time></trkpt><trkpt lat="44.6725086" lon="8.4452471"><ele>164.0</ele><time>2026-04-04T11:46:23.534Z</time></trkpt><trkpt lat="44.6726114" lon="8.4450113"><ele>164.66666666666666</ele><time>2026-04-04T11:46:24.535Z</time></trkpt><trkpt lat="44.6727112" lon="8.4447678"><ele>165.33333333333334</ele><time>2026-04-04T11:46:25.535Z</time></trkpt><trkpt lat="44.6728089" lon="8.4445193"><ele>166.0</ele><time>2026-04-04T11:46:26.535Z</time></trkpt><trkpt lat="44.6729083" lon="8.4442692"><ele>164.66666666666669</ele><time>2026-04-04T11:46:27.534Z</time></trkpt><trkpt lat="44.6730106" lon="8.4440161"><ele>163.33333333333334</ele><time>2026-04-04T11:46:28.534Z</time></trkpt><trkpt lat="44.6731123" lon="8.4437623"><ele>162.0</ele><time>2026-04-04T11:46:29.535Z</time></trkpt><trkpt lat="44.6732145" lon="8.4435048"><ele>162.0</ele><time>2026-04-04T11:46:30.535Z</time></trkpt><trkpt lat="44.6733208" lon="8.4432431"><ele>162.0</ele><time>2026-04-04T11:46:31.535Z</time></trkpt><trkpt lat="44.6734265" lon="8.4429794"><ele>162.0</ele><time>2026-04-04T11:46:32.535Z</time></trkpt><trkpt lat="44.6735317" lon="8.4427145"><ele>162.0</ele><time>2026-04-04T11:46:33.534Z</time></trkpt><trkpt lat="44.6736386" lon="8.4424524"><ele>162.0</ele><time>2026-04-04T11:46:34.534Z</time></trkpt><trkpt lat="44.6737459" lon="8.442197"><ele>162.0</ele><time>2026-04-04T11:46:35.534Z</time></trkpt><trkpt lat="44.6738474" lon="8.4419483"><ele>162.33333333333334</ele><time>2026-04-04T11:46:36.535Z</time></trkpt><trkpt lat="44.6739452" lon="8.4417055"><ele>162.66666666666669</ele><time>2026-04-04T11:46:37.535Z</time></trkpt><trkpt lat="44.6740428" lon="8.4414651"><ele>163.0</ele><time>2026-04-04T11:46:38.535Z</time></trkpt><trkpt lat="44.6741402" lon="8.4412211"><ele>163.0</ele><time>2026-04-04T11:46:39.534Z</time></trkpt><trkpt lat="44.6742374" lon="8.4409804"><ele>163.0</ele><time>2026-04-04T11:46:40.533Z</time></trkpt><trkpt lat="44.6743287" lon="8.4407532"><ele>163.0</ele><time>2026-04-04T11:46:41.535Z</time></trkpt><trkpt lat="44.6744178" lon="8.4405419"><ele>163.33333333333334</ele><time>2026-04-04T11:46:42.534Z</time></trkpt><trkpt lat="44.6745007" lon="8.4403428"><ele>163.66666666666666</ele><time>2026-04-04T11:46:43.535Z</time></trkpt><trkpt lat="44.6745788" lon="8.4401371"><ele>164.0</ele><time>2026-04-04T11:46:44.535Z</time></trkpt><trkpt lat="44.674649" lon="8.4399186"><ele>164.0</ele><time>2026-04-04T11:46:45.533Z</time></trkpt><trkpt lat="44.6747116" lon="8.4396855"><ele>164.0</ele><time>2026-04-04T11:46:46.535Z</time></trkpt><trkpt lat="44.6747684" lon="8.4394496"><ele>164.0</ele><time>2026-04-04T11:46:47.535Z</time></trkpt><trkpt lat="44.6748212" lon="8.4392109"><ele>164.0</ele><time>2026-04-04T11:46:48.535Z</time></trkpt><trkpt lat="44.674879" lon="8.4389802"><ele>164.0</ele><time>2026-04-04T11:46:49.535Z</time></trkpt><trkpt lat="44.6749337" lon="8.4387519"><ele>164.0</ele><time>2026-04-04T11:46:50.535Z</time></trkpt><trkpt lat="44.6749919" lon="8.4385269"><ele>163.0</ele><time>2026-04-04T11:46:51.534Z</time></trkpt><trkpt lat="44.6750507" lon="8.4382963"><ele>162.0</ele><time>2026-04-04T11:46:52.535Z</time></trkpt><trkpt lat="44.6751057" lon="8.4380642"><ele>161.0</ele><time>2026-04-04T11:46:53.535Z</time></trkpt><trkpt lat="44.6751614" lon="8.4378337"><ele>158.66666666666666</ele><time>2026-04-04T11:46:54.535Z</time></trkpt><trkpt lat="44.6752142" lon="8.4376073"><ele>156.33333333333334</ele><time>2026-04-04T11:46:55.535Z</time></trkpt><trkpt lat="44.6752655" lon="8.4373762"><ele>154.0</ele><time>2026-04-04T11:46:56.535Z</time></trkpt><trkpt lat="44.675319" lon="8.4371476"><ele>159.33333333333334</ele><time>2026-04-04T11:46:57.535Z</time></trkpt><trkpt lat="44.6753775" lon="8.4369174"><ele>164.66666666666666</ele><time>2026-04-04T11:46:58.535Z</time></trkpt><trkpt lat="44.6754301" lon="8.4366931"><ele>170.0</ele><time>2026-04-04T11:46:59.535Z</time></trkpt><trkpt lat="44.6754916" lon="8.4364762"><ele>168.66666666666666</ele><time>2026-04-04T11:47:00.536Z</time></trkpt><trkpt lat="44.6755468" lon="8.4362588"><ele>167.33333333333334</ele><time>2026-04-04T11:47:01.535Z</time></trkpt><trkpt lat="44.6755996" lon="8.4360494"><ele>166.0</ele><time>2026-04-04T11:47:02.535Z</time></trkpt><trkpt lat="44.6756576" lon="8.4358362"><ele>166.0</ele><time>2026-04-04T11:47:03.536Z</time></trkpt><trkpt lat="44.6757101" lon="8.4356192"><ele>166.0</ele><time>2026-04-04T11:47:04.535Z</time></trkpt><trkpt lat="44.6757607" lon="8.4354049"><ele>166.0</ele><time>2026-04-04T11:47:05.535Z</time></trkpt><trkpt lat="44.6758055" lon="8.4351713"><ele>164.66666666666669</ele><time>2026-04-04T11:47:06.535Z</time></trkpt><trkpt lat="44.6758439" lon="8.4349382"><ele>163.33333333333334</ele><time>2026-04-04T11:47:07.534Z</time></trkpt><trkpt lat="44.6758668" lon="8.4346989"><ele>162.0</ele><time>2026-04-04T11:47:08.535Z</time></trkpt><trkpt lat="44.6758728" lon="8.4344528"><ele>161.66666666666666</ele><time>2026-04-04T11:47:09.535Z</time></trkpt><trkpt lat="44.6758672" lon="8.4342113"><ele>161.33333333333331</ele><time>2026-04-04T11:47:10.535Z</time></trkpt><trkpt lat="44.6758579" lon="8.4339716"><ele>161.0</ele><time>2026-04-04T11:47:11.535Z</time></trkpt><trkpt lat="44.675841" lon="8.4337271"><ele>161.0</ele><time>2026-04-04T11:47:12.535Z</time></trkpt><trkpt lat="44.675825" lon="8.4334851"><ele>161.0</ele><time>2026-04-04T11:47:13.535Z</time></trkpt><trkpt lat="44.6757996" lon="8.4332394"><ele>161.0</ele><time>2026-04-04T11:47:14.535Z</time></trkpt><trkpt lat="44.6757839" lon="8.4329958"><ele>162.33333333333331</ele><time>2026-04-04T11:47:15.536Z</time></trkpt><trkpt lat="44.6757409" lon="8.4327581"><ele>163.66666666666666</ele><time>2026-04-04T11:47:16.535Z</time></trkpt><trkpt lat="44.6756874" lon="8.4325249"><ele>165.0</ele><time>2026-04-04T11:47:17.535Z</time></trkpt><trkpt lat="44.6756292" lon="8.4323044"><ele>168.66666666666666</ele><time>2026-04-04T11:47:18.534Z</time></trkpt><trkpt lat="44.6755695" lon="8.4320991"><ele>172.33333333333331</ele><time>2026-04-04T11:47:19.536Z</time></trkpt><trkpt lat="44.6755079" lon="8.4318952"><ele>176.0</ele><time>2026-04-04T11:47:20.535Z</time></trkpt><trkpt lat="44.6754314" lon="8.4316975"><ele>176.0</ele><time>2026-04-04T11:47:21.536Z</time></trkpt><trkpt lat="44.6753568" lon="8.4315071"><ele>176.0</ele><time>2026-04-04T11:47:22.536Z</time></trkpt><trkpt lat="44.6752819" lon="8.4313249"><ele>176.0</ele><time>2026-04-04T11:47:23.535Z</time></trkpt><trkpt lat="44.6752032" lon="8.4311503"><ele>172.5</ele><time>2026-04-04T11:47:24.536Z</time></trkpt><trkpt lat="44.675119" lon="8.430988"><ele>169.0</ele><time>2026-04-04T11:47:25.535Z</time></trkpt><trkpt lat="44.675027" lon="8.4308307"><ele>165.5</ele><time>2026-04-04T11:47:26.536Z</time></trkpt><trkpt lat="44.6749257" lon="8.4306764"><ele>162.0</ele><time>2026-04-04T11:47:27.536Z</time></trkpt><trkpt lat="44.6748153" lon="8.4305242"><ele>163.33333333333334</ele><time>2026-04-04T11:47:28.535Z</time></trkpt><trkpt lat="44.6747026" lon="8.4303761"><ele>164.66666666666669</ele><time>2026-04-04T11:47:29.534Z</time></trkpt><trkpt lat="44.6745886" lon="8.4302297"><ele>166.0</ele><time>2026-04-04T11:47:30.534Z</time></trkpt><trkpt lat="44.6744712" lon="8.4300829"><ele>165.33333333333334</ele><time>2026-04-04T11:47:31.535Z</time></trkpt><trkpt lat="44.674346" lon="8.4299559"><ele>164.66666666666666</ele><time>2026-04-04T11:47:32.535Z</time></trkpt><trkpt lat="44.6742173" lon="8.4298325"><ele>164.0</ele><time>2026-04-04T11:47:33.535Z</time></trkpt><trkpt lat="44.6740786" lon="8.4297193"><ele>169.66666666666666</ele><time>2026-04-04T11:47:34.536Z</time></trkpt><trkpt lat="44.6739383" lon="8.429616"><ele>175.33333333333334</ele><time>2026-04-04T11:47:35.535Z</time></trkpt><trkpt lat="44.6738032" lon="8.4295107"><ele>181.0</ele><time>2026-04-04T11:47:36.536Z</time></trkpt><trkpt lat="44.6736762" lon="8.4294023"><ele>178.0</ele><time>2026-04-04T11:47:37.536Z</time></trkpt><trkpt lat="44.6735549" lon="8.4292924"><ele>175.0</ele><time>2026-04-04T11:47:38.535Z</time></trkpt><trkpt lat="44.6734463" lon="8.4291914"><ele>172.0</ele><time>2026-04-04T11:47:39.535Z</time></trkpt><trkpt lat="44.6733481" lon="8.429105"><ele>169.0</ele><time>2026-04-04T11:47:40.536Z</time></trkpt><trkpt lat="44.6732537" lon="8.4290286"><ele>169.0</ele><time>2026-04-04T11:47:41.534Z</time></trkpt><trkpt lat="44.6731666" lon="8.4289471"><ele>169.0</ele><time>2026-04-04T11:47:42.535Z</time></trkpt><trkpt lat="44.6730663" lon="8.4288467"><ele>169.0</ele><time>2026-04-04T11:47:43.536Z</time></trkpt><trkpt lat="44.6729602" lon="8.4287518"><ele>169.0</ele><time>2026-04-04T11:47:44.535Z</time></trkpt><trkpt lat="44.6728472" lon="8.4286526"><ele>168.5</ele><time>2026-04-04T11:47:45.536Z</time></trkpt><trkpt lat="44.6727327" lon="8.4285508"><ele>168.0</ele><time>2026-04-04T11:47:46.536Z</time></trkpt><trkpt lat="44.6726088" lon="8.428446"><ele>167.5</ele><time>2026-04-04T11:47:47.536Z</time></trkpt><trkpt lat="44.6724854" lon="8.4283416"><ele>167.0</ele><time>2026-04-04T11:47:48.536Z</time></trkpt><trkpt lat="44.6723623" lon="8.428242"><ele>167.0</ele><time>2026-04-04T11:47:49.535Z</time></trkpt><trkpt lat="44.6722363" lon="8.4281487"><ele>167.0</ele><time>2026-04-04T11:47:50.536Z</time></trkpt><trkpt lat="44.6721064" lon="8.4280485"><ele>167.0</ele><time>2026-04-04T11:47:51.536Z</time></trkpt><trkpt lat="44.6719759" lon="8.4279525"><ele>167.0</ele><time>2026-04-04T11:47:52.534Z</time></trkpt><trkpt lat="44.6718462" lon="8.4278573"><ele>166.66666666666666</ele><time>2026-04-04T11:47:53.536Z</time></trkpt><trkpt lat="44.671713" lon="8.4277609"><ele>166.33333333333334</ele><time>2026-04-04T11:47:54.536Z</time></trkpt><trkpt lat="44.6715767" lon="8.4276617"><ele>166.0</ele><time>2026-04-04T11:47:55.536Z</time></trkpt><trkpt lat="44.6714338" lon="8.4275609"><ele>166.0</ele><time>2026-04-04T11:47:56.535Z</time></trkpt><trkpt lat="44.6712844" lon="8.4274567"><ele>166.0</ele><time>2026-04-04T11:47:57.536Z</time></trkpt><trkpt lat="44.6711338" lon="8.4273505"><ele>166.0</ele><time>2026-04-04T11:47:58.536Z</time></trkpt><trkpt lat="44.6709792" lon="8.4272372"><ele>166.0</ele><time>2026-04-04T11:47:59.536Z</time></trkpt><trkpt lat="44.6708197" lon="8.4271201"><ele>166.0</ele><time>2026-04-04T11:48:00.535Z</time></trkpt><trkpt lat="44.6706567" lon="8.4270012"><ele>166.0</ele><time>2026-04-04T11:48:01.535Z</time></trkpt><trkpt lat="44.6704928" lon="8.4268838"><ele>166.0</ele><time>2026-04-04T11:48:02.535Z</time></trkpt><trkpt lat="44.6703281" lon="8.4267674"><ele>166.0</ele><time>2026-04-04T11:48:03.536Z</time></trkpt><trkpt lat="44.6701632" lon="8.4266536"><ele>166.0</ele><time>2026-04-04T11:48:04.536Z</time></trkpt><trkpt lat="44.6700034" lon="8.4265458"><ele>165.66666666666669</ele><time>2026-04-04T11:48:05.536Z</time></trkpt><trkpt lat="44.6698569" lon="8.4264457"><ele>165.33333333333334</ele><time>2026-04-04T11:48:06.537Z</time></trkpt><trkpt lat="44.669718" lon="8.4263456"><ele>165.0</ele><time>2026-04-04T11:48:07.536Z</time></trkpt><trkpt lat="44.6695725" lon="8.426244"><ele>164.66666666666666</ele><time>2026-04-04T11:48:08.536Z</time></trkpt><trkpt lat="44.6694163" lon="8.4261303"><ele>164.33333333333331</ele><time>2026-04-04T11:48:09.536Z</time></trkpt><trkpt lat="44.6692554" lon="8.4260063"><ele>164.0</ele><time>2026-04-04T11:48:10.536Z</time></trkpt><trkpt lat="44.6690923" lon="8.4258613"><ele>164.0</ele><time>2026-04-04T11:48:11.536Z</time></trkpt><trkpt lat="44.6689369" lon="8.4256921"><ele>164.0</ele><time>2026-04-04T11:48:12.536Z</time></trkpt><trkpt lat="44.6687985" lon="8.4255121"><ele>164.0</ele><time>2026-04-04T11:48:13.536Z</time></trkpt><trkpt lat="44.668673" lon="8.425325"><ele>164.33333333333331</ele><time>2026-04-04T11:48:14.536Z</time></trkpt><trkpt lat="44.6685565" lon="8.4251314"><ele>164.66666666666666</ele><time>2026-04-04T11:48:15.536Z</time></trkpt><trkpt lat="44.6684507" lon="8.4249339"><ele>165.0</ele><time>2026-04-04T11:48:16.537Z</time></trkpt><trkpt lat="44.6683628" lon="8.4247407"><ele>164.33333333333334</ele><time>2026-04-04T11:48:17.536Z</time></trkpt><trkpt lat="44.6682853" lon="8.4245476"><ele>163.66666666666669</ele><time>2026-04-04T11:48:18.536Z</time></trkpt><trkpt lat="44.6682099" lon="8.4243637"><ele>163.0</ele><time>2026-04-04T11:48:19.536Z</time></trkpt><trkpt lat="44.6681354" lon="8.4241914"><ele>163.0</ele><time>2026-04-04T11:48:20.536Z</time></trkpt><trkpt lat="44.6680601" lon="8.4240287"><ele>163.0</ele><time>2026-04-04T11:48:21.537Z</time></trkpt><trkpt lat="44.6679858" lon="8.4238724"><ele>163.0</ele><time>2026-04-04T11:48:22.537Z</time></trkpt><trkpt lat="44.6679162" lon="8.4237244"><ele>163.0</ele><time>2026-04-04T11:48:23.536Z</time></trkpt><trkpt lat="44.6678531" lon="8.4235859"><ele>162.83333333333334</ele><time>2026-04-04T11:48:24.536Z</time></trkpt><trkpt lat="44.6677999" lon="8.4234652"><ele>162.66666666666669</ele><time>2026-04-04T11:48:25.536Z</time></trkpt><trkpt lat="44.6677594" lon="8.4233577"><ele>162.5</ele><time>2026-04-04T11:48:26.536Z</time></trkpt><trkpt lat="44.6677337" lon="8.4232586"><ele>162.33333333333334</ele><time>2026-04-04T11:48:27.535Z</time></trkpt><trkpt lat="44.6677262" lon="8.4231545"><ele>162.16666666666666</ele><time>2026-04-04T11:48:28.535Z</time></trkpt><trkpt lat="44.6677304" lon="8.4230454"><ele>162.0</ele><time>2026-04-04T11:48:29.536Z</time></trkpt><trkpt lat="44.6677181" lon="8.4229469"><ele>161.8</ele><time>2026-04-04T11:48:30.536Z</time></trkpt><trkpt lat="44.6676741" lon="8.4228698"><ele>161.6</ele><time>2026-04-04T11:48:31.536Z</time></trkpt><trkpt lat="44.6676031" lon="8.4228161"><ele>161.4</ele><time>2026-04-04T11:48:32.536Z</time></trkpt><trkpt lat="44.6675103" lon="8.4227871"><ele>161.20000000000002</ele><time>2026-04-04T11:48:33.537Z</time></trkpt><trkpt lat="44.6673981" lon="8.4227715"><ele>161.0</ele><time>2026-04-04T11:48:34.537Z</time></trkpt><trkpt lat="44.6672823" lon="8.4227105"><ele>161.0</ele><time>2026-04-04T11:48:35.537Z</time></trkpt><trkpt lat="44.6671749" lon="8.4225988"><ele>161.0</ele><time>2026-04-04T11:48:36.537Z</time></trkpt><trkpt lat="44.6670693" lon="8.4224694"><ele>161.0</ele><time>2026-04-04T11:48:37.536Z</time></trkpt><trkpt lat="44.6669633" lon="8.4223473"><ele>161.0</ele><time>2026-04-04T11:48:38.536Z</time></trkpt><trkpt lat="44.6668506" lon="8.4222302"><ele>159.25</ele><time>2026-04-04T11:48:39.536Z</time></trkpt><trkpt lat="44.6667335" lon="8.4221143"><ele>157.5</ele><time>2026-04-04T11:48:40.536Z</time></trkpt><trkpt lat="44.6666131" lon="8.4219929"><ele>155.75</ele><time>2026-04-04T11:48:41.536Z</time></trkpt><trkpt lat="44.6664944" lon="8.4218696"><ele>154.0</ele><time>2026-04-04T11:48:42.537Z</time></trkpt><trkpt lat="44.6663779" lon="8.4217493"><ele>154.0</ele><time>2026-04-04T11:48:43.536Z</time></trkpt><trkpt lat="44.6662591" lon="8.4216289"><ele>154.0</ele><time>2026-04-04T11:48:44.537Z</time></trkpt><trkpt lat="44.6661407" lon="8.4214998"><ele>154.0</ele><time>2026-04-04T11:48:45.537Z</time></trkpt><trkpt lat="44.6660216" lon="8.4213608"><ele>156.0</ele><time>2026-04-04T11:48:46.536Z</time></trkpt><trkpt lat="44.6659061" lon="8.4212029"><ele>158.0</ele><time>2026-04-04T11:48:47.537Z</time></trkpt><trkpt lat="44.6657984" lon="8.4210247"><ele>160.0</ele><time>2026-04-04T11:48:48.537Z</time></trkpt><trkpt lat="44.6656978" lon="8.4208294"><ele>160.0</ele><time>2026-04-04T11:48:49.536Z</time></trkpt><trkpt lat="44.6656088" lon="8.4206156"><ele>160.0</ele><time>2026-04-04T11:48:50.536Z</time></trkpt><trkpt lat="44.6655393" lon="8.420387"><ele>160.0</ele><time>2026-04-04T11:48:51.537Z</time></trkpt><trkpt lat="44.6654842" lon="8.4201599"><ele>160.0</ele><time>2026-04-04T11:48:52.536Z</time></trkpt><trkpt lat="44.6654383" lon="8.4199267"><ele>160.0</ele><time>2026-04-04T11:48:53.537Z</time></trkpt><trkpt lat="44.6654024" lon="8.4196803"><ele>160.0</ele><time>2026-04-04T11:48:54.537Z</time></trkpt><trkpt lat="44.6653812" lon="8.419426"><ele>160.66666666666669</ele><time>2026-04-04T11:48:55.537Z</time></trkpt><trkpt lat="44.6653716" lon="8.4191655"><ele>161.33333333333334</ele><time>2026-04-04T11:48:56.537Z</time></trkpt><trkpt lat="44.6653654" lon="8.418906"><ele>162.0</ele><time>2026-04-04T11:48:57.536Z</time></trkpt><trkpt lat="44.6653553" lon="8.4186546"><ele>162.0</ele><time>2026-04-04T11:48:58.537Z</time></trkpt><trkpt lat="44.6653507" lon="8.4184151"><ele>162.0</ele><time>2026-04-04T11:48:59.537Z</time></trkpt><trkpt lat="44.6653321" lon="8.4181586"><ele>162.0</ele><time>2026-04-04T11:49:00.537Z</time></trkpt><trkpt lat="44.6653114" lon="8.4178963"><ele>162.0</ele><time>2026-04-04T11:49:01.537Z</time></trkpt><trkpt lat="44.6652961" lon="8.4176291"><ele>162.0</ele><time>2026-04-04T11:49:02.537Z</time></trkpt><trkpt lat="44.6652773" lon="8.4173625"><ele>162.0</ele><time>2026-04-04T11:49:03.537Z</time></trkpt><trkpt lat="44.6652586" lon="8.4170946"><ele>163.0</ele><time>2026-04-04T11:49:04.537Z</time></trkpt><trkpt lat="44.6652412" lon="8.4168232"><ele>164.0</ele><time>2026-04-04T11:49:05.536Z</time></trkpt><trkpt lat="44.6652258" lon="8.4165539"><ele>165.0</ele><time>2026-04-04T11:49:06.537Z</time></trkpt><trkpt lat="44.6652094" lon="8.4162811"><ele>165.0</ele><time>2026-04-04T11:49:07.536Z</time></trkpt><trkpt lat="44.6651888" lon="8.416006"><ele>165.0</ele><time>2026-04-04T11:49:08.537Z</time></trkpt><trkpt lat="44.6651669" lon="8.4157292"><ele>165.0</ele><time>2026-04-04T11:49:09.537Z</time></trkpt><trkpt lat="44.6651471" lon="8.4154511"><ele>164.33333333333334</ele><time>2026-04-04T11:49:10.537Z</time></trkpt><trkpt lat="44.6651327" lon="8.4151685"><ele>163.66666666666669</ele><time>2026-04-04T11:49:11.537Z</time></trkpt><trkpt lat="44.6651147" lon="8.4148813"><ele>163.0</ele><time>2026-04-04T11:49:12.537Z</time></trkpt><trkpt lat="44.6650962" lon="8.4145922"><ele>162.66666666666669</ele><time>2026-04-04T11:49:13.537Z</time></trkpt><trkpt lat="44.6650749" lon="8.4142992"><ele>162.33333333333334</ele><time>2026-04-04T11:49:14.537Z</time></trkpt><trkpt lat="44.6650511" lon="8.4140043"><ele>162.0</ele><time>2026-04-04T11:49:15.537Z</time></trkpt><trkpt lat="44.665027" lon="8.4137076"><ele>162.0</ele><time>2026-04-04T11:49:16.537Z</time></trkpt><trkpt lat="44.6650046" lon="8.4134093"><ele>162.0</ele><time>2026-04-04T11:49:17.537Z</time></trkpt><trkpt lat="44.6649853" lon="8.413111"><ele>162.0</ele><time>2026-04-04T11:49:18.537Z</time></trkpt><trkpt lat="44.6649658" lon="8.4128127"><ele>162.0</ele><time>2026-04-04T11:49:19.537Z</time></trkpt><trkpt lat="44.6649456" lon="8.4125182"><ele>162.0</ele><time>2026-04-04T11:49:20.537Z</time></trkpt><trkpt lat="44.6649248" lon="8.4122179"><ele>162.0</ele><time>2026-04-04T11:49:21.537Z</time></trkpt><trkpt lat="44.6649058" lon="8.4119215"><ele>161.33333333333334</ele><time>2026-04-04T11:49:22.538Z</time></trkpt><trkpt lat="44.6648872" lon="8.4116275"><ele>160.66666666666669</ele><time>2026-04-04T11:49:23.538Z</time></trkpt><trkpt lat="44.664867" lon="8.4113379"><ele>160.0</ele><time>2026-04-04T11:49:24.537Z</time></trkpt><trkpt lat="44.6648496" lon="8.4110425"><ele>160.0</ele><time>2026-04-04T11:49:25.537Z</time></trkpt><trkpt lat="44.6648322" lon="8.4107518"><ele>160.0</ele><time>2026-04-04T11:49:26.537Z</time></trkpt><trkpt lat="44.664813" lon="8.4104603"><ele>160.0</ele><time>2026-04-04T11:49:27.537Z</time></trkpt><trkpt lat="44.6647923" lon="8.4101707"><ele>159.66666666666669</ele><time>2026-04-04T11:49:28.537Z</time></trkpt><trkpt lat="44.6647709" lon="8.4098792"><ele>159.33333333333334</ele><time>2026-04-04T11:49:29.537Z</time></trkpt><trkpt lat="44.664748" lon="8.4095905"><ele>159.0</ele><time>2026-04-04T11:49:30.538Z</time></trkpt><trkpt lat="44.6647255" lon="8.4093023"><ele>159.0</ele><time>2026-04-04T11:49:31.537Z</time></trkpt><trkpt lat="44.6647043" lon="8.4090086"><ele>159.0</ele><time>2026-04-04T11:49:32.537Z</time></trkpt><trkpt lat="44.6646843" lon="8.4087179"><ele>159.0</ele><time>2026-04-04T11:49:33.538Z</time></trkpt><trkpt lat="44.6646624" lon="8.4084253"><ele>159.0</ele><time>2026-04-04T11:49:34.538Z</time></trkpt><trkpt lat="44.6646421" lon="8.4081469"><ele>159.0</ele><time>2026-04-04T11:49:35.537Z</time></trkpt><trkpt lat="44.6646268" lon="8.4078658"><ele>159.0</ele><time>2026-04-04T11:49:36.537Z</time></trkpt><trkpt lat="44.6646068" lon="8.4075578"><ele>160.0</ele><time>2026-04-04T11:49:37.537Z</time></trkpt><trkpt lat="44.6645777" lon="8.407267"><ele>161.0</ele><time>2026-04-04T11:49:38.538Z</time></trkpt><trkpt lat="44.6645322" lon="8.406992"><ele>162.0</ele><time>2026-04-04T11:49:39.538Z</time></trkpt><trkpt lat="44.664469" lon="8.4067227"><ele>162.33333333333334</ele><time>2026-04-04T11:49:40.538Z</time></trkpt><trkpt lat="44.6643975" lon="8.4064883"><ele>162.66666666666669</ele><time>2026-04-04T11:49:41.538Z</time></trkpt><trkpt lat="44.6643042" lon="8.4062359"><ele>163.0</ele><time>2026-04-04T11:49:42.537Z</time></trkpt><trkpt lat="44.6641905" lon="8.4059912"><ele>163.33333333333334</ele><time>2026-04-04T11:49:43.536Z</time></trkpt><trkpt lat="44.6640612" lon="8.4057589"><ele>163.66666666666666</ele><time>2026-04-04T11:49:44.537Z</time></trkpt><trkpt lat="44.6639197" lon="8.4055339"><ele>164.0</ele><time>2026-04-04T11:49:45.537Z</time></trkpt><trkpt lat="44.6637892" lon="8.4053145"><ele>164.33333333333331</ele><time>2026-04-04T11:49:46.538Z</time></trkpt><trkpt lat="44.6636686" lon="8.4050971"><ele>164.66666666666666</ele><time>2026-04-04T11:49:47.538Z</time></trkpt><trkpt lat="44.6635441" lon="8.4048734"><ele>165.0</ele><time>2026-04-04T11:49:48.537Z</time></trkpt><trkpt lat="44.6634178" lon="8.4046447"><ele>165.33333333333334</ele><time>2026-04-04T11:49:49.536Z</time></trkpt><trkpt lat="44.6632953" lon="8.404418"><ele>165.66666666666669</ele><time>2026-04-04T11:49:50.538Z</time></trkpt><trkpt lat="44.6631759" lon="8.404194"><ele>166.0</ele><time>2026-04-04T11:49:51.537Z</time></trkpt><trkpt lat="44.6630528" lon="8.4039677"><ele>165.66666666666669</ele><time>2026-04-04T11:49:52.538Z</time></trkpt><trkpt lat="44.6629285" lon="8.4037427"><ele>165.33333333333334</ele><time>2026-04-04T11:49:53.536Z</time></trkpt><trkpt lat="44.6628029" lon="8.4035179"><ele>165.0</ele><time>2026-04-04T11:49:54.537Z</time></trkpt><trkpt lat="44.6626789" lon="8.4032937"><ele>165.0</ele><time>2026-04-04T11:49:55.536Z</time></trkpt><trkpt lat="44.6625563" lon="8.4030705"><ele>165.0</ele><time>2026-04-04T11:49:56.538Z</time></trkpt><trkpt lat="44.662433" lon="8.4028511"><ele>165.0</ele><time>2026-04-04T11:49:57.538Z</time></trkpt><trkpt lat="44.662308" lon="8.4026267"><ele>165.0</ele><time>2026-04-04T11:49:58.538Z</time></trkpt><trkpt lat="44.6621839" lon="8.4023977"><ele>165.0</ele><time>2026-04-04T11:49:59.538Z</time></trkpt><trkpt lat="44.6620567" lon="8.4021655"><ele>165.0</ele><time>2026-04-04T11:50:00.538Z</time></trkpt><trkpt lat="44.661929" lon="8.4019319"><ele>165.33333333333334</ele><time>2026-04-04T11:50:01.539Z</time></trkpt><trkpt lat="44.6618034" lon="8.4016984"><ele>165.66666666666669</ele><time>2026-04-04T11:50:02.537Z</time></trkpt><trkpt lat="44.6616798" lon="8.4014619"><ele>166.0</ele><time>2026-04-04T11:50:03.538Z</time></trkpt><trkpt lat="44.6615627" lon="8.4012214"><ele>166.0</ele><time>2026-04-04T11:50:04.538Z</time></trkpt><trkpt lat="44.6614549" lon="8.400987"><ele>166.0</ele><time>2026-04-04T11:50:05.538Z</time></trkpt><trkpt lat="44.6613402" lon="8.4007478"><ele>166.0</ele><time>2026-04-04T11:50:06.538Z</time></trkpt><trkpt lat="44.6612211" lon="8.4005068"><ele>166.33333333333334</ele><time>2026-04-04T11:50:07.538Z</time></trkpt><trkpt lat="44.6611002" lon="8.4002669"><ele>166.66666666666666</ele><time>2026-04-04T11:50:08.538Z</time></trkpt><trkpt lat="44.660971" lon="8.4000209"><ele>167.0</ele><time>2026-04-04T11:50:09.538Z</time></trkpt><trkpt lat="44.6608509" lon="8.3997822"><ele>167.33333333333331</ele><time>2026-04-04T11:50:10.538Z</time></trkpt><trkpt lat="44.6607326" lon="8.3995403"><ele>167.66666666666666</ele><time>2026-04-04T11:50:11.538Z</time></trkpt><trkpt lat="44.6606101" lon="8.3992954"><ele>168.0</ele><time>2026-04-04T11:50:12.538Z</time></trkpt><trkpt lat="44.660489" lon="8.3990471"><ele>168.33333333333334</ele><time>2026-04-04T11:50:13.538Z</time></trkpt><trkpt lat="44.6603659" lon="8.3987934"><ele>168.66666666666669</ele><time>2026-04-04T11:50:14.538Z</time></trkpt><trkpt lat="44.6602413" lon="8.3985347"><ele>169.0</ele><time>2026-04-04T11:50:15.538Z</time></trkpt><trkpt lat="44.6601171" lon="8.3982797"><ele>168.33333333333334</ele><time>2026-04-04T11:50:16.538Z</time></trkpt><trkpt lat="44.6599925" lon="8.3980302"><ele>167.66666666666666</ele><time>2026-04-04T11:50:17.538Z</time></trkpt><trkpt lat="44.6598723" lon="8.3977891"><ele>167.0</ele><time>2026-04-04T11:50:18.538Z</time></trkpt><trkpt lat="44.6597523" lon="8.3975538"><ele>167.0</ele><time>2026-04-04T11:50:19.537Z</time></trkpt><trkpt lat="44.6596333" lon="8.3973197"><ele>167.0</ele><time>2026-04-04T11:50:20.538Z</time></trkpt><trkpt lat="44.6595134" lon="8.3970848"><ele>167.0</ele><time>2026-04-04T11:50:21.538Z</time></trkpt><trkpt lat="44.6593951" lon="8.3968519"><ele>167.0</ele><time>2026-04-04T11:50:22.538Z</time></trkpt><trkpt lat="44.6592776" lon="8.3966189"><ele>167.0</ele><time>2026-04-04T11:50:23.538Z</time></trkpt><trkpt lat="44.6591607" lon="8.3963755"><ele>167.0</ele><time>2026-04-04T11:50:24.538Z</time></trkpt><trkpt lat="44.6590446" lon="8.3961321"><ele>167.0</ele><time>2026-04-04T11:50:25.538Z</time></trkpt><trkpt lat="44.6589243" lon="8.3958937"><ele>167.0</ele><time>2026-04-04T11:50:26.538Z</time></trkpt><trkpt lat="44.6588094" lon="8.3956567"><ele>167.0</ele><time>2026-04-04T11:50:27.538Z</time></trkpt><trkpt lat="44.6587007" lon="8.3954312"><ele>167.33333333333331</ele><time>2026-04-04T11:50:28.538Z</time></trkpt><trkpt lat="44.6586022" lon="8.3952251"><ele>167.66666666666666</ele><time>2026-04-04T11:50:29.537Z</time></trkpt><trkpt lat="44.6585124" lon="8.3950336"><ele>168.0</ele><time>2026-04-04T11:50:30.537Z</time></trkpt><trkpt lat="44.6584216" lon="8.3948498"><ele>169.0</ele><time>2026-04-04T11:50:31.538Z</time></trkpt><trkpt lat="44.6583338" lon="8.3946682"><ele>170.0</ele><time>2026-04-04T11:50:32.539Z</time></trkpt><trkpt lat="44.6582459" lon="8.3944917"><ele>171.0</ele><time>2026-04-04T11:50:33.538Z</time></trkpt><trkpt lat="44.658165" lon="8.3943296"><ele>171.0</ele><time>2026-04-04T11:50:34.537Z</time></trkpt><trkpt lat="44.6580887" lon="8.3941768"><ele>171.0</ele><time>2026-04-04T11:50:35.538Z</time></trkpt><trkpt lat="44.6580156" lon="8.3940365"><ele>171.0</ele><time>2026-04-04T11:50:36.538Z</time></trkpt><trkpt lat="44.6579472" lon="8.3938998"><ele>171.0</ele><time>2026-04-04T11:50:37.539Z</time></trkpt><trkpt lat="44.6578697" lon="8.3937656"><ele>170.75</ele><time>2026-04-04T11:50:38.538Z</time></trkpt><trkpt lat="44.657786" lon="8.3936333"><ele>170.5</ele><time>2026-04-04T11:50:39.539Z</time></trkpt><trkpt lat="44.6577065" lon="8.3934999"><ele>170.25</ele><time>2026-04-04T11:50:40.538Z</time></trkpt><trkpt lat="44.6576537" lon="8.3933668"><ele>170.0</ele><time>2026-04-04T11:50:41.538Z</time></trkpt><trkpt lat="44.6576171" lon="8.3932066"><ele>170.0</ele><time>2026-04-04T11:50:42.538Z</time></trkpt><trkpt lat="44.6575726" lon="8.3930398"><ele>170.0</ele><time>2026-04-04T11:50:43.538Z</time></trkpt><trkpt lat="44.6574871" lon="8.3928802"><ele>170.0</ele><time>2026-04-04T11:50:44.538Z</time></trkpt><trkpt lat="44.6573974" lon="8.3927177"><ele>170.0</ele><time>2026-04-04T11:50:45.538Z</time></trkpt><trkpt lat="44.6573545" lon="8.3924998"><ele>170.33333333333331</ele><time>2026-04-04T11:50:46.539Z</time></trkpt><trkpt lat="44.6573253" lon="8.3922557"><ele>170.66666666666666</ele><time>2026-04-04T11:50:47.537Z</time></trkpt><trkpt lat="44.6572897" lon="8.3920353"><ele>171.0</ele><time>2026-04-04T11:50:48.539Z</time></trkpt><trkpt lat="44.6572434" lon="8.3918251"><ele>171.75</ele><time>2026-04-04T11:50:49.538Z</time></trkpt><trkpt lat="44.6572048" lon="8.3916222"><ele>172.5</ele><time>2026-04-04T11:50:50.539Z</time></trkpt><trkpt lat="44.6571676" lon="8.391418"><ele>173.25</ele><time>2026-04-04T11:50:51.539Z</time></trkpt><trkpt lat="44.6571458" lon="8.3912123"><ele>174.0</ele><time>2026-04-04T11:50:52.538Z</time></trkpt><trkpt lat="44.6571278" lon="8.3910066"><ele>174.5</ele><time>2026-04-04T11:50:53.538Z</time></trkpt><trkpt lat="44.6571237" lon="8.3908019"><ele>175.0</ele><time>2026-04-04T11:50:54.539Z</time></trkpt><trkpt lat="44.6571293" lon="8.3906005"><ele>175.5</ele><time>2026-04-04T11:50:55.539Z</time></trkpt><trkpt lat="44.6571355" lon="8.3904027"><ele>176.0</ele><time>2026-04-04T11:50:56.539Z</time></trkpt><trkpt lat="44.6571432" lon="8.3902002"><ele>176.0</ele><time>2026-04-04T11:50:57.538Z</time></trkpt><trkpt lat="44.6571544" lon="8.3899975"><ele>176.0</ele><time>2026-04-04T11:50:58.538Z</time></trkpt><trkpt lat="44.6571706" lon="8.389795"><ele>176.0</ele><time>2026-04-04T11:50:59.539Z</time></trkpt><trkpt lat="44.6571893" lon="8.3895962"><ele>176.0</ele><time>2026-04-04T11:51:00.539Z</time></trkpt><trkpt lat="44.6572032" lon="8.3893974"><ele>174.75</ele><time>2026-04-04T11:51:01.539Z</time></trkpt><trkpt lat="44.6572146" lon="8.3892092"><ele>173.5</ele><time>2026-04-04T11:51:02.539Z</time></trkpt><trkpt lat="44.6572282" lon="8.3890349"><ele>172.25</ele><time>2026-04-04T11:51:03.539Z</time></trkpt><trkpt lat="44.6572411" lon="8.3888714"><ele>171.0</ele><time>2026-04-04T11:51:04.539Z</time></trkpt><trkpt lat="44.6572531" lon="8.3886985"><ele>170.5</ele><time>2026-04-04T11:51:05.539Z</time></trkpt><trkpt lat="44.6572796" lon="8.3885192"><ele>170.0</ele><time>2026-04-04T11:51:06.539Z</time></trkpt><trkpt lat="44.6573007" lon="8.388335"><ele>169.5</ele><time>2026-04-04T11:51:07.539Z</time></trkpt><trkpt lat="44.6573157" lon="8.3881454"><ele>169.0</ele><time>2026-04-04T11:51:08.538Z</time></trkpt><trkpt lat="44.657338" lon="8.3879499"><ele>169.0</ele><time>2026-04-04T11:51:09.539Z</time></trkpt><trkpt lat="44.657352" lon="8.3877553"><ele>169.0</ele><time>2026-04-04T11:51:10.539Z</time></trkpt><trkpt lat="44.6573841" lon="8.3875635"><ele>169.0</ele><time>2026-04-04T11:51:11.539Z</time></trkpt><trkpt lat="44.6574295" lon="8.3873752"><ele>169.0</ele><time>2026-04-04T11:51:12.539Z</time></trkpt><trkpt lat="44.6574866" lon="8.3871936"><ele>169.25</ele><time>2026-04-04T11:51:13.539Z</time></trkpt><trkpt lat="44.6575569" lon="8.3870227"><ele>169.5</ele><time>2026-04-04T11:51:14.538Z</time></trkpt><trkpt lat="44.657624" lon="8.3868395"><ele>169.75</ele><time>2026-04-04T11:51:15.539Z</time></trkpt><trkpt lat="44.6576872" lon="8.3866473"><ele>170.0</ele><time>2026-04-04T11:51:16.539Z</time></trkpt><trkpt lat="44.6577422" lon="8.3864496"><ele>169.66666666666666</ele><time>2026-04-04T11:51:17.539Z</time></trkpt><trkpt lat="44.6578023" lon="8.3862533"><ele>169.33333333333334</ele><time>2026-04-04T11:51:18.539Z</time></trkpt><trkpt lat="44.6578582" lon="8.386057"><ele>169.0</ele><time>2026-04-04T11:51:19.54Z</time></trkpt><trkpt lat="44.6579171" lon="8.3858604"><ele>169.0</ele><time>2026-04-04T11:51:20.538Z</time></trkpt><trkpt lat="44.6579707" lon="8.3856718"><ele>169.0</ele><time>2026-04-04T11:51:21.539Z</time></trkpt><trkpt lat="44.6580157" lon="8.3854821"><ele>169.0</ele><time>2026-04-04T11:51:22.539Z</time></trkpt><trkpt lat="44.6580456" lon="8.385294"><ele>169.0</ele><time>2026-04-04T11:51:23.538Z</time></trkpt><trkpt lat="44.6580646" lon="8.3851164"><ele>169.25</ele><time>2026-04-04T11:51:24.539Z</time></trkpt><trkpt lat="44.6580791" lon="8.3849479"><ele>169.5</ele><time>2026-04-04T11:51:25.538Z</time></trkpt><trkpt lat="44.6580937" lon="8.3847766"><ele>169.75</ele><time>2026-04-04T11:51:26.539Z</time></trkpt><trkpt lat="44.6581084" lon="8.3845992"><ele>170.0</ele><time>2026-04-04T11:51:27.539Z</time></trkpt><trkpt lat="44.6581249" lon="8.3844215"><ele>170.5</ele><time>2026-04-04T11:51:28.539Z</time></trkpt><trkpt lat="44.6581419" lon="8.3842454"><ele>171.0</ele><time>2026-04-04T11:51:29.539Z</time></trkpt><trkpt lat="44.658156" lon="8.384078"><ele>171.5</ele><time>2026-04-04T11:51:30.539Z</time></trkpt><trkpt lat="44.6581689" lon="8.383916"><ele>172.0</ele><time>2026-04-04T11:51:31.539Z</time></trkpt><trkpt lat="44.6581762" lon="8.3837599"><ele>172.0</ele><time>2026-04-04T11:51:32.539Z</time></trkpt><trkpt lat="44.6581795" lon="8.3836008"><ele>172.0</ele><time>2026-04-04T11:51:33.539Z</time></trkpt><trkpt lat="44.6581789" lon="8.3834353"><ele>172.0</ele><time>2026-04-04T11:51:34.539Z</time></trkpt><trkpt lat="44.6581782" lon="8.3832698"><ele>172.0</ele><time>2026-04-04T11:51:35.54Z</time></trkpt><trkpt lat="44.6581788" lon="8.3830991"><ele>172.0</ele><time>2026-04-04T11:51:36.539Z</time></trkpt><trkpt lat="44.6581782" lon="8.3829278"><ele>172.0</ele><time>2026-04-04T11:51:37.539Z</time></trkpt><trkpt lat="44.658177" lon="8.382754"><ele>172.0</ele><time>2026-04-04T11:51:38.539Z</time></trkpt><trkpt lat="44.6581753" lon="8.3825802"><ele>172.0</ele><time>2026-04-04T11:51:39.539Z</time></trkpt><trkpt lat="44.6581726" lon="8.3824049"><ele>172.0</ele><time>2026-04-04T11:51:40.539Z</time></trkpt><trkpt lat="44.6581717" lon="8.3822294"><ele>172.0</ele><time>2026-04-04T11:51:41.539Z</time></trkpt><trkpt lat="44.6581727" lon="8.3820547"><ele>172.0</ele><time>2026-04-04T11:51:42.539Z</time></trkpt><trkpt lat="44.6581741" lon="8.3818781"><ele>172.0</ele><time>2026-04-04T11:51:43.539Z</time></trkpt><trkpt lat="44.658174" lon="8.3816935"><ele>172.0</ele><time>2026-04-04T11:51:44.54Z</time></trkpt><trkpt lat="44.6581733" lon="8.3815035"><ele>172.0</ele><time>2026-04-04T11:51:45.54Z</time></trkpt><trkpt lat="44.6581719" lon="8.3813127"><ele>172.0</ele><time>2026-04-04T11:51:46.539Z</time></trkpt><trkpt lat="44.6581712" lon="8.3811188"><ele>172.0</ele><time>2026-04-04T11:51:47.54Z</time></trkpt><trkpt lat="44.6581732" lon="8.3809248"><ele>172.0</ele><time>2026-04-04T11:51:48.539Z</time></trkpt><trkpt lat="44.6581722" lon="8.3807347"><ele>172.0</ele><time>2026-04-04T11:51:49.54Z</time></trkpt><trkpt lat="44.6581709" lon="8.3805618"><ele>172.0</ele><time>2026-04-04T11:51:50.54Z</time></trkpt><trkpt lat="44.6581674" lon="8.380405"><ele>172.0</ele><time>2026-04-04T11:51:51.54Z</time></trkpt><trkpt lat="44.6581649" lon="8.380264"><ele>172.39999999999998</ele><time>2026-04-04T11:51:52.54Z</time></trkpt><trkpt lat="44.6581636" lon="8.3801286"><ele>172.79999999999998</ele><time>2026-04-04T11:51:53.54Z</time></trkpt><trkpt lat="44.6581625" lon="8.3799952"><ele>173.2</ele><time>2026-04-04T11:51:54.54Z</time></trkpt><trkpt lat="44.6581641" lon="8.3798654"><ele>173.6</ele><time>2026-04-04T11:51:55.539Z</time></trkpt><trkpt lat="44.6581641" lon="8.3797371"><ele>174.0</ele><time>2026-04-04T11:51:56.539Z</time></trkpt><trkpt lat="44.6581648" lon="8.3796119"><ele>174.39999999999998</ele><time>2026-04-04T11:51:57.54Z</time></trkpt><trkpt lat="44.6581649" lon="8.3794873"><ele>174.8</ele><time>2026-04-04T11:51:58.539Z</time></trkpt><trkpt lat="44.658165" lon="8.3793513"><ele>175.2</ele><time>2026-04-04T11:51:59.54Z</time></trkpt><trkpt lat="44.6581678" lon="8.3792049"><ele>175.60000000000002</ele><time>2026-04-04T11:52:00.54Z</time></trkpt><trkpt lat="44.658173" lon="8.379052"><ele>176.0</ele><time>2026-04-04T11:52:01.54Z</time></trkpt><trkpt lat="44.6581791" lon="8.3788965"><ele>175.5</ele><time>2026-04-04T11:52:02.538Z</time></trkpt><trkpt lat="44.6581863" lon="8.3787382"><ele>175.0</ele><time>2026-04-04T11:52:03.538Z</time></trkpt><trkpt lat="44.6581945" lon="8.378575"><ele>174.5</ele><time>2026-04-04T11:52:04.539Z</time></trkpt><trkpt lat="44.6582075" lon="8.3784074"><ele>174.0</ele><time>2026-04-04T11:52:05.539Z</time></trkpt><trkpt lat="44.6582272" lon="8.378243"><ele>174.0</ele><time>2026-04-04T11:52:06.54Z</time></trkpt><trkpt lat="44.6582521" lon="8.3780784"><ele>174.0</ele><time>2026-04-04T11:52:07.539Z</time></trkpt><trkpt lat="44.6582812" lon="8.3779148"><ele>174.0</ele><time>2026-04-04T11:52:08.54Z</time></trkpt><trkpt lat="44.6583109" lon="8.3777472"><ele>174.0</ele><time>2026-04-04T11:52:09.54Z</time></trkpt><trkpt lat="44.6583379" lon="8.3775739"><ele>174.0</ele><time>2026-04-04T11:52:10.54Z</time></trkpt><trkpt lat="44.6583637" lon="8.3773939"><ele>174.0</ele><time>2026-04-04T11:52:11.54Z</time></trkpt><trkpt lat="44.6583919" lon="8.3772158"><ele>174.0</ele><time>2026-04-04T11:52:12.54Z</time></trkpt><trkpt lat="44.6584206" lon="8.3770333"><ele>174.0</ele><time>2026-04-04T11:52:13.54Z</time></trkpt><trkpt lat="44.6584499" lon="8.3768458"><ele>174.0</ele><time>2026-04-04T11:52:14.54Z</time></trkpt><trkpt lat="44.6584821" lon="8.3766545"><ele>174.0</ele><time>2026-04-04T11:52:15.54Z</time></trkpt><trkpt lat="44.6585137" lon="8.3764645"><ele>174.0</ele><time>2026-04-04T11:52:16.54Z</time></trkpt><trkpt lat="44.6585422" lon="8.3762857"><ele>174.0</ele><time>2026-04-04T11:52:17.54Z</time></trkpt><trkpt lat="44.6585705" lon="8.376117"><ele>174.0</ele><time>2026-04-04T11:52:18.539Z</time></trkpt><trkpt lat="44.658601" lon="8.375951"><ele>174.0</ele><time>2026-04-04T11:52:19.54Z</time></trkpt><trkpt lat="44.6586319" lon="8.3757825"><ele>174.0</ele><time>2026-04-04T11:52:20.54Z</time></trkpt><trkpt lat="44.6586631" lon="8.3756081"><ele>174.0</ele><time>2026-04-04T11:52:21.54Z</time></trkpt><trkpt lat="44.6586929" lon="8.3754305"><ele>173.75</ele><time>2026-04-04T11:52:22.541Z</time></trkpt><trkpt lat="44.6587221" lon="8.3752433"><ele>173.5</ele><time>2026-04-04T11:52:23.54Z</time></trkpt><trkpt lat="44.6587509" lon="8.3750613"><ele>173.25</ele><time>2026-04-04T11:52:24.539Z</time></trkpt><trkpt lat="44.6587762" lon="8.3748914"><ele>173.0</ele><time>2026-04-04T11:52:25.54Z</time></trkpt><trkpt lat="44.6588025" lon="8.3747283"><ele>172.5</ele><time>2026-04-04T11:52:26.539Z</time></trkpt><trkpt lat="44.6588296" lon="8.3745593"><ele>172.0</ele><time>2026-04-04T11:52:27.54Z</time></trkpt><trkpt lat="44.6588582" lon="8.3743883"><ele>171.5</ele><time>2026-04-04T11:52:28.541Z</time></trkpt><trkpt lat="44.6588852" lon="8.374223"><ele>171.0</ele><time>2026-04-04T11:52:29.54Z</time></trkpt><trkpt lat="44.6589113" lon="8.3740731"><ele>171.0</ele><time>2026-04-04T11:52:30.541Z</time></trkpt><trkpt lat="44.6589362" lon="8.3739267"><ele>171.0</ele><time>2026-04-04T11:52:31.541Z</time></trkpt><trkpt lat="44.6589627" lon="8.3737799"><ele>171.0</ele><time>2026-04-04T11:52:32.54Z</time></trkpt><trkpt lat="44.6589895" lon="8.3736324"><ele>171.0</ele><time>2026-04-04T11:52:33.54Z</time></trkpt><trkpt lat="44.6590147" lon="8.3734838"><ele>171.0</ele><time>2026-04-04T11:52:34.54Z</time></trkpt><trkpt lat="44.6590385" lon="8.3733339"><ele>171.0</ele><time>2026-04-04T11:52:35.54Z</time></trkpt><trkpt lat="44.65906" lon="8.3731756"><ele>171.0</ele><time>2026-04-04T11:52:36.54Z</time></trkpt><trkpt lat="44.6590781" lon="8.3730084"><ele>171.0</ele><time>2026-04-04T11:52:37.54Z</time></trkpt><trkpt lat="44.6590904" lon="8.3728377"><ele>171.0</ele><time>2026-04-04T11:52:38.54Z</time></trkpt><trkpt lat="44.6590955" lon="8.3726631"><ele>171.5</ele><time>2026-04-04T11:52:39.539Z</time></trkpt><trkpt lat="44.6590909" lon="8.3724795"><ele>172.0</ele><time>2026-04-04T11:52:40.54Z</time></trkpt><trkpt lat="44.6590758" lon="8.3722898"><ele>172.5</ele><time>2026-04-04T11:52:41.541Z</time></trkpt><trkpt lat="44.6590571" lon="8.3720983"><ele>173.0</ele><time>2026-04-04T11:52:42.541Z</time></trkpt><trkpt lat="44.6590366" lon="8.3719083"><ele>173.0</ele><time>2026-04-04T11:52:43.541Z</time></trkpt><trkpt lat="44.6590165" lon="8.3717204"><ele>173.0</ele><time>2026-04-04T11:52:44.54Z</time></trkpt><trkpt lat="44.6589998" lon="8.3715353"><ele>173.0</ele><time>2026-04-04T11:52:45.54Z</time></trkpt><trkpt lat="44.6589815" lon="8.3713624"><ele>173.0</ele><time>2026-04-04T11:52:46.541Z</time></trkpt><trkpt lat="44.658967" lon="8.3712037"><ele>173.0</ele><time>2026-04-04T11:52:47.54Z</time></trkpt><trkpt lat="44.6589525" lon="8.3710525"><ele>173.0</ele><time>2026-04-04T11:52:48.54Z</time></trkpt><trkpt lat="44.6589403" lon="8.3709097"><ele>173.0</ele><time>2026-04-04T11:52:49.541Z</time></trkpt><trkpt lat="44.6589329" lon="8.370776"><ele>173.0</ele><time>2026-04-04T11:52:50.541Z</time></trkpt><trkpt lat="44.6589285" lon="8.3706504"><ele>173.0</ele><time>2026-04-04T11:52:51.54Z</time></trkpt><trkpt lat="44.6589238" lon="8.3705328"><ele>172.66666666666666</ele><time>2026-04-04T11:52:52.54Z</time></trkpt><trkpt lat="44.6589207" lon="8.3704264"><ele>172.33333333333331</ele><time>2026-04-04T11:52:53.54Z</time></trkpt><trkpt lat="44.6589171" lon="8.3703338"><ele>172.0</ele><time>2026-04-04T11:52:54.54Z</time></trkpt><trkpt lat="44.6589256" lon="8.3702001"><ele>171.66666666666666</ele><time>2026-04-04T11:52:56.54Z</time></trkpt><trkpt lat="44.6590046" lon="8.370088"><ele>171.33333333333334</ele><time>2026-04-04T11:52:58.54Z</time></trkpt><trkpt lat="44.6590814" lon="8.3700592"><ele>171.0</ele><time>2026-04-04T11:52:59.54Z</time></trkpt><trkpt lat="44.6591787" lon="8.370048"><ele>171.0</ele><time>2026-04-04T11:53:00.541Z</time></trkpt><trkpt lat="44.6592904" lon="8.3700376"><ele>171.0</ele><time>2026-04-04T11:53:01.54Z</time></trkpt><trkpt lat="44.6594037" lon="8.3700252"><ele>171.0</ele><time>2026-04-04T11:53:02.54Z</time></trkpt><trkpt lat="44.6595087" lon="8.370002"><ele>171.0</ele><time>2026-04-04T11:53:03.541Z</time></trkpt><trkpt lat="44.6596187" lon="8.3699799"><ele>171.0</ele><time>2026-04-04T11:53:04.541Z</time></trkpt><trkpt lat="44.6597345" lon="8.3699582"><ele>172.25</ele><time>2026-04-04T11:53:05.541Z</time></trkpt><trkpt lat="44.6598579" lon="8.369934"><ele>173.5</ele><time>2026-04-04T11:53:06.54Z</time></trkpt><trkpt lat="44.6599852" lon="8.3699012"><ele>174.75</ele><time>2026-04-04T11:53:07.541Z</time></trkpt><trkpt lat="44.6601157" lon="8.369868"><ele>176.0</ele><time>2026-04-04T11:53:08.541Z</time></trkpt><trkpt lat="44.6602478" lon="8.3698416"><ele>176.0</ele><time>2026-04-04T11:53:09.541Z</time></trkpt><trkpt lat="44.6603737" lon="8.3698162"><ele>176.0</ele><time>2026-04-04T11:53:10.541Z</time></trkpt><trkpt lat="44.6604951" lon="8.3697958"><ele>176.0</ele><time>2026-04-04T11:53:11.54Z</time></trkpt><trkpt lat="44.6606099" lon="8.3697674"><ele>176.0</ele><time>2026-04-04T11:53:12.541Z</time></trkpt><trkpt lat="44.6607207" lon="8.3697368"><ele>176.0</ele><time>2026-04-04T11:53:13.541Z</time></trkpt><trkpt lat="44.6608274" lon="8.3697042"><ele>176.0</ele><time>2026-04-04T11:53:14.541Z</time></trkpt><trkpt lat="44.6609313" lon="8.3696794"><ele>176.0</ele><time>2026-04-04T11:53:15.542Z</time></trkpt><trkpt lat="44.6610233" lon="8.3696621"><ele>176.0</ele><time>2026-04-04T11:53:16.541Z</time></trkpt><trkpt lat="44.6611173" lon="8.3696356"><ele>176.0</ele><time>2026-04-04T11:53:17.541Z</time></trkpt><trkpt lat="44.6612107" lon="8.3696052"><ele>176.8</ele><time>2026-04-04T11:53:18.541Z</time></trkpt><trkpt lat="44.6613165" lon="8.3695723"><ele>177.60000000000002</ele><time>2026-04-04T11:53:19.541Z</time></trkpt><trkpt lat="44.6614234" lon="8.3695399"><ele>178.4</ele><time>2026-04-04T11:53:20.541Z</time></trkpt><trkpt lat="44.6615235" lon="8.3695097"><ele>179.2</ele><time>2026-04-04T11:53:21.541Z</time></trkpt><trkpt lat="44.6616238" lon="8.3694808"><ele>180.0</ele><time>2026-04-04T11:53:22.541Z</time></trkpt><trkpt lat="44.6617298" lon="8.3694802"><ele>180.0</ele><time>2026-04-04T11:53:23.541Z</time></trkpt><trkpt lat="44.6618406" lon="8.3695042"><ele>180.0</ele><time>2026-04-04T11:53:24.541Z</time></trkpt><trkpt lat="44.6619455" lon="8.3695522"><ele>180.0</ele><time>2026-04-04T11:53:25.541Z</time></trkpt><trkpt lat="44.6620512" lon="8.3696112"><ele>180.0</ele><time>2026-04-04T11:53:26.54Z</time></trkpt><trkpt lat="44.6621528" lon="8.3696667"><ele>180.0</ele><time>2026-04-04T11:53:27.541Z</time></trkpt><trkpt lat="44.6622489" lon="8.3697111"><ele>180.2</ele><time>2026-04-04T11:53:28.541Z</time></trkpt><trkpt lat="44.6623558" lon="8.3697516"><ele>180.4</ele><time>2026-04-04T11:53:29.541Z</time></trkpt><trkpt lat="44.662463" lon="8.3697887"><ele>180.60000000000002</ele><time>2026-04-04T11:53:30.541Z</time></trkpt><trkpt lat="44.6625664" lon="8.3698359"><ele>180.8</ele><time>2026-04-04T11:53:31.541Z</time></trkpt><trkpt lat="44.6626635" lon="8.3698846"><ele>181.0</ele><time>2026-04-04T11:53:32.541Z</time></trkpt><trkpt lat="44.6627631" lon="8.3699202"><ele>181.0</ele><time>2026-04-04T11:53:33.541Z</time></trkpt><trkpt lat="44.6628367" lon="8.3699389"><ele>181.0</ele><time>2026-04-04T11:53:34.541Z</time></trkpt><trkpt lat="44.6628996" lon="8.3698511"><ele>181.0</ele><time>2026-04-04T11:53:36.541Z</time></trkpt><trkpt lat="44.6628866" lon="8.3697583"><ele>181.0</ele><time>2026-04-04T11:53:37.541Z</time></trkpt><trkpt lat="44.6628485" lon="8.3696397"><ele>181.0</ele><time>2026-04-04T11:53:38.541Z</time></trkpt><trkpt lat="44.6628083" lon="8.3695196"><ele>181.0</ele><time>2026-04-04T11:53:39.54Z</time></trkpt><trkpt lat="44.6627698" lon="8.3693848"><ele>181.0</ele><time>2026-04-04T11:53:40.541Z</time></trkpt><trkpt lat="44.6627299" lon="8.3692152"><ele>181.0</ele><time>2026-04-04T11:53:41.541Z</time></trkpt><trkpt lat="44.6626912" lon="8.3690409"><ele>181.0</ele><time>2026-04-04T11:53:42.542Z</time></trkpt><trkpt lat="44.6626507" lon="8.3688518"><ele>181.0</ele><time>2026-04-04T11:53:43.54Z</time></trkpt><trkpt lat="44.6626139" lon="8.3686803"><ele>180.75</ele><time>2026-04-04T11:53:44.541Z</time></trkpt><trkpt lat="44.6625699" lon="8.3685042"><ele>180.5</ele><time>2026-04-04T11:53:45.54Z</time></trkpt><trkpt lat="44.6625384" lon="8.3683431"><ele>180.25</ele><time>2026-04-04T11:53:46.541Z</time></trkpt><trkpt lat="44.662508" lon="8.3681828"><ele>180.0</ele><time>2026-04-04T11:53:47.541Z</time></trkpt><trkpt lat="44.6624734" lon="8.3680323"><ele>179.25</ele><time>2026-04-04T11:53:48.541Z</time></trkpt><trkpt lat="44.6624332" lon="8.3678974"><ele>178.5</ele><time>2026-04-04T11:53:49.541Z</time></trkpt><trkpt lat="44.6623961" lon="8.3677301"><ele>177.75</ele><time>2026-04-04T11:53:50.541Z</time></trkpt><trkpt lat="44.6623825" lon="8.3675426"><ele>177.0</ele><time>2026-04-04T11:53:51.542Z</time></trkpt><trkpt lat="44.6623929" lon="8.3673359"><ele>175.66666666666666</ele><time>2026-04-04T11:53:52.542Z</time></trkpt><trkpt lat="44.6624362" lon="8.3671224"><ele>174.33333333333331</ele><time>2026-04-04T11:53:53.541Z</time></trkpt><trkpt lat="44.662482" lon="8.3669097"><ele>173.0</ele><time>2026-04-04T11:53:54.542Z</time></trkpt><trkpt lat="44.662528" lon="8.3667008"><ele>173.0</ele><time>2026-04-04T11:53:55.542Z</time></trkpt><trkpt lat="44.6625715" lon="8.3664931"><ele>173.0</ele><time>2026-04-04T11:53:56.542Z</time></trkpt><trkpt lat="44.6626071" lon="8.3662839"><ele>173.0</ele><time>2026-04-04T11:53:57.542Z</time></trkpt><trkpt lat="44.6626423" lon="8.3660673"><ele>172.0</ele><time>2026-04-04T11:53:58.542Z</time></trkpt><trkpt lat="44.6626825" lon="8.3658446"><ele>171.0</ele><time>2026-04-04T11:53:59.542Z</time></trkpt><trkpt lat="44.6627265" lon="8.3656388"><ele>170.0</ele><time>2026-04-04T11:54:00.541Z</time></trkpt><trkpt lat="44.6627792" lon="8.365438"><ele>172.0</ele><time>2026-04-04T11:54:01.542Z</time></trkpt><trkpt lat="44.6628461" lon="8.3652467"><ele>174.0</ele><time>2026-04-04T11:54:02.542Z</time></trkpt><trkpt lat="44.6629219" lon="8.3650513"><ele>176.0</ele><time>2026-04-04T11:54:03.541Z</time></trkpt><trkpt lat="44.6630033" lon="8.3648486"><ele>175.0</ele><time>2026-04-04T11:54:04.542Z</time></trkpt><trkpt lat="44.6630826" lon="8.3646428"><ele>174.0</ele><time>2026-04-04T11:54:05.542Z</time></trkpt><trkpt lat="44.6631545" lon="8.3644406"><ele>173.0</ele><time>2026-04-04T11:54:06.542Z</time></trkpt><trkpt lat="44.6632149" lon="8.364249"><ele>173.0</ele><time>2026-04-04T11:54:07.542Z</time></trkpt><trkpt lat="44.6632665" lon="8.3640659"><ele>173.0</ele><time>2026-04-04T11:54:08.542Z</time></trkpt><trkpt lat="44.663299" lon="8.3638908"><ele>173.0</ele><time>2026-04-04T11:54:09.541Z</time></trkpt><trkpt lat="44.6632937" lon="8.3637118"><ele>173.0</ele><time>2026-04-04T11:54:10.542Z</time></trkpt><trkpt lat="44.6632499" lon="8.3635332"><ele>173.0</ele><time>2026-04-04T11:54:11.542Z</time></trkpt><trkpt lat="44.6631625" lon="8.3633501"><ele>173.0</ele><time>2026-04-04T11:54:12.542Z</time></trkpt><trkpt lat="44.6630531" lon="8.3631749"><ele>173.0</ele><time>2026-04-04T11:54:13.542Z</time></trkpt><trkpt lat="44.6629443" lon="8.3629971"><ele>174.33333333333331</ele><time>2026-04-04T11:54:14.542Z</time></trkpt><trkpt lat="44.6628361" lon="8.3628104"><ele>175.66666666666666</ele><time>2026-04-04T11:54:15.542Z</time></trkpt><trkpt lat="44.6627355" lon="8.3626191"><ele>177.0</ele><time>2026-04-04T11:54:16.542Z</time></trkpt><trkpt lat="44.6626295" lon="8.3624189"><ele>174.66666666666666</ele><time>2026-04-04T11:54:17.542Z</time></trkpt><trkpt lat="44.6625208" lon="8.3622168"><ele>172.33333333333331</ele><time>2026-04-04T11:54:18.542Z</time></trkpt><trkpt lat="44.6624082" lon="8.3620111"><ele>170.0</ele><time>2026-04-04T11:54:19.541Z</time></trkpt><trkpt lat="44.6622956" lon="8.3617965"><ele>170.0</ele><time>2026-04-04T11:54:20.541Z</time></trkpt><trkpt lat="44.6621816" lon="8.3615772"><ele>170.0</ele><time>2026-04-04T11:54:21.542Z</time></trkpt><trkpt lat="44.6620656" lon="8.3613514"><ele>170.0</ele><time>2026-04-04T11:54:22.542Z</time></trkpt><trkpt lat="44.6619474" lon="8.361125"><ele>169.0</ele><time>2026-04-04T11:54:23.542Z</time></trkpt><trkpt lat="44.6618308" lon="8.3609042"><ele>168.0</ele><time>2026-04-04T11:54:24.542Z</time></trkpt><trkpt lat="44.6617165" lon="8.3606868"><ele>167.0</ele><time>2026-04-04T11:54:25.542Z</time></trkpt><trkpt lat="44.6616041" lon="8.360471"><ele>166.33333333333331</ele><time>2026-04-04T11:54:26.542Z</time></trkpt><trkpt lat="44.6614898" lon="8.3602618"><ele>165.66666666666666</ele><time>2026-04-04T11:54:27.542Z</time></trkpt><trkpt lat="44.6614062" lon="8.3600407"><ele>165.0</ele><time>2026-04-04T11:54:28.542Z</time></trkpt><trkpt lat="44.6613544" lon="8.3597838"><ele>165.66666666666666</ele><time>2026-04-04T11:54:29.542Z</time></trkpt><trkpt lat="44.6613256" lon="8.359503"><ele>166.33333333333331</ele><time>2026-04-04T11:54:30.541Z</time></trkpt><trkpt lat="44.6613073" lon="8.3592303"><ele>167.0</ele><time>2026-04-04T11:54:31.542Z</time></trkpt><trkpt lat="44.6612766" lon="8.3589465"><ele>168.33333333333331</ele><time>2026-04-04T11:54:32.542Z</time></trkpt><trkpt lat="44.661239" lon="8.3586656"><ele>169.66666666666666</ele><time>2026-04-04T11:54:33.542Z</time></trkpt><trkpt lat="44.6612032" lon="8.3583994"><ele>171.0</ele><time>2026-04-04T11:54:34.542Z</time></trkpt><trkpt lat="44.6611739" lon="8.3581527"><ele>171.33333333333334</ele><time>2026-04-04T11:54:35.542Z</time></trkpt><trkpt lat="44.6611457" lon="8.3579163"><ele>171.66666666666669</ele><time>2026-04-04T11:54:36.542Z</time></trkpt><trkpt lat="44.6611177" lon="8.3576728"><ele>172.0</ele><time>2026-04-04T11:54:37.542Z</time></trkpt><trkpt lat="44.6610863" lon="8.3574185"><ele>169.66666666666669</ele><time>2026-04-04T11:54:38.541Z</time></trkpt><trkpt lat="44.661058" lon="8.3571537"><ele>167.33333333333334</ele><time>2026-04-04T11:54:39.542Z</time></trkpt><trkpt lat="44.6610338" lon="8.3568774"><ele>165.0</ele><time>2026-04-04T11:54:40.542Z</time></trkpt><trkpt lat="44.6610054" lon="8.3565926"><ele>165.66666666666666</ele><time>2026-04-04T11:54:41.541Z</time></trkpt><trkpt lat="44.6609725" lon="8.3563019"><ele>166.33333333333331</ele><time>2026-04-04T11:54:42.542Z</time></trkpt><trkpt lat="44.660937" lon="8.3560151"><ele>167.0</ele><time>2026-04-04T11:54:43.542Z</time></trkpt><trkpt lat="44.6609004" lon="8.3557311"><ele>168.0</ele><time>2026-04-04T11:54:44.542Z</time></trkpt><trkpt lat="44.6608743" lon="8.3554446"><ele>169.0</ele><time>2026-04-04T11:54:45.542Z</time></trkpt><trkpt lat="44.6608489" lon="8.3551564"><ele>170.0</ele><time>2026-04-04T11:54:46.542Z</time></trkpt><trkpt lat="44.6608276" lon="8.354881"><ele>170.0</ele><time>2026-04-04T11:54:47.541Z</time></trkpt><trkpt lat="44.6608058" lon="8.3545968"><ele>170.0</ele><time>2026-04-04T11:54:48.542Z</time></trkpt><trkpt lat="44.6607734" lon="8.3543224"><ele>170.0</ele><time>2026-04-04T11:54:49.541Z</time></trkpt><trkpt lat="44.6607423" lon="8.3540523"><ele>170.66666666666666</ele><time>2026-04-04T11:54:50.542Z</time></trkpt><trkpt lat="44.6607064" lon="8.3537784"><ele>171.33333333333334</ele><time>2026-04-04T11:54:51.542Z</time></trkpt><trkpt lat="44.6606594" lon="8.3534956"><ele>172.0</ele><time>2026-04-04T11:54:52.542Z</time></trkpt><trkpt lat="44.6606203" lon="8.3532199"><ele>173.66666666666669</ele><time>2026-04-04T11:54:53.542Z</time></trkpt><trkpt lat="44.6605839" lon="8.3529461"><ele>175.33333333333334</ele><time>2026-04-04T11:54:54.541Z</time></trkpt><trkpt lat="44.6605506" lon="8.3526724"><ele>177.0</ele><time>2026-04-04T11:54:55.543Z</time></trkpt><trkpt lat="44.6605213" lon="8.3524028"><ele>179.66666666666666</ele><time>2026-04-04T11:54:56.541Z</time></trkpt><trkpt lat="44.6604937" lon="8.3521364"><ele>182.33333333333331</ele><time>2026-04-04T11:54:57.543Z</time></trkpt><trkpt lat="44.6604632" lon="8.351879"><ele>185.0</ele><time>2026-04-04T11:54:58.541Z</time></trkpt><trkpt lat="44.6604254" lon="8.3516434"><ele>185.0</ele><time>2026-04-04T11:54:59.543Z</time></trkpt><trkpt lat="44.6603694" lon="8.3514347"><ele>185.0</ele><time>2026-04-04T11:55:00.542Z</time></trkpt><trkpt lat="44.6603143" lon="8.3512454"><ele>185.0</ele><time>2026-04-04T11:55:01.543Z</time></trkpt><trkpt lat="44.6602682" lon="8.3510324"><ele>182.33333333333331</ele><time>2026-04-04T11:55:02.543Z</time></trkpt><trkpt lat="44.6602455" lon="8.3507812"><ele>179.66666666666666</ele><time>2026-04-04T11:55:03.543Z</time></trkpt><trkpt lat="44.6602387" lon="8.3505244"><ele>177.0</ele><time>2026-04-04T11:55:04.542Z</time></trkpt><trkpt lat="44.660258" lon="8.3502649"><ele>177.0</ele><time>2026-04-04T11:55:05.543Z</time></trkpt><trkpt lat="44.6602665" lon="8.3500168"><ele>177.0</ele><time>2026-04-04T11:55:06.543Z</time></trkpt><trkpt lat="44.6602739" lon="8.3497744"><ele>177.0</ele><time>2026-04-04T11:55:07.543Z</time></trkpt><trkpt lat="44.6602685" lon="8.349541"><ele>177.66666666666666</ele><time>2026-04-04T11:55:08.543Z</time></trkpt><trkpt lat="44.6602472" lon="8.3492953"><ele>178.33333333333331</ele><time>2026-04-04T11:55:09.542Z</time></trkpt><trkpt lat="44.6602397" lon="8.3490548"><ele>179.0</ele><time>2026-04-04T11:55:10.543Z</time></trkpt><trkpt lat="44.6602382" lon="8.3488069"><ele>179.66666666666666</ele><time>2026-04-04T11:55:11.541Z</time></trkpt><trkpt lat="44.6602361" lon="8.3485649"><ele>180.33333333333334</ele><time>2026-04-04T11:55:12.542Z</time></trkpt><trkpt lat="44.6602393" lon="8.3483212"><ele>181.0</ele><time>2026-04-04T11:55:13.542Z</time></trkpt><trkpt lat="44.6602335" lon="8.348084"><ele>182.0</ele><time>2026-04-04T11:55:14.543Z</time></trkpt><trkpt lat="44.6602354" lon="8.3478707"><ele>183.0</ele><time>2026-04-04T11:55:15.543Z</time></trkpt><trkpt lat="44.6602305" lon="8.3476764"><ele>184.0</ele><time>2026-04-04T11:55:16.543Z</time></trkpt><trkpt lat="44.6602289" lon="8.3474997"><ele>185.0</ele><time>2026-04-04T11:55:17.543Z</time></trkpt><trkpt lat="44.6602115" lon="8.3473171"><ele>186.66666666666666</ele><time>2026-04-04T11:55:18.543Z</time></trkpt><trkpt lat="44.6601741" lon="8.3471161"><ele>188.33333333333334</ele><time>2026-04-04T11:55:19.543Z</time></trkpt><trkpt lat="44.6601086" lon="8.3469226"><ele>190.0</ele><time>2026-04-04T11:55:20.543Z</time></trkpt><trkpt lat="44.6600119" lon="8.3467491"><ele>190.0</ele><time>2026-04-04T11:55:21.543Z</time></trkpt><trkpt lat="44.6598917" lon="8.3465954"><ele>190.0</ele><time>2026-04-04T11:55:22.543Z</time></trkpt><trkpt lat="44.6597808" lon="8.3464454"><ele>190.0</ele><time>2026-04-04T11:55:23.543Z</time></trkpt><trkpt lat="44.659679" lon="8.3462908"><ele>189.66666666666669</ele><time>2026-04-04T11:55:24.543Z</time></trkpt><trkpt lat="44.659583" lon="8.346128"><ele>189.33333333333334</ele><time>2026-04-04T11:55:25.543Z</time></trkpt><trkpt lat="44.6594832" lon="8.3459651"><ele>189.0</ele><time>2026-04-04T11:55:26.543Z</time></trkpt><trkpt lat="44.6593824" lon="8.3458049"><ele>189.0</ele><time>2026-04-04T11:55:27.543Z</time></trkpt><trkpt lat="44.6592847" lon="8.345639"><ele>189.0</ele><time>2026-04-04T11:55:28.543Z</time></trkpt><trkpt lat="44.6591896" lon="8.3454596"><ele>189.0</ele><time>2026-04-04T11:55:29.543Z</time></trkpt><trkpt lat="44.6591115" lon="8.3452666"><ele>189.66666666666666</ele><time>2026-04-04T11:55:30.543Z</time></trkpt><trkpt lat="44.6590571" lon="8.3450529"><ele>190.33333333333331</ele><time>2026-04-04T11:55:31.543Z</time></trkpt><trkpt lat="44.6590223" lon="8.3448214"><ele>191.0</ele><time>2026-04-04T11:55:32.543Z</time></trkpt><trkpt lat="44.6590052" lon="8.3445709"><ele>191.0</ele><time>2026-04-04T11:55:33.543Z</time></trkpt><trkpt lat="44.6589925" lon="8.3443384"><ele>191.0</ele><time>2026-04-04T11:55:34.543Z</time></trkpt><trkpt lat="44.6589913" lon="8.3441275"><ele>191.0</ele><time>2026-04-04T11:55:35.543Z</time></trkpt><trkpt lat="44.6589968" lon="8.3439378"><ele>191.0</ele><time>2026-04-04T11:55:36.543Z</time></trkpt><trkpt lat="44.6589985" lon="8.3437589"><ele>191.0</ele><time>2026-04-04T11:55:37.543Z</time></trkpt><trkpt lat="44.658986" lon="8.3435798"><ele>191.0</ele><time>2026-04-04T11:55:38.543Z</time></trkpt><trkpt lat="44.6589519" lon="8.3434057"><ele>191.0</ele><time>2026-04-04T11:55:39.543Z</time></trkpt><trkpt lat="44.6588793" lon="8.3432288"><ele>191.0</ele><time>2026-04-04T11:55:40.543Z</time></trkpt><trkpt lat="44.6587901" lon="8.3430625"><ele>191.0</ele><time>2026-04-04T11:55:41.543Z</time></trkpt><trkpt lat="44.6586606" lon="8.3429088"><ele>191.0</ele><time>2026-04-04T11:55:42.543Z</time></trkpt><trkpt lat="44.658517" lon="8.3427861"><ele>192.33333333333331</ele><time>2026-04-04T11:55:43.542Z</time></trkpt><trkpt lat="44.6583509" lon="8.3427013"><ele>193.66666666666666</ele><time>2026-04-04T11:55:44.543Z</time></trkpt><trkpt lat="44.6581902" lon="8.3426428"><ele>195.0</ele><time>2026-04-04T11:55:45.543Z</time></trkpt><trkpt lat="44.6580344" lon="8.3425817"><ele>195.0</ele><time>2026-04-04T11:55:46.543Z</time></trkpt><trkpt lat="44.65789" lon="8.3425021"><ele>195.0</ele><time>2026-04-04T11:55:47.543Z</time></trkpt><trkpt lat="44.6577324" lon="8.3424237"><ele>195.0</ele><time>2026-04-04T11:55:48.543Z</time></trkpt><trkpt lat="44.6575713" lon="8.3423453"><ele>194.66666666666669</ele><time>2026-04-04T11:55:49.542Z</time></trkpt><trkpt lat="44.6574062" lon="8.3422605"><ele>194.33333333333334</ele><time>2026-04-04T11:55:50.543Z</time></trkpt><trkpt lat="44.6572387" lon="8.3421727"><ele>194.0</ele><time>2026-04-04T11:55:51.543Z</time></trkpt><trkpt lat="44.657071" lon="8.3420879"><ele>194.66666666666669</ele><time>2026-04-04T11:55:52.542Z</time></trkpt><trkpt lat="44.6569024" lon="8.3420014"><ele>195.33333333333331</ele><time>2026-04-04T11:55:53.543Z</time></trkpt><trkpt lat="44.6567444" lon="8.3419189"><ele>196.0</ele><time>2026-04-04T11:55:54.544Z</time></trkpt><trkpt lat="44.656602" lon="8.3418471"><ele>196.0</ele><time>2026-04-04T11:55:55.544Z</time></trkpt><trkpt lat="44.6564659" lon="8.3417765"><ele>196.0</ele><time>2026-04-04T11:55:56.543Z</time></trkpt><trkpt lat="44.6563208" lon="8.341704"><ele>196.0</ele><time>2026-04-04T11:55:57.544Z</time></trkpt><trkpt lat="44.6561659" lon="8.3416209"><ele>195.33333333333331</ele><time>2026-04-04T11:55:58.543Z</time></trkpt><trkpt lat="44.6560064" lon="8.3415336"><ele>194.66666666666669</ele><time>2026-04-04T11:55:59.544Z</time></trkpt><trkpt lat="44.6558437" lon="8.341449"><ele>194.0</ele><time>2026-04-04T11:56:00.544Z</time></trkpt><trkpt lat="44.6556793" lon="8.3413718"><ele>194.0</ele><time>2026-04-04T11:56:01.544Z</time></trkpt><trkpt lat="44.6555101" lon="8.3412942"><ele>194.0</ele><time>2026-04-04T11:56:02.543Z</time></trkpt><trkpt lat="44.6553347" lon="8.3412231"><ele>194.0</ele><time>2026-04-04T11:56:03.543Z</time></trkpt><trkpt lat="44.6551538" lon="8.3411728"><ele>194.0</ele><time>2026-04-04T11:56:04.543Z</time></trkpt><trkpt lat="44.6549706" lon="8.3411435"><ele>194.0</ele><time>2026-04-04T11:56:05.544Z</time></trkpt><trkpt lat="44.6547932" lon="8.3411209"><ele>194.0</ele><time>2026-04-04T11:56:06.544Z</time></trkpt><trkpt lat="44.654617" lon="8.3411041"><ele>191.66666666666669</ele><time>2026-04-04T11:56:07.543Z</time></trkpt><trkpt lat="44.6544458" lon="8.3410852"><ele>189.33333333333334</ele><time>2026-04-04T11:56:08.543Z</time></trkpt><trkpt lat="44.6542815" lon="8.3410588"><ele>187.0</ele><time>2026-04-04T11:56:09.543Z</time></trkpt><trkpt lat="44.654128" lon="8.3410324"><ele>187.0</ele><time>2026-04-04T11:56:10.544Z</time></trkpt><trkpt lat="44.6539755" lon="8.3410066"><ele>187.0</ele><time>2026-04-04T11:56:11.544Z</time></trkpt><trkpt lat="44.6538185" lon="8.3409886"><ele>187.0</ele><time>2026-04-04T11:56:12.543Z</time></trkpt><trkpt lat="44.6536669" lon="8.3410079"><ele>183.33333333333334</ele><time>2026-04-04T11:56:13.544Z</time></trkpt><trkpt lat="44.653511" lon="8.3410518"><ele>179.66666666666666</ele><time>2026-04-04T11:56:14.544Z</time></trkpt><trkpt lat="44.653375" lon="8.3411119"><ele>176.0</ele><time>2026-04-04T11:56:15.544Z</time></trkpt><trkpt lat="44.6532291" lon="8.3411744"><ele>176.0</ele><time>2026-04-04T11:56:16.544Z</time></trkpt><trkpt lat="44.6530741" lon="8.3412459"><ele>176.0</ele><time>2026-04-04T11:56:17.544Z</time></trkpt><trkpt lat="44.6529227" lon="8.341295"><ele>176.0</ele><time>2026-04-04T11:56:18.543Z</time></trkpt><trkpt lat="44.652755" lon="8.3413561"><ele>177.33333333333331</ele><time>2026-04-04T11:56:19.544Z</time></trkpt><trkpt lat="44.6526038" lon="8.3414228"><ele>178.66666666666666</ele><time>2026-04-04T11:56:20.544Z</time></trkpt><trkpt lat="44.6524508" lon="8.341516"><ele>180.0</ele><time>2026-04-04T11:56:21.544Z</time></trkpt><trkpt lat="44.6522989" lon="8.341638"><ele>180.0</ele><time>2026-04-04T11:56:22.544Z</time></trkpt><trkpt lat="44.6521477" lon="8.3417508"><ele>180.0</ele><time>2026-04-04T11:56:23.544Z</time></trkpt><trkpt lat="44.6519805" lon="8.3418441"><ele>180.0</ele><time>2026-04-04T11:56:24.544Z</time></trkpt><trkpt lat="44.6518059" lon="8.3419063"><ele>181.33333333333334</ele><time>2026-04-04T11:56:25.544Z</time></trkpt><trkpt lat="44.651629" lon="8.3419587"><ele>182.66666666666669</ele><time>2026-04-04T11:56:26.544Z</time></trkpt><trkpt lat="44.6514593" lon="8.3420082"><ele>184.0</ele><time>2026-04-04T11:56:27.543Z</time></trkpt><trkpt lat="44.6512896" lon="8.3420646"><ele>185.66666666666669</ele><time>2026-04-04T11:56:28.544Z</time></trkpt><trkpt lat="44.6511198" lon="8.3421218"><ele>187.33333333333334</ele><time>2026-04-04T11:56:29.543Z</time></trkpt><trkpt lat="44.6509511" lon="8.3421742"><ele>189.0</ele><time>2026-04-04T11:56:30.544Z</time></trkpt><trkpt lat="44.6507818" lon="8.3422314"><ele>186.0</ele><time>2026-04-04T11:56:31.543Z</time></trkpt><trkpt lat="44.6506112" lon="8.3422881"><ele>183.0</ele><time>2026-04-04T11:56:32.544Z</time></trkpt><trkpt lat="44.6504401" lon="8.3423364"><ele>180.0</ele><time>2026-04-04T11:56:33.544Z</time></trkpt><trkpt lat="44.6502762" lon="8.342385"><ele>180.0</ele><time>2026-04-04T11:56:34.543Z</time></trkpt><trkpt lat="44.6501194" lon="8.3424119"><ele>180.0</ele><time>2026-04-04T11:56:35.544Z</time></trkpt><trkpt lat="44.6499593" lon="8.3424117"><ele>180.0</ele><time>2026-04-04T11:56:36.543Z</time></trkpt><trkpt lat="44.6497922" lon="8.3423995"><ele>180.0</ele><time>2026-04-04T11:56:37.544Z</time></trkpt><trkpt lat="44.6496301" lon="8.3423637"><ele>180.0</ele><time>2026-04-04T11:56:38.544Z</time></trkpt><trkpt lat="44.6494772" lon="8.3423354"><ele>180.0</ele><time>2026-04-04T11:56:39.544Z</time></trkpt><trkpt lat="44.6493329" lon="8.3422983"><ele>182.66666666666666</ele><time>2026-04-04T11:56:40.544Z</time></trkpt><trkpt lat="44.6491899" lon="8.3422121"><ele>185.33333333333331</ele><time>2026-04-04T11:56:41.544Z</time></trkpt><trkpt lat="44.6490606" lon="8.3420778"><ele>188.0</ele><time>2026-04-04T11:56:42.544Z</time></trkpt><trkpt lat="44.6489423" lon="8.3418946"><ele>188.0</ele><time>2026-04-04T11:56:43.544Z</time></trkpt><trkpt lat="44.6488356" lon="8.3417053"><ele>188.0</ele><time>2026-04-04T11:56:44.544Z</time></trkpt><trkpt lat="44.6487368" lon="8.3415202"><ele>188.0</ele><time>2026-04-04T11:56:45.544Z</time></trkpt><trkpt lat="44.6486373" lon="8.341336"><ele>184.66666666666666</ele><time>2026-04-04T11:56:46.544Z</time></trkpt><trkpt lat="44.6485383" lon="8.3411849"><ele>181.33333333333334</ele><time>2026-04-04T11:56:47.544Z</time></trkpt><trkpt lat="44.6484378" lon="8.3410226"><ele>178.0</ele><time>2026-04-04T11:56:48.544Z</time></trkpt><trkpt lat="44.6483449" lon="8.3408483"><ele>178.0</ele><time>2026-04-04T11:56:49.544Z</time></trkpt><trkpt lat="44.6482549" lon="8.3406811"><ele>178.0</ele><time>2026-04-04T11:56:50.545Z</time></trkpt><trkpt lat="44.6481696" lon="8.3405272"><ele>178.0</ele><time>2026-04-04T11:56:51.545Z</time></trkpt><trkpt lat="44.6480914" lon="8.3403673"><ele>178.0</ele><time>2026-04-04T11:56:52.544Z</time></trkpt><trkpt lat="44.6480204" lon="8.3401953"><ele>180.0</ele><time>2026-04-04T11:56:53.545Z</time></trkpt><trkpt lat="44.6479633" lon="8.3400046"><ele>182.0</ele><time>2026-04-04T11:56:54.544Z</time></trkpt><trkpt lat="44.6479377" lon="8.3397701"><ele>184.0</ele><time>2026-04-04T11:56:55.545Z</time></trkpt><trkpt lat="44.6479444" lon="8.3395388"><ele>184.0</ele><time>2026-04-04T11:56:56.544Z</time></trkpt><trkpt lat="44.6479722" lon="8.3393145"><ele>184.0</ele><time>2026-04-04T11:56:57.545Z</time></trkpt><trkpt lat="44.648013" lon="8.3390893"><ele>184.0</ele><time>2026-04-04T11:56:58.544Z</time></trkpt><trkpt lat="44.648046" lon="8.3388581"><ele>184.33333333333334</ele><time>2026-04-04T11:56:59.544Z</time></trkpt><trkpt lat="44.6481187" lon="8.3386363"><ele>184.66666666666666</ele><time>2026-04-04T11:57:00.544Z</time></trkpt><trkpt lat="44.6481839" lon="8.3384216"><ele>185.0</ele><time>2026-04-04T11:57:01.543Z</time></trkpt><trkpt lat="44.6482498" lon="8.3382097"><ele>184.33333333333331</ele><time>2026-04-04T11:57:02.544Z</time></trkpt><trkpt lat="44.6482946" lon="8.3380047"><ele>183.66666666666666</ele><time>2026-04-04T11:57:03.545Z</time></trkpt><trkpt lat="44.6483497" lon="8.3378004"><ele>183.0</ele><time>2026-04-04T11:57:04.544Z</time></trkpt><trkpt lat="44.6483978" lon="8.3375932"><ele>183.0</ele><time>2026-04-04T11:57:05.545Z</time></trkpt><trkpt lat="44.6484357" lon="8.3373849"><ele>183.0</ele><time>2026-04-04T11:57:06.544Z</time></trkpt><trkpt lat="44.6484722" lon="8.3371651"><ele>183.0</ele><time>2026-04-04T11:57:07.544Z</time></trkpt><trkpt lat="44.6485023" lon="8.3369381"><ele>183.0</ele><time>2026-04-04T11:57:08.545Z</time></trkpt><trkpt lat="44.6485253" lon="8.3367079"><ele>183.0</ele><time>2026-04-04T11:57:09.545Z</time></trkpt><trkpt lat="44.6485409" lon="8.3364751"><ele>183.0</ele><time>2026-04-04T11:57:10.544Z</time></trkpt><trkpt lat="44.6485429" lon="8.3362398"><ele>182.66666666666666</ele><time>2026-04-04T11:57:11.544Z</time></trkpt><trkpt lat="44.648526" lon="8.3360085"><ele>182.33333333333331</ele><time>2026-04-04T11:57:12.545Z</time></trkpt><trkpt lat="44.6485119" lon="8.3357847"><ele>182.0</ele><time>2026-04-04T11:57:13.545Z</time></trkpt><trkpt lat="44.648487" lon="8.3355675"><ele>182.66666666666666</ele><time>2026-04-04T11:57:14.545Z</time></trkpt><trkpt lat="44.6484684" lon="8.3353553"><ele>183.33333333333334</ele><time>2026-04-04T11:57:15.544Z</time></trkpt><trkpt lat="44.6484503" lon="8.3351282"><ele>184.0</ele><time>2026-04-04T11:57:16.544Z</time></trkpt><trkpt lat="44.6484333" lon="8.3348981"><ele>185.0</ele><time>2026-04-04T11:57:17.544Z</time></trkpt><trkpt lat="44.6484137" lon="8.3346681"><ele>186.0</ele><time>2026-04-04T11:57:18.545Z</time></trkpt><trkpt lat="44.6483956" lon="8.3344437"><ele>187.0</ele><time>2026-04-04T11:57:19.545Z</time></trkpt><trkpt lat="44.6483792" lon="8.3342206"><ele>187.0</ele><time>2026-04-04T11:57:20.545Z</time></trkpt><trkpt lat="44.6483608" lon="8.3339938"><ele>187.0</ele><time>2026-04-04T11:57:21.545Z</time></trkpt><trkpt lat="44.6483441" lon="8.3337672"><ele>187.0</ele><time>2026-04-04T11:57:22.545Z</time></trkpt><trkpt lat="44.6483296" lon="8.3335464"><ele>187.66666666666669</ele><time>2026-04-04T11:57:23.545Z</time></trkpt><trkpt lat="44.6483123" lon="8.3333329"><ele>188.33333333333334</ele><time>2026-04-04T11:57:24.545Z</time></trkpt><trkpt lat="44.6483041" lon="8.3331235"><ele>189.0</ele><time>2026-04-04T11:57:25.545Z</time></trkpt><trkpt lat="44.6482904" lon="8.3329163"><ele>189.25</ele><time>2026-04-04T11:57:26.544Z</time></trkpt><trkpt lat="44.6482732" lon="8.332724"><ele>189.5</ele><time>2026-04-04T11:57:27.545Z</time></trkpt><trkpt lat="44.6482589" lon="8.332543"><ele>189.75</ele><time>2026-04-04T11:57:28.545Z</time></trkpt><trkpt lat="44.6482578" lon="8.3323598"><ele>190.0</ele><time>2026-04-04T11:57:29.545Z</time></trkpt><trkpt lat="44.6482587" lon="8.3321468"><ele>190.0</ele><time>2026-04-04T11:57:30.545Z</time></trkpt><trkpt lat="44.6482705" lon="8.3319325"><ele>190.0</ele><time>2026-04-04T11:57:31.544Z</time></trkpt><trkpt lat="44.6482835" lon="8.3317129"><ele>190.0</ele><time>2026-04-04T11:57:32.545Z</time></trkpt><trkpt lat="44.6482958" lon="8.3314877"><ele>190.0</ele><time>2026-04-04T11:57:33.545Z</time></trkpt><trkpt lat="44.6482986" lon="8.3312613"><ele>190.0</ele><time>2026-04-04T11:57:34.545Z</time></trkpt><trkpt lat="44.6483017" lon="8.3310499"><ele>190.0</ele><time>2026-04-04T11:57:35.545Z</time></trkpt><trkpt lat="44.6483061" lon="8.330861"><ele>190.0</ele><time>2026-04-04T11:57:36.545Z</time></trkpt><trkpt lat="44.6483132" lon="8.3306897"><ele>190.0</ele><time>2026-04-04T11:57:37.544Z</time></trkpt><trkpt lat="44.6483222" lon="8.3305214"><ele>190.0</ele><time>2026-04-04T11:57:38.545Z</time></trkpt><trkpt lat="44.6483314" lon="8.3303495"><ele>190.0</ele><time>2026-04-04T11:57:39.545Z</time></trkpt><trkpt lat="44.6483401" lon="8.3301748"><ele>190.0</ele><time>2026-04-04T11:57:40.544Z</time></trkpt><trkpt lat="44.6483498" lon="8.3300097"><ele>190.0</ele><time>2026-04-04T11:57:41.544Z</time></trkpt><trkpt lat="44.6483573" lon="8.3298584"><ele>190.0</ele><time>2026-04-04T11:57:42.544Z</time></trkpt><trkpt lat="44.6483634" lon="8.3297121"><ele>190.0</ele><time>2026-04-04T11:57:43.545Z</time></trkpt><trkpt lat="44.6483805" lon="8.3295814"><ele>190.0</ele><time>2026-04-04T11:57:44.545Z</time></trkpt><trkpt lat="44.6483916" lon="8.3294389"><ele>190.0</ele><time>2026-04-04T11:57:45.545Z</time></trkpt><trkpt lat="44.6484061" lon="8.3292925"><ele>190.0</ele><time>2026-04-04T11:57:46.546Z</time></trkpt><trkpt lat="44.6484147" lon="8.3291455"><ele>190.0</ele><time>2026-04-04T11:57:47.546Z</time></trkpt><trkpt lat="44.6484187" lon="8.3290037"><ele>190.0</ele><time>2026-04-04T11:57:48.546Z</time></trkpt><trkpt lat="44.6484054" lon="8.3288511"><ele>190.0</ele><time>2026-04-04T11:57:49.545Z</time></trkpt><trkpt lat="44.6484228" lon="8.3287149"><ele>190.0</ele><time>2026-04-04T11:57:50.545Z</time></trkpt><trkpt lat="44.6484348" lon="8.3285692"><ele>190.0</ele><time>2026-04-04T11:57:51.545Z</time></trkpt><trkpt lat="44.6484412" lon="8.3284221"><ele>190.0</ele><time>2026-04-04T11:57:52.546Z</time></trkpt><trkpt lat="44.6484379" lon="8.3282722"><ele>190.0</ele><time>2026-04-04T11:57:53.546Z</time></trkpt><trkpt lat="44.6484193" lon="8.3281034"><ele>190.0</ele><time>2026-04-04T11:57:54.545Z</time></trkpt><trkpt lat="44.6483959" lon="8.3279288"><ele>190.25</ele><time>2026-04-04T11:57:55.545Z</time></trkpt><trkpt lat="44.6483655" lon="8.3277566"><ele>190.5</ele><time>2026-04-04T11:57:56.545Z</time></trkpt><trkpt lat="44.6483307" lon="8.3275843"><ele>190.75</ele><time>2026-04-04T11:57:57.545Z</time></trkpt><trkpt lat="44.64829" lon="8.3274073"><ele>191.0</ele><time>2026-04-04T11:57:58.545Z</time></trkpt><trkpt lat="44.6482471" lon="8.3272331"><ele>191.8</ele><time>2026-04-04T11:57:59.544Z</time></trkpt><trkpt lat="44.6482081" lon="8.3270754"><ele>192.60000000000002</ele><time>2026-04-04T11:58:00.546Z</time></trkpt><trkpt lat="44.6481773" lon="8.3269235"><ele>193.4</ele><time>2026-04-04T11:58:01.546Z</time></trkpt><trkpt lat="44.6481492" lon="8.3267742"><ele>194.2</ele><time>2026-04-04T11:58:02.545Z</time></trkpt><trkpt lat="44.6481281" lon="8.3266279"><ele>195.0</ele><time>2026-04-04T11:58:03.544Z</time></trkpt><trkpt lat="44.6481195" lon="8.3264872"><ele>195.33333333333334</ele><time>2026-04-04T11:58:04.546Z</time></trkpt><trkpt lat="44.6481169" lon="8.3263641"><ele>195.66666666666669</ele><time>2026-04-04T11:58:05.545Z</time></trkpt><trkpt lat="44.648112" lon="8.3262614"><ele>196.0</ele><time>2026-04-04T11:58:06.546Z</time></trkpt><trkpt lat="44.648104" lon="8.3260998"><ele>196.33333333333334</ele><time>2026-04-04T11:58:08.545Z</time></trkpt><trkpt lat="44.64813" lon="8.3260075"><ele>196.66666666666669</ele><time>2026-04-04T11:58:09.546Z</time></trkpt><trkpt lat="44.6481676" lon="8.3259173"><ele>197.0</ele><time>2026-04-04T11:58:10.546Z</time></trkpt><trkpt lat="44.6482244" lon="8.3258345"><ele>197.0</ele><time>2026-04-04T11:58:11.546Z</time></trkpt><trkpt lat="44.6482968" lon="8.3257823"><ele>197.0</ele><time>2026-04-04T11:58:12.546Z</time></trkpt><trkpt lat="44.6483673" lon="8.3257268"><ele>197.0</ele><time>2026-04-04T11:58:13.545Z</time></trkpt><trkpt lat="44.6484303" lon="8.3256702"><ele>197.0</ele><time>2026-04-04T11:58:14.546Z</time></trkpt><trkpt lat="44.6484776" lon="8.325606"><ele>197.0</ele><time>2026-04-04T11:58:15.546Z</time></trkpt><trkpt lat="44.6485214" lon="8.3255416"><ele>197.0</ele><time>2026-04-04T11:58:16.544Z</time></trkpt><trkpt lat="44.6485676" lon="8.325468"><ele>197.0</ele><time>2026-04-04T11:58:17.545Z</time></trkpt><trkpt lat="44.6486181" lon="8.3253791"><ele>197.39999999999998</ele><time>2026-04-04T11:58:18.546Z</time></trkpt><trkpt lat="44.6486685" lon="8.3252757"><ele>197.79999999999998</ele><time>2026-04-04T11:58:19.546Z</time></trkpt><trkpt lat="44.6487244" lon="8.3251622"><ele>198.2</ele><time>2026-04-04T11:58:20.546Z</time></trkpt><trkpt lat="44.6487892" lon="8.3250419"><ele>198.6</ele><time>2026-04-04T11:58:21.546Z</time></trkpt><trkpt lat="44.6488685" lon="8.3248941"><ele>199.0</ele><time>2026-04-04T11:58:22.546Z</time></trkpt><trkpt lat="44.648956" lon="8.3247422"><ele>197.5</ele><time>2026-04-04T11:58:23.546Z</time></trkpt><trkpt lat="44.6490475" lon="8.3245816"><ele>196.0</ele><time>2026-04-04T11:58:24.545Z</time></trkpt><trkpt lat="44.6491347" lon="8.3244293"><ele>194.5</ele><time>2026-04-04T11:58:25.546Z</time></trkpt><trkpt lat="44.6492223" lon="8.3242757"><ele>193.0</ele><time>2026-04-04T11:58:26.546Z</time></trkpt><trkpt lat="44.6493181" lon="8.3241148"><ele>193.0</ele><time>2026-04-04T11:58:27.546Z</time></trkpt><trkpt lat="44.6494182" lon="8.3239392"><ele>193.0</ele><time>2026-04-04T11:58:28.545Z</time></trkpt><trkpt lat="44.6495165" lon="8.3237558"><ele>193.0</ele><time>2026-04-04T11:58:29.547Z</time></trkpt><trkpt lat="44.6496117" lon="8.3235725"><ele>194.0</ele><time>2026-04-04T11:58:30.546Z</time></trkpt><trkpt lat="44.6497107" lon="8.323381"><ele>195.0</ele><time>2026-04-04T11:58:31.546Z</time></trkpt><trkpt lat="44.649811" lon="8.3231854"><ele>196.0</ele><time>2026-04-04T11:58:32.546Z</time></trkpt><trkpt lat="44.6499082" lon="8.3229879"><ele>193.33333333333331</ele><time>2026-04-04T11:58:33.546Z</time></trkpt><trkpt lat="44.6500066" lon="8.3227943"><ele>190.66666666666666</ele><time>2026-04-04T11:58:34.546Z</time></trkpt><trkpt lat="44.6501038" lon="8.3226103"><ele>188.0</ele><time>2026-04-04T11:58:35.546Z</time></trkpt><trkpt lat="44.6501978" lon="8.32243"><ele>188.0</ele><time>2026-04-04T11:58:36.546Z</time></trkpt><trkpt lat="44.6502857" lon="8.322256"><ele>188.0</ele><time>2026-04-04T11:58:37.545Z</time></trkpt><trkpt lat="44.6503694" lon="8.3220763"><ele>188.0</ele><time>2026-04-04T11:58:38.546Z</time></trkpt><trkpt lat="44.6504469" lon="8.3218852"><ele>189.0</ele><time>2026-04-04T11:58:39.546Z</time></trkpt><trkpt lat="44.6505182" lon="8.3216844"><ele>190.0</ele><time>2026-04-04T11:58:40.546Z</time></trkpt><trkpt lat="44.6505867" lon="8.3214854"><ele>191.0</ele><time>2026-04-04T11:58:41.546Z</time></trkpt><trkpt lat="44.6506566" lon="8.3212907"><ele>191.0</ele><time>2026-04-04T11:58:42.546Z</time></trkpt><trkpt lat="44.6507336" lon="8.3210992"><ele>191.0</ele><time>2026-04-04T11:58:43.546Z</time></trkpt><trkpt lat="44.6508177" lon="8.3209065"><ele>191.0</ele><time>2026-04-04T11:58:44.546Z</time></trkpt><trkpt lat="44.650906" lon="8.3207131"><ele>189.0</ele><time>2026-04-04T11:58:45.546Z</time></trkpt><trkpt lat="44.6509944" lon="8.320521"><ele>187.0</ele><time>2026-04-04T11:58:46.546Z</time></trkpt><trkpt lat="44.6510847" lon="8.3203303"><ele>185.0</ele><time>2026-04-04T11:58:47.546Z</time></trkpt><trkpt lat="44.6511783" lon="8.3201379"><ele>188.0</ele><time>2026-04-04T11:58:48.546Z</time></trkpt><trkpt lat="44.6512741" lon="8.3199403"><ele>191.0</ele><time>2026-04-04T11:58:49.545Z</time></trkpt><trkpt lat="44.6513665" lon="8.3197351"><ele>194.0</ele><time>2026-04-04T11:58:50.546Z</time></trkpt><trkpt lat="44.6514573" lon="8.3195243"><ele>194.0</ele><time>2026-04-04T11:58:51.546Z</time></trkpt><trkpt lat="44.6515529" lon="8.3193144"><ele>194.0</ele><time>2026-04-04T11:58:52.546Z</time></trkpt><trkpt lat="44.6516547" lon="8.3191042"><ele>194.0</ele><time>2026-04-04T11:58:53.545Z</time></trkpt><trkpt lat="44.651763" lon="8.3188908"><ele>192.0</ele><time>2026-04-04T11:58:54.546Z</time></trkpt><trkpt lat="44.6518674" lon="8.3186749"><ele>190.0</ele><time>2026-04-04T11:58:55.546Z</time></trkpt><trkpt lat="44.6519781" lon="8.3184697"><ele>188.0</ele><time>2026-04-04T11:58:56.546Z</time></trkpt><trkpt lat="44.652084" lon="8.3182273"><ele>192.66666666666666</ele><time>2026-04-04T11:58:57.546Z</time></trkpt><trkpt lat="44.6521935" lon="8.3179542"><ele>197.33333333333331</ele><time>2026-04-04T11:58:58.546Z</time></trkpt><trkpt lat="44.6522875" lon="8.3176777"><ele>202.0</ele><time>2026-04-04T11:58:59.546Z</time></trkpt><trkpt lat="44.6523582" lon="8.3174118"><ele>200.0</ele><time>2026-04-04T11:59:00.546Z</time></trkpt><trkpt lat="44.6524106" lon="8.3171484"><ele>198.0</ele><time>2026-04-04T11:59:01.547Z</time></trkpt><trkpt lat="44.6524603" lon="8.3168933"><ele>196.0</ele><time>2026-04-04T11:59:02.546Z</time></trkpt><trkpt lat="44.652523" lon="8.3166421"><ele>195.66666666666666</ele><time>2026-04-04T11:59:03.547Z</time></trkpt><trkpt lat="44.6525922" lon="8.3163883"><ele>195.33333333333331</ele><time>2026-04-04T11:59:04.547Z</time></trkpt><trkpt lat="44.6526568" lon="8.3161434"><ele>195.0</ele><time>2026-04-04T11:59:05.547Z</time></trkpt><trkpt lat="44.6527119" lon="8.3159211"><ele>195.0</ele><time>2026-04-04T11:59:06.546Z</time></trkpt><trkpt lat="44.6527647" lon="8.3157058"><ele>195.0</ele><time>2026-04-04T11:59:07.546Z</time></trkpt><trkpt lat="44.6528209" lon="8.3154841"><ele>195.0</ele><time>2026-04-04T11:59:08.547Z</time></trkpt><trkpt lat="44.6528793" lon="8.3152501"><ele>196.33333333333331</ele><time>2026-04-04T11:59:09.546Z</time></trkpt><trkpt lat="44.6529378" lon="8.3150051"><ele>197.66666666666666</ele><time>2026-04-04T11:59:10.547Z</time></trkpt><trkpt lat="44.6529975" lon="8.3147609"><ele>199.0</ele><time>2026-04-04T11:59:11.546Z</time></trkpt><trkpt lat="44.6530666" lon="8.31452"><ele>199.0</ele><time>2026-04-04T11:59:12.546Z</time></trkpt><trkpt lat="44.6531708" lon="8.3143065"><ele>199.0</ele><time>2026-04-04T11:59:13.546Z</time></trkpt><trkpt lat="44.6533007" lon="8.3141258"><ele>199.0</ele><time>2026-04-04T11:59:14.547Z</time></trkpt><trkpt lat="44.6534469" lon="8.3139847"><ele>197.66666666666666</ele><time>2026-04-04T11:59:15.545Z</time></trkpt><trkpt lat="44.6535731" lon="8.31384"><ele>196.33333333333331</ele><time>2026-04-04T11:59:16.547Z</time></trkpt><trkpt lat="44.6537089" lon="8.3137067"><ele>195.0</ele><time>2026-04-04T11:59:17.546Z</time></trkpt><trkpt lat="44.6538399" lon="8.3135624"><ele>195.0</ele><time>2026-04-04T11:59:18.547Z</time></trkpt><trkpt lat="44.6539728" lon="8.3133995"><ele>195.0</ele><time>2026-04-04T11:59:19.546Z</time></trkpt><trkpt lat="44.6541162" lon="8.3132333"><ele>195.0</ele><time>2026-04-04T11:59:20.547Z</time></trkpt><trkpt lat="44.6542591" lon="8.3130683"><ele>196.0</ele><time>2026-04-04T11:59:21.547Z</time></trkpt><trkpt lat="44.6543966" lon="8.3129081"><ele>197.0</ele><time>2026-04-04T11:59:22.547Z</time></trkpt><trkpt lat="44.6545296" lon="8.3127512"><ele>198.0</ele><time>2026-04-04T11:59:23.547Z</time></trkpt><trkpt lat="44.6546628" lon="8.3125964"><ele>198.0</ele><time>2026-04-04T11:59:24.547Z</time></trkpt><trkpt lat="44.6547954" lon="8.312439"><ele>198.0</ele><time>2026-04-04T11:59:25.547Z</time></trkpt><trkpt lat="44.6549262" lon="8.3122796"><ele>198.0</ele><time>2026-04-04T11:59:26.547Z</time></trkpt><trkpt lat="44.6550508" lon="8.3121283"><ele>197.66666666666669</ele><time>2026-04-04T11:59:27.547Z</time></trkpt><trkpt lat="44.6551733" lon="8.3119903"><ele>197.33333333333334</ele><time>2026-04-04T11:59:28.547Z</time></trkpt><trkpt lat="44.6552973" lon="8.3118454"><ele>197.0</ele><time>2026-04-04T11:59:29.547Z</time></trkpt><trkpt lat="44.6554288" lon="8.311705"><ele>197.0</ele><time>2026-04-04T11:59:30.547Z</time></trkpt><trkpt lat="44.6555597" lon="8.3115542"><ele>197.0</ele><time>2026-04-04T11:59:31.547Z</time></trkpt><trkpt lat="44.655689" lon="8.3113948"><ele>197.0</ele><time>2026-04-04T11:59:32.546Z</time></trkpt><trkpt lat="44.6558221" lon="8.3112267"><ele>195.66666666666669</ele><time>2026-04-04T11:59:33.546Z</time></trkpt><trkpt lat="44.655957" lon="8.3110583"><ele>194.33333333333331</ele><time>2026-04-04T11:59:34.547Z</time></trkpt><trkpt lat="44.6560986" lon="8.3108876"><ele>193.0</ele><time>2026-04-04T11:59:35.547Z</time></trkpt><trkpt lat="44.6562353" lon="8.3107135"><ele>193.0</ele><time>2026-04-04T11:59:36.547Z</time></trkpt><trkpt lat="44.6563659" lon="8.3105367"><ele>193.0</ele><time>2026-04-04T11:59:37.547Z</time></trkpt><trkpt lat="44.656495" lon="8.3103586"><ele>193.0</ele><time>2026-04-04T11:59:38.547Z</time></trkpt><trkpt lat="44.6566266" lon="8.3101789"><ele>193.0</ele><time>2026-04-04T11:59:39.547Z</time></trkpt><trkpt lat="44.6567551" lon="8.3100026"><ele>193.0</ele><time>2026-04-04T11:59:40.547Z</time></trkpt><trkpt lat="44.6568747" lon="8.309831"><ele>193.0</ele><time>2026-04-04T11:59:41.547Z</time></trkpt><trkpt lat="44.6569852" lon="8.3096625"><ele>192.66666666666666</ele><time>2026-04-04T11:59:42.546Z</time></trkpt><trkpt lat="44.6570896" lon="8.3094992"><ele>192.33333333333331</ele><time>2026-04-04T11:59:43.547Z</time></trkpt><trkpt lat="44.6571906" lon="8.3093402"><ele>192.0</ele><time>2026-04-04T11:59:44.547Z</time></trkpt><trkpt lat="44.6572895" lon="8.309177"><ele>192.0</ele><time>2026-04-04T11:59:45.547Z</time></trkpt><trkpt lat="44.6573897" lon="8.3090071"><ele>192.0</ele><time>2026-04-04T11:59:46.547Z</time></trkpt><trkpt lat="44.6574949" lon="8.3088362"><ele>192.0</ele><time>2026-04-04T11:59:47.547Z</time></trkpt><trkpt lat="44.6576009" lon="8.308667"><ele>192.0</ele><time>2026-04-04T11:59:48.547Z</time></trkpt><trkpt lat="44.6577086" lon="8.3085026"><ele>192.0</ele><time>2026-04-04T11:59:49.547Z</time></trkpt><trkpt lat="44.6578149" lon="8.3083379"><ele>192.0</ele><time>2026-04-04T11:59:50.547Z</time></trkpt><trkpt lat="44.6579233" lon="8.3081743"><ele>191.66666666666666</ele><time>2026-04-04T11:59:51.547Z</time></trkpt><trkpt lat="44.6580324" lon="8.3080042"><ele>191.33333333333331</ele><time>2026-04-04T11:59:52.546Z</time></trkpt><trkpt lat="44.6581474" lon="8.3078335"><ele>191.0</ele><time>2026-04-04T11:59:53.546Z</time></trkpt><trkpt lat="44.6582593" lon="8.307659"><ele>191.0</ele><time>2026-04-04T11:59:54.547Z</time></trkpt><trkpt lat="44.6583693" lon="8.3074823"><ele>191.0</ele><time>2026-04-04T11:59:55.547Z</time></trkpt><trkpt lat="44.6584823" lon="8.3073118"><ele>191.0</ele><time>2026-04-04T11:59:56.546Z</time></trkpt><trkpt lat="44.6585901" lon="8.3071385"><ele>190.5</ele><time>2026-04-04T11:59:57.548Z</time></trkpt><trkpt lat="44.6586942" lon="8.3069787"><ele>190.0</ele><time>2026-04-04T11:59:58.547Z</time></trkpt><trkpt lat="44.6587935" lon="8.3068342"><ele>189.5</ele><time>2026-04-04T11:59:59.547Z</time></trkpt><trkpt lat="44.6588952" lon="8.3067028"><ele>189.0</ele><time>2026-04-04T12:00:00.546Z</time></trkpt><trkpt lat="44.6590043" lon="8.3065795"><ele>189.0</ele><time>2026-04-04T12:00:01.547Z</time></trkpt><trkpt lat="44.6591221" lon="8.3064534"><ele>189.0</ele><time>2026-04-04T12:00:02.547Z</time></trkpt><trkpt lat="44.6592362" lon="8.3063182"><ele>189.0</ele><time>2026-04-04T12:00:03.547Z</time></trkpt><trkpt lat="44.6593603" lon="8.306167"><ele>187.66666666666666</ele><time>2026-04-04T12:00:04.548Z</time></trkpt><trkpt lat="44.6594655" lon="8.3059847"><ele>186.33333333333331</ele><time>2026-04-04T12:00:05.547Z</time></trkpt><trkpt lat="44.6595647" lon="8.3057864"><ele>185.0</ele><time>2026-04-04T12:00:06.546Z</time></trkpt><trkpt lat="44.6596613" lon="8.3055906"><ele>184.66666666666666</ele><time>2026-04-04T12:00:07.547Z</time></trkpt><trkpt lat="44.6597464" lon="8.3053973"><ele>184.33333333333334</ele><time>2026-04-04T12:00:08.547Z</time></trkpt><trkpt lat="44.6598277" lon="8.3052201"><ele>184.0</ele><time>2026-04-04T12:00:09.548Z</time></trkpt><trkpt lat="44.6599012" lon="8.3050454"><ele>184.0</ele><time>2026-04-04T12:00:10.548Z</time></trkpt><trkpt lat="44.6599773" lon="8.30488"><ele>184.0</ele><time>2026-04-04T12:00:11.548Z</time></trkpt><trkpt lat="44.6600493" lon="8.3047151"><ele>184.0</ele><time>2026-04-04T12:00:12.547Z</time></trkpt><trkpt lat="44.6601238" lon="8.3045498"><ele>184.0</ele><time>2026-04-04T12:00:13.547Z</time></trkpt><trkpt lat="44.6602016" lon="8.3043811"><ele>184.0</ele><time>2026-04-04T12:00:14.547Z</time></trkpt><trkpt lat="44.6602835" lon="8.3042156"><ele>184.0</ele><time>2026-04-04T12:00:15.547Z</time></trkpt><trkpt lat="44.6603626" lon="8.3040471"><ele>184.0</ele><time>2026-04-04T12:00:16.548Z</time></trkpt><trkpt lat="44.6604379" lon="8.303875"><ele>184.0</ele><time>2026-04-04T12:00:17.548Z</time></trkpt><trkpt lat="44.6605108" lon="8.3037038"><ele>184.0</ele><time>2026-04-04T12:00:18.547Z</time></trkpt><trkpt lat="44.6605903" lon="8.3035356"><ele>184.0</ele><time>2026-04-04T12:00:19.548Z</time></trkpt><trkpt lat="44.6606633" lon="8.3033605"><ele>184.0</ele><time>2026-04-04T12:00:20.548Z</time></trkpt><trkpt lat="44.6607397" lon="8.3031854"><ele>184.0</ele><time>2026-04-04T12:00:21.548Z</time></trkpt><trkpt lat="44.660819" lon="8.3030146"><ele>183.25</ele><time>2026-04-04T12:00:22.547Z</time></trkpt><trkpt lat="44.6608816" lon="8.3028302"><ele>182.5</ele><time>2026-04-04T12:00:23.548Z</time></trkpt><trkpt lat="44.6609561" lon="8.3026577"><ele>181.75</ele><time>2026-04-04T12:00:24.548Z</time></trkpt><trkpt lat="44.6610349" lon="8.3024929"><ele>181.0</ele><time>2026-04-04T12:00:25.548Z</time></trkpt><trkpt lat="44.6611032" lon="8.3023185"><ele>181.5</ele><time>2026-04-04T12:00:26.548Z</time></trkpt><trkpt lat="44.6611825" lon="8.3021478"><ele>182.0</ele><time>2026-04-04T12:00:27.547Z</time></trkpt><trkpt lat="44.6612683" lon="8.3019761"><ele>182.5</ele><time>2026-04-04T12:00:28.548Z</time></trkpt><trkpt lat="44.6613506" lon="8.3017971"><ele>183.0</ele><time>2026-04-04T12:00:29.547Z</time></trkpt><trkpt lat="44.6614263" lon="8.3016145"><ele>183.0</ele><time>2026-04-04T12:00:30.548Z</time></trkpt><trkpt lat="44.6614992" lon="8.3014266"><ele>183.0</ele><time>2026-04-04T12:00:31.548Z</time></trkpt><trkpt lat="44.6615793" lon="8.3012462"><ele>183.0</ele><time>2026-04-04T12:00:32.548Z</time></trkpt><trkpt lat="44.6616594" lon="8.301065"><ele>183.0</ele><time>2026-04-04T12:00:33.548Z</time></trkpt><trkpt lat="44.6617312" lon="8.3008953"><ele>183.0</ele><time>2026-04-04T12:00:34.548Z</time></trkpt><trkpt lat="44.6618009" lon="8.3007378"><ele>183.0</ele><time>2026-04-04T12:00:35.548Z</time></trkpt><trkpt lat="44.661871" lon="8.3005862"><ele>183.0</ele><time>2026-04-04T12:00:36.548Z</time></trkpt><trkpt lat="44.6619451" lon="8.3004296"><ele>184.0</ele><time>2026-04-04T12:00:37.548Z</time></trkpt><trkpt lat="44.6620213" lon="8.3002639"><ele>185.0</ele><time>2026-04-04T12:00:38.548Z</time></trkpt><trkpt lat="44.6621014" lon="8.3000932"><ele>186.0</ele><time>2026-04-04T12:00:39.548Z</time></trkpt><trkpt lat="44.6621787" lon="8.2999023"><ele>187.0</ele><time>2026-04-04T12:00:40.548Z</time></trkpt><trkpt lat="44.6622567" lon="8.2997172"><ele>188.0</ele><time>2026-04-04T12:00:41.548Z</time></trkpt><trkpt lat="44.6623291" lon="8.2995452"><ele>189.0</ele><time>2026-04-04T12:00:42.548Z</time></trkpt><trkpt lat="44.6623941" lon="8.2993932"><ele>190.0</ele><time>2026-04-04T12:00:43.548Z</time></trkpt><trkpt lat="44.6624549" lon="8.299259"><ele>191.0</ele><time>2026-04-04T12:00:44.547Z</time></trkpt><trkpt lat="44.6625147" lon="8.29913"><ele>191.0</ele><time>2026-04-04T12:00:45.548Z</time></trkpt><trkpt lat="44.6625767" lon="8.2989989"><ele>191.0</ele><time>2026-04-04T12:00:46.548Z</time></trkpt><trkpt lat="44.6626365" lon="8.298855"><ele>191.0</ele><time>2026-04-04T12:00:47.548Z</time></trkpt><trkpt lat="44.6626846" lon="8.2986954"><ele>191.0</ele><time>2026-04-04T12:00:48.547Z</time></trkpt><trkpt lat="44.6627035" lon="8.2985186"><ele>191.5</ele><time>2026-04-04T12:00:49.548Z</time></trkpt><trkpt lat="44.6626924" lon="8.2983249"><ele>192.0</ele><time>2026-04-04T12:00:50.548Z</time></trkpt><trkpt lat="44.6626863" lon="8.2981249"><ele>192.5</ele><time>2026-04-04T12:00:51.548Z</time></trkpt><trkpt lat="44.6627062" lon="8.2979267"><ele>193.0</ele><time>2026-04-04T12:00:52.548Z</time></trkpt><trkpt lat="44.6627637" lon="8.2977468"><ele>193.75</ele><time>2026-04-04T12:00:53.548Z</time></trkpt><trkpt lat="44.6628434" lon="8.2975815"><ele>194.5</ele><time>2026-04-04T12:00:54.548Z</time></trkpt><trkpt lat="44.6629342" lon="8.2974327"><ele>195.25</ele><time>2026-04-04T12:00:55.548Z</time></trkpt><trkpt lat="44.6630219" lon="8.2973006"><ele>196.0</ele><time>2026-04-04T12:00:56.549Z</time></trkpt><trkpt lat="44.6631005" lon="8.2971832"><ele>198.0</ele><time>2026-04-04T12:00:57.548Z</time></trkpt><trkpt lat="44.6631764" lon="8.2970684"><ele>200.0</ele><time>2026-04-04T12:00:58.549Z</time></trkpt><trkpt lat="44.6632507" lon="8.2969475"><ele>202.0</ele><time>2026-04-04T12:00:59.548Z</time></trkpt><trkpt lat="44.6633286" lon="8.296816"><ele>204.0</ele><time>2026-04-04T12:01:00.547Z</time></trkpt><trkpt lat="44.6634091" lon="8.2966799"><ele>204.0</ele><time>2026-04-04T12:01:01.548Z</time></trkpt><trkpt lat="44.6634893" lon="8.2965426"><ele>204.0</ele><time>2026-04-04T12:01:02.548Z</time></trkpt><trkpt lat="44.6635726" lon="8.296403"><ele>204.0</ele><time>2026-04-04T12:01:03.548Z</time></trkpt><trkpt lat="44.6636538" lon="8.2962665"><ele>204.0</ele><time>2026-04-04T12:01:04.548Z</time></trkpt><trkpt lat="44.66373" lon="8.2961382"><ele>205.2</ele><time>2026-04-04T12:01:05.548Z</time></trkpt><trkpt lat="44.6638025" lon="8.2960125"><ele>206.39999999999998</ele><time>2026-04-04T12:01:06.548Z</time></trkpt><trkpt lat="44.6638771" lon="8.2959036"><ele>207.6</ele><time>2026-04-04T12:01:07.548Z</time></trkpt><trkpt lat="44.6639499" lon="8.2958075"><ele>208.8</ele><time>2026-04-04T12:01:08.548Z</time></trkpt><trkpt lat="44.6640209" lon="8.2957173"><ele>210.0</ele><time>2026-04-04T12:01:09.549Z</time></trkpt><trkpt lat="44.6640897" lon="8.2956284"><ele>212.8</ele><time>2026-04-04T12:01:10.548Z</time></trkpt><trkpt lat="44.6641616" lon="8.295546"><ele>215.6</ele><time>2026-04-04T12:01:11.548Z</time></trkpt><trkpt lat="44.6642362" lon="8.2954582"><ele>218.39999999999998</ele><time>2026-04-04T12:01:12.548Z</time></trkpt><trkpt lat="44.6643109" lon="8.2953764"><ele>221.2</ele><time>2026-04-04T12:01:13.549Z</time></trkpt><trkpt lat="44.6643803" lon="8.2952924"><ele>224.0</ele><time>2026-04-04T12:01:14.549Z</time></trkpt><trkpt lat="44.6644402" lon="8.2952148"><ele>224.00000000000003</ele><time>2026-04-04T12:01:15.548Z</time></trkpt><trkpt lat="44.6644882" lon="8.2951306"><ele>224.0</ele><time>2026-04-04T12:01:16.548Z</time></trkpt><trkpt lat="44.6645255" lon="8.2950364"><ele>224.0</ele><time>2026-04-04T12:01:17.549Z</time></trkpt><trkpt lat="44.6645489" lon="8.2949433"><ele>224.0</ele><time>2026-04-04T12:01:18.549Z</time></trkpt><trkpt lat="44.6645664" lon="8.2948525"><ele>224.00000000000003</ele><time>2026-04-04T12:01:19.548Z</time></trkpt><trkpt lat="44.6645823" lon="8.2946764"><ele>224.0</ele><time>2026-04-04T12:01:21.549Z</time></trkpt><trkpt lat="44.6645786" lon="8.2945842"><ele>224.0</ele><time>2026-04-04T12:01:22.548Z</time></trkpt><trkpt lat="44.6645697" lon="8.2944898"><ele>224.0</ele><time>2026-04-04T12:01:23.549Z</time></trkpt><trkpt lat="44.6645513" lon="8.2944036"><ele>224.0</ele><time>2026-04-04T12:01:24.547Z</time></trkpt><trkpt lat="44.6645221" lon="8.2943191"><ele>224.0</ele><time>2026-04-04T12:01:25.548Z</time></trkpt><trkpt lat="44.6644852" lon="8.2942386"><ele>224.0</ele><time>2026-04-04T12:01:26.548Z</time></trkpt><trkpt lat="44.6644451" lon="8.2941693"><ele>224.0</ele><time>2026-04-04T12:01:27.548Z</time></trkpt><trkpt lat="44.6643677" lon="8.2940574"><ele>224.0</ele><time>2026-04-04T12:01:29.548Z</time></trkpt><trkpt lat="44.6642996" lon="8.2939684"><ele>225.16666666666669</ele><time>2026-04-04T12:01:31.549Z</time></trkpt><trkpt lat="44.6642564" lon="8.2938956"><ele>226.33333333333334</ele><time>2026-04-04T12:01:34.548Z</time></trkpt><trkpt lat="44.6642081" lon="8.2937869"><ele>227.5</ele><time>2026-04-04T12:01:37.549Z</time></trkpt><trkpt lat="44.6641675" lon="8.2936944"><ele>228.66666666666669</ele><time>2026-04-04T12:01:38.549Z</time></trkpt><trkpt lat="44.6641215" lon="8.2935814"><ele>229.83333333333334</ele><time>2026-04-04T12:01:39.549Z</time></trkpt><trkpt lat="44.6640711" lon="8.2934546"><ele>231.0</ele><time>2026-04-04T12:01:40.548Z</time></trkpt><trkpt lat="44.664016" lon="8.2933089"><ele>231.0</ele><time>2026-04-04T12:01:41.549Z</time></trkpt><trkpt lat="44.6639546" lon="8.2931463"><ele>231.0</ele><time>2026-04-04T12:01:42.549Z</time></trkpt><trkpt lat="44.6638949" lon="8.2929796"><ele>231.0</ele><time>2026-04-04T12:01:43.549Z</time></trkpt><trkpt lat="44.663835" lon="8.2928087"><ele>231.0</ele><time>2026-04-04T12:01:44.549Z</time></trkpt><trkpt lat="44.6637874" lon="8.2926578"><ele>231.0</ele><time>2026-04-04T12:01:45.549Z</time></trkpt><trkpt lat="44.6637548" lon="8.2925121"><ele>231.0</ele><time>2026-04-04T12:01:46.549Z</time></trkpt><trkpt lat="44.6637508" lon="8.2923662"><ele>231.0</ele><time>2026-04-04T12:01:47.549Z</time></trkpt><trkpt lat="44.6637806" lon="8.292189"><ele>231.0</ele><time>2026-04-04T12:01:48.549Z</time></trkpt><trkpt lat="44.6638406" lon="8.2919939"><ele>231.0</ele><time>2026-04-04T12:01:49.549Z</time></trkpt><trkpt lat="44.6639105" lon="8.2917987"><ele>231.0</ele><time>2026-04-04T12:01:50.549Z</time></trkpt><trkpt lat="44.663975" lon="8.2916184"><ele>231.0</ele><time>2026-04-04T12:01:51.549Z</time></trkpt><trkpt lat="44.6640322" lon="8.2914654"><ele>231.0</ele><time>2026-04-04T12:01:52.549Z</time></trkpt><trkpt lat="44.6640879" lon="8.2913336"><ele>230.8</ele><time>2026-04-04T12:01:53.548Z</time></trkpt><trkpt lat="44.6641322" lon="8.2912036"><ele>230.60000000000002</ele><time>2026-04-04T12:01:54.548Z</time></trkpt><trkpt lat="44.6641614" lon="8.2910768"><ele>230.4</ele><time>2026-04-04T12:01:55.549Z</time></trkpt><trkpt lat="44.6641617" lon="8.2909365"><ele>230.2</ele><time>2026-04-04T12:01:56.549Z</time></trkpt><trkpt lat="44.6641193" lon="8.2907736"><ele>230.0</ele><time>2026-04-04T12:01:57.549Z</time></trkpt><trkpt lat="44.6640343" lon="8.290582"><ele>231.33333333333334</ele><time>2026-04-04T12:01:58.55Z</time></trkpt><trkpt lat="44.6639378" lon="8.2903832"><ele>232.66666666666669</ele><time>2026-04-04T12:01:59.55Z</time></trkpt><trkpt lat="44.6638429" lon="8.290187"><ele>234.0</ele><time>2026-04-04T12:02:00.55Z</time></trkpt><trkpt lat="44.6637605" lon="8.2900056"><ele>234.0</ele><time>2026-04-04T12:02:01.55Z</time></trkpt><trkpt lat="44.6636822" lon="8.2898377"><ele>234.0</ele><time>2026-04-04T12:02:02.549Z</time></trkpt><trkpt lat="44.6636094" lon="8.2896803"><ele>234.0</ele><time>2026-04-04T12:02:03.549Z</time></trkpt><trkpt lat="44.6635442" lon="8.2895175"><ele>234.0</ele><time>2026-04-04T12:02:04.549Z</time></trkpt><trkpt lat="44.663495" lon="8.2893298"><ele>234.5</ele><time>2026-04-04T12:02:05.549Z</time></trkpt><trkpt lat="44.6634685" lon="8.2891306"><ele>235.0</ele><time>2026-04-04T12:02:06.548Z</time></trkpt><trkpt lat="44.6634543" lon="8.2889169"><ele>235.5</ele><time>2026-04-04T12:02:07.549Z</time></trkpt><trkpt lat="44.6634724" lon="8.2887201"><ele>236.0</ele><time>2026-04-04T12:02:08.549Z</time></trkpt><trkpt lat="44.6634868" lon="8.2885468"><ele>236.0</ele><time>2026-04-04T12:02:09.55Z</time></trkpt><trkpt lat="44.6634832" lon="8.2883862"><ele>236.0</ele><time>2026-04-04T12:02:10.55Z</time></trkpt><trkpt lat="44.6634539" lon="8.2882401"><ele>236.0</ele><time>2026-04-04T12:02:11.55Z</time></trkpt><trkpt lat="44.6633866" lon="8.2881165"><ele>236.0</ele><time>2026-04-04T12:02:12.55Z</time></trkpt><trkpt lat="44.6632762" lon="8.2880287"><ele>237.0</ele><time>2026-04-04T12:02:13.549Z</time></trkpt><trkpt lat="44.6631445" lon="8.2879818"><ele>238.0</ele><time>2026-04-04T12:02:14.55Z</time></trkpt><trkpt lat="44.6630037" lon="8.2879839"><ele>239.0</ele><time>2026-04-04T12:02:15.55Z</time></trkpt><trkpt lat="44.6628667" lon="8.2879834"><ele>240.0</ele><time>2026-04-04T12:02:16.55Z</time></trkpt><trkpt lat="44.6627402" lon="8.2879842"><ele>240.0</ele><time>2026-04-04T12:02:17.549Z</time></trkpt><trkpt lat="44.6626155" lon="8.2879978"><ele>240.0</ele><time>2026-04-04T12:02:18.55Z</time></trkpt><trkpt lat="44.6625032" lon="8.2880581"><ele>240.0</ele><time>2026-04-04T12:02:19.549Z</time></trkpt><trkpt lat="44.6623969" lon="8.2881751"><ele>240.0</ele><time>2026-04-04T12:02:20.55Z</time></trkpt><trkpt lat="44.6623053" lon="8.2883219"><ele>239.0</ele><time>2026-04-04T12:02:21.549Z</time></trkpt><trkpt lat="44.6622104" lon="8.2884749"><ele>238.0</ele><time>2026-04-04T12:02:22.549Z</time></trkpt><trkpt lat="44.6621114" lon="8.2886371"><ele>237.0</ele><time>2026-04-04T12:02:23.549Z</time></trkpt><trkpt lat="44.6620237" lon="8.2887766"><ele>236.0</ele><time>2026-04-04T12:02:24.549Z</time></trkpt><trkpt lat="44.6619493" lon="8.2888815"><ele>236.20000000000002</ele><time>2026-04-04T12:02:25.549Z</time></trkpt><trkpt lat="44.6618664" lon="8.2889396"><ele>236.40000000000003</ele><time>2026-04-04T12:02:26.549Z</time></trkpt><trkpt lat="44.66176" lon="8.2889519"><ele>236.6</ele><time>2026-04-04T12:02:27.548Z</time></trkpt><trkpt lat="44.6616461" lon="8.2889124"><ele>236.8</ele><time>2026-04-04T12:02:28.55Z</time></trkpt><trkpt lat="44.6615386" lon="8.2888097"><ele>237.0</ele><time>2026-04-04T12:02:29.549Z</time></trkpt><trkpt lat="44.6614335" lon="8.288661"><ele>239.33333333333331</ele><time>2026-04-04T12:02:30.549Z</time></trkpt><trkpt lat="44.6613389" lon="8.2885092"><ele>241.66666666666666</ele><time>2026-04-04T12:02:31.55Z</time></trkpt><trkpt lat="44.6612425" lon="8.288339"><ele>244.0</ele><time>2026-04-04T12:02:32.55Z</time></trkpt><trkpt lat="44.6611385" lon="8.2881772"><ele>245.33333333333331</ele><time>2026-04-04T12:02:33.549Z</time></trkpt><trkpt lat="44.6610105" lon="8.288048"><ele>246.66666666666669</ele><time>2026-04-04T12:02:34.55Z</time></trkpt><trkpt lat="44.6608613" lon="8.2879751"><ele>248.0</ele><time>2026-04-04T12:02:35.55Z</time></trkpt><trkpt lat="44.6606993" lon="8.2879457"><ele>248.0</ele><time>2026-04-04T12:02:36.55Z</time></trkpt><trkpt lat="44.6605197" lon="8.287957"><ele>248.0</ele><time>2026-04-04T12:02:37.55Z</time></trkpt><trkpt lat="44.6603266" lon="8.2879742"><ele>248.0</ele><time>2026-04-04T12:02:38.55Z</time></trkpt><trkpt lat="44.6601331" lon="8.2879817"><ele>249.33333333333334</ele><time>2026-04-04T12:02:39.55Z</time></trkpt><trkpt lat="44.659944" lon="8.2879822"><ele>250.66666666666669</ele><time>2026-04-04T12:02:40.55Z</time></trkpt><trkpt lat="44.6597563" lon="8.2879832"><ele>252.0</ele><time>2026-04-04T12:02:41.549Z</time></trkpt><trkpt lat="44.6595844" lon="8.2879847"><ele>252.33333333333331</ele><time>2026-04-04T12:02:42.55Z</time></trkpt><trkpt lat="44.6594221" lon="8.2879807"><ele>252.66666666666666</ele><time>2026-04-04T12:02:43.55Z</time></trkpt><trkpt lat="44.6592606" lon="8.2879723"><ele>253.0</ele><time>2026-04-04T12:02:44.55Z</time></trkpt><trkpt lat="44.6590979" lon="8.2879584"><ele>253.0</ele><time>2026-04-04T12:02:45.55Z</time></trkpt><trkpt lat="44.6589364" lon="8.2879415"><ele>253.0</ele><time>2026-04-04T12:02:46.55Z</time></trkpt><trkpt lat="44.658782" lon="8.2879183"><ele>253.0</ele><time>2026-04-04T12:02:47.55Z</time></trkpt><trkpt lat="44.6586345" lon="8.2878827"><ele>253.0</ele><time>2026-04-04T12:02:48.55Z</time></trkpt><trkpt lat="44.658492" lon="8.2878371"><ele>253.0</ele><time>2026-04-04T12:02:49.55Z</time></trkpt><trkpt lat="44.6583516" lon="8.2877897"><ele>253.0</ele><time>2026-04-04T12:02:50.549Z</time></trkpt><trkpt lat="44.6582103" lon="8.2877424"><ele>253.0</ele><time>2026-04-04T12:02:51.551Z</time></trkpt><trkpt lat="44.6580627" lon="8.2876947"><ele>253.0</ele><time>2026-04-04T12:02:52.55Z</time></trkpt><trkpt lat="44.6579125" lon="8.2876352"><ele>253.0</ele><time>2026-04-04T12:02:53.55Z</time></trkpt><trkpt lat="44.6577638" lon="8.2875505"><ele>253.0</ele><time>2026-04-04T12:02:54.55Z</time></trkpt><trkpt lat="44.6576237" lon="8.2874253"><ele>253.0</ele><time>2026-04-04T12:02:55.55Z</time></trkpt><trkpt lat="44.6574947" lon="8.2872637"><ele>253.0</ele><time>2026-04-04T12:02:56.55Z</time></trkpt><trkpt lat="44.6573716" lon="8.2870808"><ele>253.0</ele><time>2026-04-04T12:02:57.55Z</time></trkpt><trkpt lat="44.6572543" lon="8.2868896"><ele>252.66666666666666</ele><time>2026-04-04T12:02:58.551Z</time></trkpt><trkpt lat="44.6571401" lon="8.2867085"><ele>252.33333333333331</ele><time>2026-04-04T12:02:59.55Z</time></trkpt><trkpt lat="44.6570341" lon="8.2865492"><ele>252.0</ele><time>2026-04-04T12:03:00.55Z</time></trkpt><trkpt lat="44.6569342" lon="8.2864068"><ele>252.0</ele><time>2026-04-04T12:03:01.55Z</time></trkpt><trkpt lat="44.6568376" lon="8.2862727"><ele>252.0</ele><time>2026-04-04T12:03:02.55Z</time></trkpt><trkpt lat="44.6567448" lon="8.2861426"><ele>252.0</ele><time>2026-04-04T12:03:03.55Z</time></trkpt><trkpt lat="44.6566624" lon="8.286013"><ele>252.0</ele><time>2026-04-04T12:03:04.55Z</time></trkpt><trkpt lat="44.6565982" lon="8.2858737"><ele>252.0</ele><time>2026-04-04T12:03:05.549Z</time></trkpt><trkpt lat="44.6565634" lon="8.2856997"><ele>252.0</ele><time>2026-04-04T12:03:06.55Z</time></trkpt><trkpt lat="44.6565722" lon="8.2854836"><ele>252.0</ele><time>2026-04-04T12:03:07.549Z</time></trkpt><trkpt lat="44.6565959" lon="8.2852786"><ele>252.0</ele><time>2026-04-04T12:03:08.55Z</time></trkpt><trkpt lat="44.6566275" lon="8.2850548"><ele>250.33333333333331</ele><time>2026-04-04T12:03:09.55Z</time></trkpt><trkpt lat="44.6566684" lon="8.2848459"><ele>248.66666666666666</ele><time>2026-04-04T12:03:10.55Z</time></trkpt><trkpt lat="44.6567387" lon="8.2846459"><ele>247.0</ele><time>2026-04-04T12:03:11.551Z</time></trkpt><trkpt lat="44.6568304" lon="8.2844459"><ele>252.33333333333331</ele><time>2026-04-04T12:03:12.549Z</time></trkpt><trkpt lat="44.6569291" lon="8.2842621"><ele>257.6666666666667</ele><time>2026-04-04T12:03:13.55Z</time></trkpt><trkpt lat="44.6570247" lon="8.2841013"><ele>263.0</ele><time>2026-04-04T12:03:14.551Z</time></trkpt><trkpt lat="44.6571388" lon="8.2839706"><ele>252.33333333333334</ele><time>2026-04-04T12:03:15.55Z</time></trkpt><trkpt lat="44.6572699" lon="8.2838565"><ele>241.66666666666669</ele><time>2026-04-04T12:03:16.551Z</time></trkpt><trkpt lat="44.6574124" lon="8.2837403"><ele>231.0</ele><time>2026-04-04T12:03:17.551Z</time></trkpt><trkpt lat="44.6575592" lon="8.2836178"><ele>231.0</ele><time>2026-04-04T12:03:18.55Z</time></trkpt><trkpt lat="44.6577007" lon="8.2834981"><ele>231.0</ele><time>2026-04-04T12:03:19.551Z</time></trkpt><trkpt lat="44.6578347" lon="8.2833727"><ele>231.0</ele><time>2026-04-04T12:03:20.551Z</time></trkpt><trkpt lat="44.6579657" lon="8.2832444"><ele>230.33333333333331</ele><time>2026-04-04T12:03:21.549Z</time></trkpt><trkpt lat="44.658097" lon="8.2831107"><ele>229.66666666666666</ele><time>2026-04-04T12:03:22.551Z</time></trkpt><trkpt lat="44.6582328" lon="8.2829761"><ele>229.0</ele><time>2026-04-04T12:03:23.551Z</time></trkpt><trkpt lat="44.6583693" lon="8.2828503"><ele>229.0</ele><time>2026-04-04T12:03:24.55Z</time></trkpt><trkpt lat="44.6585074" lon="8.2827481"><ele>229.0</ele><time>2026-04-04T12:03:25.551Z</time></trkpt><trkpt lat="44.6586457" lon="8.2826506"><ele>229.0</ele><time>2026-04-04T12:03:26.55Z</time></trkpt><trkpt lat="44.6587922" lon="8.2824927"><ele>230.33333333333331</ele><time>2026-04-04T12:03:27.551Z</time></trkpt><trkpt lat="44.6589263" lon="8.2822938"><ele>231.66666666666669</ele><time>2026-04-04T12:03:28.551Z</time></trkpt><trkpt lat="44.6590415" lon="8.2821198"><ele>233.0</ele><time>2026-04-04T12:03:29.551Z</time></trkpt><trkpt lat="44.6591595" lon="8.2819587"><ele>233.0</ele><time>2026-04-04T12:03:30.551Z</time></trkpt><trkpt lat="44.6592822" lon="8.2818032"><ele>233.0</ele><time>2026-04-04T12:03:31.55Z</time></trkpt><trkpt lat="44.6594118" lon="8.2816496"><ele>233.0</ele><time>2026-04-04T12:03:32.551Z</time></trkpt><trkpt lat="44.659545" lon="8.2814896"><ele>231.0</ele><time>2026-04-04T12:03:33.551Z</time></trkpt><trkpt lat="44.6596853" lon="8.2813301"><ele>229.0</ele><time>2026-04-04T12:03:34.551Z</time></trkpt><trkpt lat="44.6598387" lon="8.2811675"><ele>227.0</ele><time>2026-04-04T12:03:35.55Z</time></trkpt><trkpt lat="44.6599979" lon="8.2810055"><ele>227.0</ele><time>2026-04-04T12:03:36.55Z</time></trkpt><trkpt lat="44.6601603" lon="8.2808471"><ele>227.0</ele><time>2026-04-04T12:03:37.551Z</time></trkpt><trkpt lat="44.6603344" lon="8.2807121"><ele>227.0</ele><time>2026-04-04T12:03:38.55Z</time></trkpt><trkpt lat="44.6604932" lon="8.2805554"><ele>229.33333333333334</ele><time>2026-04-04T12:03:39.551Z</time></trkpt><trkpt lat="44.6606448" lon="8.2804064"><ele>231.66666666666669</ele><time>2026-04-04T12:03:40.551Z</time></trkpt><trkpt lat="44.6607841" lon="8.2802642"><ele>234.0</ele><time>2026-04-04T12:03:41.551Z</time></trkpt><trkpt lat="44.6609203" lon="8.2801274"><ele>234.0</ele><time>2026-04-04T12:03:42.551Z</time></trkpt><trkpt lat="44.661041" lon="8.2799882"><ele>234.0</ele><time>2026-04-04T12:03:43.551Z</time></trkpt><trkpt lat="44.6611154" lon="8.279807"><ele>234.0</ele><time>2026-04-04T12:03:44.551Z</time></trkpt><trkpt lat="44.6611772" lon="8.2795895"><ele>237.25</ele><time>2026-04-04T12:03:45.551Z</time></trkpt><trkpt lat="44.6611997" lon="8.2793868"><ele>240.5</ele><time>2026-04-04T12:03:46.551Z</time></trkpt><trkpt lat="44.6612375" lon="8.2792106"><ele>243.75</ele><time>2026-04-04T12:03:47.551Z</time></trkpt><trkpt lat="44.6613102" lon="8.279063"><ele>247.0</ele><time>2026-04-04T12:03:48.551Z</time></trkpt><trkpt lat="44.6614572" lon="8.2789398"><ele>236.66666666666666</ele><time>2026-04-04T12:03:49.551Z</time></trkpt><trkpt lat="44.6616097" lon="8.2788485"><ele>226.33333333333331</ele><time>2026-04-04T12:03:50.551Z</time></trkpt><trkpt lat="44.6617496" lon="8.2787303"><ele>216.0</ele><time>2026-04-04T12:03:51.551Z</time></trkpt><trkpt lat="44.6618735" lon="8.2785883"><ele>221.33333333333331</ele><time>2026-04-04T12:03:52.55Z</time></trkpt><trkpt lat="44.662016" lon="8.2784588"><ele>226.66666666666666</ele><time>2026-04-04T12:03:53.551Z</time></trkpt><trkpt lat="44.6621816" lon="8.2783622"><ele>232.0</ele><time>2026-04-04T12:03:54.55Z</time></trkpt><trkpt lat="44.662352" lon="8.2782941"><ele>232.0</ele><time>2026-04-04T12:03:55.551Z</time></trkpt><trkpt lat="44.6625122" lon="8.2782189"><ele>232.0</ele><time>2026-04-04T12:03:56.551Z</time></trkpt><trkpt lat="44.6626791" lon="8.2781479"><ele>232.0</ele><time>2026-04-04T12:03:57.551Z</time></trkpt><trkpt lat="44.6628356" lon="8.2780695"><ele>229.25</ele><time>2026-04-04T12:03:58.55Z</time></trkpt><trkpt lat="44.6629834" lon="8.2779973"><ele>226.5</ele><time>2026-04-04T12:03:59.552Z</time></trkpt><trkpt lat="44.6631246" lon="8.2779347"><ele>223.75</ele><time>2026-04-04T12:04:00.551Z</time></trkpt><trkpt lat="44.6632624" lon="8.2778773"><ele>221.0</ele><time>2026-04-04T12:04:01.551Z</time></trkpt><trkpt lat="44.6633977" lon="8.2778061"><ele>221.0</ele><time>2026-04-04T12:04:02.551Z</time></trkpt><trkpt lat="44.663526" lon="8.2776543"><ele>221.0</ele><time>2026-04-04T12:04:03.551Z</time></trkpt><trkpt lat="44.6636355" lon="8.2774616"><ele>221.0</ele><time>2026-04-04T12:04:04.551Z</time></trkpt><trkpt lat="44.6637289" lon="8.2772363"><ele>221.33333333333334</ele><time>2026-04-04T12:04:05.551Z</time></trkpt><trkpt lat="44.6638314" lon="8.2770282"><ele>221.66666666666669</ele><time>2026-04-04T12:04:06.551Z</time></trkpt><trkpt lat="44.6639448" lon="8.2768379"><ele>222.0</ele><time>2026-04-04T12:04:07.551Z</time></trkpt><trkpt lat="44.6640654" lon="8.2766716"><ele>222.0</ele><time>2026-04-04T12:04:08.551Z</time></trkpt><trkpt lat="44.6641809" lon="8.2765207"><ele>222.0</ele><time>2026-04-04T12:04:09.552Z</time></trkpt><trkpt lat="44.6642893" lon="8.2763742"><ele>222.0</ele><time>2026-04-04T12:04:10.55Z</time></trkpt><trkpt lat="44.6643793" lon="8.2762031"><ele>218.33333333333331</ele><time>2026-04-04T12:04:11.552Z</time></trkpt><trkpt lat="44.6644441" lon="8.2759804"><ele>214.66666666666666</ele><time>2026-04-04T12:04:12.551Z</time></trkpt><trkpt lat="44.6644764" lon="8.2757137"><ele>211.0</ele><time>2026-04-04T12:04:13.552Z</time></trkpt><trkpt lat="44.6644865" lon="8.2754388"><ele>217.66666666666666</ele><time>2026-04-04T12:04:14.551Z</time></trkpt><trkpt lat="44.6645018" lon="8.2751609"><ele>224.33333333333331</ele><time>2026-04-04T12:04:15.551Z</time></trkpt><trkpt lat="44.664528" lon="8.2748983"><ele>231.0</ele><time>2026-04-04T12:04:16.551Z</time></trkpt><trkpt lat="44.6645555" lon="8.2746341"><ele>231.0</ele><time>2026-04-04T12:04:17.551Z</time></trkpt><trkpt lat="44.6645736" lon="8.2743748"><ele>231.0</ele><time>2026-04-04T12:04:18.551Z</time></trkpt><trkpt lat="44.6645769" lon="8.2741276"><ele>231.0</ele><time>2026-04-04T12:04:19.55Z</time></trkpt><trkpt lat="44.6645488" lon="8.2738658"><ele>228.0</ele><time>2026-04-04T12:04:20.551Z</time></trkpt><trkpt lat="44.6645078" lon="8.2736168"><ele>225.0</ele><time>2026-04-04T12:04:21.552Z</time></trkpt><trkpt lat="44.6644382" lon="8.2733928"><ele>222.0</ele><time>2026-04-04T12:04:22.551Z</time></trkpt><trkpt lat="44.6643747" lon="8.2731684"><ele>220.66666666666669</ele><time>2026-04-04T12:04:23.552Z</time></trkpt><trkpt lat="44.6643161" lon="8.2729595"><ele>219.33333333333334</ele><time>2026-04-04T12:04:24.552Z</time></trkpt><trkpt lat="44.6642567" lon="8.272765"><ele>218.0</ele><time>2026-04-04T12:04:25.552Z</time></trkpt><trkpt lat="44.6641825" lon="8.2725713"><ele>218.0</ele><time>2026-04-04T12:04:26.552Z</time></trkpt><trkpt lat="44.6640535" lon="8.2723912"><ele>218.0</ele><time>2026-04-04T12:04:27.552Z</time></trkpt><trkpt lat="44.6639042" lon="8.2722458"><ele>218.0</ele><time>2026-04-04T12:04:28.551Z</time></trkpt><trkpt lat="44.6637663" lon="8.2720992"><ele>215.0</ele><time>2026-04-04T12:04:29.552Z</time></trkpt><trkpt lat="44.6636202" lon="8.2719659"><ele>212.0</ele><time>2026-04-04T12:04:30.552Z</time></trkpt><trkpt lat="44.6634879" lon="8.2718293"><ele>209.0</ele><time>2026-04-04T12:04:31.552Z</time></trkpt><trkpt lat="44.66337" lon="8.2716773"><ele>209.0</ele><time>2026-04-04T12:04:32.552Z</time></trkpt><trkpt lat="44.6632534" lon="8.2715242"><ele>209.0</ele><time>2026-04-04T12:04:33.551Z</time></trkpt><trkpt lat="44.6631408" lon="8.2713774"><ele>209.0</ele><time>2026-04-04T12:04:34.551Z</time></trkpt><trkpt lat="44.6630233" lon="8.2712329"><ele>208.0</ele><time>2026-04-04T12:04:35.551Z</time></trkpt><trkpt lat="44.6629089" lon="8.2711071"><ele>207.0</ele><time>2026-04-04T12:04:36.552Z</time></trkpt><trkpt lat="44.6628027" lon="8.2709941"><ele>206.0</ele><time>2026-04-04T12:04:37.552Z</time></trkpt><trkpt lat="44.6627007" lon="8.2708799"><ele>205.0</ele><time>2026-04-04T12:04:38.552Z</time></trkpt><trkpt lat="44.6625866" lon="8.2707685"><ele>205.0</ele><time>2026-04-04T12:04:39.552Z</time></trkpt><trkpt lat="44.6624675" lon="8.2706529"><ele>205.0</ele><time>2026-04-04T12:04:40.552Z</time></trkpt><trkpt lat="44.662339" lon="8.2705444"><ele>205.0</ele><time>2026-04-04T12:04:41.552Z</time></trkpt><trkpt lat="44.6622121" lon="8.2704332"><ele>205.0</ele><time>2026-04-04T12:04:42.551Z</time></trkpt><trkpt lat="44.6620888" lon="8.2703174"><ele>205.0</ele><time>2026-04-04T12:04:43.552Z</time></trkpt><trkpt lat="44.66197" lon="8.2702082"><ele>205.0</ele><time>2026-04-04T12:04:44.552Z</time></trkpt><trkpt lat="44.6618625" lon="8.2701116"><ele>205.0</ele><time>2026-04-04T12:04:45.552Z</time></trkpt><trkpt lat="44.6617604" lon="8.2700187"><ele>205.0</ele><time>2026-04-04T12:04:46.552Z</time></trkpt><trkpt lat="44.6616477" lon="8.2699363"><ele>205.0</ele><time>2026-04-04T12:04:47.552Z</time></trkpt><trkpt lat="44.6615339" lon="8.2698616"><ele>205.0</ele><time>2026-04-04T12:04:48.552Z</time></trkpt><trkpt lat="44.6614139" lon="8.2698063"><ele>205.0</ele><time>2026-04-04T12:04:49.552Z</time></trkpt><trkpt lat="44.6612803" lon="8.2697544"><ele>205.0</ele><time>2026-04-04T12:04:50.551Z</time></trkpt><trkpt lat="44.6611475" lon="8.2697003"><ele>207.75</ele><time>2026-04-04T12:04:51.552Z</time></trkpt><trkpt lat="44.66101" lon="8.2696347"><ele>210.5</ele><time>2026-04-04T12:04:52.551Z</time></trkpt><trkpt lat="44.6608677" lon="8.2695694"><ele>213.25</ele><time>2026-04-04T12:04:53.552Z</time></trkpt><trkpt lat="44.6607264" lon="8.2695065"><ele>216.0</ele><time>2026-04-04T12:04:54.552Z</time></trkpt><trkpt lat="44.6605866" lon="8.269444"><ele>216.0</ele><time>2026-04-04T12:04:55.552Z</time></trkpt><trkpt lat="44.6604438" lon="8.2693861"><ele>216.0</ele><time>2026-04-04T12:04:56.552Z</time></trkpt><trkpt lat="44.6603" lon="8.2693247"><ele>216.0</ele><time>2026-04-04T12:04:57.552Z</time></trkpt><trkpt lat="44.6601522" lon="8.2692607"><ele>214.33333333333331</ele><time>2026-04-04T12:04:58.552Z</time></trkpt><trkpt lat="44.6600028" lon="8.269198"><ele>212.66666666666666</ele><time>2026-04-04T12:04:59.552Z</time></trkpt><trkpt lat="44.6598491" lon="8.2691399"><ele>211.0</ele><time>2026-04-04T12:05:00.553Z</time></trkpt><trkpt lat="44.6596936" lon="8.2690782"><ele>211.0</ele><time>2026-04-04T12:05:01.551Z</time></trkpt><trkpt lat="44.6595376" lon="8.2690139"><ele>211.0</ele><time>2026-04-04T12:05:02.552Z</time></trkpt><trkpt lat="44.659382" lon="8.2689526"><ele>211.0</ele><time>2026-04-04T12:05:03.552Z</time></trkpt><trkpt lat="44.6592208" lon="8.2688935"><ele>213.66666666666666</ele><time>2026-04-04T12:05:04.552Z</time></trkpt><trkpt lat="44.6590592" lon="8.2688206"><ele>216.33333333333331</ele><time>2026-04-04T12:05:05.552Z</time></trkpt><trkpt lat="44.6588977" lon="8.2687277"><ele>219.0</ele><time>2026-04-04T12:05:06.553Z</time></trkpt><trkpt lat="44.6587374" lon="8.2686239"><ele>216.0</ele><time>2026-04-04T12:05:07.552Z</time></trkpt><trkpt lat="44.6585774" lon="8.2685161"><ele>213.0</ele><time>2026-04-04T12:05:08.553Z</time></trkpt><trkpt lat="44.6584239" lon="8.2684104"><ele>210.0</ele><time>2026-04-04T12:05:09.552Z</time></trkpt><trkpt lat="44.658278" lon="8.2683104"><ele>210.0</ele><time>2026-04-04T12:05:10.553Z</time></trkpt><trkpt lat="44.6581356" lon="8.2682164"><ele>210.0</ele><time>2026-04-04T12:05:11.553Z</time></trkpt><trkpt lat="44.6579937" lon="8.2681181"><ele>210.0</ele><time>2026-04-04T12:05:12.553Z</time></trkpt><trkpt lat="44.6578506" lon="8.2680151"><ele>211.66666666666669</ele><time>2026-04-04T12:05:13.552Z</time></trkpt><trkpt lat="44.6577023" lon="8.267912"><ele>213.33333333333334</ele><time>2026-04-04T12:05:14.552Z</time></trkpt><trkpt lat="44.6575545" lon="8.2678066"><ele>215.0</ele><time>2026-04-04T12:05:15.551Z</time></trkpt><trkpt lat="44.6574109" lon="8.2677061"><ele>215.0</ele><time>2026-04-04T12:05:16.552Z</time></trkpt><trkpt lat="44.657269" lon="8.267612"><ele>215.0</ele><time>2026-04-04T12:05:17.552Z</time></trkpt><trkpt lat="44.6571323" lon="8.2675157"><ele>215.0</ele><time>2026-04-04T12:05:18.553Z</time></trkpt><trkpt lat="44.6569966" lon="8.2674177"><ele>213.75</ele><time>2026-04-04T12:05:19.553Z</time></trkpt><trkpt lat="44.6568673" lon="8.2673283"><ele>212.5</ele><time>2026-04-04T12:05:20.552Z</time></trkpt><trkpt lat="44.6567524" lon="8.2672447"><ele>211.25</ele><time>2026-04-04T12:05:21.552Z</time></trkpt><trkpt lat="44.6566448" lon="8.2671608"><ele>210.0</ele><time>2026-04-04T12:05:22.552Z</time></trkpt><trkpt lat="44.6565368" lon="8.2670554"><ele>210.0</ele><time>2026-04-04T12:05:23.553Z</time></trkpt><trkpt lat="44.6564089" lon="8.2669407"><ele>210.0</ele><time>2026-04-04T12:05:24.553Z</time></trkpt><trkpt lat="44.6562561" lon="8.2668283"><ele>210.0</ele><time>2026-04-04T12:05:25.553Z</time></trkpt><trkpt lat="44.6560724" lon="8.2667495"><ele>211.33333333333331</ele><time>2026-04-04T12:05:26.552Z</time></trkpt><trkpt lat="44.6558621" lon="8.2667323"><ele>212.66666666666666</ele><time>2026-04-04T12:05:27.553Z</time></trkpt><trkpt lat="44.6556536" lon="8.2667085"><ele>214.0</ele><time>2026-04-04T12:05:28.553Z</time></trkpt><trkpt lat="44.6554365" lon="8.2666922"><ele>212.0</ele><time>2026-04-04T12:05:29.552Z</time></trkpt><trkpt lat="44.6552131" lon="8.2666701"><ele>210.0</ele><time>2026-04-04T12:05:30.553Z</time></trkpt><trkpt lat="44.6549885" lon="8.2666451"><ele>208.0</ele><time>2026-04-04T12:05:31.554Z</time></trkpt><trkpt lat="44.6547707" lon="8.266618"><ele>208.0</ele><time>2026-04-04T12:05:32.553Z</time></trkpt><trkpt lat="44.654556" lon="8.2665886"><ele>208.0</ele><time>2026-04-04T12:05:33.552Z</time></trkpt><trkpt lat="44.6543433" lon="8.2665598"><ele>208.0</ele><time>2026-04-04T12:05:34.553Z</time></trkpt><trkpt lat="44.6541354" lon="8.2665303"><ele>206.33333333333331</ele><time>2026-04-04T12:05:35.552Z</time></trkpt><trkpt lat="44.6539267" lon="8.2665035"><ele>204.66666666666669</ele><time>2026-04-04T12:05:36.552Z</time></trkpt><trkpt lat="44.6537255" lon="8.2664743"><ele>203.0</ele><time>2026-04-04T12:05:37.552Z</time></trkpt><trkpt lat="44.653525" lon="8.2664437"><ele>208.66666666666669</ele><time>2026-04-04T12:05:38.553Z</time></trkpt><trkpt lat="44.6533213" lon="8.2664178"><ele>214.33333333333331</ele><time>2026-04-04T12:05:39.552Z</time></trkpt><trkpt lat="44.6531159" lon="8.2663885"><ele>220.0</ele><time>2026-04-04T12:05:40.553Z</time></trkpt><trkpt lat="44.652912" lon="8.2663624"><ele>218.66666666666666</ele><time>2026-04-04T12:05:41.552Z</time></trkpt><trkpt lat="44.6527081" lon="8.2663355"><ele>217.33333333333331</ele><time>2026-04-04T12:05:42.552Z</time></trkpt><trkpt lat="44.652504" lon="8.2663061"><ele>216.0</ele><time>2026-04-04T12:05:43.553Z</time></trkpt><trkpt lat="44.6522968" lon="8.2662789"><ele>216.0</ele><time>2026-04-04T12:05:44.553Z</time></trkpt><trkpt lat="44.6520925" lon="8.2662547"><ele>216.0</ele><time>2026-04-04T12:05:45.552Z</time></trkpt><trkpt lat="44.6518932" lon="8.2662316"><ele>216.0</ele><time>2026-04-04T12:05:46.553Z</time></trkpt><trkpt lat="44.6516994" lon="8.2662059"><ele>214.66666666666669</ele><time>2026-04-04T12:05:47.553Z</time></trkpt><trkpt lat="44.6515129" lon="8.2661788"><ele>213.33333333333334</ele><time>2026-04-04T12:05:48.554Z</time></trkpt><trkpt lat="44.6513326" lon="8.2661521"><ele>212.0</ele><time>2026-04-04T12:05:49.553Z</time></trkpt><trkpt lat="44.6511538" lon="8.2661251"><ele>210.66666666666669</ele><time>2026-04-04T12:05:50.553Z</time></trkpt><trkpt lat="44.6509807" lon="8.2660777"><ele>209.33333333333331</ele><time>2026-04-04T12:05:51.554Z</time></trkpt><trkpt lat="44.6508243" lon="8.265969"><ele>208.0</ele><time>2026-04-04T12:05:52.553Z</time></trkpt><trkpt lat="44.6506984" lon="8.2657864"><ele>212.66666666666666</ele><time>2026-04-04T12:05:53.553Z</time></trkpt><trkpt lat="44.6505794" lon="8.2655942"><ele>217.33333333333331</ele><time>2026-04-04T12:05:54.553Z</time></trkpt><trkpt lat="44.6504704" lon="8.2654081"><ele>222.0</ele><time>2026-04-04T12:05:55.553Z</time></trkpt><trkpt lat="44.6503935" lon="8.2651888"><ele>222.0</ele><time>2026-04-04T12:05:56.553Z</time></trkpt><trkpt lat="44.6503534" lon="8.2649435"><ele>222.0</ele><time>2026-04-04T12:05:57.552Z</time></trkpt><trkpt lat="44.6503375" lon="8.2646741"><ele>222.0</ele><time>2026-04-04T12:05:58.553Z</time></trkpt><trkpt lat="44.6503522" lon="8.2643994"><ele>224.0</ele><time>2026-04-04T12:05:59.554Z</time></trkpt><trkpt lat="44.6503717" lon="8.2641406"><ele>226.0</ele><time>2026-04-04T12:06:00.553Z</time></trkpt><trkpt lat="44.6504203" lon="8.263895"><ele>228.0</ele><time>2026-04-04T12:06:01.553Z</time></trkpt><trkpt lat="44.6504994" lon="8.2636476"><ele>224.0</ele><time>2026-04-04T12:06:02.553Z</time></trkpt><trkpt lat="44.6505932" lon="8.263391"><ele>220.0</ele><time>2026-04-04T12:06:03.553Z</time></trkpt><trkpt lat="44.650684" lon="8.2631264"><ele>216.0</ele><time>2026-04-04T12:06:04.552Z</time></trkpt><trkpt lat="44.6507623" lon="8.2628523"><ele>212.0</ele><time>2026-04-04T12:06:05.553Z</time></trkpt><trkpt lat="44.6508355" lon="8.2625653"><ele>208.0</ele><time>2026-04-04T12:06:06.553Z</time></trkpt><trkpt lat="44.6509134" lon="8.2622889"><ele>204.0</ele><time>2026-04-04T12:06:07.553Z</time></trkpt><trkpt lat="44.6509928" lon="8.2620084"><ele>204.0</ele><time>2026-04-04T12:06:08.553Z</time></trkpt><trkpt lat="44.6510741" lon="8.261721"><ele>204.0</ele><time>2026-04-04T12:06:09.553Z</time></trkpt><trkpt lat="44.6511574" lon="8.2614345"><ele>204.0</ele><time>2026-04-04T12:06:10.553Z</time></trkpt><trkpt lat="44.6512444" lon="8.2611478"><ele>204.0</ele><time>2026-04-04T12:06:11.553Z</time></trkpt><trkpt lat="44.6513255" lon="8.2608699"><ele>204.0</ele><time>2026-04-04T12:06:12.552Z</time></trkpt><trkpt lat="44.6514029" lon="8.2606001"><ele>204.0</ele><time>2026-04-04T12:06:13.553Z</time></trkpt><trkpt lat="44.6514791" lon="8.2603344"><ele>203.0</ele><time>2026-04-04T12:06:14.553Z</time></trkpt><trkpt lat="44.651556" lon="8.2600668"><ele>202.0</ele><time>2026-04-04T12:06:15.553Z</time></trkpt><trkpt lat="44.6516333" lon="8.2597981"><ele>201.0</ele><time>2026-04-04T12:06:16.553Z</time></trkpt><trkpt lat="44.6517111" lon="8.2595287"><ele>200.66666666666669</ele><time>2026-04-04T12:06:17.553Z</time></trkpt><trkpt lat="44.6517892" lon="8.2592593"><ele>200.33333333333334</ele><time>2026-04-04T12:06:18.553Z</time></trkpt><trkpt lat="44.6518663" lon="8.2589917"><ele>200.0</ele><time>2026-04-04T12:06:19.552Z</time></trkpt><trkpt lat="44.6519408" lon="8.2587265"><ele>201.33333333333334</ele><time>2026-04-04T12:06:20.553Z</time></trkpt><trkpt lat="44.652012" lon="8.2584658"><ele>202.66666666666669</ele><time>2026-04-04T12:06:21.553Z</time></trkpt><trkpt lat="44.6520838" lon="8.2582123"><ele>204.0</ele><time>2026-04-04T12:06:22.553Z</time></trkpt><trkpt lat="44.6521578" lon="8.2579632"><ele>204.0</ele><time>2026-04-04T12:06:23.554Z</time></trkpt><trkpt lat="44.6522316" lon="8.2577121"><ele>204.0</ele><time>2026-04-04T12:06:24.554Z</time></trkpt><trkpt lat="44.652309" lon="8.2574555"><ele>204.0</ele><time>2026-04-04T12:06:25.553Z</time></trkpt><trkpt lat="44.6523817" lon="8.2571906"><ele>203.33333333333331</ele><time>2026-04-04T12:06:26.553Z</time></trkpt><trkpt lat="44.6524591" lon="8.2569226"><ele>202.66666666666666</ele><time>2026-04-04T12:06:27.554Z</time></trkpt><trkpt lat="44.6525326" lon="8.2566465"><ele>202.0</ele><time>2026-04-04T12:06:28.554Z</time></trkpt><trkpt lat="44.6526114" lon="8.2563738"><ele>200.66666666666666</ele><time>2026-04-04T12:06:29.554Z</time></trkpt><trkpt lat="44.6526859" lon="8.2560996"><ele>199.33333333333331</ele><time>2026-04-04T12:06:30.553Z</time></trkpt><trkpt lat="44.6527568" lon="8.2558293"><ele>198.0</ele><time>2026-04-04T12:06:31.553Z</time></trkpt><trkpt lat="44.6528307" lon="8.2555662"><ele>203.66666666666669</ele><time>2026-04-04T12:06:32.553Z</time></trkpt><trkpt lat="44.6529063" lon="8.2553079"><ele>209.33333333333334</ele><time>2026-04-04T12:06:33.553Z</time></trkpt><trkpt lat="44.6529774" lon="8.2550506"><ele>215.0</ele><time>2026-04-04T12:06:34.554Z</time></trkpt><trkpt lat="44.6530408" lon="8.2547815"><ele>215.0</ele><time>2026-04-04T12:06:35.553Z</time></trkpt><trkpt lat="44.6530926" lon="8.2544935"><ele>215.0</ele><time>2026-04-04T12:06:36.554Z</time></trkpt><trkpt lat="44.653138" lon="8.2542041"><ele>215.0</ele><time>2026-04-04T12:06:37.554Z</time></trkpt><trkpt lat="44.6531704" lon="8.2539048"><ele>214.33333333333334</ele><time>2026-04-04T12:06:38.553Z</time></trkpt><trkpt lat="44.6531958" lon="8.2536017"><ele>213.66666666666669</ele><time>2026-04-04T12:06:39.553Z</time></trkpt><trkpt lat="44.6532168" lon="8.2532921"><ele>213.0</ele><time>2026-04-04T12:06:40.553Z</time></trkpt><trkpt lat="44.6532353" lon="8.2529788"><ele>213.0</ele><time>2026-04-04T12:06:41.554Z</time></trkpt><trkpt lat="44.6532524" lon="8.2526684"><ele>213.0</ele><time>2026-04-04T12:06:42.554Z</time></trkpt><trkpt lat="44.653266" lon="8.2523687"><ele>213.0</ele><time>2026-04-04T12:06:43.554Z</time></trkpt><trkpt lat="44.6532795" lon="8.2520729"><ele>213.33333333333331</ele><time>2026-04-04T12:06:44.554Z</time></trkpt><trkpt lat="44.6532902" lon="8.2517826"><ele>213.66666666666666</ele><time>2026-04-04T12:06:45.554Z</time></trkpt><trkpt lat="44.6533019" lon="8.2514929"><ele>214.0</ele><time>2026-04-04T12:06:46.554Z</time></trkpt><trkpt lat="44.6533126" lon="8.2512026"><ele>214.0</ele><time>2026-04-04T12:06:47.554Z</time></trkpt><trkpt lat="44.6533279" lon="8.2509185"><ele>214.0</ele><time>2026-04-04T12:06:48.554Z</time></trkpt><trkpt lat="44.6533352" lon="8.2506319"><ele>214.0</ele><time>2026-04-04T12:06:49.554Z</time></trkpt><trkpt lat="44.6533452" lon="8.2503455"><ele>214.0</ele><time>2026-04-04T12:06:50.554Z</time></trkpt><trkpt lat="44.6533522" lon="8.2500552"><ele>214.0</ele><time>2026-04-04T12:06:51.554Z</time></trkpt><trkpt lat="44.653348" lon="8.2497632"><ele>214.0</ele><time>2026-04-04T12:06:52.554Z</time></trkpt><trkpt lat="44.6533308" lon="8.2494744"><ele>216.66666666666666</ele><time>2026-04-04T12:06:53.553Z</time></trkpt><trkpt lat="44.6532949" lon="8.2491905"><ele>219.33333333333331</ele><time>2026-04-04T12:06:54.554Z</time></trkpt><trkpt lat="44.6532458" lon="8.2489233"><ele>222.0</ele><time>2026-04-04T12:06:55.554Z</time></trkpt><trkpt lat="44.6531916" lon="8.2486659"><ele>226.33333333333331</ele><time>2026-04-04T12:06:56.555Z</time></trkpt><trkpt lat="44.6531324" lon="8.2484226"><ele>230.66666666666666</ele><time>2026-04-04T12:06:57.554Z</time></trkpt><trkpt lat="44.6530643" lon="8.2481893"><ele>235.0</ele><time>2026-04-04T12:06:58.553Z</time></trkpt><trkpt lat="44.6529843" lon="8.2479653"><ele>241.66666666666666</ele><time>2026-04-04T12:06:59.554Z</time></trkpt><trkpt lat="44.65289" lon="8.2477511"><ele>248.33333333333331</ele><time>2026-04-04T12:07:00.555Z</time></trkpt><trkpt lat="44.6527794" lon="8.2475509"><ele>255.0</ele><time>2026-04-04T12:07:01.554Z</time></trkpt><trkpt lat="44.6526503" lon="8.2473714"><ele>249.0</ele><time>2026-04-04T12:07:02.555Z</time></trkpt><trkpt lat="44.6525053" lon="8.2472081"><ele>243.0</ele><time>2026-04-04T12:07:03.555Z</time></trkpt><trkpt lat="44.6523642" lon="8.2470462"><ele>237.0</ele><time>2026-04-04T12:07:04.555Z</time></trkpt><trkpt lat="44.6522337" lon="8.2468845"><ele>237.0</ele><time>2026-04-04T12:07:05.555Z</time></trkpt><trkpt lat="44.6521129" lon="8.246728"><ele>237.0</ele><time>2026-04-04T12:07:06.555Z</time></trkpt><trkpt lat="44.6519969" lon="8.2465805"><ele>237.0</ele><time>2026-04-04T12:07:07.555Z</time></trkpt><trkpt lat="44.651883" lon="8.2464368"><ele>234.33333333333331</ele><time>2026-04-04T12:07:08.554Z</time></trkpt><trkpt lat="44.6517735" lon="8.2462968"><ele>231.66666666666666</ele><time>2026-04-04T12:07:09.554Z</time></trkpt><trkpt lat="44.6516486" lon="8.2461764"><ele>229.0</ele><time>2026-04-04T12:07:10.554Z</time></trkpt><trkpt lat="44.6515019" lon="8.2460876"><ele>229.0</ele><time>2026-04-04T12:07:11.554Z</time></trkpt><trkpt lat="44.6513258" lon="8.2460239"><ele>229.0</ele><time>2026-04-04T12:07:12.554Z</time></trkpt><trkpt lat="44.6511511" lon="8.2459826"><ele>229.0</ele><time>2026-04-04T12:07:13.555Z</time></trkpt><trkpt lat="44.650976" lon="8.2459415"><ele>225.66666666666666</ele><time>2026-04-04T12:07:14.554Z</time></trkpt><trkpt lat="44.6508035" lon="8.2458811"><ele>222.33333333333331</ele><time>2026-04-04T12:07:15.553Z</time></trkpt><trkpt lat="44.6506291" lon="8.2458208"><ele>219.0</ele><time>2026-04-04T12:07:16.553Z</time></trkpt><trkpt lat="44.6504555" lon="8.2457678"><ele>218.0</ele><time>2026-04-04T12:07:17.554Z</time></trkpt><trkpt lat="44.6502857" lon="8.2457175"><ele>217.0</ele><time>2026-04-04T12:07:18.554Z</time></trkpt><trkpt lat="44.6501262" lon="8.2456685"><ele>216.0</ele><time>2026-04-04T12:07:19.554Z</time></trkpt><trkpt lat="44.6499795" lon="8.2456161"><ele>219.66666666666669</ele><time>2026-04-04T12:07:20.554Z</time></trkpt><trkpt lat="44.649838" lon="8.2455691"><ele>223.33333333333334</ele><time>2026-04-04T12:07:21.554Z</time></trkpt><trkpt lat="44.649684" lon="8.2455328"><ele>227.0</ele><time>2026-04-04T12:07:22.554Z</time></trkpt><trkpt lat="44.6495333" lon="8.2454908"><ele>225.33333333333334</ele><time>2026-04-04T12:07:23.554Z</time></trkpt><trkpt lat="44.6493835" lon="8.2454505"><ele>223.66666666666669</ele><time>2026-04-04T12:07:24.553Z</time></trkpt><trkpt lat="44.6492364" lon="8.2454052"><ele>222.0</ele><time>2026-04-04T12:07:25.555Z</time></trkpt><trkpt lat="44.6490847" lon="8.2453631"><ele>222.0</ele><time>2026-04-04T12:07:26.554Z</time></trkpt><trkpt lat="44.6489198" lon="8.2453087"><ele>222.0</ele><time>2026-04-04T12:07:27.554Z</time></trkpt><trkpt lat="44.6487571" lon="8.2452928"><ele>222.0</ele><time>2026-04-04T12:07:28.554Z</time></trkpt><trkpt lat="44.6486028" lon="8.2452578"><ele>221.0</ele><time>2026-04-04T12:07:29.554Z</time></trkpt><trkpt lat="44.6484324" lon="8.2452397"><ele>220.0</ele><time>2026-04-04T12:07:30.555Z</time></trkpt><trkpt lat="44.6482774" lon="8.2452378"><ele>219.0</ele><time>2026-04-04T12:07:31.554Z</time></trkpt><trkpt lat="44.6481143" lon="8.245211"><ele>219.0</ele><time>2026-04-04T12:07:32.554Z</time></trkpt><trkpt lat="44.647949" lon="8.2451928"><ele>219.0</ele><time>2026-04-04T12:07:33.554Z</time></trkpt><trkpt lat="44.6477877" lon="8.2451543"><ele>219.0</ele><time>2026-04-04T12:07:34.555Z</time></trkpt><trkpt lat="44.6476225" lon="8.2451275"><ele>219.66666666666669</ele><time>2026-04-04T12:07:35.554Z</time></trkpt><trkpt lat="44.6474716" lon="8.2450924"><ele>220.33333333333334</ele><time>2026-04-04T12:07:36.554Z</time></trkpt><trkpt lat="44.6473166" lon="8.2450776"><ele>221.0</ele><time>2026-04-04T12:07:37.555Z</time></trkpt><trkpt lat="44.6471729" lon="8.2450785"><ele>221.0</ele><time>2026-04-04T12:07:38.555Z</time></trkpt><trkpt lat="44.6470022" lon="8.2450612"><ele>221.0</ele><time>2026-04-04T12:07:39.554Z</time></trkpt><trkpt lat="44.6468449" lon="8.2450548"><ele>221.0</ele><time>2026-04-04T12:07:40.555Z</time></trkpt><trkpt lat="44.6466918" lon="8.2450609"><ele>221.25</ele><time>2026-04-04T12:07:41.554Z</time></trkpt><trkpt lat="44.6465489" lon="8.2450568"><ele>221.5</ele><time>2026-04-04T12:07:42.555Z</time></trkpt><trkpt lat="44.6464043" lon="8.2450561"><ele>221.75</ele><time>2026-04-04T12:07:43.555Z</time></trkpt><trkpt lat="44.6462502" lon="8.2450706"><ele>222.0</ele><time>2026-04-04T12:07:44.555Z</time></trkpt><trkpt lat="44.6460847" lon="8.2450958"><ele>222.0</ele><time>2026-04-04T12:07:45.554Z</time></trkpt><trkpt lat="44.6459202" lon="8.245144"><ele>222.0</ele><time>2026-04-04T12:07:46.555Z</time></trkpt><trkpt lat="44.6457679" lon="8.245192"><ele>222.0</ele><time>2026-04-04T12:07:47.557Z</time></trkpt><trkpt lat="44.6456218" lon="8.2452332"><ele>222.0</ele><time>2026-04-04T12:07:48.555Z</time></trkpt><trkpt lat="44.645486" lon="8.2452652"><ele>222.0</ele><time>2026-04-04T12:07:49.555Z</time></trkpt><trkpt lat="44.6453585" lon="8.2452946"><ele>222.0</ele><time>2026-04-04T12:07:50.555Z</time></trkpt><trkpt lat="44.6452171" lon="8.2453291"><ele>222.0</ele><time>2026-04-04T12:07:51.555Z</time></trkpt><trkpt lat="44.6450755" lon="8.2453981"><ele>222.33333333333331</ele><time>2026-04-04T12:07:52.555Z</time></trkpt><trkpt lat="44.6449362" lon="8.2455121"><ele>222.66666666666666</ele><time>2026-04-04T12:07:53.555Z</time></trkpt><trkpt lat="44.6448023" lon="8.2456688"><ele>223.0</ele><time>2026-04-04T12:07:54.555Z</time></trkpt><trkpt lat="44.6446756" lon="8.2458528"><ele>221.33333333333331</ele><time>2026-04-04T12:07:55.554Z</time></trkpt><trkpt lat="44.644543" lon="8.2460095"><ele>219.66666666666669</ele><time>2026-04-04T12:07:56.554Z</time></trkpt><trkpt lat="44.6444036" lon="8.2461514"><ele>218.0</ele><time>2026-04-04T12:07:57.555Z</time></trkpt><trkpt lat="44.6442684" lon="8.2462793"><ele>219.33333333333334</ele><time>2026-04-04T12:07:58.555Z</time></trkpt><trkpt lat="44.644138" lon="8.2464124"><ele>220.66666666666669</ele><time>2026-04-04T12:07:59.555Z</time></trkpt><trkpt lat="44.6440157" lon="8.2465415"><ele>222.0</ele><time>2026-04-04T12:08:00.555Z</time></trkpt><trkpt lat="44.6438898" lon="8.2466689"><ele>222.0</ele><time>2026-04-04T12:08:01.554Z</time></trkpt><trkpt lat="44.6437692" lon="8.2467969"><ele>222.0</ele><time>2026-04-04T12:08:02.555Z</time></trkpt><trkpt lat="44.6436553" lon="8.2469057"><ele>222.0</ele><time>2026-04-04T12:08:03.555Z</time></trkpt><trkpt lat="44.6435378" lon="8.2470139"><ele>222.0</ele><time>2026-04-04T12:08:04.555Z</time></trkpt><trkpt lat="44.6434131" lon="8.2471256"><ele>221.33333333333331</ele><time>2026-04-04T12:08:05.554Z</time></trkpt><trkpt lat="44.6432867" lon="8.2472229"><ele>220.66666666666666</ele><time>2026-04-04T12:08:06.554Z</time></trkpt><trkpt lat="44.6431422" lon="8.2473057"><ele>220.0</ele><time>2026-04-04T12:08:07.555Z</time></trkpt><trkpt lat="44.6429888" lon="8.2473839"><ele>220.0</ele><time>2026-04-04T12:08:08.555Z</time></trkpt><trkpt lat="44.6428309" lon="8.2474546"><ele>220.0</ele><time>2026-04-04T12:08:09.555Z</time></trkpt><trkpt lat="44.6426623" lon="8.2475142"><ele>220.0</ele><time>2026-04-04T12:08:10.555Z</time></trkpt><trkpt lat="44.6424992" lon="8.2475668"><ele>222.33333333333331</ele><time>2026-04-04T12:08:11.555Z</time></trkpt><trkpt lat="44.6423337" lon="8.2476104"><ele>224.66666666666669</ele><time>2026-04-04T12:08:12.555Z</time></trkpt><trkpt lat="44.6421652" lon="8.2476556"><ele>227.0</ele><time>2026-04-04T12:08:13.555Z</time></trkpt><trkpt lat="44.6419965" lon="8.2476963"><ele>228.33333333333334</ele><time>2026-04-04T12:08:14.555Z</time></trkpt><trkpt lat="44.641826" lon="8.247742"><ele>229.66666666666669</ele><time>2026-04-04T12:08:15.555Z</time></trkpt><trkpt lat="44.6416531" lon="8.2477928"><ele>231.0</ele><time>2026-04-04T12:08:16.555Z</time></trkpt><trkpt lat="44.6414881" lon="8.247846"><ele>231.0</ele><time>2026-04-04T12:08:17.555Z</time></trkpt><trkpt lat="44.6413324" lon="8.247901"><ele>231.0</ele><time>2026-04-04T12:08:18.555Z</time></trkpt><trkpt lat="44.6411796" lon="8.2479426"><ele>231.0</ele><time>2026-04-04T12:08:19.555Z</time></trkpt><trkpt lat="44.6410228" lon="8.2479905"><ele>231.33333333333331</ele><time>2026-04-04T12:08:20.555Z</time></trkpt><trkpt lat="44.6408622" lon="8.24804"><ele>231.66666666666666</ele><time>2026-04-04T12:08:21.554Z</time></trkpt><trkpt lat="44.6407001" lon="8.248085"><ele>232.0</ele><time>2026-04-04T12:08:22.556Z</time></trkpt><trkpt lat="44.6405325" lon="8.2481281"><ele>232.0</ele><time>2026-04-04T12:08:23.555Z</time></trkpt><trkpt lat="44.6403623" lon="8.2481661"><ele>232.0</ele><time>2026-04-04T12:08:24.554Z</time></trkpt><trkpt lat="44.6401887" lon="8.2482145"><ele>232.0</ele><time>2026-04-04T12:08:25.556Z</time></trkpt><trkpt lat="44.6400183" lon="8.2482649"><ele>233.33333333333331</ele><time>2026-04-04T12:08:26.554Z</time></trkpt><trkpt lat="44.6398443" lon="8.2483121"><ele>234.66666666666669</ele><time>2026-04-04T12:08:27.555Z</time></trkpt><trkpt lat="44.6396693" lon="8.2483585"><ele>236.0</ele><time>2026-04-04T12:08:28.555Z</time></trkpt><trkpt lat="44.639496" lon="8.2484028"><ele>237.0</ele><time>2026-04-04T12:08:29.555Z</time></trkpt><trkpt lat="44.6393228" lon="8.2484413"><ele>238.0</ele><time>2026-04-04T12:08:30.556Z</time></trkpt><trkpt lat="44.6391484" lon="8.2484565"><ele>239.0</ele><time>2026-04-04T12:08:31.555Z</time></trkpt><trkpt lat="44.6389725" lon="8.2484529"><ele>239.0</ele><time>2026-04-04T12:08:32.556Z</time></trkpt><trkpt lat="44.6387989" lon="8.2484249"><ele>239.0</ele><time>2026-04-04T12:08:33.555Z</time></trkpt><trkpt lat="44.6386387" lon="8.2483781"><ele>239.0</ele><time>2026-04-04T12:08:34.556Z</time></trkpt><trkpt lat="44.6384727" lon="8.2483341"><ele>239.0</ele><time>2026-04-04T12:08:35.556Z</time></trkpt><trkpt lat="44.6382987" lon="8.2482987"><ele>239.0</ele><time>2026-04-04T12:08:36.555Z</time></trkpt><trkpt lat="44.6381308" lon="8.2482442"><ele>239.0</ele><time>2026-04-04T12:08:37.556Z</time></trkpt><trkpt lat="44.6379638" lon="8.2481691"><ele>239.66666666666669</ele><time>2026-04-04T12:08:38.556Z</time></trkpt><trkpt lat="44.6378115" lon="8.2480869"><ele>240.33333333333331</ele><time>2026-04-04T12:08:39.556Z</time></trkpt><trkpt lat="44.6376656" lon="8.248011"><ele>241.0</ele><time>2026-04-04T12:08:40.556Z</time></trkpt><trkpt lat="44.637511" lon="8.2479393"><ele>241.0</ele><time>2026-04-04T12:08:41.555Z</time></trkpt><trkpt lat="44.6373754" lon="8.2478507"><ele>241.0</ele><time>2026-04-04T12:08:42.555Z</time></trkpt><trkpt lat="44.6372818" lon="8.2476949"><ele>241.0</ele><time>2026-04-04T12:08:43.556Z</time></trkpt><trkpt lat="44.637206" lon="8.2475174"><ele>241.0</ele><time>2026-04-04T12:08:44.556Z</time></trkpt><trkpt lat="44.6371683" lon="8.2473128"><ele>243.66666666666666</ele><time>2026-04-04T12:08:45.555Z</time></trkpt><trkpt lat="44.6371579" lon="8.2470959"><ele>246.33333333333331</ele><time>2026-04-04T12:08:46.555Z</time></trkpt><trkpt lat="44.6371599" lon="8.2468676"><ele>249.0</ele><time>2026-04-04T12:08:47.556Z</time></trkpt><trkpt lat="44.6371894" lon="8.2466339"><ele>248.33333333333331</ele><time>2026-04-04T12:08:48.556Z</time></trkpt><trkpt lat="44.63722" lon="8.2464079"><ele>247.66666666666666</ele><time>2026-04-04T12:08:49.556Z</time></trkpt><trkpt lat="44.637231" lon="8.2461781"><ele>247.0</ele><time>2026-04-04T12:08:50.556Z</time></trkpt><trkpt lat="44.6372241" lon="8.2459357"><ele>247.0</ele><time>2026-04-04T12:08:51.556Z</time></trkpt><trkpt lat="44.6371987" lon="8.2456848"><ele>247.0</ele><time>2026-04-04T12:08:52.555Z</time></trkpt><trkpt lat="44.6371615" lon="8.2454344"><ele>247.0</ele><time>2026-04-04T12:08:53.556Z</time></trkpt><trkpt lat="44.637108" lon="8.2451695"><ele>245.0</ele><time>2026-04-04T12:08:54.556Z</time></trkpt><trkpt lat="44.6370569" lon="8.2449076"><ele>243.0</ele><time>2026-04-04T12:08:55.556Z</time></trkpt><trkpt lat="44.6370056" lon="8.2446384"><ele>241.0</ele><time>2026-04-04T12:08:56.556Z</time></trkpt><trkpt lat="44.6369569" lon="8.2443685"><ele>233.33333333333331</ele><time>2026-04-04T12:08:57.556Z</time></trkpt><trkpt lat="44.6369079" lon="8.2440991"><ele>225.66666666666669</ele><time>2026-04-04T12:08:58.556Z</time></trkpt><trkpt lat="44.6368617" lon="8.2438296"><ele>218.0</ele><time>2026-04-04T12:08:59.556Z</time></trkpt><trkpt lat="44.6368144" lon="8.2435611"><ele>218.0</ele><time>2026-04-04T12:09:00.556Z</time></trkpt><trkpt lat="44.636771" lon="8.2432967"><ele>218.0</ele><time>2026-04-04T12:09:01.556Z</time></trkpt><trkpt lat="44.6367306" lon="8.2430435"><ele>218.0</ele><time>2026-04-04T12:09:02.556Z</time></trkpt><trkpt lat="44.6366904" lon="8.2427917"><ele>218.33333333333334</ele><time>2026-04-04T12:09:03.556Z</time></trkpt><trkpt lat="44.6366388" lon="8.2425385"><ele>218.66666666666669</ele><time>2026-04-04T12:09:04.556Z</time></trkpt><trkpt lat="44.6365881" lon="8.2422843"><ele>219.0</ele><time>2026-04-04T12:09:05.556Z</time></trkpt><trkpt lat="44.6365446" lon="8.242038"><ele>219.33333333333331</ele><time>2026-04-04T12:09:06.556Z</time></trkpt><trkpt lat="44.6365047" lon="8.2417901"><ele>219.66666666666666</ele><time>2026-04-04T12:09:07.556Z</time></trkpt><trkpt lat="44.6364655" lon="8.2415377"><ele>220.0</ele><time>2026-04-04T12:09:08.557Z</time></trkpt><trkpt lat="44.6364181" lon="8.2412774"><ele>220.66666666666666</ele><time>2026-04-04T12:09:09.557Z</time></trkpt><trkpt lat="44.6363679" lon="8.2410134"><ele>221.33333333333331</ele><time>2026-04-04T12:09:10.556Z</time></trkpt><trkpt lat="44.6363219" lon="8.240754"><ele>222.0</ele><time>2026-04-04T12:09:11.556Z</time></trkpt><trkpt lat="44.6362932" lon="8.2404963"><ele>222.66666666666669</ele><time>2026-04-04T12:09:12.556Z</time></trkpt><trkpt lat="44.6362822" lon="8.2402337"><ele>223.33333333333334</ele><time>2026-04-04T12:09:13.556Z</time></trkpt><trkpt lat="44.6362825" lon="8.2399406"><ele>224.0</ele><time>2026-04-04T12:09:14.557Z</time></trkpt><trkpt lat="44.6362863" lon="8.239649"><ele>224.66666666666669</ele><time>2026-04-04T12:09:15.556Z</time></trkpt><trkpt lat="44.6362744" lon="8.2393823"><ele>225.33333333333331</ele><time>2026-04-04T12:09:16.556Z</time></trkpt><trkpt lat="44.6362581" lon="8.2391196"><ele>226.0</ele><time>2026-04-04T12:09:17.557Z</time></trkpt><trkpt lat="44.6362396" lon="8.238863"><ele>227.66666666666666</ele><time>2026-04-04T12:09:18.556Z</time></trkpt><trkpt lat="44.6362247" lon="8.2386146"><ele>229.33333333333331</ele><time>2026-04-04T12:09:19.556Z</time></trkpt><trkpt lat="44.636213" lon="8.2383709"><ele>231.0</ele><time>2026-04-04T12:09:20.556Z</time></trkpt><trkpt lat="44.6362107" lon="8.2381287"><ele>232.33333333333331</ele><time>2026-04-04T12:09:21.556Z</time></trkpt><trkpt lat="44.6362072" lon="8.2378912"><ele>233.66666666666666</ele><time>2026-04-04T12:09:22.556Z</time></trkpt><trkpt lat="44.6362116" lon="8.2376579"><ele>235.0</ele><time>2026-04-04T12:09:23.556Z</time></trkpt><trkpt lat="44.6362254" lon="8.2374212"><ele>235.0</ele><time>2026-04-04T12:09:24.557Z</time></trkpt><trkpt lat="44.6362567" lon="8.2371695"><ele>235.0</ele><time>2026-04-04T12:09:25.555Z</time></trkpt><trkpt lat="44.6363222" lon="8.2369261"><ele>235.0</ele><time>2026-04-04T12:09:26.556Z</time></trkpt><trkpt lat="44.6364069" lon="8.2366792"><ele>234.33333333333331</ele><time>2026-04-04T12:09:27.557Z</time></trkpt><trkpt lat="44.6364877" lon="8.2364244"><ele>233.66666666666669</ele><time>2026-04-04T12:09:28.557Z</time></trkpt><trkpt lat="44.6365536" lon="8.236159"><ele>233.0</ele><time>2026-04-04T12:09:29.557Z</time></trkpt><trkpt lat="44.6366308" lon="8.2358786"><ele>229.33333333333334</ele><time>2026-04-04T12:09:30.557Z</time></trkpt><trkpt lat="44.6366967" lon="8.2355883"><ele>225.66666666666669</ele><time>2026-04-04T12:09:31.557Z</time></trkpt><trkpt lat="44.6367646" lon="8.2352992"><ele>222.0</ele><time>2026-04-04T12:09:32.556Z</time></trkpt><trkpt lat="44.6368344" lon="8.2350123"><ele>220.33333333333331</ele><time>2026-04-04T12:09:33.555Z</time></trkpt><trkpt lat="44.636902" lon="8.2347237"><ele>218.66666666666666</ele><time>2026-04-04T12:09:34.557Z</time></trkpt><trkpt lat="44.6369636" lon="8.2344401"><ele>217.0</ele><time>2026-04-04T12:09:35.557Z</time></trkpt><trkpt lat="44.6370212" lon="8.2341661"><ele>224.66666666666666</ele><time>2026-04-04T12:09:36.558Z</time></trkpt><trkpt lat="44.6370709" lon="8.233892"><ele>232.33333333333331</ele><time>2026-04-04T12:09:37.557Z</time></trkpt><trkpt lat="44.6371218" lon="8.2336296"><ele>240.0</ele><time>2026-04-04T12:09:38.556Z</time></trkpt><trkpt lat="44.6371703" lon="8.2333627"><ele>235.33333333333331</ele><time>2026-04-04T12:09:39.555Z</time></trkpt><trkpt lat="44.6372272" lon="8.2330992"><ele>230.66666666666666</ele><time>2026-04-04T12:09:40.556Z</time></trkpt><trkpt lat="44.6372916" lon="8.2328429"><ele>226.0</ele><time>2026-04-04T12:09:41.556Z</time></trkpt><trkpt lat="44.6373662" lon="8.232584"><ele>226.0</ele><time>2026-04-04T12:09:42.556Z</time></trkpt><trkpt lat="44.6374379" lon="8.2323465"><ele>226.0</ele><time>2026-04-04T12:09:43.556Z</time></trkpt><trkpt lat="44.6375096" lon="8.2321314"><ele>226.0</ele><time>2026-04-04T12:09:44.556Z</time></trkpt><trkpt lat="44.6375759" lon="8.2319306"><ele>226.0</ele><time>2026-04-04T12:09:45.557Z</time></trkpt><trkpt lat="44.6376299" lon="8.2317344"><ele>226.0</ele><time>2026-04-04T12:09:46.557Z</time></trkpt><trkpt lat="44.6376438" lon="8.2315035"><ele>226.0</ele><time>2026-04-04T12:09:47.556Z</time></trkpt><trkpt lat="44.6376212" lon="8.2312563"><ele>227.0</ele><time>2026-04-04T12:09:48.557Z</time></trkpt><trkpt lat="44.6375943" lon="8.2310238"><ele>228.0</ele><time>2026-04-04T12:09:49.556Z</time></trkpt><trkpt lat="44.6375603" lon="8.2307893"><ele>229.0</ele><time>2026-04-04T12:09:50.557Z</time></trkpt><trkpt lat="44.6375369" lon="8.2305637"><ele>229.75</ele><time>2026-04-04T12:09:51.557Z</time></trkpt><trkpt lat="44.6375128" lon="8.2303513"><ele>230.5</ele><time>2026-04-04T12:09:52.556Z</time></trkpt><trkpt lat="44.6374877" lon="8.2301513"><ele>231.25</ele><time>2026-04-04T12:09:53.557Z</time></trkpt><trkpt lat="44.6374668" lon="8.229963"><ele>232.0</ele><time>2026-04-04T12:09:54.557Z</time></trkpt><trkpt lat="44.6374308" lon="8.2297657"><ele>232.75</ele><time>2026-04-04T12:09:55.557Z</time></trkpt><trkpt lat="44.6373998" lon="8.2295831"><ele>233.5</ele><time>2026-04-04T12:09:56.557Z</time></trkpt><trkpt lat="44.6373461" lon="8.2294258"><ele>234.25</ele><time>2026-04-04T12:09:57.557Z</time></trkpt><trkpt lat="44.6372487" lon="8.2293094"><ele>235.0</ele><time>2026-04-04T12:09:58.557Z</time></trkpt><trkpt lat="44.6371652" lon="8.2292079"><ele>235.0</ele><time>2026-04-04T12:09:59.556Z</time></trkpt><trkpt lat="44.6370828" lon="8.2291045"><ele>235.0</ele><time>2026-04-04T12:10:00.557Z</time></trkpt><trkpt lat="44.6369964" lon="8.2290059"><ele>235.0</ele><time>2026-04-04T12:10:01.557Z</time></trkpt><trkpt lat="44.6369042" lon="8.2288953"><ele>235.0</ele><time>2026-04-04T12:10:02.557Z</time></trkpt><trkpt lat="44.6368158" lon="8.2287692"><ele>232.75</ele><time>2026-04-04T12:10:03.557Z</time></trkpt><trkpt lat="44.6366659" lon="8.2287531"><ele>230.5</ele><time>2026-04-04T12:10:04.558Z</time></trkpt><trkpt lat="44.636545" lon="8.2286646"><ele>228.25</ele><time>2026-04-04T12:10:05.557Z</time></trkpt><trkpt lat="44.6364353" lon="8.2285716"><ele>226.0</ele><time>2026-04-04T12:10:06.558Z</time></trkpt><trkpt lat="44.6363234" lon="8.2285288"><ele>226.0</ele><time>2026-04-04T12:10:07.557Z</time></trkpt><trkpt lat="44.6362402" lon="8.2284672"><ele>226.00000000000003</ele><time>2026-04-04T12:10:08.557Z</time></trkpt><trkpt lat="44.6361659" lon="8.2284007"><ele>226.00000000000003</ele><time>2026-04-04T12:10:09.557Z</time></trkpt><trkpt lat="44.6360898" lon="8.2283271"><ele>226.0</ele><time>2026-04-04T12:10:10.558Z</time></trkpt><trkpt lat="44.6360204" lon="8.2282224"><ele>226.0</ele><time>2026-04-04T12:10:11.557Z</time></trkpt><trkpt lat="44.6359592" lon="8.2280705"><ele>225.75</ele><time>2026-04-04T12:10:12.558Z</time></trkpt><trkpt lat="44.6358923" lon="8.2278831"><ele>225.5</ele><time>2026-04-04T12:10:13.558Z</time></trkpt><trkpt lat="44.6358119" lon="8.22771"><ele>225.25</ele><time>2026-04-04T12:10:14.557Z</time></trkpt><trkpt lat="44.635734" lon="8.2275271"><ele>225.0</ele><time>2026-04-04T12:10:15.557Z</time></trkpt><trkpt lat="44.6356465" lon="8.2273616"><ele>225.0</ele><time>2026-04-04T12:10:16.557Z</time></trkpt><trkpt lat="44.6355789" lon="8.2272244"><ele>225.0</ele><time>2026-04-04T12:10:17.557Z</time></trkpt><trkpt lat="44.6355141" lon="8.2270843"><ele>225.0</ele><time>2026-04-04T12:10:18.556Z</time></trkpt><trkpt lat="44.6354401" lon="8.2269461"><ele>225.0</ele><time>2026-04-04T12:10:19.556Z</time></trkpt><trkpt lat="44.6353807" lon="8.2267937"><ele>225.0</ele><time>2026-04-04T12:10:20.557Z</time></trkpt><trkpt lat="44.6353309" lon="8.2266629"><ele>225.0</ele><time>2026-04-04T12:10:21.557Z</time></trkpt><trkpt lat="44.6352311" lon="8.2265559"><ele>225.0</ele><time>2026-04-04T12:10:22.558Z</time></trkpt><trkpt lat="44.6350949" lon="8.2264526"><ele>225.0</ele><time>2026-04-04T12:10:23.558Z</time></trkpt><trkpt lat="44.6349499" lon="8.2263711"><ele>225.0</ele><time>2026-04-04T12:10:24.557Z</time></trkpt><trkpt lat="44.6347927" lon="8.2262821"><ele>225.0</ele><time>2026-04-04T12:10:25.557Z</time></trkpt><trkpt lat="44.634646" lon="8.2261994"><ele>225.0</ele><time>2026-04-04T12:10:26.557Z</time></trkpt><trkpt lat="44.6345118" lon="8.2261159"><ele>225.25</ele><time>2026-04-04T12:10:27.557Z</time></trkpt><trkpt lat="44.6343881" lon="8.2260383"><ele>225.5</ele><time>2026-04-04T12:10:28.558Z</time></trkpt><trkpt lat="44.634265" lon="8.2259637"><ele>225.75</ele><time>2026-04-04T12:10:29.558Z</time></trkpt><trkpt lat="44.6341377" lon="8.2258881"><ele>226.0</ele><time>2026-04-04T12:10:30.557Z</time></trkpt><trkpt lat="44.6340068" lon="8.2258116"><ele>226.0</ele><time>2026-04-04T12:10:31.557Z</time></trkpt><trkpt lat="44.6338688" lon="8.2257317"><ele>226.0</ele><time>2026-04-04T12:10:32.558Z</time></trkpt><trkpt lat="44.6337268" lon="8.2256491"><ele>226.0</ele><time>2026-04-04T12:10:33.556Z</time></trkpt><trkpt lat="44.6335817" lon="8.2255662"><ele>226.0</ele><time>2026-04-04T12:10:34.556Z</time></trkpt><trkpt lat="44.6334331" lon="8.2254786"><ele>226.0</ele><time>2026-04-04T12:10:35.557Z</time></trkpt><trkpt lat="44.6332889" lon="8.2253916"><ele>226.0</ele><time>2026-04-04T12:10:36.558Z</time></trkpt><trkpt lat="44.6331446" lon="8.2253085"><ele>226.0</ele><time>2026-04-04T12:10:37.558Z</time></trkpt><trkpt lat="44.6330005" lon="8.2252178"><ele>226.0</ele><time>2026-04-04T12:10:38.557Z</time></trkpt><trkpt lat="44.6328515" lon="8.2251288"><ele>226.0</ele><time>2026-04-04T12:10:39.557Z</time></trkpt><trkpt lat="44.632699" lon="8.2250499"><ele>226.0</ele><time>2026-04-04T12:10:40.558Z</time></trkpt><trkpt lat="44.6325433" lon="8.2249639"><ele>226.0</ele><time>2026-04-04T12:10:41.558Z</time></trkpt><trkpt lat="44.63239" lon="8.2248708"><ele>226.0</ele><time>2026-04-04T12:10:42.557Z</time></trkpt><trkpt lat="44.6322386" lon="8.224778"><ele>227.0</ele><time>2026-04-04T12:10:43.557Z</time></trkpt><trkpt lat="44.63209" lon="8.22468"><ele>228.0</ele><time>2026-04-04T12:10:44.558Z</time></trkpt><trkpt lat="44.6319453" lon="8.2245854"><ele>229.0</ele><time>2026-04-04T12:10:45.558Z</time></trkpt><trkpt lat="44.631803" lon="8.2244908"><ele>229.0</ele><time>2026-04-04T12:10:46.558Z</time></trkpt><trkpt lat="44.6316587" lon="8.2243968"><ele>229.0</ele><time>2026-04-04T12:10:47.558Z</time></trkpt><trkpt lat="44.6315083" lon="8.2242988"><ele>229.0</ele><time>2026-04-04T12:10:48.558Z</time></trkpt><trkpt lat="44.6313555" lon="8.2241996"><ele>229.0</ele><time>2026-04-04T12:10:49.557Z</time></trkpt><trkpt lat="44.6312018" lon="8.2241026"><ele>229.0</ele><time>2026-04-04T12:10:50.558Z</time></trkpt><trkpt lat="44.6310469" lon="8.2240071"><ele>229.0</ele><time>2026-04-04T12:10:51.558Z</time></trkpt><trkpt lat="44.6308892" lon="8.2239113"><ele>230.0</ele><time>2026-04-04T12:10:52.557Z</time></trkpt><trkpt lat="44.6307328" lon="8.2238153"><ele>231.0</ele><time>2026-04-04T12:10:53.558Z</time></trkpt><trkpt lat="44.6305743" lon="8.2237172"><ele>232.0</ele><time>2026-04-04T12:10:54.558Z</time></trkpt><trkpt lat="44.6304145" lon="8.2236192"><ele>231.66666666666666</ele><time>2026-04-04T12:10:55.558Z</time></trkpt><trkpt lat="44.630249" lon="8.2235216"><ele>231.33333333333331</ele><time>2026-04-04T12:10:56.557Z</time></trkpt><trkpt lat="44.6300841" lon="8.223423"><ele>231.0</ele><time>2026-04-04T12:10:57.558Z</time></trkpt><trkpt lat="44.6299169" lon="8.2233193"><ele>231.0</ele><time>2026-04-04T12:10:58.558Z</time></trkpt><trkpt lat="44.629754" lon="8.2232342"><ele>231.0</ele><time>2026-04-04T12:10:59.558Z</time></trkpt><trkpt lat="44.6295879" lon="8.2231411"><ele>231.0</ele><time>2026-04-04T12:11:00.557Z</time></trkpt><trkpt lat="44.629423" lon="8.2230402"><ele>232.0</ele><time>2026-04-04T12:11:01.558Z</time></trkpt><trkpt lat="44.6292571" lon="8.2229314"><ele>233.0</ele><time>2026-04-04T12:11:02.558Z</time></trkpt><trkpt lat="44.6290906" lon="8.2228231"><ele>234.0</ele><time>2026-04-04T12:11:03.557Z</time></trkpt><trkpt lat="44.6289228" lon="8.2227193"><ele>234.0</ele><time>2026-04-04T12:11:04.558Z</time></trkpt><trkpt lat="44.6287543" lon="8.2226193"><ele>234.0</ele><time>2026-04-04T12:11:05.558Z</time></trkpt><trkpt lat="44.6285849" lon="8.2225237"><ele>234.0</ele><time>2026-04-04T12:11:06.558Z</time></trkpt><trkpt lat="44.6284122" lon="8.2224267"><ele>233.33333333333331</ele><time>2026-04-04T12:11:07.558Z</time></trkpt><trkpt lat="44.6282393" lon="8.2223265"><ele>232.66666666666666</ele><time>2026-04-04T12:11:08.558Z</time></trkpt><trkpt lat="44.6280667" lon="8.2222239"><ele>232.0</ele><time>2026-04-04T12:11:09.558Z</time></trkpt><trkpt lat="44.627892" lon="8.2221184"><ele>231.33333333333331</ele><time>2026-04-04T12:11:10.559Z</time></trkpt><trkpt lat="44.6277148" lon="8.2220099"><ele>230.66666666666669</ele><time>2026-04-04T12:11:11.558Z</time></trkpt><trkpt lat="44.627536" lon="8.2219042"><ele>230.0</ele><time>2026-04-04T12:11:12.558Z</time></trkpt><trkpt lat="44.6273488" lon="8.2217942"><ele>230.0</ele><time>2026-04-04T12:11:13.557Z</time></trkpt><trkpt lat="44.6271646" lon="8.2216832"><ele>230.0</ele><time>2026-04-04T12:11:14.558Z</time></trkpt><trkpt lat="44.6269847" lon="8.221573"><ele>230.0</ele><time>2026-04-04T12:11:15.558Z</time></trkpt><trkpt lat="44.6268053" lon="8.2214596"><ele>231.0</ele><time>2026-04-04T12:11:16.559Z</time></trkpt><trkpt lat="44.6266305" lon="8.2213442"><ele>232.0</ele><time>2026-04-04T12:11:17.558Z</time></trkpt><trkpt lat="44.6264584" lon="8.2212361"><ele>233.0</ele><time>2026-04-04T12:11:18.558Z</time></trkpt><trkpt lat="44.6262814" lon="8.2211361"><ele>232.33333333333334</ele><time>2026-04-04T12:11:19.558Z</time></trkpt><trkpt lat="44.6261053" lon="8.2210324"><ele>231.66666666666669</ele><time>2026-04-04T12:11:20.559Z</time></trkpt><trkpt lat="44.6259289" lon="8.2209288"><ele>231.0</ele><time>2026-04-04T12:11:21.559Z</time></trkpt><trkpt lat="44.6257633" lon="8.22081"><ele>231.0</ele><time>2026-04-04T12:11:22.557Z</time></trkpt><trkpt lat="44.625597" lon="8.2206807"><ele>231.0</ele><time>2026-04-04T12:11:23.558Z</time></trkpt><trkpt lat="44.6254429" lon="8.2205354"><ele>231.0</ele><time>2026-04-04T12:11:24.559Z</time></trkpt><trkpt lat="44.6252974" lon="8.2203712"><ele>231.66666666666669</ele><time>2026-04-04T12:11:25.557Z</time></trkpt><trkpt lat="44.6251615" lon="8.2201926"><ele>232.33333333333334</ele><time>2026-04-04T12:11:26.559Z</time></trkpt><trkpt lat="44.6250352" lon="8.219991"><ele>233.0</ele><time>2026-04-04T12:11:27.559Z</time></trkpt><trkpt lat="44.624926" lon="8.2197901"><ele>233.66666666666669</ele><time>2026-04-04T12:11:28.558Z</time></trkpt><trkpt lat="44.6248336" lon="8.2195878"><ele>234.33333333333331</ele><time>2026-04-04T12:11:29.559Z</time></trkpt><trkpt lat="44.6247407" lon="8.2193795"><ele>235.0</ele><time>2026-04-04T12:11:30.558Z</time></trkpt><trkpt lat="44.6246552" lon="8.2191853"><ele>235.0</ele><time>2026-04-04T12:11:31.558Z</time></trkpt><trkpt lat="44.6245653" lon="8.2189854"><ele>235.0</ele><time>2026-04-04T12:11:32.559Z</time></trkpt><trkpt lat="44.6244699" lon="8.218776"><ele>235.0</ele><time>2026-04-04T12:11:33.558Z</time></trkpt><trkpt lat="44.624369" lon="8.2185686"><ele>234.0</ele><time>2026-04-04T12:11:34.559Z</time></trkpt><trkpt lat="44.6242654" lon="8.2183786"><ele>233.0</ele><time>2026-04-04T12:11:35.558Z</time></trkpt><trkpt lat="44.624155" lon="8.2182081"><ele>232.0</ele><time>2026-04-04T12:11:36.558Z</time></trkpt><trkpt lat="44.6240332" lon="8.2180596"><ele>231.66666666666666</ele><time>2026-04-04T12:11:37.559Z</time></trkpt><trkpt lat="44.6239041" lon="8.2179105"><ele>231.33333333333331</ele><time>2026-04-04T12:11:38.558Z</time></trkpt><trkpt lat="44.6237708" lon="8.2177611"><ele>231.0</ele><time>2026-04-04T12:11:39.559Z</time></trkpt><trkpt lat="44.6236347" lon="8.2176017"><ele>231.0</ele><time>2026-04-04T12:11:40.558Z</time></trkpt><trkpt lat="44.623498" lon="8.2174444"><ele>231.0</ele><time>2026-04-04T12:11:41.559Z</time></trkpt><trkpt lat="44.6233676" lon="8.217277"><ele>231.0</ele><time>2026-04-04T12:11:42.558Z</time></trkpt><trkpt lat="44.6232526" lon="8.2171188"><ele>234.0</ele><time>2026-04-04T12:11:43.559Z</time></trkpt><trkpt lat="44.6231541" lon="8.2169529"><ele>237.0</ele><time>2026-04-04T12:11:44.559Z</time></trkpt><trkpt lat="44.6230506" lon="8.2168045"><ele>240.0</ele><time>2026-04-04T12:11:45.559Z</time></trkpt><trkpt lat="44.6229407" lon="8.2166921"><ele>243.0</ele><time>2026-04-04T12:11:46.558Z</time></trkpt><trkpt lat="44.6228265" lon="8.2165514"><ele>240.66666666666669</ele><time>2026-04-04T12:11:47.559Z</time></trkpt><trkpt lat="44.6227189" lon="8.2163881"><ele>238.33333333333334</ele><time>2026-04-04T12:11:48.558Z</time></trkpt><trkpt lat="44.6226203" lon="8.2162083"><ele>236.0</ele><time>2026-04-04T12:11:49.558Z</time></trkpt><trkpt lat="44.6225419" lon="8.216027"><ele>236.0</ele><time>2026-04-04T12:11:50.557Z</time></trkpt><trkpt lat="44.6224673" lon="8.2158792"><ele>236.0</ele><time>2026-04-04T12:11:51.558Z</time></trkpt><trkpt lat="44.6223921" lon="8.2157401"><ele>236.0</ele><time>2026-04-04T12:11:52.559Z</time></trkpt><trkpt lat="44.6223151" lon="8.2155751"><ele>236.0</ele><time>2026-04-04T12:11:53.559Z</time></trkpt><trkpt lat="44.6222342" lon="8.2154124"><ele>236.5</ele><time>2026-04-04T12:11:54.559Z</time></trkpt><trkpt lat="44.6221491" lon="8.2152511"><ele>237.0</ele><time>2026-04-04T12:11:55.559Z</time></trkpt><trkpt lat="44.6220637" lon="8.2150907"><ele>237.5</ele><time>2026-04-04T12:11:56.559Z</time></trkpt><trkpt lat="44.6219739" lon="8.2149385"><ele>238.0</ele><time>2026-04-04T12:11:57.559Z</time></trkpt><trkpt lat="44.621886" lon="8.2147884"><ele>240.75</ele><time>2026-04-04T12:11:58.559Z</time></trkpt><trkpt lat="44.6218035" lon="8.2146467"><ele>243.5</ele><time>2026-04-04T12:11:59.559Z</time></trkpt><trkpt lat="44.6217091" lon="8.2145016"><ele>246.25</ele><time>2026-04-04T12:12:00.559Z</time></trkpt><trkpt lat="44.6216036" lon="8.2143682"><ele>249.0</ele><time>2026-04-04T12:12:01.559Z</time></trkpt><trkpt lat="44.6214779" lon="8.2142462"><ele>249.0</ele><time>2026-04-04T12:12:02.559Z</time></trkpt><trkpt lat="44.6213519" lon="8.2141389"><ele>249.0</ele><time>2026-04-04T12:12:03.559Z</time></trkpt><trkpt lat="44.6212161" lon="8.2140446"><ele>249.0</ele><time>2026-04-04T12:12:04.559Z</time></trkpt><trkpt lat="44.6210861" lon="8.213948"><ele>249.0</ele><time>2026-04-04T12:12:05.559Z</time></trkpt><trkpt lat="44.6209441" lon="8.2138611"><ele>250.25</ele><time>2026-04-04T12:12:06.559Z</time></trkpt><trkpt lat="44.6208155" lon="8.2137513"><ele>251.5</ele><time>2026-04-04T12:12:07.559Z</time></trkpt><trkpt lat="44.6206895" lon="8.2136391"><ele>252.75</ele><time>2026-04-04T12:12:08.558Z</time></trkpt><trkpt lat="44.6205771" lon="8.2135208"><ele>254.0</ele><time>2026-04-04T12:12:09.559Z</time></trkpt><trkpt lat="44.6204755" lon="8.2134035"><ele>254.0</ele><time>2026-04-04T12:12:10.559Z</time></trkpt><trkpt lat="44.6203661" lon="8.2132947"><ele>254.0</ele><time>2026-04-04T12:12:11.559Z</time></trkpt><trkpt lat="44.6202459" lon="8.2131877"><ele>254.0</ele><time>2026-04-04T12:12:12.559Z</time></trkpt><trkpt lat="44.6201174" lon="8.2130864"><ele>254.0</ele><time>2026-04-04T12:12:13.559Z</time></trkpt><trkpt lat="44.6199828" lon="8.2129943"><ele>255.0</ele><time>2026-04-04T12:12:14.559Z</time></trkpt><trkpt lat="44.6198404" lon="8.2128917"><ele>256.0</ele><time>2026-04-04T12:12:15.559Z</time></trkpt><trkpt lat="44.6196929" lon="8.2127983"><ele>257.0</ele><time>2026-04-04T12:12:16.559Z</time></trkpt><trkpt lat="44.6195414" lon="8.2127075"><ele>254.33333333333334</ele><time>2026-04-04T12:12:17.559Z</time></trkpt><trkpt lat="44.6193889" lon="8.2126085"><ele>251.66666666666669</ele><time>2026-04-04T12:12:18.559Z</time></trkpt><trkpt lat="44.6192349" lon="8.212513"><ele>249.0</ele><time>2026-04-04T12:12:19.558Z</time></trkpt><trkpt lat="44.6190796" lon="8.2124196"><ele>249.0</ele><time>2026-04-04T12:12:20.559Z</time></trkpt><trkpt lat="44.6189232" lon="8.2123225"><ele>249.0</ele><time>2026-04-04T12:12:21.559Z</time></trkpt><trkpt lat="44.6187634" lon="8.2122223"><ele>249.0</ele><time>2026-04-04T12:12:22.558Z</time></trkpt><trkpt lat="44.6185988" lon="8.2121223"><ele>249.0</ele><time>2026-04-04T12:12:23.559Z</time></trkpt><trkpt lat="44.6184338" lon="8.2120225"><ele>249.0</ele><time>2026-04-04T12:12:24.558Z</time></trkpt><trkpt lat="44.6182724" lon="8.2119265"><ele>249.0</ele><time>2026-04-04T12:12:25.558Z</time></trkpt><trkpt lat="44.6181193" lon="8.2118352"><ele>249.0</ele><time>2026-04-04T12:12:26.559Z</time></trkpt><trkpt lat="44.6179783" lon="8.2117511"><ele>249.0</ele><time>2026-04-04T12:12:27.559Z</time></trkpt><trkpt lat="44.6178472" lon="8.2116705"><ele>249.0</ele><time>2026-04-04T12:12:28.559Z</time></trkpt><trkpt lat="44.6177182" lon="8.2115912"><ele>249.0</ele><time>2026-04-04T12:12:29.559Z</time></trkpt><trkpt lat="44.61759" lon="8.2115068"><ele>248.75</ele><time>2026-04-04T12:12:30.559Z</time></trkpt><trkpt lat="44.6174731" lon="8.2114027"><ele>248.5</ele><time>2026-04-04T12:12:31.56Z</time></trkpt><trkpt lat="44.6173714" lon="8.2112693"><ele>248.25</ele><time>2026-04-04T12:12:32.56Z</time></trkpt><trkpt lat="44.6172971" lon="8.2110985"><ele>248.0</ele><time>2026-04-04T12:12:33.56Z</time></trkpt><trkpt lat="44.6172575" lon="8.210896"><ele>248.0</ele><time>2026-04-04T12:12:34.56Z</time></trkpt><trkpt lat="44.6172448" lon="8.2106812"><ele>248.0</ele><time>2026-04-04T12:12:35.558Z</time></trkpt><trkpt lat="44.6172541" lon="8.2104649"><ele>248.0</ele><time>2026-04-04T12:12:36.559Z</time></trkpt><trkpt lat="44.6172962" lon="8.2102426"><ele>248.0</ele><time>2026-04-04T12:12:37.56Z</time></trkpt><trkpt lat="44.6173386" lon="8.2100108"><ele>248.0</ele><time>2026-04-04T12:12:38.56Z</time></trkpt><trkpt lat="44.6173764" lon="8.2097635"><ele>248.0</ele><time>2026-04-04T12:12:39.56Z</time></trkpt><trkpt lat="44.6174054" lon="8.2095178"><ele>248.33333333333334</ele><time>2026-04-04T12:12:40.559Z</time></trkpt><trkpt lat="44.6174281" lon="8.2092706"><ele>248.66666666666669</ele><time>2026-04-04T12:12:41.56Z</time></trkpt><trkpt lat="44.617451" lon="8.2090272"><ele>249.0</ele><time>2026-04-04T12:12:42.559Z</time></trkpt><trkpt lat="44.6174769" lon="8.2087883"><ele>248.33333333333331</ele><time>2026-04-04T12:12:43.56Z</time></trkpt><trkpt lat="44.617504" lon="8.2085548"><ele>247.66666666666666</ele><time>2026-04-04T12:12:44.559Z</time></trkpt><trkpt lat="44.6175299" lon="8.208329"><ele>247.0</ele><time>2026-04-04T12:12:45.56Z</time></trkpt><trkpt lat="44.6175518" lon="8.2081143"><ele>247.0</ele><time>2026-04-04T12:12:46.558Z</time></trkpt><trkpt lat="44.6175703" lon="8.2079112"><ele>247.0</ele><time>2026-04-04T12:12:47.56Z</time></trkpt><trkpt lat="44.6175883" lon="8.2077171"><ele>247.0</ele><time>2026-04-04T12:12:48.559Z</time></trkpt><trkpt lat="44.6176054" lon="8.2075338"><ele>247.0</ele><time>2026-04-04T12:12:49.559Z</time></trkpt><trkpt lat="44.617618" lon="8.2073482"><ele>247.33333333333331</ele><time>2026-04-04T12:12:50.559Z</time></trkpt><trkpt lat="44.6176154" lon="8.207151"><ele>247.66666666666669</ele><time>2026-04-04T12:12:51.559Z</time></trkpt><trkpt lat="44.617583" lon="8.2069428"><ele>248.0</ele><time>2026-04-04T12:12:52.559Z</time></trkpt><trkpt lat="44.6175233" lon="8.2067239"><ele>248.0</ele><time>2026-04-04T12:12:53.56Z</time></trkpt><trkpt lat="44.617461" lon="8.2064993"><ele>248.0</ele><time>2026-04-04T12:12:54.56Z</time></trkpt><trkpt lat="44.6174041" lon="8.2062693"><ele>248.0</ele><time>2026-04-04T12:12:55.559Z</time></trkpt><trkpt lat="44.6173506" lon="8.2060362"><ele>249.66666666666669</ele><time>2026-04-04T12:12:56.56Z</time></trkpt><trkpt lat="44.6172995" lon="8.2058008"><ele>251.33333333333331</ele><time>2026-04-04T12:12:57.56Z</time></trkpt><trkpt lat="44.617251" lon="8.2055658"><ele>253.0</ele><time>2026-04-04T12:12:58.56Z</time></trkpt><trkpt lat="44.6172003" lon="8.2053278"><ele>254.33333333333331</ele><time>2026-04-04T12:12:59.56Z</time></trkpt><trkpt lat="44.6171485" lon="8.2050902"><ele>255.66666666666669</ele><time>2026-04-04T12:13:00.56Z</time></trkpt><trkpt lat="44.617097" lon="8.2048532"><ele>257.0</ele><time>2026-04-04T12:13:01.559Z</time></trkpt><trkpt lat="44.6170469" lon="8.2046153"><ele>257.0</ele><time>2026-04-04T12:13:02.56Z</time></trkpt><trkpt lat="44.6169969" lon="8.2043766"><ele>257.0</ele><time>2026-04-04T12:13:03.56Z</time></trkpt><trkpt lat="44.616951" lon="8.2041553"><ele>257.0</ele><time>2026-04-04T12:13:04.56Z</time></trkpt><trkpt lat="44.6169016" lon="8.203924"><ele>251.0</ele><time>2026-04-04T12:13:05.56Z</time></trkpt><trkpt lat="44.6168509" lon="8.2036913"><ele>245.0</ele><time>2026-04-04T12:13:06.559Z</time></trkpt><trkpt lat="44.6167964" lon="8.2034591"><ele>239.0</ele><time>2026-04-04T12:13:07.561Z</time></trkpt><trkpt lat="44.6167377" lon="8.2032466"><ele>241.0</ele><time>2026-04-04T12:13:08.56Z</time></trkpt><trkpt lat="44.6166845" lon="8.2030398"><ele>243.0</ele><time>2026-04-04T12:13:09.561Z</time></trkpt><trkpt lat="44.6166323" lon="8.20283"><ele>245.0</ele><time>2026-04-04T12:13:10.561Z</time></trkpt><trkpt lat="44.6165941" lon="8.2026108"><ele>245.0</ele><time>2026-04-04T12:13:11.559Z</time></trkpt><trkpt lat="44.6165965" lon="8.2023377"><ele>245.0</ele><time>2026-04-04T12:13:12.561Z</time></trkpt><trkpt lat="44.6166039" lon="8.2020809"><ele>245.0</ele><time>2026-04-04T12:13:13.559Z</time></trkpt><trkpt lat="44.6166156" lon="8.2017879"><ele>247.33333333333334</ele><time>2026-04-04T12:13:14.561Z</time></trkpt><trkpt lat="44.6166194" lon="8.2015289"><ele>249.66666666666669</ele><time>2026-04-04T12:13:15.56Z</time></trkpt><trkpt lat="44.6166204" lon="8.201279"><ele>252.0</ele><time>2026-04-04T12:13:16.559Z</time></trkpt><trkpt lat="44.6166089" lon="8.2010273"><ele>253.33333333333331</ele><time>2026-04-04T12:13:17.56Z</time></trkpt><trkpt lat="44.6165836" lon="8.2007806"><ele>254.66666666666666</ele><time>2026-04-04T12:13:18.56Z</time></trkpt><trkpt lat="44.6165478" lon="8.2005332"><ele>256.0</ele><time>2026-04-04T12:13:19.561Z</time></trkpt><trkpt lat="44.6164903" lon="8.2003151"><ele>259.0</ele><time>2026-04-04T12:13:20.56Z</time></trkpt><trkpt lat="44.6164377" lon="8.2000656"><ele>262.0</ele><time>2026-04-04T12:13:21.56Z</time></trkpt><trkpt lat="44.6163728" lon="8.1998305"><ele>265.0</ele><time>2026-04-04T12:13:22.559Z</time></trkpt><trkpt lat="44.6163019" lon="8.1995991"><ele>270.66666666666663</ele><time>2026-04-04T12:13:23.56Z</time></trkpt><trkpt lat="44.6162154" lon="8.1993815"><ele>276.3333333333333</ele><time>2026-04-04T12:13:24.56Z</time></trkpt><trkpt lat="44.616118" lon="8.1991714"><ele>282.0</ele><time>2026-04-04T12:13:25.56Z</time></trkpt><trkpt lat="44.6153475" lon="8.1979217"><ele>282.0</ele><time>2026-04-04T12:13:31.561Z</time></trkpt><trkpt lat="44.6153432" lon="8.1977072"><ele>282.0</ele><time>2026-04-04T12:13:32.56Z</time></trkpt><trkpt lat="44.6152343" lon="8.1975272"><ele>282.0</ele><time>2026-04-04T12:13:33.561Z</time></trkpt><trkpt lat="44.6150744" lon="8.1974099"><ele>280.0</ele><time>2026-04-04T12:13:34.561Z</time></trkpt><trkpt lat="44.6149423" lon="8.1972623"><ele>278.0</ele><time>2026-04-04T12:13:35.561Z</time></trkpt><trkpt lat="44.6148048" lon="8.197116"><ele>276.0</ele><time>2026-04-04T12:13:36.559Z</time></trkpt><trkpt lat="44.6146664" lon="8.1969718"><ele>276.0</ele><time>2026-04-04T12:13:37.561Z</time></trkpt><trkpt lat="44.6145123" lon="8.1968314"><ele>276.0</ele><time>2026-04-04T12:13:38.561Z</time></trkpt><trkpt lat="44.6143427" lon="8.1966925"><ele>276.0</ele><time>2026-04-04T12:13:39.561Z</time></trkpt><trkpt lat="44.614182" lon="8.1965575"><ele>275.3333333333333</ele><time>2026-04-04T12:13:40.56Z</time></trkpt><trkpt lat="44.6140206" lon="8.1964288"><ele>274.66666666666663</ele><time>2026-04-04T12:13:41.56Z</time></trkpt><trkpt lat="44.6138554" lon="8.1963003"><ele>274.0</ele><time>2026-04-04T12:13:42.561Z</time></trkpt><trkpt lat="44.6136865" lon="8.1961796"><ele>268.0</ele><time>2026-04-04T12:13:43.56Z</time></trkpt><trkpt lat="44.6135158" lon="8.1960655"><ele>262.0</ele><time>2026-04-04T12:13:44.559Z</time></trkpt><trkpt lat="44.6133469" lon="8.1959622"><ele>256.0</ele><time>2026-04-04T12:13:45.561Z</time></trkpt><trkpt lat="44.6131817" lon="8.1958535"><ele>256.0</ele><time>2026-04-04T12:13:46.56Z</time></trkpt><trkpt lat="44.6130171" lon="8.1957512"><ele>256.0</ele><time>2026-04-04T12:13:47.561Z</time></trkpt><trkpt lat="44.6128478" lon="8.195638"><ele>256.0</ele><time>2026-04-04T12:13:48.56Z</time></trkpt><trkpt lat="44.6126845" lon="8.195503"><ele>255.33333333333331</ele><time>2026-04-04T12:13:49.561Z</time></trkpt><trkpt lat="44.6125261" lon="8.1953694"><ele>254.66666666666669</ele><time>2026-04-04T12:13:50.56Z</time></trkpt><trkpt lat="44.6123652" lon="8.1952362"><ele>254.0</ele><time>2026-04-04T12:13:51.559Z</time></trkpt><trkpt lat="44.6122037" lon="8.1951043"><ele>254.0</ele><time>2026-04-04T12:13:52.56Z</time></trkpt><trkpt lat="44.6120436" lon="8.1949736"><ele>254.0</ele><time>2026-04-04T12:13:53.561Z</time></trkpt><trkpt lat="44.6118851" lon="8.1948559"><ele>254.0</ele><time>2026-04-04T12:13:54.561Z</time></trkpt><trkpt lat="44.6117389" lon="8.1947379"><ele>254.0</ele><time>2026-04-04T12:13:55.561Z</time></trkpt><trkpt lat="44.6116071" lon="8.1946168"><ele>254.0</ele><time>2026-04-04T12:13:56.561Z</time></trkpt><trkpt lat="44.6114714" lon="8.194493"><ele>254.0</ele><time>2026-04-04T12:13:57.561Z</time></trkpt><trkpt lat="44.6113291" lon="8.194362"><ele>254.0</ele><time>2026-04-04T12:13:58.562Z</time></trkpt><trkpt lat="44.6111783" lon="8.1942335"><ele>254.0</ele><time>2026-04-04T12:13:59.561Z</time></trkpt><trkpt lat="44.6110171" lon="8.1941113"><ele>254.0</ele><time>2026-04-04T12:14:00.56Z</time></trkpt><trkpt lat="44.6108478" lon="8.1939649"><ele>258.33333333333337</ele><time>2026-04-04T12:14:01.561Z</time></trkpt><trkpt lat="44.6106775" lon="8.1938295"><ele>262.6666666666667</ele><time>2026-04-04T12:14:02.561Z</time></trkpt><trkpt lat="44.6105123" lon="8.1937049"><ele>267.0</ele><time>2026-04-04T12:14:03.561Z</time></trkpt><trkpt lat="44.6103675" lon="8.1936035"><ele>263.75</ele><time>2026-04-04T12:14:04.56Z</time></trkpt><trkpt lat="44.6102364" lon="8.1935202"><ele>260.5</ele><time>2026-04-04T12:14:05.561Z</time></trkpt><trkpt lat="44.6101134" lon="8.1934489"><ele>257.25</ele><time>2026-04-04T12:14:06.561Z</time></trkpt><trkpt lat="44.6099972" lon="8.1933862"><ele>254.0</ele><time>2026-04-04T12:14:07.562Z</time></trkpt><trkpt lat="44.6098954" lon="8.1933297"><ele>254.0</ele><time>2026-04-04T12:14:08.56Z</time></trkpt><trkpt lat="44.6098051" lon="8.1932781"><ele>253.99999999999997</ele><time>2026-04-04T12:14:09.562Z</time></trkpt><trkpt lat="44.6097195" lon="8.1932339"><ele>253.99999999999997</ele><time>2026-04-04T12:14:10.561Z</time></trkpt><trkpt lat="44.609629" lon="8.1931888"><ele>254.0</ele><time>2026-04-04T12:14:11.562Z</time></trkpt><trkpt lat="44.6095257" lon="8.1931567"><ele>254.0</ele><time>2026-04-04T12:14:12.561Z</time></trkpt><trkpt lat="44.6094046" lon="8.1931489"><ele>257.5</ele><time>2026-04-04T12:14:13.561Z</time></trkpt><trkpt lat="44.6092732" lon="8.1931577"><ele>261.0</ele><time>2026-04-04T12:14:14.561Z</time></trkpt><trkpt lat="44.6091328" lon="8.1931389"><ele>264.5</ele><time>2026-04-04T12:14:15.561Z</time></trkpt><trkpt lat="44.6089751" lon="8.1931337"><ele>268.0</ele><time>2026-04-04T12:14:16.561Z</time></trkpt><trkpt lat="44.6087989" lon="8.1931165"><ele>266.3333333333333</ele><time>2026-04-04T12:14:17.561Z</time></trkpt><trkpt lat="44.6086136" lon="8.1931026"><ele>264.6666666666667</ele><time>2026-04-04T12:14:18.561Z</time></trkpt><trkpt lat="44.6084258" lon="8.1930962"><ele>263.0</ele><time>2026-04-04T12:14:19.561Z</time></trkpt><trkpt lat="44.6082414" lon="8.1930945"><ele>263.0</ele><time>2026-04-04T12:14:20.56Z</time></trkpt><trkpt lat="44.6080563" lon="8.1930818"><ele>263.0</ele><time>2026-04-04T12:14:21.56Z</time></trkpt><trkpt lat="44.6078684" lon="8.1930572"><ele>263.0</ele><time>2026-04-04T12:14:22.561Z</time></trkpt><trkpt lat="44.6076919" lon="8.1930182"><ele>265.6666666666667</ele><time>2026-04-04T12:14:23.561Z</time></trkpt><trkpt lat="44.6075157" lon="8.1929762"><ele>268.3333333333333</ele><time>2026-04-04T12:14:24.561Z</time></trkpt><trkpt lat="44.6073354" lon="8.1929391"><ele>271.0</ele><time>2026-04-04T12:14:25.561Z</time></trkpt><trkpt lat="44.6071503" lon="8.1929491"><ele>277.66666666666663</ele><time>2026-04-04T12:14:26.561Z</time></trkpt><trkpt lat="44.606952" lon="8.1929959"><ele>284.3333333333333</ele><time>2026-04-04T12:14:27.561Z</time></trkpt><trkpt lat="44.6067538" lon="8.19306"><ele>291.0</ele><time>2026-04-04T12:14:28.561Z</time></trkpt><trkpt lat="44.6065583" lon="8.1931265"><ele>283.3333333333333</ele><time>2026-04-04T12:14:29.562Z</time></trkpt><trkpt lat="44.6063697" lon="8.1931892"><ele>275.66666666666663</ele><time>2026-04-04T12:14:30.562Z</time></trkpt><trkpt lat="44.6061846" lon="8.1932633"><ele>268.0</ele><time>2026-04-04T12:14:31.562Z</time></trkpt><trkpt lat="44.6060017" lon="8.1933429"><ele>268.0</ele><time>2026-04-04T12:14:32.562Z</time></trkpt><trkpt lat="44.6058202" lon="8.1934426"><ele>268.0</ele><time>2026-04-04T12:14:33.561Z</time></trkpt><trkpt lat="44.6056446" lon="8.1935443"><ele>268.0</ele><time>2026-04-04T12:14:34.562Z</time></trkpt><trkpt lat="44.6054899" lon="8.1936491"><ele>268.0</ele><time>2026-04-04T12:14:35.562Z</time></trkpt><trkpt lat="44.6053366" lon="8.1937513"><ele>268.0</ele><time>2026-04-04T12:14:36.561Z</time></trkpt><trkpt lat="44.6051861" lon="8.1938397"><ele>268.0</ele><time>2026-04-04T12:14:37.561Z</time></trkpt><trkpt lat="44.605046" lon="8.1939371"><ele>264.66666666666663</ele><time>2026-04-04T12:14:38.561Z</time></trkpt><trkpt lat="44.6049021" lon="8.1940056"><ele>261.3333333333333</ele><time>2026-04-04T12:14:39.561Z</time></trkpt><trkpt lat="44.6047467" lon="8.1940605"><ele>258.0</ele><time>2026-04-04T12:14:40.561Z</time></trkpt><trkpt lat="44.6045931" lon="8.1941268"><ele>264.6666666666667</ele><time>2026-04-04T12:14:41.562Z</time></trkpt><trkpt lat="44.6044365" lon="8.1942125"><ele>271.33333333333337</ele><time>2026-04-04T12:14:42.562Z</time></trkpt><trkpt lat="44.6042831" lon="8.1943261"><ele>278.0</ele><time>2026-04-04T12:14:43.561Z</time></trkpt><trkpt lat="44.6041259" lon="8.1944176"><ele>278.0</ele><time>2026-04-04T12:14:44.562Z</time></trkpt><trkpt lat="44.6039659" lon="8.1944858"><ele>278.0</ele><time>2026-04-04T12:14:45.562Z</time></trkpt><trkpt lat="44.6037713" lon="8.1945468"><ele>278.0</ele><time>2026-04-04T12:14:46.561Z</time></trkpt><trkpt lat="44.6035894" lon="8.1946036"><ele>282.6666666666667</ele><time>2026-04-04T12:14:47.562Z</time></trkpt><trkpt lat="44.6034222" lon="8.1946702"><ele>287.3333333333333</ele><time>2026-04-04T12:14:48.562Z</time></trkpt><trkpt lat="44.6032557" lon="8.1947432"><ele>292.0</ele><time>2026-04-04T12:14:49.56Z</time></trkpt><trkpt lat="44.6030985" lon="8.1948191"><ele>286.75</ele><time>2026-04-04T12:14:50.561Z</time></trkpt><trkpt lat="44.6029564" lon="8.1948792"><ele>281.5</ele><time>2026-04-04T12:14:51.562Z</time></trkpt><trkpt lat="44.6028187" lon="8.1949317"><ele>276.25</ele><time>2026-04-04T12:14:52.561Z</time></trkpt><trkpt lat="44.6026948" lon="8.1949687"><ele>271.0</ele><time>2026-04-04T12:14:53.562Z</time></trkpt><trkpt lat="44.6025727" lon="8.1949887"><ele>271.0</ele><time>2026-04-04T12:14:54.561Z</time></trkpt><trkpt lat="44.6024605" lon="8.1949874"><ele>271.0</ele><time>2026-04-04T12:14:55.561Z</time></trkpt><trkpt lat="44.6023412" lon="8.1949726"><ele>271.0</ele><time>2026-04-04T12:14:56.56Z</time></trkpt><trkpt lat="44.6022148" lon="8.1949476"><ele>271.0</ele><time>2026-04-04T12:14:57.561Z</time></trkpt><trkpt lat="44.602095" lon="8.1948854"><ele>278.8</ele><time>2026-04-04T12:14:58.561Z</time></trkpt><trkpt lat="44.6019771" lon="8.194821"><ele>286.6</ele><time>2026-04-04T12:14:59.561Z</time></trkpt><trkpt lat="44.6018641" lon="8.1947576"><ele>294.4</ele><time>2026-04-04T12:15:00.562Z</time></trkpt><trkpt lat="44.6017626" lon="8.1947141"><ele>302.2</ele><time>2026-04-04T12:15:01.561Z</time></trkpt><trkpt lat="44.6016748" lon="8.1946743"><ele>310.0</ele><time>2026-04-04T12:15:02.562Z</time></trkpt><trkpt lat="44.601608" lon="8.1946495"><ele>310.0</ele><time>2026-04-04T12:15:03.562Z</time></trkpt><trkpt lat="44.6015056" lon="8.1946477"><ele>310.0</ele><time>2026-04-04T12:15:05.562Z</time></trkpt><trkpt lat="44.6014113" lon="8.1946512"><ele>310.0</ele><time>2026-04-04T12:15:07.562Z</time></trkpt><trkpt lat="44.6013022" lon="8.1947979"><ele>310.0</ele><time>2026-04-04T12:15:09.562Z</time></trkpt><trkpt lat="44.6012363" lon="8.1948986"><ele>310.0</ele><time>2026-04-04T12:15:10.562Z</time></trkpt><trkpt lat="44.6011379" lon="8.1949378"><ele>307.25</ele><time>2026-04-04T12:15:11.561Z</time></trkpt><trkpt lat="44.6010035" lon="8.1948571"><ele>304.5</ele><time>2026-04-04T12:15:12.563Z</time></trkpt><trkpt lat="44.6008895" lon="8.1947736"><ele>301.75</ele><time>2026-04-04T12:15:13.561Z</time></trkpt><trkpt lat="44.6007832" lon="8.1947045"><ele>299.0</ele><time>2026-04-04T12:15:14.562Z</time></trkpt><trkpt lat="44.6006683" lon="8.194636"><ele>299.0</ele><time>2026-04-04T12:15:15.562Z</time></trkpt><trkpt lat="44.600538" lon="8.1945635"><ele>299.0</ele><time>2026-04-04T12:15:16.562Z</time></trkpt><trkpt lat="44.6004021" lon="8.1944926"><ele>299.0</ele><time>2026-04-04T12:15:17.562Z</time></trkpt><trkpt lat="44.6002625" lon="8.1944212"><ele>299.0</ele><time>2026-04-04T12:15:18.562Z</time></trkpt><trkpt lat="44.6001158" lon="8.1943425"><ele>292.0</ele><time>2026-04-04T12:15:19.562Z</time></trkpt><trkpt lat="44.5999608" lon="8.1942566"><ele>285.0</ele><time>2026-04-04T12:15:20.562Z</time></trkpt><trkpt lat="44.5998093" lon="8.1941428"><ele>278.0</ele><time>2026-04-04T12:15:21.562Z</time></trkpt><trkpt lat="44.5996582" lon="8.1940218"><ele>278.6666666666667</ele><time>2026-04-04T12:15:22.562Z</time></trkpt><trkpt lat="44.5995082" lon="8.1938918"><ele>279.3333333333333</ele><time>2026-04-04T12:15:23.562Z</time></trkpt><trkpt lat="44.5993621" lon="8.1937524"><ele>280.0</ele><time>2026-04-04T12:15:24.563Z</time></trkpt><trkpt lat="44.5992166" lon="8.1936158"><ele>280.0</ele><time>2026-04-04T12:15:25.561Z</time></trkpt><trkpt lat="44.5990718" lon="8.1934827"><ele>280.0</ele><time>2026-04-04T12:15:26.562Z</time></trkpt><trkpt lat="44.5989229" lon="8.1933636"><ele>280.0</ele><time>2026-04-04T12:15:27.562Z</time></trkpt><trkpt lat="44.5987678" lon="8.193261"><ele>276.66666666666663</ele><time>2026-04-04T12:15:28.562Z</time></trkpt><trkpt lat="44.5985917" lon="8.1932052"><ele>273.3333333333333</ele><time>2026-04-04T12:15:29.562Z</time></trkpt><trkpt lat="44.5984061" lon="8.1931982"><ele>270.0</ele><time>2026-04-04T12:15:30.563Z</time></trkpt><trkpt lat="44.5982101" lon="8.1932118"><ele>270.0</ele><time>2026-04-04T12:15:31.562Z</time></trkpt><trkpt lat="44.5980059" lon="8.1932106"><ele>270.0</ele><time>2026-04-04T12:15:32.562Z</time></trkpt><trkpt lat="44.5978066" lon="8.1931548"><ele>270.0</ele><time>2026-04-04T12:15:33.562Z</time></trkpt><trkpt lat="44.5976081" lon="8.1931052"><ele>269.0</ele><time>2026-04-04T12:15:34.562Z</time></trkpt><trkpt lat="44.5974029" lon="8.1930593"><ele>268.0</ele><time>2026-04-04T12:15:35.562Z</time></trkpt><trkpt lat="44.5972003" lon="8.1930048"><ele>267.0</ele><time>2026-04-04T12:15:36.562Z</time></trkpt><trkpt lat="44.5969979" lon="8.192958"><ele>267.0</ele><time>2026-04-04T12:15:37.562Z</time></trkpt><trkpt lat="44.5968016" lon="8.1929151"><ele>267.0</ele><time>2026-04-04T12:15:38.562Z</time></trkpt><trkpt lat="44.5966154" lon="8.1928566"><ele>267.0</ele><time>2026-04-04T12:15:39.563Z</time></trkpt><trkpt lat="44.59643" lon="8.192805"><ele>267.0</ele><time>2026-04-04T12:15:40.561Z</time></trkpt><trkpt lat="44.5962521" lon="8.1927565"><ele>267.0</ele><time>2026-04-04T12:15:41.563Z</time></trkpt><trkpt lat="44.5960852" lon="8.1927018"><ele>267.0</ele><time>2026-04-04T12:15:42.563Z</time></trkpt><trkpt lat="44.5959297" lon="8.1926583"><ele>263.0</ele><time>2026-04-04T12:15:43.562Z</time></trkpt><trkpt lat="44.5957764" lon="8.1926053"><ele>259.0</ele><time>2026-04-04T12:15:44.563Z</time></trkpt><trkpt lat="44.5956193" lon="8.1925311"><ele>255.0</ele><time>2026-04-04T12:15:45.563Z</time></trkpt><trkpt lat="44.5954569" lon="8.1924209"><ele>254.33333333333331</ele><time>2026-04-04T12:15:46.563Z</time></trkpt><trkpt lat="44.5953004" lon="8.1922776"><ele>253.66666666666666</ele><time>2026-04-04T12:15:47.563Z</time></trkpt><trkpt lat="44.595149" lon="8.1921281"><ele>253.0</ele><time>2026-04-04T12:15:48.562Z</time></trkpt><trkpt lat="44.5949921" lon="8.1919771"><ele>253.0</ele><time>2026-04-04T12:15:49.563Z</time></trkpt><trkpt lat="44.5948329" lon="8.1918297"><ele>253.0</ele><time>2026-04-04T12:15:50.562Z</time></trkpt><trkpt lat="44.5946771" lon="8.191681"><ele>253.0</ele><time>2026-04-04T12:15:51.561Z</time></trkpt><trkpt lat="44.5945193" lon="8.191539"><ele>253.33333333333331</ele><time>2026-04-04T12:15:52.562Z</time></trkpt><trkpt lat="44.5943742" lon="8.1913902"><ele>253.66666666666669</ele><time>2026-04-04T12:15:53.562Z</time></trkpt><trkpt lat="44.5942231" lon="8.191246"><ele>254.0</ele><time>2026-04-04T12:15:54.562Z</time></trkpt><trkpt lat="44.5940703" lon="8.1910975"><ele>254.0</ele><time>2026-04-04T12:15:55.563Z</time></trkpt><trkpt lat="44.5939181" lon="8.190955"><ele>254.0</ele><time>2026-04-04T12:15:56.563Z</time></trkpt><trkpt lat="44.5937659" lon="8.1908033"><ele>254.0</ele><time>2026-04-04T12:15:57.563Z</time></trkpt><trkpt lat="44.5936181" lon="8.1906658"><ele>253.0</ele><time>2026-04-04T12:15:58.563Z</time></trkpt><trkpt lat="44.5934783" lon="8.1905322"><ele>252.0</ele><time>2026-04-04T12:15:59.563Z</time></trkpt><trkpt lat="44.5933495" lon="8.1904112"><ele>251.0</ele><time>2026-04-04T12:16:00.563Z</time></trkpt><trkpt lat="44.5932188" lon="8.1903035"><ele>251.0</ele><time>2026-04-04T12:16:01.562Z</time></trkpt><trkpt lat="44.5930837" lon="8.1902082"><ele>251.0</ele><time>2026-04-04T12:16:02.563Z</time></trkpt><trkpt lat="44.5929341" lon="8.1901568"><ele>251.0</ele><time>2026-04-04T12:16:03.564Z</time></trkpt><trkpt lat="44.5927676" lon="8.1901675"><ele>249.33333333333334</ele><time>2026-04-04T12:16:04.563Z</time></trkpt><trkpt lat="44.5926014" lon="8.1902056"><ele>247.66666666666669</ele><time>2026-04-04T12:16:05.563Z</time></trkpt><trkpt lat="44.5924499" lon="8.190247"><ele>246.0</ele><time>2026-04-04T12:16:06.563Z</time></trkpt><trkpt lat="44.5923096" lon="8.1902821"><ele>246.0</ele><time>2026-04-04T12:16:07.563Z</time></trkpt><trkpt lat="44.5921778" lon="8.1903043"><ele>246.0</ele><time>2026-04-04T12:16:08.563Z</time></trkpt><trkpt lat="44.5920281" lon="8.1903314"><ele>246.0</ele><time>2026-04-04T12:16:09.563Z</time></trkpt><trkpt lat="44.5918703" lon="8.1903563"><ele>246.0</ele><time>2026-04-04T12:16:10.563Z</time></trkpt><trkpt lat="44.5917031" lon="8.1903859"><ele>245.33333333333331</ele><time>2026-04-04T12:16:11.563Z</time></trkpt><trkpt lat="44.5915296" lon="8.1904123"><ele>244.66666666666666</ele><time>2026-04-04T12:16:12.563Z</time></trkpt><trkpt lat="44.59136" lon="8.1904402"><ele>244.0</ele><time>2026-04-04T12:16:13.563Z</time></trkpt><trkpt lat="44.5911821" lon="8.1904676"><ele>244.66666666666666</ele><time>2026-04-04T12:16:14.563Z</time></trkpt><trkpt lat="44.5910115" lon="8.190499"><ele>245.33333333333331</ele><time>2026-04-04T12:16:15.563Z</time></trkpt><trkpt lat="44.5908419" lon="8.1905271"><ele>246.0</ele><time>2026-04-04T12:16:16.563Z</time></trkpt><trkpt lat="44.5906765" lon="8.1905587"><ele>246.0</ele><time>2026-04-04T12:16:17.563Z</time></trkpt><trkpt lat="44.5905237" lon="8.1905979"><ele>246.0</ele><time>2026-04-04T12:16:18.563Z</time></trkpt><trkpt lat="44.5903681" lon="8.1906232"><ele>246.0</ele><time>2026-04-04T12:16:19.563Z</time></trkpt><trkpt lat="44.5902143" lon="8.1906433"><ele>246.0</ele><time>2026-04-04T12:16:20.563Z</time></trkpt><trkpt lat="44.5900657" lon="8.1906651"><ele>246.0</ele><time>2026-04-04T12:16:21.563Z</time></trkpt><trkpt lat="44.5899028" lon="8.1906984"><ele>246.0</ele><time>2026-04-04T12:16:22.563Z</time></trkpt><trkpt lat="44.5897554" lon="8.190727"><ele>245.75</ele><time>2026-04-04T12:16:23.562Z</time></trkpt><trkpt lat="44.5896094" lon="8.19075"><ele>245.5</ele><time>2026-04-04T12:16:24.562Z</time></trkpt><trkpt lat="44.5894603" lon="8.1907747"><ele>245.25</ele><time>2026-04-04T12:16:25.563Z</time></trkpt><trkpt lat="44.5893117" lon="8.1908082"><ele>245.0</ele><time>2026-04-04T12:16:26.563Z</time></trkpt><trkpt lat="44.5891551" lon="8.1908436"><ele>245.0</ele><time>2026-04-04T12:16:27.563Z</time></trkpt><trkpt lat="44.5890109" lon="8.1908679"><ele>245.0</ele><time>2026-04-04T12:16:28.563Z</time></trkpt><trkpt lat="44.5888574" lon="8.1908977"><ele>245.0</ele><time>2026-04-04T12:16:29.562Z</time></trkpt><trkpt lat="44.588724" lon="8.1909033"><ele>245.0</ele><time>2026-04-04T12:16:30.563Z</time></trkpt><trkpt lat="44.58858" lon="8.1909243"><ele>245.5</ele><time>2026-04-04T12:16:31.563Z</time></trkpt><trkpt lat="44.5884393" lon="8.1909425"><ele>246.0</ele><time>2026-04-04T12:16:32.563Z</time></trkpt><trkpt lat="44.5882985" lon="8.1909627"><ele>246.5</ele><time>2026-04-04T12:16:33.563Z</time></trkpt><trkpt lat="44.5881654" lon="8.1909848"><ele>247.0</ele><time>2026-04-04T12:16:34.562Z</time></trkpt><trkpt lat="44.5880209" lon="8.19101"><ele>247.0</ele><time>2026-04-04T12:16:35.563Z</time></trkpt><trkpt lat="44.5878675" lon="8.1910394"><ele>247.0</ele><time>2026-04-04T12:16:36.563Z</time></trkpt><trkpt lat="44.5877052" lon="8.1910818"><ele>247.0</ele><time>2026-04-04T12:16:37.563Z</time></trkpt><trkpt lat="44.5875449" lon="8.1911075"><ele>247.33333333333331</ele><time>2026-04-04T12:16:38.564Z</time></trkpt><trkpt lat="44.5873906" lon="8.1911309"><ele>247.66666666666669</ele><time>2026-04-04T12:16:39.563Z</time></trkpt><trkpt lat="44.5872384" lon="8.1911564"><ele>248.0</ele><time>2026-04-04T12:16:40.564Z</time></trkpt><trkpt lat="44.5870877" lon="8.1911842"><ele>249.0</ele><time>2026-04-04T12:16:41.564Z</time></trkpt><trkpt lat="44.5869372" lon="8.1911973"><ele>250.0</ele><time>2026-04-04T12:16:42.564Z</time></trkpt><trkpt lat="44.5867821" lon="8.1912211"><ele>251.0</ele><time>2026-04-04T12:16:43.563Z</time></trkpt><trkpt lat="44.5866195" lon="8.1912492"><ele>251.0</ele><time>2026-04-04T12:16:44.563Z</time></trkpt><trkpt lat="44.5864434" lon="8.1912607"><ele>251.0</ele><time>2026-04-04T12:16:45.564Z</time></trkpt><trkpt lat="44.5862737" lon="8.1913038"><ele>251.0</ele><time>2026-04-04T12:16:46.563Z</time></trkpt><trkpt lat="44.5860928" lon="8.1913237"><ele>251.66666666666669</ele><time>2026-04-04T12:16:47.563Z</time></trkpt><trkpt lat="44.5859413" lon="8.1913701"><ele>252.33333333333331</ele><time>2026-04-04T12:16:48.564Z</time></trkpt><trkpt lat="44.5857741" lon="8.191393"><ele>253.0</ele><time>2026-04-04T12:16:49.563Z</time></trkpt><trkpt lat="44.5855894" lon="8.1914297"><ele>253.0</ele><time>2026-04-04T12:16:50.563Z</time></trkpt><trkpt lat="44.5854219" lon="8.1914465"><ele>253.0</ele><time>2026-04-04T12:16:51.563Z</time></trkpt><trkpt lat="44.5852396" lon="8.191482"><ele>253.0</ele><time>2026-04-04T12:16:52.564Z</time></trkpt><trkpt lat="44.585063" lon="8.1915163"><ele>252.66666666666666</ele><time>2026-04-04T12:16:53.563Z</time></trkpt><trkpt lat="44.5848919" lon="8.1915398"><ele>252.33333333333331</ele><time>2026-04-04T12:16:54.564Z</time></trkpt><trkpt lat="44.5847127" lon="8.1915649"><ele>252.0</ele><time>2026-04-04T12:16:55.564Z</time></trkpt><trkpt lat="44.5845295" lon="8.1915892"><ele>252.66666666666669</ele><time>2026-04-04T12:16:56.564Z</time></trkpt><trkpt lat="44.5843482" lon="8.1916037"><ele>253.33333333333334</ele><time>2026-04-04T12:16:57.564Z</time></trkpt><trkpt lat="44.584171" lon="8.1916429"><ele>254.0</ele><time>2026-04-04T12:16:58.563Z</time></trkpt><trkpt lat="44.5839918" lon="8.1916765"><ele>254.0</ele><time>2026-04-04T12:16:59.564Z</time></trkpt><trkpt lat="44.5838235" lon="8.191701"><ele>254.0</ele><time>2026-04-04T12:17:00.564Z</time></trkpt><trkpt lat="44.5836632" lon="8.191717"><ele>254.0</ele><time>2026-04-04T12:17:01.564Z</time></trkpt><trkpt lat="44.5835004" lon="8.1917501"><ele>254.66666666666669</ele><time>2026-04-04T12:17:02.564Z</time></trkpt><trkpt lat="44.5833419" lon="8.1917778"><ele>255.33333333333331</ele><time>2026-04-04T12:17:03.564Z</time></trkpt><trkpt lat="44.583189" lon="8.1917988"><ele>256.0</ele><time>2026-04-04T12:17:04.564Z</time></trkpt><trkpt lat="44.5830423" lon="8.1918245"><ele>256.0</ele><time>2026-04-04T12:17:05.563Z</time></trkpt><trkpt lat="44.5828944" lon="8.1918597"><ele>256.0</ele><time>2026-04-04T12:17:06.564Z</time></trkpt><trkpt lat="44.5827433" lon="8.1918933"><ele>256.0</ele><time>2026-04-04T12:17:07.564Z</time></trkpt><trkpt lat="44.5825882" lon="8.1919274"><ele>257.3333333333333</ele><time>2026-04-04T12:17:08.564Z</time></trkpt><trkpt lat="44.5824258" lon="8.1919591"><ele>258.6666666666667</ele><time>2026-04-04T12:17:09.564Z</time></trkpt><trkpt lat="44.5822789" lon="8.1919916"><ele>260.0</ele><time>2026-04-04T12:17:10.564Z</time></trkpt><trkpt lat="44.5821405" lon="8.1920202"><ele>260.25</ele><time>2026-04-04T12:17:11.564Z</time></trkpt><trkpt lat="44.582007" lon="8.1920473"><ele>260.5</ele><time>2026-04-04T12:17:12.564Z</time></trkpt><trkpt lat="44.5818601" lon="8.1920666"><ele>260.75</ele><time>2026-04-04T12:17:13.564Z</time></trkpt><trkpt lat="44.5817065" lon="8.1920806"><ele>261.0</ele><time>2026-04-04T12:17:14.564Z</time></trkpt><trkpt lat="44.5815654" lon="8.1921002"><ele>261.0</ele><time>2026-04-04T12:17:15.563Z</time></trkpt><trkpt lat="44.5814327" lon="8.1921203"><ele>261.0</ele><time>2026-04-04T12:17:16.564Z</time></trkpt><trkpt lat="44.5813098" lon="8.1921394"><ele>261.0</ele><time>2026-04-04T12:17:17.564Z</time></trkpt><trkpt lat="44.581199" lon="8.1921578"><ele>261.0</ele><time>2026-04-04T12:17:18.564Z</time></trkpt><trkpt lat="44.58109" lon="8.1921757"><ele>259.40000000000003</ele><time>2026-04-04T12:17:19.564Z</time></trkpt><trkpt lat="44.5809871" lon="8.1921956"><ele>257.8</ele><time>2026-04-04T12:17:20.564Z</time></trkpt><trkpt lat="44.580891" lon="8.1922226"><ele>256.20000000000005</ele><time>2026-04-04T12:17:21.564Z</time></trkpt><trkpt lat="44.5808126" lon="8.1922557"><ele>254.60000000000002</ele><time>2026-04-04T12:17:22.564Z</time></trkpt><trkpt lat="44.5807214" lon="8.1922841"><ele>253.0</ele><time>2026-04-04T12:17:23.563Z</time></trkpt><trkpt lat="44.5806177" lon="8.19229"><ele>253.0</ele><time>2026-04-04T12:17:24.564Z</time></trkpt><trkpt lat="44.5805088" lon="8.1922728"><ele>253.0</ele><time>2026-04-04T12:17:25.564Z</time></trkpt><trkpt lat="44.5803946" lon="8.1922342"><ele>253.0</ele><time>2026-04-04T12:17:26.564Z</time></trkpt><trkpt lat="44.5802844" lon="8.1921848"><ele>253.0</ele><time>2026-04-04T12:17:27.563Z</time></trkpt><trkpt lat="44.5801849" lon="8.1921204"><ele>252.8</ele><time>2026-04-04T12:17:28.564Z</time></trkpt><trkpt lat="44.5800771" lon="8.1920303"><ele>252.60000000000002</ele><time>2026-04-04T12:17:29.564Z</time></trkpt><trkpt lat="44.5799689" lon="8.1919647"><ele>252.39999999999998</ele><time>2026-04-04T12:17:30.564Z</time></trkpt><trkpt lat="44.5798804" lon="8.1918981"><ele>252.2</ele><time>2026-04-04T12:17:31.564Z</time></trkpt><trkpt lat="44.5797982" lon="8.1918289"><ele>252.0</ele><time>2026-04-04T12:17:32.563Z</time></trkpt><trkpt lat="44.5797221" lon="8.1917812"><ele>252.0</ele><time>2026-04-04T12:17:33.565Z</time></trkpt><trkpt lat="44.5796329" lon="8.1917229"><ele>252.0</ele><time>2026-04-04T12:17:34.565Z</time></trkpt><trkpt lat="44.579539" lon="8.1916606"><ele>252.0</ele><time>2026-04-04T12:17:35.565Z</time></trkpt><trkpt lat="44.5794478" lon="8.191592"><ele>252.0</ele><time>2026-04-04T12:17:36.564Z</time></trkpt><trkpt lat="44.5793535" lon="8.1915251"><ele>252.0</ele><time>2026-04-04T12:17:37.563Z</time></trkpt><trkpt lat="44.5792692" lon="8.1914633"><ele>252.33333333333334</ele><time>2026-04-04T12:17:38.564Z</time></trkpt><trkpt lat="44.5791985" lon="8.1914057"><ele>252.66666666666669</ele><time>2026-04-04T12:17:39.565Z</time></trkpt><trkpt lat="44.5791348" lon="8.191354"><ele>253.0</ele><time>2026-04-04T12:17:40.565Z</time></trkpt><trkpt lat="44.579074" lon="8.1913088"><ele>253.33333333333334</ele><time>2026-04-04T12:17:41.565Z</time></trkpt><trkpt lat="44.5789595" lon="8.1912305"><ele>253.66666666666669</ele><time>2026-04-04T12:17:43.564Z</time></trkpt><trkpt lat="44.5788957" lon="8.1911838"><ele>254.0</ele><time>2026-04-04T12:17:44.563Z</time></trkpt><trkpt lat="44.5788323" lon="8.1911254"><ele>254.0</ele><time>2026-04-04T12:17:45.564Z</time></trkpt><trkpt lat="44.5787666" lon="8.1910704"><ele>253.99999999999997</ele><time>2026-04-04T12:17:46.564Z</time></trkpt><trkpt lat="44.5786881" lon="8.1910136"><ele>253.99999999999997</ele><time>2026-04-04T12:17:47.564Z</time></trkpt><trkpt lat="44.5786043" lon="8.1909557"><ele>254.0</ele><time>2026-04-04T12:17:48.564Z</time></trkpt><trkpt lat="44.5785123" lon="8.1908912"><ele>254.0</ele><time>2026-04-04T12:17:49.564Z</time></trkpt><trkpt lat="44.578415" lon="8.1908208"><ele>253.75</ele><time>2026-04-04T12:17:50.564Z</time></trkpt><trkpt lat="44.5783154" lon="8.1907354"><ele>253.5</ele><time>2026-04-04T12:17:51.565Z</time></trkpt><trkpt lat="44.578205" lon="8.1906289"><ele>253.25</ele><time>2026-04-04T12:17:52.565Z</time></trkpt><trkpt lat="44.5781045" lon="8.1905105"><ele>253.0</ele><time>2026-04-04T12:17:53.564Z</time></trkpt><trkpt lat="44.5780126" lon="8.1904035"><ele>253.0</ele><time>2026-04-04T12:17:54.565Z</time></trkpt><trkpt lat="44.5779333" lon="8.1902959"><ele>253.0</ele><time>2026-04-04T12:17:55.566Z</time></trkpt><trkpt lat="44.5778691" lon="8.1901788"><ele>253.0</ele><time>2026-04-04T12:17:56.564Z</time></trkpt><trkpt lat="44.5778163" lon="8.1900468"><ele>253.0</ele><time>2026-04-04T12:17:57.564Z</time></trkpt><trkpt lat="44.5777837" lon="8.1899076"><ele>253.0</ele><time>2026-04-04T12:17:58.565Z</time></trkpt><trkpt lat="44.5777669" lon="8.1897744"><ele>251.75</ele><time>2026-04-04T12:17:59.565Z</time></trkpt><trkpt lat="44.5777567" lon="8.1896359"><ele>250.5</ele><time>2026-04-04T12:18:00.565Z</time></trkpt><trkpt lat="44.5777528" lon="8.1894764"><ele>249.25</ele><time>2026-04-04T12:18:01.563Z</time></trkpt><trkpt lat="44.5777543" lon="8.1892982"><ele>248.0</ele><time>2026-04-04T12:18:02.564Z</time></trkpt><trkpt lat="44.5777619" lon="8.1891117"><ele>248.25</ele><time>2026-04-04T12:18:03.564Z</time></trkpt><trkpt lat="44.5777772" lon="8.1889243"><ele>248.5</ele><time>2026-04-04T12:18:04.565Z</time></trkpt><trkpt lat="44.5778029" lon="8.1887544"><ele>248.75</ele><time>2026-04-04T12:18:05.564Z</time></trkpt><trkpt lat="44.5778407" lon="8.1885944"><ele>249.0</ele><time>2026-04-04T12:18:06.565Z</time></trkpt><trkpt lat="44.5778848" lon="8.1884428"><ele>249.39999999999998</ele><time>2026-04-04T12:18:07.565Z</time></trkpt><trkpt lat="44.5779386" lon="8.1883091"><ele>249.79999999999998</ele><time>2026-04-04T12:18:08.565Z</time></trkpt><trkpt lat="44.5779998" lon="8.1881925"><ele>250.20000000000002</ele><time>2026-04-04T12:18:09.565Z</time></trkpt><trkpt lat="44.5780626" lon="8.1880848"><ele>250.60000000000002</ele><time>2026-04-04T12:18:10.565Z</time></trkpt><trkpt lat="44.5781282" lon="8.1879811"><ele>251.0</ele><time>2026-04-04T12:18:11.564Z</time></trkpt><trkpt lat="44.5781943" lon="8.1878962"><ele>250.99999999999997</ele><time>2026-04-04T12:18:12.565Z</time></trkpt><trkpt lat="44.578248" lon="8.1878196"><ele>251.0</ele><time>2026-04-04T12:18:13.565Z</time></trkpt><trkpt lat="44.5782931" lon="8.1877343"><ele>250.99999999999997</ele><time>2026-04-04T12:18:14.565Z</time></trkpt><trkpt lat="44.5783374" lon="8.1876606"><ele>250.99999999999997</ele><time>2026-04-04T12:18:15.565Z</time></trkpt><trkpt lat="44.5783785" lon="8.1875901"><ele>251.0</ele><time>2026-04-04T12:18:16.565Z</time></trkpt><trkpt lat="44.5784223" lon="8.1875158"><ele>250.99999999999997</ele><time>2026-04-04T12:18:17.565Z</time></trkpt><trkpt lat="44.5784717" lon="8.1874335"><ele>250.99999999999997</ele><time>2026-04-04T12:18:18.565Z</time></trkpt><trkpt lat="44.5785224" lon="8.1873554"><ele>250.83333333333334</ele><time>2026-04-04T12:18:19.565Z</time></trkpt><trkpt lat="44.5785717" lon="8.1872873"><ele>250.66666666666669</ele><time>2026-04-04T12:18:20.565Z</time></trkpt><trkpt lat="44.5786185" lon="8.1872262"><ele>250.5</ele><time>2026-04-04T12:18:21.565Z</time></trkpt><trkpt lat="44.578696" lon="8.1871495"><ele>250.33333333333331</ele><time>2026-04-04T12:18:23.565Z</time></trkpt><trkpt lat="44.5787779" lon="8.1871473"><ele>250.16666666666666</ele><time>2026-04-04T12:18:24.565Z</time></trkpt><trkpt lat="44.5788758" lon="8.1871066"><ele>250.0</ele><time>2026-04-04T12:18:25.565Z</time></trkpt><trkpt lat="44.579005" lon="8.1870628"><ele>250.0</ele><time>2026-04-04T12:18:26.565Z</time></trkpt><trkpt lat="44.5791421" lon="8.187012"><ele>250.0</ele><time>2026-04-04T12:18:27.565Z</time></trkpt><trkpt lat="44.5792803" lon="8.1869603"><ele>250.0</ele><time>2026-04-04T12:18:28.565Z</time></trkpt><trkpt lat="44.5794246" lon="8.1868992"><ele>250.0</ele><time>2026-04-04T12:18:29.565Z</time></trkpt><trkpt lat="44.579579" lon="8.1868286"><ele>253.66666666666666</ele><time>2026-04-04T12:18:30.565Z</time></trkpt><trkpt lat="44.5797381" lon="8.1867562"><ele>257.3333333333333</ele><time>2026-04-04T12:18:31.565Z</time></trkpt><trkpt lat="44.5798955" lon="8.1866833"><ele>261.0</ele><time>2026-04-04T12:18:32.565Z</time></trkpt><trkpt lat="44.5800449" lon="8.1866123"><ele>261.0</ele><time>2026-04-04T12:18:33.565Z</time></trkpt><trkpt lat="44.5801843" lon="8.1865533"><ele>261.0</ele><time>2026-04-04T12:18:34.566Z</time></trkpt><trkpt lat="44.5803166" lon="8.1864962"><ele>261.0</ele><time>2026-04-04T12:18:35.565Z</time></trkpt><trkpt lat="44.580447" lon="8.1864364"><ele>261.0</ele><time>2026-04-04T12:18:36.566Z</time></trkpt><trkpt lat="44.5805794" lon="8.1863741"><ele>259.5</ele><time>2026-04-04T12:18:37.566Z</time></trkpt><trkpt lat="44.5807095" lon="8.1863113"><ele>258.0</ele><time>2026-04-04T12:18:38.564Z</time></trkpt><trkpt lat="44.5808343" lon="8.1862503"><ele>256.5</ele><time>2026-04-04T12:18:39.565Z</time></trkpt><trkpt lat="44.5809518" lon="8.1861948"><ele>255.0</ele><time>2026-04-04T12:18:40.565Z</time></trkpt><trkpt lat="44.5810631" lon="8.1861422"><ele>255.0</ele><time>2026-04-04T12:18:41.565Z</time></trkpt><trkpt lat="44.5811701" lon="8.1860884"><ele>255.0</ele><time>2026-04-04T12:18:42.565Z</time></trkpt><trkpt lat="44.5812709" lon="8.1860342"><ele>255.0</ele><time>2026-04-04T12:18:43.565Z</time></trkpt><trkpt lat="44.5813697" lon="8.1859734"><ele>255.0</ele><time>2026-04-04T12:18:44.565Z</time></trkpt><trkpt lat="44.5814622" lon="8.1858863"><ele>255.0</ele><time>2026-04-04T12:18:45.566Z</time></trkpt><trkpt lat="44.5815491" lon="8.1857838"><ele>254.8</ele><time>2026-04-04T12:18:46.566Z</time></trkpt><trkpt lat="44.5816196" lon="8.1856757"><ele>254.6</ele><time>2026-04-04T12:18:47.566Z</time></trkpt><trkpt lat="44.5816758" lon="8.1855665"><ele>254.39999999999998</ele><time>2026-04-04T12:18:48.566Z</time></trkpt><trkpt lat="44.5817284" lon="8.1854569"><ele>254.2</ele><time>2026-04-04T12:18:49.566Z</time></trkpt><trkpt lat="44.5817741" lon="8.1853341"><ele>254.0</ele><time>2026-04-04T12:18:50.566Z</time></trkpt><trkpt lat="44.5818077" lon="8.1852063"><ele>254.00000000000003</ele><time>2026-04-04T12:18:51.566Z</time></trkpt><trkpt lat="44.5818302" lon="8.185077"><ele>254.0</ele><time>2026-04-04T12:18:52.565Z</time></trkpt><trkpt lat="44.5818438" lon="8.1849646"><ele>254.0</ele><time>2026-04-04T12:18:54.566Z</time></trkpt><trkpt lat="44.5818512" lon="8.1848565"><ele>254.0</ele><time>2026-04-04T12:18:56.565Z</time></trkpt><trkpt lat="44.5818548" lon="8.1847537"><ele>254.00000000000003</ele><time>2026-04-04T12:18:57.565Z</time></trkpt><trkpt lat="44.5818555" lon="8.184628"><ele>254.0</ele><time>2026-04-04T12:18:58.566Z</time></trkpt><trkpt lat="44.5818575" lon="8.1844813"><ele>254.0</ele><time>2026-04-04T12:18:59.566Z</time></trkpt><trkpt lat="44.5818651" lon="8.1843249"><ele>254.0</ele><time>2026-04-04T12:19:00.566Z</time></trkpt><trkpt lat="44.5818741" lon="8.1841563"><ele>254.0</ele><time>2026-04-04T12:19:01.565Z</time></trkpt><trkpt lat="44.5818835" lon="8.1839733"><ele>254.0</ele><time>2026-04-04T12:19:02.566Z</time></trkpt><trkpt lat="44.5818925" lon="8.1837771"><ele>253.66666666666669</ele><time>2026-04-04T12:19:03.566Z</time></trkpt><trkpt lat="44.5819053" lon="8.1835724"><ele>253.33333333333331</ele><time>2026-04-04T12:19:04.566Z</time></trkpt><trkpt lat="44.5819206" lon="8.1833584"><ele>253.0</ele><time>2026-04-04T12:19:05.566Z</time></trkpt><trkpt lat="44.5819353" lon="8.1831447"><ele>252.75</ele><time>2026-04-04T12:19:06.566Z</time></trkpt><trkpt lat="44.5819477" lon="8.1829296"><ele>252.5</ele><time>2026-04-04T12:19:07.566Z</time></trkpt><trkpt lat="44.5819594" lon="8.1827213"><ele>252.25</ele><time>2026-04-04T12:19:08.566Z</time></trkpt><trkpt lat="44.5819704" lon="8.1825287"><ele>252.0</ele><time>2026-04-04T12:19:09.566Z</time></trkpt><trkpt lat="44.5819825" lon="8.1823563"><ele>252.25</ele><time>2026-04-04T12:19:10.566Z</time></trkpt><trkpt lat="44.5819928" lon="8.182188"><ele>252.5</ele><time>2026-04-04T12:19:11.566Z</time></trkpt><trkpt lat="44.5820041" lon="8.1820168"><ele>252.75</ele><time>2026-04-04T12:19:12.566Z</time></trkpt><trkpt lat="44.5820157" lon="8.1818363"><ele>253.0</ele><time>2026-04-04T12:19:13.566Z</time></trkpt><trkpt lat="44.5820268" lon="8.1816493"><ele>253.75</ele><time>2026-04-04T12:19:14.568Z</time></trkpt><trkpt lat="44.5820385" lon="8.1814567"><ele>254.5</ele><time>2026-04-04T12:19:15.566Z</time></trkpt><trkpt lat="44.5820507" lon="8.1812619"><ele>255.25</ele><time>2026-04-04T12:19:16.566Z</time></trkpt><trkpt lat="44.5820613" lon="8.1810627"><ele>256.0</ele><time>2026-04-04T12:19:17.566Z</time></trkpt><trkpt lat="44.5820723" lon="8.1808653"><ele>256.75</ele><time>2026-04-04T12:19:18.566Z</time></trkpt><trkpt lat="44.5820829" lon="8.1806758"><ele>257.5</ele><time>2026-04-04T12:19:19.566Z</time></trkpt><trkpt lat="44.5820949" lon="8.1804983"><ele>258.25</ele><time>2026-04-04T12:19:20.565Z</time></trkpt><trkpt lat="44.5821079" lon="8.1803222"><ele>259.0</ele><time>2026-04-04T12:19:21.566Z</time></trkpt><trkpt lat="44.5821206" lon="8.1801405"><ele>259.0</ele><time>2026-04-04T12:19:22.565Z</time></trkpt><trkpt lat="44.5821312" lon="8.1799544"><ele>259.0</ele><time>2026-04-04T12:19:23.566Z</time></trkpt><trkpt lat="44.5821388" lon="8.1797675"><ele>259.0</ele><time>2026-04-04T12:19:24.566Z</time></trkpt><trkpt lat="44.582147" lon="8.1795863"><ele>259.0</ele><time>2026-04-04T12:19:25.566Z</time></trkpt><trkpt lat="44.5821598" lon="8.1794143"><ele>259.2</ele><time>2026-04-04T12:19:26.566Z</time></trkpt><trkpt lat="44.5821719" lon="8.1792642"><ele>259.4</ele><time>2026-04-04T12:19:27.566Z</time></trkpt><trkpt lat="44.5821822" lon="8.1791248"><ele>259.6</ele><time>2026-04-04T12:19:28.566Z</time></trkpt><trkpt lat="44.5821927" lon="8.1789846"><ele>259.8</ele><time>2026-04-04T12:19:29.566Z</time></trkpt><trkpt lat="44.5822035" lon="8.1788397"><ele>260.0</ele><time>2026-04-04T12:19:30.566Z</time></trkpt><trkpt lat="44.5822139" lon="8.1786881"><ele>260.0</ele><time>2026-04-04T12:19:31.566Z</time></trkpt><trkpt lat="44.5822238" lon="8.1785197"><ele>260.0</ele><time>2026-04-04T12:19:32.566Z</time></trkpt><trkpt lat="44.5822332" lon="8.1783179"><ele>260.0</ele><time>2026-04-04T12:19:33.566Z</time></trkpt><trkpt lat="44.5822425" lon="8.1780677"><ele>260.0</ele><time>2026-04-04T12:19:34.566Z</time></trkpt><trkpt lat="44.5822617" lon="8.1777598"><ele>261.0</ele><time>2026-04-04T12:19:35.566Z</time></trkpt><trkpt lat="44.5822961" lon="8.1774597"><ele>262.0</ele><time>2026-04-04T12:19:36.566Z</time></trkpt><trkpt lat="44.5823371" lon="8.1771918"><ele>263.0</ele><time>2026-04-04T12:19:37.565Z</time></trkpt><trkpt lat="44.5823796" lon="8.1769257"><ele>263.0</ele><time>2026-04-04T12:19:38.566Z</time></trkpt><trkpt lat="44.5824246" lon="8.1766546"><ele>263.0</ele><time>2026-04-04T12:19:39.566Z</time></trkpt><trkpt lat="44.5824654" lon="8.1763744"><ele>263.0</ele><time>2026-04-04T12:19:40.566Z</time></trkpt><trkpt lat="44.5825009" lon="8.1760991"><ele>263.0</ele><time>2026-04-04T12:19:41.565Z</time></trkpt><trkpt lat="44.5825303" lon="8.1758418"><ele>263.0</ele><time>2026-04-04T12:19:42.566Z</time></trkpt><trkpt lat="44.5825573" lon="8.175617"><ele>263.0</ele><time>2026-04-04T12:19:43.566Z</time></trkpt><trkpt lat="44.582584" lon="8.1754138"><ele>261.6666666666667</ele><time>2026-04-04T12:19:44.566Z</time></trkpt><trkpt lat="44.5826109" lon="8.1751996"><ele>260.3333333333333</ele><time>2026-04-04T12:19:45.566Z</time></trkpt><trkpt lat="44.5826444" lon="8.1749687"><ele>259.0</ele><time>2026-04-04T12:19:46.567Z</time></trkpt><trkpt lat="44.5826962" lon="8.1747237"><ele>258.0</ele><time>2026-04-04T12:19:47.567Z</time></trkpt><trkpt lat="44.5827816" lon="8.1744869"><ele>257.0</ele><time>2026-04-04T12:19:48.567Z</time></trkpt><trkpt lat="44.5828927" lon="8.174271"><ele>256.0</ele><time>2026-04-04T12:19:49.567Z</time></trkpt><trkpt lat="44.5830016" lon="8.1740568"><ele>261.3333333333333</ele><time>2026-04-04T12:19:50.567Z</time></trkpt><trkpt lat="44.5830902" lon="8.1738193"><ele>266.6666666666667</ele><time>2026-04-04T12:19:51.567Z</time></trkpt><trkpt lat="44.5831571" lon="8.1735578"><ele>272.0</ele><time>2026-04-04T12:19:52.567Z</time></trkpt><trkpt lat="44.5832206" lon="8.1732949"><ele>272.6666666666667</ele><time>2026-04-04T12:19:53.567Z</time></trkpt><trkpt lat="44.5832836" lon="8.1730244"><ele>273.3333333333333</ele><time>2026-04-04T12:19:54.567Z</time></trkpt><trkpt lat="44.5833436" lon="8.1727566"><ele>274.0</ele><time>2026-04-04T12:19:55.566Z</time></trkpt><trkpt lat="44.5833868" lon="8.1724957"><ele>276.66666666666663</ele><time>2026-04-04T12:19:56.567Z</time></trkpt><trkpt lat="44.5833947" lon="8.1722304"><ele>279.3333333333333</ele><time>2026-04-04T12:19:57.566Z</time></trkpt><trkpt lat="44.583377" lon="8.1719472"><ele>282.0</ele><time>2026-04-04T12:19:58.567Z</time></trkpt><trkpt lat="44.583345" lon="8.171672"><ele>288.3333333333333</ele><time>2026-04-04T12:19:59.567Z</time></trkpt><trkpt lat="44.5832954" lon="8.1713941"><ele>294.66666666666663</ele><time>2026-04-04T12:20:00.565Z</time></trkpt><trkpt lat="44.5832199" lon="8.1711111"><ele>301.0</ele><time>2026-04-04T12:20:01.567Z</time></trkpt><trkpt lat="44.5831428" lon="8.1708123"><ele>303.66666666666663</ele><time>2026-04-04T12:20:02.565Z</time></trkpt><trkpt lat="44.583071" lon="8.170539"><ele>306.3333333333333</ele><time>2026-04-04T12:20:03.566Z</time></trkpt><trkpt lat="44.5830147" lon="8.1702594"><ele>309.0</ele><time>2026-04-04T12:20:04.567Z</time></trkpt><trkpt lat="44.5829835" lon="8.169962"><ele>312.3333333333333</ele><time>2026-04-04T12:20:05.565Z</time></trkpt><trkpt lat="44.5829594" lon="8.1696698"><ele>315.66666666666663</ele><time>2026-04-04T12:20:06.567Z</time></trkpt><trkpt lat="44.582924" lon="8.1693879"><ele>319.0</ele><time>2026-04-04T12:20:07.565Z</time></trkpt><trkpt lat="44.5828468" lon="8.1691283"><ele>310.0</ele><time>2026-04-04T12:20:08.567Z</time></trkpt><trkpt lat="44.5827672" lon="8.1688922"><ele>301.0</ele><time>2026-04-04T12:20:09.566Z</time></trkpt><trkpt lat="44.5826741" lon="8.1686574"><ele>292.0</ele><time>2026-04-04T12:20:10.567Z</time></trkpt><trkpt lat="44.5825615" lon="8.1684171"><ele>298.0</ele><time>2026-04-04T12:20:11.567Z</time></trkpt><trkpt lat="44.5824275" lon="8.1681865"><ele>304.0</ele><time>2026-04-04T12:20:12.567Z</time></trkpt><trkpt lat="44.5822636" lon="8.1679716"><ele>310.0</ele><time>2026-04-04T12:20:13.567Z</time></trkpt><trkpt lat="44.5820927" lon="8.1677668"><ele>296.0</ele><time>2026-04-04T12:20:14.567Z</time></trkpt><trkpt lat="44.5819128" lon="8.1675702"><ele>282.0</ele><time>2026-04-04T12:20:15.567Z</time></trkpt><trkpt lat="44.5817306" lon="8.1673751"><ele>284.5</ele><time>2026-04-04T12:20:16.566Z</time></trkpt><trkpt lat="44.5815512" lon="8.1671803"><ele>287.0</ele><time>2026-04-04T12:20:17.567Z</time></trkpt><trkpt lat="44.5813749" lon="8.1669871"><ele>287.0</ele><time>2026-04-04T12:20:18.566Z</time></trkpt><trkpt lat="44.5812014" lon="8.1667961"><ele>287.0</ele><time>2026-04-04T12:20:19.566Z</time></trkpt><trkpt lat="44.58103" lon="8.1666059"><ele>287.0</ele><time>2026-04-04T12:20:20.566Z</time></trkpt><trkpt lat="44.580861" lon="8.1664275"><ele>290.6666666666667</ele><time>2026-04-04T12:20:21.567Z</time></trkpt><trkpt lat="44.5807077" lon="8.1662651"><ele>294.3333333333333</ele><time>2026-04-04T12:20:22.566Z</time></trkpt><trkpt lat="44.580563" lon="8.1661137"><ele>298.0</ele><time>2026-04-04T12:20:23.567Z</time></trkpt><trkpt lat="44.580413" lon="8.1659645"><ele>302.0</ele><time>2026-04-04T12:20:24.566Z</time></trkpt><trkpt lat="44.5802429" lon="8.165829"><ele>306.0</ele><time>2026-04-04T12:20:25.567Z</time></trkpt><trkpt lat="44.5800506" lon="8.1657282"><ele>310.0</ele><time>2026-04-04T12:20:26.566Z</time></trkpt><trkpt lat="44.5798502" lon="8.1656545"><ele>310.0</ele><time>2026-04-04T12:20:27.567Z</time></trkpt><trkpt lat="44.5796572" lon="8.165597"><ele>310.0</ele><time>2026-04-04T12:20:28.567Z</time></trkpt><trkpt lat="44.5794961" lon="8.1655497"><ele>310.0</ele><time>2026-04-04T12:20:29.567Z</time></trkpt><trkpt lat="44.5793642" lon="8.1655061"><ele>305.75</ele><time>2026-04-04T12:20:30.567Z</time></trkpt><trkpt lat="44.5792321" lon="8.1654652"><ele>301.5</ele><time>2026-04-04T12:20:31.567Z</time></trkpt><trkpt lat="44.5790895" lon="8.1654641"><ele>297.25</ele><time>2026-04-04T12:20:32.568Z</time></trkpt><trkpt lat="44.5789516" lon="8.1655391"><ele>293.0</ele><time>2026-04-04T12:20:33.567Z</time></trkpt><trkpt lat="44.5788" lon="8.1656555"><ele>288.0</ele><time>2026-04-04T12:20:34.567Z</time></trkpt><trkpt lat="44.5786381" lon="8.165791"><ele>283.0</ele><time>2026-04-04T12:20:35.566Z</time></trkpt><trkpt lat="44.5784559" lon="8.1658828"><ele>278.0</ele><time>2026-04-04T12:20:36.567Z</time></trkpt><trkpt lat="44.5782512" lon="8.165909"><ele>278.0</ele><time>2026-04-04T12:20:37.567Z</time></trkpt><trkpt lat="44.5780664" lon="8.165866"><ele>278.0</ele><time>2026-04-04T12:20:38.566Z</time></trkpt><trkpt lat="44.5778742" lon="8.1657678"><ele>278.0</ele><time>2026-04-04T12:20:39.567Z</time></trkpt><trkpt lat="44.57766" lon="8.1656761"><ele>283.0</ele><time>2026-04-04T12:20:40.567Z</time></trkpt><trkpt lat="44.57747" lon="8.1655934"><ele>288.0</ele><time>2026-04-04T12:20:41.567Z</time></trkpt><trkpt lat="44.5772917" lon="8.1655218"><ele>293.0</ele><time>2026-04-04T12:20:42.567Z</time></trkpt><trkpt lat="44.5771269" lon="8.1654563"><ele>296.0</ele><time>2026-04-04T12:20:43.567Z</time></trkpt><trkpt lat="44.5769587" lon="8.1653971"><ele>299.0</ele><time>2026-04-04T12:20:44.566Z</time></trkpt><trkpt lat="44.5767966" lon="8.1653454"><ele>302.0</ele><time>2026-04-04T12:20:45.567Z</time></trkpt><trkpt lat="44.5766238" lon="8.1653383"><ele>302.0</ele><time>2026-04-04T12:20:46.568Z</time></trkpt><trkpt lat="44.5764424" lon="8.1653911"><ele>302.0</ele><time>2026-04-04T12:20:47.568Z</time></trkpt><trkpt lat="44.5762432" lon="8.1655042"><ele>302.0</ele><time>2026-04-04T12:20:48.567Z</time></trkpt><trkpt lat="44.5760476" lon="8.1656175"><ele>296.6666666666667</ele><time>2026-04-04T12:20:49.567Z</time></trkpt><trkpt lat="44.5758462" lon="8.1657477"><ele>291.3333333333333</ele><time>2026-04-04T12:20:50.569Z</time></trkpt><trkpt lat="44.5756369" lon="8.1658613"><ele>286.0</ele><time>2026-04-04T12:20:51.567Z</time></trkpt><trkpt lat="44.5754248" lon="8.1659692"><ele>293.0</ele><time>2026-04-04T12:20:52.567Z</time></trkpt><trkpt lat="44.5752329" lon="8.1660863"><ele>300.0</ele><time>2026-04-04T12:20:53.567Z</time></trkpt><trkpt lat="44.5750591" lon="8.1661851"><ele>307.0</ele><time>2026-04-04T12:20:54.567Z</time></trkpt><trkpt lat="44.5748938" lon="8.1662842"><ele>307.0</ele><time>2026-04-04T12:20:55.568Z</time></trkpt><trkpt lat="44.5747354" lon="8.1664101"><ele>307.0</ele><time>2026-04-04T12:20:56.568Z</time></trkpt><trkpt lat="44.5745758" lon="8.1665649"><ele>307.0</ele><time>2026-04-04T12:20:57.567Z</time></trkpt><trkpt lat="44.5744042" lon="8.1667268"><ele>304.66666666666663</ele><time>2026-04-04T12:20:58.567Z</time></trkpt><trkpt lat="44.5742251" lon="8.1668889"><ele>302.3333333333333</ele><time>2026-04-04T12:20:59.567Z</time></trkpt><trkpt lat="44.5740423" lon="8.167058"><ele>300.0</ele><time>2026-04-04T12:21:00.568Z</time></trkpt><trkpt lat="44.5738622" lon="8.1672325"><ele>299.0</ele><time>2026-04-04T12:21:01.568Z</time></trkpt><trkpt lat="44.5736901" lon="8.1674043"><ele>298.0</ele><time>2026-04-04T12:21:02.568Z</time></trkpt><trkpt lat="44.5735256" lon="8.1675605"><ele>297.0</ele><time>2026-04-04T12:21:03.568Z</time></trkpt><trkpt lat="44.5733731" lon="8.1677124"><ele>297.0</ele><time>2026-04-04T12:21:04.568Z</time></trkpt><trkpt lat="44.5732243" lon="8.1678812"><ele>297.0</ele><time>2026-04-04T12:21:05.568Z</time></trkpt><trkpt lat="44.5730863" lon="8.1680889"><ele>297.0</ele><time>2026-04-04T12:21:06.567Z</time></trkpt><trkpt lat="44.572962" lon="8.1683167"><ele>299.3333333333333</ele><time>2026-04-04T12:21:07.568Z</time></trkpt><trkpt lat="44.5728467" lon="8.1685272"><ele>301.66666666666663</ele><time>2026-04-04T12:21:08.568Z</time></trkpt><trkpt lat="44.5727432" lon="8.168728"><ele>304.0</ele><time>2026-04-04T12:21:09.568Z</time></trkpt><trkpt lat="44.5726477" lon="8.1689435"><ele>298.0</ele><time>2026-04-04T12:21:10.568Z</time></trkpt><trkpt lat="44.5725289" lon="8.1691732"><ele>292.0</ele><time>2026-04-04T12:21:11.567Z</time></trkpt><trkpt lat="44.5723581" lon="8.1693563"><ele>286.0</ele><time>2026-04-04T12:21:12.567Z</time></trkpt><trkpt lat="44.5721629" lon="8.1694983"><ele>291.66666666666663</ele><time>2026-04-04T12:21:13.568Z</time></trkpt><trkpt lat="44.5719613" lon="8.1696217"><ele>297.3333333333333</ele><time>2026-04-04T12:21:14.568Z</time></trkpt><trkpt lat="44.571781" lon="8.1697387"><ele>303.0</ele><time>2026-04-04T12:21:15.568Z</time></trkpt><trkpt lat="44.5716117" lon="8.1698389"><ele>296.3333333333333</ele><time>2026-04-04T12:21:16.568Z</time></trkpt><trkpt lat="44.5714717" lon="8.1699449"><ele>289.66666666666663</ele><time>2026-04-04T12:21:17.568Z</time></trkpt><trkpt lat="44.5713177" lon="8.1700517"><ele>283.0</ele><time>2026-04-04T12:21:18.568Z</time></trkpt><trkpt lat="44.5711454" lon="8.1701186"><ele>283.0</ele><time>2026-04-04T12:21:19.567Z</time></trkpt><trkpt lat="44.5709646" lon="8.170133"><ele>283.0</ele><time>2026-04-04T12:21:20.568Z</time></trkpt><trkpt lat="44.5707562" lon="8.1700974"><ele>283.0</ele><time>2026-04-04T12:21:21.567Z</time></trkpt><trkpt lat="44.5705512" lon="8.1700621"><ele>285.3333333333333</ele><time>2026-04-04T12:21:22.568Z</time></trkpt><trkpt lat="44.570329" lon="8.1700474"><ele>287.6666666666667</ele><time>2026-04-04T12:21:23.568Z</time></trkpt><trkpt lat="44.570106" lon="8.1700671"><ele>290.0</ele><time>2026-04-04T12:21:24.568Z</time></trkpt><trkpt lat="44.5698793" lon="8.1701068"><ele>290.0</ele><time>2026-04-04T12:21:25.568Z</time></trkpt><trkpt lat="44.5696649" lon="8.1701452"><ele>290.0</ele><time>2026-04-04T12:21:26.568Z</time></trkpt><trkpt lat="44.5694453" lon="8.170181"><ele>290.0</ele><time>2026-04-04T12:21:27.567Z</time></trkpt><trkpt lat="44.5692361" lon="8.1702063"><ele>291.6666666666667</ele><time>2026-04-04T12:21:28.568Z</time></trkpt><trkpt lat="44.5690238" lon="8.1702314"><ele>293.3333333333333</ele><time>2026-04-04T12:21:29.567Z</time></trkpt><trkpt lat="44.5688079" lon="8.1702616"><ele>295.0</ele><time>2026-04-04T12:21:30.568Z</time></trkpt><trkpt lat="44.5685968" lon="8.1702935"><ele>297.66666666666663</ele><time>2026-04-04T12:21:31.568Z</time></trkpt><trkpt lat="44.5683899" lon="8.1703262"><ele>300.3333333333333</ele><time>2026-04-04T12:21:32.568Z</time></trkpt><trkpt lat="44.568188" lon="8.1703499"><ele>303.0</ele><time>2026-04-04T12:21:33.568Z</time></trkpt><trkpt lat="44.5679917" lon="8.1703609"><ele>306.0</ele><time>2026-04-04T12:21:34.568Z</time></trkpt><trkpt lat="44.5677922" lon="8.1703547"><ele>309.0</ele><time>2026-04-04T12:21:35.568Z</time></trkpt><trkpt lat="44.5675987" lon="8.1703404"><ele>312.0</ele><time>2026-04-04T12:21:36.568Z</time></trkpt><trkpt lat="44.5673945" lon="8.1703401"><ele>312.0</ele><time>2026-04-04T12:21:37.568Z</time></trkpt><trkpt lat="44.5672027" lon="8.1703435"><ele>312.0</ele><time>2026-04-04T12:21:38.567Z</time></trkpt><trkpt lat="44.5670283" lon="8.1703506"><ele>312.0</ele><time>2026-04-04T12:21:39.568Z</time></trkpt><trkpt lat="44.5668604" lon="8.1703631"><ele>312.75</ele><time>2026-04-04T12:21:40.568Z</time></trkpt><trkpt lat="44.5667125" lon="8.170393"><ele>313.5</ele><time>2026-04-04T12:21:41.568Z</time></trkpt><trkpt lat="44.5665706" lon="8.170423"><ele>314.25</ele><time>2026-04-04T12:21:42.568Z</time></trkpt><trkpt lat="44.5664368" lon="8.1704533"><ele>315.0</ele><time>2026-04-04T12:21:43.568Z</time></trkpt><trkpt lat="44.5663136" lon="8.1704739"><ele>315.0</ele><time>2026-04-04T12:21:44.568Z</time></trkpt><trkpt lat="44.5661952" lon="8.1704852"><ele>315.0</ele><time>2026-04-04T12:21:45.567Z</time></trkpt><trkpt lat="44.5660673" lon="8.1705074"><ele>315.0</ele><time>2026-04-04T12:21:46.568Z</time></trkpt><trkpt lat="44.5659486" lon="8.1705413"><ele>315.0</ele><time>2026-04-04T12:21:47.568Z</time></trkpt><trkpt lat="44.565834" lon="8.1705791"><ele>316.5</ele><time>2026-04-04T12:21:48.568Z</time></trkpt><trkpt lat="44.565711" lon="8.1706044"><ele>318.0</ele><time>2026-04-04T12:21:49.568Z</time></trkpt><trkpt lat="44.5655777" lon="8.1706278"><ele>319.5</ele><time>2026-04-04T12:21:50.568Z</time></trkpt><trkpt lat="44.5654419" lon="8.1706573"><ele>321.0</ele><time>2026-04-04T12:21:51.568Z</time></trkpt><trkpt lat="44.5652957" lon="8.1706994"><ele>310.3333333333333</ele><time>2026-04-04T12:21:52.568Z</time></trkpt><trkpt lat="44.5651477" lon="8.1707659"><ele>299.66666666666663</ele><time>2026-04-04T12:21:53.568Z</time></trkpt><trkpt lat="44.5649991" lon="8.1708602"><ele>289.0</ele><time>2026-04-04T12:21:54.568Z</time></trkpt><trkpt lat="44.5648518" lon="8.1709735"><ele>289.0</ele><time>2026-04-04T12:21:55.569Z</time></trkpt><trkpt lat="44.5647093" lon="8.171089"><ele>289.0</ele><time>2026-04-04T12:21:56.568Z</time></trkpt><trkpt lat="44.5645691" lon="8.1712049"><ele>289.0</ele><time>2026-04-04T12:21:57.568Z</time></trkpt><trkpt lat="44.564432" lon="8.171324"><ele>286.0</ele><time>2026-04-04T12:21:58.569Z</time></trkpt><trkpt lat="44.5642947" lon="8.1714387"><ele>283.0</ele><time>2026-04-04T12:21:59.568Z</time></trkpt><trkpt lat="44.564158" lon="8.1715779"><ele>280.0</ele><time>2026-04-04T12:22:00.568Z</time></trkpt><trkpt lat="44.5640169" lon="8.1716942"><ele>280.0</ele><time>2026-04-04T12:22:01.569Z</time></trkpt><trkpt lat="44.5638742" lon="8.1718017"><ele>280.0</ele><time>2026-04-04T12:22:02.569Z</time></trkpt><trkpt lat="44.563752" lon="8.171919"><ele>280.0</ele><time>2026-04-04T12:22:03.568Z</time></trkpt><trkpt lat="44.563649" lon="8.1720349"><ele>280.0</ele><time>2026-04-04T12:22:04.569Z</time></trkpt><trkpt lat="44.563567" lon="8.1721429"><ele>280.5</ele><time>2026-04-04T12:22:05.567Z</time></trkpt><trkpt lat="44.5634728" lon="8.1722534"><ele>281.0</ele><time>2026-04-04T12:22:06.569Z</time></trkpt><trkpt lat="44.5633615" lon="8.1723371"><ele>281.5</ele><time>2026-04-04T12:22:07.569Z</time></trkpt><trkpt lat="44.5632466" lon="8.172361"><ele>282.0</ele><time>2026-04-04T12:22:08.569Z</time></trkpt><trkpt lat="44.5631647" lon="8.1722933"><ele>282.0</ele><time>2026-04-04T12:22:09.568Z</time></trkpt><trkpt lat="44.5630944" lon="8.1721637"><ele>282.0</ele><time>2026-04-04T12:22:10.568Z</time></trkpt><trkpt lat="44.5630783" lon="8.1719816"><ele>282.0</ele><time>2026-04-04T12:22:11.568Z</time></trkpt><trkpt lat="44.5630721" lon="8.1717844"><ele>282.0</ele><time>2026-04-04T12:22:12.569Z</time></trkpt><trkpt lat="44.5630425" lon="8.1715762"><ele>286.0</ele><time>2026-04-04T12:22:13.569Z</time></trkpt><trkpt lat="44.5630291" lon="8.1713489"><ele>290.0</ele><time>2026-04-04T12:22:14.569Z</time></trkpt><trkpt lat="44.5630014" lon="8.1711081"><ele>294.0</ele><time>2026-04-04T12:22:15.569Z</time></trkpt><trkpt lat="44.5629675" lon="8.1708296"><ele>297.6666666666667</ele><time>2026-04-04T12:22:16.569Z</time></trkpt><trkpt lat="44.562936" lon="8.1705514"><ele>301.33333333333337</ele><time>2026-04-04T12:22:17.568Z</time></trkpt><trkpt lat="44.5629026" lon="8.1702814"><ele>305.0</ele><time>2026-04-04T12:22:18.569Z</time></trkpt><trkpt lat="44.5628656" lon="8.1700124"><ele>296.0</ele><time>2026-04-04T12:22:19.569Z</time></trkpt><trkpt lat="44.5628311" lon="8.1697457"><ele>287.0</ele><time>2026-04-04T12:22:20.569Z</time></trkpt><trkpt lat="44.5627972" lon="8.1694813"><ele>278.0</ele><time>2026-04-04T12:22:21.569Z</time></trkpt><trkpt lat="44.5627596" lon="8.1692241"><ele>281.0</ele><time>2026-04-04T12:22:22.569Z</time></trkpt><trkpt lat="44.5626886" lon="8.1689725"><ele>284.0</ele><time>2026-04-04T12:22:23.568Z</time></trkpt><trkpt lat="44.5625852" lon="8.1687144"><ele>287.0</ele><time>2026-04-04T12:22:24.569Z</time></trkpt><trkpt lat="44.5624472" lon="8.1684635"><ele>287.0</ele><time>2026-04-04T12:22:25.569Z</time></trkpt><trkpt lat="44.5623124" lon="8.1682029"><ele>287.0</ele><time>2026-04-04T12:22:26.569Z</time></trkpt><trkpt lat="44.5621886" lon="8.1679427"><ele>286.0</ele><time>2026-04-04T12:22:27.569Z</time></trkpt><trkpt lat="44.5620607" lon="8.1676795"><ele>285.0</ele><time>2026-04-04T12:22:28.568Z</time></trkpt><trkpt lat="44.5619302" lon="8.1674309"><ele>284.0</ele><time>2026-04-04T12:22:29.569Z</time></trkpt><trkpt lat="44.5617968" lon="8.1671903"><ele>290.0</ele><time>2026-04-04T12:22:30.568Z</time></trkpt><trkpt lat="44.5616761" lon="8.1669452"><ele>296.0</ele><time>2026-04-04T12:22:31.569Z</time></trkpt><trkpt lat="44.5615604" lon="8.1667013"><ele>302.0</ele><time>2026-04-04T12:22:32.57Z</time></trkpt><trkpt lat="44.5614575" lon="8.1664537"><ele>308.0</ele><time>2026-04-04T12:22:33.569Z</time></trkpt><trkpt lat="44.5613713" lon="8.1662001"><ele>314.0</ele><time>2026-04-04T12:22:34.569Z</time></trkpt><trkpt lat="44.5612614" lon="8.1659656"><ele>320.0</ele><time>2026-04-04T12:22:35.569Z</time></trkpt><trkpt lat="44.5611262" lon="8.1657409"><ele>313.33333333333337</ele><time>2026-04-04T12:22:36.569Z</time></trkpt><trkpt lat="44.5609815" lon="8.1655399"><ele>306.6666666666667</ele><time>2026-04-04T12:22:37.569Z</time></trkpt><trkpt lat="44.5608168" lon="8.1653162"><ele>300.0</ele><time>2026-04-04T12:22:38.568Z</time></trkpt><trkpt lat="44.5606756" lon="8.1650731"><ele>305.6666666666667</ele><time>2026-04-04T12:22:39.568Z</time></trkpt><trkpt lat="44.5605533" lon="8.164819"><ele>311.33333333333337</ele><time>2026-04-04T12:22:40.569Z</time></trkpt><trkpt lat="44.5604401" lon="8.1645545"><ele>317.0</ele><time>2026-04-04T12:22:41.569Z</time></trkpt><trkpt lat="44.560329" lon="8.1642953"><ele>308.6666666666667</ele><time>2026-04-04T12:22:42.569Z</time></trkpt><trkpt lat="44.5602222" lon="8.164053"><ele>300.3333333333333</ele><time>2026-04-04T12:22:43.57Z</time></trkpt><trkpt lat="44.5601206" lon="8.1638201"><ele>292.0</ele><time>2026-04-04T12:22:44.569Z</time></trkpt><trkpt lat="44.5600276" lon="8.1636018"><ele>292.0</ele><time>2026-04-04T12:22:45.569Z</time></trkpt><trkpt lat="44.5599449" lon="8.1633745"><ele>292.0</ele><time>2026-04-04T12:22:46.57Z</time></trkpt><trkpt lat="44.5598951" lon="8.1631228"><ele>292.0</ele><time>2026-04-04T12:22:47.569Z</time></trkpt><trkpt lat="44.5598653" lon="8.1628556"><ele>293.0</ele><time>2026-04-04T12:22:48.569Z</time></trkpt><trkpt lat="44.5598525" lon="8.1625724"><ele>294.0</ele><time>2026-04-04T12:22:49.569Z</time></trkpt><trkpt lat="44.5598646" lon="8.1622686"><ele>295.0</ele><time>2026-04-04T12:22:50.569Z</time></trkpt><trkpt lat="44.5598994" lon="8.1619588"><ele>296.3333333333333</ele><time>2026-04-04T12:22:51.57Z</time></trkpt><trkpt lat="44.55993" lon="8.161644"><ele>297.6666666666667</ele><time>2026-04-04T12:22:52.568Z</time></trkpt><trkpt lat="44.5599532" lon="8.16134"><ele>299.0</ele><time>2026-04-04T12:22:53.568Z</time></trkpt><trkpt lat="44.5599717" lon="8.1610439"><ele>300.6666666666667</ele><time>2026-04-04T12:22:54.569Z</time></trkpt><trkpt lat="44.5599893" lon="8.16076"><ele>302.3333333333333</ele><time>2026-04-04T12:22:55.569Z</time></trkpt><trkpt lat="44.5600024" lon="8.1604709"><ele>304.0</ele><time>2026-04-04T12:22:56.569Z</time></trkpt><trkpt lat="44.5599991" lon="8.1601693"><ele>308.5</ele><time>2026-04-04T12:22:57.57Z</time></trkpt><trkpt lat="44.5599692" lon="8.1598641"><ele>313.0</ele><time>2026-04-04T12:22:58.569Z</time></trkpt><trkpt lat="44.5599122" lon="8.1595501"><ele>313.0</ele><time>2026-04-04T12:22:59.57Z</time></trkpt><trkpt lat="44.5598549" lon="8.1592543"><ele>313.0</ele><time>2026-04-04T12:23:00.569Z</time></trkpt><trkpt lat="44.5598081" lon="8.1589916"><ele>313.0</ele><time>2026-04-04T12:23:01.57Z</time></trkpt><trkpt lat="44.5597632" lon="8.158742"><ele>314.3333333333333</ele><time>2026-04-04T12:23:02.569Z</time></trkpt><trkpt lat="44.5597276" lon="8.1584946"><ele>315.6666666666667</ele><time>2026-04-04T12:23:03.569Z</time></trkpt><trkpt lat="44.5596933" lon="8.1582469"><ele>317.0</ele><time>2026-04-04T12:23:04.569Z</time></trkpt><trkpt lat="44.5596541" lon="8.1579969"><ele>319.6666666666667</ele><time>2026-04-04T12:23:05.569Z</time></trkpt><trkpt lat="44.5595992" lon="8.1577641"><ele>322.3333333333333</ele><time>2026-04-04T12:23:06.57Z</time></trkpt><trkpt lat="44.5595202" lon="8.1575431"><ele>325.0</ele><time>2026-04-04T12:23:07.57Z</time></trkpt><trkpt lat="44.5594148" lon="8.1573319"><ele>315.66666666666663</ele><time>2026-04-04T12:23:08.57Z</time></trkpt><trkpt lat="44.5593105" lon="8.157125"><ele>306.3333333333333</ele><time>2026-04-04T12:23:09.57Z</time></trkpt><trkpt lat="44.5592436" lon="8.15693"><ele>297.0</ele><time>2026-04-04T12:23:10.57Z</time></trkpt><trkpt lat="44.559224" lon="8.1567392"><ele>297.0</ele><time>2026-04-04T12:23:11.569Z</time></trkpt><trkpt lat="44.559218" lon="8.1565349"><ele>297.0</ele><time>2026-04-04T12:23:12.57Z</time></trkpt><trkpt lat="44.5592218" lon="8.1563023"><ele>297.0</ele><time>2026-04-04T12:23:13.569Z</time></trkpt><trkpt lat="44.5592438" lon="8.1560462"><ele>297.0</ele><time>2026-04-04T12:23:14.57Z</time></trkpt><trkpt lat="44.559277" lon="8.155801"><ele>297.0</ele><time>2026-04-04T12:23:15.57Z</time></trkpt><trkpt lat="44.5593136" lon="8.1555546"><ele>297.0</ele><time>2026-04-04T12:23:16.57Z</time></trkpt><trkpt lat="44.5593575" lon="8.1553077"><ele>297.0</ele><time>2026-04-04T12:23:17.57Z</time></trkpt><trkpt lat="44.5593953" lon="8.1550588"><ele>297.0</ele><time>2026-04-04T12:23:18.57Z</time></trkpt><trkpt lat="44.5594262" lon="8.1548028"><ele>297.0</ele><time>2026-04-04T12:23:19.569Z</time></trkpt><trkpt lat="44.5594523" lon="8.1545517"><ele>297.0</ele><time>2026-04-04T12:23:20.569Z</time></trkpt><trkpt lat="44.559472" lon="8.154305"><ele>297.0</ele><time>2026-04-04T12:23:21.57Z</time></trkpt><trkpt lat="44.5594949" lon="8.1540675"><ele>297.0</ele><time>2026-04-04T12:23:22.57Z</time></trkpt><trkpt lat="44.5595233" lon="8.153827"><ele>298.0</ele><time>2026-04-04T12:23:23.57Z</time></trkpt><trkpt lat="44.5595483" lon="8.1535774"><ele>299.0</ele><time>2026-04-04T12:23:24.57Z</time></trkpt><trkpt lat="44.5595843" lon="8.1533223"><ele>300.0</ele><time>2026-04-04T12:23:25.569Z</time></trkpt><trkpt lat="44.559649" lon="8.1530708"><ele>300.0</ele><time>2026-04-04T12:23:26.57Z</time></trkpt><trkpt lat="44.5597436" lon="8.152819"><ele>300.0</ele><time>2026-04-04T12:23:27.57Z</time></trkpt><trkpt lat="44.5598549" lon="8.1525604"><ele>300.0</ele><time>2026-04-04T12:23:28.57Z</time></trkpt><trkpt lat="44.5599655" lon="8.1523015"><ele>298.3333333333333</ele><time>2026-04-04T12:23:29.57Z</time></trkpt><trkpt lat="44.5600773" lon="8.1520456"><ele>296.66666666666663</ele><time>2026-04-04T12:23:30.57Z</time></trkpt><trkpt lat="44.5601749" lon="8.1517846"><ele>295.0</ele><time>2026-04-04T12:23:31.57Z</time></trkpt><trkpt lat="44.5602774" lon="8.1515377"><ele>297.66666666666663</ele><time>2026-04-04T12:23:32.569Z</time></trkpt><trkpt lat="44.560378" lon="8.1512945"><ele>300.3333333333333</ele><time>2026-04-04T12:23:33.57Z</time></trkpt><trkpt lat="44.5604815" lon="8.15105"><ele>303.0</ele><time>2026-04-04T12:23:34.57Z</time></trkpt><trkpt lat="44.5605872" lon="8.1507971"><ele>301.6666666666667</ele><time>2026-04-04T12:23:35.57Z</time></trkpt><trkpt lat="44.5606934" lon="8.1505415"><ele>300.33333333333337</ele><time>2026-04-04T12:23:36.57Z</time></trkpt><trkpt lat="44.5607945" lon="8.1502928"><ele>299.0</ele><time>2026-04-04T12:23:37.57Z</time></trkpt><trkpt lat="44.5608925" lon="8.1500461"><ele>297.33333333333337</ele><time>2026-04-04T12:23:38.57Z</time></trkpt><trkpt lat="44.5609865" lon="8.149804"><ele>295.6666666666667</ele><time>2026-04-04T12:23:39.569Z</time></trkpt><trkpt lat="44.5610768" lon="8.1495652"><ele>294.0</ele><time>2026-04-04T12:23:40.571Z</time></trkpt><trkpt lat="44.5611524" lon="8.1493238"><ele>300.0</ele><time>2026-04-04T12:23:41.57Z</time></trkpt><trkpt lat="44.5612143" lon="8.1490706"><ele>306.0</ele><time>2026-04-04T12:23:42.57Z</time></trkpt><trkpt lat="44.5612632" lon="8.1488079"><ele>312.0</ele><time>2026-04-04T12:23:43.57Z</time></trkpt><trkpt lat="44.5613126" lon="8.148539"><ele>312.0</ele><time>2026-04-04T12:23:44.57Z</time></trkpt><trkpt lat="44.5613629" lon="8.1482738"><ele>312.0</ele><time>2026-04-04T12:23:45.57Z</time></trkpt><trkpt lat="44.5614177" lon="8.1480149"><ele>312.0</ele><time>2026-04-04T12:23:46.569Z</time></trkpt><trkpt lat="44.561466" lon="8.1477516"><ele>311.6666666666667</ele><time>2026-04-04T12:23:47.57Z</time></trkpt><trkpt lat="44.5615013" lon="8.1474779"><ele>311.33333333333337</ele><time>2026-04-04T12:23:48.571Z</time></trkpt><trkpt lat="44.5615191" lon="8.1471929"><ele>311.0</ele><time>2026-04-04T12:23:49.57Z</time></trkpt><trkpt lat="44.5615082" lon="8.1468907"><ele>311.6666666666667</ele><time>2026-04-04T12:23:50.57Z</time></trkpt><trkpt lat="44.5614864" lon="8.1465885"><ele>312.3333333333333</ele><time>2026-04-04T12:23:51.57Z</time></trkpt><trkpt lat="44.5614582" lon="8.146296"><ele>313.0</ele><time>2026-04-04T12:23:52.569Z</time></trkpt><trkpt lat="44.5614335" lon="8.1460118"><ele>314.66666666666663</ele><time>2026-04-04T12:23:53.57Z</time></trkpt><trkpt lat="44.5614105" lon="8.1457476"><ele>316.3333333333333</ele><time>2026-04-04T12:23:54.569Z</time></trkpt><trkpt lat="44.5613985" lon="8.1455009"><ele>318.0</ele><time>2026-04-04T12:23:55.57Z</time></trkpt><trkpt lat="44.5613722" lon="8.1452541"><ele>318.6666666666667</ele><time>2026-04-04T12:23:56.57Z</time></trkpt><trkpt lat="44.5613239" lon="8.1450183"><ele>319.33333333333337</ele><time>2026-04-04T12:23:57.57Z</time></trkpt><trkpt lat="44.561238" lon="8.1448008"><ele>320.0</ele><time>2026-04-04T12:23:58.57Z</time></trkpt><trkpt lat="44.5611297" lon="8.1445966"><ele>313.6666666666667</ele><time>2026-04-04T12:23:59.57Z</time></trkpt><trkpt lat="44.5610131" lon="8.1443998"><ele>307.3333333333333</ele><time>2026-04-04T12:24:00.57Z</time></trkpt><trkpt lat="44.5609234" lon="8.1441761"><ele>301.0</ele><time>2026-04-04T12:24:01.57Z</time></trkpt><trkpt lat="44.5608945" lon="8.1439174"><ele>301.0</ele><time>2026-04-04T12:24:02.57Z</time></trkpt><trkpt lat="44.5609176" lon="8.143637"><ele>301.0</ele><time>2026-04-04T12:24:03.571Z</time></trkpt><trkpt lat="44.5609471" lon="8.1433733"><ele>301.0</ele><time>2026-04-04T12:24:04.569Z</time></trkpt><trkpt lat="44.5609711" lon="8.1431109"><ele>302.3333333333333</ele><time>2026-04-04T12:24:05.57Z</time></trkpt><trkpt lat="44.5609851" lon="8.1428361"><ele>303.6666666666667</ele><time>2026-04-04T12:24:06.57Z</time></trkpt><trkpt lat="44.5609947" lon="8.1425619"><ele>305.0</ele><time>2026-04-04T12:24:07.571Z</time></trkpt><trkpt lat="44.5609995" lon="8.1422996"><ele>307.0</ele><time>2026-04-04T12:24:08.57Z</time></trkpt><trkpt lat="44.5609937" lon="8.1420563"><ele>309.0</ele><time>2026-04-04T12:24:09.571Z</time></trkpt><trkpt lat="44.560981" lon="8.1418191"><ele>311.0</ele><time>2026-04-04T12:24:10.57Z</time></trkpt><trkpt lat="44.5609619" lon="8.1415727"><ele>311.6666666666667</ele><time>2026-04-04T12:24:11.571Z</time></trkpt><trkpt lat="44.5609376" lon="8.1413302"><ele>312.3333333333333</ele><time>2026-04-04T12:24:12.571Z</time></trkpt><trkpt lat="44.5609037" lon="8.1410977"><ele>313.0</ele><time>2026-04-04T12:24:13.571Z</time></trkpt><trkpt lat="44.5608531" lon="8.140873"><ele>315.3333333333333</ele><time>2026-04-04T12:24:14.57Z</time></trkpt><trkpt lat="44.5607831" lon="8.1406515"><ele>317.6666666666667</ele><time>2026-04-04T12:24:15.57Z</time></trkpt><trkpt lat="44.5607025" lon="8.1404368"><ele>320.0</ele><time>2026-04-04T12:24:16.571Z</time></trkpt><trkpt lat="44.5606194" lon="8.1402142"><ele>320.0</ele><time>2026-04-04T12:24:17.57Z</time></trkpt><trkpt lat="44.5605454" lon="8.1399938"><ele>320.0</ele><time>2026-04-04T12:24:18.571Z</time></trkpt><trkpt lat="44.560499" lon="8.1397398"><ele>320.0</ele><time>2026-04-04T12:24:19.57Z</time></trkpt><trkpt lat="44.5604653" lon="8.1394874"><ele>319.6666666666667</ele><time>2026-04-04T12:24:20.571Z</time></trkpt><trkpt lat="44.5604337" lon="8.1392434"><ele>319.3333333333333</ele><time>2026-04-04T12:24:21.57Z</time></trkpt><trkpt lat="44.5603935" lon="8.1390031"><ele>319.0</ele><time>2026-04-04T12:24:22.569Z</time></trkpt><trkpt lat="44.5603317" lon="8.1387729"><ele>319.0</ele><time>2026-04-04T12:24:23.571Z</time></trkpt><trkpt lat="44.5602566" lon="8.1385554"><ele>319.0</ele><time>2026-04-04T12:24:24.571Z</time></trkpt><trkpt lat="44.5601739" lon="8.1383472"><ele>319.0</ele><time>2026-04-04T12:24:25.571Z</time></trkpt><trkpt lat="44.5600756" lon="8.1381385"><ele>322.0</ele><time>2026-04-04T12:24:26.571Z</time></trkpt><trkpt lat="44.5599932" lon="8.1379498"><ele>325.0</ele><time>2026-04-04T12:24:27.571Z</time></trkpt><trkpt lat="44.5599228" lon="8.1377754"><ele>328.0</ele><time>2026-04-04T12:24:28.571Z</time></trkpt><trkpt lat="44.5598565" lon="8.1376154"><ele>331.0</ele><time>2026-04-04T12:24:29.571Z</time></trkpt><trkpt lat="44.5597954" lon="8.1374659"><ele>335.25</ele><time>2026-04-04T12:24:30.571Z</time></trkpt><trkpt lat="44.5597427" lon="8.1373119"><ele>339.5</ele><time>2026-04-04T12:24:31.571Z</time></trkpt><trkpt lat="44.5596831" lon="8.1371508"><ele>343.75</ele><time>2026-04-04T12:24:32.571Z</time></trkpt><trkpt lat="44.5596078" lon="8.1370057"><ele>348.0</ele><time>2026-04-04T12:24:33.57Z</time></trkpt><trkpt lat="44.5595463" lon="8.1368726"><ele>346.75</ele><time>2026-04-04T12:24:34.571Z</time></trkpt><trkpt lat="44.559484" lon="8.1367486"><ele>345.5</ele><time>2026-04-04T12:24:35.572Z</time></trkpt><trkpt lat="44.5593954" lon="8.1366282"><ele>344.25</ele><time>2026-04-04T12:24:36.572Z</time></trkpt><trkpt lat="44.5592819" lon="8.1365095"><ele>343.0</ele><time>2026-04-04T12:24:37.57Z</time></trkpt><trkpt lat="44.5591176" lon="8.1364518"><ele>343.0</ele><time>2026-04-04T12:24:38.571Z</time></trkpt><trkpt lat="44.5589558" lon="8.1364165"><ele>343.0</ele><time>2026-04-04T12:24:39.571Z</time></trkpt><trkpt lat="44.5587895" lon="8.1364038"><ele>343.0</ele><time>2026-04-04T12:24:40.571Z</time></trkpt><trkpt lat="44.5586159" lon="8.1363997"><ele>340.0</ele><time>2026-04-04T12:24:41.571Z</time></trkpt><trkpt lat="44.5584465" lon="8.1363831"><ele>337.0</ele><time>2026-04-04T12:24:42.57Z</time></trkpt><trkpt lat="44.5582615" lon="8.1363729"><ele>334.0</ele><time>2026-04-04T12:24:43.571Z</time></trkpt><trkpt lat="44.5580739" lon="8.1363649"><ele>334.0</ele><time>2026-04-04T12:24:44.571Z</time></trkpt><trkpt lat="44.5578722" lon="8.1363643"><ele>334.0</ele><time>2026-04-04T12:24:45.571Z</time></trkpt><trkpt lat="44.5576628" lon="8.1363869"><ele>334.0</ele><time>2026-04-04T12:24:46.57Z</time></trkpt><trkpt lat="44.5574549" lon="8.1364176"><ele>333.0</ele><time>2026-04-04T12:24:47.57Z</time></trkpt><trkpt lat="44.5572401" lon="8.1364523"><ele>332.0</ele><time>2026-04-04T12:24:48.572Z</time></trkpt><trkpt lat="44.5570329" lon="8.1364902"><ele>331.0</ele><time>2026-04-04T12:24:49.57Z</time></trkpt><trkpt lat="44.5568219" lon="8.1365267"><ele>328.3333333333333</ele><time>2026-04-04T12:24:50.571Z</time></trkpt><trkpt lat="44.5566153" lon="8.1365522"><ele>325.6666666666667</ele><time>2026-04-04T12:24:51.572Z</time></trkpt><trkpt lat="44.5564098" lon="8.1365612"><ele>323.0</ele><time>2026-04-04T12:24:52.571Z</time></trkpt><trkpt lat="44.5562149" lon="8.1365966"><ele>318.33333333333337</ele><time>2026-04-04T12:24:53.572Z</time></trkpt><trkpt lat="44.5560157" lon="8.136617"><ele>313.6666666666667</ele><time>2026-04-04T12:24:54.571Z</time></trkpt><trkpt lat="44.5558165" lon="8.1366262"><ele>309.0</ele><time>2026-04-04T12:24:55.572Z</time></trkpt><trkpt lat="44.5556266" lon="8.1365844"><ele>313.0</ele><time>2026-04-04T12:24:56.571Z</time></trkpt><trkpt lat="44.5554439" lon="8.1364925"><ele>317.0</ele><time>2026-04-04T12:24:57.571Z</time></trkpt><trkpt lat="44.5552741" lon="8.136386"><ele>321.0</ele><time>2026-04-04T12:24:58.572Z</time></trkpt><trkpt lat="44.555101" lon="8.1362883"><ele>321.0</ele><time>2026-04-04T12:24:59.57Z</time></trkpt><trkpt lat="44.5549441" lon="8.1361702"><ele>321.0</ele><time>2026-04-04T12:25:00.571Z</time></trkpt><trkpt lat="44.554808" lon="8.1360083"><ele>321.0</ele><time>2026-04-04T12:25:01.571Z</time></trkpt><trkpt lat="44.5546843" lon="8.1357963"><ele>324.0</ele><time>2026-04-04T12:25:02.572Z</time></trkpt><trkpt lat="44.5545498" lon="8.135613"><ele>327.0</ele><time>2026-04-04T12:25:03.572Z</time></trkpt><trkpt lat="44.5543892" lon="8.1354835"><ele>330.0</ele><time>2026-04-04T12:25:04.571Z</time></trkpt><trkpt lat="44.5542011" lon="8.135394"><ele>330.0</ele><time>2026-04-04T12:25:05.572Z</time></trkpt><trkpt lat="44.554017" lon="8.1353426"><ele>330.0</ele><time>2026-04-04T12:25:06.572Z</time></trkpt><trkpt lat="44.5538435" lon="8.1353409"><ele>330.0</ele><time>2026-04-04T12:25:07.572Z</time></trkpt><trkpt lat="44.5536782" lon="8.1353541"><ele>328.3333333333333</ele><time>2026-04-04T12:25:08.571Z</time></trkpt><trkpt lat="44.5535046" lon="8.1353704"><ele>326.66666666666663</ele><time>2026-04-04T12:25:09.571Z</time></trkpt><trkpt lat="44.5533195" lon="8.135357"><ele>325.0</ele><time>2026-04-04T12:25:10.571Z</time></trkpt><trkpt lat="44.5531395" lon="8.1352678"><ele>325.0</ele><time>2026-04-04T12:25:11.572Z</time></trkpt><trkpt lat="44.5529459" lon="8.1351641"><ele>325.0</ele><time>2026-04-04T12:25:12.572Z</time></trkpt><trkpt lat="44.5527603" lon="8.1350882"><ele>325.0</ele><time>2026-04-04T12:25:13.572Z</time></trkpt><trkpt lat="44.5525763" lon="8.135024"><ele>324.0</ele><time>2026-04-04T12:25:14.571Z</time></trkpt><trkpt lat="44.5524043" lon="8.1350211"><ele>323.0</ele><time>2026-04-04T12:25:15.571Z</time></trkpt><trkpt lat="44.5522372" lon="8.1350553"><ele>322.0</ele><time>2026-04-04T12:25:16.571Z</time></trkpt><trkpt lat="44.5520744" lon="8.1351004"><ele>327.66666666666663</ele><time>2026-04-04T12:25:17.57Z</time></trkpt><trkpt lat="44.5519152" lon="8.1352089"><ele>333.3333333333333</ele><time>2026-04-04T12:25:18.571Z</time></trkpt><trkpt lat="44.5517525" lon="8.1353512"><ele>339.0</ele><time>2026-04-04T12:25:19.571Z</time></trkpt><trkpt lat="44.5515734" lon="8.1355178"><ele>326.5</ele><time>2026-04-04T12:25:20.571Z</time></trkpt><trkpt lat="44.5513857" lon="8.1357237"><ele>314.0</ele><time>2026-04-04T12:25:21.571Z</time></trkpt><trkpt lat="44.5512228" lon="8.1359145"><ele>324.6666666666667</ele><time>2026-04-04T12:25:22.571Z</time></trkpt><trkpt lat="44.5510487" lon="8.1360844"><ele>335.3333333333333</ele><time>2026-04-04T12:25:23.572Z</time></trkpt><trkpt lat="44.5508791" lon="8.1362822"><ele>346.0</ele><time>2026-04-04T12:25:24.571Z</time></trkpt><trkpt lat="44.5507131" lon="8.1364807"><ele>346.3333333333333</ele><time>2026-04-04T12:25:25.571Z</time></trkpt><trkpt lat="44.5505661" lon="8.1367095"><ele>346.6666666666667</ele><time>2026-04-04T12:25:26.572Z</time></trkpt><trkpt lat="44.5504276" lon="8.1369622"><ele>347.0</ele><time>2026-04-04T12:25:27.571Z</time></trkpt><trkpt lat="44.5502984" lon="8.1372179"><ele>342.0</ele><time>2026-04-04T12:25:28.572Z</time></trkpt><trkpt lat="44.550165" lon="8.1374709"><ele>337.0</ele><time>2026-04-04T12:25:29.571Z</time></trkpt><trkpt lat="44.5500375" lon="8.1377253"><ele>332.0</ele><time>2026-04-04T12:25:30.572Z</time></trkpt><trkpt lat="44.5499095" lon="8.1379819"><ele>332.0</ele><time>2026-04-04T12:25:31.572Z</time></trkpt><trkpt lat="44.5497785" lon="8.1382109"><ele>332.0</ele><time>2026-04-04T12:25:32.571Z</time></trkpt><trkpt lat="44.549655" lon="8.1384049"><ele>332.0</ele><time>2026-04-04T12:25:33.572Z</time></trkpt><trkpt lat="44.5495399" lon="8.1385822"><ele>332.75</ele><time>2026-04-04T12:25:34.572Z</time></trkpt><trkpt lat="44.5494344" lon="8.138741"><ele>333.5</ele><time>2026-04-04T12:25:35.572Z</time></trkpt><trkpt lat="44.5493308" lon="8.1388909"><ele>334.25</ele><time>2026-04-04T12:25:36.572Z</time></trkpt><trkpt lat="44.5492371" lon="8.1390475"><ele>335.0</ele><time>2026-04-04T12:25:37.572Z</time></trkpt><trkpt lat="44.5491369" lon="8.1391706"><ele>332.6666666666667</ele><time>2026-04-04T12:25:38.571Z</time></trkpt><trkpt lat="44.5490082" lon="8.1392526"><ele>330.3333333333333</ele><time>2026-04-04T12:25:39.571Z</time></trkpt><trkpt lat="44.5488617" lon="8.1393089"><ele>328.0</ele><time>2026-04-04T12:25:40.572Z</time></trkpt><trkpt lat="44.5486879" lon="8.1393453"><ele>328.0</ele><time>2026-04-04T12:25:41.572Z</time></trkpt><trkpt lat="44.5485199" lon="8.139361"><ele>328.0</ele><time>2026-04-04T12:25:42.572Z</time></trkpt><trkpt lat="44.5483592" lon="8.139343"><ele>328.0</ele><time>2026-04-04T12:25:43.572Z</time></trkpt><trkpt lat="44.5481907" lon="8.1392694"><ele>328.0</ele><time>2026-04-04T12:25:44.573Z</time></trkpt><trkpt lat="44.5480195" lon="8.1391713"><ele>328.0</ele><time>2026-04-04T12:25:45.573Z</time></trkpt><trkpt lat="44.5478465" lon="8.1390918"><ele>328.0</ele><time>2026-04-04T12:25:46.573Z</time></trkpt><trkpt lat="44.5476878" lon="8.1390091"><ele>329.0</ele><time>2026-04-04T12:25:47.572Z</time></trkpt><trkpt lat="44.5475225" lon="8.1389431"><ele>330.0</ele><time>2026-04-04T12:25:48.572Z</time></trkpt><trkpt lat="44.5473581" lon="8.1388801"><ele>331.0</ele><time>2026-04-04T12:25:49.572Z</time></trkpt><trkpt lat="44.5471915" lon="8.1388147"><ele>328.66666666666663</ele><time>2026-04-04T12:25:50.571Z</time></trkpt><trkpt lat="44.5470222" lon="8.1387752"><ele>326.3333333333333</ele><time>2026-04-04T12:25:51.572Z</time></trkpt><trkpt lat="44.5468428" lon="8.1387704"><ele>324.0</ele><time>2026-04-04T12:25:52.572Z</time></trkpt><trkpt lat="44.5466582" lon="8.1388037"><ele>324.0</ele><time>2026-04-04T12:25:53.572Z</time></trkpt><trkpt lat="44.5464796" lon="8.1388514"><ele>324.0</ele><time>2026-04-04T12:25:54.572Z</time></trkpt><trkpt lat="44.5463206" lon="8.1388785"><ele>324.0</ele><time>2026-04-04T12:25:55.572Z</time></trkpt><trkpt lat="44.5461747" lon="8.138883"><ele>323.3333333333333</ele><time>2026-04-04T12:25:56.573Z</time></trkpt><trkpt lat="44.5460271" lon="8.1388968"><ele>322.66666666666663</ele><time>2026-04-04T12:25:57.571Z</time></trkpt><trkpt lat="44.5458723" lon="8.1389173"><ele>322.0</ele><time>2026-04-04T12:25:58.573Z</time></trkpt><trkpt lat="44.5457185" lon="8.1389387"><ele>322.0</ele><time>2026-04-04T12:25:59.572Z</time></trkpt><trkpt lat="44.5455627" lon="8.1389625"><ele>322.0</ele><time>2026-04-04T12:26:00.572Z</time></trkpt><trkpt lat="44.5454053" lon="8.1389845"><ele>322.0</ele><time>2026-04-04T12:26:01.572Z</time></trkpt><trkpt lat="44.545248" lon="8.1390072"><ele>322.25</ele><time>2026-04-04T12:26:02.572Z</time></trkpt><trkpt lat="44.5450982" lon="8.1390306"><ele>322.5</ele><time>2026-04-04T12:26:03.573Z</time></trkpt><trkpt lat="44.5449562" lon="8.13905"><ele>322.75</ele><time>2026-04-04T12:26:04.573Z</time></trkpt><trkpt lat="44.5448185" lon="8.1390618"><ele>323.0</ele><time>2026-04-04T12:26:05.572Z</time></trkpt><trkpt lat="44.5446537" lon="8.1390691"><ele>323.0</ele><time>2026-04-04T12:26:06.573Z</time></trkpt><trkpt lat="44.5444858" lon="8.1390679"><ele>323.0</ele><time>2026-04-04T12:26:07.572Z</time></trkpt><trkpt lat="44.5443117" lon="8.1390614"><ele>323.0</ele><time>2026-04-04T12:26:08.573Z</time></trkpt><trkpt lat="44.544126" lon="8.1390416"><ele>323.0</ele><time>2026-04-04T12:26:09.574Z</time></trkpt><trkpt lat="44.5439545" lon="8.139029"><ele>323.0</ele><time>2026-04-04T12:26:10.572Z</time></trkpt><trkpt lat="44.5437719" lon="8.1390133"><ele>323.0</ele><time>2026-04-04T12:26:11.572Z</time></trkpt><trkpt lat="44.5435974" lon="8.138998"><ele>324.6666666666667</ele><time>2026-04-04T12:26:12.572Z</time></trkpt><trkpt lat="44.5434303" lon="8.1389877"><ele>326.3333333333333</ele><time>2026-04-04T12:26:13.572Z</time></trkpt><trkpt lat="44.5432521" lon="8.1389583"><ele>328.0</ele><time>2026-04-04T12:26:14.571Z</time></trkpt><trkpt lat="44.5430619" lon="8.1389329"><ele>329.0</ele><time>2026-04-04T12:26:15.572Z</time></trkpt><trkpt lat="44.5428658" lon="8.1388901"><ele>330.0</ele><time>2026-04-04T12:26:16.573Z</time></trkpt><trkpt lat="44.5426643" lon="8.1387714"><ele>331.0</ele><time>2026-04-04T12:26:17.572Z</time></trkpt><trkpt lat="44.5424493" lon="8.1386675"><ele>331.0</ele><time>2026-04-04T12:26:18.572Z</time></trkpt><trkpt lat="44.5422523" lon="8.1386397"><ele>331.0</ele><time>2026-04-04T12:26:19.572Z</time></trkpt><trkpt lat="44.5420344" lon="8.1386394"><ele>331.0</ele><time>2026-04-04T12:26:20.572Z</time></trkpt><trkpt lat="44.5418301" lon="8.1386487"><ele>332.66666666666663</ele><time>2026-04-04T12:26:21.573Z</time></trkpt><trkpt lat="44.541639" lon="8.1386519"><ele>334.3333333333333</ele><time>2026-04-04T12:26:22.571Z</time></trkpt><trkpt lat="44.5414403" lon="8.1386513"><ele>336.0</ele><time>2026-04-04T12:26:23.572Z</time></trkpt><trkpt lat="44.5412459" lon="8.1386397"><ele>334.0</ele><time>2026-04-04T12:26:24.572Z</time></trkpt><trkpt lat="44.5410631" lon="8.1386146"><ele>332.0</ele><time>2026-04-04T12:26:25.573Z</time></trkpt><trkpt lat="44.5408897" lon="8.1385805"><ele>330.0</ele><time>2026-04-04T12:26:26.572Z</time></trkpt><trkpt lat="44.540713" lon="8.1385348"><ele>330.0</ele><time>2026-04-04T12:26:27.573Z</time></trkpt><trkpt lat="44.540532" lon="8.1384901"><ele>330.0</ele><time>2026-04-04T12:26:28.573Z</time></trkpt><trkpt lat="44.5403381" lon="8.13847"><ele>330.0</ele><time>2026-04-04T12:26:29.573Z</time></trkpt><trkpt lat="44.5401374" lon="8.1384671"><ele>329.6666666666667</ele><time>2026-04-04T12:26:30.573Z</time></trkpt><trkpt lat="44.5399303" lon="8.1384747"><ele>329.33333333333337</ele><time>2026-04-04T12:26:31.572Z</time></trkpt><trkpt lat="44.5397196" lon="8.138485"><ele>329.0</ele><time>2026-04-04T12:26:32.573Z</time></trkpt><trkpt lat="44.5395188" lon="8.1384864"><ele>329.0</ele><time>2026-04-04T12:26:33.573Z</time></trkpt><trkpt lat="44.5393155" lon="8.1384929"><ele>329.0</ele><time>2026-04-04T12:26:34.573Z</time></trkpt><trkpt lat="44.539104" lon="8.1385132"><ele>329.0</ele><time>2026-04-04T12:26:35.573Z</time></trkpt><trkpt lat="44.538893" lon="8.1385545"><ele>331.33333333333337</ele><time>2026-04-04T12:26:36.574Z</time></trkpt><trkpt lat="44.5386829" lon="8.1386029"><ele>333.6666666666667</ele><time>2026-04-04T12:26:37.573Z</time></trkpt><trkpt lat="44.538479" lon="8.1386423"><ele>336.0</ele><time>2026-04-04T12:26:38.574Z</time></trkpt><trkpt lat="44.5382817" lon="8.13868"><ele>336.0</ele><time>2026-04-04T12:26:39.573Z</time></trkpt><trkpt lat="44.5380803" lon="8.1387139"><ele>336.0</ele><time>2026-04-04T12:26:40.574Z</time></trkpt><trkpt lat="44.537879" lon="8.1387504"><ele>336.0</ele><time>2026-04-04T12:26:41.574Z</time></trkpt><trkpt lat="44.5376722" lon="8.1387853"><ele>337.0</ele><time>2026-04-04T12:26:42.573Z</time></trkpt><trkpt lat="44.5374649" lon="8.1388295"><ele>338.0</ele><time>2026-04-04T12:26:43.573Z</time></trkpt><trkpt lat="44.5372566" lon="8.138878"><ele>339.0</ele><time>2026-04-04T12:26:44.573Z</time></trkpt><trkpt lat="44.5370502" lon="8.138936"><ele>342.0</ele><time>2026-04-04T12:26:45.574Z</time></trkpt><trkpt lat="44.5368464" lon="8.1389893"><ele>345.0</ele><time>2026-04-04T12:26:46.573Z</time></trkpt><trkpt lat="44.536641" lon="8.1390386"><ele>348.0</ele><time>2026-04-04T12:26:47.573Z</time></trkpt><trkpt lat="44.5364442" lon="8.1390579"><ele>340.0</ele><time>2026-04-04T12:26:48.573Z</time></trkpt><trkpt lat="44.5362388" lon="8.1391027"><ele>332.0</ele><time>2026-04-04T12:26:49.573Z</time></trkpt><trkpt lat="44.5360392" lon="8.1391365"><ele>324.0</ele><time>2026-04-04T12:26:50.573Z</time></trkpt><trkpt lat="44.5358384" lon="8.1391519"><ele>324.0</ele><time>2026-04-04T12:26:51.572Z</time></trkpt><trkpt lat="44.5356488" lon="8.1391677"><ele>324.0</ele><time>2026-04-04T12:26:52.573Z</time></trkpt><trkpt lat="44.5354666" lon="8.1391765"><ele>324.0</ele><time>2026-04-04T12:26:53.573Z</time></trkpt><trkpt lat="44.5352871" lon="8.139182"><ele>324.6666666666667</ele><time>2026-04-04T12:26:54.574Z</time></trkpt><trkpt lat="44.5351103" lon="8.1391973"><ele>325.33333333333337</ele><time>2026-04-04T12:26:55.573Z</time></trkpt><trkpt lat="44.5349258" lon="8.1392073"><ele>326.0</ele><time>2026-04-04T12:26:56.574Z</time></trkpt><trkpt lat="44.5347418" lon="8.1392057"><ele>326.0</ele><time>2026-04-04T12:26:57.573Z</time></trkpt><trkpt lat="44.5345605" lon="8.139207"><ele>326.0</ele><time>2026-04-04T12:26:58.574Z</time></trkpt><trkpt lat="44.5343731" lon="8.1392032"><ele>326.0</ele><time>2026-04-04T12:26:59.573Z</time></trkpt><trkpt lat="44.5341767" lon="8.13919"><ele>326.0</ele><time>2026-04-04T12:27:00.574Z</time></trkpt><trkpt lat="44.5339645" lon="8.1391468"><ele>326.0</ele><time>2026-04-04T12:27:01.574Z</time></trkpt><trkpt lat="44.5337435" lon="8.1390757"><ele>326.0</ele><time>2026-04-04T12:27:02.573Z</time></trkpt><trkpt lat="44.5335244" lon="8.1389931"><ele>337.0</ele><time>2026-04-04T12:27:03.574Z</time></trkpt><trkpt lat="44.5333078" lon="8.1388991"><ele>348.0</ele><time>2026-04-04T12:27:04.574Z</time></trkpt><trkpt lat="44.5330883" lon="8.1388141"><ele>344.5</ele><time>2026-04-04T12:27:05.573Z</time></trkpt><trkpt lat="44.5328665" lon="8.1387266"><ele>341.0</ele><time>2026-04-04T12:27:06.572Z</time></trkpt><trkpt lat="44.5326406" lon="8.1386558"><ele>341.0</ele><time>2026-04-04T12:27:07.573Z</time></trkpt><trkpt lat="44.5324162" lon="8.138595"><ele>341.0</ele><time>2026-04-04T12:27:08.572Z</time></trkpt><trkpt lat="44.5321944" lon="8.1385681"><ele>338.0</ele><time>2026-04-04T12:27:09.574Z</time></trkpt><trkpt lat="44.5319594" lon="8.1385678"><ele>335.0</ele><time>2026-04-04T12:27:10.573Z</time></trkpt><trkpt lat="44.5317221" lon="8.1385737"><ele>335.0</ele><time>2026-04-04T12:27:11.573Z</time></trkpt><trkpt lat="44.5314726" lon="8.1385789"><ele>335.0</ele><time>2026-04-04T12:27:12.573Z</time></trkpt><trkpt lat="44.5312454" lon="8.1385901"><ele>337.33333333333337</ele><time>2026-04-04T12:27:13.573Z</time></trkpt><trkpt lat="44.5310214" lon="8.1386366"><ele>339.6666666666667</ele><time>2026-04-04T12:27:14.574Z</time></trkpt><trkpt lat="44.530803" lon="8.1386955"><ele>342.0</ele><time>2026-04-04T12:27:15.573Z</time></trkpt><trkpt lat="44.5305911" lon="8.1387744"><ele>345.0</ele><time>2026-04-04T12:27:16.574Z</time></trkpt><trkpt lat="44.5303783" lon="8.1388513"><ele>348.0</ele><time>2026-04-04T12:27:17.574Z</time></trkpt><trkpt lat="44.5301643" lon="8.1389361"><ele>351.0</ele><time>2026-04-04T12:27:18.574Z</time></trkpt><trkpt lat="44.5299544" lon="8.1390166"><ele>347.0</ele><time>2026-04-04T12:27:19.574Z</time></trkpt><trkpt lat="44.5297474" lon="8.1390933"><ele>343.0</ele><time>2026-04-04T12:27:20.574Z</time></trkpt><trkpt lat="44.5295393" lon="8.1391584"><ele>339.0</ele><time>2026-04-04T12:27:21.573Z</time></trkpt><trkpt lat="44.5293325" lon="8.1392203"><ele>339.0</ele><time>2026-04-04T12:27:22.573Z</time></trkpt><trkpt lat="44.529111" lon="8.1392971"><ele>339.0</ele><time>2026-04-04T12:27:23.574Z</time></trkpt><trkpt lat="44.5288931" lon="8.1393686"><ele>341.3333333333333</ele><time>2026-04-04T12:27:24.574Z</time></trkpt><trkpt lat="44.5286767" lon="8.1394438"><ele>343.66666666666663</ele><time>2026-04-04T12:27:25.573Z</time></trkpt><trkpt lat="44.5284645" lon="8.1395249"><ele>346.0</ele><time>2026-04-04T12:27:26.572Z</time></trkpt><trkpt lat="44.5282705" lon="8.1395967"><ele>346.0</ele><time>2026-04-04T12:27:27.574Z</time></trkpt><trkpt lat="44.5280861" lon="8.1396654"><ele>346.0</ele><time>2026-04-04T12:27:28.573Z</time></trkpt><trkpt lat="44.5279145" lon="8.1397247"><ele>346.0</ele><time>2026-04-04T12:27:29.573Z</time></trkpt><trkpt lat="44.5277525" lon="8.1397643"><ele>349.66666666666663</ele><time>2026-04-04T12:27:30.574Z</time></trkpt><trkpt lat="44.5275995" lon="8.1397766"><ele>353.3333333333333</ele><time>2026-04-04T12:27:31.574Z</time></trkpt><trkpt lat="44.5274545" lon="8.1397584"><ele>357.0</ele><time>2026-04-04T12:27:32.574Z</time></trkpt><trkpt lat="44.5272992" lon="8.139767"><ele>357.0</ele><time>2026-04-04T12:27:33.574Z</time></trkpt><trkpt lat="44.5271703" lon="8.1398275"><ele>357.0</ele><time>2026-04-04T12:27:34.574Z</time></trkpt><trkpt lat="44.5270435" lon="8.1399627"><ele>357.0</ele><time>2026-04-04T12:27:35.574Z</time></trkpt><trkpt lat="44.5269266" lon="8.1401192"><ele>354.0</ele><time>2026-04-04T12:27:36.574Z</time></trkpt><trkpt lat="44.5268239" lon="8.1402966"><ele>351.0</ele><time>2026-04-04T12:27:37.574Z</time></trkpt><trkpt lat="44.5267" lon="8.1404078"><ele>348.0</ele><time>2026-04-04T12:27:38.574Z</time></trkpt><trkpt lat="44.5265317" lon="8.1404666"><ele>348.0</ele><time>2026-04-04T12:27:39.575Z</time></trkpt><trkpt lat="44.526336" lon="8.1404824"><ele>348.0</ele><time>2026-04-04T12:27:40.574Z</time></trkpt><trkpt lat="44.5261525" lon="8.1404891"><ele>348.0</ele><time>2026-04-04T12:27:41.574Z</time></trkpt><trkpt lat="44.5259544" lon="8.1404674"><ele>350.6666666666667</ele><time>2026-04-04T12:27:42.574Z</time></trkpt><trkpt lat="44.5257811" lon="8.1404514"><ele>353.33333333333337</ele><time>2026-04-04T12:27:43.573Z</time></trkpt><trkpt lat="44.5256191" lon="8.1404313"><ele>356.0</ele><time>2026-04-04T12:27:44.574Z</time></trkpt><trkpt lat="44.5254687" lon="8.1403852"><ele>350.6666666666667</ele><time>2026-04-04T12:27:45.574Z</time></trkpt><trkpt lat="44.5253247" lon="8.1402882"><ele>345.3333333333333</ele><time>2026-04-04T12:27:46.574Z</time></trkpt><trkpt lat="44.5251674" lon="8.1401546"><ele>340.0</ele><time>2026-04-04T12:27:47.575Z</time></trkpt><trkpt lat="44.5250235" lon="8.1399905"><ele>344.66666666666663</ele><time>2026-04-04T12:27:48.574Z</time></trkpt><trkpt lat="44.5248829" lon="8.1397927"><ele>349.3333333333333</ele><time>2026-04-04T12:27:49.574Z</time></trkpt><trkpt lat="44.5247444" lon="8.1396097"><ele>354.0</ele><time>2026-04-04T12:27:50.574Z</time></trkpt><trkpt lat="44.5246378" lon="8.1394335"><ele>348.3333333333333</ele><time>2026-04-04T12:27:51.574Z</time></trkpt><trkpt lat="44.5245425" lon="8.1392291"><ele>342.66666666666663</ele><time>2026-04-04T12:27:52.574Z</time></trkpt><trkpt lat="44.5244611" lon="8.1389868"><ele>337.0</ele><time>2026-04-04T12:27:53.574Z</time></trkpt><trkpt lat="44.5243856" lon="8.138706"><ele>337.0</ele><time>2026-04-04T12:27:54.575Z</time></trkpt><trkpt lat="44.524319" lon="8.1384067"><ele>337.0</ele><time>2026-04-04T12:27:55.574Z</time></trkpt><trkpt lat="44.5242535" lon="8.1381309"><ele>337.0</ele><time>2026-04-04T12:27:56.573Z</time></trkpt><trkpt lat="44.5241901" lon="8.1378843"><ele>341.0</ele><time>2026-04-04T12:27:57.574Z</time></trkpt><trkpt lat="44.5241201" lon="8.1376693"><ele>345.0</ele><time>2026-04-04T12:27:58.575Z</time></trkpt><trkpt lat="44.5240329" lon="8.1374841"><ele>349.0</ele><time>2026-04-04T12:27:59.574Z</time></trkpt><trkpt lat="44.5239059" lon="8.1373109"><ele>349.0</ele><time>2026-04-04T12:28:00.574Z</time></trkpt><trkpt lat="44.5237437" lon="8.1371682"><ele>349.0</ele><time>2026-04-04T12:28:01.574Z</time></trkpt><trkpt lat="44.5235565" lon="8.1370514"><ele>349.0</ele><time>2026-04-04T12:28:02.574Z</time></trkpt><trkpt lat="44.5233508" lon="8.1369129"><ele>349.0</ele><time>2026-04-04T12:28:03.573Z</time></trkpt><trkpt lat="44.5231951" lon="8.1367211"><ele>349.0</ele><time>2026-04-04T12:28:04.573Z</time></trkpt><trkpt lat="44.5230333" lon="8.1365319"><ele>349.0</ele><time>2026-04-04T12:28:05.573Z</time></trkpt><trkpt lat="44.5228807" lon="8.1363498"><ele>347.0</ele><time>2026-04-04T12:28:06.574Z</time></trkpt><trkpt lat="44.5227376" lon="8.1361818"><ele>345.0</ele><time>2026-04-04T12:28:07.574Z</time></trkpt><trkpt lat="44.522601" lon="8.1360188"><ele>343.0</ele><time>2026-04-04T12:28:08.575Z</time></trkpt><trkpt lat="44.5224975" lon="8.1358432"><ele>346.3333333333333</ele><time>2026-04-04T12:28:09.574Z</time></trkpt><trkpt lat="44.5224283" lon="8.1356263"><ele>349.6666666666667</ele><time>2026-04-04T12:28:10.574Z</time></trkpt><trkpt lat="44.5223892" lon="8.1353454"><ele>353.0</ele><time>2026-04-04T12:28:11.574Z</time></trkpt><trkpt lat="44.5223447" lon="8.1350522"><ele>353.6666666666667</ele><time>2026-04-04T12:28:12.575Z</time></trkpt><trkpt lat="44.5223031" lon="8.134775"><ele>354.3333333333333</ele><time>2026-04-04T12:28:13.574Z</time></trkpt><trkpt lat="44.5222524" lon="8.1345115"><ele>355.0</ele><time>2026-04-04T12:28:14.575Z</time></trkpt><trkpt lat="44.5222008" lon="8.1342494"><ele>355.0</ele><time>2026-04-04T12:28:15.574Z</time></trkpt><trkpt lat="44.5221444" lon="8.1339879"><ele>355.0</ele><time>2026-04-04T12:28:16.575Z</time></trkpt><trkpt lat="44.5220995" lon="8.1337282"><ele>355.0</ele><time>2026-04-04T12:28:17.574Z</time></trkpt><trkpt lat="44.5220557" lon="8.1334619"><ele>351.0</ele><time>2026-04-04T12:28:18.575Z</time></trkpt><trkpt lat="44.5220027" lon="8.133207"><ele>347.0</ele><time>2026-04-04T12:28:19.573Z</time></trkpt><trkpt lat="44.5219526" lon="8.1329672"><ele>343.0</ele><time>2026-04-04T12:28:20.575Z</time></trkpt><trkpt lat="44.5219061" lon="8.1327418"><ele>343.0</ele><time>2026-04-04T12:28:21.575Z</time></trkpt><trkpt lat="44.5218537" lon="8.1325315"><ele>343.0</ele><time>2026-04-04T12:28:22.574Z</time></trkpt><trkpt lat="44.5217842" lon="8.1323517"><ele>343.0</ele><time>2026-04-04T12:28:23.575Z</time></trkpt><trkpt lat="44.5216777" lon="8.1321943"><ele>343.66666666666663</ele><time>2026-04-04T12:28:24.575Z</time></trkpt><trkpt lat="44.5215236" lon="8.1320665"><ele>344.3333333333333</ele><time>2026-04-04T12:28:25.575Z</time></trkpt><trkpt lat="44.5213538" lon="8.1319859"><ele>345.0</ele><time>2026-04-04T12:28:26.575Z</time></trkpt><trkpt lat="44.5212028" lon="8.1318896"><ele>345.0</ele><time>2026-04-04T12:28:27.575Z</time></trkpt><trkpt lat="44.521043" lon="8.1317847"><ele>345.0</ele><time>2026-04-04T12:28:28.575Z</time></trkpt><trkpt lat="44.5209286" lon="8.1315723"><ele>345.0</ele><time>2026-04-04T12:28:29.575Z</time></trkpt><trkpt lat="44.5208181" lon="8.1313623"><ele>347.3333333333333</ele><time>2026-04-04T12:28:30.575Z</time></trkpt><trkpt lat="44.5207186" lon="8.1311755"><ele>349.66666666666663</ele><time>2026-04-04T12:28:31.575Z</time></trkpt><trkpt lat="44.5205863" lon="8.1310285"><ele>352.0</ele><time>2026-04-04T12:28:32.575Z</time></trkpt><trkpt lat="44.5204226" lon="8.1309033"><ele>350.66666666666663</ele><time>2026-04-04T12:28:33.575Z</time></trkpt><trkpt lat="44.5202379" lon="8.1308156"><ele>349.3333333333333</ele><time>2026-04-04T12:28:34.575Z</time></trkpt><trkpt lat="44.520031" lon="8.1307639"><ele>348.0</ele><time>2026-04-04T12:28:35.574Z</time></trkpt><trkpt lat="44.5198175" lon="8.130744"><ele>348.0</ele><time>2026-04-04T12:28:36.575Z</time></trkpt><trkpt lat="44.5196011" lon="8.1307475"><ele>348.0</ele><time>2026-04-04T12:28:37.575Z</time></trkpt><trkpt lat="44.5193742" lon="8.1307628"><ele>348.0</ele><time>2026-04-04T12:28:38.575Z</time></trkpt><trkpt lat="44.5191525" lon="8.1307535"><ele>347.3333333333333</ele><time>2026-04-04T12:28:39.575Z</time></trkpt><trkpt lat="44.518935" lon="8.1307305"><ele>346.66666666666663</ele><time>2026-04-04T12:28:40.575Z</time></trkpt><trkpt lat="44.518719" lon="8.1307182"><ele>346.0</ele><time>2026-04-04T12:28:41.575Z</time></trkpt><trkpt lat="44.5185081" lon="8.1307102"><ele>351.3333333333333</ele><time>2026-04-04T12:28:42.574Z</time></trkpt><trkpt lat="44.5182979" lon="8.1307112"><ele>356.6666666666667</ele><time>2026-04-04T12:28:43.575Z</time></trkpt><trkpt lat="44.5180936" lon="8.1307138"><ele>362.0</ele><time>2026-04-04T12:28:44.575Z</time></trkpt><trkpt lat="44.5178981" lon="8.1307219"><ele>357.33333333333337</ele><time>2026-04-04T12:28:45.575Z</time></trkpt><trkpt lat="44.5177204" lon="8.1307404"><ele>352.6666666666667</ele><time>2026-04-04T12:28:46.574Z</time></trkpt><trkpt lat="44.5175428" lon="8.1307596"><ele>348.0</ele><time>2026-04-04T12:28:47.574Z</time></trkpt><trkpt lat="44.5173614" lon="8.1307812"><ele>348.0</ele><time>2026-04-04T12:28:48.575Z</time></trkpt><trkpt lat="44.5171721" lon="8.1308644"><ele>348.0</ele><time>2026-04-04T12:28:49.576Z</time></trkpt><trkpt lat="44.5169776" lon="8.1310077"><ele>348.0</ele><time>2026-04-04T12:28:50.575Z</time></trkpt><trkpt lat="44.5167839" lon="8.1312062"><ele>349.5</ele><time>2026-04-04T12:28:51.575Z</time></trkpt><trkpt lat="44.5166105" lon="8.1314381"><ele>351.0</ele><time>2026-04-04T12:28:52.575Z</time></trkpt><trkpt lat="44.5164416" lon="8.1316661"><ele>351.0</ele><time>2026-04-04T12:28:53.575Z</time></trkpt><trkpt lat="44.5162921" lon="8.1319091"><ele>351.0</ele><time>2026-04-04T12:28:54.576Z</time></trkpt><trkpt lat="44.5161593" lon="8.1321719"><ele>356.5</ele><time>2026-04-04T12:28:55.575Z</time></trkpt><trkpt lat="44.5160325" lon="8.1324604"><ele>362.0</ele><time>2026-04-04T12:28:56.576Z</time></trkpt><trkpt lat="44.5159069" lon="8.1327375"><ele>362.0</ele><time>2026-04-04T12:28:57.574Z</time></trkpt><trkpt lat="44.5157895" lon="8.132998"><ele>362.0</ele><time>2026-04-04T12:28:58.575Z</time></trkpt><trkpt lat="44.5156799" lon="8.1332355"><ele>362.0</ele><time>2026-04-04T12:28:59.575Z</time></trkpt><trkpt lat="44.5155722" lon="8.1334481"><ele>363.33333333333337</ele><time>2026-04-04T12:29:00.575Z</time></trkpt><trkpt lat="44.5154752" lon="8.1336514"><ele>364.6666666666667</ele><time>2026-04-04T12:29:01.574Z</time></trkpt><trkpt lat="44.5153897" lon="8.1338589"><ele>366.0</ele><time>2026-04-04T12:29:02.575Z</time></trkpt><trkpt lat="44.5153203" lon="8.1340727"><ele>366.0</ele><time>2026-04-04T12:29:03.576Z</time></trkpt><trkpt lat="44.5152703" lon="8.13429"><ele>366.0</ele><time>2026-04-04T12:29:04.575Z</time></trkpt><trkpt lat="44.5152223" lon="8.1344985"><ele>366.0</ele><time>2026-04-04T12:29:05.575Z</time></trkpt><trkpt lat="44.5151762" lon="8.1346984"><ele>365.0</ele><time>2026-04-04T12:29:06.575Z</time></trkpt><trkpt lat="44.5151449" lon="8.134891"><ele>364.0</ele><time>2026-04-04T12:29:07.575Z</time></trkpt><trkpt lat="44.5151252" lon="8.1350778"><ele>363.0</ele><time>2026-04-04T12:29:08.575Z</time></trkpt><trkpt lat="44.5151271" lon="8.1352602"><ele>362.0</ele><time>2026-04-04T12:29:09.576Z</time></trkpt><trkpt lat="44.5151516" lon="8.1354169"><ele>362.0</ele><time>2026-04-04T12:29:10.576Z</time></trkpt><trkpt lat="44.5151835" lon="8.1355595"><ele>362.0</ele><time>2026-04-04T12:29:11.575Z</time></trkpt><trkpt lat="44.5151972" lon="8.1356902"><ele>362.0</ele><time>2026-04-04T12:29:12.575Z</time></trkpt><trkpt lat="44.5152004" lon="8.1358063"><ele>362.0</ele><time>2026-04-04T12:29:13.575Z</time></trkpt><trkpt lat="44.5151583" lon="8.1359001"><ele>362.0</ele><time>2026-04-04T12:29:14.575Z</time></trkpt><trkpt lat="44.5151047" lon="8.1359557"><ele>362.0</ele><time>2026-04-04T12:29:15.576Z</time></trkpt><trkpt lat="44.5150243" lon="8.1359887"><ele>362.33333333333337</ele><time>2026-04-04T12:29:16.575Z</time></trkpt><trkpt lat="44.5149613" lon="8.1359796"><ele>362.6666666666667</ele><time>2026-04-04T12:29:17.576Z</time></trkpt><trkpt lat="44.5148641" lon="8.135952"><ele>363.0</ele><time>2026-04-04T12:29:18.576Z</time></trkpt><trkpt lat="44.5145103" lon="8.1358352"><ele>360.5</ele><time>2026-04-04T12:29:21.575Z</time></trkpt><trkpt lat="44.5144297" lon="8.1357706"><ele>358.0</ele><time>2026-04-04T12:29:22.575Z</time></trkpt><trkpt lat="44.5143947" lon="8.1356528"><ele>355.5</ele><time>2026-04-04T12:29:23.575Z</time></trkpt><trkpt lat="44.5143891" lon="8.1354308"><ele>353.0</ele><time>2026-04-04T12:29:24.575Z</time></trkpt><trkpt lat="44.5144136" lon="8.1351949"><ele>352.6666666666667</ele><time>2026-04-04T12:29:25.575Z</time></trkpt><trkpt lat="44.5144025" lon="8.1349676"><ele>352.3333333333333</ele><time>2026-04-04T12:29:26.576Z</time></trkpt><trkpt lat="44.5143673" lon="8.1347435"><ele>352.0</ele><time>2026-04-04T12:29:27.576Z</time></trkpt><trkpt lat="44.5143089" lon="8.1345098"><ele>355.0</ele><time>2026-04-04T12:29:28.576Z</time></trkpt><trkpt lat="44.5142275" lon="8.134257"><ele>358.0</ele><time>2026-04-04T12:29:29.576Z</time></trkpt><trkpt lat="44.5141425" lon="8.13402"><ele>361.0</ele><time>2026-04-04T12:29:30.576Z</time></trkpt><trkpt lat="44.5140555" lon="8.1338005"><ele>365.3333333333333</ele><time>2026-04-04T12:29:31.576Z</time></trkpt><trkpt lat="44.5139716" lon="8.1336073"><ele>369.6666666666667</ele><time>2026-04-04T12:29:32.575Z</time></trkpt><trkpt lat="44.5138862" lon="8.1334271"><ele>374.0</ele><time>2026-04-04T12:29:33.576Z</time></trkpt><trkpt lat="44.5138035" lon="8.1332575"><ele>368.5</ele><time>2026-04-04T12:29:34.576Z</time></trkpt><trkpt lat="44.5137221" lon="8.1330959"><ele>363.0</ele><time>2026-04-04T12:29:35.576Z</time></trkpt><trkpt lat="44.5136417" lon="8.1329414"><ele>357.5</ele><time>2026-04-04T12:29:36.575Z</time></trkpt><trkpt lat="44.5135592" lon="8.1327903"><ele>352.0</ele><time>2026-04-04T12:29:37.576Z</time></trkpt><trkpt lat="44.5134758" lon="8.1326299"><ele>352.0</ele><time>2026-04-04T12:29:38.576Z</time></trkpt><trkpt lat="44.5133989" lon="8.1324521"><ele>352.0</ele><time>2026-04-04T12:29:39.576Z</time></trkpt><trkpt lat="44.5133266" lon="8.1322565"><ele>352.0</ele><time>2026-04-04T12:29:40.576Z</time></trkpt><trkpt lat="44.5132637" lon="8.1320495"><ele>353.66666666666663</ele><time>2026-04-04T12:29:41.576Z</time></trkpt><trkpt lat="44.5132081" lon="8.1318287"><ele>355.3333333333333</ele><time>2026-04-04T12:29:42.575Z</time></trkpt><trkpt lat="44.513147" lon="8.1316036"><ele>357.0</ele><time>2026-04-04T12:29:43.576Z</time></trkpt><trkpt lat="44.5130834" lon="8.1313693"><ele>360.6666666666667</ele><time>2026-04-04T12:29:44.576Z</time></trkpt><trkpt lat="44.5130099" lon="8.1311356"><ele>364.33333333333337</ele><time>2026-04-04T12:29:45.576Z</time></trkpt><trkpt lat="44.5129374" lon="8.1308906"><ele>368.0</ele><time>2026-04-04T12:29:46.576Z</time></trkpt><trkpt lat="44.5128651" lon="8.1306352"><ele>359.6666666666667</ele><time>2026-04-04T12:29:47.576Z</time></trkpt><trkpt lat="44.5128022" lon="8.1303771"><ele>351.3333333333333</ele><time>2026-04-04T12:29:48.576Z</time></trkpt><trkpt lat="44.512751" lon="8.1301034"><ele>343.0</ele><time>2026-04-04T12:29:49.576Z</time></trkpt><trkpt lat="44.5127182" lon="8.1298252"><ele>343.0</ele><time>2026-04-04T12:29:50.576Z</time></trkpt><trkpt lat="44.5126909" lon="8.1295523"><ele>343.0</ele><time>2026-04-04T12:29:51.576Z</time></trkpt><trkpt lat="44.5126606" lon="8.12929"><ele>343.0</ele><time>2026-04-04T12:29:52.575Z</time></trkpt><trkpt lat="44.5126152" lon="8.129031"><ele>346.66666666666663</ele><time>2026-04-04T12:29:53.576Z</time></trkpt><trkpt lat="44.5125531" lon="8.1287728"><ele>350.3333333333333</ele><time>2026-04-04T12:29:54.576Z</time></trkpt><trkpt lat="44.5124735" lon="8.1285244"><ele>354.0</ele><time>2026-04-04T12:29:55.576Z</time></trkpt><trkpt lat="44.512374" lon="8.1282796"><ele>360.0</ele><time>2026-04-04T12:29:56.576Z</time></trkpt><trkpt lat="44.5122781" lon="8.1280353"><ele>366.0</ele><time>2026-04-04T12:29:57.575Z</time></trkpt><trkpt lat="44.5121796" lon="8.1277866"><ele>372.0</ele><time>2026-04-04T12:29:58.576Z</time></trkpt><trkpt lat="44.5120706" lon="8.1275393"><ele>365.0</ele><time>2026-04-04T12:29:59.576Z</time></trkpt><trkpt lat="44.5119499" lon="8.1272811"><ele>358.0</ele><time>2026-04-04T12:30:00.576Z</time></trkpt><trkpt lat="44.5118269" lon="8.1270297"><ele>351.0</ele><time>2026-04-04T12:30:01.577Z</time></trkpt><trkpt lat="44.5117035" lon="8.1268026"><ele>351.0</ele><time>2026-04-04T12:30:02.577Z</time></trkpt><trkpt lat="44.5115875" lon="8.1265844"><ele>351.0</ele><time>2026-04-04T12:30:03.577Z</time></trkpt><trkpt lat="44.5114798" lon="8.1263691"><ele>351.0</ele><time>2026-04-04T12:30:04.577Z</time></trkpt><trkpt lat="44.5113748" lon="8.1261633"><ele>353.6666666666667</ele><time>2026-04-04T12:30:05.577Z</time></trkpt><trkpt lat="44.511276" lon="8.1259774"><ele>356.33333333333337</ele><time>2026-04-04T12:30:06.576Z</time></trkpt><trkpt lat="44.5111835" lon="8.125806"><ele>359.0</ele><time>2026-04-04T12:30:07.576Z</time></trkpt><trkpt lat="44.5111023" lon="8.125652"><ele>359.0</ele><time>2026-04-04T12:30:08.576Z</time></trkpt><trkpt lat="44.5109871" lon="8.1255133"><ele>359.0</ele><time>2026-04-04T12:30:09.576Z</time></trkpt><trkpt lat="44.5108404" lon="8.1254156"><ele>359.0</ele><time>2026-04-04T12:30:10.575Z</time></trkpt><trkpt lat="44.5106745" lon="8.1253838"><ele>359.0</ele><time>2026-04-04T12:30:11.577Z</time></trkpt><trkpt lat="44.5104598" lon="8.1254435"><ele>359.0</ele><time>2026-04-04T12:30:12.576Z</time></trkpt><trkpt lat="44.5102782" lon="8.1254481"><ele>359.0</ele><time>2026-04-04T12:30:13.578Z</time></trkpt><trkpt lat="44.5100982" lon="8.1253755"><ele>356.6666666666667</ele><time>2026-04-04T12:30:14.576Z</time></trkpt><trkpt lat="44.5099285" lon="8.1252327"><ele>354.3333333333333</ele><time>2026-04-04T12:30:15.576Z</time></trkpt><trkpt lat="44.5097529" lon="8.1250214"><ele>352.0</ele><time>2026-04-04T12:30:16.576Z</time></trkpt><trkpt lat="44.5095572" lon="8.1248265"><ele>352.0</ele><time>2026-04-04T12:30:17.576Z</time></trkpt><trkpt lat="44.5093379" lon="8.1246604"><ele>352.0</ele><time>2026-04-04T12:30:18.577Z</time></trkpt><trkpt lat="44.509095" lon="8.1245456"><ele>352.0</ele><time>2026-04-04T12:30:19.576Z</time></trkpt><trkpt lat="44.5088425" lon="8.1244576"><ele>352.0</ele><time>2026-04-04T12:30:20.577Z</time></trkpt><trkpt lat="44.5085819" lon="8.1243645"><ele>351.0</ele><time>2026-04-04T12:30:21.577Z</time></trkpt><trkpt lat="44.5083235" lon="8.124274"><ele>350.0</ele><time>2026-04-04T12:30:22.576Z</time></trkpt><trkpt lat="44.5080745" lon="8.1241771"><ele>346.0</ele><time>2026-04-04T12:30:23.577Z</time></trkpt><trkpt lat="44.5078335" lon="8.1240835"><ele>342.0</ele><time>2026-04-04T12:30:24.576Z</time></trkpt><trkpt lat="44.5075972" lon="8.1239915"><ele>358.5</ele><time>2026-04-04T12:30:25.577Z</time></trkpt><trkpt lat="44.5073595" lon="8.1239106"><ele>375.0</ele><time>2026-04-04T12:30:26.577Z</time></trkpt><trkpt lat="44.5071121" lon="8.1238517"><ele>374.5</ele><time>2026-04-04T12:30:27.577Z</time></trkpt><trkpt lat="44.5068704" lon="8.1237968"><ele>374.0</ele><time>2026-04-04T12:30:28.577Z</time></trkpt><trkpt lat="44.5066301" lon="8.1237465"><ele>374.0</ele><time>2026-04-04T12:30:29.577Z</time></trkpt><trkpt lat="44.5063972" lon="8.1237138"><ele>374.0</ele><time>2026-04-04T12:30:30.577Z</time></trkpt><trkpt lat="44.5061725" lon="8.1236813"><ele>376.0</ele><time>2026-04-04T12:30:31.576Z</time></trkpt><trkpt lat="44.5059572" lon="8.1236362"><ele>378.0</ele><time>2026-04-04T12:30:32.576Z</time></trkpt><trkpt lat="44.505739" lon="8.1236209"><ele>380.0</ele><time>2026-04-04T12:30:33.576Z</time></trkpt><trkpt lat="44.5054985" lon="8.1236163"><ele>382.0</ele><time>2026-04-04T12:30:34.575Z</time></trkpt><trkpt lat="44.5052447" lon="8.1236528"><ele>384.0</ele><time>2026-04-04T12:30:35.577Z</time></trkpt><trkpt lat="44.5049862" lon="8.1237198"><ele>384.0</ele><time>2026-04-04T12:30:36.576Z</time></trkpt><trkpt lat="44.5047353" lon="8.1237744"><ele>384.0</ele><time>2026-04-04T12:30:37.577Z</time></trkpt><trkpt lat="44.5045069" lon="8.1238222"><ele>387.0</ele><time>2026-04-04T12:30:38.577Z</time></trkpt><trkpt lat="44.5042697" lon="8.1238909"><ele>390.0</ele><time>2026-04-04T12:30:39.578Z</time></trkpt><trkpt lat="44.5040446" lon="8.1239785"><ele>383.6666666666667</ele><time>2026-04-04T12:30:40.577Z</time></trkpt><trkpt lat="44.5038302" lon="8.124098"><ele>377.33333333333337</ele><time>2026-04-04T12:30:41.577Z</time></trkpt><trkpt lat="44.5036378" lon="8.1241985"><ele>371.0</ele><time>2026-04-04T12:30:42.577Z</time></trkpt><trkpt lat="44.5034516" lon="8.1242921"><ele>371.0</ele><time>2026-04-04T12:30:43.577Z</time></trkpt><trkpt lat="44.5032751" lon="8.1243623"><ele>371.0</ele><time>2026-04-04T12:30:44.578Z</time></trkpt><trkpt lat="44.5030972" lon="8.1244002"><ele>371.0</ele><time>2026-04-04T12:30:45.577Z</time></trkpt><trkpt lat="44.5029234" lon="8.1244433"><ele>371.25</ele><time>2026-04-04T12:30:46.577Z</time></trkpt><trkpt lat="44.5027667" lon="8.1244818"><ele>371.5</ele><time>2026-04-04T12:30:47.577Z</time></trkpt><trkpt lat="44.5026298" lon="8.1245296"><ele>371.75</ele><time>2026-04-04T12:30:48.576Z</time></trkpt><trkpt lat="44.5024871" lon="8.1245516"><ele>372.0</ele><time>2026-04-04T12:30:49.577Z</time></trkpt><trkpt lat="44.5023714" lon="8.1245028"><ele>372.0</ele><time>2026-04-04T12:30:50.577Z</time></trkpt><trkpt lat="44.5022565" lon="8.1243698"><ele>372.0</ele><time>2026-04-04T12:30:51.577Z</time></trkpt><trkpt lat="44.5021708" lon="8.1241705"><ele>372.0</ele><time>2026-04-04T12:30:52.577Z</time></trkpt><trkpt lat="44.5021333" lon="8.1239879"><ele>374.0</ele><time>2026-04-04T12:30:53.577Z</time></trkpt><trkpt lat="44.5021328" lon="8.1237323"><ele>376.0</ele><time>2026-04-04T12:30:54.577Z</time></trkpt><trkpt lat="44.5022033" lon="8.1235376"><ele>378.0</ele><time>2026-04-04T12:30:55.577Z</time></trkpt><trkpt lat="44.5023158" lon="8.1233188"><ele>372.3333333333333</ele><time>2026-04-04T12:30:56.577Z</time></trkpt><trkpt lat="44.5024335" lon="8.1230762"><ele>366.66666666666663</ele><time>2026-04-04T12:30:57.577Z</time></trkpt><trkpt lat="44.5025447" lon="8.1228447"><ele>361.0</ele><time>2026-04-04T12:30:58.577Z</time></trkpt><trkpt lat="44.5026351" lon="8.1226093"><ele>358.0</ele><time>2026-04-04T12:30:59.577Z</time></trkpt><trkpt lat="44.5026949" lon="8.1223689"><ele>355.0</ele><time>2026-04-04T12:31:00.577Z</time></trkpt><trkpt lat="44.5027166" lon="8.1220986"><ele>352.0</ele><time>2026-04-04T12:31:01.577Z</time></trkpt><trkpt lat="44.502706" lon="8.121815"><ele>352.3333333333333</ele><time>2026-04-04T12:31:02.577Z</time></trkpt><trkpt lat="44.5026901" lon="8.1215147"><ele>352.6666666666667</ele><time>2026-04-04T12:31:03.577Z</time></trkpt><trkpt lat="44.5026601" lon="8.1212425"><ele>353.0</ele><time>2026-04-04T12:31:04.577Z</time></trkpt><trkpt lat="44.5026418" lon="8.1210064"><ele>353.0</ele><time>2026-04-04T12:31:05.578Z</time></trkpt><trkpt lat="44.5025852" lon="8.1207517"><ele>353.0</ele><time>2026-04-04T12:31:06.576Z</time></trkpt><trkpt lat="44.5024872" lon="8.1204814"><ele>353.0</ele><time>2026-04-04T12:31:07.577Z</time></trkpt><trkpt lat="44.502369" lon="8.1202229"><ele>351.0</ele><time>2026-04-04T12:31:08.577Z</time></trkpt><trkpt lat="44.5022533" lon="8.119959"><ele>349.0</ele><time>2026-04-04T12:31:09.577Z</time></trkpt><trkpt lat="44.5021552" lon="8.1197206"><ele>347.0</ele><time>2026-04-04T12:31:10.577Z</time></trkpt><trkpt lat="44.5020559" lon="8.11949"><ele>347.0</ele><time>2026-04-04T12:31:11.577Z</time></trkpt><trkpt lat="44.5019506" lon="8.1192794"><ele>347.0</ele><time>2026-04-04T12:31:12.577Z</time></trkpt><trkpt lat="44.5018285" lon="8.119053"><ele>347.0</ele><time>2026-04-04T12:31:13.576Z</time></trkpt><trkpt lat="44.5016659" lon="8.118866"><ele>351.5</ele><time>2026-04-04T12:31:14.577Z</time></trkpt><trkpt lat="44.5014702" lon="8.1186781"><ele>356.0</ele><time>2026-04-04T12:31:15.577Z</time></trkpt><trkpt lat="44.5012872" lon="8.1185052"><ele>354.6666666666667</ele><time>2026-04-04T12:31:16.578Z</time></trkpt><trkpt lat="44.5011237" lon="8.11834"><ele>353.3333333333333</ele><time>2026-04-04T12:31:17.578Z</time></trkpt><trkpt lat="44.5009859" lon="8.1181767"><ele>352.0</ele><time>2026-04-04T12:31:18.578Z</time></trkpt><trkpt lat="44.5008529" lon="8.1180117"><ele>352.0</ele><time>2026-04-04T12:31:19.576Z</time></trkpt><trkpt lat="44.5007335" lon="8.1178422"><ele>352.0</ele><time>2026-04-04T12:31:20.578Z</time></trkpt><trkpt lat="44.5006341" lon="8.1176473"><ele>352.0</ele><time>2026-04-04T12:31:21.577Z</time></trkpt><trkpt lat="44.500549" lon="8.117449"><ele>351.66666666666663</ele><time>2026-04-04T12:31:22.578Z</time></trkpt><trkpt lat="44.5004487" lon="8.117274"><ele>351.3333333333333</ele><time>2026-04-04T12:31:23.578Z</time></trkpt><trkpt lat="44.5003336" lon="8.1171114"><ele>351.0</ele><time>2026-04-04T12:31:24.577Z</time></trkpt><trkpt lat="44.5001768" lon="8.1169663"><ele>351.0</ele><time>2026-04-04T12:31:25.578Z</time></trkpt><trkpt lat="44.4999973" lon="8.1168703"><ele>351.0</ele><time>2026-04-04T12:31:26.578Z</time></trkpt><trkpt lat="44.4998355" lon="8.1168008"><ele>351.0</ele><time>2026-04-04T12:31:27.578Z</time></trkpt><trkpt lat="44.4996666" lon="8.1167762"><ele>349.6666666666667</ele><time>2026-04-04T12:31:28.577Z</time></trkpt><trkpt lat="44.49951" lon="8.1167281"><ele>348.33333333333337</ele><time>2026-04-04T12:31:29.577Z</time></trkpt><trkpt lat="44.4993634" lon="8.1166495"><ele>347.0</ele><time>2026-04-04T12:31:30.577Z</time></trkpt><trkpt lat="44.4992453" lon="8.1165113"><ele>347.0</ele><time>2026-04-04T12:31:31.577Z</time></trkpt><trkpt lat="44.4991532" lon="8.1163862"><ele>347.0</ele><time>2026-04-04T12:31:32.578Z</time></trkpt><trkpt lat="44.4990669" lon="8.1163167"><ele>347.0</ele><time>2026-04-04T12:31:33.577Z</time></trkpt><trkpt lat="44.4989451" lon="8.1163113"><ele>347.0</ele><time>2026-04-04T12:31:34.578Z</time></trkpt><trkpt lat="44.4988118" lon="8.1163589"><ele>345.33333333333337</ele><time>2026-04-04T12:31:35.577Z</time></trkpt><trkpt lat="44.4986365" lon="8.1164114"><ele>343.6666666666667</ele><time>2026-04-04T12:31:36.578Z</time></trkpt><trkpt lat="44.498437" lon="8.116447"><ele>342.0</ele><time>2026-04-04T12:31:37.578Z</time></trkpt><trkpt lat="44.4981658" lon="8.1164302"><ele>342.0</ele><time>2026-04-04T12:31:38.578Z</time></trkpt><trkpt lat="44.4979193" lon="8.116472"><ele>342.0</ele><time>2026-04-04T12:31:39.578Z</time></trkpt><trkpt lat="44.4976736" lon="8.1165194"><ele>340.5</ele><time>2026-04-04T12:31:40.578Z</time></trkpt><trkpt lat="44.4974315" lon="8.1165838"><ele>339.0</ele><time>2026-04-04T12:31:41.578Z</time></trkpt><trkpt lat="44.4971949" lon="8.1166626"><ele>345.0</ele><time>2026-04-04T12:31:42.578Z</time></trkpt><trkpt lat="44.4969599" lon="8.1167624"><ele>351.0</ele><time>2026-04-04T12:31:43.578Z</time></trkpt><trkpt lat="44.4967296" lon="8.1168835"><ele>351.0</ele><time>2026-04-04T12:31:44.578Z</time></trkpt><trkpt lat="44.496498" lon="8.1170097"><ele>351.0</ele><time>2026-04-04T12:31:45.578Z</time></trkpt><trkpt lat="44.4962664" lon="8.117137"><ele>357.0</ele><time>2026-04-04T12:31:46.578Z</time></trkpt><trkpt lat="44.4960443" lon="8.117256"><ele>363.0</ele><time>2026-04-04T12:31:47.577Z</time></trkpt><trkpt lat="44.4958468" lon="8.1173633"><ele>355.0</ele><time>2026-04-04T12:31:48.578Z</time></trkpt><trkpt lat="44.4956665" lon="8.1174508"><ele>347.0</ele><time>2026-04-04T12:31:49.578Z</time></trkpt><trkpt lat="44.4954965" lon="8.1175376"><ele>339.0</ele><time>2026-04-04T12:31:50.578Z</time></trkpt><trkpt lat="44.4953261" lon="8.117638"><ele>339.0</ele><time>2026-04-04T12:31:51.578Z</time></trkpt><trkpt lat="44.4951263" lon="8.1176917"><ele>339.0</ele><time>2026-04-04T12:31:52.578Z</time></trkpt><trkpt lat="44.4949236" lon="8.1176933"><ele>339.0</ele><time>2026-04-04T12:31:53.579Z</time></trkpt><trkpt lat="44.4947222" lon="8.1176567"><ele>339.0</ele><time>2026-04-04T12:31:54.578Z</time></trkpt><trkpt lat="44.4945173" lon="8.1176083"><ele>339.0</ele><time>2026-04-04T12:31:55.578Z</time></trkpt><trkpt lat="44.4943131" lon="8.1175552"><ele>339.0</ele><time>2026-04-04T12:31:56.579Z</time></trkpt><trkpt lat="44.494107" lon="8.1175164"><ele>339.0</ele><time>2026-04-04T12:31:57.578Z</time></trkpt><trkpt lat="44.4939056" lon="8.1174821"><ele>339.0</ele><time>2026-04-04T12:31:58.578Z</time></trkpt><trkpt lat="44.4937137" lon="8.1174442"><ele>339.0</ele><time>2026-04-04T12:31:59.578Z</time></trkpt><trkpt lat="44.4935228" lon="8.117391"><ele>339.0</ele><time>2026-04-04T12:32:00.578Z</time></trkpt><trkpt lat="44.4933205" lon="8.117316"><ele>339.0</ele><time>2026-04-04T12:32:01.579Z</time></trkpt><trkpt lat="44.4931126" lon="8.117236"><ele>339.0</ele><time>2026-04-04T12:32:02.579Z</time></trkpt><trkpt lat="44.4929097" lon="8.117161"><ele>339.0</ele><time>2026-04-04T12:32:03.579Z</time></trkpt><trkpt lat="44.492728" lon="8.1170896"><ele>339.0</ele><time>2026-04-04T12:32:04.578Z</time></trkpt><trkpt lat="44.4925527" lon="8.1170169"><ele>339.0</ele><time>2026-04-04T12:32:05.578Z</time></trkpt><trkpt lat="44.4923836" lon="8.1169291"><ele>339.0</ele><time>2026-04-04T12:32:06.578Z</time></trkpt><trkpt lat="44.4922115" lon="8.1168555"><ele>339.0</ele><time>2026-04-04T12:32:07.578Z</time></trkpt><trkpt lat="44.4920359" lon="8.1167837"><ele>339.0</ele><time>2026-04-04T12:32:08.578Z</time></trkpt><trkpt lat="44.4918567" lon="8.1167114"><ele>336.3333333333333</ele><time>2026-04-04T12:32:09.577Z</time></trkpt><trkpt lat="44.4916787" lon="8.116641"><ele>333.66666666666663</ele><time>2026-04-04T12:32:10.578Z</time></trkpt><trkpt lat="44.4914993" lon="8.1165678"><ele>331.0</ele><time>2026-04-04T12:32:11.578Z</time></trkpt><trkpt lat="44.4913195" lon="8.116492"><ele>337.0</ele><time>2026-04-04T12:32:12.578Z</time></trkpt><trkpt lat="44.491141" lon="8.1164138"><ele>343.0</ele><time>2026-04-04T12:32:13.579Z</time></trkpt><trkpt lat="44.4909642" lon="8.1163284"><ele>349.0</ele><time>2026-04-04T12:32:14.578Z</time></trkpt><trkpt lat="44.4907782" lon="8.116244"><ele>349.0</ele><time>2026-04-04T12:32:15.579Z</time></trkpt><trkpt lat="44.4905769" lon="8.1161614"><ele>349.0</ele><time>2026-04-04T12:32:16.578Z</time></trkpt><trkpt lat="44.4903828" lon="8.1160859"><ele>349.0</ele><time>2026-04-04T12:32:17.578Z</time></trkpt><trkpt lat="44.4874253" lon="8.1162273"><ele>348.3333333333333</ele><time>2026-04-04T12:32:32.578Z</time></trkpt><trkpt lat="44.487226" lon="8.1162795"><ele>347.6666666666667</ele><time>2026-04-04T12:32:33.578Z</time></trkpt><trkpt lat="44.4870342" lon="8.1163326"><ele>347.0</ele><time>2026-04-04T12:32:34.579Z</time></trkpt><trkpt lat="44.486835" lon="8.1163829"><ele>347.0</ele><time>2026-04-04T12:32:35.579Z</time></trkpt><trkpt lat="44.486636" lon="8.1164627"><ele>347.0</ele><time>2026-04-04T12:32:36.579Z</time></trkpt><trkpt lat="44.4864309" lon="8.1165195"><ele>347.0</ele><time>2026-04-04T12:32:37.578Z</time></trkpt><trkpt lat="44.4862349" lon="8.1165811"><ele>347.0</ele><time>2026-04-04T12:32:38.579Z</time></trkpt><trkpt lat="44.4860271" lon="8.1166375"><ele>347.0</ele><time>2026-04-04T12:32:39.579Z</time></trkpt><trkpt lat="44.4858178" lon="8.116701"><ele>347.0</ele><time>2026-04-04T12:32:40.579Z</time></trkpt><trkpt lat="44.4855895" lon="8.1167664"><ele>347.0</ele><time>2026-04-04T12:32:41.578Z</time></trkpt><trkpt lat="44.4853386" lon="8.116838"><ele>347.0</ele><time>2026-04-04T12:32:42.578Z</time></trkpt><trkpt lat="44.4850867" lon="8.1169064"><ele>347.0</ele><time>2026-04-04T12:32:43.579Z</time></trkpt><trkpt lat="44.4848469" lon="8.1169739"><ele>347.0</ele><time>2026-04-04T12:32:44.579Z</time></trkpt><trkpt lat="44.484643" lon="8.117028"><ele>347.33333333333337</ele><time>2026-04-04T12:32:45.579Z</time></trkpt><trkpt lat="44.4844502" lon="8.117084"><ele>347.6666666666667</ele><time>2026-04-04T12:32:46.579Z</time></trkpt><trkpt lat="44.484245" lon="8.1171217"><ele>348.0</ele><time>2026-04-04T12:32:47.579Z</time></trkpt><trkpt lat="44.4840547" lon="8.1171379"><ele>348.0</ele><time>2026-04-04T12:32:48.579Z</time></trkpt><trkpt lat="44.4838787" lon="8.1171347"><ele>348.0</ele><time>2026-04-04T12:32:49.578Z</time></trkpt><trkpt lat="44.483712" lon="8.1171075"><ele>348.0</ele><time>2026-04-04T12:32:50.579Z</time></trkpt><trkpt lat="44.4835436" lon="8.1170527"><ele>349.3333333333333</ele><time>2026-04-04T12:32:51.579Z</time></trkpt><trkpt lat="44.4833681" lon="8.117003"><ele>350.66666666666663</ele><time>2026-04-04T12:32:52.579Z</time></trkpt><trkpt lat="44.4831878" lon="8.1169397"><ele>352.0</ele><time>2026-04-04T12:32:53.579Z</time></trkpt><trkpt lat="44.4830124" lon="8.1168633"><ele>352.0</ele><time>2026-04-04T12:32:54.579Z</time></trkpt><trkpt lat="44.4828459" lon="8.1167641"><ele>352.0</ele><time>2026-04-04T12:32:55.579Z</time></trkpt><trkpt lat="44.4826904" lon="8.1166407"><ele>352.0</ele><time>2026-04-04T12:32:56.579Z</time></trkpt><trkpt lat="44.4825458" lon="8.1164885"><ele>352.0</ele><time>2026-04-04T12:32:57.579Z</time></trkpt><trkpt lat="44.482407" lon="8.1163084"><ele>352.0</ele><time>2026-04-04T12:32:58.578Z</time></trkpt><trkpt lat="44.4822769" lon="8.1161215"><ele>352.0</ele><time>2026-04-04T12:32:59.579Z</time></trkpt><trkpt lat="44.4821488" lon="8.1159365"><ele>352.0</ele><time>2026-04-04T12:33:00.579Z</time></trkpt><trkpt lat="44.4820115" lon="8.1157503"><ele>352.0</ele><time>2026-04-04T12:33:01.579Z</time></trkpt><trkpt lat="44.4818864" lon="8.1155845"><ele>352.0</ele><time>2026-04-04T12:33:02.578Z</time></trkpt><trkpt lat="44.4817707" lon="8.1154307"><ele>352.0</ele><time>2026-04-04T12:33:03.579Z</time></trkpt><trkpt lat="44.4816521" lon="8.1152788"><ele>352.0</ele><time>2026-04-04T12:33:04.579Z</time></trkpt><trkpt lat="44.4815219" lon="8.1151326"><ele>352.0</ele><time>2026-04-04T12:33:05.579Z</time></trkpt><trkpt lat="44.4813673" lon="8.1149904"><ele>350.3333333333333</ele><time>2026-04-04T12:33:06.579Z</time></trkpt><trkpt lat="44.4811948" lon="8.1148743"><ele>348.6666666666667</ele><time>2026-04-04T12:33:07.579Z</time></trkpt><trkpt lat="44.4810112" lon="8.1147769"><ele>347.0</ele><time>2026-04-04T12:33:08.579Z</time></trkpt><trkpt lat="44.4808242" lon="8.1147058"><ele>347.0</ele><time>2026-04-04T12:33:09.578Z</time></trkpt><trkpt lat="44.4806353" lon="8.1146428"><ele>347.0</ele><time>2026-04-04T12:33:10.579Z</time></trkpt><trkpt lat="44.4804505" lon="8.1145815"><ele>347.0</ele><time>2026-04-04T12:33:11.579Z</time></trkpt><trkpt lat="44.4802719" lon="8.1145092"><ele>349.6666666666667</ele><time>2026-04-04T12:33:12.579Z</time></trkpt><trkpt lat="44.4801026" lon="8.1144217"><ele>352.3333333333333</ele><time>2026-04-04T12:33:13.579Z</time></trkpt><trkpt lat="44.4799446" lon="8.1143177"><ele>355.0</ele><time>2026-04-04T12:33:14.58Z</time></trkpt><trkpt lat="44.4797994" lon="8.1142077"><ele>355.0</ele><time>2026-04-04T12:33:15.58Z</time></trkpt><trkpt lat="44.4796572" lon="8.1140932"><ele>355.0</ele><time>2026-04-04T12:33:16.58Z</time></trkpt><trkpt lat="44.4795129" lon="8.1139706"><ele>355.0</ele><time>2026-04-04T12:33:17.58Z</time></trkpt><trkpt lat="44.4793718" lon="8.1138233"><ele>355.66666666666663</ele><time>2026-04-04T12:33:18.58Z</time></trkpt><trkpt lat="44.4792469" lon="8.1136633"><ele>356.3333333333333</ele><time>2026-04-04T12:33:19.58Z</time></trkpt><trkpt lat="44.4791415" lon="8.1134866"><ele>357.0</ele><time>2026-04-04T12:33:20.579Z</time></trkpt><trkpt lat="44.479042" lon="8.1133283"><ele>355.0</ele><time>2026-04-04T12:33:21.579Z</time></trkpt><trkpt lat="44.4789502" lon="8.1132289"><ele>353.0</ele><time>2026-04-04T12:33:22.58Z</time></trkpt><trkpt lat="44.4788319" lon="8.1131707"><ele>351.0</ele><time>2026-04-04T12:33:23.578Z</time></trkpt><trkpt lat="44.4786789" lon="8.1131766"><ele>349.0</ele><time>2026-04-04T12:33:24.579Z</time></trkpt><trkpt lat="44.4785133" lon="8.1132302"><ele>351.3333333333333</ele><time>2026-04-04T12:33:25.579Z</time></trkpt><trkpt lat="44.4783606" lon="8.1133261"><ele>353.6666666666667</ele><time>2026-04-04T12:33:26.58Z</time></trkpt><trkpt lat="44.4782196" lon="8.1134544"><ele>356.0</ele><time>2026-04-04T12:33:27.579Z</time></trkpt><trkpt lat="44.478079" lon="8.1136502"><ele>355.6666666666667</ele><time>2026-04-04T12:33:28.58Z</time></trkpt><trkpt lat="44.477929" lon="8.1138193"><ele>355.3333333333333</ele><time>2026-04-04T12:33:29.579Z</time></trkpt><trkpt lat="44.4777529" lon="8.1139828"><ele>355.0</ele><time>2026-04-04T12:33:30.579Z</time></trkpt><trkpt lat="44.4775496" lon="8.1141351"><ele>355.0</ele><time>2026-04-04T12:33:31.581Z</time></trkpt><trkpt lat="44.4773564" lon="8.114316"><ele>355.0</ele><time>2026-04-04T12:33:32.579Z</time></trkpt><trkpt lat="44.4771435" lon="8.114532"><ele>358.0</ele><time>2026-04-04T12:33:33.579Z</time></trkpt><trkpt lat="44.4769146" lon="8.114778"><ele>361.0</ele><time>2026-04-04T12:33:34.579Z</time></trkpt><trkpt lat="44.4766865" lon="8.1150185"><ele>361.0</ele><time>2026-04-04T12:33:35.58Z</time></trkpt><trkpt lat="44.4765039" lon="8.1152276"><ele>361.0</ele><time>2026-04-04T12:33:36.579Z</time></trkpt><trkpt lat="44.4763363" lon="8.1153964"><ele>361.0</ele><time>2026-04-04T12:33:37.579Z</time></trkpt><trkpt lat="44.4761614" lon="8.1155594"><ele>361.0</ele><time>2026-04-04T12:33:38.579Z</time></trkpt><trkpt lat="44.4759657" lon="8.1157437"><ele>361.0</ele><time>2026-04-04T12:33:39.579Z</time></trkpt><trkpt lat="44.4757711" lon="8.1159049"><ele>361.0</ele><time>2026-04-04T12:33:40.579Z</time></trkpt><trkpt lat="44.4755905" lon="8.1161071"><ele>361.0</ele><time>2026-04-04T12:33:41.58Z</time></trkpt><trkpt lat="44.4754176" lon="8.1163177"><ele>360.5</ele><time>2026-04-04T12:33:42.58Z</time></trkpt><trkpt lat="44.4752539" lon="8.1165354"><ele>360.0</ele><time>2026-04-04T12:33:43.58Z</time></trkpt><trkpt lat="44.4750841" lon="8.1167497"><ele>360.0</ele><time>2026-04-04T12:33:44.58Z</time></trkpt><trkpt lat="44.4749103" lon="8.1169541"><ele>360.0</ele><time>2026-04-04T12:33:45.58Z</time></trkpt><trkpt lat="44.4747262" lon="8.1171423"><ele>360.0</ele><time>2026-04-04T12:33:46.58Z</time></trkpt><trkpt lat="44.4745336" lon="8.1173207"><ele>360.0</ele><time>2026-04-04T12:33:47.58Z</time></trkpt><trkpt lat="44.4743328" lon="8.1174779"><ele>360.0</ele><time>2026-04-04T12:33:48.58Z</time></trkpt><trkpt lat="44.4741289" lon="8.1176102"><ele>360.0</ele><time>2026-04-04T12:33:49.58Z</time></trkpt><trkpt lat="44.4739252" lon="8.1177371"><ele>360.0</ele><time>2026-04-04T12:33:50.58Z</time></trkpt><trkpt lat="44.4737295" lon="8.117858"><ele>356.0</ele><time>2026-04-04T12:33:51.58Z</time></trkpt><trkpt lat="44.4735411" lon="8.1179806"><ele>352.0</ele><time>2026-04-04T12:33:52.58Z</time></trkpt><trkpt lat="44.4733573" lon="8.1181038"><ele>348.0</ele><time>2026-04-04T12:33:53.58Z</time></trkpt><trkpt lat="44.4731675" lon="8.1182202"><ele>352.3333333333333</ele><time>2026-04-04T12:33:54.58Z</time></trkpt><trkpt lat="44.4729783" lon="8.1183233"><ele>356.66666666666663</ele><time>2026-04-04T12:33:55.579Z</time></trkpt><trkpt lat="44.472786" lon="8.1184271"><ele>361.0</ele><time>2026-04-04T12:33:56.58Z</time></trkpt><trkpt lat="44.472594" lon="8.1185215"><ele>361.0</ele><time>2026-04-04T12:33:57.58Z</time></trkpt><trkpt lat="44.4724069" lon="8.1185765"><ele>361.0</ele><time>2026-04-04T12:33:58.581Z</time></trkpt><trkpt lat="44.4722128" lon="8.1185474"><ele>361.0</ele><time>2026-04-04T12:33:59.58Z</time></trkpt><trkpt lat="44.4720353" lon="8.1185248"><ele>363.0</ele><time>2026-04-04T12:34:00.58Z</time></trkpt><trkpt lat="44.4718384" lon="8.1184603"><ele>365.0</ele><time>2026-04-04T12:34:01.58Z</time></trkpt><trkpt lat="44.4716419" lon="8.1183738"><ele>367.0</ele><time>2026-04-04T12:34:02.58Z</time></trkpt><trkpt lat="44.4714547" lon="8.1182311"><ele>362.3333333333333</ele><time>2026-04-04T12:34:03.58Z</time></trkpt><trkpt lat="44.4712972" lon="8.118102"><ele>357.6666666666667</ele><time>2026-04-04T12:34:04.58Z</time></trkpt><trkpt lat="44.4711389" lon="8.1179691"><ele>353.0</ele><time>2026-04-04T12:34:05.58Z</time></trkpt><trkpt lat="44.4709735" lon="8.1178464"><ele>353.0</ele><time>2026-04-04T12:34:06.579Z</time></trkpt><trkpt lat="44.4707829" lon="8.1177663"><ele>353.0</ele><time>2026-04-04T12:34:07.58Z</time></trkpt><trkpt lat="44.4705609" lon="8.1177558"><ele>353.0</ele><time>2026-04-04T12:34:08.581Z</time></trkpt><trkpt lat="44.4703591" lon="8.1177372"><ele>356.33333333333337</ele><time>2026-04-04T12:34:09.58Z</time></trkpt><trkpt lat="44.4701727" lon="8.1177038"><ele>359.6666666666667</ele><time>2026-04-04T12:34:10.58Z</time></trkpt><trkpt lat="44.4699936" lon="8.1176482"><ele>363.0</ele><time>2026-04-04T12:34:11.581Z</time></trkpt><trkpt lat="44.4698103" lon="8.1175623"><ele>363.0</ele><time>2026-04-04T12:34:12.581Z</time></trkpt><trkpt lat="44.4696411" lon="8.1174563"><ele>363.0</ele><time>2026-04-04T12:34:13.58Z</time></trkpt><trkpt lat="44.469479" lon="8.1173323"><ele>363.0</ele><time>2026-04-04T12:34:14.581Z</time></trkpt><trkpt lat="44.4693235" lon="8.1172102"><ele>360.0</ele><time>2026-04-04T12:34:15.58Z</time></trkpt><trkpt lat="44.4691656" lon="8.1170955"><ele>357.0</ele><time>2026-04-04T12:34:16.579Z</time></trkpt><trkpt lat="44.469008" lon="8.1170057"><ele>354.0</ele><time>2026-04-04T12:34:17.58Z</time></trkpt><trkpt lat="44.4688304" lon="8.1169536"><ele>356.6666666666667</ele><time>2026-04-04T12:34:18.58Z</time></trkpt><trkpt lat="44.4686663" lon="8.1168966"><ele>359.33333333333337</ele><time>2026-04-04T12:34:19.58Z</time></trkpt><trkpt lat="44.4685089" lon="8.1168295"><ele>362.0</ele><time>2026-04-04T12:34:20.579Z</time></trkpt><trkpt lat="44.4683602" lon="8.1167614"><ele>362.0</ele><time>2026-04-04T12:34:21.58Z</time></trkpt><trkpt lat="44.4682169" lon="8.1166907"><ele>362.0</ele><time>2026-04-04T12:34:22.58Z</time></trkpt><trkpt lat="44.4680831" lon="8.1166185"><ele>362.0</ele><time>2026-04-04T12:34:23.581Z</time></trkpt><trkpt lat="44.4679557" lon="8.116547"><ele>362.0</ele><time>2026-04-04T12:34:24.58Z</time></trkpt><trkpt lat="44.4678349" lon="8.1164855"><ele>359.25</ele><time>2026-04-04T12:34:25.58Z</time></trkpt><trkpt lat="44.4677208" lon="8.1164274"><ele>356.5</ele><time>2026-04-04T12:34:26.581Z</time></trkpt><trkpt lat="44.467613" lon="8.1163767"><ele>353.75</ele><time>2026-04-04T12:34:27.581Z</time></trkpt><trkpt lat="44.4675062" lon="8.116315"><ele>351.0</ele><time>2026-04-04T12:34:28.581Z</time></trkpt><trkpt lat="44.4674082" lon="8.1162584"><ele>351.0</ele><time>2026-04-04T12:34:29.581Z</time></trkpt><trkpt lat="44.4673031" lon="8.1162026"><ele>351.0</ele><time>2026-04-04T12:34:30.581Z</time></trkpt><trkpt lat="44.4671804" lon="8.1161389"><ele>351.0</ele><time>2026-04-04T12:34:31.581Z</time></trkpt><trkpt lat="44.467038" lon="8.1160571"><ele>351.0</ele><time>2026-04-04T12:34:32.581Z</time></trkpt><trkpt lat="44.4668736" lon="8.115992"><ele>350.3333333333333</ele><time>2026-04-04T12:34:33.581Z</time></trkpt><trkpt lat="44.4667027" lon="8.115904"><ele>349.66666666666663</ele><time>2026-04-04T12:34:34.58Z</time></trkpt><trkpt lat="44.4665197" lon="8.1157839"><ele>349.0</ele><time>2026-04-04T12:34:35.581Z</time></trkpt><trkpt lat="44.4663197" lon="8.1156519"><ele>352.3333333333333</ele><time>2026-04-04T12:34:36.581Z</time></trkpt><trkpt lat="44.466141" lon="8.1155487"><ele>355.6666666666667</ele><time>2026-04-04T12:34:37.58Z</time></trkpt><trkpt lat="44.4659764" lon="8.1154589"><ele>359.0</ele><time>2026-04-04T12:34:38.58Z</time></trkpt><trkpt lat="44.4658212" lon="8.1153752"><ele>359.0</ele><time>2026-04-04T12:34:39.58Z</time></trkpt><trkpt lat="44.4656718" lon="8.1152814"><ele>359.0</ele><time>2026-04-04T12:34:40.581Z</time></trkpt><trkpt lat="44.4655164" lon="8.1151899"><ele>359.0</ele><time>2026-04-04T12:34:41.581Z</time></trkpt><trkpt lat="44.4653478" lon="8.1151069"><ele>359.6666666666667</ele><time>2026-04-04T12:34:42.58Z</time></trkpt><trkpt lat="44.4651962" lon="8.1150146"><ele>360.3333333333333</ele><time>2026-04-04T12:34:43.58Z</time></trkpt><trkpt lat="44.4650639" lon="8.1149042"><ele>361.0</ele><time>2026-04-04T12:34:44.58Z</time></trkpt><trkpt lat="44.4649183" lon="8.1148142"><ele>357.3333333333333</ele><time>2026-04-04T12:34:45.581Z</time></trkpt><trkpt lat="44.4647719" lon="8.1147339"><ele>353.6666666666667</ele><time>2026-04-04T12:34:46.581Z</time></trkpt><trkpt lat="44.4646044" lon="8.1146934"><ele>350.0</ele><time>2026-04-04T12:34:47.581Z</time></trkpt><trkpt lat="44.4644336" lon="8.1146708"><ele>350.0</ele><time>2026-04-04T12:34:48.581Z</time></trkpt><trkpt lat="44.4642631" lon="8.1147161"><ele>350.0</ele><time>2026-04-04T12:34:49.581Z</time></trkpt><trkpt lat="44.4640912" lon="8.1148159"><ele>350.0</ele><time>2026-04-04T12:34:50.58Z</time></trkpt><trkpt lat="44.4639318" lon="8.1149466"><ele>350.0</ele><time>2026-04-04T12:34:51.581Z</time></trkpt><trkpt lat="44.46381" lon="8.1151404"><ele>350.0</ele><time>2026-04-04T12:34:52.581Z</time></trkpt><trkpt lat="44.4637014" lon="8.1153676"><ele>350.0</ele><time>2026-04-04T12:34:53.581Z</time></trkpt><trkpt lat="44.4636048" lon="8.1156077"><ele>351.0</ele><time>2026-04-04T12:34:54.581Z</time></trkpt><trkpt lat="44.4635473" lon="8.1159064"><ele>352.0</ele><time>2026-04-04T12:34:55.581Z</time></trkpt><trkpt lat="44.4634852" lon="8.1162298"><ele>352.0</ele><time>2026-04-04T12:34:56.581Z</time></trkpt><trkpt lat="44.4634177" lon="8.1165511"><ele>352.0</ele><time>2026-04-04T12:34:57.581Z</time></trkpt><trkpt lat="44.4633525" lon="8.11686"><ele>352.3333333333333</ele><time>2026-04-04T12:34:58.581Z</time></trkpt><trkpt lat="44.4632889" lon="8.1171451"><ele>352.6666666666667</ele><time>2026-04-04T12:34:59.581Z</time></trkpt><trkpt lat="44.4632189" lon="8.1174185"><ele>353.0</ele><time>2026-04-04T12:35:00.58Z</time></trkpt><trkpt lat="44.4631595" lon="8.1176775"><ele>353.33333333333337</ele><time>2026-04-04T12:35:01.58Z</time></trkpt><trkpt lat="44.4631064" lon="8.1179243"><ele>353.6666666666667</ele><time>2026-04-04T12:35:02.58Z</time></trkpt><trkpt lat="44.4630526" lon="8.1181586"><ele>354.0</ele><time>2026-04-04T12:35:03.581Z</time></trkpt><trkpt lat="44.4630016" lon="8.1183919"><ele>353.0</ele><time>2026-04-04T12:35:04.58Z</time></trkpt><trkpt lat="44.4629441" lon="8.1186277"><ele>352.0</ele><time>2026-04-04T12:35:05.581Z</time></trkpt><trkpt lat="44.4628897" lon="8.1188667"><ele>351.0</ele><time>2026-04-04T12:35:06.581Z</time></trkpt><trkpt lat="44.4628364" lon="8.1191048"><ele>351.0</ele><time>2026-04-04T12:35:07.581Z</time></trkpt><trkpt lat="44.4627819" lon="8.1193449"><ele>351.0</ele><time>2026-04-04T12:35:08.581Z</time></trkpt><trkpt lat="44.4627251" lon="8.1195887"><ele>351.0</ele><time>2026-04-04T12:35:09.581Z</time></trkpt><trkpt lat="44.4626709" lon="8.1198335"><ele>351.0</ele><time>2026-04-04T12:35:10.581Z</time></trkpt><trkpt lat="44.4626192" lon="8.1200718"><ele>351.0</ele><time>2026-04-04T12:35:11.581Z</time></trkpt><trkpt lat="44.4625687" lon="8.1203067"><ele>351.0</ele><time>2026-04-04T12:35:12.581Z</time></trkpt><trkpt lat="44.4625214" lon="8.1205355"><ele>352.3333333333333</ele><time>2026-04-04T12:35:13.581Z</time></trkpt><trkpt lat="44.46248" lon="8.1207625"><ele>353.66666666666663</ele><time>2026-04-04T12:35:14.581Z</time></trkpt><trkpt lat="44.4624313" lon="8.1209855"><ele>355.0</ele><time>2026-04-04T12:35:15.581Z</time></trkpt><trkpt lat="44.4623802" lon="8.1212098"><ele>355.0</ele><time>2026-04-04T12:35:16.581Z</time></trkpt><trkpt lat="44.4623307" lon="8.1214322"><ele>355.0</ele><time>2026-04-04T12:35:17.581Z</time></trkpt><trkpt lat="44.4622818" lon="8.1216529"><ele>355.0</ele><time>2026-04-04T12:35:18.581Z</time></trkpt><trkpt lat="44.4622321" lon="8.1218799"><ele>355.3333333333333</ele><time>2026-04-04T12:35:19.581Z</time></trkpt><trkpt lat="44.4621814" lon="8.1221082"><ele>355.6666666666667</ele><time>2026-04-04T12:35:20.582Z</time></trkpt><trkpt lat="44.4621312" lon="8.1223205"><ele>356.0</ele><time>2026-04-04T12:35:21.58Z</time></trkpt><trkpt lat="44.4620865" lon="8.122512"><ele>354.5</ele><time>2026-04-04T12:35:22.58Z</time></trkpt><trkpt lat="44.4620479" lon="8.1226839"><ele>353.0</ele><time>2026-04-04T12:35:23.58Z</time></trkpt><trkpt lat="44.4620142" lon="8.122841"><ele>351.5</ele><time>2026-04-04T12:35:24.581Z</time></trkpt><trkpt lat="44.4619864" lon="8.1229893"><ele>350.0</ele><time>2026-04-04T12:35:25.58Z</time></trkpt><trkpt lat="44.4619673" lon="8.12313"><ele>350.8</ele><time>2026-04-04T12:35:26.582Z</time></trkpt><trkpt lat="44.461955" lon="8.123263"><ele>351.6</ele><time>2026-04-04T12:35:27.582Z</time></trkpt><trkpt lat="44.4619499" lon="8.1233859"><ele>352.4</ele><time>2026-04-04T12:35:28.582Z</time></trkpt><trkpt lat="44.4619463" lon="8.1234941"><ele>353.2</ele><time>2026-04-04T12:35:29.581Z</time></trkpt><trkpt lat="44.4619362" lon="8.1236666"><ele>354.0</ele><time>2026-04-04T12:35:31.581Z</time></trkpt><trkpt lat="44.4618933" lon="8.1238681"><ele>354.0</ele><time>2026-04-04T12:35:33.582Z</time></trkpt><trkpt lat="44.4618707" lon="8.124029"><ele>354.0</ele><time>2026-04-04T12:35:34.582Z</time></trkpt><trkpt lat="44.4618695" lon="8.1242249"><ele>354.0</ele><time>2026-04-04T12:35:35.581Z</time></trkpt><trkpt lat="44.4618756" lon="8.1244512"><ele>354.0</ele><time>2026-04-04T12:35:36.582Z</time></trkpt><trkpt lat="44.4618807" lon="8.1246924"><ele>355.3333333333333</ele><time>2026-04-04T12:35:37.582Z</time></trkpt><trkpt lat="44.4618864" lon="8.1249497"><ele>356.66666666666663</ele><time>2026-04-04T12:35:38.58Z</time></trkpt><trkpt lat="44.461901" lon="8.1252301"><ele>358.0</ele><time>2026-04-04T12:35:39.582Z</time></trkpt><trkpt lat="44.4618952" lon="8.1255245"><ele>359.3333333333333</ele><time>2026-04-04T12:35:40.582Z</time></trkpt><trkpt lat="44.4618829" lon="8.1258358"><ele>360.6666666666667</ele><time>2026-04-04T12:35:41.582Z</time></trkpt><trkpt lat="44.4618688" lon="8.1261364"><ele>362.0</ele><time>2026-04-04T12:35:42.582Z</time></trkpt><trkpt lat="44.4618486" lon="8.1264009"><ele>362.6666666666667</ele><time>2026-04-04T12:35:43.582Z</time></trkpt><trkpt lat="44.4618262" lon="8.1266471"><ele>363.3333333333333</ele><time>2026-04-04T12:35:44.582Z</time></trkpt><trkpt lat="44.4617681" lon="8.1268848"><ele>364.0</ele><time>2026-04-04T12:35:45.581Z</time></trkpt><trkpt lat="44.4616637" lon="8.1271088"><ele>364.0</ele><time>2026-04-04T12:35:46.582Z</time></trkpt><trkpt lat="44.4615093" lon="8.1273508"><ele>364.0</ele><time>2026-04-04T12:35:47.582Z</time></trkpt><trkpt lat="44.4613402" lon="8.1275586"><ele>361.0</ele><time>2026-04-04T12:35:48.582Z</time></trkpt><trkpt lat="44.4611623" lon="8.1277472"><ele>358.0</ele><time>2026-04-04T12:35:49.582Z</time></trkpt><trkpt lat="44.4610023" lon="8.1279416"><ele>355.0</ele><time>2026-04-04T12:35:50.582Z</time></trkpt><trkpt lat="44.4608556" lon="8.1281106"><ele>359.3333333333333</ele><time>2026-04-04T12:35:51.582Z</time></trkpt><trkpt lat="44.4607155" lon="8.1282445"><ele>363.6666666666667</ele><time>2026-04-04T12:35:52.582Z</time></trkpt><trkpt lat="44.4605637" lon="8.1283458"><ele>368.0</ele><time>2026-04-04T12:35:53.581Z</time></trkpt><trkpt lat="44.4604036" lon="8.1284561"><ele>368.0</ele><time>2026-04-04T12:35:54.582Z</time></trkpt><trkpt lat="44.460238" lon="8.1285273"><ele>368.0</ele><time>2026-04-04T12:35:55.581Z</time></trkpt><trkpt lat="44.460074" lon="8.1285907"><ele>368.0</ele><time>2026-04-04T12:35:56.582Z</time></trkpt><trkpt lat="44.4599248" lon="8.128646"><ele>368.0</ele><time>2026-04-04T12:35:57.582Z</time></trkpt><trkpt lat="44.4597946" lon="8.1287"><ele>368.0</ele><time>2026-04-04T12:35:58.582Z</time></trkpt><trkpt lat="44.459657" lon="8.128742"><ele>368.0</ele><time>2026-04-04T12:35:59.582Z</time></trkpt><trkpt lat="44.4595187" lon="8.1287539"><ele>368.0</ele><time>2026-04-04T12:36:00.582Z</time></trkpt><trkpt lat="44.4593556" lon="8.1287243"><ele>368.5</ele><time>2026-04-04T12:36:01.582Z</time></trkpt><trkpt lat="44.4592209" lon="8.1286964"><ele>369.0</ele><time>2026-04-04T12:36:02.582Z</time></trkpt><trkpt lat="44.4591061" lon="8.1286295"><ele>369.5</ele><time>2026-04-04T12:36:03.582Z</time></trkpt><trkpt lat="44.4589899" lon="8.1285416"><ele>370.0</ele><time>2026-04-04T12:36:04.582Z</time></trkpt><trkpt lat="44.4588434" lon="8.1284577"><ele>365.66666666666663</ele><time>2026-04-04T12:36:05.582Z</time></trkpt><trkpt lat="44.4586921" lon="8.1283509"><ele>361.3333333333333</ele><time>2026-04-04T12:36:06.581Z</time></trkpt><trkpt lat="44.4585287" lon="8.1282597"><ele>357.0</ele><time>2026-04-04T12:36:07.582Z</time></trkpt><trkpt lat="44.4583668" lon="8.1281854"><ele>357.0</ele><time>2026-04-04T12:36:08.582Z</time></trkpt><trkpt lat="44.4582069" lon="8.1281389"><ele>357.0</ele><time>2026-04-04T12:36:09.581Z</time></trkpt><trkpt lat="44.4580617" lon="8.1281108"><ele>357.0</ele><time>2026-04-04T12:36:10.582Z</time></trkpt><trkpt lat="44.4579075" lon="8.1280951"><ele>356.0</ele><time>2026-04-04T12:36:11.582Z</time></trkpt><trkpt lat="44.4577498" lon="8.1280831"><ele>355.0</ele><time>2026-04-04T12:36:12.582Z</time></trkpt><trkpt lat="44.4576003" lon="8.1281178"><ele>354.0</ele><time>2026-04-04T12:36:13.582Z</time></trkpt><trkpt lat="44.4574529" lon="8.128199"><ele>359.3333333333333</ele><time>2026-04-04T12:36:14.582Z</time></trkpt><trkpt lat="44.4573104" lon="8.1283221"><ele>364.66666666666663</ele><time>2026-04-04T12:36:15.582Z</time></trkpt><trkpt lat="44.4571817" lon="8.1284428"><ele>370.0</ele><time>2026-04-04T12:36:16.583Z</time></trkpt><trkpt lat="44.4570546" lon="8.1285449"><ele>370.0</ele><time>2026-04-04T12:36:17.582Z</time></trkpt><trkpt lat="44.4568968" lon="8.1286554"><ele>370.0</ele><time>2026-04-04T12:36:18.583Z</time></trkpt><trkpt lat="44.456713" lon="8.1287354"><ele>370.0</ele><time>2026-04-04T12:36:19.583Z</time></trkpt><trkpt lat="44.4565135" lon="8.1287928"><ele>370.0</ele><time>2026-04-04T12:36:20.582Z</time></trkpt><trkpt lat="44.4563258" lon="8.1288606"><ele>370.0</ele><time>2026-04-04T12:36:21.582Z</time></trkpt><trkpt lat="44.4561324" lon="8.1289243"><ele>370.0</ele><time>2026-04-04T12:36:22.582Z</time></trkpt><trkpt lat="44.4559482" lon="8.128986"><ele>368.3333333333333</ele><time>2026-04-04T12:36:23.583Z</time></trkpt><trkpt lat="44.4557721" lon="8.129039"><ele>366.6666666666667</ele><time>2026-04-04T12:36:24.583Z</time></trkpt><trkpt lat="44.4556078" lon="8.1290887"><ele>365.0</ele><time>2026-04-04T12:36:25.582Z</time></trkpt><trkpt lat="44.4554429" lon="8.1291458"><ele>369.33333333333337</ele><time>2026-04-04T12:36:26.583Z</time></trkpt><trkpt lat="44.4552817" lon="8.1292072"><ele>373.6666666666667</ele><time>2026-04-04T12:36:27.582Z</time></trkpt><trkpt lat="44.4551184" lon="8.1292769"><ele>378.0</ele><time>2026-04-04T12:36:28.582Z</time></trkpt><trkpt lat="44.4549498" lon="8.1293575"><ele>378.0</ele><time>2026-04-04T12:36:29.582Z</time></trkpt><trkpt lat="44.4547797" lon="8.1294447"><ele>378.0</ele><time>2026-04-04T12:36:30.583Z</time></trkpt><trkpt lat="44.4546136" lon="8.1295418"><ele>378.0</ele><time>2026-04-04T12:36:31.581Z</time></trkpt><trkpt lat="44.4544496" lon="8.1296454"><ele>378.6666666666667</ele><time>2026-04-04T12:36:32.582Z</time></trkpt><trkpt lat="44.4542888" lon="8.1297462"><ele>379.33333333333337</ele><time>2026-04-04T12:36:33.582Z</time></trkpt><trkpt lat="44.4541242" lon="8.1298465"><ele>380.0</ele><time>2026-04-04T12:36:34.582Z</time></trkpt><trkpt lat="44.4539413" lon="8.1299549"><ele>378.5</ele><time>2026-04-04T12:36:35.583Z</time></trkpt><trkpt lat="44.453736" lon="8.1300952"><ele>377.0</ele><time>2026-04-04T12:36:36.583Z</time></trkpt><trkpt lat="44.4534946" lon="8.130271"><ele>377.0</ele><time>2026-04-04T12:36:37.581Z</time></trkpt><trkpt lat="44.4532374" lon="8.1304442"><ele>377.0</ele><time>2026-04-04T12:36:38.583Z</time></trkpt><trkpt lat="44.4529974" lon="8.1305809"><ele>377.0</ele><time>2026-04-04T12:36:39.582Z</time></trkpt><trkpt lat="44.4527884" lon="8.1306853"><ele>377.0</ele><time>2026-04-04T12:36:40.582Z</time></trkpt><trkpt lat="44.4525816" lon="8.1308028"><ele>377.0</ele><time>2026-04-04T12:36:41.582Z</time></trkpt><trkpt lat="44.452373" lon="8.1309471"><ele>377.0</ele><time>2026-04-04T12:36:42.583Z</time></trkpt><trkpt lat="44.4521644" lon="8.1311199"><ele>377.0</ele><time>2026-04-04T12:36:43.582Z</time></trkpt><trkpt lat="44.4519582" lon="8.1312751"><ele>375.5</ele><time>2026-04-04T12:36:44.583Z</time></trkpt><trkpt lat="44.4517325" lon="8.1313961"><ele>374.0</ele><time>2026-04-04T12:36:45.583Z</time></trkpt><trkpt lat="44.4515193" lon="8.131489"><ele>374.0</ele><time>2026-04-04T12:36:46.583Z</time></trkpt><trkpt lat="44.451297" lon="8.1315481"><ele>374.0</ele><time>2026-04-04T12:36:47.583Z</time></trkpt><trkpt lat="44.4510912" lon="8.1316104"><ele>374.0</ele><time>2026-04-04T12:36:48.583Z</time></trkpt><trkpt lat="44.450894" lon="8.1316722"><ele>375.6666666666667</ele><time>2026-04-04T12:36:49.583Z</time></trkpt><trkpt lat="44.4507186" lon="8.1317265"><ele>377.3333333333333</ele><time>2026-04-04T12:36:50.583Z</time></trkpt><trkpt lat="44.4505521" lon="8.1317999"><ele>379.0</ele><time>2026-04-04T12:36:51.583Z</time></trkpt><trkpt lat="44.4503962" lon="8.1319074"><ele>376.66666666666663</ele><time>2026-04-04T12:36:52.582Z</time></trkpt><trkpt lat="44.4502443" lon="8.1320659"><ele>374.3333333333333</ele><time>2026-04-04T12:36:53.582Z</time></trkpt><trkpt lat="44.4501311" lon="8.1322591"><ele>372.0</ele><time>2026-04-04T12:36:54.582Z</time></trkpt><trkpt lat="44.4500305" lon="8.1325114"><ele>372.0</ele><time>2026-04-04T12:36:55.583Z</time></trkpt><trkpt lat="44.4499167" lon="8.1327682"><ele>372.0</ele><time>2026-04-04T12:36:56.583Z</time></trkpt><trkpt lat="44.4498122" lon="8.1330642"><ele>373.6666666666667</ele><time>2026-04-04T12:36:57.583Z</time></trkpt><trkpt lat="44.4497439" lon="8.1332947"><ele>375.33333333333337</ele><time>2026-04-04T12:36:58.583Z</time></trkpt><trkpt lat="44.4496855" lon="8.1335086"><ele>377.0</ele><time>2026-04-04T12:36:59.583Z</time></trkpt><trkpt lat="44.4496647" lon="8.1337406"><ele>377.0</ele><time>2026-04-04T12:37:00.582Z</time></trkpt><trkpt lat="44.4496496" lon="8.133966"><ele>377.0</ele><time>2026-04-04T12:37:01.583Z</time></trkpt><trkpt lat="44.4496462" lon="8.1342076"><ele>377.0</ele><time>2026-04-04T12:37:02.582Z</time></trkpt><trkpt lat="44.449619" lon="8.134423"><ele>374.0</ele><time>2026-04-04T12:37:03.583Z</time></trkpt><trkpt lat="44.4495887" lon="8.1346463"><ele>371.0</ele><time>2026-04-04T12:37:04.583Z</time></trkpt><trkpt lat="44.449561" lon="8.1348864"><ele>368.0</ele><time>2026-04-04T12:37:05.584Z</time></trkpt><trkpt lat="44.4495213" lon="8.1351282"><ele>368.0</ele><time>2026-04-04T12:37:06.582Z</time></trkpt><trkpt lat="44.4494855" lon="8.1353883"><ele>368.0</ele><time>2026-04-04T12:37:07.582Z</time></trkpt><trkpt lat="44.449434" lon="8.1356444"><ele>368.0</ele><time>2026-04-04T12:37:08.583Z</time></trkpt><trkpt lat="44.4493818" lon="8.1358975"><ele>369.0</ele><time>2026-04-04T12:37:09.583Z</time></trkpt><trkpt lat="44.4493148" lon="8.1361054"><ele>370.0</ele><time>2026-04-04T12:37:10.583Z</time></trkpt><trkpt lat="44.4492547" lon="8.1363039"><ele>371.0</ele><time>2026-04-04T12:37:11.583Z</time></trkpt><trkpt lat="44.4491963" lon="8.1364874"><ele>371.5</ele><time>2026-04-04T12:37:12.583Z</time></trkpt><trkpt lat="44.4491345" lon="8.1366778"><ele>372.0</ele><time>2026-04-04T12:37:13.583Z</time></trkpt><trkpt lat="44.4490719" lon="8.1368716"><ele>372.5</ele><time>2026-04-04T12:37:14.583Z</time></trkpt><trkpt lat="44.4490046" lon="8.1370487"><ele>373.0</ele><time>2026-04-04T12:37:15.583Z</time></trkpt><trkpt lat="44.448922" lon="8.1372065"><ele>373.0</ele><time>2026-04-04T12:37:16.583Z</time></trkpt><trkpt lat="44.4488377" lon="8.1373646"><ele>373.0</ele><time>2026-04-04T12:37:17.583Z</time></trkpt><trkpt lat="44.448754" lon="8.1375375"><ele>373.0</ele><time>2026-04-04T12:37:18.584Z</time></trkpt><trkpt lat="44.4486529" lon="8.137706"><ele>373.0</ele><time>2026-04-04T12:37:19.584Z</time></trkpt><trkpt lat="44.4485305" lon="8.1378515"><ele>372.66666666666663</ele><time>2026-04-04T12:37:20.584Z</time></trkpt><trkpt lat="44.4484181" lon="8.1380044"><ele>372.3333333333333</ele><time>2026-04-04T12:37:21.583Z</time></trkpt><trkpt lat="44.4483071" lon="8.1381526"><ele>372.0</ele><time>2026-04-04T12:37:22.584Z</time></trkpt><trkpt lat="44.4481933" lon="8.1383003"><ele>372.0</ele><time>2026-04-04T12:37:23.584Z</time></trkpt><trkpt lat="44.4480829" lon="8.1384612"><ele>372.0</ele><time>2026-04-04T12:37:24.584Z</time></trkpt><trkpt lat="44.4479692" lon="8.1386132"><ele>372.0</ele><time>2026-04-04T12:37:25.583Z</time></trkpt><trkpt lat="44.4478597" lon="8.1387703"><ele>370.0</ele><time>2026-04-04T12:37:26.582Z</time></trkpt><trkpt lat="44.4477504" lon="8.1389293"><ele>368.0</ele><time>2026-04-04T12:37:27.583Z</time></trkpt><trkpt lat="44.4476318" lon="8.1390826"><ele>366.0</ele><time>2026-04-04T12:37:28.583Z</time></trkpt><trkpt lat="44.4475182" lon="8.13923"><ele>365.75</ele><time>2026-04-04T12:37:29.583Z</time></trkpt><trkpt lat="44.4474182" lon="8.1393759"><ele>365.5</ele><time>2026-04-04T12:37:30.583Z</time></trkpt><trkpt lat="44.4473161" lon="8.1395175"><ele>365.25</ele><time>2026-04-04T12:37:31.583Z</time></trkpt><trkpt lat="44.4472194" lon="8.1396663"><ele>365.0</ele><time>2026-04-04T12:37:32.584Z</time></trkpt><trkpt lat="44.4471188" lon="8.1398107"><ele>364.75</ele><time>2026-04-04T12:37:33.584Z</time></trkpt><trkpt lat="44.4470115" lon="8.1399509"><ele>364.5</ele><time>2026-04-04T12:37:34.583Z</time></trkpt><trkpt lat="44.4468943" lon="8.1400882"><ele>364.25</ele><time>2026-04-04T12:37:35.583Z</time></trkpt><trkpt lat="44.4467929" lon="8.14024"><ele>364.0</ele><time>2026-04-04T12:37:36.584Z</time></trkpt><trkpt lat="44.4466885" lon="8.1403901"><ele>364.0</ele><time>2026-04-04T12:37:37.582Z</time></trkpt><trkpt lat="44.4465875" lon="8.1405441"><ele>364.0</ele><time>2026-04-04T12:37:38.584Z</time></trkpt><trkpt lat="44.4464829" lon="8.1406877"><ele>364.0</ele><time>2026-04-04T12:37:39.583Z</time></trkpt><trkpt lat="44.4463824" lon="8.1408247"><ele>364.0</ele><time>2026-04-04T12:37:40.583Z</time></trkpt><trkpt lat="44.4462842" lon="8.1409671"><ele>363.75</ele><time>2026-04-04T12:37:41.583Z</time></trkpt><trkpt lat="44.4461862" lon="8.1410822"><ele>363.5</ele><time>2026-04-04T12:37:42.584Z</time></trkpt><trkpt lat="44.4460927" lon="8.1411959"><ele>363.25</ele><time>2026-04-04T12:37:43.583Z</time></trkpt><trkpt lat="44.4459992" lon="8.1413088"><ele>363.0</ele><time>2026-04-04T12:37:44.584Z</time></trkpt><trkpt lat="44.4459077" lon="8.1414262"><ele>363.0</ele><time>2026-04-04T12:37:45.583Z</time></trkpt><trkpt lat="44.4458169" lon="8.1415454"><ele>363.0</ele><time>2026-04-04T12:37:46.583Z</time></trkpt><trkpt lat="44.4457298" lon="8.1416628"><ele>363.0</ele><time>2026-04-04T12:37:47.584Z</time></trkpt><trkpt lat="44.4456473" lon="8.1417762"><ele>363.0</ele><time>2026-04-04T12:37:48.584Z</time></trkpt><trkpt lat="44.4455676" lon="8.1418871"><ele>363.25</ele><time>2026-04-04T12:37:49.583Z</time></trkpt><trkpt lat="44.4454944" lon="8.1419892"><ele>363.5</ele><time>2026-04-04T12:37:50.584Z</time></trkpt><trkpt lat="44.4454213" lon="8.1420896"><ele>363.75</ele><time>2026-04-04T12:37:51.584Z</time></trkpt><trkpt lat="44.4453442" lon="8.1421967"><ele>364.0</ele><time>2026-04-04T12:37:52.584Z</time></trkpt><trkpt lat="44.4452446" lon="8.1423261"><ele>364.3333333333333</ele><time>2026-04-04T12:37:53.583Z</time></trkpt><trkpt lat="44.4451299" lon="8.1424668"><ele>364.6666666666667</ele><time>2026-04-04T12:37:54.584Z</time></trkpt><trkpt lat="44.4450123" lon="8.1426125"><ele>365.0</ele><time>2026-04-04T12:37:55.584Z</time></trkpt><trkpt lat="44.4448978" lon="8.1427654"><ele>365.0</ele><time>2026-04-04T12:37:56.584Z</time></trkpt><trkpt lat="44.4447919" lon="8.1429181"><ele>365.0</ele><time>2026-04-04T12:37:57.584Z</time></trkpt><trkpt lat="44.4446867" lon="8.1430588"><ele>365.0</ele><time>2026-04-04T12:37:58.584Z</time></trkpt><trkpt lat="44.4445786" lon="8.1432007"><ele>365.0</ele><time>2026-04-04T12:37:59.584Z</time></trkpt><trkpt lat="44.4444722" lon="8.1433381"><ele>365.25</ele><time>2026-04-04T12:38:00.584Z</time></trkpt><trkpt lat="44.4443682" lon="8.1434756"><ele>365.5</ele><time>2026-04-04T12:38:01.584Z</time></trkpt><trkpt lat="44.4442692" lon="8.1436133"><ele>365.75</ele><time>2026-04-04T12:38:02.584Z</time></trkpt><trkpt lat="44.4441683" lon="8.1437546"><ele>366.0</ele><time>2026-04-04T12:38:03.584Z</time></trkpt><trkpt lat="44.4440629" lon="8.1438988"><ele>366.0</ele><time>2026-04-04T12:38:04.584Z</time></trkpt><trkpt lat="44.4439575" lon="8.1440447"><ele>366.0</ele><time>2026-04-04T12:38:05.584Z</time></trkpt><trkpt lat="44.4438509" lon="8.1441881"><ele>366.0</ele><time>2026-04-04T12:38:06.584Z</time></trkpt><trkpt lat="44.4437497" lon="8.1443266"><ele>366.0</ele><time>2026-04-04T12:38:07.584Z</time></trkpt><trkpt lat="44.4436523" lon="8.1444621"><ele>365.75</ele><time>2026-04-04T12:38:08.584Z</time></trkpt><trkpt lat="44.4435587" lon="8.144597"><ele>365.5</ele><time>2026-04-04T12:38:09.584Z</time></trkpt><trkpt lat="44.4434688" lon="8.1447261"><ele>365.25</ele><time>2026-04-04T12:38:10.584Z</time></trkpt><trkpt lat="44.4433792" lon="8.1448486"><ele>365.0</ele><time>2026-04-04T12:38:11.584Z</time></trkpt><trkpt lat="44.4432891" lon="8.1449623"><ele>364.5</ele><time>2026-04-04T12:38:12.583Z</time></trkpt><trkpt lat="44.4431881" lon="8.1450779"><ele>364.0</ele><time>2026-04-04T12:38:13.583Z</time></trkpt><trkpt lat="44.4430814" lon="8.145204"><ele>363.5</ele><time>2026-04-04T12:38:14.584Z</time></trkpt><trkpt lat="44.4429874" lon="8.1453061"><ele>363.0</ele><time>2026-04-04T12:38:15.584Z</time></trkpt><trkpt lat="44.4429039" lon="8.1454186"><ele>363.0</ele><time>2026-04-04T12:38:16.584Z</time></trkpt><trkpt lat="44.44283" lon="8.1455241"><ele>363.0</ele><time>2026-04-04T12:38:17.584Z</time></trkpt><trkpt lat="44.4427665" lon="8.145623"><ele>363.0</ele><time>2026-04-04T12:38:18.583Z</time></trkpt><trkpt lat="44.4427059" lon="8.1457109"><ele>363.0</ele><time>2026-04-04T12:38:19.584Z</time></trkpt><trkpt lat="44.4426457" lon="8.1457801"><ele>363.0</ele><time>2026-04-04T12:38:20.585Z</time></trkpt><trkpt lat="44.4425828" lon="8.1458374"><ele>363.0</ele><time>2026-04-04T12:38:21.585Z</time></trkpt><trkpt lat="44.4425121" lon="8.1459037"><ele>363.75</ele><time>2026-04-04T12:38:22.584Z</time></trkpt><trkpt lat="44.4424475" lon="8.1460166"><ele>364.5</ele><time>2026-04-04T12:38:23.584Z</time></trkpt><trkpt lat="44.4424007" lon="8.1461638"><ele>365.25</ele><time>2026-04-04T12:38:24.584Z</time></trkpt><trkpt lat="44.4423661" lon="8.1463386"><ele>366.0</ele><time>2026-04-04T12:38:25.584Z</time></trkpt><trkpt lat="44.4423297" lon="8.1465251"><ele>365.5</ele><time>2026-04-04T12:38:26.584Z</time></trkpt><trkpt lat="44.4422859" lon="8.1467141"><ele>365.0</ele><time>2026-04-04T12:38:27.583Z</time></trkpt><trkpt lat="44.4422333" lon="8.146908"><ele>364.5</ele><time>2026-04-04T12:38:28.584Z</time></trkpt><trkpt lat="44.4421796" lon="8.1471001"><ele>364.0</ele><time>2026-04-04T12:38:29.584Z</time></trkpt><trkpt lat="44.4421269" lon="8.1472948"><ele>365.0</ele><time>2026-04-04T12:38:30.584Z</time></trkpt><trkpt lat="44.442075" lon="8.1474927"><ele>366.0</ele><time>2026-04-04T12:38:31.585Z</time></trkpt><trkpt lat="44.4420179" lon="8.1476967"><ele>367.0</ele><time>2026-04-04T12:38:32.584Z</time></trkpt><trkpt lat="44.4419515" lon="8.1479041"><ele>367.0</ele><time>2026-04-04T12:38:33.585Z</time></trkpt><trkpt lat="44.4418711" lon="8.1481141"><ele>367.0</ele><time>2026-04-04T12:38:34.585Z</time></trkpt><trkpt lat="44.4417791" lon="8.1483112"><ele>367.0</ele><time>2026-04-04T12:38:35.585Z</time></trkpt><trkpt lat="44.4416707" lon="8.1484986"><ele>365.66666666666663</ele><time>2026-04-04T12:38:36.585Z</time></trkpt><trkpt lat="44.4415429" lon="8.1486692"><ele>364.3333333333333</ele><time>2026-04-04T12:38:37.585Z</time></trkpt><trkpt lat="44.4413917" lon="8.1488126"><ele>363.0</ele><time>2026-04-04T12:38:38.584Z</time></trkpt><trkpt lat="44.4412422" lon="8.1489291"><ele>363.0</ele><time>2026-04-04T12:38:39.584Z</time></trkpt><trkpt lat="44.4411071" lon="8.1490247"><ele>363.0</ele><time>2026-04-04T12:38:40.585Z</time></trkpt><trkpt lat="44.440983" lon="8.14912"><ele>363.0</ele><time>2026-04-04T12:38:41.586Z</time></trkpt><trkpt lat="44.4408579" lon="8.149219"><ele>363.0</ele><time>2026-04-04T12:38:42.583Z</time></trkpt><trkpt lat="44.4407265" lon="8.1493241"><ele>364.3333333333333</ele><time>2026-04-04T12:38:43.584Z</time></trkpt><trkpt lat="44.4405863" lon="8.1494364"><ele>365.66666666666663</ele><time>2026-04-04T12:38:44.584Z</time></trkpt><trkpt lat="44.4404418" lon="8.1495551"><ele>367.0</ele><time>2026-04-04T12:38:45.584Z</time></trkpt><trkpt lat="44.4402938" lon="8.1496669"><ele>367.0</ele><time>2026-04-04T12:38:46.584Z</time></trkpt><trkpt lat="44.4401476" lon="8.1497787"><ele>367.0</ele><time>2026-04-04T12:38:47.584Z</time></trkpt><trkpt lat="44.440005" lon="8.149889"><ele>367.0</ele><time>2026-04-04T12:38:48.584Z</time></trkpt><trkpt lat="44.43987" lon="8.1499981"><ele>366.75</ele><time>2026-04-04T12:38:49.584Z</time></trkpt><trkpt lat="44.4397415" lon="8.1501042"><ele>366.5</ele><time>2026-04-04T12:38:50.585Z</time></trkpt><trkpt lat="44.439624" lon="8.1502191"><ele>366.25</ele><time>2026-04-04T12:38:51.585Z</time></trkpt><trkpt lat="44.4395195" lon="8.1503471"><ele>366.0</ele><time>2026-04-04T12:38:52.585Z</time></trkpt><trkpt lat="44.4394227" lon="8.1504892"><ele>366.0</ele><time>2026-04-04T12:38:53.584Z</time></trkpt><trkpt lat="44.4393268" lon="8.1506456"><ele>366.0</ele><time>2026-04-04T12:38:54.585Z</time></trkpt><trkpt lat="44.4392274" lon="8.1508132"><ele>366.0</ele><time>2026-04-04T12:38:55.583Z</time></trkpt><trkpt lat="44.439128" lon="8.150985"><ele>369.3333333333333</ele><time>2026-04-04T12:38:56.584Z</time></trkpt><trkpt lat="44.4390259" lon="8.1511579"><ele>372.66666666666663</ele><time>2026-04-04T12:38:57.584Z</time></trkpt><trkpt lat="44.4389225" lon="8.1513283"><ele>376.0</ele><time>2026-04-04T12:38:58.585Z</time></trkpt><trkpt lat="44.4388235" lon="8.1514897"><ele>374.5</ele><time>2026-04-04T12:38:59.585Z</time></trkpt><trkpt lat="44.4387339" lon="8.1516376"><ele>373.0</ele><time>2026-04-04T12:39:00.584Z</time></trkpt><trkpt lat="44.4386511" lon="8.1517766"><ele>371.5</ele><time>2026-04-04T12:39:01.585Z</time></trkpt><trkpt lat="44.4385676" lon="8.1519177"><ele>370.0</ele><time>2026-04-04T12:39:02.585Z</time></trkpt><trkpt lat="44.4384805" lon="8.1520634"><ele>370.0</ele><time>2026-04-04T12:39:03.585Z</time></trkpt><trkpt lat="44.4383856" lon="8.1522182"><ele>370.0</ele><time>2026-04-04T12:39:04.585Z</time></trkpt><trkpt lat="44.4382844" lon="8.152381"><ele>370.0</ele><time>2026-04-04T12:39:05.585Z</time></trkpt><trkpt lat="44.4381811" lon="8.1525487"><ele>369.66666666666663</ele><time>2026-04-04T12:39:06.584Z</time></trkpt><trkpt lat="44.4380767" lon="8.1527183"><ele>369.3333333333333</ele><time>2026-04-04T12:39:07.585Z</time></trkpt><trkpt lat="44.4379762" lon="8.1528858"><ele>369.0</ele><time>2026-04-04T12:39:08.584Z</time></trkpt><trkpt lat="44.4378832" lon="8.1530566"><ele>371.0</ele><time>2026-04-04T12:39:09.584Z</time></trkpt><trkpt lat="44.4378048" lon="8.1532319"><ele>373.0</ele><time>2026-04-04T12:39:10.585Z</time></trkpt><trkpt lat="44.4377458" lon="8.1534091"><ele>375.0</ele><time>2026-04-04T12:39:11.585Z</time></trkpt><trkpt lat="44.4377027" lon="8.1535722"><ele>377.0</ele><time>2026-04-04T12:39:12.586Z</time></trkpt><trkpt lat="44.4376681" lon="8.1537208"><ele>377.0</ele><time>2026-04-04T12:39:13.585Z</time></trkpt><trkpt lat="44.4376366" lon="8.1538483"><ele>377.0</ele><time>2026-04-04T12:39:14.585Z</time></trkpt><trkpt lat="44.4376066" lon="8.1539622"><ele>377.0</ele><time>2026-04-04T12:39:15.585Z</time></trkpt><trkpt lat="44.437577" lon="8.1540648"><ele>377.0</ele><time>2026-04-04T12:39:16.585Z</time></trkpt><trkpt lat="44.4375504" lon="8.1541574"><ele>377.0</ele><time>2026-04-04T12:39:17.585Z</time></trkpt><trkpt lat="44.4375272" lon="8.1542493"><ele>377.0</ele><time>2026-04-04T12:39:18.586Z</time></trkpt><trkpt lat="44.4375076" lon="8.1543389"><ele>377.8</ele><time>2026-04-04T12:39:19.585Z</time></trkpt><trkpt lat="44.4374686" lon="8.1544915"><ele>378.6</ele><time>2026-04-04T12:39:21.585Z</time></trkpt><trkpt lat="44.4374323" lon="8.1546035"><ele>379.40000000000003</ele><time>2026-04-04T12:39:23.585Z</time></trkpt><trkpt lat="44.4374039" lon="8.1547091"><ele>380.20000000000005</ele><time>2026-04-04T12:39:26.585Z</time></trkpt><trkpt lat="44.4374822" lon="8.1546915"><ele>381.0</ele><time>2026-04-04T12:39:30.585Z</time></trkpt><trkpt lat="44.4375149" lon="8.1545608"><ele>381.0</ele><time>2026-04-04T12:39:32.585Z</time></trkpt><trkpt lat="44.4375299" lon="8.1544601"><ele>381.0</ele><time>2026-04-04T12:39:33.586Z</time></trkpt><trkpt lat="44.4375521" lon="8.1543178"><ele>381.0</ele><time>2026-04-04T12:39:34.585Z</time></trkpt><trkpt lat="44.4375883" lon="8.1541843"><ele>381.0</ele><time>2026-04-04T12:39:35.586Z</time></trkpt><trkpt lat="44.4376331" lon="8.1540295"><ele>381.0</ele><time>2026-04-04T12:39:36.586Z</time></trkpt><trkpt lat="44.4376818" lon="8.1538687"><ele>380.0</ele><time>2026-04-04T12:39:37.586Z</time></trkpt><trkpt lat="44.4377262" lon="8.153705"><ele>379.0</ele><time>2026-04-04T12:39:38.586Z</time></trkpt><trkpt lat="44.4377729" lon="8.1535462"><ele>378.0</ele><time>2026-04-04T12:39:39.585Z</time></trkpt><trkpt lat="44.4378217" lon="8.153379"><ele>377.0</ele><time>2026-04-04T12:39:40.585Z</time></trkpt><trkpt lat="44.4378764" lon="8.1532059"><ele>377.5</ele><time>2026-04-04T12:39:41.586Z</time></trkpt><trkpt lat="44.4379335" lon="8.1530294"><ele>378.0</ele><time>2026-04-04T12:39:42.585Z</time></trkpt><trkpt lat="44.4379971" lon="8.1528829"><ele>378.5</ele><time>2026-04-04T12:39:43.586Z</time></trkpt><trkpt lat="44.4380641" lon="8.1527611"><ele>379.0</ele><time>2026-04-04T12:39:44.586Z</time></trkpt><trkpt lat="44.438131" lon="8.1526566"><ele>379.0</ele><time>2026-04-04T12:39:45.586Z</time></trkpt><trkpt lat="44.4381918" lon="8.1525625"><ele>379.0</ele><time>2026-04-04T12:39:46.586Z</time></trkpt><trkpt lat="44.4382443" lon="8.1524819"><ele>379.0</ele><time>2026-04-04T12:39:47.585Z</time></trkpt><trkpt lat="44.4382853" lon="8.1524122"><ele>379.0</ele><time>2026-04-04T12:39:48.586Z</time></trkpt><trkpt lat="44.4383432" lon="8.1523045"><ele>379.0</ele><time>2026-04-04T12:39:50.586Z</time></trkpt><trkpt lat="44.4382701" lon="8.1522385"><ele>379.0</ele><time>2026-04-04T12:39:53.586Z</time></trkpt><trkpt lat="44.4381637" lon="8.152351"><ele>379.0</ele><time>2026-04-04T12:39:55.586Z</time></trkpt><trkpt lat="44.4380843" lon="8.1524698"><ele>379.0</ele><time>2026-04-04T12:39:56.585Z</time></trkpt><trkpt lat="44.437996" lon="8.1525948"><ele>379.0</ele><time>2026-04-04T12:39:57.586Z</time></trkpt><trkpt lat="44.4378917" lon="8.1527401"><ele>379.0</ele><time>2026-04-04T12:39:58.585Z</time></trkpt><trkpt lat="44.4377763" lon="8.1528963"><ele>378.5</ele><time>2026-04-04T12:39:59.586Z</time></trkpt><trkpt lat="44.4376638" lon="8.1530561"><ele>378.0</ele><time>2026-04-04T12:40:00.586Z</time></trkpt><trkpt lat="44.4375596" lon="8.1531864"><ele>377.5</ele><time>2026-04-04T12:40:01.585Z</time></trkpt><trkpt lat="44.4374562" lon="8.1532653"><ele>377.0</ele><time>2026-04-04T12:40:02.586Z</time></trkpt><trkpt lat="44.4373421" lon="8.1532856"><ele>377.0</ele><time>2026-04-04T12:40:03.586Z</time></trkpt><trkpt lat="44.4372099" lon="8.1532191"><ele>377.0</ele><time>2026-04-04T12:40:04.585Z</time></trkpt><trkpt lat="44.4370883" lon="8.153089"><ele>377.0</ele><time>2026-04-04T12:40:05.586Z</time></trkpt><trkpt lat="44.4369708" lon="8.1529644"><ele>377.0</ele><time>2026-04-04T12:40:06.586Z</time></trkpt><trkpt lat="44.4368519" lon="8.1528414"><ele>375.5</ele><time>2026-04-04T12:40:07.586Z</time></trkpt><trkpt lat="44.4367427" lon="8.1527303"><ele>374.0</ele><time>2026-04-04T12:40:08.587Z</time></trkpt><trkpt lat="44.4366269" lon="8.1526151"><ele>372.5</ele><time>2026-04-04T12:40:09.585Z</time></trkpt><trkpt lat="44.4365222" lon="8.1525143"><ele>371.0</ele><time>2026-04-04T12:40:10.587Z</time></trkpt><trkpt lat="44.4364385" lon="8.1524265"><ele>371.8</ele><time>2026-04-04T12:40:11.586Z</time></trkpt><trkpt lat="44.4363806" lon="8.1523395"><ele>372.6</ele><time>2026-04-04T12:40:12.585Z</time></trkpt><trkpt lat="44.4363514" lon="8.1522196"><ele>373.4</ele><time>2026-04-04T12:40:13.586Z</time></trkpt><trkpt lat="44.4363692" lon="8.1520826"><ele>374.2</ele><time>2026-04-04T12:40:14.587Z</time></trkpt><trkpt lat="44.4364257" lon="8.1519312"><ele>375.0</ele><time>2026-04-04T12:40:15.586Z</time></trkpt><trkpt lat="44.4365045" lon="8.1517623"><ele>375.0</ele><time>2026-04-04T12:40:16.586Z</time></trkpt><trkpt lat="44.4365758" lon="8.1515895"><ele>375.0</ele><time>2026-04-04T12:40:17.585Z</time></trkpt><trkpt lat="44.4366071" lon="8.1514171"><ele>375.0</ele><time>2026-04-04T12:40:18.586Z</time></trkpt><trkpt lat="44.4366089" lon="8.1512502"><ele>375.0</ele><time>2026-04-04T12:40:19.585Z</time></trkpt><trkpt lat="44.4365622" lon="8.1510865"><ele>374.25</ele><time>2026-04-04T12:40:20.586Z</time></trkpt><trkpt lat="44.4364965" lon="8.1509329"><ele>373.5</ele><time>2026-04-04T12:40:21.585Z</time></trkpt><trkpt lat="44.4364017" lon="8.1507727"><ele>372.75</ele><time>2026-04-04T12:40:22.586Z</time></trkpt><trkpt lat="44.4362986" lon="8.1506318"><ele>372.0</ele><time>2026-04-04T12:40:23.586Z</time></trkpt><trkpt lat="44.4362441" lon="8.1504903"><ele>373.8</ele><time>2026-04-04T12:40:24.586Z</time></trkpt><trkpt lat="44.4362364" lon="8.150337"><ele>375.6</ele><time>2026-04-04T12:40:25.587Z</time></trkpt><trkpt lat="44.4362662" lon="8.1501985"><ele>377.40000000000003</ele><time>2026-04-04T12:40:26.586Z</time></trkpt><trkpt lat="44.4363313" lon="8.1500726"><ele>379.20000000000005</ele><time>2026-04-04T12:40:27.586Z</time></trkpt><trkpt lat="44.4364262" lon="8.1499871"><ele>381.0</ele><time>2026-04-04T12:40:28.587Z</time></trkpt><trkpt lat="44.4365547" lon="8.1499762"><ele>381.0</ele><time>2026-04-04T12:40:29.586Z</time></trkpt><trkpt lat="44.4366756" lon="8.1500257"><ele>381.0</ele><time>2026-04-04T12:40:30.587Z</time></trkpt><trkpt lat="44.4367568" lon="8.1500304"><ele>381.0</ele><time>2026-04-04T12:40:31.587Z</time></trkpt><trkpt lat="44.4368335" lon="8.149995"><ele>381.0</ele><time>2026-04-04T12:40:32.586Z</time></trkpt><trkpt lat="44.436904" lon="8.1499293"><ele>381.0</ele><time>2026-04-04T12:40:33.587Z</time></trkpt><trkpt lat="44.4369444" lon="8.1498296"><ele>382.0</ele><time>2026-04-04T12:40:34.586Z</time></trkpt><trkpt lat="44.436928" lon="8.1497444"><ele>383.0</ele><time>2026-04-04T12:40:35.587Z</time></trkpt><trkpt lat="44.436892" lon="8.149662"><ele>384.0</ele><time>2026-04-04T12:40:36.586Z</time></trkpt><trkpt lat="44.4368144" lon="8.14962"><ele>385.0</ele><time>2026-04-04T12:40:37.586Z</time></trkpt><trkpt lat="44.4367255" lon="8.1496296"><ele>386.0</ele><time>2026-04-04T12:40:38.586Z</time></trkpt><trkpt lat="44.4366645" lon="8.1497076"><ele>387.0</ele><time>2026-04-04T12:40:39.586Z</time></trkpt><trkpt lat="44.4365918" lon="8.149807"><ele>387.0</ele><time>2026-04-04T12:40:40.586Z</time></trkpt><trkpt lat="44.4364906" lon="8.1498599"><ele>387.0</ele><time>2026-04-04T12:40:41.587Z</time></trkpt><trkpt lat="44.4363812" lon="8.1498748"><ele>387.0</ele><time>2026-04-04T12:40:42.587Z</time></trkpt><trkpt lat="44.4362431" lon="8.1498359"><ele>387.0</ele><time>2026-04-04T12:40:43.586Z</time></trkpt><trkpt lat="44.4361033" lon="8.1497546"><ele>388.25</ele><time>2026-04-04T12:40:44.586Z</time></trkpt><trkpt lat="44.4359757" lon="8.1496322"><ele>389.5</ele><time>2026-04-04T12:40:45.587Z</time></trkpt><trkpt lat="44.4358829" lon="8.1494618"><ele>390.75</ele><time>2026-04-04T12:40:46.587Z</time></trkpt><trkpt lat="44.4358291" lon="8.1492952"><ele>392.0</ele><time>2026-04-04T12:40:47.587Z</time></trkpt><trkpt lat="44.4357883" lon="8.1491899"><ele>392.0</ele><time>2026-04-04T12:40:48.587Z</time></trkpt><trkpt lat="44.4356614" lon="8.149182"><ele>392.0</ele><time>2026-04-04T12:40:50.587Z</time></trkpt><trkpt lat="44.4355996" lon="8.1492372"><ele>392.0</ele><time>2026-04-04T12:40:51.586Z</time></trkpt><trkpt lat="44.4355544" lon="8.1493875"><ele>392.0</ele><time>2026-04-04T12:40:52.587Z</time></trkpt><trkpt lat="44.4355416" lon="8.1495543"><ele>392.0</ele><time>2026-04-04T12:40:53.587Z</time></trkpt><trkpt lat="44.4355122" lon="8.1496919"><ele>393.75</ele><time>2026-04-04T12:40:54.587Z</time></trkpt><trkpt lat="44.4354489" lon="8.149794"><ele>395.5</ele><time>2026-04-04T12:40:55.587Z</time></trkpt><trkpt lat="44.4353662" lon="8.149845"><ele>397.25</ele><time>2026-04-04T12:40:56.587Z</time></trkpt><trkpt lat="44.4352575" lon="8.1498587"><ele>399.0</ele><time>2026-04-04T12:40:57.586Z</time></trkpt><trkpt lat="44.4350988" lon="8.1498442"><ele>399.0</ele><time>2026-04-04T12:40:58.586Z</time></trkpt><trkpt lat="44.4349279" lon="8.1498205"><ele>399.0</ele><time>2026-04-04T12:40:59.586Z</time></trkpt><trkpt lat="44.434752" lon="8.1497821"><ele>399.0</ele><time>2026-04-04T12:41:00.586Z</time></trkpt><trkpt lat="44.4345708" lon="8.1497236"><ele>399.75</ele><time>2026-04-04T12:41:01.587Z</time></trkpt><trkpt lat="44.4344098" lon="8.1496617"><ele>400.5</ele><time>2026-04-04T12:41:02.586Z</time></trkpt><trkpt lat="44.4342893" lon="8.1496019"><ele>401.25</ele><time>2026-04-04T12:41:03.587Z</time></trkpt><trkpt lat="44.4341893" lon="8.1495568"><ele>402.0</ele><time>2026-04-04T12:41:04.587Z</time></trkpt><trkpt lat="44.4341051" lon="8.1495221"><ele>402.0</ele><time>2026-04-04T12:41:05.587Z</time></trkpt><trkpt lat="44.4340414" lon="8.1494768"><ele>402.0</ele><time>2026-04-04T12:41:06.587Z</time></trkpt><trkpt lat="44.4340251" lon="8.1492984"><ele>402.0</ele><time>2026-04-04T12:41:08.587Z</time></trkpt><trkpt lat="44.4341022" lon="8.1492183"><ele>402.0</ele><time>2026-04-04T12:41:09.587Z</time></trkpt><trkpt lat="44.4341891" lon="8.1492237"><ele>402.0</ele><time>2026-04-04T12:41:10.589Z</time></trkpt><trkpt lat="44.4342869" lon="8.1493047"><ele>402.0</ele><time>2026-04-04T12:41:11.587Z</time></trkpt><trkpt lat="44.4343965" lon="8.1494134"><ele>402.0</ele><time>2026-04-04T12:41:12.587Z</time></trkpt><trkpt lat="44.4344961" lon="8.1494802"><ele>402.0</ele><time>2026-04-04T12:41:13.587Z</time></trkpt><trkpt lat="44.4345884" lon="8.1495007"><ele>402.0</ele><time>2026-04-04T12:41:14.589Z</time></trkpt><trkpt lat="44.4346798" lon="8.1494736"><ele>402.0</ele><time>2026-04-04T12:41:15.586Z</time></trkpt><trkpt lat="44.4347456" lon="8.149399"><ele>401.25</ele><time>2026-04-04T12:41:16.587Z</time></trkpt><trkpt lat="44.43474" lon="8.1492732"><ele>400.5</ele><time>2026-04-04T12:41:17.587Z</time></trkpt><trkpt lat="44.4346876" lon="8.1491507"><ele>399.75</ele><time>2026-04-04T12:41:18.587Z</time></trkpt><trkpt lat="44.4345692" lon="8.1490283"><ele>399.0</ele><time>2026-04-04T12:41:19.587Z</time></trkpt><trkpt lat="44.4344252" lon="8.1489036"><ele>402.33333333333337</ele><time>2026-04-04T12:41:20.587Z</time></trkpt><trkpt lat="44.434276" lon="8.1487518"><ele>405.6666666666667</ele><time>2026-04-04T12:41:21.587Z</time></trkpt><trkpt lat="44.4341286" lon="8.1485946"><ele>409.0</ele><time>2026-04-04T12:41:22.587Z</time></trkpt><trkpt lat="44.4339717" lon="8.1484195"><ele>409.0</ele><time>2026-04-04T12:41:23.586Z</time></trkpt><trkpt lat="44.4338256" lon="8.1482678"><ele>409.0</ele><time>2026-04-04T12:41:24.586Z</time></trkpt><trkpt lat="44.4336719" lon="8.148137"><ele>409.0</ele><time>2026-04-04T12:41:25.587Z</time></trkpt><trkpt lat="44.4334939" lon="8.1480276"><ele>411.6666666666667</ele><time>2026-04-04T12:41:26.587Z</time></trkpt><trkpt lat="44.4332989" lon="8.1479521"><ele>414.33333333333337</ele><time>2026-04-04T12:41:27.587Z</time></trkpt><trkpt lat="44.4330821" lon="8.1479078"><ele>417.0</ele><time>2026-04-04T12:41:28.587Z</time></trkpt><trkpt lat="44.4328616" lon="8.1478792"><ele>419.0</ele><time>2026-04-04T12:41:29.588Z</time></trkpt><trkpt lat="44.4326433" lon="8.1478447"><ele>421.0</ele><time>2026-04-04T12:41:30.588Z</time></trkpt><trkpt lat="44.4324409" lon="8.147799"><ele>423.0</ele><time>2026-04-04T12:41:31.588Z</time></trkpt><trkpt lat="44.4322635" lon="8.1477537"><ele>425.33333333333337</ele><time>2026-04-04T12:41:32.588Z</time></trkpt><trkpt lat="44.4320939" lon="8.1477052"><ele>427.6666666666667</ele><time>2026-04-04T12:41:33.587Z</time></trkpt><trkpt lat="44.431933" lon="8.1476444"><ele>430.0</ele><time>2026-04-04T12:41:34.588Z</time></trkpt><trkpt lat="44.4317611" lon="8.1475335"><ele>430.0</ele><time>2026-04-04T12:41:35.586Z</time></trkpt><trkpt lat="44.4315778" lon="8.1474026"><ele>430.0</ele><time>2026-04-04T12:41:36.587Z</time></trkpt><trkpt lat="44.4313908" lon="8.1472478"><ele>430.0</ele><time>2026-04-04T12:41:37.587Z</time></trkpt><trkpt lat="44.4312031" lon="8.1471075"><ele>432.33333333333337</ele><time>2026-04-04T12:41:38.588Z</time></trkpt><trkpt lat="44.4310299" lon="8.1469824"><ele>434.66666666666663</ele><time>2026-04-04T12:41:39.587Z</time></trkpt><trkpt lat="44.4308645" lon="8.1468583"><ele>437.0</ele><time>2026-04-04T12:41:40.587Z</time></trkpt><trkpt lat="44.4306994" lon="8.1467283"><ele>437.0</ele><time>2026-04-04T12:41:41.587Z</time></trkpt><trkpt lat="44.4305275" lon="8.1465937"><ele>437.0</ele><time>2026-04-04T12:41:42.587Z</time></trkpt><trkpt lat="44.4303539" lon="8.1464645"><ele>437.0</ele><time>2026-04-04T12:41:43.588Z</time></trkpt><trkpt lat="44.4301852" lon="8.1463473"><ele>441.0</ele><time>2026-04-04T12:41:44.587Z</time></trkpt><trkpt lat="44.430025" lon="8.1462365"><ele>445.0</ele><time>2026-04-04T12:41:45.588Z</time></trkpt><trkpt lat="44.4298681" lon="8.1461248"><ele>449.0</ele><time>2026-04-04T12:41:46.588Z</time></trkpt><trkpt lat="44.4297132" lon="8.1459913"><ele>448.66666666666663</ele><time>2026-04-04T12:41:47.588Z</time></trkpt><trkpt lat="44.4295669" lon="8.1458412"><ele>448.33333333333337</ele><time>2026-04-04T12:41:48.588Z</time></trkpt><trkpt lat="44.429423" lon="8.1456819"><ele>448.0</ele><time>2026-04-04T12:41:49.588Z</time></trkpt><trkpt lat="44.4292744" lon="8.1455182"><ele>448.0</ele><time>2026-04-04T12:41:50.588Z</time></trkpt><trkpt lat="44.4291088" lon="8.1453747"><ele>448.0</ele><time>2026-04-04T12:41:51.588Z</time></trkpt><trkpt lat="44.4289233" lon="8.1452555"><ele>448.0</ele><time>2026-04-04T12:41:52.588Z</time></trkpt><trkpt lat="44.4287303" lon="8.1451459"><ele>447.0</ele><time>2026-04-04T12:41:53.588Z</time></trkpt><trkpt lat="44.4285369" lon="8.1450278"><ele>446.0</ele><time>2026-04-04T12:41:54.587Z</time></trkpt><trkpt lat="44.4283486" lon="8.1448987"><ele>445.0</ele><time>2026-04-04T12:41:55.587Z</time></trkpt><trkpt lat="44.4281741" lon="8.1447559"><ele>446.33333333333337</ele><time>2026-04-04T12:41:56.588Z</time></trkpt><trkpt lat="44.4280177" lon="8.144603"><ele>447.66666666666663</ele><time>2026-04-04T12:41:57.587Z</time></trkpt><trkpt lat="44.4278795" lon="8.1444216"><ele>449.0</ele><time>2026-04-04T12:41:58.588Z</time></trkpt><trkpt lat="44.4277543" lon="8.1442066"><ele>454.0</ele><time>2026-04-04T12:41:59.588Z</time></trkpt><trkpt lat="44.427637" lon="8.1439775"><ele>459.0</ele><time>2026-04-04T12:42:00.587Z</time></trkpt><trkpt lat="44.4275403" lon="8.1437673"><ele>464.0</ele><time>2026-04-04T12:42:01.587Z</time></trkpt><trkpt lat="44.4274452" lon="8.1435848"><ele>464.0</ele><time>2026-04-04T12:42:02.588Z</time></trkpt><trkpt lat="44.4273429" lon="8.1434238"><ele>464.0</ele><time>2026-04-04T12:42:03.588Z</time></trkpt><trkpt lat="44.4272331" lon="8.1432726"><ele>464.0</ele><time>2026-04-04T12:42:04.588Z</time></trkpt><trkpt lat="44.4270946" lon="8.1431391"><ele>465.3333333333333</ele><time>2026-04-04T12:42:05.588Z</time></trkpt><trkpt lat="44.4269152" lon="8.1430476"><ele>466.66666666666663</ele><time>2026-04-04T12:42:06.588Z</time></trkpt><trkpt lat="44.4267264" lon="8.1429419"><ele>468.0</ele><time>2026-04-04T12:42:07.588Z</time></trkpt><trkpt lat="44.426544" lon="8.1427914"><ele>468.0</ele><time>2026-04-04T12:42:08.588Z</time></trkpt><trkpt lat="44.4263591" lon="8.1426224"><ele>468.0</ele><time>2026-04-04T12:42:09.588Z</time></trkpt><trkpt lat="44.4261833" lon="8.1424684"><ele>468.0</ele><time>2026-04-04T12:42:10.587Z</time></trkpt><trkpt lat="44.4260257" lon="8.1423337"><ele>468.5</ele><time>2026-04-04T12:42:11.588Z</time></trkpt><trkpt lat="44.425889" lon="8.1422144"><ele>469.0</ele><time>2026-04-04T12:42:12.589Z</time></trkpt><trkpt lat="44.4257694" lon="8.1421185"><ele>469.5</ele><time>2026-04-04T12:42:13.588Z</time></trkpt><trkpt lat="44.4256624" lon="8.1420484"><ele>470.0</ele><time>2026-04-04T12:42:14.587Z</time></trkpt><trkpt lat="44.4255515" lon="8.1419952"><ele>474.75</ele><time>2026-04-04T12:42:15.587Z</time></trkpt><trkpt lat="44.4254274" lon="8.1419971"><ele>479.5</ele><time>2026-04-04T12:42:16.587Z</time></trkpt><trkpt lat="44.4253003" lon="8.1420564"><ele>484.25</ele><time>2026-04-04T12:42:17.588Z</time></trkpt><trkpt lat="44.4251522" lon="8.1421708"><ele>489.0</ele><time>2026-04-04T12:42:18.589Z</time></trkpt><trkpt lat="44.4250146" lon="8.1423287"><ele>487.0</ele><time>2026-04-04T12:42:19.588Z</time></trkpt><trkpt lat="44.4248499" lon="8.1424578"><ele>485.0</ele><time>2026-04-04T12:42:20.588Z</time></trkpt><trkpt lat="44.4246602" lon="8.1425851"><ele>483.0</ele><time>2026-04-04T12:42:21.588Z</time></trkpt><trkpt lat="44.4244791" lon="8.1427046"><ele>487.33333333333337</ele><time>2026-04-04T12:42:22.588Z</time></trkpt><trkpt lat="44.4242984" lon="8.1428357"><ele>491.6666666666667</ele><time>2026-04-04T12:42:23.588Z</time></trkpt><trkpt lat="44.4241247" lon="8.1429687"><ele>496.0</ele><time>2026-04-04T12:42:24.588Z</time></trkpt><trkpt lat="44.4239398" lon="8.1430922"><ele>498.6666666666667</ele><time>2026-04-04T12:42:25.588Z</time></trkpt><trkpt lat="44.4237634" lon="8.1432212"><ele>501.33333333333337</ele><time>2026-04-04T12:42:26.588Z</time></trkpt><trkpt lat="44.423603" lon="8.1433453"><ele>504.0</ele><time>2026-04-04T12:42:27.589Z</time></trkpt><trkpt lat="44.4234624" lon="8.1434535"><ele>504.0</ele><time>2026-04-04T12:42:28.588Z</time></trkpt><trkpt lat="44.4233413" lon="8.1435604"><ele>504.0</ele><time>2026-04-04T12:42:29.588Z</time></trkpt><trkpt lat="44.4232183" lon="8.1436577"><ele>504.0</ele><time>2026-04-04T12:42:30.587Z</time></trkpt><trkpt lat="44.4230949" lon="8.143735"><ele>504.0</ele><time>2026-04-04T12:42:31.588Z</time></trkpt><trkpt lat="44.4229726" lon="8.1437457"><ele>510.0</ele><time>2026-04-04T12:42:32.588Z</time></trkpt><trkpt lat="44.4228357" lon="8.1437051"><ele>516.0</ele><time>2026-04-04T12:42:33.588Z</time></trkpt><trkpt lat="44.4227038" lon="8.1435444"><ele>522.0</ele><time>2026-04-04T12:42:34.588Z</time></trkpt><trkpt lat="44.4225769" lon="8.1433766"><ele>521.0</ele><time>2026-04-04T12:42:35.588Z</time></trkpt><trkpt lat="44.4224254" lon="8.1432006"><ele>520.0</ele><time>2026-04-04T12:42:36.588Z</time></trkpt><trkpt lat="44.4222965" lon="8.1429897"><ele>519.0</ele><time>2026-04-04T12:42:37.588Z</time></trkpt><trkpt lat="44.4221786" lon="8.1427586"><ele>529.3333333333334</ele><time>2026-04-04T12:42:38.589Z</time></trkpt><trkpt lat="44.4220768" lon="8.1425304"><ele>539.6666666666667</ele><time>2026-04-04T12:42:39.588Z</time></trkpt><trkpt lat="44.4219922" lon="8.1423076"><ele>550.0</ele><time>2026-04-04T12:42:40.589Z</time></trkpt><trkpt lat="44.4219053" lon="8.1420876"><ele>550.0</ele><time>2026-04-04T12:42:41.588Z</time></trkpt><trkpt lat="44.4217999" lon="8.1418668"><ele>550.0</ele><time>2026-04-04T12:42:42.588Z</time></trkpt><trkpt lat="44.42172" lon="8.141643"><ele>550.0</ele><time>2026-04-04T12:42:43.588Z</time></trkpt><trkpt lat="44.4216719" lon="8.1414098"><ele>548.0</ele><time>2026-04-04T12:42:44.589Z</time></trkpt><trkpt lat="44.421649" lon="8.1411991"><ele>546.0</ele><time>2026-04-04T12:42:45.588Z</time></trkpt><trkpt lat="44.4216394" lon="8.1410115"><ele>544.0</ele><time>2026-04-04T12:42:46.589Z</time></trkpt><trkpt lat="44.4216096" lon="8.1408327"><ele>542.0</ele><time>2026-04-04T12:42:47.589Z</time></trkpt><trkpt lat="44.4215478" lon="8.1406627"><ele>544.3333333333333</ele><time>2026-04-04T12:42:48.589Z</time></trkpt><trkpt lat="44.4214457" lon="8.1405066"><ele>546.6666666666666</ele><time>2026-04-04T12:42:49.589Z</time></trkpt><trkpt lat="44.4212983" lon="8.1403761"><ele>549.0</ele><time>2026-04-04T12:42:50.589Z</time></trkpt><trkpt lat="44.4211286" lon="8.140271"><ele>549.0</ele><time>2026-04-04T12:42:51.588Z</time></trkpt><trkpt lat="44.4209335" lon="8.1401958"><ele>549.0</ele><time>2026-04-04T12:42:52.589Z</time></trkpt><trkpt lat="44.4207288" lon="8.1401174"><ele>549.0</ele><time>2026-04-04T12:42:53.588Z</time></trkpt><trkpt lat="44.4205277" lon="8.1400225"><ele>554.0</ele><time>2026-04-04T12:42:54.588Z</time></trkpt><trkpt lat="44.4203272" lon="8.1399246"><ele>559.0</ele><time>2026-04-04T12:42:55.588Z</time></trkpt><trkpt lat="44.4201421" lon="8.1398204"><ele>564.0</ele><time>2026-04-04T12:42:56.587Z</time></trkpt><trkpt lat="44.4199681" lon="8.1396994"><ele>564.0</ele><time>2026-04-04T12:42:57.589Z</time></trkpt><trkpt lat="44.419812" lon="8.1395474"><ele>564.0</ele><time>2026-04-04T12:42:58.588Z</time></trkpt><trkpt lat="44.4196691" lon="8.1393979"><ele>564.0</ele><time>2026-04-04T12:42:59.588Z</time></trkpt><trkpt lat="44.4195378" lon="8.1392529"><ele>569.6666666666666</ele><time>2026-04-04T12:43:00.589Z</time></trkpt><trkpt lat="44.4193968" lon="8.1391467"><ele>575.3333333333333</ele><time>2026-04-04T12:43:01.589Z</time></trkpt><trkpt lat="44.4192302" lon="8.1390843"><ele>581.0</ele><time>2026-04-04T12:43:02.589Z</time></trkpt><trkpt lat="44.4190636" lon="8.1390693"><ele>581.0</ele><time>2026-04-04T12:43:03.589Z</time></trkpt><trkpt lat="44.418909" lon="8.1391035"><ele>581.0</ele><time>2026-04-04T12:43:04.588Z</time></trkpt><trkpt lat="44.4187602" lon="8.1391882"><ele>581.0</ele><time>2026-04-04T12:43:05.588Z</time></trkpt><trkpt lat="44.4186099" lon="8.1393477"><ele>585.6666666666666</ele><time>2026-04-04T12:43:06.588Z</time></trkpt><trkpt lat="44.4184642" lon="8.1395231"><ele>590.3333333333334</ele><time>2026-04-04T12:43:07.589Z</time></trkpt><trkpt lat="44.4183318" lon="8.1396899"><ele>595.0</ele><time>2026-04-04T12:43:08.589Z</time></trkpt><trkpt lat="44.4182059" lon="8.1398299"><ele>595.25</ele><time>2026-04-04T12:43:09.588Z</time></trkpt><trkpt lat="44.4180885" lon="8.139937"><ele>595.5</ele><time>2026-04-04T12:43:10.589Z</time></trkpt><trkpt lat="44.417971" lon="8.1399979"><ele>595.75</ele><time>2026-04-04T12:43:11.589Z</time></trkpt><trkpt lat="44.4178489" lon="8.1399926"><ele>596.0</ele><time>2026-04-04T12:43:12.589Z</time></trkpt><trkpt lat="44.4177091" lon="8.1399327"><ele>599.0</ele><time>2026-04-04T12:43:13.589Z</time></trkpt><trkpt lat="44.4175556" lon="8.1397806"><ele>602.0</ele><time>2026-04-04T12:43:14.589Z</time></trkpt><trkpt lat="44.417405" lon="8.1395883"><ele>605.0</ele><time>2026-04-04T12:43:15.589Z</time></trkpt><trkpt lat="44.4172685" lon="8.1394059"><ele>607.5</ele><time>2026-04-04T12:43:16.588Z</time></trkpt><trkpt lat="44.4171371" lon="8.139257"><ele>610.0</ele><time>2026-04-04T12:43:17.589Z</time></trkpt><trkpt lat="44.4170141" lon="8.1391621"><ele>612.5</ele><time>2026-04-04T12:43:18.588Z</time></trkpt><trkpt lat="44.4169146" lon="8.1391141"><ele>615.0</ele><time>2026-04-04T12:43:19.59Z</time></trkpt><trkpt lat="44.4168427" lon="8.1390667"><ele>616.0</ele><time>2026-04-04T12:43:20.588Z</time></trkpt><trkpt lat="44.4167959" lon="8.1389925"><ele>617.0</ele><time>2026-04-04T12:43:21.59Z</time></trkpt><trkpt lat="44.4168467" lon="8.1388017"><ele>618.0</ele><time>2026-04-04T12:43:23.589Z</time></trkpt><trkpt lat="44.4169586" lon="8.1387135"><ele>619.0</ele><time>2026-04-04T12:43:24.588Z</time></trkpt><trkpt lat="44.4170974" lon="8.138662"><ele>619.0</ele><time>2026-04-04T12:43:25.588Z</time></trkpt><trkpt lat="44.4172471" lon="8.1386079"><ele>619.0</ele><time>2026-04-04T12:43:26.59Z</time></trkpt><trkpt lat="44.417427" lon="8.1385644"><ele>619.0</ele><time>2026-04-04T12:43:27.589Z</time></trkpt><trkpt lat="44.4175944" lon="8.1385099"><ele>619.0</ele><time>2026-04-04T12:43:28.589Z</time></trkpt><trkpt lat="44.4177334" lon="8.1384816"><ele>619.0</ele><time>2026-04-04T12:43:29.589Z</time></trkpt><trkpt lat="44.4178416" lon="8.1384694"><ele>619.0</ele><time>2026-04-04T12:43:30.589Z</time></trkpt><trkpt lat="44.4179394" lon="8.138465"><ele>619.0</ele><time>2026-04-04T12:43:31.589Z</time></trkpt><trkpt lat="44.4180356" lon="8.1383827"><ele>619.2</ele><time>2026-04-04T12:43:33.589Z</time></trkpt><trkpt lat="44.4180412" lon="8.138276"><ele>619.4</ele><time>2026-04-04T12:43:34.589Z</time></trkpt><trkpt lat="44.4179977" lon="8.1381434"><ele>619.6</ele><time>2026-04-04T12:43:35.589Z</time></trkpt><trkpt lat="44.4179064" lon="8.1380882"><ele>619.8</ele><time>2026-04-04T12:43:36.589Z</time></trkpt><trkpt lat="44.4177646" lon="8.1380943"><ele>620.0</ele><time>2026-04-04T12:43:37.589Z</time></trkpt><trkpt lat="44.4176112" lon="8.1381322"><ele>619.6666666666666</ele><time>2026-04-04T12:43:38.588Z</time></trkpt><trkpt lat="44.4174474" lon="8.1381933"><ele>619.3333333333334</ele><time>2026-04-04T12:43:39.588Z</time></trkpt><trkpt lat="44.4172895" lon="8.1382441"><ele>619.0</ele><time>2026-04-04T12:43:40.59Z</time></trkpt><trkpt lat="44.4171447" lon="8.1382615"><ele>619.0</ele><time>2026-04-04T12:43:41.59Z</time></trkpt><trkpt lat="44.4170281" lon="8.1382406"><ele>619.0</ele><time>2026-04-04T12:43:42.59Z</time></trkpt><trkpt lat="44.4168952" lon="8.1381438"><ele>619.0</ele><time>2026-04-04T12:43:43.59Z</time></trkpt><trkpt lat="44.4167573" lon="8.1379499"><ele>624.0</ele><time>2026-04-04T12:43:44.59Z</time></trkpt><trkpt lat="44.4166052" lon="8.1376881"><ele>629.0</ele><time>2026-04-04T12:43:45.59Z</time></trkpt><trkpt lat="44.4164526" lon="8.1374656"><ele>635.3333333333333</ele><time>2026-04-04T12:43:46.589Z</time></trkpt><trkpt lat="44.4163091" lon="8.1372839"><ele>641.6666666666666</ele><time>2026-04-04T12:43:47.589Z</time></trkpt><trkpt lat="44.4161827" lon="8.1371197"><ele>648.0</ele><time>2026-04-04T12:43:48.589Z</time></trkpt><trkpt lat="44.4160661" lon="8.136957"><ele>648.0</ele><time>2026-04-04T12:43:49.59Z</time></trkpt><trkpt lat="44.415955" lon="8.1367835"><ele>648.0</ele><time>2026-04-04T12:43:50.59Z</time></trkpt><trkpt lat="44.4158652" lon="8.1366106"><ele>648.0</ele><time>2026-04-04T12:43:51.588Z</time></trkpt><trkpt lat="44.4158222" lon="8.1364215"><ele>652.0</ele><time>2026-04-04T12:43:52.589Z</time></trkpt><trkpt lat="44.4157718" lon="8.1362476"><ele>656.0</ele><time>2026-04-04T12:43:53.59Z</time></trkpt><trkpt lat="44.4156724" lon="8.1361143"><ele>660.0</ele><time>2026-04-04T12:43:54.59Z</time></trkpt><trkpt lat="44.4155249" lon="8.1360325"><ele>664.0</ele><time>2026-04-04T12:43:55.589Z</time></trkpt><trkpt lat="44.4153525" lon="8.1359563"><ele>664.0</ele><time>2026-04-04T12:43:56.59Z</time></trkpt><trkpt lat="44.4151536" lon="8.1358724"><ele>664.0</ele><time>2026-04-04T12:43:57.59Z</time></trkpt><trkpt lat="44.4149527" lon="8.1357801"><ele>664.0</ele><time>2026-04-04T12:43:58.59Z</time></trkpt><trkpt lat="44.4147608" lon="8.1356902"><ele>667.0</ele><time>2026-04-04T12:43:59.59Z</time></trkpt><trkpt lat="44.414593" lon="8.1356206"><ele>670.0</ele><time>2026-04-04T12:44:00.589Z</time></trkpt><trkpt lat="44.4144496" lon="8.1355531"><ele>673.0</ele><time>2026-04-04T12:44:01.59Z</time></trkpt><trkpt lat="44.4143017" lon="8.135488"><ele>673.0</ele><time>2026-04-04T12:44:02.589Z</time></trkpt><trkpt lat="44.4141361" lon="8.1354247"><ele>673.0</ele><time>2026-04-04T12:44:03.59Z</time></trkpt><trkpt lat="44.4139471" lon="8.1353545"><ele>673.0</ele><time>2026-04-04T12:44:04.59Z</time></trkpt><trkpt lat="44.4137408" lon="8.1352805"><ele>669.6666666666667</ele><time>2026-04-04T12:44:05.591Z</time></trkpt><trkpt lat="44.4135383" lon="8.1352051"><ele>666.3333333333334</ele><time>2026-04-04T12:44:06.588Z</time></trkpt><trkpt lat="44.4133523" lon="8.1351278"><ele>663.0</ele><time>2026-04-04T12:44:07.59Z</time></trkpt><trkpt lat="44.41317" lon="8.1350513"><ele>661.3333333333334</ele><time>2026-04-04T12:44:08.59Z</time></trkpt><trkpt lat="44.4129782" lon="8.1349604"><ele>659.6666666666667</ele><time>2026-04-04T12:44:09.589Z</time></trkpt><trkpt lat="44.4127804" lon="8.1348527"><ele>658.0</ele><time>2026-04-04T12:44:10.59Z</time></trkpt><trkpt lat="44.4125783" lon="8.1347139"><ele>657.0</ele><time>2026-04-04T12:44:11.59Z</time></trkpt><trkpt lat="44.4123789" lon="8.1345448"><ele>656.0</ele><time>2026-04-04T12:44:12.589Z</time></trkpt><trkpt lat="44.4121855" lon="8.134355"><ele>653.5</ele><time>2026-04-04T12:44:13.59Z</time></trkpt><trkpt lat="44.4120036" lon="8.1341524"><ele>651.0</ele><time>2026-04-04T12:44:14.59Z</time></trkpt><trkpt lat="44.4118271" lon="8.1339432"><ele>651.0</ele><time>2026-04-04T12:44:15.59Z</time></trkpt><trkpt lat="44.4116548" lon="8.1337356"><ele>651.0</ele><time>2026-04-04T12:44:16.591Z</time></trkpt><trkpt lat="44.4114829" lon="8.1335272"><ele>651.0</ele><time>2026-04-04T12:44:17.59Z</time></trkpt><trkpt lat="44.4113024" lon="8.1333156"><ele>651.0</ele><time>2026-04-04T12:44:18.59Z</time></trkpt><trkpt lat="44.4111215" lon="8.1331017"><ele>650.0</ele><time>2026-04-04T12:44:19.59Z</time></trkpt><trkpt lat="44.410939" lon="8.1328859"><ele>649.0</ele><time>2026-04-04T12:44:20.59Z</time></trkpt><trkpt lat="44.4107536" lon="8.1326672"><ele>649.0</ele><time>2026-04-04T12:44:21.59Z</time></trkpt><trkpt lat="44.4105631" lon="8.1324423"><ele>649.0</ele><time>2026-04-04T12:44:22.59Z</time></trkpt><trkpt lat="44.4103563" lon="8.1322007"><ele>646.5</ele><time>2026-04-04T12:44:23.59Z</time></trkpt><trkpt lat="44.4101437" lon="8.1319444"><ele>644.0</ele><time>2026-04-04T12:44:24.59Z</time></trkpt><trkpt lat="44.4099543" lon="8.1317259"><ele>643.3333333333333</ele><time>2026-04-04T12:44:25.59Z</time></trkpt><trkpt lat="44.4097793" lon="8.1315226"><ele>642.6666666666666</ele><time>2026-04-04T12:44:26.59Z</time></trkpt><trkpt lat="44.4096159" lon="8.1313308"><ele>642.0</ele><time>2026-04-04T12:44:27.59Z</time></trkpt><trkpt lat="44.4094535" lon="8.1311364"><ele>642.0</ele><time>2026-04-04T12:44:28.59Z</time></trkpt><trkpt lat="44.4092942" lon="8.1309438"><ele>642.0</ele><time>2026-04-04T12:44:29.59Z</time></trkpt><trkpt lat="44.4091427" lon="8.1307644"><ele>642.0</ele><time>2026-04-04T12:44:30.59Z</time></trkpt><trkpt lat="44.4090022" lon="8.1306041"><ele>643.0</ele><time>2026-04-04T12:44:31.591Z</time></trkpt><trkpt lat="44.4088696" lon="8.1304586"><ele>644.0</ele><time>2026-04-04T12:44:32.59Z</time></trkpt><trkpt lat="44.4087452" lon="8.1303143"><ele>645.0</ele><time>2026-04-04T12:44:33.59Z</time></trkpt><trkpt lat="44.4086309" lon="8.130158"><ele>642.3333333333334</ele><time>2026-04-04T12:44:34.59Z</time></trkpt><trkpt lat="44.4085318" lon="8.1299678"><ele>639.6666666666667</ele><time>2026-04-04T12:44:35.59Z</time></trkpt><trkpt lat="44.4084768" lon="8.1296931"><ele>637.0</ele><time>2026-04-04T12:44:36.589Z</time></trkpt><trkpt lat="44.4084191" lon="8.1294009"><ele>636.6666666666667</ele><time>2026-04-04T12:44:37.59Z</time></trkpt><trkpt lat="44.4083672" lon="8.1291277"><ele>636.3333333333334</ele><time>2026-04-04T12:44:38.59Z</time></trkpt><trkpt lat="44.4083072" lon="8.1288954"><ele>636.0</ele><time>2026-04-04T12:44:39.59Z</time></trkpt><trkpt lat="44.4082466" lon="8.1286894"><ele>634.3333333333334</ele><time>2026-04-04T12:44:40.591Z</time></trkpt><trkpt lat="44.4081875" lon="8.1284824"><ele>632.6666666666667</ele><time>2026-04-04T12:44:41.591Z</time></trkpt><trkpt lat="44.4081327" lon="8.1282628"><ele>631.0</ele><time>2026-04-04T12:44:42.59Z</time></trkpt><trkpt lat="44.4080682" lon="8.1280405"><ele>631.0</ele><time>2026-04-04T12:44:43.589Z</time></trkpt><trkpt lat="44.4080133" lon="8.1278455"><ele>631.0</ele><time>2026-04-04T12:44:44.59Z</time></trkpt><trkpt lat="44.4079666" lon="8.1276646"><ele>631.0</ele><time>2026-04-04T12:44:45.59Z</time></trkpt><trkpt lat="44.4079208" lon="8.1274775"><ele>631.0</ele><time>2026-04-04T12:44:46.59Z</time></trkpt><trkpt lat="44.4078775" lon="8.1272805"><ele>630.0</ele><time>2026-04-04T12:44:47.591Z</time></trkpt><trkpt lat="44.4078245" lon="8.1270645"><ele>629.0</ele><time>2026-04-04T12:44:48.59Z</time></trkpt><trkpt lat="44.4077589" lon="8.1268377"><ele>628.0</ele><time>2026-04-04T12:44:49.59Z</time></trkpt><trkpt lat="44.4076949" lon="8.1265937"><ele>627.3333333333334</ele><time>2026-04-04T12:44:50.591Z</time></trkpt><trkpt lat="44.4076289" lon="8.1263437"><ele>626.6666666666666</ele><time>2026-04-04T12:44:51.591Z</time></trkpt><trkpt lat="44.4075581" lon="8.1260861"><ele>626.0</ele><time>2026-04-04T12:44:52.591Z</time></trkpt><trkpt lat="44.4074899" lon="8.1258112"><ele>626.3333333333333</ele><time>2026-04-04T12:44:53.59Z</time></trkpt><trkpt lat="44.4074154" lon="8.1255268"><ele>626.6666666666666</ele><time>2026-04-04T12:44:54.59Z</time></trkpt><trkpt lat="44.4073427" lon="8.1252487"><ele>627.0</ele><time>2026-04-04T12:44:55.59Z</time></trkpt><trkpt lat="44.4072715" lon="8.124993"><ele>627.0</ele><time>2026-04-04T12:44:56.591Z</time></trkpt><trkpt lat="44.4072102" lon="8.1247663"><ele>627.0</ele><time>2026-04-04T12:44:57.591Z</time></trkpt><trkpt lat="44.4071472" lon="8.1245624"><ele>627.0</ele><time>2026-04-04T12:44:58.59Z</time></trkpt><trkpt lat="44.4070824" lon="8.1243712"><ele>629.25</ele><time>2026-04-04T12:44:59.591Z</time></trkpt><trkpt lat="44.4069969" lon="8.1242006"><ele>631.5</ele><time>2026-04-04T12:45:00.59Z</time></trkpt><trkpt lat="44.4068863" lon="8.1240674"><ele>633.75</ele><time>2026-04-04T12:45:01.59Z</time></trkpt><trkpt lat="44.4067585" lon="8.123974"><ele>636.0</ele><time>2026-04-04T12:45:02.591Z</time></trkpt><trkpt lat="44.4066265" lon="8.1239267"><ele>636.75</ele><time>2026-04-04T12:45:03.59Z</time></trkpt><trkpt lat="44.4064879" lon="8.1239578"><ele>637.5</ele><time>2026-04-04T12:45:04.59Z</time></trkpt><trkpt lat="44.4063498" lon="8.124026"><ele>638.25</ele><time>2026-04-04T12:45:05.591Z</time></trkpt><trkpt lat="44.4062267" lon="8.1241223"><ele>639.0</ele><time>2026-04-04T12:45:06.591Z</time></trkpt><trkpt lat="44.4060831" lon="8.1241499"><ele>639.0</ele><time>2026-04-04T12:45:07.591Z</time></trkpt><trkpt lat="44.405936" lon="8.1240963"><ele>639.0</ele><time>2026-04-04T12:45:08.59Z</time></trkpt><trkpt lat="44.4057783" lon="8.1239023"><ele>639.0</ele><time>2026-04-04T12:45:09.591Z</time></trkpt><trkpt lat="44.4056435" lon="8.123691"><ele>642.0</ele><time>2026-04-04T12:45:10.591Z</time></trkpt><trkpt lat="44.405486" lon="8.1234876"><ele>645.0</ele><time>2026-04-04T12:45:11.591Z</time></trkpt><trkpt lat="44.4053251" lon="8.1233065"><ele>648.0</ele><time>2026-04-04T12:45:12.591Z</time></trkpt><trkpt lat="44.4051752" lon="8.1231418"><ele>650.3333333333334</ele><time>2026-04-04T12:45:13.591Z</time></trkpt><trkpt lat="44.4050591" lon="8.1229521"><ele>652.6666666666667</ele><time>2026-04-04T12:45:14.591Z</time></trkpt><trkpt lat="44.4049688" lon="8.1227073"><ele>655.0</ele><time>2026-04-04T12:45:15.591Z</time></trkpt><trkpt lat="44.4048834" lon="8.1223964"><ele>656.5</ele><time>2026-04-04T12:45:16.59Z</time></trkpt><trkpt lat="44.4047815" lon="8.122085"><ele>658.0</ele><time>2026-04-04T12:45:17.591Z</time></trkpt><trkpt lat="44.40464" lon="8.1217786"><ele>663.0</ele><time>2026-04-04T12:45:18.591Z</time></trkpt><trkpt lat="44.4044949" lon="8.1214842"><ele>668.0</ele><time>2026-04-04T12:45:19.591Z</time></trkpt><trkpt lat="44.4043472" lon="8.1212111"><ele>668.0</ele><time>2026-04-04T12:45:20.591Z</time></trkpt><trkpt lat="44.404211" lon="8.1209459"><ele>668.0</ele><time>2026-04-04T12:45:21.591Z</time></trkpt><trkpt lat="44.4040859" lon="8.1206907"><ele>667.0</ele><time>2026-04-04T12:45:22.591Z</time></trkpt><trkpt lat="44.4039642" lon="8.1204555"><ele>666.0</ele><time>2026-04-04T12:45:23.591Z</time></trkpt><trkpt lat="44.4038536" lon="8.1202373"><ele>665.0</ele><time>2026-04-04T12:45:24.591Z</time></trkpt><trkpt lat="44.4037663" lon="8.1200394"><ele>667.5</ele><time>2026-04-04T12:45:25.59Z</time></trkpt><trkpt lat="44.4037151" lon="8.1198615"><ele>670.0</ele><time>2026-04-04T12:45:26.591Z</time></trkpt><trkpt lat="44.4036809" lon="8.1197061"><ele>672.5</ele><time>2026-04-04T12:45:27.591Z</time></trkpt><trkpt lat="44.4036585" lon="8.1195837"><ele>675.0</ele><time>2026-04-04T12:45:28.591Z</time></trkpt><trkpt lat="44.4035657" lon="8.1194844"><ele>675.0</ele><time>2026-04-04T12:45:30.591Z</time></trkpt><trkpt lat="44.4034865" lon="8.119527"><ele>675.0</ele><time>2026-04-04T12:45:31.591Z</time></trkpt><trkpt lat="44.4034132" lon="8.1196253"><ele>675.0</ele><time>2026-04-04T12:45:32.592Z</time></trkpt><trkpt lat="44.4033923" lon="8.1197695"><ele>675.0</ele><time>2026-04-04T12:45:33.591Z</time></trkpt><trkpt lat="44.4034153" lon="8.1199284"><ele>675.0</ele><time>2026-04-04T12:45:34.591Z</time></trkpt><trkpt lat="44.4034714" lon="8.1200895"><ele>675.5</ele><time>2026-04-04T12:45:35.591Z</time></trkpt><trkpt lat="44.4035022" lon="8.1202485"><ele>676.0</ele><time>2026-04-04T12:45:36.591Z</time></trkpt><trkpt lat="44.4034542" lon="8.1203754"><ele>676.5</ele><time>2026-04-04T12:45:37.591Z</time></trkpt><trkpt lat="44.4033333" lon="8.120447"><ele>677.0</ele><time>2026-04-04T12:45:38.591Z</time></trkpt><trkpt lat="44.4032185" lon="8.1204648"><ele>677.0</ele><time>2026-04-04T12:45:39.59Z</time></trkpt><trkpt lat="44.4031135" lon="8.1204"><ele>677.0</ele><time>2026-04-04T12:45:40.591Z</time></trkpt><trkpt lat="44.4030318" lon="8.1202484"><ele>677.0</ele><time>2026-04-04T12:45:41.591Z</time></trkpt><trkpt lat="44.4029704" lon="8.1200553"><ele>677.0</ele><time>2026-04-04T12:45:42.591Z</time></trkpt><trkpt lat="44.4029115" lon="8.1198195"><ele>679.6666666666666</ele><time>2026-04-04T12:45:43.591Z</time></trkpt><trkpt lat="44.4028316" lon="8.1195773"><ele>682.3333333333334</ele><time>2026-04-04T12:45:44.591Z</time></trkpt><trkpt lat="44.4027448" lon="8.1193655"><ele>685.0</ele><time>2026-04-04T12:45:45.592Z</time></trkpt><trkpt lat="44.4026705" lon="8.1191999"><ele>686.5</ele><time>2026-04-04T12:45:46.591Z</time></trkpt><trkpt lat="44.4026085" lon="8.1190507"><ele>688.0</ele><time>2026-04-04T12:45:47.59Z</time></trkpt><trkpt lat="44.4025576" lon="8.1189222"><ele>689.5</ele><time>2026-04-04T12:45:48.592Z</time></trkpt><trkpt lat="44.4024972" lon="8.1187772"><ele>691.0</ele><time>2026-04-04T12:45:49.592Z</time></trkpt><trkpt lat="44.4024179" lon="8.1186291"><ele>691.0</ele><time>2026-04-04T12:45:50.592Z</time></trkpt><trkpt lat="44.4023197" lon="8.1184925"><ele>691.0</ele><time>2026-04-04T12:45:51.591Z</time></trkpt><trkpt lat="44.4022244" lon="8.118377"><ele>691.0</ele><time>2026-04-04T12:45:52.592Z</time></trkpt><trkpt lat="44.4021425" lon="8.1182903"><ele>691.0</ele><time>2026-04-04T12:45:53.591Z</time></trkpt><trkpt lat="44.402062" lon="8.118204"><ele>693.1999999999999</ele><time>2026-04-04T12:45:54.591Z</time></trkpt><trkpt lat="44.4019681" lon="8.1180937"><ele>695.4</ele><time>2026-04-04T12:45:55.591Z</time></trkpt><trkpt lat="44.4018826" lon="8.1179847"><ele>697.6</ele><time>2026-04-04T12:45:56.591Z</time></trkpt><trkpt lat="44.4018175" lon="8.1178836"><ele>699.8</ele><time>2026-04-04T12:45:57.592Z</time></trkpt><trkpt lat="44.4017648" lon="8.1177933"><ele>702.0</ele><time>2026-04-04T12:45:58.591Z</time></trkpt><trkpt lat="44.4017169" lon="8.11771"><ele>702.0</ele><time>2026-04-04T12:45:59.591Z</time></trkpt><trkpt lat="44.4016886" lon="8.1176298"><ele>702.0</ele><time>2026-04-04T12:46:00.591Z</time></trkpt><trkpt lat="44.4016793" lon="8.1174627"><ele>702.0</ele><time>2026-04-04T12:46:02.591Z</time></trkpt><trkpt lat="44.4016188" lon="8.1173631"><ele>702.0</ele><time>2026-04-04T12:46:04.592Z</time></trkpt><trkpt lat="44.4015519" lon="8.1173695"><ele>702.0</ele><time>2026-04-04T12:46:05.59Z</time></trkpt><trkpt lat="44.4014826" lon="8.1174123"><ele>702.0</ele><time>2026-04-04T12:46:06.591Z</time></trkpt><trkpt lat="44.4014204" lon="8.1174928"><ele>702.0</ele><time>2026-04-04T12:46:07.592Z</time></trkpt><trkpt lat="44.401372" lon="8.1175991"><ele>702.0</ele><time>2026-04-04T12:46:08.592Z</time></trkpt><trkpt lat="44.4013003" lon="8.1177336"><ele>702.0</ele><time>2026-04-04T12:46:09.592Z</time></trkpt><trkpt lat="44.4011594" lon="8.117832"><ele>702.0</ele><time>2026-04-04T12:46:10.591Z</time></trkpt><trkpt lat="44.401009" lon="8.1179424"><ele>701.6666666666666</ele><time>2026-04-04T12:46:11.592Z</time></trkpt><trkpt lat="44.4008615" lon="8.1180811"><ele>701.3333333333333</ele><time>2026-04-04T12:46:12.592Z</time></trkpt><trkpt lat="44.4007281" lon="8.1182669"><ele>701.0</ele><time>2026-04-04T12:46:13.591Z</time></trkpt><trkpt lat="44.4006053" lon="8.1184965"><ele>701.0</ele><time>2026-04-04T12:46:14.592Z</time></trkpt><trkpt lat="44.4005085" lon="8.1187603"><ele>701.0</ele><time>2026-04-04T12:46:15.592Z</time></trkpt><trkpt lat="44.4003995" lon="8.1190212"><ele>701.0</ele><time>2026-04-04T12:46:16.592Z</time></trkpt><trkpt lat="44.4003163" lon="8.1193091"><ele>704.6666666666666</ele><time>2026-04-04T12:46:17.592Z</time></trkpt><trkpt lat="44.4002558" lon="8.119597"><ele>708.3333333333334</ele><time>2026-04-04T12:46:18.592Z</time></trkpt><trkpt lat="44.4002081" lon="8.1198712"><ele>712.0</ele><time>2026-04-04T12:46:19.592Z</time></trkpt><trkpt lat="44.4001616" lon="8.1201324"><ele>712.0</ele><time>2026-04-04T12:46:20.592Z</time></trkpt><trkpt lat="44.4001406" lon="8.1203776"><ele>712.0</ele><time>2026-04-04T12:46:21.591Z</time></trkpt><trkpt lat="44.4001005" lon="8.1206013"><ele>712.0</ele><time>2026-04-04T12:46:22.592Z</time></trkpt><trkpt lat="44.4000202" lon="8.1208209"><ele>712.0</ele><time>2026-04-04T12:46:23.593Z</time></trkpt><trkpt lat="44.3998992" lon="8.1210175"><ele>712.0</ele><time>2026-04-04T12:46:24.593Z</time></trkpt><trkpt lat="44.3997591" lon="8.1212021"><ele>712.0</ele><time>2026-04-04T12:46:25.592Z</time></trkpt><trkpt lat="44.3995956" lon="8.1213912"><ele>710.6666666666667</ele><time>2026-04-04T12:46:26.592Z</time></trkpt><trkpt lat="44.3994382" lon="8.1215994"><ele>709.3333333333334</ele><time>2026-04-04T12:46:27.591Z</time></trkpt><trkpt lat="44.399281" lon="8.1218213"><ele>708.0</ele><time>2026-04-04T12:46:28.592Z</time></trkpt><trkpt lat="44.3991119" lon="8.1220234"><ele>708.0</ele><time>2026-04-04T12:46:29.592Z</time></trkpt><trkpt lat="44.3989349" lon="8.1221972"><ele>708.0</ele><time>2026-04-04T12:46:30.593Z</time></trkpt><trkpt lat="44.3987384" lon="8.1223289"><ele>708.0</ele><time>2026-04-04T12:46:31.592Z</time></trkpt><trkpt lat="44.3985599" lon="8.1224739"><ele>705.3333333333334</ele><time>2026-04-04T12:46:32.592Z</time></trkpt><trkpt lat="44.3983983" lon="8.122621"><ele>702.6666666666667</ele><time>2026-04-04T12:46:33.592Z</time></trkpt><trkpt lat="44.3982475" lon="8.1227701"><ele>700.0</ele><time>2026-04-04T12:46:34.592Z</time></trkpt><trkpt lat="44.3981023" lon="8.1229072"><ele>697.75</ele><time>2026-04-04T12:46:35.592Z</time></trkpt><trkpt lat="44.3979793" lon="8.1230035"><ele>695.5</ele><time>2026-04-04T12:46:36.592Z</time></trkpt><trkpt lat="44.3978673" lon="8.1231004"><ele>693.25</ele><time>2026-04-04T12:46:37.592Z</time></trkpt><trkpt lat="44.3977657" lon="8.1232556"><ele>691.0</ele><time>2026-04-04T12:46:38.591Z</time></trkpt><trkpt lat="44.3977027" lon="8.1234693"><ele>691.0</ele><time>2026-04-04T12:46:39.592Z</time></trkpt><trkpt lat="44.3976618" lon="8.123689"><ele>691.0</ele><time>2026-04-04T12:46:40.593Z</time></trkpt><trkpt lat="44.3976675" lon="8.1239018"><ele>691.0</ele><time>2026-04-04T12:46:41.592Z</time></trkpt><trkpt lat="44.397691" lon="8.1241167"><ele>690.0</ele><time>2026-04-04T12:46:42.592Z</time></trkpt><trkpt lat="44.3976838" lon="8.124305"><ele>689.0</ele><time>2026-04-04T12:46:43.592Z</time></trkpt><trkpt lat="44.3976412" lon="8.1245145"><ele>688.0</ele><time>2026-04-04T12:46:44.592Z</time></trkpt><trkpt lat="44.3975361" lon="8.1247229"><ele>688.0</ele><time>2026-04-04T12:46:45.593Z</time></trkpt><trkpt lat="44.3973744" lon="8.1248892"><ele>688.0</ele><time>2026-04-04T12:46:46.592Z</time></trkpt><trkpt lat="44.3971635" lon="8.125051"><ele>688.0</ele><time>2026-04-04T12:46:47.593Z</time></trkpt><trkpt lat="44.3969794" lon="8.1251861"><ele>686.0</ele><time>2026-04-04T12:46:48.592Z</time></trkpt><trkpt lat="44.3968181" lon="8.1253176"><ele>684.0</ele><time>2026-04-04T12:46:49.592Z</time></trkpt><trkpt lat="44.3966781" lon="8.1254441"><ele>682.0</ele><time>2026-04-04T12:46:50.592Z</time></trkpt><trkpt lat="44.3965397" lon="8.1256038"><ele>681.0</ele><time>2026-04-04T12:46:51.592Z</time></trkpt><trkpt lat="44.396429" lon="8.1258139"><ele>680.0</ele><time>2026-04-04T12:46:52.592Z</time></trkpt><trkpt lat="44.3963487" lon="8.1260716"><ele>679.0</ele><time>2026-04-04T12:46:53.591Z</time></trkpt><trkpt lat="44.3962967" lon="8.1263458"><ele>679.6666666666667</ele><time>2026-04-04T12:46:54.592Z</time></trkpt><trkpt lat="44.3962758" lon="8.1266124"><ele>680.3333333333334</ele><time>2026-04-04T12:46:55.592Z</time></trkpt><trkpt lat="44.3962598" lon="8.1268446"><ele>681.0</ele><time>2026-04-04T12:46:56.592Z</time></trkpt><trkpt lat="44.396236" lon="8.1270614"><ele>681.0</ele><time>2026-04-04T12:46:57.593Z</time></trkpt><trkpt lat="44.3961915" lon="8.1272715"><ele>681.0</ele><time>2026-04-04T12:46:58.593Z</time></trkpt><trkpt lat="44.3961104" lon="8.127476"><ele>681.0</ele><time>2026-04-04T12:46:59.592Z</time></trkpt><trkpt lat="44.3960192" lon="8.1276703"><ele>680.0</ele><time>2026-04-04T12:47:00.593Z</time></trkpt><trkpt lat="44.3959105" lon="8.1278611"><ele>679.0</ele><time>2026-04-04T12:47:01.592Z</time></trkpt><trkpt lat="44.3957799" lon="8.1280308"><ele>678.0</ele><time>2026-04-04T12:47:02.593Z</time></trkpt><trkpt lat="44.3956275" lon="8.1281818"><ele>674.3333333333334</ele><time>2026-04-04T12:47:03.593Z</time></trkpt><trkpt lat="44.3954579" lon="8.1283115"><ele>670.6666666666667</ele><time>2026-04-04T12:47:04.592Z</time></trkpt><trkpt lat="44.3952742" lon="8.1284253"><ele>667.0</ele><time>2026-04-04T12:47:05.592Z</time></trkpt><trkpt lat="44.3950884" lon="8.1285273"><ele>667.0</ele><time>2026-04-04T12:47:06.593Z</time></trkpt><trkpt lat="44.3949031" lon="8.1286163"><ele>667.0</ele><time>2026-04-04T12:47:07.593Z</time></trkpt><trkpt lat="44.3947178" lon="8.1286875"><ele>667.0</ele><time>2026-04-04T12:47:08.592Z</time></trkpt><trkpt lat="44.3945356" lon="8.1287224"><ele>668.0</ele><time>2026-04-04T12:47:09.592Z</time></trkpt><trkpt lat="44.3943651" lon="8.1287272"><ele>669.0</ele><time>2026-04-04T12:47:10.593Z</time></trkpt><trkpt lat="44.3941852" lon="8.1287238"><ele>670.0</ele><time>2026-04-04T12:47:11.592Z</time></trkpt><trkpt lat="44.3940031" lon="8.1287604"><ele>672.0</ele><time>2026-04-04T12:47:12.593Z</time></trkpt><trkpt lat="44.3938366" lon="8.1288398"><ele>674.0</ele><time>2026-04-04T12:47:13.592Z</time></trkpt><trkpt lat="44.393676" lon="8.128959"><ele>676.0</ele><time>2026-04-04T12:47:14.591Z</time></trkpt><trkpt lat="44.3935303" lon="8.1290974"><ele>676.0</ele><time>2026-04-04T12:47:15.593Z</time></trkpt><trkpt lat="44.3934031" lon="8.1292566"><ele>676.0</ele><time>2026-04-04T12:47:16.593Z</time></trkpt><trkpt lat="44.3932702" lon="8.1294254"><ele>676.0</ele><time>2026-04-04T12:47:17.593Z</time></trkpt><trkpt lat="44.3931512" lon="8.1296032"><ele>676.0</ele><time>2026-04-04T12:47:18.594Z</time></trkpt><trkpt lat="44.3930399" lon="8.129813"><ele>676.0</ele><time>2026-04-04T12:47:19.593Z</time></trkpt><trkpt lat="44.3929096" lon="8.1299702"><ele>676.0</ele><time>2026-04-04T12:47:20.593Z</time></trkpt><trkpt lat="44.3927558" lon="8.1301047"><ele>679.3333333333334</ele><time>2026-04-04T12:47:21.593Z</time></trkpt><trkpt lat="44.3925865" lon="8.1302162"><ele>682.6666666666666</ele><time>2026-04-04T12:47:22.593Z</time></trkpt><trkpt lat="44.3924307" lon="8.1303114"><ele>686.0</ele><time>2026-04-04T12:47:23.593Z</time></trkpt><trkpt lat="44.3922859" lon="8.1303994"><ele>688.3333333333333</ele><time>2026-04-04T12:47:24.593Z</time></trkpt><trkpt lat="44.392145" lon="8.1304703"><ele>690.6666666666666</ele><time>2026-04-04T12:47:25.592Z</time></trkpt><trkpt lat="44.391986" lon="8.1304754"><ele>693.0</ele><time>2026-04-04T12:47:26.592Z</time></trkpt><trkpt lat="44.3918122" lon="8.1304461"><ele>693.0</ele><time>2026-04-04T12:47:27.593Z</time></trkpt><trkpt lat="44.3916585" lon="8.1303217"><ele>693.0</ele><time>2026-04-04T12:47:28.593Z</time></trkpt><trkpt lat="44.3915177" lon="8.1302065"><ele>693.0</ele><time>2026-04-04T12:47:29.593Z</time></trkpt><trkpt lat="44.3913621" lon="8.1300951"><ele>694.0</ele><time>2026-04-04T12:47:30.593Z</time></trkpt><trkpt lat="44.3912343" lon="8.1300121"><ele>695.0</ele><time>2026-04-04T12:47:31.593Z</time></trkpt><trkpt lat="44.3910974" lon="8.129984"><ele>696.0</ele><time>2026-04-04T12:47:32.595Z</time></trkpt><trkpt lat="44.3909605" lon="8.1300282"><ele>697.0</ele><time>2026-04-04T12:47:33.593Z</time></trkpt><trkpt lat="44.3908442" lon="8.1301354"><ele>697.0</ele><time>2026-04-04T12:47:34.593Z</time></trkpt><trkpt lat="44.390732" lon="8.1302882"><ele>697.0</ele><time>2026-04-04T12:47:35.594Z</time></trkpt><trkpt lat="44.3906504" lon="8.130507"><ele>697.0</ele><time>2026-04-04T12:47:36.593Z</time></trkpt><trkpt lat="44.3905713" lon="8.1307438"><ele>698.3333333333334</ele><time>2026-04-04T12:47:37.593Z</time></trkpt><trkpt lat="44.3904363" lon="8.1309538"><ele>699.6666666666666</ele><time>2026-04-04T12:47:38.594Z</time></trkpt><trkpt lat="44.3902528" lon="8.1311068"><ele>701.0</ele><time>2026-04-04T12:47:39.593Z</time></trkpt><trkpt lat="44.3900557" lon="8.1312655"><ele>701.0</ele><time>2026-04-04T12:47:40.593Z</time></trkpt><trkpt lat="44.389868" lon="8.1314678"><ele>701.0</ele><time>2026-04-04T12:47:41.594Z</time></trkpt><trkpt lat="44.3896731" lon="8.1316547"><ele>704.5</ele><time>2026-04-04T12:47:42.593Z</time></trkpt><trkpt lat="44.3894629" lon="8.1317975"><ele>708.0</ele><time>2026-04-04T12:47:43.594Z</time></trkpt><trkpt lat="44.3892451" lon="8.131905"><ele>708.0</ele><time>2026-04-04T12:47:44.593Z</time></trkpt><trkpt lat="44.3890249" lon="8.1319938"><ele>708.0</ele><time>2026-04-04T12:47:45.593Z</time></trkpt><trkpt lat="44.3888343" lon="8.1320741"><ele>708.0</ele><time>2026-04-04T12:47:46.593Z</time></trkpt><trkpt lat="44.3886642" lon="8.1321612"><ele>711.0</ele><time>2026-04-04T12:47:47.593Z</time></trkpt><trkpt lat="44.388512" lon="8.132236"><ele>714.0</ele><time>2026-04-04T12:47:48.593Z</time></trkpt><trkpt lat="44.3883461" lon="8.1322714"><ele>717.0</ele><time>2026-04-04T12:47:49.592Z</time></trkpt><trkpt lat="44.3881655" lon="8.1322615"><ele>718.5</ele><time>2026-04-04T12:47:50.593Z</time></trkpt><trkpt lat="44.3879474" lon="8.1321595"><ele>720.0</ele><time>2026-04-04T12:47:51.593Z</time></trkpt><trkpt lat="44.3876983" lon="8.1320239"><ele>720.0</ele><time>2026-04-04T12:47:52.593Z</time></trkpt><trkpt lat="44.3874664" lon="8.1318962"><ele>720.0</ele><time>2026-04-04T12:47:53.594Z</time></trkpt><trkpt lat="44.387241" lon="8.13183"><ele>719.0</ele><time>2026-04-04T12:47:54.594Z</time></trkpt><trkpt lat="44.3870344" lon="8.1317996"><ele>718.0</ele><time>2026-04-04T12:47:55.594Z</time></trkpt><trkpt lat="44.3868491" lon="8.1317746"><ele>717.0</ele><time>2026-04-04T12:47:56.594Z</time></trkpt><trkpt lat="44.3866539" lon="8.1317065"><ele>717.0</ele><time>2026-04-04T12:47:57.594Z</time></trkpt><trkpt lat="44.3864846" lon="8.1315886"><ele>717.0</ele><time>2026-04-04T12:47:58.594Z</time></trkpt><trkpt lat="44.3863367" lon="8.1314209"><ele>717.0</ele><time>2026-04-04T12:47:59.593Z</time></trkpt><trkpt lat="44.386193" lon="8.131271"><ele>718.3333333333334</ele><time>2026-04-04T12:48:00.593Z</time></trkpt><trkpt lat="44.3860204" lon="8.1311854"><ele>719.6666666666667</ele><time>2026-04-04T12:48:01.594Z</time></trkpt><trkpt lat="44.3857982" lon="8.1311654"><ele>721.0</ele><time>2026-04-04T12:48:02.593Z</time></trkpt><trkpt lat="44.3855604" lon="8.1311957"><ele>726.0</ele><time>2026-04-04T12:48:03.593Z</time></trkpt><trkpt lat="44.3853236" lon="8.1312414"><ele>731.0</ele><time>2026-04-04T12:48:04.593Z</time></trkpt><trkpt lat="44.3850884" lon="8.1312883"><ele>731.0</ele><time>2026-04-04T12:48:05.594Z</time></trkpt><trkpt lat="44.384858" lon="8.1313377"><ele>731.0</ele><time>2026-04-04T12:48:06.593Z</time></trkpt><trkpt lat="44.3846192" lon="8.1314018"><ele>733.5</ele><time>2026-04-04T12:48:07.593Z</time></trkpt><trkpt lat="44.3843841" lon="8.1314624"><ele>736.0</ele><time>2026-04-04T12:48:08.594Z</time></trkpt><trkpt lat="44.3841706" lon="8.1315205"><ele>733.6666666666667</ele><time>2026-04-04T12:48:09.594Z</time></trkpt><trkpt lat="44.3839704" lon="8.1315831"><ele>731.3333333333334</ele><time>2026-04-04T12:48:10.594Z</time></trkpt><trkpt lat="44.3837903" lon="8.1316576"><ele>729.0</ele><time>2026-04-04T12:48:11.594Z</time></trkpt><trkpt lat="44.3836203" lon="8.1317463"><ele>729.0</ele><time>2026-04-04T12:48:12.594Z</time></trkpt><trkpt lat="44.3834548" lon="8.131837"><ele>729.0</ele><time>2026-04-04T12:48:13.593Z</time></trkpt><trkpt lat="44.3833077" lon="8.1319186"><ele>729.0</ele><time>2026-04-04T12:48:14.594Z</time></trkpt><trkpt lat="44.3831726" lon="8.1319673"><ele>729.0</ele><time>2026-04-04T12:48:15.594Z</time></trkpt><trkpt lat="44.3830392" lon="8.1320252"><ele>729.0</ele><time>2026-04-04T12:48:16.594Z</time></trkpt><trkpt lat="44.3829072" lon="8.1321061"><ele>729.0</ele><time>2026-04-04T12:48:17.594Z</time></trkpt><trkpt lat="44.3827805" lon="8.132232"><ele>729.0</ele><time>2026-04-04T12:48:18.594Z</time></trkpt><trkpt lat="44.3826602" lon="8.132371"><ele>729.0</ele><time>2026-04-04T12:48:19.594Z</time></trkpt><trkpt lat="44.3825438" lon="8.1325104"><ele>729.0</ele><time>2026-04-04T12:48:20.594Z</time></trkpt><trkpt lat="44.3824385" lon="8.1326478"><ele>729.0</ele><time>2026-04-04T12:48:21.594Z</time></trkpt><trkpt lat="44.3823432" lon="8.1328287"><ele>729.0</ele><time>2026-04-04T12:48:22.594Z</time></trkpt><trkpt lat="44.3822476" lon="8.1330279"><ele>729.0</ele><time>2026-04-04T12:48:23.594Z</time></trkpt><trkpt lat="44.382148" lon="8.1332229"><ele>729.0</ele><time>2026-04-04T12:48:24.594Z</time></trkpt><trkpt lat="44.3820333" lon="8.1333874"><ele>727.3333333333334</ele><time>2026-04-04T12:48:25.594Z</time></trkpt><trkpt lat="44.3819109" lon="8.1335695"><ele>725.6666666666667</ele><time>2026-04-04T12:48:26.594Z</time></trkpt><trkpt lat="44.3817973" lon="8.1337423"><ele>724.0</ele><time>2026-04-04T12:48:27.594Z</time></trkpt><trkpt lat="44.3816952" lon="8.133887"><ele>724.0</ele><time>2026-04-04T12:48:28.595Z</time></trkpt><trkpt lat="44.3815823" lon="8.1340368"><ele>724.0</ele><time>2026-04-04T12:48:29.594Z</time></trkpt><trkpt lat="44.381463" lon="8.1341673"><ele>724.0</ele><time>2026-04-04T12:48:30.594Z</time></trkpt><trkpt lat="44.3813214" lon="8.134273"><ele>723.6666666666667</ele><time>2026-04-04T12:48:31.594Z</time></trkpt><trkpt lat="44.3811657" lon="8.1343893"><ele>723.3333333333334</ele><time>2026-04-04T12:48:32.593Z</time></trkpt><trkpt lat="44.3810255" lon="8.1345175"><ele>723.0</ele><time>2026-04-04T12:48:33.594Z</time></trkpt><trkpt lat="44.380907" lon="8.1346548"><ele>723.0</ele><time>2026-04-04T12:48:34.594Z</time></trkpt><trkpt lat="44.380802" lon="8.1348291"><ele>723.0</ele><time>2026-04-04T12:48:35.593Z</time></trkpt><trkpt lat="44.3807128" lon="8.1350323"><ele>723.0</ele><time>2026-04-04T12:48:36.594Z</time></trkpt><trkpt lat="44.3806555" lon="8.1352731"><ele>726.3333333333334</ele><time>2026-04-04T12:48:37.594Z</time></trkpt><trkpt lat="44.3806223" lon="8.1355395"><ele>729.6666666666667</ele><time>2026-04-04T12:48:38.593Z</time></trkpt><trkpt lat="44.3806085" lon="8.1358203"><ele>733.0</ele><time>2026-04-04T12:48:39.594Z</time></trkpt><trkpt lat="44.3806122" lon="8.1361072"><ele>735.6666666666667</ele><time>2026-04-04T12:48:40.594Z</time></trkpt><trkpt lat="44.3806061" lon="8.1363854"><ele>738.3333333333334</ele><time>2026-04-04T12:48:41.594Z</time></trkpt><trkpt lat="44.3805825" lon="8.1366522"><ele>741.0</ele><time>2026-04-04T12:48:42.594Z</time></trkpt><trkpt lat="44.3805105" lon="8.1369208"><ele>738.0</ele><time>2026-04-04T12:48:43.593Z</time></trkpt><trkpt lat="44.3804189" lon="8.1371746"><ele>735.0</ele><time>2026-04-04T12:48:44.593Z</time></trkpt><trkpt lat="44.3803099" lon="8.13742"><ele>732.0</ele><time>2026-04-04T12:48:45.595Z</time></trkpt><trkpt lat="44.3802244" lon="8.1376729"><ele>732.0</ele><time>2026-04-04T12:48:46.595Z</time></trkpt><trkpt lat="44.3801552" lon="8.1379192"><ele>732.0</ele><time>2026-04-04T12:48:47.594Z</time></trkpt><trkpt lat="44.3801037" lon="8.1381517"><ele>732.0</ele><time>2026-04-04T12:48:48.595Z</time></trkpt><trkpt lat="44.3800101" lon="8.138354"><ele>731.3333333333334</ele><time>2026-04-04T12:48:49.595Z</time></trkpt><trkpt lat="44.3798635" lon="8.1385467"><ele>730.6666666666667</ele><time>2026-04-04T12:48:50.595Z</time></trkpt><trkpt lat="44.3796956" lon="8.1386776"><ele>730.0</ele><time>2026-04-04T12:48:51.595Z</time></trkpt><trkpt lat="44.3795191" lon="8.1387648"><ele>730.0</ele><time>2026-04-04T12:48:52.594Z</time></trkpt><trkpt lat="44.3793488" lon="8.1387803"><ele>730.0</ele><time>2026-04-04T12:48:53.595Z</time></trkpt><trkpt lat="44.3791858" lon="8.1387915"><ele>730.0</ele><time>2026-04-04T12:48:54.594Z</time></trkpt><trkpt lat="44.379052" lon="8.1388641"><ele>730.0</ele><time>2026-04-04T12:48:55.594Z</time></trkpt><trkpt lat="44.3789348" lon="8.1390415"><ele>730.0</ele><time>2026-04-04T12:48:56.595Z</time></trkpt><trkpt lat="44.3788356" lon="8.1392856"><ele>730.0</ele><time>2026-04-04T12:48:57.594Z</time></trkpt><trkpt lat="44.378749" lon="8.1395429"><ele>730.0</ele><time>2026-04-04T12:48:58.594Z</time></trkpt><trkpt lat="44.3786779" lon="8.139831"><ele>730.0</ele><time>2026-04-04T12:48:59.594Z</time></trkpt><trkpt lat="44.3786412" lon="8.1401326"><ele>730.0</ele><time>2026-04-04T12:49:00.594Z</time></trkpt><trkpt lat="44.3786155" lon="8.1404173"><ele>730.0</ele><time>2026-04-04T12:49:01.593Z</time></trkpt><trkpt lat="44.3785829" lon="8.1406617"><ele>730.0</ele><time>2026-04-04T12:49:02.595Z</time></trkpt><trkpt lat="44.3785254" lon="8.1408799"><ele>730.0</ele><time>2026-04-04T12:49:03.595Z</time></trkpt><trkpt lat="44.3784328" lon="8.1410699"><ele>731.8</ele><time>2026-04-04T12:49:04.595Z</time></trkpt><trkpt lat="44.3783388" lon="8.141229"><ele>733.6</ele><time>2026-04-04T12:49:05.595Z</time></trkpt><trkpt lat="44.378258" lon="8.1413718"><ele>735.4000000000001</ele><time>2026-04-04T12:49:06.593Z</time></trkpt><trkpt lat="44.3781901" lon="8.1414662"><ele>737.2</ele><time>2026-04-04T12:49:07.595Z</time></trkpt><trkpt lat="44.3781354" lon="8.1415248"><ele>739.0</ele><time>2026-04-04T12:49:08.594Z</time></trkpt><trkpt lat="44.3780552" lon="8.1415924"><ele>738.3333333333334</ele><time>2026-04-04T12:49:09.595Z</time></trkpt><trkpt lat="44.3779403" lon="8.1416304"><ele>737.6666666666666</ele><time>2026-04-04T12:49:10.595Z</time></trkpt><trkpt lat="44.3777163" lon="8.1415818"><ele>737.0</ele><time>2026-04-04T12:49:11.594Z</time></trkpt><trkpt lat="44.3775163" lon="8.1415719"><ele>737.0</ele><time>2026-04-04T12:49:12.594Z</time></trkpt><trkpt lat="44.3773551" lon="8.1415606"><ele>737.0</ele><time>2026-04-04T12:49:13.594Z</time></trkpt><trkpt lat="44.3771909" lon="8.141528"><ele>737.0</ele><time>2026-04-04T12:49:14.593Z</time></trkpt><trkpt lat="44.3770319" lon="8.1414712"><ele>736.0</ele><time>2026-04-04T12:49:15.594Z</time></trkpt><trkpt lat="44.3768674" lon="8.1413558"><ele>735.0</ele><time>2026-04-04T12:49:16.595Z</time></trkpt><trkpt lat="44.3767129" lon="8.1412344"><ele>734.0</ele><time>2026-04-04T12:49:17.595Z</time></trkpt><trkpt lat="44.3765495" lon="8.1411291"><ele>734.0</ele><time>2026-04-04T12:49:18.595Z</time></trkpt><trkpt lat="44.3763902" lon="8.1410274"><ele>734.0</ele><time>2026-04-04T12:49:19.594Z</time></trkpt><trkpt lat="44.3762346" lon="8.1409319"><ele>734.0</ele><time>2026-04-04T12:49:20.595Z</time></trkpt><trkpt lat="44.3760917" lon="8.1408161"><ele>733.6666666666666</ele><time>2026-04-04T12:49:21.595Z</time></trkpt><trkpt lat="44.375963" lon="8.1406894"><ele>733.3333333333334</ele><time>2026-04-04T12:49:22.595Z</time></trkpt><trkpt lat="44.3758447" lon="8.1405595"><ele>733.0</ele><time>2026-04-04T12:49:23.595Z</time></trkpt><trkpt lat="44.3757295" lon="8.1404421"><ele>733.0</ele><time>2026-04-04T12:49:24.595Z</time></trkpt><trkpt lat="44.375633" lon="8.1403454"><ele>733.0</ele><time>2026-04-04T12:49:25.596Z</time></trkpt><trkpt lat="44.3755425" lon="8.1402499"><ele>733.0</ele><time>2026-04-04T12:49:26.595Z</time></trkpt><trkpt lat="44.3754533" lon="8.1401611"><ele>733.0</ele><time>2026-04-04T12:49:27.595Z</time></trkpt><trkpt lat="44.3753689" lon="8.1400768"><ele>733.0</ele><time>2026-04-04T12:49:28.595Z</time></trkpt><trkpt lat="44.3752933" lon="8.1399943"><ele>732.7142857142857</ele><time>2026-04-04T12:49:29.596Z</time></trkpt><trkpt lat="44.3752284" lon="8.1399196"><ele>732.4285714285714</ele><time>2026-04-04T12:49:30.595Z</time></trkpt><trkpt lat="44.3751804" lon="8.139856"><ele>732.1428571428571</ele><time>2026-04-04T12:49:31.595Z</time></trkpt><trkpt lat="44.3751329" lon="8.1397667"><ele>731.8571428571429</ele><time>2026-04-04T12:49:33.595Z</time></trkpt><trkpt lat="44.3751391" lon="8.139669"><ele>731.5714285714286</ele><time>2026-04-04T12:49:36.595Z</time></trkpt><trkpt lat="44.3751201" lon="8.1395739"><ele>731.2857142857142</ele><time>2026-04-04T12:49:38.595Z</time></trkpt><trkpt lat="44.3750664" lon="8.1395027"><ele>731.0</ele><time>2026-04-04T12:49:40.595Z</time></trkpt><trkpt lat="44.3749762" lon="8.139524"><ele>730.3333333333333</ele><time>2026-04-04T12:49:42.595Z</time></trkpt><trkpt lat="44.3749251" lon="8.1396134"><ele>729.6666666666666</ele><time>2026-04-04T12:49:44.595Z</time></trkpt><trkpt lat="44.3748594" lon="8.139689"><ele>729.0</ele><time>2026-04-04T12:49:47.595Z</time></trkpt><trkpt lat="44.3747954" lon="8.1396892"><ele>728.3333333333334</ele><time>2026-04-04T12:52:27.598Z</time></trkpt><trkpt lat="44.3747259" lon="8.139698"><ele>727.6666666666667</ele><time>2026-04-04T12:58:55.729Z</time></trkpt><trkpt lat="44.374791" lon="8.139656"><ele>727.0</ele><time>2026-04-04T12:59:21.67Z</time></trkpt><trkpt lat="44.3747099" lon="8.139627"><ele>727.0</ele><time>2026-04-04T12:59:48.669Z</time></trkpt><trkpt lat="44.3747674" lon="8.1396712"><ele>727.0</ele><time>2026-04-04T13:00:18.745Z</time></trkpt><trkpt lat="44.3747044" lon="8.1396698"><ele>727.0</ele><time>2026-04-04T13:00:49.636Z</time></trkpt><trkpt lat="44.3747693" lon="8.1396222"><ele>727.0</ele><time>2026-04-04T13:01:06.606Z</time></trkpt><trkpt lat="44.3748435" lon="8.1396314"><ele>727.0</ele><time>2026-04-04T13:01:24.693Z</time></trkpt><trkpt lat="44.3747812" lon="8.1396545"><ele>727.0</ele><time>2026-04-04T13:01:57.717Z</time></trkpt><trkpt lat="44.3747418" lon="8.1397321"><ele>727.0</ele><time>2026-04-04T13:04:17.74Z</time></trkpt><trkpt lat="44.3747642" lon="8.1396453"><ele>727.0</ele><time>2026-04-04T13:04:41.722Z</time></trkpt><trkpt lat="44.3748146" lon="8.1396984"><ele>727.0</ele><time>2026-04-04T13:06:49.657Z</time></trkpt><trkpt lat="44.3747963" lon="8.1396021"><ele>727.0</ele><time>2026-04-04T13:07:08.969Z</time></trkpt><trkpt lat="44.3747413" lon="8.1396537"><ele>727.0</ele><time>2026-04-04T13:08:43.757Z</time></trkpt><trkpt lat="44.3747985" lon="8.1397025"><ele>727.0</ele><time>2026-04-04T13:09:02.658Z</time></trkpt><trkpt lat="44.3747567" lon="8.1396331"><ele>727.0</ele><time>2026-04-04T13:09:27.655Z</time></trkpt><trkpt lat="44.3747924" lon="8.1397134"><ele>727.0</ele><time>2026-04-04T13:09:47.675Z</time></trkpt><trkpt lat="44.3747948" lon="8.1396098"><ele>727.0</ele><time>2026-04-04T13:10:56.674Z</time></trkpt><trkpt lat="44.3747507" lon="8.1396886"><ele>727.0</ele><time>2026-04-04T13:11:08.665Z</time></trkpt><trkpt lat="44.3748221" lon="8.1397099"><ele>727.0</ele><time>2026-04-04T13:11:16.693Z</time></trkpt><trkpt lat="44.3748436" lon="8.1396228"><ele>727.0</ele><time>2026-04-04T13:12:31.688Z</time></trkpt><trkpt lat="44.3747752" lon="8.1396118"><ele>727.0</ele><time>2026-04-04T13:12:54.654Z</time></trkpt><trkpt lat="44.3747927" lon="8.1397017"><ele>727.0</ele><time>2026-04-04T13:13:09.694Z</time></trkpt><trkpt lat="44.374762" lon="8.1396204"><ele>727.0</ele><time>2026-04-04T13:13:48.716Z</time></trkpt><trkpt lat="44.3748259" lon="8.1396188"><ele>727.0</ele><time>2026-04-04T13:13:52.679Z</time></trkpt><trkpt lat="44.3748576" lon="8.1397015"><ele>727.0</ele><time>2026-04-04T13:14:03.654Z</time></trkpt><trkpt lat="44.3747782" lon="8.1397083"><ele>727.0</ele><time>2026-04-04T13:14:07.719Z</time></trkpt><trkpt lat="44.3747251" lon="8.1396574"><ele>727.0</ele><time>2026-04-04T13:14:12.698Z</time></trkpt><trkpt lat="44.3747878" lon="8.1396298"><ele>727.0</ele><time>2026-04-04T13:14:26.721Z</time></trkpt><trkpt lat="44.3747876" lon="8.1397225"><ele>727.0</ele><time>2026-04-04T13:14:41.66Z</time></trkpt><trkpt lat="44.3748293" lon="8.1396553"><ele>727.0</ele><time>2026-04-04T13:15:00.663Z</time></trkpt><trkpt lat="44.374773" lon="8.1396081"><ele>727.0</ele><time>2026-04-04T13:15:08.691Z</time></trkpt><trkpt lat="44.3748424" lon="8.1396171"><ele>727.0</ele><time>2026-04-04T13:15:38.669Z</time></trkpt><trkpt lat="44.3749048" lon="8.1396513"><ele>727.0</ele><time>2026-04-04T13:16:34.764Z</time></trkpt><trkpt lat="44.3748363" lon="8.1396403"><ele>727.0</ele><time>2026-04-04T13:17:10.737Z</time></trkpt><trkpt lat="44.3747621" lon="8.1397312"><ele>727.0</ele><time>2026-04-04T13:20:11.727Z</time></trkpt><trkpt lat="44.3747697" lon="8.1396363"><ele>727.0</ele><time>2026-04-04T13:21:16.664Z</time></trkpt><trkpt lat="44.374838" lon="8.1396385"><ele>727.0</ele><time>2026-04-04T13:21:28.758Z</time></trkpt><trkpt lat="44.3747878" lon="8.1396996"><ele>727.0</ele><time>2026-04-04T13:21:43.696Z</time></trkpt><trkpt lat="44.3747371" lon="8.1396285"><ele>727.0</ele><time>2026-04-04T13:21:49.794Z</time></trkpt><trkpt lat="44.374795" lon="8.1396753"><ele>727.0</ele><time>2026-04-04T13:22:11.744Z</time></trkpt><trkpt lat="44.3747339" lon="8.1396094"><ele>727.0</ele><time>2026-04-04T13:22:29.732Z</time></trkpt><trkpt lat="44.3747687" lon="8.1396876"><ele>727.0</ele><time>2026-04-04T13:23:00.727Z</time></trkpt><trkpt lat="44.3748337" lon="8.139666"><ele>727.0</ele><time>2026-04-04T13:23:18.714Z</time></trkpt><trkpt lat="44.3748191" lon="8.1395768"><ele>727.0</ele><time>2026-04-04T13:23:29.69Z</time></trkpt><trkpt lat="44.3747588" lon="8.1396244"><ele>727.0</ele><time>2026-04-04T13:23:43.714Z</time></trkpt><trkpt lat="44.3748085" lon="8.1396979"><ele>727.0</ele><time>2026-04-04T13:23:48.693Z</time></trkpt><trkpt lat="44.3747669" lon="8.1396204"><ele>727.0</ele><time>2026-04-04T13:24:51.762Z</time></trkpt><trkpt lat="44.374843" lon="8.1396613"><ele>727.0</ele><time>2026-04-04T13:29:11.948Z</time></trkpt><trkpt lat="44.3747797" lon="8.1396651"><ele>727.0</ele><time>2026-04-04T13:30:17.712Z</time></trkpt><trkpt lat="44.3748409" lon="8.1397031"><ele>727.0</ele><time>2026-04-04T13:33:27.75Z</time></trkpt><trkpt lat="44.3747913" lon="8.1396419"><ele>727.0</ele><time>2026-04-04T13:33:46.754Z</time></trkpt><trkpt lat="44.3747249" lon="8.139616"><ele>727.0</ele><time>2026-04-04T13:35:25.227Z</time></trkpt><trkpt lat="44.3748042" lon="8.1396816"><ele>727.0</ele><time>2026-04-04T13:37:36.008Z</time></trkpt><trkpt lat="44.3748532" lon="8.139618"><ele>727.0</ele><time>2026-04-04T13:38:45.735Z</time></trkpt><trkpt lat="44.3747764" lon="8.1396474"><ele>727.0</ele><time>2026-04-04T13:39:07.686Z</time></trkpt><trkpt lat="44.3748342" lon="8.1396889"><ele>727.0</ele><time>2026-04-04T13:39:35.735Z</time></trkpt><trkpt lat="44.3747964" lon="8.1396184"><ele>727.0</ele><time>2026-04-04T13:40:57.746Z</time></trkpt><trkpt lat="44.3748274" lon="8.1396974"><ele>727.0</ele><time>2026-04-04T13:41:49.779Z</time></trkpt><trkpt lat="44.3749019" lon="8.1396871"><ele>727.0</ele><time>2026-04-04T13:42:16.71Z</time></trkpt><trkpt lat="44.3748842" lon="8.1395885"><ele>727.0</ele><time>2026-04-04T13:42:22.706Z</time></trkpt><trkpt lat="44.3748109" lon="8.1396251"><ele>727.0</ele><time>2026-04-04T13:42:31.751Z</time></trkpt><trkpt lat="44.3747554" lon="8.1396792"><ele>727.0</ele><time>2026-04-04T13:42:42.726Z</time></trkpt><trkpt lat="44.3748188" lon="8.1396507"><ele>727.0</ele><time>2026-04-04T13:43:30.693Z</time></trkpt><trkpt lat="44.3748835" lon="8.1396643"><ele>727.0</ele><time>2026-04-04T13:43:58.742Z</time></trkpt><trkpt lat="44.3747977" lon="8.1396251"><ele>727.0</ele><time>2026-04-04T13:44:20.692Z</time></trkpt><trkpt lat="44.3748685" lon="8.1396149"><ele>727.0</ele><time>2026-04-04T13:44:29.738Z</time></trkpt><trkpt lat="44.3747975" lon="8.1396473"><ele>727.0</ele><time>2026-04-04T13:44:41.73Z</time></trkpt><trkpt lat="44.3748512" lon="8.1396989"><ele>727.0</ele><time>2026-04-04T13:44:58.701Z</time></trkpt><trkpt lat="44.3748147" lon="8.1396255"><ele>727.0</ele><time>2026-04-04T13:45:21.668Z</time></trkpt><trkpt lat="44.3747575" lon="8.1396683"><ele>727.0</ele><time>2026-04-04T13:45:44.736Z</time></trkpt><trkpt lat="44.3746989" lon="8.1396345"><ele>727.0</ele><time>2026-04-04T13:45:59.676Z</time></trkpt><trkpt lat="44.3747497" lon="8.1395781"><ele>727.0</ele><time>2026-04-04T13:46:08.721Z</time></trkpt><trkpt lat="44.374792" lon="8.1396493"><ele>727.0</ele><time>2026-04-04T13:46:16.749Z</time></trkpt><trkpt lat="44.3748546" lon="8.1396621"><ele>727.0</ele><time>2026-04-04T13:46:46.728Z</time></trkpt><trkpt lat="44.3747916" lon="8.1396951"><ele>727.0</ele><time>2026-04-04T13:46:55.672Z</time></trkpt><trkpt lat="44.3748419" lon="8.1396362"><ele>727.0</ele><time>2026-04-04T13:47:08.679Z</time></trkpt><trkpt lat="44.3747907" lon="8.1396908"><ele>727.0</ele><time>2026-04-04T13:50:44.666Z</time></trkpt><trkpt lat="44.3748181" lon="8.1397868"><ele>727.0</ele><time>2026-04-04T13:52:33.651Z</time></trkpt><trkpt lat="44.3748268" lon="8.1399207"><ele>727.0</ele><time>2026-04-04T13:52:35.651Z</time></trkpt><trkpt lat="44.3748374" lon="8.1400465"><ele>726.6</ele><time>2026-04-04T13:52:36.65Z</time></trkpt><trkpt lat="44.374847" lon="8.140171"><ele>726.2</ele><time>2026-04-04T13:52:37.651Z</time></trkpt><trkpt lat="44.3748652" lon="8.140327"><ele>725.8</ele><time>2026-04-04T13:52:38.651Z</time></trkpt><trkpt lat="44.3748913" lon="8.1404858"><ele>725.4</ele><time>2026-04-04T13:52:39.651Z</time></trkpt><trkpt lat="44.374926" lon="8.1406436"><ele>725.0</ele><time>2026-04-04T13:52:40.651Z</time></trkpt><trkpt lat="44.374968" lon="8.1407688"><ele>725.0</ele><time>2026-04-04T13:52:41.651Z</time></trkpt><trkpt lat="44.3750108" lon="8.1408735"><ele>725.0</ele><time>2026-04-04T13:52:42.651Z</time></trkpt><trkpt lat="44.3750543" lon="8.1409719"><ele>725.0</ele><time>2026-04-04T13:52:43.651Z</time></trkpt><trkpt lat="44.3750933" lon="8.1410733"><ele>725.0</ele><time>2026-04-04T13:52:44.651Z</time></trkpt><trkpt lat="44.3751314" lon="8.1411691"><ele>725.0</ele><time>2026-04-04T13:52:45.651Z</time></trkpt><trkpt lat="44.3751691" lon="8.1412622"><ele>725.0</ele><time>2026-04-04T13:52:46.651Z</time></trkpt><trkpt lat="44.375204" lon="8.1413501"><ele>725.0</ele><time>2026-04-04T13:52:47.651Z</time></trkpt><trkpt lat="44.3752381" lon="8.1414431"><ele>725.0</ele><time>2026-04-04T13:52:48.651Z</time></trkpt><trkpt lat="44.3752756" lon="8.1415413"><ele>725.0</ele><time>2026-04-04T13:52:49.651Z</time></trkpt><trkpt lat="44.3753171" lon="8.1416512"><ele>725.0</ele><time>2026-04-04T13:52:50.651Z</time></trkpt><trkpt lat="44.3753591" lon="8.141764"><ele>725.0</ele><time>2026-04-04T13:52:51.651Z</time></trkpt><trkpt lat="44.3754027" lon="8.1418806"><ele>725.0</ele><time>2026-04-04T13:52:52.651Z</time></trkpt><trkpt lat="44.3754486" lon="8.1419998"><ele>725.5</ele><time>2026-04-04T13:52:53.651Z</time></trkpt><trkpt lat="44.3755019" lon="8.1421379"><ele>726.0</ele><time>2026-04-04T13:52:54.651Z</time></trkpt><trkpt lat="44.3755611" lon="8.1423067"><ele>726.5</ele><time>2026-04-04T13:52:55.651Z</time></trkpt><trkpt lat="44.3756225" lon="8.1425022"><ele>727.0</ele><time>2026-04-04T13:52:56.651Z</time></trkpt><trkpt lat="44.3756867" lon="8.1427209"><ele>722.3333333333334</ele><time>2026-04-04T13:52:57.651Z</time></trkpt><trkpt lat="44.375748" lon="8.1429538"><ele>717.6666666666666</ele><time>2026-04-04T13:52:58.651Z</time></trkpt><trkpt lat="44.375799" lon="8.1431964"><ele>713.0</ele><time>2026-04-04T13:52:59.651Z</time></trkpt><trkpt lat="44.3758365" lon="8.1434507"><ele>709.6666666666666</ele><time>2026-04-04T13:53:00.651Z</time></trkpt><trkpt lat="44.3758665" lon="8.1437144"><ele>706.3333333333334</ele><time>2026-04-04T13:53:01.65Z</time></trkpt><trkpt lat="44.3758862" lon="8.1439776"><ele>703.0</ele><time>2026-04-04T13:53:02.651Z</time></trkpt><trkpt lat="44.3758934" lon="8.1442404"><ele>703.0</ele><time>2026-04-04T13:53:03.65Z</time></trkpt><trkpt lat="44.3758875" lon="8.1445097"><ele>703.0</ele><time>2026-04-04T13:53:04.651Z</time></trkpt><trkpt lat="44.3758717" lon="8.1447817"><ele>703.0</ele><time>2026-04-04T13:53:05.651Z</time></trkpt><trkpt lat="44.3758479" lon="8.1450463"><ele>701.3333333333334</ele><time>2026-04-04T13:53:06.651Z</time></trkpt><trkpt lat="44.3758175" lon="8.1453103"><ele>699.6666666666666</ele><time>2026-04-04T13:53:07.651Z</time></trkpt><trkpt lat="44.3757758" lon="8.1455704"><ele>698.0</ele><time>2026-04-04T13:53:08.651Z</time></trkpt><trkpt lat="44.3757045" lon="8.1458231"><ele>697.6666666666666</ele><time>2026-04-04T13:53:09.651Z</time></trkpt><trkpt lat="44.3756318" lon="8.1460707"><ele>697.3333333333334</ele><time>2026-04-04T13:53:10.651Z</time></trkpt><trkpt lat="44.3755513" lon="8.1463181"><ele>697.0</ele><time>2026-04-04T13:53:11.651Z</time></trkpt><trkpt lat="44.3754725" lon="8.1465642"><ele>690.3333333333334</ele><time>2026-04-04T13:53:12.651Z</time></trkpt><trkpt lat="44.3753836" lon="8.1468006"><ele>683.6666666666666</ele><time>2026-04-04T13:53:13.651Z</time></trkpt><trkpt lat="44.3752804" lon="8.147036"><ele>677.0</ele><time>2026-04-04T13:53:14.651Z</time></trkpt><trkpt lat="44.3751709" lon="8.1472644"><ele>677.0</ele><time>2026-04-04T13:53:15.651Z</time></trkpt><trkpt lat="44.3750593" lon="8.1474624"><ele>677.0</ele><time>2026-04-04T13:53:16.651Z</time></trkpt><trkpt lat="44.3749436" lon="8.1476457"><ele>677.0</ele><time>2026-04-04T13:53:17.651Z</time></trkpt><trkpt lat="44.3748261" lon="8.147814"><ele>677.0</ele><time>2026-04-04T13:53:18.651Z</time></trkpt><trkpt lat="44.3747011" lon="8.1479784"><ele>677.0</ele><time>2026-04-04T13:53:19.651Z</time></trkpt><trkpt lat="44.3745683" lon="8.1481452"><ele>677.0</ele><time>2026-04-04T13:53:20.651Z</time></trkpt><trkpt lat="44.3744296" lon="8.1483048"><ele>676.3333333333333</ele><time>2026-04-04T13:53:21.651Z</time></trkpt><trkpt lat="44.3742839" lon="8.1484524"><ele>675.6666666666666</ele><time>2026-04-04T13:53:22.651Z</time></trkpt><trkpt lat="44.3741275" lon="8.1485929"><ele>675.0</ele><time>2026-04-04T13:53:23.651Z</time></trkpt><trkpt lat="44.373968" lon="8.1487223"><ele>676.6666666666666</ele><time>2026-04-04T13:53:24.651Z</time></trkpt><trkpt lat="44.3738092" lon="8.1488449"><ele>678.3333333333333</ele><time>2026-04-04T13:53:25.651Z</time></trkpt><trkpt lat="44.3736589" lon="8.1489413"><ele>680.0</ele><time>2026-04-04T13:53:26.651Z</time></trkpt><trkpt lat="44.373508" lon="8.1490327"><ele>676.6666666666666</ele><time>2026-04-04T13:53:27.651Z</time></trkpt><trkpt lat="44.3733604" lon="8.1491144"><ele>673.3333333333334</ele><time>2026-04-04T13:53:28.651Z</time></trkpt><trkpt lat="44.3732106" lon="8.1491861"><ele>670.0</ele><time>2026-04-04T13:53:29.652Z</time></trkpt><trkpt lat="44.373059" lon="8.1492777"><ele>670.3333333333334</ele><time>2026-04-04T13:53:30.652Z</time></trkpt><trkpt lat="44.3729219" lon="8.1493718"><ele>670.6666666666666</ele><time>2026-04-04T13:53:31.652Z</time></trkpt><trkpt lat="44.3727837" lon="8.1494759"><ele>671.0</ele><time>2026-04-04T13:53:32.652Z</time></trkpt><trkpt lat="44.3726525" lon="8.1495729"><ele>671.0</ele><time>2026-04-04T13:53:33.652Z</time></trkpt><trkpt lat="44.3724969" lon="8.1496863"><ele>671.0</ele><time>2026-04-04T13:53:34.652Z</time></trkpt><trkpt lat="44.3723378" lon="8.1498021"><ele>671.0</ele><time>2026-04-04T13:53:35.651Z</time></trkpt><trkpt lat="44.3721799" lon="8.1499248"><ele>670.0</ele><time>2026-04-04T13:53:36.651Z</time></trkpt><trkpt lat="44.3720088" lon="8.1500475"><ele>669.0</ele><time>2026-04-04T13:53:37.652Z</time></trkpt><trkpt lat="44.3718483" lon="8.1501772"><ele>668.0</ele><time>2026-04-04T13:53:38.652Z</time></trkpt><trkpt lat="44.3716994" lon="8.1502801"><ele>668.0</ele><time>2026-04-04T13:53:39.652Z</time></trkpt><trkpt lat="44.3715534" lon="8.1503781"><ele>668.0</ele><time>2026-04-04T13:53:40.652Z</time></trkpt><trkpt lat="44.3714207" lon="8.1504512"><ele>668.0</ele><time>2026-04-04T13:53:41.652Z</time></trkpt><trkpt lat="44.3712808" lon="8.15056"><ele>669.3333333333333</ele><time>2026-04-04T13:53:42.652Z</time></trkpt><trkpt lat="44.3711332" lon="8.1506832"><ele>670.6666666666666</ele><time>2026-04-04T13:53:43.652Z</time></trkpt><trkpt lat="44.370985" lon="8.1507991"><ele>672.0</ele><time>2026-04-04T13:53:44.652Z</time></trkpt><trkpt lat="44.3708344" lon="8.1508882"><ele>667.0</ele><time>2026-04-04T13:53:45.652Z</time></trkpt><trkpt lat="44.3706854" lon="8.1509547"><ele>662.0</ele><time>2026-04-04T13:53:46.652Z</time></trkpt><trkpt lat="44.3705304" lon="8.1510452"><ele>657.0</ele><time>2026-04-04T13:53:47.651Z</time></trkpt><trkpt lat="44.3703899" lon="8.151138"><ele>652.0</ele><time>2026-04-04T13:53:48.652Z</time></trkpt><trkpt lat="44.3702548" lon="8.1512103"><ele>647.0</ele><time>2026-04-04T13:53:49.652Z</time></trkpt><trkpt lat="44.3701107" lon="8.1512761"><ele>642.0</ele><time>2026-04-04T13:53:50.652Z</time></trkpt><trkpt lat="44.3699594" lon="8.1513656"><ele>642.0</ele><time>2026-04-04T13:53:51.652Z</time></trkpt><trkpt lat="44.3698207" lon="8.1514762"><ele>642.0</ele><time>2026-04-04T13:53:52.652Z</time></trkpt><trkpt lat="44.3696588" lon="8.1516065"><ele>642.0</ele><time>2026-04-04T13:53:53.652Z</time></trkpt><trkpt lat="44.3695027" lon="8.1517141"><ele>638.6666666666666</ele><time>2026-04-04T13:53:54.652Z</time></trkpt><trkpt lat="44.3693516" lon="8.151791"><ele>635.3333333333333</ele><time>2026-04-04T13:53:55.652Z</time></trkpt><trkpt lat="44.3691944" lon="8.15187"><ele>632.0</ele><time>2026-04-04T13:53:56.652Z</time></trkpt><trkpt lat="44.3690254" lon="8.1519559"><ele>632.0</ele><time>2026-04-04T13:53:57.652Z</time></trkpt><trkpt lat="44.3688801" lon="8.1520619"><ele>632.0</ele><time>2026-04-04T13:53:58.652Z</time></trkpt><trkpt lat="44.3687489" lon="8.152164"><ele>632.0</ele><time>2026-04-04T13:53:59.652Z</time></trkpt><trkpt lat="44.3686129" lon="8.1522612"><ele>633.6666666666666</ele><time>2026-04-04T13:54:00.652Z</time></trkpt><trkpt lat="44.3684713" lon="8.1523564"><ele>635.3333333333334</ele><time>2026-04-04T13:54:01.652Z</time></trkpt><trkpt lat="44.3683342" lon="8.1524492"><ele>637.0</ele><time>2026-04-04T13:54:02.652Z</time></trkpt><trkpt lat="44.368207" lon="8.1525333"><ele>637.0</ele><time>2026-04-04T13:54:03.652Z</time></trkpt><trkpt lat="44.3680799" lon="8.1526251"><ele>637.0</ele><time>2026-04-04T13:54:04.652Z</time></trkpt><trkpt lat="44.3679526" lon="8.1527188"><ele>637.0</ele><time>2026-04-04T13:54:05.651Z</time></trkpt><trkpt lat="44.3639925" lon="8.1644509"><ele>632.0</ele><time>2026-04-04T13:55:11.652Z</time></trkpt><trkpt lat="44.3640046" lon="8.1646729"><ele>627.0</ele><time>2026-04-04T13:55:12.653Z</time></trkpt><trkpt lat="44.3640261" lon="8.1649017"><ele>622.0</ele><time>2026-04-04T13:55:13.652Z</time></trkpt><trkpt lat="44.3640363" lon="8.1651275"><ele>621.3333333333334</ele><time>2026-04-04T13:55:14.653Z</time></trkpt><trkpt lat="44.3640573" lon="8.1653519"><ele>620.6666666666666</ele><time>2026-04-04T13:55:15.653Z</time></trkpt><trkpt lat="44.364074" lon="8.1655714"><ele>620.0</ele><time>2026-04-04T13:55:16.652Z</time></trkpt><trkpt lat="44.3640953" lon="8.165794"><ele>617.6666666666666</ele><time>2026-04-04T13:55:17.653Z</time></trkpt><trkpt lat="44.3641084" lon="8.1660156"><ele>615.3333333333334</ele><time>2026-04-04T13:55:18.653Z</time></trkpt><trkpt lat="44.3641215" lon="8.1662337"><ele>613.0</ele><time>2026-04-04T13:55:19.653Z</time></trkpt><trkpt lat="44.3641372" lon="8.1664526"><ele>611.6666666666667</ele><time>2026-04-04T13:55:20.653Z</time></trkpt><trkpt lat="44.3641515" lon="8.16667"><ele>610.3333333333334</ele><time>2026-04-04T13:55:21.653Z</time></trkpt><trkpt lat="44.3641731" lon="8.1668789"><ele>609.0</ele><time>2026-04-04T13:55:22.653Z</time></trkpt><trkpt lat="44.3641935" lon="8.1670893"><ele>609.0</ele><time>2026-04-04T13:55:23.653Z</time></trkpt><trkpt lat="44.3642109" lon="8.1672958"><ele>609.0</ele><time>2026-04-04T13:55:24.652Z</time></trkpt><trkpt lat="44.364229" lon="8.167506"><ele>609.0</ele><time>2026-04-04T13:55:25.653Z</time></trkpt><trkpt lat="44.3642417" lon="8.1677223"><ele>606.6666666666666</ele><time>2026-04-04T13:55:26.653Z</time></trkpt><trkpt lat="44.3642521" lon="8.1679433"><ele>604.3333333333333</ele><time>2026-04-04T13:55:27.653Z</time></trkpt><trkpt lat="44.3642635" lon="8.1681634"><ele>602.0</ele><time>2026-04-04T13:55:28.653Z</time></trkpt><trkpt lat="44.3642784" lon="8.1683817"><ele>599.6666666666666</ele><time>2026-04-04T13:55:29.653Z</time></trkpt><trkpt lat="44.3642932" lon="8.1686046"><ele>597.3333333333334</ele><time>2026-04-04T13:55:30.652Z</time></trkpt><trkpt lat="44.3643094" lon="8.1688361"><ele>595.0</ele><time>2026-04-04T13:55:31.652Z</time></trkpt><trkpt lat="44.3643227" lon="8.169061"><ele>595.0</ele><time>2026-04-04T13:55:32.653Z</time></trkpt><trkpt lat="44.3643189" lon="8.1692789"><ele>595.0</ele><time>2026-04-04T13:55:33.653Z</time></trkpt><trkpt lat="44.3643116" lon="8.1694968"><ele>595.0</ele><time>2026-04-04T13:55:34.653Z</time></trkpt><trkpt lat="44.3642892" lon="8.1697102"><ele>593.0</ele><time>2026-04-04T13:55:35.653Z</time></trkpt><trkpt lat="44.3642633" lon="8.1699279"><ele>591.0</ele><time>2026-04-04T13:55:36.653Z</time></trkpt><trkpt lat="44.3642288" lon="8.1701343"><ele>589.0</ele><time>2026-04-04T13:55:37.653Z</time></trkpt><trkpt lat="44.364187" lon="8.170332"><ele>589.0</ele><time>2026-04-04T13:55:38.653Z</time></trkpt><trkpt lat="44.3641427" lon="8.1705211"><ele>589.0</ele><time>2026-04-04T13:55:39.653Z</time></trkpt><trkpt lat="44.3640984" lon="8.1707019"><ele>589.0</ele><time>2026-04-04T13:55:40.653Z</time></trkpt><trkpt lat="44.3640519" lon="8.170876"><ele>589.0</ele><time>2026-04-04T13:55:41.653Z</time></trkpt><trkpt lat="44.3639959" lon="8.1710461"><ele>586.0</ele><time>2026-04-04T13:55:42.653Z</time></trkpt><trkpt lat="44.3639325" lon="8.1712188"><ele>583.0</ele><time>2026-04-04T13:55:43.653Z</time></trkpt><trkpt lat="44.3638658" lon="8.1713846"><ele>580.0</ele><time>2026-04-04T13:55:44.653Z</time></trkpt><trkpt lat="44.363795" lon="8.1715443"><ele>577.0</ele><time>2026-04-04T13:55:45.653Z</time></trkpt><trkpt lat="44.363724" lon="8.171696"><ele>575.0</ele><time>2026-04-04T13:55:46.652Z</time></trkpt><trkpt lat="44.3636521" lon="8.1718362"><ele>573.0</ele><time>2026-04-04T13:55:47.653Z</time></trkpt><trkpt lat="44.3635829" lon="8.1719672"><ele>571.0</ele><time>2026-04-04T13:55:48.653Z</time></trkpt><trkpt lat="44.3635086" lon="8.1720945"><ele>569.0</ele><time>2026-04-04T13:55:49.653Z</time></trkpt><trkpt lat="44.3634288" lon="8.1722128"><ele>569.0</ele><time>2026-04-04T13:55:50.652Z</time></trkpt><trkpt lat="44.363346" lon="8.1723264"><ele>569.0</ele><time>2026-04-04T13:55:51.653Z</time></trkpt><trkpt lat="44.363267" lon="8.1724333"><ele>569.0</ele><time>2026-04-04T13:55:52.653Z</time></trkpt><trkpt lat="44.3631793" lon="8.1725411"><ele>569.0</ele><time>2026-04-04T13:55:53.653Z</time></trkpt><trkpt lat="44.3630903" lon="8.1726453"><ele>565.0</ele><time>2026-04-04T13:55:54.653Z</time></trkpt><trkpt lat="44.3629988" lon="8.1727468"><ele>561.0</ele><time>2026-04-04T13:55:55.654Z</time></trkpt><trkpt lat="44.3629041" lon="8.1728365"><ele>557.0</ele><time>2026-04-04T13:55:56.653Z</time></trkpt><trkpt lat="44.362809" lon="8.1729186"><ele>553.0</ele><time>2026-04-04T13:55:57.654Z</time></trkpt><trkpt lat="44.3627135" lon="8.1729954"><ele>553.0</ele><time>2026-04-04T13:55:58.654Z</time></trkpt><trkpt lat="44.3626176" lon="8.1730721"><ele>553.0</ele><time>2026-04-04T13:55:59.654Z</time></trkpt><trkpt lat="44.3625199" lon="8.1731461"><ele>553.0</ele><time>2026-04-04T13:56:00.654Z</time></trkpt><trkpt lat="44.3624212" lon="8.173219"><ele>553.0</ele><time>2026-04-04T13:56:01.654Z</time></trkpt><trkpt lat="44.3623206" lon="8.1732874"><ele>553.0</ele><time>2026-04-04T13:56:02.654Z</time></trkpt><trkpt lat="44.3622204" lon="8.1733567"><ele>550.0</ele><time>2026-04-04T13:56:03.654Z</time></trkpt><trkpt lat="44.3621241" lon="8.1734231"><ele>547.0</ele><time>2026-04-04T13:56:04.654Z</time></trkpt><trkpt lat="44.3620279" lon="8.1734898"><ele>544.0</ele><time>2026-04-04T13:56:05.654Z</time></trkpt><trkpt lat="44.3619314" lon="8.1735579"><ele>541.0</ele><time>2026-04-04T13:56:06.654Z</time></trkpt><trkpt lat="44.3618373" lon="8.1736284"><ele>538.0</ele><time>2026-04-04T13:56:07.653Z</time></trkpt><trkpt lat="44.3617472" lon="8.173703"><ele>538.0</ele><time>2026-04-04T13:56:08.654Z</time></trkpt><trkpt lat="44.3616611" lon="8.1737825"><ele>538.0</ele><time>2026-04-04T13:56:09.654Z</time></trkpt><trkpt lat="44.3615758" lon="8.1738669"><ele>538.0</ele><time>2026-04-04T13:56:10.654Z</time></trkpt><trkpt lat="44.3614888" lon="8.1739557"><ele>538.0</ele><time>2026-04-04T13:56:11.654Z</time></trkpt><trkpt lat="44.361398" lon="8.1740618"><ele>538.0</ele><time>2026-04-04T13:56:12.654Z</time></trkpt><trkpt lat="44.3613069" lon="8.1741878"><ele>537.5</ele><time>2026-04-04T13:56:13.653Z</time></trkpt><trkpt lat="44.3612163" lon="8.1743331"><ele>537.0</ele><time>2026-04-04T13:56:14.654Z</time></trkpt><trkpt lat="44.3611271" lon="8.1744943"><ele>536.5</ele><time>2026-04-04T13:56:15.654Z</time></trkpt><trkpt lat="44.3610406" lon="8.1746736"><ele>536.0</ele><time>2026-04-04T13:56:16.654Z</time></trkpt><trkpt lat="44.360955" lon="8.1748705"><ele>536.0</ele><time>2026-04-04T13:56:17.654Z</time></trkpt><trkpt lat="44.3608673" lon="8.1750728"><ele>536.0</ele><time>2026-04-04T13:56:18.654Z</time></trkpt><trkpt lat="44.3607817" lon="8.1752721"><ele>536.0</ele><time>2026-04-04T13:56:19.654Z</time></trkpt><trkpt lat="44.3606964" lon="8.1754785"><ele>537.6666666666666</ele><time>2026-04-04T13:56:20.654Z</time></trkpt><trkpt lat="44.3606237" lon="8.1757048"><ele>539.3333333333334</ele><time>2026-04-04T13:56:21.654Z</time></trkpt><trkpt lat="44.3605697" lon="8.1759367"><ele>541.0</ele><time>2026-04-04T13:56:22.654Z</time></trkpt><trkpt lat="44.3605318" lon="8.1761801"><ele>530.6666666666667</ele><time>2026-04-04T13:56:23.654Z</time></trkpt><trkpt lat="44.3605033" lon="8.1764369"><ele>520.3333333333334</ele><time>2026-04-04T13:56:24.654Z</time></trkpt><trkpt lat="44.3604688" lon="8.1766896"><ele>510.0</ele><time>2026-04-04T13:56:25.653Z</time></trkpt><trkpt lat="44.3604106" lon="8.1769194"><ele>509.0</ele><time>2026-04-04T13:56:26.654Z</time></trkpt><trkpt lat="44.3603562" lon="8.177137"><ele>508.0</ele><time>2026-04-04T13:56:27.654Z</time></trkpt><trkpt lat="44.3603238" lon="8.1773482"><ele>507.0</ele><time>2026-04-04T13:56:28.654Z</time></trkpt><trkpt lat="44.3603004" lon="8.1775474"><ele>506.0</ele><time>2026-04-04T13:56:29.653Z</time></trkpt><trkpt lat="44.3602918" lon="8.1777477"><ele>505.0</ele><time>2026-04-04T13:56:30.654Z</time></trkpt><trkpt lat="44.3603105" lon="8.1779626"><ele>504.0</ele><time>2026-04-04T13:56:31.654Z</time></trkpt><trkpt lat="44.3603616" lon="8.1781783"><ele>503.33333333333337</ele><time>2026-04-04T13:56:32.654Z</time></trkpt><trkpt lat="44.3604052" lon="8.1784038"><ele>502.6666666666667</ele><time>2026-04-04T13:56:33.654Z</time></trkpt><trkpt lat="44.3604257" lon="8.1786497"><ele>502.0</ele><time>2026-04-04T13:56:34.653Z</time></trkpt><trkpt lat="44.3604352" lon="8.17892"><ele>500.33333333333337</ele><time>2026-04-04T13:56:35.654Z</time></trkpt><trkpt lat="44.3604512" lon="8.1791846"><ele>498.66666666666663</ele><time>2026-04-04T13:56:36.654Z</time></trkpt><trkpt lat="44.3604629" lon="8.179435"><ele>497.0</ele><time>2026-04-04T13:56:37.654Z</time></trkpt><trkpt lat="44.3604638" lon="8.179686"><ele>495.0</ele><time>2026-04-04T13:56:38.654Z</time></trkpt><trkpt lat="44.360473" lon="8.1799509"><ele>493.0</ele><time>2026-04-04T13:56:39.654Z</time></trkpt><trkpt lat="44.3604819" lon="8.1802235"><ele>491.0</ele><time>2026-04-04T13:56:40.654Z</time></trkpt><trkpt lat="44.3605022" lon="8.1804961"><ele>502.0</ele><time>2026-04-04T13:56:41.654Z</time></trkpt><trkpt lat="44.3605425" lon="8.180754"><ele>513.0</ele><time>2026-04-04T13:56:42.654Z</time></trkpt><trkpt lat="44.360612" lon="8.1810013"><ele>524.0</ele><time>2026-04-04T13:56:43.654Z</time></trkpt><trkpt lat="44.3607224" lon="8.1812274"><ele>524.0</ele><time>2026-04-04T13:56:44.654Z</time></trkpt><trkpt lat="44.3607798" lon="8.1814703"><ele>524.0</ele><time>2026-04-04T13:56:45.654Z</time></trkpt><trkpt lat="44.3607763" lon="8.1817401"><ele>524.0</ele><time>2026-04-04T13:56:46.654Z</time></trkpt><trkpt lat="44.360765" lon="8.1820174"><ele>520.6666666666666</ele><time>2026-04-04T13:56:47.654Z</time></trkpt><trkpt lat="44.3607616" lon="8.1823065"><ele>517.3333333333334</ele><time>2026-04-04T13:56:48.653Z</time></trkpt><trkpt lat="44.3607366" lon="8.1825948"><ele>514.0</ele><time>2026-04-04T13:56:49.654Z</time></trkpt><trkpt lat="44.3607069" lon="8.1828737"><ele>513.0</ele><time>2026-04-04T13:56:50.654Z</time></trkpt><trkpt lat="44.3606612" lon="8.1831462"><ele>512.0</ele><time>2026-04-04T13:56:51.654Z</time></trkpt><trkpt lat="44.3605886" lon="8.1834069"><ele>511.0</ele><time>2026-04-04T13:56:52.654Z</time></trkpt><trkpt lat="44.3605201" lon="8.183653"><ele>501.33333333333337</ele><time>2026-04-04T13:56:53.653Z</time></trkpt><trkpt lat="44.3604425" lon="8.1838791"><ele>491.66666666666663</ele><time>2026-04-04T13:56:54.654Z</time></trkpt><trkpt lat="44.3603721" lon="8.184088"><ele>482.0</ele><time>2026-04-04T13:56:55.654Z</time></trkpt><trkpt lat="44.3603088" lon="8.1842867"><ele>482.0</ele><time>2026-04-04T13:56:56.654Z</time></trkpt><trkpt lat="44.3602494" lon="8.1844825"><ele>482.0</ele><time>2026-04-04T13:56:57.654Z</time></trkpt><trkpt lat="44.3602401" lon="8.1846774"><ele>482.0</ele><time>2026-04-04T13:56:58.654Z</time></trkpt><trkpt lat="44.3602538" lon="8.1849072"><ele>482.0</ele><time>2026-04-04T13:56:59.654Z</time></trkpt><trkpt lat="44.36032" lon="8.185147"><ele>482.0</ele><time>2026-04-04T13:57:00.653Z</time></trkpt><trkpt lat="44.3604043" lon="8.1853683"><ele>482.0</ele><time>2026-04-04T13:57:01.654Z</time></trkpt><trkpt lat="44.3604953" lon="8.1855711"><ele>483.3333333333333</ele><time>2026-04-04T13:57:02.654Z</time></trkpt><trkpt lat="44.3606064" lon="8.1857578"><ele>484.66666666666663</ele><time>2026-04-04T13:57:03.654Z</time></trkpt><trkpt lat="44.360712" lon="8.1859159"><ele>486.0</ele><time>2026-04-04T13:57:04.653Z</time></trkpt><trkpt lat="44.3608444" lon="8.1860589"><ele>486.0</ele><time>2026-04-04T13:57:05.654Z</time></trkpt><trkpt lat="44.3609644" lon="8.1862175"><ele>486.0</ele><time>2026-04-04T13:57:06.655Z</time></trkpt><trkpt lat="44.361054" lon="8.1864143"><ele>486.0</ele><time>2026-04-04T13:57:07.655Z</time></trkpt><trkpt lat="44.36107" lon="8.1866587"><ele>482.33333333333337</ele><time>2026-04-04T13:57:08.655Z</time></trkpt><trkpt lat="44.3610647" lon="8.1869017"><ele>478.6666666666667</ele><time>2026-04-04T13:57:09.655Z</time></trkpt><trkpt lat="44.3610476" lon="8.1871253"><ele>475.0</ele><time>2026-04-04T13:57:10.655Z</time></trkpt><trkpt lat="44.3609878" lon="8.1873275"><ele>474.0</ele><time>2026-04-04T13:57:11.654Z</time></trkpt><trkpt lat="44.3609304" lon="8.1875362"><ele>473.0</ele><time>2026-04-04T13:57:12.655Z</time></trkpt><trkpt lat="44.3608705" lon="8.1877371"><ele>472.0</ele><time>2026-04-04T13:57:13.655Z</time></trkpt><trkpt lat="44.3607684" lon="8.1879138"><ele>472.0</ele><time>2026-04-04T13:57:14.655Z</time></trkpt><trkpt lat="44.3606472" lon="8.1880493"><ele>472.0</ele><time>2026-04-04T13:57:15.655Z</time></trkpt><trkpt lat="44.3605426" lon="8.1881714"><ele>472.0</ele><time>2026-04-04T13:57:16.655Z</time></trkpt><trkpt lat="44.3604671" lon="8.1883177"><ele>472.0</ele><time>2026-04-04T13:57:17.655Z</time></trkpt><trkpt lat="44.3604396" lon="8.1885322"><ele>470.6666666666667</ele><time>2026-04-04T13:57:18.655Z</time></trkpt><trkpt lat="44.3604823" lon="8.1888064"><ele>469.33333333333337</ele><time>2026-04-04T13:57:19.655Z</time></trkpt><trkpt lat="44.3605238" lon="8.1890924"><ele>468.0</ele><time>2026-04-04T13:57:20.655Z</time></trkpt><trkpt lat="44.3605553" lon="8.1893575"><ele>468.0</ele><time>2026-04-04T13:57:21.655Z</time></trkpt><trkpt lat="44.3605891" lon="8.1895959"><ele>468.0</ele><time>2026-04-04T13:57:22.655Z</time></trkpt><trkpt lat="44.360651" lon="8.1897966"><ele>468.0</ele><time>2026-04-04T13:57:23.655Z</time></trkpt><trkpt lat="44.3607153" lon="8.1899764"><ele>466.0</ele><time>2026-04-04T13:57:24.655Z</time></trkpt><trkpt lat="44.3607376" lon="8.190174"><ele>464.0</ele><time>2026-04-04T13:57:25.655Z</time></trkpt><trkpt lat="44.3607126" lon="8.1903531"><ele>462.0</ele><time>2026-04-04T13:57:26.655Z</time></trkpt><trkpt lat="44.3607062" lon="8.1905168"><ele>460.0</ele><time>2026-04-04T13:57:27.655Z</time></trkpt><trkpt lat="44.3607222" lon="8.1906519"><ele>457.75</ele><time>2026-04-04T13:57:28.655Z</time></trkpt><trkpt lat="44.3607907" lon="8.1907794"><ele>455.5</ele><time>2026-04-04T13:57:29.655Z</time></trkpt><trkpt lat="44.3609015" lon="8.1908932"><ele>453.25</ele><time>2026-04-04T13:57:30.655Z</time></trkpt><trkpt lat="44.3610038" lon="8.190934"><ele>451.0</ele><time>2026-04-04T13:57:31.655Z</time></trkpt><trkpt lat="44.361145" lon="8.1909061"><ele>451.0</ele><time>2026-04-04T13:57:32.654Z</time></trkpt><trkpt lat="44.3612748" lon="8.1908033"><ele>451.0</ele><time>2026-04-04T13:57:33.655Z</time></trkpt><trkpt lat="44.3613666" lon="8.1907026"><ele>451.0</ele><time>2026-04-04T13:57:34.654Z</time></trkpt><trkpt lat="44.3614392" lon="8.190664"><ele>451.0</ele><time>2026-04-04T13:57:35.655Z</time></trkpt><trkpt lat="44.3615298" lon="8.1906846"><ele>451.0</ele><time>2026-04-04T13:57:36.655Z</time></trkpt><trkpt lat="44.3616304" lon="8.1907663"><ele>451.75</ele><time>2026-04-04T13:57:37.655Z</time></trkpt><trkpt lat="44.3617367" lon="8.1909223"><ele>452.5</ele><time>2026-04-04T13:57:38.655Z</time></trkpt><trkpt lat="44.3618253" lon="8.1910782"><ele>453.25</ele><time>2026-04-04T13:57:39.655Z</time></trkpt><trkpt lat="44.3618844" lon="8.1912473"><ele>454.0</ele><time>2026-04-04T13:57:40.654Z</time></trkpt><trkpt lat="44.3618894" lon="8.1914489"><ele>451.75</ele><time>2026-04-04T13:57:41.655Z</time></trkpt><trkpt lat="44.361826" lon="8.1916464"><ele>449.5</ele><time>2026-04-04T13:57:42.655Z</time></trkpt><trkpt lat="44.3617549" lon="8.1918215"><ele>447.25</ele><time>2026-04-04T13:57:43.655Z</time></trkpt><trkpt lat="44.3616991" lon="8.191968"><ele>445.0</ele><time>2026-04-04T13:57:44.655Z</time></trkpt><trkpt lat="44.3616461" lon="8.1920942"><ele>445.0</ele><time>2026-04-04T13:57:45.655Z</time></trkpt><trkpt lat="44.3615994" lon="8.1922294"><ele>445.0</ele><time>2026-04-04T13:57:46.655Z</time></trkpt><trkpt lat="44.3615624" lon="8.1923836"><ele>445.0</ele><time>2026-04-04T13:57:47.655Z</time></trkpt><trkpt lat="44.3615394" lon="8.1925387"><ele>445.0</ele><time>2026-04-04T13:57:48.654Z</time></trkpt><trkpt lat="44.3615411" lon="8.192687"><ele>445.0</ele><time>2026-04-04T13:57:49.655Z</time></trkpt><trkpt lat="44.361563" lon="8.1928263"><ele>443.75</ele><time>2026-04-04T13:57:50.655Z</time></trkpt><trkpt lat="44.36162" lon="8.1929659"><ele>442.5</ele><time>2026-04-04T13:57:51.654Z</time></trkpt><trkpt lat="44.3616947" lon="8.193082"><ele>441.25</ele><time>2026-04-04T13:57:52.655Z</time></trkpt><trkpt lat="44.361793" lon="8.1931668"><ele>440.0</ele><time>2026-04-04T13:57:53.655Z</time></trkpt><trkpt lat="44.3619003" lon="8.1932285"><ele>442.75</ele><time>2026-04-04T13:57:54.655Z</time></trkpt><trkpt lat="44.3620206" lon="8.1932558"><ele>445.5</ele><time>2026-04-04T13:57:55.655Z</time></trkpt><trkpt lat="44.3621546" lon="8.1932655"><ele>448.25</ele><time>2026-04-04T13:57:56.655Z</time></trkpt><trkpt lat="44.362292" lon="8.1932588"><ele>451.0</ele><time>2026-04-04T13:57:57.655Z</time></trkpt><trkpt lat="44.3624491" lon="8.1932239"><ele>451.0</ele><time>2026-04-04T13:57:58.655Z</time></trkpt><trkpt lat="44.3626081" lon="8.1931857"><ele>451.0</ele><time>2026-04-04T13:57:59.655Z</time></trkpt><trkpt lat="44.362766" lon="8.1931488"><ele>451.0</ele><time>2026-04-04T13:58:00.655Z</time></trkpt><trkpt lat="44.3629165" lon="8.193125"><ele>448.5</ele><time>2026-04-04T13:58:01.655Z</time></trkpt><trkpt lat="44.3630676" lon="8.1931113"><ele>446.0</ele><time>2026-04-04T13:58:02.655Z</time></trkpt><trkpt lat="44.3632159" lon="8.1931064"><ele>443.5</ele><time>2026-04-04T13:58:03.655Z</time></trkpt><trkpt lat="44.3633638" lon="8.1931188"><ele>441.0</ele><time>2026-04-04T13:58:04.655Z</time></trkpt><trkpt lat="44.363508" lon="8.1931645"><ele>440.5</ele><time>2026-04-04T13:58:05.654Z</time></trkpt><trkpt lat="44.3636486" lon="8.1932192"><ele>440.0</ele><time>2026-04-04T13:58:06.655Z</time></trkpt><trkpt lat="44.3637857" lon="8.193263"><ele>439.5</ele><time>2026-04-04T13:58:07.655Z</time></trkpt><trkpt lat="44.3639211" lon="8.1932996"><ele>439.0</ele><time>2026-04-04T13:58:08.655Z</time></trkpt><trkpt lat="44.3640583" lon="8.1933416"><ele>439.0</ele><time>2026-04-04T13:58:09.655Z</time></trkpt><trkpt lat="44.3641948" lon="8.1934141"><ele>439.0</ele><time>2026-04-04T13:58:10.655Z</time></trkpt><trkpt lat="44.3643267" lon="8.1935283"><ele>439.0</ele><time>2026-04-04T13:58:11.654Z</time></trkpt><trkpt lat="44.3644438" lon="8.1936794"><ele>439.0</ele><time>2026-04-04T13:58:12.655Z</time></trkpt><trkpt lat="44.3645458" lon="8.193847"><ele>439.0</ele><time>2026-04-04T13:58:13.655Z</time></trkpt><trkpt lat="44.3646363" lon="8.1940102"><ele>439.0</ele><time>2026-04-04T13:58:14.655Z</time></trkpt><trkpt lat="44.364724" lon="8.1941697"><ele>439.0</ele><time>2026-04-04T13:58:15.655Z</time></trkpt><trkpt lat="44.3648093" lon="8.194316"><ele>438.75</ele><time>2026-04-04T13:58:16.656Z</time></trkpt><trkpt lat="44.364892" lon="8.1944583"><ele>438.5</ele><time>2026-04-04T13:58:17.656Z</time></trkpt><trkpt lat="44.3649728" lon="8.1946041"><ele>438.25</ele><time>2026-04-04T13:58:18.656Z</time></trkpt><trkpt lat="44.3650545" lon="8.1947568"><ele>438.0</ele><time>2026-04-04T13:58:19.656Z</time></trkpt><trkpt lat="44.365136" lon="8.1949128"><ele>439.25</ele><time>2026-04-04T13:58:20.656Z</time></trkpt><trkpt lat="44.3652193" lon="8.1950579"><ele>440.5</ele><time>2026-04-04T13:58:21.656Z</time></trkpt><trkpt lat="44.3653" lon="8.195203"><ele>441.75</ele><time>2026-04-04T13:58:22.656Z</time></trkpt><trkpt lat="44.3653793" lon="8.1953482"><ele>443.0</ele><time>2026-04-04T13:58:23.656Z</time></trkpt><trkpt lat="44.3654529" lon="8.195498"><ele>443.0</ele><time>2026-04-04T13:58:24.656Z</time></trkpt><trkpt lat="44.365519" lon="8.1956549"><ele>443.0</ele><time>2026-04-04T13:58:25.656Z</time></trkpt><trkpt lat="44.3655761" lon="8.1958289"><ele>443.0</ele><time>2026-04-04T13:58:26.656Z</time></trkpt><trkpt lat="44.3656268" lon="8.196019"><ele>443.0</ele><time>2026-04-04T13:58:27.656Z</time></trkpt><trkpt lat="44.3656744" lon="8.1962151"><ele>441.25</ele><time>2026-04-04T13:58:28.656Z</time></trkpt><trkpt lat="44.3657191" lon="8.1964051"><ele>439.5</ele><time>2026-04-04T13:58:29.656Z</time></trkpt><trkpt lat="44.3657627" lon="8.1965821"><ele>437.75</ele><time>2026-04-04T13:58:30.656Z</time></trkpt><trkpt lat="44.3657946" lon="8.1967485"><ele>436.0</ele><time>2026-04-04T13:58:31.655Z</time></trkpt><trkpt lat="44.3658087" lon="8.1969117"><ele>436.0</ele><time>2026-04-04T13:58:32.656Z</time></trkpt><trkpt lat="44.3658008" lon="8.1970736"><ele>436.0</ele><time>2026-04-04T13:58:33.655Z</time></trkpt><trkpt lat="44.3657804" lon="8.197229"><ele>436.0</ele><time>2026-04-04T13:58:34.656Z</time></trkpt><trkpt lat="44.3657564" lon="8.1973828"><ele>436.0</ele><time>2026-04-04T13:58:35.656Z</time></trkpt><trkpt lat="44.3657374" lon="8.1975398"><ele>436.25</ele><time>2026-04-04T13:58:36.656Z</time></trkpt><trkpt lat="44.3657181" lon="8.1977051"><ele>436.5</ele><time>2026-04-04T13:58:37.656Z</time></trkpt><trkpt lat="44.3656936" lon="8.1978786"><ele>436.75</ele><time>2026-04-04T13:58:38.656Z</time></trkpt><trkpt lat="44.3656602" lon="8.1980734"><ele>437.0</ele><time>2026-04-04T13:58:39.656Z</time></trkpt><trkpt lat="44.3656214" lon="8.1982635"><ele>436.5</ele><time>2026-04-04T13:58:40.656Z</time></trkpt><trkpt lat="44.3655462" lon="8.1984442"><ele>436.0</ele><time>2026-04-04T13:58:41.656Z</time></trkpt><trkpt lat="44.365453" lon="8.198606"><ele>435.5</ele><time>2026-04-04T13:58:42.656Z</time></trkpt><trkpt lat="44.3653525" lon="8.198737"><ele>435.0</ele><time>2026-04-04T13:58:43.656Z</time></trkpt><trkpt lat="44.3652418" lon="8.1988579"><ele>435.0</ele><time>2026-04-04T13:58:44.656Z</time></trkpt><trkpt lat="44.3651316" lon="8.1989839"><ele>435.0</ele><time>2026-04-04T13:58:45.656Z</time></trkpt><trkpt lat="44.3650323" lon="8.1991273"><ele>435.0</ele><time>2026-04-04T13:58:46.656Z</time></trkpt><trkpt lat="44.3649432" lon="8.1992793"><ele>435.0</ele><time>2026-04-04T13:58:47.656Z</time></trkpt><trkpt lat="44.3648633" lon="8.1994462"><ele>435.0</ele><time>2026-04-04T13:58:48.656Z</time></trkpt><trkpt lat="44.3647921" lon="8.1996276"><ele>435.0</ele><time>2026-04-04T13:58:49.656Z</time></trkpt><trkpt lat="44.3647279" lon="8.1998179"><ele>435.0</ele><time>2026-04-04T13:58:50.656Z</time></trkpt><trkpt lat="44.3646674" lon="8.2000023"><ele>435.0</ele><time>2026-04-04T13:58:51.656Z</time></trkpt><trkpt lat="44.3646073" lon="8.2001826"><ele>435.0</ele><time>2026-04-04T13:58:52.656Z</time></trkpt><trkpt lat="44.3645492" lon="8.2003572"><ele>435.0</ele><time>2026-04-04T13:58:53.656Z</time></trkpt><trkpt lat="44.3644945" lon="8.2005219"><ele>435.0</ele><time>2026-04-04T13:58:54.655Z</time></trkpt><trkpt lat="44.3644416" lon="8.2006829"><ele>435.0</ele><time>2026-04-04T13:58:55.656Z</time></trkpt><trkpt lat="44.3643919" lon="8.200838"><ele>435.0</ele><time>2026-04-04T13:58:56.656Z</time></trkpt><trkpt lat="44.3643392" lon="8.2009932"><ele>435.0</ele><time>2026-04-04T13:58:57.656Z</time></trkpt><trkpt lat="44.3642764" lon="8.2011695"><ele>435.0</ele><time>2026-04-04T13:58:58.655Z</time></trkpt><trkpt lat="44.3642151" lon="8.2013687"><ele>435.0</ele><time>2026-04-04T13:58:59.656Z</time></trkpt><trkpt lat="44.3641485" lon="8.2015599"><ele>434.0</ele><time>2026-04-04T13:59:00.655Z</time></trkpt><trkpt lat="44.3640792" lon="8.2017484"><ele>433.0</ele><time>2026-04-04T13:59:01.656Z</time></trkpt><trkpt lat="44.3640153" lon="8.2019324"><ele>432.0</ele><time>2026-04-04T13:59:02.656Z</time></trkpt><trkpt lat="44.3639446" lon="8.2021025"><ele>431.0</ele><time>2026-04-04T13:59:03.655Z</time></trkpt><trkpt lat="44.3634788" lon="8.2029334"><ele>432.0</ele><time>2026-04-04T13:59:08.656Z</time></trkpt><trkpt lat="44.3633328" lon="8.2031089"><ele>433.0</ele><time>2026-04-04T13:59:09.656Z</time></trkpt><trkpt lat="44.3631479" lon="8.2033046"><ele>434.0</ele><time>2026-04-04T13:59:10.656Z</time></trkpt><trkpt lat="44.3629868" lon="8.2034761"><ele>444.0</ele><time>2026-04-04T13:59:11.656Z</time></trkpt><trkpt lat="44.3628306" lon="8.2036459"><ele>454.0</ele><time>2026-04-04T13:59:12.656Z</time></trkpt><trkpt lat="44.3599661" lon="8.2069481"><ele>454.0</ele><time>2026-04-04T13:59:33.657Z</time></trkpt><trkpt lat="44.3598666" lon="8.2070528"><ele>454.0</ele><time>2026-04-04T13:59:34.657Z</time></trkpt><trkpt lat="44.3597761" lon="8.2072549"><ele>454.0</ele><time>2026-04-04T13:59:35.657Z</time></trkpt><trkpt lat="44.3596984" lon="8.2074566"><ele>448.6666666666667</ele><time>2026-04-04T13:59:36.657Z</time></trkpt><trkpt lat="44.3596297" lon="8.2076648"><ele>443.33333333333337</ele><time>2026-04-04T13:59:37.657Z</time></trkpt><trkpt lat="44.3595706" lon="8.2078643"><ele>438.0</ele><time>2026-04-04T13:59:38.657Z</time></trkpt><trkpt lat="44.3595189" lon="8.2080616"><ele>439.5</ele><time>2026-04-04T13:59:39.657Z</time></trkpt><trkpt lat="44.359471" lon="8.2082593"><ele>441.0</ele><time>2026-04-04T13:59:40.657Z</time></trkpt><trkpt lat="44.3594243" lon="8.2084567"><ele>442.5</ele><time>2026-04-04T13:59:41.657Z</time></trkpt><trkpt lat="44.3593946" lon="8.208658"><ele>444.0</ele><time>2026-04-04T13:59:42.657Z</time></trkpt><trkpt lat="44.3593831" lon="8.2088636"><ele>447.25</ele><time>2026-04-04T13:59:43.657Z</time></trkpt><trkpt lat="44.3593994" lon="8.209072"><ele>450.5</ele><time>2026-04-04T13:59:44.657Z</time></trkpt><trkpt lat="44.3594279" lon="8.2092633"><ele>453.75</ele><time>2026-04-04T13:59:45.656Z</time></trkpt><trkpt lat="44.3594758" lon="8.2094402"><ele>457.0</ele><time>2026-04-04T13:59:46.657Z</time></trkpt><trkpt lat="44.3595397" lon="8.2096038"><ele>457.0</ele><time>2026-04-04T13:59:47.657Z</time></trkpt><trkpt lat="44.3596094" lon="8.2097356"><ele>457.0</ele><time>2026-04-04T13:59:48.657Z</time></trkpt><trkpt lat="44.3596924" lon="8.2098477"><ele>457.0</ele><time>2026-04-04T13:59:49.657Z</time></trkpt><trkpt lat="44.3597838" lon="8.2099601"><ele>457.0</ele><time>2026-04-04T13:59:50.657Z</time></trkpt><trkpt lat="44.3598686" lon="8.2100736"><ele>451.5</ele><time>2026-04-04T13:59:51.656Z</time></trkpt><trkpt lat="44.3599375" lon="8.2101999"><ele>446.0</ele><time>2026-04-04T13:59:52.657Z</time></trkpt><trkpt lat="44.3601858" lon="8.2106437"><ele>444.5</ele><time>2026-04-04T13:59:55.657Z</time></trkpt><trkpt lat="44.360277" lon="8.2107962"><ele>443.0</ele><time>2026-04-04T13:59:56.657Z</time></trkpt><trkpt lat="44.3606255" lon="8.2111871"><ele>443.0</ele><time>2026-04-04T13:59:59.657Z</time></trkpt><trkpt lat="44.3607212" lon="8.2113229"><ele>443.0</ele><time>2026-04-04T14:00:00.657Z</time></trkpt><trkpt lat="44.3608138" lon="8.2114505"><ele>443.0</ele><time>2026-04-04T14:00:01.657Z</time></trkpt><trkpt lat="44.3608399" lon="8.2116522"><ele>443.0</ele><time>2026-04-04T14:00:02.657Z</time></trkpt><trkpt lat="44.3608199" lon="8.2118664"><ele>443.75</ele><time>2026-04-04T14:00:03.657Z</time></trkpt><trkpt lat="44.3607818" lon="8.212061"><ele>444.5</ele><time>2026-04-04T14:00:04.657Z</time></trkpt><trkpt lat="44.3607513" lon="8.212242"><ele>445.25</ele><time>2026-04-04T14:00:05.657Z</time></trkpt><trkpt lat="44.3607214" lon="8.2124546"><ele>446.0</ele><time>2026-04-04T14:00:06.657Z</time></trkpt><trkpt lat="44.3607071" lon="8.2127327"><ele>446.0</ele><time>2026-04-04T14:00:07.656Z</time></trkpt><trkpt lat="44.3606806" lon="8.2130471"><ele>446.0</ele><time>2026-04-04T14:00:08.657Z</time></trkpt><trkpt lat="44.3606147" lon="8.2133473"><ele>447.0</ele><time>2026-04-04T14:00:09.657Z</time></trkpt><trkpt lat="44.3605364" lon="8.213613"><ele>448.0</ele><time>2026-04-04T14:00:10.657Z</time></trkpt><trkpt lat="44.3604438" lon="8.2138444"><ele>449.0</ele><time>2026-04-04T14:00:11.656Z</time></trkpt><trkpt lat="44.3603286" lon="8.2140435"><ele>449.66666666666663</ele><time>2026-04-04T14:00:12.656Z</time></trkpt><trkpt lat="44.3601946" lon="8.2142073"><ele>450.33333333333337</ele><time>2026-04-04T14:00:13.657Z</time></trkpt><trkpt lat="44.3600586" lon="8.2143355"><ele>451.0</ele><time>2026-04-04T14:00:14.657Z</time></trkpt><trkpt lat="44.359906" lon="8.214446"><ele>451.0</ele><time>2026-04-04T14:00:15.657Z</time></trkpt><trkpt lat="44.3597596" lon="8.2145439"><ele>451.0</ele><time>2026-04-04T14:00:16.657Z</time></trkpt><trkpt lat="44.3596294" lon="8.2146274"><ele>451.0</ele><time>2026-04-04T14:00:17.656Z</time></trkpt><trkpt lat="44.3595185" lon="8.2147047"><ele>451.0</ele><time>2026-04-04T14:00:18.656Z</time></trkpt><trkpt lat="44.3594232" lon="8.2147777"><ele>452.6</ele><time>2026-04-04T14:00:19.657Z</time></trkpt><trkpt lat="44.3593318" lon="8.2148538"><ele>454.20000000000005</ele><time>2026-04-04T14:00:20.657Z</time></trkpt><trkpt lat="44.3592437" lon="8.2149237"><ele>455.79999999999995</ele><time>2026-04-04T14:00:21.657Z</time></trkpt><trkpt lat="44.3591653" lon="8.2149884"><ele>457.4</ele><time>2026-04-04T14:00:22.656Z</time></trkpt><trkpt lat="44.359088" lon="8.2150569"><ele>459.0</ele><time>2026-04-04T14:00:23.657Z</time></trkpt><trkpt lat="44.3590179" lon="8.2151353"><ele>459.0</ele><time>2026-04-04T14:00:24.657Z</time></trkpt><trkpt lat="44.3589565" lon="8.2152232"><ele>459.0</ele><time>2026-04-04T14:00:25.657Z</time></trkpt><trkpt lat="44.3589002" lon="8.2153251"><ele>459.0</ele><time>2026-04-04T14:00:26.657Z</time></trkpt><trkpt lat="44.3588644" lon="8.2154417"><ele>459.0</ele><time>2026-04-04T14:00:27.657Z</time></trkpt><trkpt lat="44.3588581" lon="8.2155839"><ele>459.0</ele><time>2026-04-04T14:00:28.657Z</time></trkpt><trkpt lat="44.3588577" lon="8.2157205"><ele>460.1666666666667</ele><time>2026-04-04T14:00:29.657Z</time></trkpt><trkpt lat="44.3588785" lon="8.215854"><ele>461.33333333333337</ele><time>2026-04-04T14:00:30.657Z</time></trkpt><trkpt lat="44.3589188" lon="8.2159812"><ele>462.5</ele><time>2026-04-04T14:00:31.657Z</time></trkpt><trkpt lat="44.3589731" lon="8.2160982"><ele>463.6666666666667</ele><time>2026-04-04T14:00:32.657Z</time></trkpt><trkpt lat="44.3590203" lon="8.2161922"><ele>464.83333333333337</ele><time>2026-04-04T14:00:33.657Z</time></trkpt><trkpt lat="44.3590564" lon="8.2162668"><ele>466.0</ele><time>2026-04-04T14:00:34.657Z</time></trkpt><trkpt lat="44.3590908" lon="8.2163589"><ele>466.0</ele><time>2026-04-04T14:00:35.657Z</time></trkpt><trkpt lat="44.3591322" lon="8.2164749"><ele>466.0</ele><time>2026-04-04T14:00:36.657Z</time></trkpt><trkpt lat="44.3591824" lon="8.2166075"><ele>466.0</ele><time>2026-04-04T14:00:37.657Z</time></trkpt><trkpt lat="44.3592286" lon="8.2167463"><ele>466.0</ele><time>2026-04-04T14:00:38.656Z</time></trkpt><trkpt lat="44.3592646" lon="8.2168959"><ele>466.0</ele><time>2026-04-04T14:00:39.657Z</time></trkpt><trkpt lat="44.3592771" lon="8.2170699"><ele>466.0</ele><time>2026-04-04T14:00:40.657Z</time></trkpt><trkpt lat="44.3592526" lon="8.2172677"><ele>466.0</ele><time>2026-04-04T14:00:41.657Z</time></trkpt><trkpt lat="44.3591993" lon="8.2174716"><ele>466.0</ele><time>2026-04-04T14:00:42.657Z</time></trkpt><trkpt lat="44.3591212" lon="8.2176676"><ele>466.0</ele><time>2026-04-04T14:00:43.657Z</time></trkpt><trkpt lat="44.3590248" lon="8.2178709"><ele>466.0</ele><time>2026-04-04T14:00:44.657Z</time></trkpt><trkpt lat="44.3589272" lon="8.2181115"><ele>466.0</ele><time>2026-04-04T14:00:45.657Z</time></trkpt><trkpt lat="44.3588523" lon="8.2183807"><ele>467.33333333333337</ele><time>2026-04-04T14:00:46.658Z</time></trkpt><trkpt lat="44.3588071" lon="8.2186532"><ele>468.66666666666663</ele><time>2026-04-04T14:00:47.658Z</time></trkpt><trkpt lat="44.3587765" lon="8.218909"><ele>470.0</ele><time>2026-04-04T14:00:48.658Z</time></trkpt><trkpt lat="44.3587561" lon="8.2191302"><ele>471.5</ele><time>2026-04-04T14:00:49.658Z</time></trkpt><trkpt lat="44.3587456" lon="8.2193251"><ele>473.0</ele><time>2026-04-04T14:00:50.658Z</time></trkpt><trkpt lat="44.3587438" lon="8.21949"><ele>474.5</ele><time>2026-04-04T14:00:51.658Z</time></trkpt><trkpt lat="44.3587513" lon="8.2196557"><ele>476.0</ele><time>2026-04-04T14:00:52.658Z</time></trkpt><trkpt lat="44.358756" lon="8.2198222"><ele>477.0</ele><time>2026-04-04T14:00:53.658Z</time></trkpt><trkpt lat="44.3587584" lon="8.2199824"><ele>478.0</ele><time>2026-04-04T14:00:54.658Z</time></trkpt><trkpt lat="44.3587583" lon="8.2201345"><ele>479.0</ele><time>2026-04-04T14:00:55.658Z</time></trkpt><trkpt lat="44.3587377" lon="8.2203045"><ele>480.0</ele><time>2026-04-04T14:00:56.658Z</time></trkpt><trkpt lat="44.3586722" lon="8.2204779"><ele>480.0</ele><time>2026-04-04T14:00:57.658Z</time></trkpt><trkpt lat="44.358566" lon="8.2206233"><ele>480.0</ele><time>2026-04-04T14:00:58.658Z</time></trkpt><trkpt lat="44.3584251" lon="8.2207224"><ele>480.0</ele><time>2026-04-04T14:00:59.657Z</time></trkpt><trkpt lat="44.3582892" lon="8.2207603"><ele>480.0</ele><time>2026-04-04T14:01:00.658Z</time></trkpt><trkpt lat="44.3581403" lon="8.2207637"><ele>482.25</ele><time>2026-04-04T14:01:01.658Z</time></trkpt><trkpt lat="44.3580028" lon="8.2207549"><ele>484.5</ele><time>2026-04-04T14:01:02.658Z</time></trkpt><trkpt lat="44.3578715" lon="8.2207427"><ele>486.75</ele><time>2026-04-04T14:01:03.658Z</time></trkpt><trkpt lat="44.3577516" lon="8.2207351"><ele>489.0</ele><time>2026-04-04T14:01:04.658Z</time></trkpt><trkpt lat="44.3576396" lon="8.2207313"><ele>489.0</ele><time>2026-04-04T14:01:05.658Z</time></trkpt><trkpt lat="44.3575361" lon="8.22075"><ele>489.0</ele><time>2026-04-04T14:01:06.658Z</time></trkpt><trkpt lat="44.3574415" lon="8.2208111"><ele>489.0</ele><time>2026-04-04T14:01:07.658Z</time></trkpt><trkpt lat="44.3573537" lon="8.2209118"><ele>489.0</ele><time>2026-04-04T14:01:08.658Z</time></trkpt><trkpt lat="44.357276" lon="8.2210478"><ele>489.0</ele><time>2026-04-04T14:01:09.658Z</time></trkpt><trkpt lat="44.357238" lon="8.2212506"><ele>489.0</ele><time>2026-04-04T14:01:10.658Z</time></trkpt><trkpt lat="44.3572153" lon="8.2214405"><ele>489.0</ele><time>2026-04-04T14:01:11.658Z</time></trkpt><trkpt lat="44.3571967" lon="8.2216289"><ele>489.0</ele><time>2026-04-04T14:01:12.658Z</time></trkpt><trkpt lat="44.3571924" lon="8.221821"><ele>489.0</ele><time>2026-04-04T14:01:13.658Z</time></trkpt><trkpt lat="44.3572023" lon="8.2220227"><ele>491.75</ele><time>2026-04-04T14:01:14.658Z</time></trkpt><trkpt lat="44.3572112" lon="8.2222172"><ele>494.5</ele><time>2026-04-04T14:01:15.657Z</time></trkpt><trkpt lat="44.3572203" lon="8.2224091"><ele>497.25</ele><time>2026-04-04T14:01:16.658Z</time></trkpt><trkpt lat="44.3572298" lon="8.2226036"><ele>500.0</ele><time>2026-04-04T14:01:17.658Z</time></trkpt><trkpt lat="44.3572533" lon="8.2228266"><ele>503.0</ele><time>2026-04-04T14:01:18.658Z</time></trkpt><trkpt lat="44.3573032" lon="8.2230938"><ele>506.0</ele><time>2026-04-04T14:01:19.658Z</time></trkpt><trkpt lat="44.3573935" lon="8.2234223"><ele>509.0</ele><time>2026-04-04T14:01:20.658Z</time></trkpt><trkpt lat="44.3574682" lon="8.2237403"><ele>511.3333333333333</ele><time>2026-04-04T14:01:21.658Z</time></trkpt><trkpt lat="44.357544" lon="8.2240483"><ele>513.6666666666666</ele><time>2026-04-04T14:01:22.658Z</time></trkpt><trkpt lat="44.357617" lon="8.2243134"><ele>516.0</ele><time>2026-04-04T14:01:23.658Z</time></trkpt><trkpt lat="44.3576804" lon="8.2245498"><ele>516.0</ele><time>2026-04-04T14:01:24.657Z</time></trkpt><trkpt lat="44.3577291" lon="8.2247761"><ele>516.0</ele><time>2026-04-04T14:01:25.658Z</time></trkpt><trkpt lat="44.3577754" lon="8.2250133"><ele>516.0</ele><time>2026-04-04T14:01:26.657Z</time></trkpt><trkpt lat="44.3578167" lon="8.2252547"><ele>518.0</ele><time>2026-04-04T14:01:27.658Z</time></trkpt><trkpt lat="44.3578515" lon="8.225516"><ele>520.0</ele><time>2026-04-04T14:01:28.658Z</time></trkpt><trkpt lat="44.3578857" lon="8.2257849"><ele>522.0</ele><time>2026-04-04T14:01:29.658Z</time></trkpt><trkpt lat="44.3579167" lon="8.2260598"><ele>523.3333333333334</ele><time>2026-04-04T14:01:30.658Z</time></trkpt><trkpt lat="44.3579461" lon="8.2263192"><ele>524.6666666666667</ele><time>2026-04-04T14:01:31.658Z</time></trkpt><trkpt lat="44.3579764" lon="8.2265333"><ele>526.0</ele><time>2026-04-04T14:01:32.658Z</time></trkpt><trkpt lat="44.3580071" lon="8.2267335"><ele>526.6666666666667</ele><time>2026-04-04T14:01:33.658Z</time></trkpt><trkpt lat="44.3580487" lon="8.2269449"><ele>527.3333333333334</ele><time>2026-04-04T14:01:34.658Z</time></trkpt><trkpt lat="44.3581292" lon="8.2271543"><ele>528.0</ele><time>2026-04-04T14:01:35.657Z</time></trkpt><trkpt lat="44.3582455" lon="8.2273624"><ele>528.0</ele><time>2026-04-04T14:01:36.658Z</time></trkpt><trkpt lat="44.3583854" lon="8.2275549"><ele>528.0</ele><time>2026-04-04T14:01:37.658Z</time></trkpt><trkpt lat="44.358519" lon="8.2277295"><ele>528.0</ele><time>2026-04-04T14:01:38.658Z</time></trkpt><trkpt lat="44.3586425" lon="8.2279063"><ele>528.0</ele><time>2026-04-04T14:01:39.658Z</time></trkpt><trkpt lat="44.3587585" lon="8.2280855"><ele>528.0</ele><time>2026-04-04T14:01:40.658Z</time></trkpt><trkpt lat="44.3588771" lon="8.228275"><ele>528.0</ele><time>2026-04-04T14:01:41.658Z</time></trkpt><trkpt lat="44.359002" lon="8.2284777"><ele>526.0</ele><time>2026-04-04T14:01:42.658Z</time></trkpt><trkpt lat="44.3591292" lon="8.2286972"><ele>524.0</ele><time>2026-04-04T14:01:43.657Z</time></trkpt><trkpt lat="44.3592558" lon="8.2289269"><ele>522.0</ele><time>2026-04-04T14:01:44.658Z</time></trkpt><trkpt lat="44.3593843" lon="8.2291678"><ele>519.3333333333334</ele><time>2026-04-04T14:01:45.657Z</time></trkpt><trkpt lat="44.3595098" lon="8.229418"><ele>516.6666666666667</ele><time>2026-04-04T14:01:46.658Z</time></trkpt><trkpt lat="44.3596283" lon="8.2296904"><ele>514.0</ele><time>2026-04-04T14:01:47.658Z</time></trkpt><trkpt lat="44.359744" lon="8.2299718"><ele>513.5</ele><time>2026-04-04T14:01:48.658Z</time></trkpt><trkpt lat="44.3598612" lon="8.2302533"><ele>513.0</ele><time>2026-04-04T14:01:49.658Z</time></trkpt><trkpt lat="44.3599795" lon="8.2305344"><ele>510.66666666666663</ele><time>2026-04-04T14:01:50.658Z</time></trkpt><trkpt lat="44.3601025" lon="8.2308041"><ele>508.3333333333333</ele><time>2026-04-04T14:01:51.658Z</time></trkpt><trkpt lat="44.3602187" lon="8.2310666"><ele>506.0</ele><time>2026-04-04T14:01:52.658Z</time></trkpt><trkpt lat="44.3603301" lon="8.2313262"><ele>503.3333333333333</ele><time>2026-04-04T14:01:53.658Z</time></trkpt><trkpt lat="44.3604429" lon="8.2315858"><ele>500.66666666666663</ele><time>2026-04-04T14:01:54.658Z</time></trkpt><trkpt lat="44.3605567" lon="8.23185"><ele>498.0</ele><time>2026-04-04T14:01:55.658Z</time></trkpt><trkpt lat="44.3606796" lon="8.2321095"><ele>497.33333333333337</ele><time>2026-04-04T14:01:56.658Z</time></trkpt><trkpt lat="44.3608001" lon="8.2323707"><ele>496.6666666666667</ele><time>2026-04-04T14:01:57.658Z</time></trkpt><trkpt lat="44.3609265" lon="8.2326259"><ele>496.0</ele><time>2026-04-04T14:01:58.659Z</time></trkpt><trkpt lat="44.3610692" lon="8.2328559"><ele>496.0</ele><time>2026-04-04T14:01:59.659Z</time></trkpt><trkpt lat="44.3612262" lon="8.2330813"><ele>496.0</ele><time>2026-04-04T14:02:00.659Z</time></trkpt><trkpt lat="44.3613869" lon="8.2333016"><ele>492.33333333333337</ele><time>2026-04-04T14:02:01.659Z</time></trkpt><trkpt lat="44.3615358" lon="8.2335193"><ele>488.66666666666663</ele><time>2026-04-04T14:02:02.658Z</time></trkpt><trkpt lat="44.3616807" lon="8.2337433"><ele>485.0</ele><time>2026-04-04T14:02:03.659Z</time></trkpt><trkpt lat="44.3618136" lon="8.2339803"><ele>483.0</ele><time>2026-04-04T14:02:04.659Z</time></trkpt><trkpt lat="44.3619229" lon="8.2342446"><ele>481.0</ele><time>2026-04-04T14:02:05.659Z</time></trkpt><trkpt lat="44.3620136" lon="8.2345382"><ele>479.0</ele><time>2026-04-04T14:02:06.658Z</time></trkpt><trkpt lat="44.3620775" lon="8.2348558"><ele>475.5</ele><time>2026-04-04T14:02:07.659Z</time></trkpt><trkpt lat="44.362123" lon="8.2351689"><ele>472.0</ele><time>2026-04-04T14:02:08.659Z</time></trkpt><trkpt lat="44.3621725" lon="8.2354708"><ele>473.6666666666667</ele><time>2026-04-04T14:02:09.659Z</time></trkpt><trkpt lat="44.3622252" lon="8.2357616"><ele>475.33333333333337</ele><time>2026-04-04T14:02:10.659Z</time></trkpt><trkpt lat="44.3622818" lon="8.2360517"><ele>477.0</ele><time>2026-04-04T14:02:11.659Z</time></trkpt><trkpt lat="44.3623421" lon="8.2363356"><ele>474.66666666666663</ele><time>2026-04-04T14:02:12.659Z</time></trkpt><trkpt lat="44.3624025" lon="8.2366129"><ele>472.3333333333333</ele><time>2026-04-04T14:02:13.659Z</time></trkpt><trkpt lat="44.362461" lon="8.2368787"><ele>470.0</ele><time>2026-04-04T14:02:14.659Z</time></trkpt><trkpt lat="44.3625168" lon="8.2371323"><ele>468.3333333333333</ele><time>2026-04-04T14:02:15.659Z</time></trkpt><trkpt lat="44.3625663" lon="8.2373702"><ele>466.66666666666663</ele><time>2026-04-04T14:02:16.659Z</time></trkpt><trkpt lat="44.3626122" lon="8.2375931"><ele>465.0</ele><time>2026-04-04T14:02:17.658Z</time></trkpt><trkpt lat="44.3626523" lon="8.2378104"><ele>465.0</ele><time>2026-04-04T14:02:18.659Z</time></trkpt><trkpt lat="44.3626873" lon="8.2380223"><ele>465.0</ele><time>2026-04-04T14:02:19.659Z</time></trkpt><trkpt lat="44.3627026" lon="8.2382293"><ele>465.0</ele><time>2026-04-04T14:02:20.659Z</time></trkpt><trkpt lat="44.3626943" lon="8.2384341"><ele>464.75</ele><time>2026-04-04T14:02:21.659Z</time></trkpt><trkpt lat="44.3626541" lon="8.2386381"><ele>464.5</ele><time>2026-04-04T14:02:22.659Z</time></trkpt><trkpt lat="44.3625939" lon="8.2388317"><ele>464.25</ele><time>2026-04-04T14:02:23.659Z</time></trkpt><trkpt lat="44.3625546" lon="8.2390052"><ele>464.0</ele><time>2026-04-04T14:02:24.658Z</time></trkpt><trkpt lat="44.3625242" lon="8.2391626"><ele>463.79999999999995</ele><time>2026-04-04T14:02:25.659Z</time></trkpt><trkpt lat="44.3624957" lon="8.2393144"><ele>463.59999999999997</ele><time>2026-04-04T14:02:26.659Z</time></trkpt><trkpt lat="44.3624609" lon="8.2394504"><ele>463.4</ele><time>2026-04-04T14:02:27.659Z</time></trkpt><trkpt lat="44.3624204" lon="8.2395738"><ele>463.2</ele><time>2026-04-04T14:02:28.659Z</time></trkpt><trkpt lat="44.3623825" lon="8.2397134"><ele>463.0</ele><time>2026-04-04T14:02:29.659Z</time></trkpt><trkpt lat="44.3623584" lon="8.2398859"><ele>463.6666666666667</ele><time>2026-04-04T14:02:30.659Z</time></trkpt><trkpt lat="44.3623439" lon="8.2400996"><ele>464.33333333333337</ele><time>2026-04-04T14:02:31.658Z</time></trkpt><trkpt lat="44.3623391" lon="8.2403306"><ele>465.0</ele><time>2026-04-04T14:02:32.659Z</time></trkpt><trkpt lat="44.3622989" lon="8.2405296"><ele>465.4</ele><time>2026-04-04T14:02:33.659Z</time></trkpt><trkpt lat="44.3622697" lon="8.240704"><ele>465.8</ele><time>2026-04-04T14:02:34.658Z</time></trkpt><trkpt lat="44.3622497" lon="8.2408324"><ele>466.20000000000005</ele><time>2026-04-04T14:02:35.659Z</time></trkpt><trkpt lat="44.3622381" lon="8.2409807"><ele>466.6</ele><time>2026-04-04T14:02:36.659Z</time></trkpt><trkpt lat="44.3622433" lon="8.2411198"><ele>467.0</ele><time>2026-04-04T14:02:37.659Z</time></trkpt><trkpt lat="44.3622895" lon="8.2412844"><ele>465.3333333333333</ele><time>2026-04-04T14:02:38.659Z</time></trkpt><trkpt lat="44.3623988" lon="8.2414772"><ele>463.66666666666663</ele><time>2026-04-04T14:02:39.658Z</time></trkpt><trkpt lat="44.3625525" lon="8.2416541"><ele>462.0</ele><time>2026-04-04T14:02:40.659Z</time></trkpt><trkpt lat="44.3626907" lon="8.2418156"><ele>462.0</ele><time>2026-04-04T14:02:41.659Z</time></trkpt><trkpt lat="44.3628363" lon="8.2419971"><ele>462.0</ele><time>2026-04-04T14:02:42.659Z</time></trkpt><trkpt lat="44.3629815" lon="8.242178"><ele>462.0</ele><time>2026-04-04T14:02:43.659Z</time></trkpt><trkpt lat="44.3631108" lon="8.2423448"><ele>461.33333333333337</ele><time>2026-04-04T14:02:44.658Z</time></trkpt><trkpt lat="44.3632363" lon="8.2425118"><ele>460.6666666666667</ele><time>2026-04-04T14:02:45.659Z</time></trkpt><trkpt lat="44.3633581" lon="8.2426874"><ele>460.0</ele><time>2026-04-04T14:02:46.659Z</time></trkpt><trkpt lat="44.3634793" lon="8.242872"><ele>460.0</ele><time>2026-04-04T14:02:47.659Z</time></trkpt><trkpt lat="44.3635983" lon="8.2430811"><ele>460.0</ele><time>2026-04-04T14:02:48.659Z</time></trkpt><trkpt lat="44.3637011" lon="8.2433086"><ele>460.0</ele><time>2026-04-04T14:02:49.658Z</time></trkpt><trkpt lat="44.3637856" lon="8.2435449"><ele>458.33333333333337</ele><time>2026-04-04T14:02:50.659Z</time></trkpt><trkpt lat="44.363861" lon="8.2437865"><ele>456.66666666666663</ele><time>2026-04-04T14:02:51.659Z</time></trkpt><trkpt lat="44.3639236" lon="8.244043"><ele>455.0</ele><time>2026-04-04T14:02:52.658Z</time></trkpt><trkpt lat="44.363977" lon="8.2443126"><ele>455.0</ele><time>2026-04-04T14:02:53.659Z</time></trkpt><trkpt lat="44.3640236" lon="8.2446019"><ele>455.0</ele><time>2026-04-04T14:02:54.659Z</time></trkpt><trkpt lat="44.364064" lon="8.2449064"><ele>455.0</ele><time>2026-04-04T14:02:55.659Z</time></trkpt><trkpt lat="44.3640998" lon="8.2452119"><ele>453.66666666666663</ele><time>2026-04-04T14:02:56.659Z</time></trkpt><trkpt lat="44.364135" lon="8.2455234"><ele>452.33333333333337</ele><time>2026-04-04T14:02:57.659Z</time></trkpt><trkpt lat="44.3641747" lon="8.2458205"><ele>451.0</ele><time>2026-04-04T14:02:58.659Z</time></trkpt><trkpt lat="44.3642157" lon="8.2461064"><ele>449.33333333333337</ele><time>2026-04-04T14:02:59.659Z</time></trkpt><trkpt lat="44.3642558" lon="8.2463992"><ele>447.66666666666663</ele><time>2026-04-04T14:03:00.659Z</time></trkpt><trkpt lat="44.3642933" lon="8.2466939"><ele>446.0</ele><time>2026-04-04T14:03:01.659Z</time></trkpt><trkpt lat="44.3643317" lon="8.2469778"><ele>445.0</ele><time>2026-04-04T14:03:02.659Z</time></trkpt><trkpt lat="44.3643695" lon="8.2472752"><ele>444.0</ele><time>2026-04-04T14:03:03.659Z</time></trkpt><trkpt lat="44.3644105" lon="8.2475593"><ele>443.0</ele><time>2026-04-04T14:03:04.659Z</time></trkpt><trkpt lat="44.3644537" lon="8.2478298"><ele>442.3333333333333</ele><time>2026-04-04T14:03:05.659Z</time></trkpt><trkpt lat="44.3645056" lon="8.2480988"><ele>441.66666666666663</ele><time>2026-04-04T14:03:06.659Z</time></trkpt><trkpt lat="44.3645397" lon="8.2483832"><ele>441.0</ele><time>2026-04-04T14:03:07.658Z</time></trkpt><trkpt lat="44.3645813" lon="8.248654"><ele>440.0</ele><time>2026-04-04T14:03:08.659Z</time></trkpt><trkpt lat="44.3646221" lon="8.2489262"><ele>439.0</ele><time>2026-04-04T14:03:09.659Z</time></trkpt><trkpt lat="44.3646594" lon="8.2491952"><ele>438.0</ele><time>2026-04-04T14:03:10.659Z</time></trkpt><trkpt lat="44.3646915" lon="8.2494585"><ele>439.0</ele><time>2026-04-04T14:03:11.659Z</time></trkpt><trkpt lat="44.364718" lon="8.2497328"><ele>440.0</ele><time>2026-04-04T14:03:12.659Z</time></trkpt><trkpt lat="44.3647515" lon="8.2500007"><ele>441.0</ele><time>2026-04-04T14:03:13.66Z</time></trkpt><trkpt lat="44.3647837" lon="8.2502696"><ele>441.0</ele><time>2026-04-04T14:03:14.66Z</time></trkpt><trkpt lat="44.3648156" lon="8.2505422"><ele>441.0</ele><time>2026-04-04T14:03:15.66Z</time></trkpt><trkpt lat="44.3648569" lon="8.2507942"><ele>441.0</ele><time>2026-04-04T14:03:16.66Z</time></trkpt><trkpt lat="44.3648982" lon="8.2510507"><ele>439.66666666666663</ele><time>2026-04-04T14:03:17.66Z</time></trkpt><trkpt lat="44.3649373" lon="8.2513159"><ele>438.3333333333333</ele><time>2026-04-04T14:03:18.66Z</time></trkpt><trkpt lat="44.3649791" lon="8.251582"><ele>437.0</ele><time>2026-04-04T14:03:19.66Z</time></trkpt><trkpt lat="44.3650125" lon="8.2518385"><ele>435.66666666666663</ele><time>2026-04-04T14:03:20.659Z</time></trkpt><trkpt lat="44.3650538" lon="8.2520858"><ele>434.33333333333337</ele><time>2026-04-04T14:03:21.66Z</time></trkpt><trkpt lat="44.3650924" lon="8.2523306"><ele>433.0</ele><time>2026-04-04T14:03:22.659Z</time></trkpt><trkpt lat="44.3651258" lon="8.2525804"><ele>431.6666666666667</ele><time>2026-04-04T14:03:23.66Z</time></trkpt><trkpt lat="44.3651684" lon="8.2528291"><ele>430.33333333333337</ele><time>2026-04-04T14:03:24.66Z</time></trkpt><trkpt lat="44.3652196" lon="8.2530794"><ele>429.0</ele><time>2026-04-04T14:03:25.66Z</time></trkpt><trkpt lat="44.3652914" lon="8.2533177"><ele>428.33333333333337</ele><time>2026-04-04T14:03:26.66Z</time></trkpt><trkpt lat="44.3653852" lon="8.2535515"><ele>427.6666666666667</ele><time>2026-04-04T14:03:27.66Z</time></trkpt><trkpt lat="44.3654775" lon="8.25378"><ele>427.0</ele><time>2026-04-04T14:03:28.66Z</time></trkpt><trkpt lat="44.3655665" lon="8.2539978"><ele>429.33333333333337</ele><time>2026-04-04T14:03:29.66Z</time></trkpt><trkpt lat="44.3656726" lon="8.2541953"><ele>431.66666666666663</ele><time>2026-04-04T14:03:30.66Z</time></trkpt><trkpt lat="44.3657909" lon="8.2543749"><ele>434.0</ele><time>2026-04-04T14:03:31.66Z</time></trkpt><trkpt lat="44.3658929" lon="8.2545519"><ele>434.0</ele><time>2026-04-04T14:03:32.659Z</time></trkpt><trkpt lat="44.3660076" lon="8.254724"><ele>434.0</ele><time>2026-04-04T14:03:33.659Z</time></trkpt><trkpt lat="44.3661102" lon="8.2549208"><ele>434.0</ele><time>2026-04-04T14:03:34.66Z</time></trkpt><trkpt lat="44.3662076" lon="8.2551441"><ele>435.3333333333333</ele><time>2026-04-04T14:03:35.66Z</time></trkpt><trkpt lat="44.3662899" lon="8.2553892"><ele>436.66666666666663</ele><time>2026-04-04T14:03:36.66Z</time></trkpt><trkpt lat="44.3663347" lon="8.2556464"><ele>438.0</ele><time>2026-04-04T14:03:37.66Z</time></trkpt><trkpt lat="44.3663632" lon="8.2558866"><ele>438.0</ele><time>2026-04-04T14:03:38.66Z</time></trkpt><trkpt lat="44.3663569" lon="8.2561081"><ele>438.0</ele><time>2026-04-04T14:03:39.66Z</time></trkpt><trkpt lat="44.3663681" lon="8.2563298"><ele>438.0</ele><time>2026-04-04T14:03:40.66Z</time></trkpt><trkpt lat="44.3664095" lon="8.2565456"><ele>435.5</ele><time>2026-04-04T14:03:41.66Z</time></trkpt><trkpt lat="44.3664342" lon="8.2567453"><ele>433.0</ele><time>2026-04-04T14:03:42.66Z</time></trkpt><trkpt lat="44.3664538" lon="8.2569302"><ele>430.5</ele><time>2026-04-04T14:03:43.66Z</time></trkpt><trkpt lat="44.3664957" lon="8.2571021"><ele>428.0</ele><time>2026-04-04T14:03:44.66Z</time></trkpt><trkpt lat="44.3665633" lon="8.2572618"><ele>425.0</ele><time>2026-04-04T14:03:45.66Z</time></trkpt><trkpt lat="44.3666697" lon="8.2573813"><ele>422.0</ele><time>2026-04-04T14:03:46.66Z</time></trkpt><trkpt lat="44.3668167" lon="8.2574823"><ele>419.0</ele><time>2026-04-04T14:03:47.66Z</time></trkpt><trkpt lat="44.3669385" lon="8.2576035"><ele>419.0</ele><time>2026-04-04T14:03:48.66Z</time></trkpt><trkpt lat="44.3670208" lon="8.2577527"><ele>419.0</ele><time>2026-04-04T14:03:49.66Z</time></trkpt><trkpt lat="44.3670689" lon="8.2579288"><ele>419.0</ele><time>2026-04-04T14:03:50.66Z</time></trkpt><trkpt lat="44.3671182" lon="8.2581068"><ele>419.0</ele><time>2026-04-04T14:03:51.659Z</time></trkpt><trkpt lat="44.3671686" lon="8.2582853"><ele>417.75</ele><time>2026-04-04T14:03:52.66Z</time></trkpt><trkpt lat="44.3672248" lon="8.258458"><ele>416.5</ele><time>2026-04-04T14:03:53.66Z</time></trkpt><trkpt lat="44.3672345" lon="8.2586477"><ele>415.25</ele><time>2026-04-04T14:03:54.66Z</time></trkpt><trkpt lat="44.3671931" lon="8.2588688"><ele>414.0</ele><time>2026-04-04T14:03:55.66Z</time></trkpt><trkpt lat="44.3671504" lon="8.2590686"><ele>412.75</ele><time>2026-04-04T14:03:56.659Z</time></trkpt><trkpt lat="44.3671074" lon="8.2592592"><ele>411.5</ele><time>2026-04-04T14:03:57.66Z</time></trkpt><trkpt lat="44.3670665" lon="8.2594512"><ele>410.25</ele><time>2026-04-04T14:03:58.66Z</time></trkpt><trkpt lat="44.3670306" lon="8.2596563"><ele>409.0</ele><time>2026-04-04T14:03:59.66Z</time></trkpt><trkpt lat="44.3670091" lon="8.2598345"><ele>408.5</ele><time>2026-04-04T14:04:00.66Z</time></trkpt><trkpt lat="44.3669801" lon="8.2599951"><ele>408.0</ele><time>2026-04-04T14:04:01.66Z</time></trkpt><trkpt lat="44.3669618" lon="8.2601585"><ele>407.5</ele><time>2026-04-04T14:04:02.659Z</time></trkpt><trkpt lat="44.3669377" lon="8.2603156"><ele>407.0</ele><time>2026-04-04T14:04:03.66Z</time></trkpt><trkpt lat="44.3669136" lon="8.2604744"><ele>406.5</ele><time>2026-04-04T14:04:04.66Z</time></trkpt><trkpt lat="44.3668927" lon="8.260647"><ele>406.0</ele><time>2026-04-04T14:04:05.66Z</time></trkpt><trkpt lat="44.3668649" lon="8.2608179"><ele>405.5</ele><time>2026-04-04T14:04:06.66Z</time></trkpt><trkpt lat="44.3668281" lon="8.2609908"><ele>405.0</ele><time>2026-04-04T14:04:07.66Z</time></trkpt><trkpt lat="44.3667976" lon="8.2611741"><ele>405.0</ele><time>2026-04-04T14:04:08.66Z</time></trkpt><trkpt lat="44.3667657" lon="8.2613528"><ele>405.0</ele><time>2026-04-04T14:04:09.66Z</time></trkpt><trkpt lat="44.3667307" lon="8.2615276"><ele>405.0</ele><time>2026-04-04T14:04:10.66Z</time></trkpt><trkpt lat="44.3667078" lon="8.2616998"><ele>405.0</ele><time>2026-04-04T14:04:11.66Z</time></trkpt><trkpt lat="44.3666853" lon="8.261865"><ele>405.75</ele><time>2026-04-04T14:04:12.659Z</time></trkpt><trkpt lat="44.3666619" lon="8.262029"><ele>406.5</ele><time>2026-04-04T14:04:13.66Z</time></trkpt><trkpt lat="44.3666376" lon="8.2621865"><ele>407.25</ele><time>2026-04-04T14:04:14.66Z</time></trkpt><trkpt lat="44.3666115" lon="8.2623461"><ele>408.0</ele><time>2026-04-04T14:04:15.66Z</time></trkpt><trkpt lat="44.3665874" lon="8.2625054"><ele>406.25</ele><time>2026-04-04T14:04:16.66Z</time></trkpt><trkpt lat="44.3665594" lon="8.2626623"><ele>404.5</ele><time>2026-04-04T14:04:17.66Z</time></trkpt><trkpt lat="44.366531" lon="8.2628256"><ele>402.75</ele><time>2026-04-04T14:04:18.659Z</time></trkpt><trkpt lat="44.3664993" lon="8.2629859"><ele>401.0</ele><time>2026-04-04T14:04:19.659Z</time></trkpt><trkpt lat="44.3664658" lon="8.2631392"><ele>401.0</ele><time>2026-04-04T14:04:20.66Z</time></trkpt><trkpt lat="44.3664373" lon="8.2632832"><ele>401.0</ele><time>2026-04-04T14:04:21.659Z</time></trkpt><trkpt lat="44.3664087" lon="8.2634201"><ele>401.0</ele><time>2026-04-04T14:04:22.66Z</time></trkpt><trkpt lat="44.3663791" lon="8.2635572"><ele>401.0</ele><time>2026-04-04T14:04:23.66Z</time></trkpt><trkpt lat="44.3663526" lon="8.2637107"><ele>401.0</ele><time>2026-04-04T14:04:24.66Z</time></trkpt><trkpt lat="44.3663205" lon="8.2638587"><ele>400.25</ele><time>2026-04-04T14:04:25.66Z</time></trkpt><trkpt lat="44.3662853" lon="8.264006"><ele>399.5</ele><time>2026-04-04T14:04:26.661Z</time></trkpt><trkpt lat="44.3662481" lon="8.2641585"><ele>398.75</ele><time>2026-04-04T14:04:27.661Z</time></trkpt><trkpt lat="44.3662105" lon="8.2643151"><ele>398.0</ele><time>2026-04-04T14:04:28.661Z</time></trkpt><trkpt lat="44.3661746" lon="8.2644709"><ele>398.0</ele><time>2026-04-04T14:04:29.661Z</time></trkpt><trkpt lat="44.3661427" lon="8.2646217"><ele>398.0</ele><time>2026-04-04T14:04:30.661Z</time></trkpt><trkpt lat="44.3661125" lon="8.2647715"><ele>398.0</ele><time>2026-04-04T14:04:31.661Z</time></trkpt><trkpt lat="44.3660804" lon="8.2649202"><ele>398.0</ele><time>2026-04-04T14:04:32.661Z</time></trkpt><trkpt lat="44.3660482" lon="8.2650756"><ele>397.0</ele><time>2026-04-04T14:04:33.661Z</time></trkpt><trkpt lat="44.3660154" lon="8.2652334"><ele>396.0</ele><time>2026-04-04T14:04:34.661Z</time></trkpt><trkpt lat="44.3659792" lon="8.2653916"><ele>395.0</ele><time>2026-04-04T14:04:35.661Z</time></trkpt><trkpt lat="44.3659434" lon="8.2655541"><ele>394.0</ele><time>2026-04-04T14:04:36.661Z</time></trkpt><trkpt lat="44.3659069" lon="8.2657175"><ele>394.0</ele><time>2026-04-04T14:04:37.661Z</time></trkpt><trkpt lat="44.3658703" lon="8.2658762"><ele>394.0</ele><time>2026-04-04T14:04:38.661Z</time></trkpt><trkpt lat="44.3658357" lon="8.2660321"><ele>394.0</ele><time>2026-04-04T14:04:39.661Z</time></trkpt><trkpt lat="44.3658029" lon="8.2661846"><ele>394.0</ele><time>2026-04-04T14:04:40.661Z</time></trkpt><trkpt lat="44.3657712" lon="8.2663352"><ele>394.2</ele><time>2026-04-04T14:04:41.66Z</time></trkpt><trkpt lat="44.3657384" lon="8.2664864"><ele>394.4</ele><time>2026-04-04T14:04:42.66Z</time></trkpt><trkpt lat="44.3657018" lon="8.2666403"><ele>394.6</ele><time>2026-04-04T14:04:43.66Z</time></trkpt><trkpt lat="44.3656656" lon="8.2667899"><ele>394.8</ele><time>2026-04-04T14:04:44.661Z</time></trkpt><trkpt lat="44.3656329" lon="8.2669308"><ele>395.0</ele><time>2026-04-04T14:04:45.661Z</time></trkpt><trkpt lat="44.3656008" lon="8.2670718"><ele>395.0</ele><time>2026-04-04T14:04:46.66Z</time></trkpt><trkpt lat="44.3655704" lon="8.2672143"><ele>395.0</ele><time>2026-04-04T14:04:47.661Z</time></trkpt><trkpt lat="44.3655389" lon="8.267356"><ele>395.0</ele><time>2026-04-04T14:04:48.661Z</time></trkpt><trkpt lat="44.3655064" lon="8.2674997"><ele>395.0</ele><time>2026-04-04T14:04:49.661Z</time></trkpt><trkpt lat="44.3654706" lon="8.2676535"><ele>395.0</ele><time>2026-04-04T14:04:50.661Z</time></trkpt><trkpt lat="44.3654363" lon="8.2677998"><ele>393.6</ele><time>2026-04-04T14:04:51.661Z</time></trkpt><trkpt lat="44.3654081" lon="8.2679452"><ele>392.2</ele><time>2026-04-04T14:04:52.661Z</time></trkpt><trkpt lat="44.3653785" lon="8.2680942"><ele>390.79999999999995</ele><time>2026-04-04T14:04:53.661Z</time></trkpt><trkpt lat="44.3653457" lon="8.2682497"><ele>389.4</ele><time>2026-04-04T14:04:54.66Z</time></trkpt><trkpt lat="44.3653128" lon="8.2684"><ele>388.0</ele><time>2026-04-04T14:04:55.661Z</time></trkpt><trkpt lat="44.3652781" lon="8.2685481"><ele>387.5</ele><time>2026-04-04T14:04:56.661Z</time></trkpt><trkpt lat="44.365243" lon="8.2686996"><ele>387.0</ele><time>2026-04-04T14:04:57.661Z</time></trkpt><trkpt lat="44.3652054" lon="8.2688523"><ele>386.5</ele><time>2026-04-04T14:04:58.66Z</time></trkpt><trkpt lat="44.3651715" lon="8.2690055"><ele>386.0</ele><time>2026-04-04T14:04:59.66Z</time></trkpt><trkpt lat="44.3651369" lon="8.2691611"><ele>386.0</ele><time>2026-04-04T14:05:00.661Z</time></trkpt><trkpt lat="44.3651011" lon="8.2693155"><ele>386.0</ele><time>2026-04-04T14:05:01.661Z</time></trkpt><trkpt lat="44.3650685" lon="8.2694713"><ele>386.0</ele><time>2026-04-04T14:05:02.661Z</time></trkpt><trkpt lat="44.3650353" lon="8.2696242"><ele>386.0</ele><time>2026-04-04T14:05:03.66Z</time></trkpt><trkpt lat="44.3649999" lon="8.2697845"><ele>386.0</ele><time>2026-04-04T14:05:04.661Z</time></trkpt><trkpt lat="44.3649647" lon="8.2699526"><ele>386.0</ele><time>2026-04-04T14:05:05.661Z</time></trkpt><trkpt lat="44.3649267" lon="8.2701277"><ele>386.0</ele><time>2026-04-04T14:05:06.661Z</time></trkpt><trkpt lat="44.3648877" lon="8.2703044"><ele>386.0</ele><time>2026-04-04T14:05:07.661Z</time></trkpt><trkpt lat="44.3648472" lon="8.2704817"><ele>386.0</ele><time>2026-04-04T14:05:08.661Z</time></trkpt><trkpt lat="44.3648082" lon="8.2706626"><ele>386.0</ele><time>2026-04-04T14:05:09.661Z</time></trkpt><trkpt lat="44.3647686" lon="8.2708453"><ele>386.0</ele><time>2026-04-04T14:05:10.661Z</time></trkpt><trkpt lat="44.3647289" lon="8.2710252"><ele>386.0</ele><time>2026-04-04T14:05:11.661Z</time></trkpt><trkpt lat="44.3646878" lon="8.2711993"><ele>385.25</ele><time>2026-04-04T14:05:12.661Z</time></trkpt><trkpt lat="44.3646492" lon="8.2713668"><ele>384.5</ele><time>2026-04-04T14:05:13.661Z</time></trkpt><trkpt lat="44.3646099" lon="8.2715277"><ele>383.75</ele><time>2026-04-04T14:05:14.661Z</time></trkpt><trkpt lat="44.3645721" lon="8.271689"><ele>383.0</ele><time>2026-04-04T14:05:15.661Z</time></trkpt><trkpt lat="44.3645354" lon="8.2718478"><ele>383.0</ele><time>2026-04-04T14:05:16.661Z</time></trkpt><trkpt lat="44.3644994" lon="8.2720054"><ele>383.0</ele><time>2026-04-04T14:05:17.661Z</time></trkpt><trkpt lat="44.364469" lon="8.2721648"><ele>383.0</ele><time>2026-04-04T14:05:18.661Z</time></trkpt><trkpt lat="44.3644344" lon="8.2723174"><ele>383.0</ele><time>2026-04-04T14:05:19.661Z</time></trkpt><trkpt lat="44.3644018" lon="8.2724713"><ele>383.0</ele><time>2026-04-04T14:05:20.661Z</time></trkpt><trkpt lat="44.3643681" lon="8.2726246"><ele>383.0</ele><time>2026-04-04T14:05:21.66Z</time></trkpt><trkpt lat="44.3643313" lon="8.2727767"><ele>383.0</ele><time>2026-04-04T14:05:22.661Z</time></trkpt><trkpt lat="44.3642937" lon="8.2729325"><ele>383.0</ele><time>2026-04-04T14:05:23.66Z</time></trkpt><trkpt lat="44.3642574" lon="8.2730927"><ele>382.59999999999997</ele><time>2026-04-04T14:05:24.661Z</time></trkpt><trkpt lat="44.3642229" lon="8.2732442"><ele>382.2</ele><time>2026-04-04T14:05:25.661Z</time></trkpt><trkpt lat="44.3641901" lon="8.2733882"><ele>381.8</ele><time>2026-04-04T14:05:26.66Z</time></trkpt><trkpt lat="44.3641608" lon="8.2735287"><ele>381.4</ele><time>2026-04-04T14:05:27.661Z</time></trkpt><trkpt lat="44.3641309" lon="8.2736775"><ele>381.0</ele><time>2026-04-04T14:05:28.661Z</time></trkpt><trkpt lat="44.3640969" lon="8.2738389"><ele>381.25</ele><time>2026-04-04T14:05:29.661Z</time></trkpt><trkpt lat="44.3640579" lon="8.2740073"><ele>381.5</ele><time>2026-04-04T14:05:30.661Z</time></trkpt><trkpt lat="44.364021" lon="8.2741863"><ele>381.75</ele><time>2026-04-04T14:05:31.661Z</time></trkpt><trkpt lat="44.3639804" lon="8.2743801"><ele>382.0</ele><time>2026-04-04T14:05:32.661Z</time></trkpt><trkpt lat="44.3639359" lon="8.2745799"><ele>382.0</ele><time>2026-04-04T14:05:33.661Z</time></trkpt><trkpt lat="44.3638909" lon="8.2747666"><ele>382.0</ele><time>2026-04-04T14:05:34.661Z</time></trkpt><trkpt lat="44.3638529" lon="8.2749437"><ele>382.0</ele><time>2026-04-04T14:05:35.661Z</time></trkpt><trkpt lat="44.363815" lon="8.2751157"><ele>382.0</ele><time>2026-04-04T14:05:36.661Z</time></trkpt><trkpt lat="44.3637791" lon="8.2752794"><ele>380.5</ele><time>2026-04-04T14:05:37.661Z</time></trkpt><trkpt lat="44.3637437" lon="8.2754499"><ele>379.0</ele><time>2026-04-04T14:05:38.661Z</time></trkpt><trkpt lat="44.3637084" lon="8.2756307"><ele>377.5</ele><time>2026-04-04T14:05:39.661Z</time></trkpt><trkpt lat="44.3636792" lon="8.2758228"><ele>376.0</ele><time>2026-04-04T14:05:40.661Z</time></trkpt><trkpt lat="44.3636699" lon="8.2760145"><ele>374.75</ele><time>2026-04-04T14:05:41.661Z</time></trkpt><trkpt lat="44.3636865" lon="8.2761929"><ele>373.5</ele><time>2026-04-04T14:05:42.662Z</time></trkpt><trkpt lat="44.3637048" lon="8.2763614"><ele>372.25</ele><time>2026-04-04T14:05:43.662Z</time></trkpt><trkpt lat="44.363722" lon="8.2765229"><ele>371.0</ele><time>2026-04-04T14:05:44.662Z</time></trkpt><trkpt lat="44.3637369" lon="8.2766956"><ele>370.5</ele><time>2026-04-04T14:05:45.662Z</time></trkpt><trkpt lat="44.3637521" lon="8.2768751"><ele>370.0</ele><time>2026-04-04T14:05:46.661Z</time></trkpt><trkpt lat="44.3637677" lon="8.2770644"><ele>369.5</ele><time>2026-04-04T14:05:47.661Z</time></trkpt><trkpt lat="44.3637854" lon="8.2772593"><ele>369.0</ele><time>2026-04-04T14:05:48.662Z</time></trkpt><trkpt lat="44.3637977" lon="8.2774475"><ele>369.0</ele><time>2026-04-04T14:05:49.662Z</time></trkpt><trkpt lat="44.3638093" lon="8.2776321"><ele>369.0</ele><time>2026-04-04T14:05:50.662Z</time></trkpt><trkpt lat="44.3638189" lon="8.2778142"><ele>369.0</ele><time>2026-04-04T14:05:51.662Z</time></trkpt><trkpt lat="44.3638289" lon="8.2779883"><ele>369.0</ele><time>2026-04-04T14:05:52.664Z</time></trkpt><trkpt lat="44.3638367" lon="8.2781643"><ele>368.75</ele><time>2026-04-04T14:05:53.662Z</time></trkpt><trkpt lat="44.3638455" lon="8.2783367"><ele>368.5</ele><time>2026-04-04T14:05:54.662Z</time></trkpt><trkpt lat="44.3638547" lon="8.2785134"><ele>368.25</ele><time>2026-04-04T14:05:55.662Z</time></trkpt><trkpt lat="44.3638675" lon="8.2786875"><ele>368.0</ele><time>2026-04-04T14:05:56.662Z</time></trkpt><trkpt lat="44.3638766" lon="8.2788636"><ele>367.75</ele><time>2026-04-04T14:05:57.662Z</time></trkpt><trkpt lat="44.3638807" lon="8.2790392"><ele>367.5</ele><time>2026-04-04T14:05:58.662Z</time></trkpt><trkpt lat="44.363881" lon="8.2792152"><ele>367.25</ele><time>2026-04-04T14:05:59.662Z</time></trkpt><trkpt lat="44.3638738" lon="8.2793921"><ele>367.0</ele><time>2026-04-04T14:06:00.662Z</time></trkpt><trkpt lat="44.3638592" lon="8.2795757"><ele>366.5</ele><time>2026-04-04T14:06:01.662Z</time></trkpt><trkpt lat="44.3638374" lon="8.2797684"><ele>366.0</ele><time>2026-04-04T14:06:02.661Z</time></trkpt><trkpt lat="44.3638114" lon="8.2799672"><ele>365.5</ele><time>2026-04-04T14:06:03.662Z</time></trkpt><trkpt lat="44.3637819" lon="8.2801612"><ele>365.0</ele><time>2026-04-04T14:06:04.662Z</time></trkpt><trkpt lat="44.3637503" lon="8.2803446"><ele>365.0</ele><time>2026-04-04T14:06:05.662Z</time></trkpt><trkpt lat="44.3637201" lon="8.2805252"><ele>365.0</ele><time>2026-04-04T14:06:06.662Z</time></trkpt><trkpt lat="44.3636933" lon="8.2807029"><ele>365.0</ele><time>2026-04-04T14:06:07.661Z</time></trkpt><trkpt lat="44.3636686" lon="8.2808879"><ele>365.0</ele><time>2026-04-04T14:06:08.662Z</time></trkpt><trkpt lat="44.3636468" lon="8.281069"><ele>364.5</ele><time>2026-04-04T14:06:09.662Z</time></trkpt><trkpt lat="44.3636255" lon="8.2812484"><ele>364.0</ele><time>2026-04-04T14:06:10.662Z</time></trkpt><trkpt lat="44.3636037" lon="8.2814167"><ele>363.5</ele><time>2026-04-04T14:06:11.661Z</time></trkpt><trkpt lat="44.3635816" lon="8.2815806"><ele>363.0</ele><time>2026-04-04T14:06:12.662Z</time></trkpt><trkpt lat="44.3635605" lon="8.2817357"><ele>362.5</ele><time>2026-04-04T14:06:13.662Z</time></trkpt><trkpt lat="44.3635397" lon="8.2818916"><ele>362.0</ele><time>2026-04-04T14:06:14.662Z</time></trkpt><trkpt lat="44.3635186" lon="8.28205"><ele>361.5</ele><time>2026-04-04T14:06:15.662Z</time></trkpt><trkpt lat="44.363497" lon="8.2822134"><ele>361.0</ele><time>2026-04-04T14:06:16.662Z</time></trkpt><trkpt lat="44.3634738" lon="8.2823787"><ele>361.0</ele><time>2026-04-04T14:06:17.662Z</time></trkpt><trkpt lat="44.3634518" lon="8.2825412"><ele>361.0</ele><time>2026-04-04T14:06:18.662Z</time></trkpt><trkpt lat="44.3634304" lon="8.2827056"><ele>361.0</ele><time>2026-04-04T14:06:19.662Z</time></trkpt><trkpt lat="44.3634088" lon="8.2828693"><ele>361.0</ele><time>2026-04-04T14:06:20.662Z</time></trkpt><trkpt lat="44.3633861" lon="8.283036"><ele>360.25</ele><time>2026-04-04T14:06:21.662Z</time></trkpt><trkpt lat="44.3633592" lon="8.2832027"><ele>359.5</ele><time>2026-04-04T14:06:22.662Z</time></trkpt><trkpt lat="44.3633354" lon="8.2833678"><ele>358.75</ele><time>2026-04-04T14:06:23.662Z</time></trkpt><trkpt lat="44.3633143" lon="8.2835321"><ele>358.0</ele><time>2026-04-04T14:06:24.662Z</time></trkpt><trkpt lat="44.3632938" lon="8.2836955"><ele>358.0</ele><time>2026-04-04T14:06:25.662Z</time></trkpt><trkpt lat="44.3632749" lon="8.28386"><ele>358.0</ele><time>2026-04-04T14:06:26.662Z</time></trkpt><trkpt lat="44.3632566" lon="8.2840232"><ele>358.0</ele><time>2026-04-04T14:06:27.662Z</time></trkpt><trkpt lat="44.3632357" lon="8.2841871"><ele>358.0</ele><time>2026-04-04T14:06:28.662Z</time></trkpt><trkpt lat="44.3632134" lon="8.284345"><ele>358.0</ele><time>2026-04-04T14:06:29.662Z</time></trkpt><trkpt lat="44.3631928" lon="8.284494"><ele>358.0</ele><time>2026-04-04T14:06:30.662Z</time></trkpt><trkpt lat="44.3631726" lon="8.2846369"><ele>358.0</ele><time>2026-04-04T14:06:31.661Z</time></trkpt><trkpt lat="44.3631523" lon="8.2847712"><ele>358.0</ele><time>2026-04-04T14:06:32.662Z</time></trkpt><trkpt lat="44.363132" lon="8.2848989"><ele>358.0</ele><time>2026-04-04T14:06:33.662Z</time></trkpt><trkpt lat="44.3631149" lon="8.2850228"><ele>357.8333333333333</ele><time>2026-04-04T14:06:34.661Z</time></trkpt><trkpt lat="44.3631003" lon="8.2851468"><ele>357.66666666666663</ele><time>2026-04-04T14:06:35.662Z</time></trkpt><trkpt lat="44.3630838" lon="8.2852612"><ele>357.5</ele><time>2026-04-04T14:06:36.661Z</time></trkpt><trkpt lat="44.3630634" lon="8.2853607"><ele>357.3333333333333</ele><time>2026-04-04T14:06:37.662Z</time></trkpt><trkpt lat="44.3630351" lon="8.2854457"><ele>357.1666666666667</ele><time>2026-04-04T14:06:38.662Z</time></trkpt><trkpt lat="44.3629453" lon="8.28556"><ele>357.0</ele><time>2026-04-04T14:06:40.661Z</time></trkpt><trkpt lat="44.3628359" lon="8.2856426"><ele>357.0</ele><time>2026-04-04T14:06:42.662Z</time></trkpt><trkpt lat="44.3627954" lon="8.2857803"><ele>357.0</ele><time>2026-04-04T14:06:44.662Z</time></trkpt><trkpt lat="44.3628077" lon="8.2858764"><ele>357.0</ele><time>2026-04-04T14:06:45.662Z</time></trkpt><trkpt lat="44.3628504" lon="8.2859924"><ele>357.0</ele><time>2026-04-04T14:06:46.662Z</time></trkpt><trkpt lat="44.3628891" lon="8.2861116"><ele>357.0</ele><time>2026-04-04T14:06:47.662Z</time></trkpt><trkpt lat="44.3629158" lon="8.2862393"><ele>357.0</ele><time>2026-04-04T14:06:48.662Z</time></trkpt><trkpt lat="44.3629175" lon="8.2863547"><ele>357.0</ele><time>2026-04-04T14:06:49.662Z</time></trkpt><trkpt lat="44.3629059" lon="8.2864595"><ele>357.0</ele><time>2026-04-04T14:06:50.662Z</time></trkpt><trkpt lat="44.3628929" lon="8.2865575"><ele>357.0</ele><time>2026-04-04T14:06:51.662Z</time></trkpt><trkpt lat="44.3628779" lon="8.2866707"><ele>357.0</ele><time>2026-04-04T14:06:52.661Z</time></trkpt><trkpt lat="44.3628604" lon="8.2868143"><ele>357.0</ele><time>2026-04-04T14:06:53.662Z</time></trkpt><trkpt lat="44.3628385" lon="8.286978"><ele>356.8</ele><time>2026-04-04T14:06:54.662Z</time></trkpt><trkpt lat="44.362818" lon="8.2871333"><ele>356.6</ele><time>2026-04-04T14:06:55.661Z</time></trkpt><trkpt lat="44.3628018" lon="8.2872734"><ele>356.40000000000003</ele><time>2026-04-04T14:06:56.663Z</time></trkpt><trkpt lat="44.362784" lon="8.2874052"><ele>356.20000000000005</ele><time>2026-04-04T14:06:57.663Z</time></trkpt><trkpt lat="44.362767" lon="8.2875289"><ele>356.0</ele><time>2026-04-04T14:06:58.663Z</time></trkpt><trkpt lat="44.3627522" lon="8.2876445"><ele>355.5</ele><time>2026-04-04T14:06:59.663Z</time></trkpt><trkpt lat="44.3627362" lon="8.2877545"><ele>355.0</ele><time>2026-04-04T14:07:00.663Z</time></trkpt><trkpt lat="44.3627201" lon="8.2878673"><ele>354.5</ele><time>2026-04-04T14:07:01.663Z</time></trkpt><trkpt lat="44.362703" lon="8.2879878"><ele>354.0</ele><time>2026-04-04T14:07:02.663Z</time></trkpt><trkpt lat="44.3626861" lon="8.2881156"><ele>353.5</ele><time>2026-04-04T14:07:03.663Z</time></trkpt><trkpt lat="44.3626709" lon="8.2882484"><ele>353.0</ele><time>2026-04-04T14:07:04.663Z</time></trkpt><trkpt lat="44.3626568" lon="8.2883835"><ele>352.59999999999997</ele><time>2026-04-04T14:07:05.663Z</time></trkpt><trkpt lat="44.3626402" lon="8.2885178"><ele>352.2</ele><time>2026-04-04T14:07:06.663Z</time></trkpt><trkpt lat="44.3626213" lon="8.2886535"><ele>351.8</ele><time>2026-04-04T14:07:07.663Z</time></trkpt><trkpt lat="44.362603" lon="8.2887919"><ele>351.4</ele><time>2026-04-04T14:07:08.663Z</time></trkpt><trkpt lat="44.3625862" lon="8.2889308"><ele>351.0</ele><time>2026-04-04T14:07:09.663Z</time></trkpt><trkpt lat="44.3625802" lon="8.2890576"><ele>351.0</ele><time>2026-04-04T14:07:10.663Z</time></trkpt><trkpt lat="44.3625842" lon="8.2891761"><ele>351.0</ele><time>2026-04-04T14:07:11.663Z</time></trkpt><trkpt lat="44.3625965" lon="8.2892877"><ele>351.0</ele><time>2026-04-04T14:07:12.663Z</time></trkpt><trkpt lat="44.3626198" lon="8.2893874"><ele>351.0</ele><time>2026-04-04T14:07:13.663Z</time></trkpt><trkpt lat="44.3626499" lon="8.2894691"><ele>351.0</ele><time>2026-04-04T14:07:14.663Z</time></trkpt><trkpt lat="44.3627283" lon="8.2896027"><ele>351.0</ele><time>2026-04-04T14:07:16.663Z</time></trkpt><trkpt lat="44.3627667" lon="8.2896743"><ele>350.6666666666667</ele><time>2026-04-04T14:07:17.663Z</time></trkpt><trkpt lat="44.3628406" lon="8.2897887"><ele>350.3333333333333</ele><time>2026-04-04T14:07:19.662Z</time></trkpt><trkpt lat="44.3629068" lon="8.2898716"><ele>350.0</ele><time>2026-04-04T14:07:21.663Z</time></trkpt><trkpt lat="44.3629635" lon="8.2899485"><ele>349.66666666666663</ele><time>2026-04-04T14:07:23.663Z</time></trkpt><trkpt lat="44.3630142" lon="8.2900284"><ele>349.3333333333333</ele><time>2026-04-04T14:07:25.663Z</time></trkpt><trkpt lat="44.3630494" lon="8.290104"><ele>349.0</ele><time>2026-04-04T14:07:26.663Z</time></trkpt><trkpt lat="44.3631099" lon="8.290239"><ele>349.0</ele><time>2026-04-04T14:07:28.663Z</time></trkpt><trkpt lat="44.3631167" lon="8.2903868"><ele>349.0</ele><time>2026-04-04T14:07:30.663Z</time></trkpt><trkpt lat="44.363072" lon="8.2904801"><ele>349.0</ele><time>2026-04-04T14:07:31.663Z</time></trkpt><trkpt lat="44.3630053" lon="8.2905547"><ele>349.0</ele><time>2026-04-04T14:07:32.663Z</time></trkpt><trkpt lat="44.3629153" lon="8.2906019"><ele>349.0</ele><time>2026-04-04T14:07:33.663Z</time></trkpt><trkpt lat="44.3628083" lon="8.2906174"><ele>348.25</ele><time>2026-04-04T14:07:34.663Z</time></trkpt><trkpt lat="44.3626809" lon="8.2906166"><ele>347.5</ele><time>2026-04-04T14:07:35.663Z</time></trkpt><trkpt lat="44.3625411" lon="8.2906105"><ele>346.75</ele><time>2026-04-04T14:07:36.663Z</time></trkpt><trkpt lat="44.362413" lon="8.2905954"><ele>346.0</ele><time>2026-04-04T14:07:37.663Z</time></trkpt><trkpt lat="44.3622834" lon="8.2905916"><ele>346.4</ele><time>2026-04-04T14:07:38.663Z</time></trkpt><trkpt lat="44.3621545" lon="8.2905951"><ele>346.8</ele><time>2026-04-04T14:07:39.663Z</time></trkpt><trkpt lat="44.3620444" lon="8.2906076"><ele>347.2</ele><time>2026-04-04T14:07:40.663Z</time></trkpt><trkpt lat="44.3619488" lon="8.290638"><ele>347.59999999999997</ele><time>2026-04-04T14:07:41.662Z</time></trkpt><trkpt lat="44.3618632" lon="8.2907052"><ele>348.0</ele><time>2026-04-04T14:07:42.663Z</time></trkpt><trkpt lat="44.3617833" lon="8.2907967"><ele>348.0</ele><time>2026-04-04T14:07:43.663Z</time></trkpt><trkpt lat="44.3617167" lon="8.2909067"><ele>348.0</ele><time>2026-04-04T14:07:44.663Z</time></trkpt><trkpt lat="44.3616545" lon="8.2910197"><ele>348.0</ele><time>2026-04-04T14:07:45.663Z</time></trkpt><trkpt lat="44.3615924" lon="8.29113"><ele>348.0</ele><time>2026-04-04T14:07:46.663Z</time></trkpt><trkpt lat="44.3615295" lon="8.2912391"><ele>348.0</ele><time>2026-04-04T14:07:47.663Z</time></trkpt><trkpt lat="44.3614633" lon="8.291347"><ele>348.0</ele><time>2026-04-04T14:07:48.663Z</time></trkpt><trkpt lat="44.3613981" lon="8.2914555"><ele>348.0</ele><time>2026-04-04T14:07:49.663Z</time></trkpt><trkpt lat="44.3613337" lon="8.2915614"><ele>348.0</ele><time>2026-04-04T14:07:50.663Z</time></trkpt><trkpt lat="44.3612672" lon="8.2916659"><ele>348.0</ele><time>2026-04-04T14:07:51.663Z</time></trkpt><trkpt lat="44.361201" lon="8.2917668"><ele>348.0</ele><time>2026-04-04T14:07:52.663Z</time></trkpt><trkpt lat="44.361134" lon="8.2918639"><ele>348.0</ele><time>2026-04-04T14:07:53.663Z</time></trkpt><trkpt lat="44.3610687" lon="8.2919505"><ele>348.0</ele><time>2026-04-04T14:07:54.663Z</time></trkpt><trkpt lat="44.3609945" lon="8.2920254"><ele>348.0</ele><time>2026-04-04T14:07:55.663Z</time></trkpt><trkpt lat="44.3609075" lon="8.2920884"><ele>348.0</ele><time>2026-04-04T14:07:56.663Z</time></trkpt><trkpt lat="44.3608132" lon="8.2921204"><ele>348.0</ele><time>2026-04-04T14:07:57.663Z</time></trkpt><trkpt lat="44.3607088" lon="8.2921299"><ele>348.0</ele><time>2026-04-04T14:07:58.663Z</time></trkpt><trkpt lat="44.3606" lon="8.2921196"><ele>348.0</ele><time>2026-04-04T14:07:59.662Z</time></trkpt><trkpt lat="44.360481" lon="8.2921112"><ele>348.0</ele><time>2026-04-04T14:08:00.662Z</time></trkpt><trkpt lat="44.3603549" lon="8.2921091"><ele>348.0</ele><time>2026-04-04T14:08:01.663Z</time></trkpt><trkpt lat="44.3602209" lon="8.292107"><ele>348.25</ele><time>2026-04-04T14:08:02.663Z</time></trkpt><trkpt lat="44.3600802" lon="8.292109"><ele>348.5</ele><time>2026-04-04T14:08:03.662Z</time></trkpt><trkpt lat="44.359933" lon="8.2921034"><ele>348.75</ele><time>2026-04-04T14:08:04.663Z</time></trkpt><trkpt lat="44.3597923" lon="8.2921031"><ele>349.0</ele><time>2026-04-04T14:08:05.663Z</time></trkpt><trkpt lat="44.3596621" lon="8.2920997"><ele>349.75</ele><time>2026-04-04T14:08:06.663Z</time></trkpt><trkpt lat="44.3595374" lon="8.2920987"><ele>350.5</ele><time>2026-04-04T14:08:07.663Z</time></trkpt><trkpt lat="44.359403" lon="8.2921129"><ele>351.25</ele><time>2026-04-04T14:08:08.663Z</time></trkpt><trkpt lat="44.3592463" lon="8.2921224"><ele>352.0</ele><time>2026-04-04T14:08:09.663Z</time></trkpt><trkpt lat="44.359089" lon="8.2921212"><ele>352.0</ele><time>2026-04-04T14:08:10.663Z</time></trkpt><trkpt lat="44.3589451" lon="8.292108"><ele>352.0</ele><time>2026-04-04T14:08:11.663Z</time></trkpt><trkpt lat="44.3587981" lon="8.2920916"><ele>352.0</ele><time>2026-04-04T14:08:12.662Z</time></trkpt><trkpt lat="44.3586489" lon="8.2920803"><ele>352.0</ele><time>2026-04-04T14:08:13.663Z</time></trkpt><trkpt lat="44.3584985" lon="8.2920737"><ele>352.0</ele><time>2026-04-04T14:08:14.664Z</time></trkpt><trkpt lat="44.3583625" lon="8.2920771"><ele>352.0</ele><time>2026-04-04T14:08:15.664Z</time></trkpt><trkpt lat="44.3582151" lon="8.2920795"><ele>352.0</ele><time>2026-04-04T14:08:16.664Z</time></trkpt><trkpt lat="44.3580571" lon="8.2920882"><ele>352.0</ele><time>2026-04-04T14:08:17.664Z</time></trkpt><trkpt lat="44.3578914" lon="8.2920959"><ele>353.0</ele><time>2026-04-04T14:08:18.663Z</time></trkpt><trkpt lat="44.3577328" lon="8.2920999"><ele>354.0</ele><time>2026-04-04T14:08:19.664Z</time></trkpt><trkpt lat="44.3575829" lon="8.2921025"><ele>355.0</ele><time>2026-04-04T14:08:20.664Z</time></trkpt><trkpt lat="44.3574406" lon="8.2920998"><ele>355.0</ele><time>2026-04-04T14:08:21.663Z</time></trkpt><trkpt lat="44.3573033" lon="8.2920914"><ele>355.0</ele><time>2026-04-04T14:08:22.664Z</time></trkpt><trkpt lat="44.3571624" lon="8.2920716"><ele>355.0</ele><time>2026-04-04T14:08:23.663Z</time></trkpt><trkpt lat="44.3570108" lon="8.2920349"><ele>355.0</ele><time>2026-04-04T14:08:24.664Z</time></trkpt><trkpt lat="44.3568699" lon="8.2919783"><ele>356.25</ele><time>2026-04-04T14:08:25.663Z</time></trkpt><trkpt lat="44.356719" lon="8.2919267"><ele>357.5</ele><time>2026-04-04T14:08:26.664Z</time></trkpt><trkpt lat="44.3565804" lon="8.2918787"><ele>358.75</ele><time>2026-04-04T14:08:27.664Z</time></trkpt><trkpt lat="44.3564568" lon="8.291837"><ele>360.0</ele><time>2026-04-04T14:08:28.663Z</time></trkpt><trkpt lat="44.3563341" lon="8.2918022"><ele>360.2</ele><time>2026-04-04T14:08:29.664Z</time></trkpt><trkpt lat="44.3562163" lon="8.2917737"><ele>360.4</ele><time>2026-04-04T14:08:30.664Z</time></trkpt><trkpt lat="44.3561063" lon="8.291762"><ele>360.6</ele><time>2026-04-04T14:08:31.664Z</time></trkpt><trkpt lat="44.3560051" lon="8.2917657"><ele>360.8</ele><time>2026-04-04T14:08:32.663Z</time></trkpt><trkpt lat="44.3559134" lon="8.2917857"><ele>361.0</ele><time>2026-04-04T14:08:33.664Z</time></trkpt><trkpt lat="44.355822" lon="8.2918186"><ele>361.0</ele><time>2026-04-04T14:08:34.663Z</time></trkpt><trkpt lat="44.3557256" lon="8.2918572"><ele>361.0</ele><time>2026-04-04T14:08:35.664Z</time></trkpt><trkpt lat="44.3556282" lon="8.2919037"><ele>361.0</ele><time>2026-04-04T14:08:36.664Z</time></trkpt><trkpt lat="44.3555311" lon="8.2919623"><ele>361.0</ele><time>2026-04-04T14:08:37.664Z</time></trkpt><trkpt lat="44.3554246" lon="8.2920229"><ele>361.0</ele><time>2026-04-04T14:08:38.664Z</time></trkpt><trkpt lat="44.3553139" lon="8.2920854"><ele>361.25</ele><time>2026-04-04T14:08:39.664Z</time></trkpt><trkpt lat="44.3551969" lon="8.2921504"><ele>361.5</ele><time>2026-04-04T14:08:40.664Z</time></trkpt><trkpt lat="44.3550755" lon="8.2922096"><ele>361.75</ele><time>2026-04-04T14:08:41.664Z</time></trkpt><trkpt lat="44.354943" lon="8.2922792"><ele>362.0</ele><time>2026-04-04T14:08:42.664Z</time></trkpt><trkpt lat="44.354805" lon="8.2923511"><ele>362.33333333333337</ele><time>2026-04-04T14:08:43.664Z</time></trkpt><trkpt lat="44.3546623" lon="8.2924253"><ele>362.6666666666667</ele><time>2026-04-04T14:08:44.664Z</time></trkpt><trkpt lat="44.3545113" lon="8.2924969"><ele>363.0</ele><time>2026-04-04T14:08:45.664Z</time></trkpt><trkpt lat="44.3543534" lon="8.2925695"><ele>363.0</ele><time>2026-04-04T14:08:46.663Z</time></trkpt><trkpt lat="44.3541917" lon="8.2926446"><ele>363.0</ele><time>2026-04-04T14:08:47.664Z</time></trkpt><trkpt lat="44.3540269" lon="8.2927246"><ele>363.0</ele><time>2026-04-04T14:08:48.664Z</time></trkpt><trkpt lat="44.3538592" lon="8.2928102"><ele>363.0</ele><time>2026-04-04T14:08:49.664Z</time></trkpt><trkpt lat="44.3536927" lon="8.2929004"><ele>363.0</ele><time>2026-04-04T14:08:50.664Z</time></trkpt><trkpt lat="44.3535246" lon="8.2929967"><ele>363.0</ele><time>2026-04-04T14:08:51.664Z</time></trkpt><trkpt lat="44.3533608" lon="8.2931054"><ele>363.0</ele><time>2026-04-04T14:08:52.664Z</time></trkpt><trkpt lat="44.3532056" lon="8.2932313"><ele>363.0</ele><time>2026-04-04T14:08:53.663Z</time></trkpt><trkpt lat="44.353056" lon="8.2933728"><ele>363.0</ele><time>2026-04-04T14:08:54.663Z</time></trkpt><trkpt lat="44.3529135" lon="8.293529"><ele>363.3333333333333</ele><time>2026-04-04T14:08:55.664Z</time></trkpt><trkpt lat="44.3527809" lon="8.293695"><ele>363.66666666666663</ele><time>2026-04-04T14:08:56.664Z</time></trkpt><trkpt lat="44.3526568" lon="8.2938748"><ele>364.0</ele><time>2026-04-04T14:08:57.664Z</time></trkpt><trkpt lat="44.3525575" lon="8.2940402"><ele>364.0</ele><time>2026-04-04T14:08:58.664Z</time></trkpt><trkpt lat="44.3524577" lon="8.2941975"><ele>364.0</ele><time>2026-04-04T14:08:59.664Z</time></trkpt><trkpt lat="44.3523533" lon="8.294356"><ele>364.0</ele><time>2026-04-04T14:09:00.664Z</time></trkpt><trkpt lat="44.3522446" lon="8.2945402"><ele>364.0</ele><time>2026-04-04T14:09:01.664Z</time></trkpt><trkpt lat="44.3521224" lon="8.294724"><ele>364.0</ele><time>2026-04-04T14:09:02.663Z</time></trkpt><trkpt lat="44.3519983" lon="8.2948877"><ele>364.0</ele><time>2026-04-04T14:09:03.664Z</time></trkpt><trkpt lat="44.3518799" lon="8.2950306"><ele>364.3333333333333</ele><time>2026-04-04T14:09:04.664Z</time></trkpt><trkpt lat="44.3517639" lon="8.2951858"><ele>364.6666666666667</ele><time>2026-04-04T14:09:05.664Z</time></trkpt><trkpt lat="44.3516508" lon="8.2953445"><ele>365.0</ele><time>2026-04-04T14:09:06.663Z</time></trkpt><trkpt lat="44.351537" lon="8.2955148"><ele>365.33333333333337</ele><time>2026-04-04T14:09:07.663Z</time></trkpt><trkpt lat="44.3514171" lon="8.2956938"><ele>365.6666666666667</ele><time>2026-04-04T14:09:08.664Z</time></trkpt><trkpt lat="44.3512833" lon="8.2958623"><ele>366.0</ele><time>2026-04-04T14:09:09.664Z</time></trkpt><trkpt lat="44.3511598" lon="8.2960578"><ele>366.0</ele><time>2026-04-04T14:09:10.664Z</time></trkpt><trkpt lat="44.3510647" lon="8.2962987"><ele>366.0</ele><time>2026-04-04T14:09:11.663Z</time></trkpt><trkpt lat="44.3509686" lon="8.2965444"><ele>366.0</ele><time>2026-04-04T14:09:12.664Z</time></trkpt><trkpt lat="44.3508931" lon="8.2967944"><ele>367.0</ele><time>2026-04-04T14:09:13.664Z</time></trkpt><trkpt lat="44.3508017" lon="8.2970408"><ele>368.0</ele><time>2026-04-04T14:09:14.664Z</time></trkpt><trkpt lat="44.3506872" lon="8.2972676"><ele>369.0</ele><time>2026-04-04T14:09:15.664Z</time></trkpt><trkpt lat="44.3505047" lon="8.2974449"><ele>370.5</ele><time>2026-04-04T14:09:16.664Z</time></trkpt><trkpt lat="44.350308" lon="8.2976178"><ele>372.0</ele><time>2026-04-04T14:09:17.664Z</time></trkpt><trkpt lat="44.3501409" lon="8.2978148"><ele>372.0</ele><time>2026-04-04T14:09:18.664Z</time></trkpt><trkpt lat="44.3499794" lon="8.2979975"><ele>372.0</ele><time>2026-04-04T14:09:19.664Z</time></trkpt><trkpt lat="44.3498689" lon="8.2982114"><ele>372.0</ele><time>2026-04-04T14:09:20.664Z</time></trkpt><trkpt lat="44.3497356" lon="8.2984012"><ele>373.0</ele><time>2026-04-04T14:09:21.664Z</time></trkpt><trkpt lat="44.349604" lon="8.298585"><ele>374.0</ele><time>2026-04-04T14:09:22.664Z</time></trkpt><trkpt lat="44.3494705" lon="8.2987823"><ele>375.0</ele><time>2026-04-04T14:09:23.664Z</time></trkpt><trkpt lat="44.3493422" lon="8.2989708"><ele>377.6666666666667</ele><time>2026-04-04T14:09:24.664Z</time></trkpt><trkpt lat="44.349204" lon="8.299143"><ele>380.33333333333337</ele><time>2026-04-04T14:09:25.663Z</time></trkpt><trkpt lat="44.3490569" lon="8.2993165"><ele>383.0</ele><time>2026-04-04T14:09:26.665Z</time></trkpt><trkpt lat="44.3489139" lon="8.299493"><ele>384.0</ele><time>2026-04-04T14:09:27.664Z</time></trkpt><trkpt lat="44.3487555" lon="8.2996441"><ele>385.0</ele><time>2026-04-04T14:09:28.665Z</time></trkpt><trkpt lat="44.3485966" lon="8.2997948"><ele>386.0</ele><time>2026-04-04T14:09:29.665Z</time></trkpt><trkpt lat="44.3484407" lon="8.2999326"><ele>386.0</ele><time>2026-04-04T14:09:30.665Z</time></trkpt><trkpt lat="44.3482882" lon="8.3000643"><ele>386.0</ele><time>2026-04-04T14:09:31.665Z</time></trkpt><trkpt lat="44.3481399" lon="8.3002124"><ele>386.0</ele><time>2026-04-04T14:09:32.665Z</time></trkpt><trkpt lat="44.3480029" lon="8.3003776"><ele>386.66666666666663</ele><time>2026-04-04T14:09:33.665Z</time></trkpt><trkpt lat="44.3478849" lon="8.3005659"><ele>387.33333333333337</ele><time>2026-04-04T14:09:34.665Z</time></trkpt><trkpt lat="44.3477817" lon="8.3007651"><ele>388.0</ele><time>2026-04-04T14:09:35.665Z</time></trkpt><trkpt lat="44.3477005" lon="8.300965"><ele>389.25</ele><time>2026-04-04T14:09:36.664Z</time></trkpt><trkpt lat="44.3476403" lon="8.3011518"><ele>390.5</ele><time>2026-04-04T14:09:37.665Z</time></trkpt><trkpt lat="44.3475928" lon="8.3013227"><ele>391.75</ele><time>2026-04-04T14:09:38.665Z</time></trkpt><trkpt lat="44.3475559" lon="8.3014856"><ele>393.0</ele><time>2026-04-04T14:09:39.665Z</time></trkpt><trkpt lat="44.3475356" lon="8.3016399"><ele>393.59999999999997</ele><time>2026-04-04T14:09:40.665Z</time></trkpt><trkpt lat="44.3475046" lon="8.3017667"><ele>394.2</ele><time>2026-04-04T14:09:41.665Z</time></trkpt><trkpt lat="44.3474838" lon="8.3018825"><ele>394.8</ele><time>2026-04-04T14:09:42.665Z</time></trkpt><trkpt lat="44.3474625" lon="8.3019789"><ele>395.4</ele><time>2026-04-04T14:09:43.665Z</time></trkpt><trkpt lat="44.3474178" lon="8.3021265"><ele>396.0</ele><time>2026-04-04T14:09:45.665Z</time></trkpt><trkpt lat="44.3473523" lon="8.3022065"><ele>396.0</ele><time>2026-04-04T14:09:47.665Z</time></trkpt><trkpt lat="44.347293" lon="8.3022461"><ele>396.0</ele><time>2026-04-04T14:09:48.664Z</time></trkpt><trkpt lat="44.3472294" lon="8.3022956"><ele>396.0</ele><time>2026-04-04T14:09:49.665Z</time></trkpt><trkpt lat="44.3471655" lon="8.3023795"><ele>396.0</ele><time>2026-04-04T14:09:50.665Z</time></trkpt><trkpt lat="44.3471408" lon="8.3025117"><ele>396.0</ele><time>2026-04-04T14:09:51.665Z</time></trkpt><trkpt lat="44.3471651" lon="8.3026753"><ele>396.0</ele><time>2026-04-04T14:09:52.665Z</time></trkpt><trkpt lat="44.3472036" lon="8.3028542"><ele>398.25</ele><time>2026-04-04T14:09:53.665Z</time></trkpt><trkpt lat="44.3471897" lon="8.3030342"><ele>400.5</ele><time>2026-04-04T14:09:54.665Z</time></trkpt><trkpt lat="44.347122" lon="8.3032081"><ele>402.75</ele><time>2026-04-04T14:09:55.665Z</time></trkpt><trkpt lat="44.3470734" lon="8.3033773"><ele>405.0</ele><time>2026-04-04T14:09:56.665Z</time></trkpt><trkpt lat="44.3470084" lon="8.3035502"><ele>405.25</ele><time>2026-04-04T14:09:57.665Z</time></trkpt><trkpt lat="44.3469556" lon="8.3037377"><ele>405.5</ele><time>2026-04-04T14:09:58.665Z</time></trkpt><trkpt lat="44.3469077" lon="8.3039291"><ele>405.75</ele><time>2026-04-04T14:09:59.665Z</time></trkpt><trkpt lat="44.3468528" lon="8.304116"><ele>406.0</ele><time>2026-04-04T14:10:00.665Z</time></trkpt><trkpt lat="44.3467979" lon="8.3043126"><ele>405.33333333333337</ele><time>2026-04-04T14:10:01.664Z</time></trkpt><trkpt lat="44.3467815" lon="8.304539"><ele>404.66666666666663</ele><time>2026-04-04T14:10:02.664Z</time></trkpt><trkpt lat="44.3467897" lon="8.3047647"><ele>404.0</ele><time>2026-04-04T14:10:03.665Z</time></trkpt><trkpt lat="44.346824" lon="8.3049685"><ele>403.75</ele><time>2026-04-04T14:10:04.664Z</time></trkpt><trkpt lat="44.3468433" lon="8.3051606"><ele>403.5</ele><time>2026-04-04T14:10:05.665Z</time></trkpt><trkpt lat="44.3468558" lon="8.3053579"><ele>403.25</ele><time>2026-04-04T14:10:06.665Z</time></trkpt><trkpt lat="44.3468761" lon="8.305567"><ele>403.0</ele><time>2026-04-04T14:10:07.665Z</time></trkpt><trkpt lat="44.346889" lon="8.3057684"><ele>402.0</ele><time>2026-04-04T14:10:08.665Z</time></trkpt><trkpt lat="44.3469055" lon="8.3059737"><ele>401.0</ele><time>2026-04-04T14:10:09.665Z</time></trkpt><trkpt lat="44.3469242" lon="8.3061736"><ele>400.0</ele><time>2026-04-04T14:10:10.665Z</time></trkpt><trkpt lat="44.3469444" lon="8.3063669"><ele>399.0</ele><time>2026-04-04T14:10:11.665Z</time></trkpt><trkpt lat="44.3469683" lon="8.3065478"><ele>398.0</ele><time>2026-04-04T14:10:12.665Z</time></trkpt><trkpt lat="44.3469948" lon="8.3067164"><ele>397.0</ele><time>2026-04-04T14:10:13.665Z</time></trkpt><trkpt lat="44.3470211" lon="8.3068912"><ele>396.0</ele><time>2026-04-04T14:10:14.665Z</time></trkpt><trkpt lat="44.3470591" lon="8.3070672"><ele>395.0</ele><time>2026-04-04T14:10:15.664Z</time></trkpt><trkpt lat="44.3471042" lon="8.3072417"><ele>393.66666666666663</ele><time>2026-04-04T14:10:16.665Z</time></trkpt><trkpt lat="44.3471776" lon="8.3074287"><ele>392.33333333333337</ele><time>2026-04-04T14:10:17.665Z</time></trkpt><trkpt lat="44.3472577" lon="8.3076021"><ele>391.0</ele><time>2026-04-04T14:10:18.665Z</time></trkpt><trkpt lat="44.3473424" lon="8.3077743"><ele>392.0</ele><time>2026-04-04T14:10:19.665Z</time></trkpt><trkpt lat="44.3474243" lon="8.3079463"><ele>393.0</ele><time>2026-04-04T14:10:20.665Z</time></trkpt><trkpt lat="44.3474829" lon="8.3081188"><ele>394.0</ele><time>2026-04-04T14:10:21.664Z</time></trkpt><trkpt lat="44.3475093" lon="8.3082982"><ele>395.0</ele><time>2026-04-04T14:10:22.664Z</time></trkpt><trkpt lat="44.3475084" lon="8.3084797"><ele>395.0</ele><time>2026-04-04T14:10:23.665Z</time></trkpt><trkpt lat="44.3474794" lon="8.3086643"><ele>395.0</ele><time>2026-04-04T14:10:24.665Z</time></trkpt><trkpt lat="44.3474235" lon="8.3088424"><ele>395.0</ele><time>2026-04-04T14:10:25.665Z</time></trkpt><trkpt lat="44.3473557" lon="8.3090077"><ele>395.0</ele><time>2026-04-04T14:10:26.664Z</time></trkpt><trkpt lat="44.3472775" lon="8.3091443"><ele>394.0</ele><time>2026-04-04T14:10:27.664Z</time></trkpt><trkpt lat="44.3471931" lon="8.3092632"><ele>393.0</ele><time>2026-04-04T14:10:28.665Z</time></trkpt><trkpt lat="44.3471102" lon="8.3093844"><ele>392.0</ele><time>2026-04-04T14:10:29.665Z</time></trkpt><trkpt lat="44.347039" lon="8.3095139"><ele>391.0</ele><time>2026-04-04T14:10:30.665Z</time></trkpt><trkpt lat="44.3469809" lon="8.3096577"><ele>391.0</ele><time>2026-04-04T14:10:31.664Z</time></trkpt><trkpt lat="44.3469346" lon="8.3098231"><ele>391.0</ele><time>2026-04-04T14:10:32.665Z</time></trkpt><trkpt lat="44.3468948" lon="8.309997"><ele>391.0</ele><time>2026-04-04T14:10:33.665Z</time></trkpt><trkpt lat="44.3468719" lon="8.3101726"><ele>391.0</ele><time>2026-04-04T14:10:34.664Z</time></trkpt><trkpt lat="44.3468567" lon="8.3103512"><ele>391.0</ele><time>2026-04-04T14:10:35.665Z</time></trkpt><trkpt lat="44.3468543" lon="8.3105226"><ele>391.0</ele><time>2026-04-04T14:10:36.664Z</time></trkpt><trkpt lat="44.3468587" lon="8.3106974"><ele>391.0</ele><time>2026-04-04T14:10:37.664Z</time></trkpt><trkpt lat="44.3468624" lon="8.3108742"><ele>391.0</ele><time>2026-04-04T14:10:38.665Z</time></trkpt><trkpt lat="44.3468695" lon="8.3110527"><ele>390.5</ele><time>2026-04-04T14:10:39.666Z</time></trkpt><trkpt lat="44.3468767" lon="8.311231"><ele>390.0</ele><time>2026-04-04T14:10:40.666Z</time></trkpt><trkpt lat="44.3468823" lon="8.3114031"><ele>389.5</ele><time>2026-04-04T14:10:41.666Z</time></trkpt><trkpt lat="44.346883" lon="8.3115751"><ele>389.0</ele><time>2026-04-04T14:10:42.666Z</time></trkpt><trkpt lat="44.3468838" lon="8.3117483"><ele>388.5</ele><time>2026-04-04T14:10:43.666Z</time></trkpt><trkpt lat="44.3468838" lon="8.3119326"><ele>388.0</ele><time>2026-04-04T14:10:44.666Z</time></trkpt><trkpt lat="44.3468795" lon="8.3121195"><ele>387.5</ele><time>2026-04-04T14:10:45.665Z</time></trkpt><trkpt lat="44.3468672" lon="8.3123144"><ele>387.0</ele><time>2026-04-04T14:10:46.666Z</time></trkpt><trkpt lat="44.346847" lon="8.3125131"><ele>387.0</ele><time>2026-04-04T14:10:47.666Z</time></trkpt><trkpt lat="44.346823" lon="8.3127133"><ele>387.0</ele><time>2026-04-04T14:10:48.666Z</time></trkpt><trkpt lat="44.3467966" lon="8.3129033"><ele>387.0</ele><time>2026-04-04T14:10:49.666Z</time></trkpt><trkpt lat="44.3467624" lon="8.3130895"><ele>387.0</ele><time>2026-04-04T14:10:50.666Z</time></trkpt><trkpt lat="44.3467114" lon="8.3132822"><ele>385.0</ele><time>2026-04-04T14:10:51.666Z</time></trkpt><trkpt lat="44.3466502" lon="8.3134831"><ele>383.0</ele><time>2026-04-04T14:10:52.666Z</time></trkpt><trkpt lat="44.3465805" lon="8.313681"><ele>381.0</ele><time>2026-04-04T14:10:53.665Z</time></trkpt><trkpt lat="44.3464969" lon="8.3138635"><ele>383.0</ele><time>2026-04-04T14:10:54.666Z</time></trkpt><trkpt lat="44.3464174" lon="8.3140257"><ele>385.0</ele><time>2026-04-04T14:10:55.665Z</time></trkpt><trkpt lat="44.3463357" lon="8.3141856"><ele>387.0</ele><time>2026-04-04T14:10:56.666Z</time></trkpt><trkpt lat="44.3462555" lon="8.314343"><ele>389.0</ele><time>2026-04-04T14:10:57.666Z</time></trkpt><trkpt lat="44.346176" lon="8.3145031"><ele>389.0</ele><time>2026-04-04T14:10:58.666Z</time></trkpt><trkpt lat="44.3461038" lon="8.314668"><ele>389.0</ele><time>2026-04-04T14:10:59.666Z</time></trkpt><trkpt lat="44.3460357" lon="8.314834"><ele>389.0</ele><time>2026-04-04T14:11:00.666Z</time></trkpt><trkpt lat="44.3459769" lon="8.3150068"><ele>389.0</ele><time>2026-04-04T14:11:01.666Z</time></trkpt><trkpt lat="44.3459275" lon="8.3151909"><ele>387.66666666666663</ele><time>2026-04-04T14:11:02.665Z</time></trkpt><trkpt lat="44.345885" lon="8.3154004"><ele>386.33333333333337</ele><time>2026-04-04T14:11:03.666Z</time></trkpt><trkpt lat="44.3458449" lon="8.3156346"><ele>385.0</ele><time>2026-04-04T14:11:04.666Z</time></trkpt><trkpt lat="44.3458115" lon="8.3158934"><ele>384.33333333333337</ele><time>2026-04-04T14:11:05.666Z</time></trkpt><trkpt lat="44.3457806" lon="8.3161542"><ele>383.6666666666667</ele><time>2026-04-04T14:11:06.666Z</time></trkpt><trkpt lat="44.3457403" lon="8.316406"><ele>383.0</ele><time>2026-04-04T14:11:07.665Z</time></trkpt><trkpt lat="44.3456971" lon="8.3166476"><ele>382.0</ele><time>2026-04-04T14:11:08.666Z</time></trkpt><trkpt lat="44.345652" lon="8.3168835"><ele>381.0</ele><time>2026-04-04T14:11:09.665Z</time></trkpt><trkpt lat="44.3456091" lon="8.3171072"><ele>380.0</ele><time>2026-04-04T14:11:10.666Z</time></trkpt><trkpt lat="44.3455707" lon="8.3173291"><ele>389.6666666666667</ele><time>2026-04-04T14:11:11.666Z</time></trkpt><trkpt lat="44.3455359" lon="8.3175472"><ele>399.33333333333337</ele><time>2026-04-04T14:11:12.666Z</time></trkpt><trkpt lat="44.3455011" lon="8.3177596"><ele>409.0</ele><time>2026-04-04T14:11:13.666Z</time></trkpt><trkpt lat="44.345466" lon="8.3179698"><ele>407.33333333333337</ele><time>2026-04-04T14:11:14.666Z</time></trkpt><trkpt lat="44.3454285" lon="8.3181807"><ele>405.66666666666663</ele><time>2026-04-04T14:11:15.666Z</time></trkpt><trkpt lat="44.3453918" lon="8.3183886"><ele>404.0</ele><time>2026-04-04T14:11:16.666Z</time></trkpt><trkpt lat="44.3453546" lon="8.3185966"><ele>404.0</ele><time>2026-04-04T14:11:17.666Z</time></trkpt><trkpt lat="44.3453166" lon="8.3188059"><ele>404.0</ele><time>2026-04-04T14:11:18.666Z</time></trkpt><trkpt lat="44.3452803" lon="8.319014"><ele>404.0</ele><time>2026-04-04T14:11:19.666Z</time></trkpt><trkpt lat="44.3452483" lon="8.319215"><ele>404.0</ele><time>2026-04-04T14:11:20.666Z</time></trkpt><trkpt lat="44.3452323" lon="8.3194176"><ele>404.0</ele><time>2026-04-04T14:11:21.666Z</time></trkpt><trkpt lat="44.3452356" lon="8.319623"><ele>404.0</ele><time>2026-04-04T14:11:22.666Z</time></trkpt><trkpt lat="44.3452707" lon="8.3198167"><ele>404.0</ele><time>2026-04-04T14:11:23.666Z</time></trkpt><trkpt lat="44.3453306" lon="8.3199809"><ele>405.6</ele><time>2026-04-04T14:11:24.665Z</time></trkpt><trkpt lat="44.3453908" lon="8.3201195"><ele>407.2</ele><time>2026-04-04T14:11:25.666Z</time></trkpt><trkpt lat="44.3454444" lon="8.3202357"><ele>408.8</ele><time>2026-04-04T14:11:26.666Z</time></trkpt><trkpt lat="44.3454842" lon="8.3203144"><ele>410.40000000000003</ele><time>2026-04-04T14:11:27.665Z</time></trkpt><trkpt lat="44.345524" lon="8.3204324"><ele>412.0</ele><time>2026-04-04T14:11:29.666Z</time></trkpt><trkpt lat="44.3455448" lon="8.3205372"><ele>410.0</ele><time>2026-04-04T14:11:31.666Z</time></trkpt><trkpt lat="44.3455433" lon="8.3207162"><ele>408.0</ele><time>2026-04-04T14:11:33.666Z</time></trkpt><trkpt lat="44.3455233" lon="8.3208187"><ele>406.0</ele><time>2026-04-04T14:11:34.666Z</time></trkpt><trkpt lat="44.3454915" lon="8.3209282"><ele>404.0</ele><time>2026-04-04T14:11:35.666Z</time></trkpt><trkpt lat="44.3454497" lon="8.3210387"><ele>402.0</ele><time>2026-04-04T14:11:36.666Z</time></trkpt><trkpt lat="44.3453987" lon="8.3211513"><ele>402.0</ele><time>2026-04-04T14:11:37.665Z</time></trkpt><trkpt lat="44.3453364" lon="8.3212703"><ele>402.0</ele><time>2026-04-04T14:11:38.666Z</time></trkpt><trkpt lat="44.3452684" lon="8.3213827"><ele>402.0</ele><time>2026-04-04T14:11:39.666Z</time></trkpt><trkpt lat="44.3451899" lon="8.3214866"><ele>402.0</ele><time>2026-04-04T14:11:40.666Z</time></trkpt><trkpt lat="44.3451052" lon="8.3215891"><ele>402.0</ele><time>2026-04-04T14:11:41.666Z</time></trkpt><trkpt lat="44.3450116" lon="8.3216899"><ele>400.75</ele><time>2026-04-04T14:11:42.666Z</time></trkpt><trkpt lat="44.3449056" lon="8.3217902"><ele>399.5</ele><time>2026-04-04T14:11:43.665Z</time></trkpt><trkpt lat="44.3447924" lon="8.321896"><ele>398.25</ele><time>2026-04-04T14:11:44.665Z</time></trkpt><trkpt lat="44.3446728" lon="8.322007"><ele>397.0</ele><time>2026-04-04T14:11:45.666Z</time></trkpt><trkpt lat="44.3445546" lon="8.3221224"><ele>393.0</ele><time>2026-04-04T14:11:46.666Z</time></trkpt><trkpt lat="44.3444387" lon="8.3222375"><ele>389.0</ele><time>2026-04-04T14:11:47.665Z</time></trkpt><trkpt lat="44.3443243" lon="8.3223513"><ele>385.0</ele><time>2026-04-04T14:11:48.666Z</time></trkpt><trkpt lat="44.3442122" lon="8.3224628"><ele>381.0</ele><time>2026-04-04T14:11:49.666Z</time></trkpt><trkpt lat="44.3441028" lon="8.3225721"><ele>381.0</ele><time>2026-04-04T14:11:50.666Z</time></trkpt><trkpt lat="44.3439974" lon="8.3226781"><ele>381.0</ele><time>2026-04-04T14:11:51.667Z</time></trkpt><trkpt lat="44.3438971" lon="8.3227775"><ele>381.0</ele><time>2026-04-04T14:11:52.667Z</time></trkpt><trkpt lat="44.3437993" lon="8.3228763"><ele>381.0</ele><time>2026-04-04T14:11:53.667Z</time></trkpt><trkpt lat="44.3437032" lon="8.322969"><ele>380.8</ele><time>2026-04-04T14:11:54.667Z</time></trkpt><trkpt lat="44.3436126" lon="8.3230534"><ele>380.6</ele><time>2026-04-04T14:11:55.667Z</time></trkpt><trkpt lat="44.3435284" lon="8.3231329"><ele>380.4</ele><time>2026-04-04T14:11:56.667Z</time></trkpt><trkpt lat="44.3434468" lon="8.32321"><ele>380.2</ele><time>2026-04-04T14:11:57.667Z</time></trkpt><trkpt lat="44.3433736" lon="8.3232882"><ele>380.0</ele><time>2026-04-04T14:11:58.667Z</time></trkpt><trkpt lat="44.343298" lon="8.3233731"><ele>380.0</ele><time>2026-04-04T14:11:59.666Z</time></trkpt><trkpt lat="44.3432138" lon="8.3234654"><ele>380.0</ele><time>2026-04-04T14:12:00.667Z</time></trkpt><trkpt lat="44.343119" lon="8.3235641"><ele>380.0</ele><time>2026-04-04T14:12:01.666Z</time></trkpt><trkpt lat="44.3430062" lon="8.3236668"><ele>380.0</ele><time>2026-04-04T14:12:02.667Z</time></trkpt><trkpt lat="44.3428802" lon="8.3237788"><ele>380.33333333333337</ele><time>2026-04-04T14:12:03.666Z</time></trkpt><trkpt lat="44.3427404" lon="8.3239024"><ele>380.6666666666667</ele><time>2026-04-04T14:12:04.667Z</time></trkpt><trkpt lat="44.3425976" lon="8.3240342"><ele>381.0</ele><time>2026-04-04T14:12:05.667Z</time></trkpt><trkpt lat="44.342454" lon="8.3241699"><ele>381.0</ele><time>2026-04-04T14:12:06.667Z</time></trkpt><trkpt lat="44.3423118" lon="8.3243073"><ele>381.0</ele><time>2026-04-04T14:12:07.667Z</time></trkpt><trkpt lat="44.3421728" lon="8.3244552"><ele>381.0</ele><time>2026-04-04T14:12:08.667Z</time></trkpt><trkpt lat="44.3420507" lon="8.3246138"><ele>380.6666666666667</ele><time>2026-04-04T14:12:09.667Z</time></trkpt><trkpt lat="44.3419395" lon="8.3247869"><ele>380.33333333333337</ele><time>2026-04-04T14:12:10.667Z</time></trkpt><trkpt lat="44.3418401" lon="8.3249771"><ele>380.0</ele><time>2026-04-04T14:12:11.667Z</time></trkpt><trkpt lat="44.3417479" lon="8.3251801"><ele>380.0</ele><time>2026-04-04T14:12:12.667Z</time></trkpt><trkpt lat="44.341669" lon="8.3253887"><ele>380.0</ele><time>2026-04-04T14:12:13.667Z</time></trkpt><trkpt lat="44.3416033" lon="8.3256001"><ele>380.0</ele><time>2026-04-04T14:12:14.667Z</time></trkpt><trkpt lat="44.341552" lon="8.3258081"><ele>380.33333333333337</ele><time>2026-04-04T14:12:15.667Z</time></trkpt><trkpt lat="44.3415166" lon="8.3260193"><ele>380.6666666666667</ele><time>2026-04-04T14:12:16.667Z</time></trkpt><trkpt lat="44.3414917" lon="8.3262312"><ele>381.0</ele><time>2026-04-04T14:12:17.666Z</time></trkpt><trkpt lat="44.3414796" lon="8.3264507"><ele>382.66666666666663</ele><time>2026-04-04T14:12:18.666Z</time></trkpt><trkpt lat="44.3414799" lon="8.3266786"><ele>384.3333333333333</ele><time>2026-04-04T14:12:19.667Z</time></trkpt><trkpt lat="44.3414883" lon="8.326906"><ele>386.0</ele><time>2026-04-04T14:12:20.667Z</time></trkpt><trkpt lat="44.3414969" lon="8.3271284"><ele>396.5</ele><time>2026-04-04T14:12:21.667Z</time></trkpt><trkpt lat="44.3415118" lon="8.3273477"><ele>407.0</ele><time>2026-04-04T14:12:22.667Z</time></trkpt><trkpt lat="44.3385424" lon="8.3507725"><ele>411.25</ele><time>2026-04-04T14:14:23.669Z</time></trkpt><trkpt lat="44.3384452" lon="8.3509037"><ele>415.5</ele><time>2026-04-04T14:14:24.668Z</time></trkpt><trkpt lat="44.3383456" lon="8.3510419"><ele>419.75</ele><time>2026-04-04T14:14:25.669Z</time></trkpt><trkpt lat="44.3382508" lon="8.3511718"><ele>424.0</ele><time>2026-04-04T14:14:26.669Z</time></trkpt><trkpt lat="44.3381553" lon="8.3512956"><ele>424.5</ele><time>2026-04-04T14:14:27.669Z</time></trkpt><trkpt lat="44.3380605" lon="8.3514188"><ele>425.0</ele><time>2026-04-04T14:14:28.669Z</time></trkpt><trkpt lat="44.3379697" lon="8.3515328"><ele>425.5</ele><time>2026-04-04T14:14:29.669Z</time></trkpt><trkpt lat="44.3378767" lon="8.3516505"><ele>426.0</ele><time>2026-04-04T14:14:30.669Z</time></trkpt><trkpt lat="44.3377858" lon="8.3517684"><ele>426.0</ele><time>2026-04-04T14:14:31.669Z</time></trkpt><trkpt lat="44.3376976" lon="8.3518928"><ele>426.0</ele><time>2026-04-04T14:14:32.669Z</time></trkpt><trkpt lat="44.3376101" lon="8.3520171"><ele>426.0</ele><time>2026-04-04T14:14:33.669Z</time></trkpt><trkpt lat="44.3375222" lon="8.3521448"><ele>426.0</ele><time>2026-04-04T14:14:34.669Z</time></trkpt><trkpt lat="44.337433" lon="8.352274"><ele>423.75</ele><time>2026-04-04T14:14:35.669Z</time></trkpt><trkpt lat="44.3373444" lon="8.3524045"><ele>421.5</ele><time>2026-04-04T14:14:36.668Z</time></trkpt><trkpt lat="44.3372569" lon="8.3525404"><ele>419.25</ele><time>2026-04-04T14:14:37.669Z</time></trkpt><trkpt lat="44.3371709" lon="8.3526831"><ele>417.0</ele><time>2026-04-04T14:14:38.668Z</time></trkpt><trkpt lat="44.3370863" lon="8.3528352"><ele>416.25</ele><time>2026-04-04T14:14:39.669Z</time></trkpt><trkpt lat="44.3369996" lon="8.3529908"><ele>415.5</ele><time>2026-04-04T14:14:40.669Z</time></trkpt><trkpt lat="44.3369121" lon="8.3531523"><ele>414.75</ele><time>2026-04-04T14:14:41.669Z</time></trkpt><trkpt lat="44.3368209" lon="8.3533221"><ele>414.0</ele><time>2026-04-04T14:14:42.669Z</time></trkpt><trkpt lat="44.3367298" lon="8.3534903"><ele>410.0</ele><time>2026-04-04T14:14:43.669Z</time></trkpt><trkpt lat="44.3366401" lon="8.3536643"><ele>406.0</ele><time>2026-04-04T14:14:44.669Z</time></trkpt><trkpt lat="44.33655" lon="8.3538417"><ele>402.0</ele><time>2026-04-04T14:14:45.669Z</time></trkpt><trkpt lat="44.3364589" lon="8.3540243"><ele>394.3333333333333</ele><time>2026-04-04T14:14:46.669Z</time></trkpt><trkpt lat="44.3363689" lon="8.3542136"><ele>386.66666666666663</ele><time>2026-04-04T14:14:47.668Z</time></trkpt><trkpt lat="44.3362804" lon="8.3544075"><ele>379.0</ele><time>2026-04-04T14:14:48.669Z</time></trkpt><trkpt lat="44.3361959" lon="8.3546053"><ele>376.66666666666663</ele><time>2026-04-04T14:14:49.669Z</time></trkpt><trkpt lat="44.3361132" lon="8.3548058"><ele>374.3333333333333</ele><time>2026-04-04T14:14:50.669Z</time></trkpt><trkpt lat="44.3360304" lon="8.3550111"><ele>372.0</ele><time>2026-04-04T14:14:51.669Z</time></trkpt><trkpt lat="44.3359511" lon="8.3552199"><ele>372.0</ele><time>2026-04-04T14:14:52.669Z</time></trkpt><trkpt lat="44.3358747" lon="8.3554311"><ele>372.0</ele><time>2026-04-04T14:14:53.669Z</time></trkpt><trkpt lat="44.335801" lon="8.3556446"><ele>372.0</ele><time>2026-04-04T14:14:54.669Z</time></trkpt><trkpt lat="44.3357276" lon="8.3558636"><ele>374.0</ele><time>2026-04-04T14:14:55.669Z</time></trkpt><trkpt lat="44.3356546" lon="8.3560946"><ele>376.0</ele><time>2026-04-04T14:14:56.668Z</time></trkpt><trkpt lat="44.3355791" lon="8.3563413"><ele>378.0</ele><time>2026-04-04T14:14:57.669Z</time></trkpt><trkpt lat="44.3354996" lon="8.3566088"><ele>386.33333333333337</ele><time>2026-04-04T14:14:58.669Z</time></trkpt><trkpt lat="44.3354184" lon="8.3569085"><ele>394.6666666666667</ele><time>2026-04-04T14:14:59.669Z</time></trkpt><trkpt lat="44.3353494" lon="8.3571854"><ele>403.0</ele><time>2026-04-04T14:15:00.669Z</time></trkpt><trkpt lat="44.3352829" lon="8.3574353"><ele>403.0</ele><time>2026-04-04T14:15:01.668Z</time></trkpt><trkpt lat="44.3352222" lon="8.3576633"><ele>403.0</ele><time>2026-04-04T14:15:02.669Z</time></trkpt><trkpt lat="44.335167" lon="8.357905"><ele>403.0</ele><time>2026-04-04T14:15:03.669Z</time></trkpt><trkpt lat="44.3351045" lon="8.3581538"><ele>402.6666666666667</ele><time>2026-04-04T14:15:04.669Z</time></trkpt><trkpt lat="44.335039" lon="8.3584065"><ele>402.33333333333337</ele><time>2026-04-04T14:15:05.669Z</time></trkpt><trkpt lat="44.3349845" lon="8.3586651"><ele>402.0</ele><time>2026-04-04T14:15:06.668Z</time></trkpt><trkpt lat="44.3349242" lon="8.3589067"><ele>402.0</ele><time>2026-04-04T14:15:07.669Z</time></trkpt><trkpt lat="44.3348592" lon="8.3591345"><ele>402.0</ele><time>2026-04-04T14:15:08.669Z</time></trkpt><trkpt lat="44.3347982" lon="8.3593527"><ele>402.0</ele><time>2026-04-04T14:15:09.669Z</time></trkpt><trkpt lat="44.3347371" lon="8.3595706"><ele>391.6666666666667</ele><time>2026-04-04T14:15:10.669Z</time></trkpt><trkpt lat="44.3346772" lon="8.3597888"><ele>381.33333333333337</ele><time>2026-04-04T14:15:11.669Z</time></trkpt><trkpt lat="44.3346268" lon="8.36002"><ele>371.0</ele><time>2026-04-04T14:15:12.669Z</time></trkpt><trkpt lat="44.3345834" lon="8.3602589"><ele>371.0</ele><time>2026-04-04T14:15:13.669Z</time></trkpt><trkpt lat="44.3345471" lon="8.3605167"><ele>371.0</ele><time>2026-04-04T14:15:14.669Z</time></trkpt><trkpt lat="44.3345413" lon="8.3607879"><ele>371.0</ele><time>2026-04-04T14:15:15.669Z</time></trkpt><trkpt lat="44.3345849" lon="8.3610574"><ele>371.33333333333337</ele><time>2026-04-04T14:15:16.669Z</time></trkpt><trkpt lat="44.3346451" lon="8.3613169"><ele>371.6666666666667</ele><time>2026-04-04T14:15:17.668Z</time></trkpt><trkpt lat="44.3347129" lon="8.3615467"><ele>372.0</ele><time>2026-04-04T14:15:18.669Z</time></trkpt><trkpt lat="44.3347835" lon="8.3617534"><ele>375.6666666666667</ele><time>2026-04-04T14:15:19.669Z</time></trkpt><trkpt lat="44.3348498" lon="8.3619479"><ele>379.33333333333337</ele><time>2026-04-04T14:15:20.669Z</time></trkpt><trkpt lat="44.3349006" lon="8.3621456"><ele>383.0</ele><time>2026-04-04T14:15:21.669Z</time></trkpt><trkpt lat="44.3349524" lon="8.362342"><ele>383.0</ele><time>2026-04-04T14:15:22.668Z</time></trkpt><trkpt lat="44.335003" lon="8.3625437"><ele>383.0</ele><time>2026-04-04T14:15:23.668Z</time></trkpt><trkpt lat="44.3350555" lon="8.3627494"><ele>383.0</ele><time>2026-04-04T14:15:24.669Z</time></trkpt><trkpt lat="44.3351088" lon="8.3629557"><ele>379.33333333333337</ele><time>2026-04-04T14:15:25.669Z</time></trkpt><trkpt lat="44.3351632" lon="8.3631631"><ele>375.6666666666667</ele><time>2026-04-04T14:15:26.67Z</time></trkpt><trkpt lat="44.3352179" lon="8.3633609"><ele>372.0</ele><time>2026-04-04T14:15:27.67Z</time></trkpt><trkpt lat="44.3352681" lon="8.3635501"><ele>372.0</ele><time>2026-04-04T14:15:28.67Z</time></trkpt><trkpt lat="44.3353029" lon="8.3637387"><ele>372.0</ele><time>2026-04-04T14:15:29.67Z</time></trkpt><trkpt lat="44.33531" lon="8.3639201"><ele>372.0</ele><time>2026-04-04T14:15:30.67Z</time></trkpt><trkpt lat="44.3352845" lon="8.3640876"><ele>372.0</ele><time>2026-04-04T14:15:31.67Z</time></trkpt><trkpt lat="44.3352212" lon="8.364254"><ele>371.8</ele><time>2026-04-04T14:15:32.67Z</time></trkpt><trkpt lat="44.3351656" lon="8.3644034"><ele>371.6</ele><time>2026-04-04T14:15:33.67Z</time></trkpt><trkpt lat="44.3351088" lon="8.3645433"><ele>371.40000000000003</ele><time>2026-04-04T14:15:34.67Z</time></trkpt><trkpt lat="44.3350542" lon="8.3646739"><ele>371.20000000000005</ele><time>2026-04-04T14:15:35.669Z</time></trkpt><trkpt lat="44.3350065" lon="8.3647995"><ele>371.0</ele><time>2026-04-04T14:15:36.67Z</time></trkpt><trkpt lat="44.334966" lon="8.364936"><ele>371.0</ele><time>2026-04-04T14:15:37.67Z</time></trkpt><trkpt lat="44.334949" lon="8.3650991"><ele>371.0</ele><time>2026-04-04T14:15:38.67Z</time></trkpt><trkpt lat="44.3349458" lon="8.3652777"><ele>371.0</ele><time>2026-04-04T14:15:39.67Z</time></trkpt><trkpt lat="44.3349731" lon="8.3654696"><ele>371.0</ele><time>2026-04-04T14:15:40.67Z</time></trkpt><trkpt lat="44.3350271" lon="8.36564"><ele>370.25</ele><time>2026-04-04T14:15:41.67Z</time></trkpt><trkpt lat="44.3351035" lon="8.3657943"><ele>369.5</ele><time>2026-04-04T14:15:42.669Z</time></trkpt><trkpt lat="44.3352254" lon="8.3659251"><ele>368.75</ele><time>2026-04-04T14:15:43.67Z</time></trkpt><trkpt lat="44.3353188" lon="8.3660696"><ele>368.0</ele><time>2026-04-04T14:15:44.67Z</time></trkpt><trkpt lat="44.3353795" lon="8.3662479"><ele>363.75</ele><time>2026-04-04T14:15:45.67Z</time></trkpt><trkpt lat="44.3353911" lon="8.3664545"><ele>359.5</ele><time>2026-04-04T14:15:46.669Z</time></trkpt><trkpt lat="44.3353727" lon="8.3666672"><ele>355.25</ele><time>2026-04-04T14:15:47.67Z</time></trkpt><trkpt lat="44.3353488" lon="8.366863"><ele>351.0</ele><time>2026-04-04T14:15:48.67Z</time></trkpt><trkpt lat="44.3353406" lon="8.367054"><ele>349.75</ele><time>2026-04-04T14:15:49.67Z</time></trkpt><trkpt lat="44.3353412" lon="8.3672233"><ele>348.5</ele><time>2026-04-04T14:15:50.67Z</time></trkpt><trkpt lat="44.3353394" lon="8.3673964"><ele>347.25</ele><time>2026-04-04T14:15:51.67Z</time></trkpt><trkpt lat="44.3353438" lon="8.3675978"><ele>346.0</ele><time>2026-04-04T14:15:52.669Z</time></trkpt><trkpt lat="44.3353901" lon="8.3678175"><ele>346.0</ele><time>2026-04-04T14:15:53.67Z</time></trkpt><trkpt lat="44.3354457" lon="8.3680215"><ele>346.0</ele><time>2026-04-04T14:15:54.67Z</time></trkpt><trkpt lat="44.3355203" lon="8.3682013"><ele>346.0</ele><time>2026-04-04T14:15:55.67Z</time></trkpt><trkpt lat="44.3356236" lon="8.3683557"><ele>349.25</ele><time>2026-04-04T14:15:56.67Z</time></trkpt><trkpt lat="44.3357365" lon="8.3684954"><ele>352.5</ele><time>2026-04-04T14:15:57.67Z</time></trkpt><trkpt lat="44.335856" lon="8.3686174"><ele>355.75</ele><time>2026-04-04T14:15:58.67Z</time></trkpt><trkpt lat="44.335986" lon="8.3687194"><ele>359.0</ele><time>2026-04-04T14:15:59.67Z</time></trkpt><trkpt lat="44.3361219" lon="8.368794"><ele>359.0</ele><time>2026-04-04T14:16:00.67Z</time></trkpt><trkpt lat="44.336257" lon="8.3688538"><ele>359.0</ele><time>2026-04-04T14:16:01.67Z</time></trkpt><trkpt lat="44.3363954" lon="8.3689285"><ele>359.0</ele><time>2026-04-04T14:16:02.67Z</time></trkpt><trkpt lat="44.3365224" lon="8.3690345"><ele>359.0</ele><time>2026-04-04T14:16:03.67Z</time></trkpt><trkpt lat="44.3366283" lon="8.3691725"><ele>357.0</ele><time>2026-04-04T14:16:04.67Z</time></trkpt><trkpt lat="44.3367115" lon="8.3693431"><ele>355.0</ele><time>2026-04-04T14:16:05.67Z</time></trkpt><trkpt lat="44.3367727" lon="8.3695138"><ele>353.0</ele><time>2026-04-04T14:16:06.67Z</time></trkpt><trkpt lat="44.336815" lon="8.3696869"><ele>351.0</ele><time>2026-04-04T14:16:07.669Z</time></trkpt><trkpt lat="44.3368319" lon="8.3698646"><ele>349.75</ele><time>2026-04-04T14:16:08.67Z</time></trkpt><trkpt lat="44.3368216" lon="8.3700485"><ele>348.5</ele><time>2026-04-04T14:16:09.67Z</time></trkpt><trkpt lat="44.3367897" lon="8.3702365"><ele>347.25</ele><time>2026-04-04T14:16:10.67Z</time></trkpt><trkpt lat="44.3367271" lon="8.3704028"><ele>346.0</ele><time>2026-04-04T14:16:11.669Z</time></trkpt><trkpt lat="44.3366513" lon="8.3705481"><ele>344.5</ele><time>2026-04-04T14:16:12.669Z</time></trkpt><trkpt lat="44.3365617" lon="8.3706875"><ele>343.0</ele><time>2026-04-04T14:16:13.67Z</time></trkpt><trkpt lat="44.3364708" lon="8.3708242"><ele>341.5</ele><time>2026-04-04T14:16:14.67Z</time></trkpt><trkpt lat="44.3363813" lon="8.3709487"><ele>340.0</ele><time>2026-04-04T14:16:15.67Z</time></trkpt><trkpt lat="44.3362952" lon="8.3710774"><ele>339.0</ele><time>2026-04-04T14:16:16.669Z</time></trkpt><trkpt lat="44.3362189" lon="8.371229"><ele>338.0</ele><time>2026-04-04T14:16:17.67Z</time></trkpt><trkpt lat="44.3361494" lon="8.371397"><ele>337.0</ele><time>2026-04-04T14:16:18.67Z</time></trkpt><trkpt lat="44.3360883" lon="8.3715754"><ele>336.0</ele><time>2026-04-04T14:16:19.67Z</time></trkpt><trkpt lat="44.3360346" lon="8.3717585"><ele>336.0</ele><time>2026-04-04T14:16:20.67Z</time></trkpt><trkpt lat="44.3359927" lon="8.3719337"><ele>336.0</ele><time>2026-04-04T14:16:21.67Z</time></trkpt><trkpt lat="44.3359537" lon="8.3721046"><ele>336.0</ele><time>2026-04-04T14:16:22.67Z</time></trkpt><trkpt lat="44.3359178" lon="8.3722821"><ele>336.0</ele><time>2026-04-04T14:16:23.67Z</time></trkpt><trkpt lat="44.3358846" lon="8.3724537"><ele>337.0</ele><time>2026-04-04T14:16:24.67Z</time></trkpt><trkpt lat="44.3358609" lon="8.3726341"><ele>338.0</ele><time>2026-04-04T14:16:25.669Z</time></trkpt><trkpt lat="44.3358438" lon="8.3728216"><ele>339.0</ele><time>2026-04-04T14:16:26.67Z</time></trkpt><trkpt lat="44.3358316" lon="8.3729946"><ele>340.0</ele><time>2026-04-04T14:16:27.67Z</time></trkpt><trkpt lat="44.3358237" lon="8.3731584"><ele>341.0</ele><time>2026-04-04T14:16:28.67Z</time></trkpt><trkpt lat="44.3358174" lon="8.3733026"><ele>342.0</ele><time>2026-04-04T14:16:29.67Z</time></trkpt><trkpt lat="44.3358118" lon="8.37344"><ele>343.0</ele><time>2026-04-04T14:16:30.67Z</time></trkpt><trkpt lat="44.3358079" lon="8.3735636"><ele>344.0</ele><time>2026-04-04T14:16:31.669Z</time></trkpt><trkpt lat="44.3358026" lon="8.3736858"><ele>345.0</ele><time>2026-04-04T14:16:32.669Z</time></trkpt><trkpt lat="44.3357907" lon="8.3738091"><ele>346.2</ele><time>2026-04-04T14:16:33.671Z</time></trkpt><trkpt lat="44.3357674" lon="8.3739253"><ele>347.4</ele><time>2026-04-04T14:16:34.671Z</time></trkpt><trkpt lat="44.335724" lon="8.3740362"><ele>348.6</ele><time>2026-04-04T14:16:35.671Z</time></trkpt><trkpt lat="44.3356471" lon="8.3741377"><ele>349.8</ele><time>2026-04-04T14:16:36.671Z</time></trkpt><trkpt lat="44.3355499" lon="8.3742026"><ele>351.0</ele><time>2026-04-04T14:16:37.671Z</time></trkpt><trkpt lat="44.3354512" lon="8.3742214"><ele>351.0</ele><time>2026-04-04T14:16:38.67Z</time></trkpt><trkpt lat="44.3353401" lon="8.3741852"><ele>351.0</ele><time>2026-04-04T14:16:39.671Z</time></trkpt><trkpt lat="44.3352214" lon="8.374104"><ele>351.0</ele><time>2026-04-04T14:16:40.671Z</time></trkpt><trkpt lat="44.3351037" lon="8.3740076"><ele>351.0</ele><time>2026-04-04T14:16:41.671Z</time></trkpt><trkpt lat="44.3349981" lon="8.3739116"><ele>349.4</ele><time>2026-04-04T14:16:42.671Z</time></trkpt><trkpt lat="44.334897" lon="8.3738237"><ele>347.8</ele><time>2026-04-04T14:16:43.671Z</time></trkpt><trkpt lat="44.3348069" lon="8.3737401"><ele>346.2</ele><time>2026-04-04T14:16:44.671Z</time></trkpt><trkpt lat="44.3347199" lon="8.3736579"><ele>344.59999999999997</ele><time>2026-04-04T14:16:45.671Z</time></trkpt><trkpt lat="44.334627" lon="8.3735878"><ele>343.0</ele><time>2026-04-04T14:16:46.671Z</time></trkpt><trkpt lat="44.334521" lon="8.3735601"><ele>343.0</ele><time>2026-04-04T14:16:47.671Z</time></trkpt><trkpt lat="44.3344074" lon="8.373539"><ele>343.0</ele><time>2026-04-04T14:16:48.671Z</time></trkpt><trkpt lat="44.3343078" lon="8.3734898"><ele>343.0</ele><time>2026-04-04T14:16:49.671Z</time></trkpt><trkpt lat="44.3342188" lon="8.3733645"><ele>343.0</ele><time>2026-04-04T14:16:50.671Z</time></trkpt><trkpt lat="44.3341317" lon="8.3732008"><ele>343.0</ele><time>2026-04-04T14:16:51.671Z</time></trkpt><trkpt lat="44.3340534" lon="8.3730266"><ele>343.0</ele><time>2026-04-04T14:16:52.671Z</time></trkpt><trkpt lat="44.3339891" lon="8.372852"><ele>343.0</ele><time>2026-04-04T14:16:53.671Z</time></trkpt><trkpt lat="44.3339246" lon="8.3726876"><ele>343.0</ele><time>2026-04-04T14:16:54.671Z</time></trkpt><trkpt lat="44.333851" lon="8.3725269"><ele>338.5</ele><time>2026-04-04T14:16:55.671Z</time></trkpt><trkpt lat="44.3338008" lon="8.37236"><ele>334.0</ele><time>2026-04-04T14:16:56.671Z</time></trkpt><trkpt lat="44.3337358" lon="8.3722286"><ele>329.5</ele><time>2026-04-04T14:16:57.671Z</time></trkpt><trkpt lat="44.3336659" lon="8.3721095"><ele>325.0</ele><time>2026-04-04T14:16:58.671Z</time></trkpt><trkpt lat="44.3335976" lon="8.3719909"><ele>325.0</ele><time>2026-04-04T14:16:59.671Z</time></trkpt><trkpt lat="44.3335411" lon="8.3718579"><ele>325.0</ele><time>2026-04-04T14:17:00.671Z</time></trkpt><trkpt lat="44.3335126" lon="8.3717083"><ele>325.0</ele><time>2026-04-04T14:17:01.671Z</time></trkpt><trkpt lat="44.3335002" lon="8.3715453"><ele>325.0</ele><time>2026-04-04T14:17:02.671Z</time></trkpt><trkpt lat="44.3334845" lon="8.3714056"><ele>325.0</ele><time>2026-04-04T14:17:03.671Z</time></trkpt><trkpt lat="44.3334576" lon="8.3713067"><ele>322.6</ele><time>2026-04-04T14:17:04.671Z</time></trkpt><trkpt lat="44.333411" lon="8.3712414"><ele>320.2</ele><time>2026-04-04T14:17:05.671Z</time></trkpt><trkpt lat="44.3333344" lon="8.3712197"><ele>317.8</ele><time>2026-04-04T14:17:06.671Z</time></trkpt><trkpt lat="44.3332241" lon="8.371225"><ele>315.4</ele><time>2026-04-04T14:17:07.671Z</time></trkpt><trkpt lat="44.3330986" lon="8.3712285"><ele>313.0</ele><time>2026-04-04T14:17:08.671Z</time></trkpt><trkpt lat="44.33297" lon="8.3712242"><ele>312.0</ele><time>2026-04-04T14:17:09.671Z</time></trkpt><trkpt lat="44.3328374" lon="8.3711788"><ele>311.0</ele><time>2026-04-04T14:17:10.671Z</time></trkpt><trkpt lat="44.3327136" lon="8.3710781"><ele>310.0</ele><time>2026-04-04T14:17:11.671Z</time></trkpt><trkpt lat="44.3325948" lon="8.3709687"><ele>309.0</ele><time>2026-04-04T14:17:12.671Z</time></trkpt><trkpt lat="44.3324913" lon="8.3708486"><ele>309.0</ele><time>2026-04-04T14:17:13.671Z</time></trkpt><trkpt lat="44.3323991" lon="8.370732"><ele>309.0</ele><time>2026-04-04T14:17:14.671Z</time></trkpt><trkpt lat="44.3323159" lon="8.3706252"><ele>309.0</ele><time>2026-04-04T14:17:15.671Z</time></trkpt><trkpt lat="44.3322438" lon="8.3705281"><ele>309.0</ele><time>2026-04-04T14:17:16.67Z</time></trkpt><trkpt lat="44.3322023" lon="8.3704486"><ele>309.0</ele><time>2026-04-04T14:17:17.671Z</time></trkpt><trkpt lat="44.3321957" lon="8.3702736"><ele>309.0</ele><time>2026-04-04T14:17:19.671Z</time></trkpt><trkpt lat="44.3322425" lon="8.3702017"><ele>309.0</ele><time>2026-04-04T14:17:20.671Z</time></trkpt><trkpt lat="44.332314" lon="8.3702208"><ele>309.0</ele><time>2026-04-04T14:17:21.671Z</time></trkpt><trkpt lat="44.3323937" lon="8.3703042"><ele>309.0</ele><time>2026-04-04T14:17:22.671Z</time></trkpt><trkpt lat="44.3324596" lon="8.3704298"><ele>309.0</ele><time>2026-04-04T14:17:23.671Z</time></trkpt><trkpt lat="44.3325243" lon="8.3705443"><ele>309.0</ele><time>2026-04-04T14:17:24.671Z</time></trkpt><trkpt lat="44.3326045" lon="8.3706322"><ele>309.0</ele><time>2026-04-04T14:17:25.671Z</time></trkpt><trkpt lat="44.3326995" lon="8.3706808"><ele>309.0</ele><time>2026-04-04T14:17:26.67Z</time></trkpt><trkpt lat="44.3327988" lon="8.3706861"><ele>309.0</ele><time>2026-04-04T14:17:27.671Z</time></trkpt><trkpt lat="44.332883" lon="8.3706871"><ele>309.0</ele><time>2026-04-04T14:17:28.671Z</time></trkpt><trkpt lat="44.3329652" lon="8.370673"><ele>309.0</ele><time>2026-04-04T14:17:29.671Z</time></trkpt><trkpt lat="44.3330334" lon="8.3706436"><ele>309.0</ele><time>2026-04-04T14:17:30.671Z</time></trkpt><trkpt lat="44.3330763" lon="8.3705518"><ele>309.0</ele><time>2026-04-04T14:17:31.671Z</time></trkpt><trkpt lat="44.3331021" lon="8.3704355"><ele>309.0</ele><time>2026-04-04T14:17:32.671Z</time></trkpt><trkpt lat="44.3331112" lon="8.3702819"><ele>309.0</ele><time>2026-04-04T14:17:33.671Z</time></trkpt><trkpt lat="44.3331195" lon="8.3701232"><ele>305.59999999999997</ele><time>2026-04-04T14:17:34.671Z</time></trkpt><trkpt lat="44.3331497" lon="8.3699738"><ele>302.2</ele><time>2026-04-04T14:17:35.671Z</time></trkpt><trkpt lat="44.333182" lon="8.3698686"><ele>298.79999999999995</ele><time>2026-04-04T14:17:36.671Z</time></trkpt><trkpt lat="44.3332337" lon="8.3697443"><ele>295.4</ele><time>2026-04-04T14:17:38.671Z</time></trkpt><trkpt lat="44.3333766" lon="8.3697249"><ele>292.0</ele><time>2026-04-04T14:17:40.671Z</time></trkpt><trkpt lat="44.3334691" lon="8.3697022"><ele>292.0</ele><time>2026-04-04T14:17:41.671Z</time></trkpt><trkpt lat="44.3335597" lon="8.3696744"><ele>292.0</ele><time>2026-04-04T14:17:42.671Z</time></trkpt><trkpt lat="44.333641" lon="8.3696628"><ele>292.0</ele><time>2026-04-04T14:17:43.672Z</time></trkpt><trkpt lat="44.3337569" lon="8.369712"><ele>292.0</ele><time>2026-04-04T14:17:44.672Z</time></trkpt><trkpt lat="44.3338817" lon="8.3697808"><ele>292.0</ele><time>2026-04-04T14:17:45.672Z</time></trkpt><trkpt lat="44.3340101" lon="8.3698545"><ele>291.0</ele><time>2026-04-04T14:17:46.672Z</time></trkpt><trkpt lat="44.3341179" lon="8.3699024"><ele>290.0</ele><time>2026-04-04T14:17:47.671Z</time></trkpt><trkpt lat="44.3342082" lon="8.3699214"><ele>289.0</ele><time>2026-04-04T14:17:48.672Z</time></trkpt><trkpt lat="44.3342757" lon="8.3699132"><ele>288.0</ele><time>2026-04-04T14:17:49.672Z</time></trkpt><trkpt lat="44.3343684" lon="8.369863"><ele>287.0</ele><time>2026-04-04T14:17:51.672Z</time></trkpt><trkpt lat="44.3342888" lon="8.3697483"><ele>287.75</ele><time>2026-04-04T14:17:55.672Z</time></trkpt><trkpt lat="44.3341979" lon="8.3696872"><ele>288.5</ele><time>2026-04-04T14:17:56.672Z</time></trkpt><trkpt lat="44.3340634" lon="8.369608"><ele>289.25</ele><time>2026-04-04T14:17:57.671Z</time></trkpt><trkpt lat="44.3339224" lon="8.3694887"><ele>290.0</ele><time>2026-04-04T14:17:58.672Z</time></trkpt><trkpt lat="44.3337939" lon="8.3693344"><ele>285.33333333333337</ele><time>2026-04-04T14:17:59.671Z</time></trkpt><trkpt lat="44.3336437" lon="8.3691112"><ele>280.6666666666667</ele><time>2026-04-04T14:18:00.671Z</time></trkpt><trkpt lat="44.3335387" lon="8.3689112"><ele>276.0</ele><time>2026-04-04T14:18:01.672Z</time></trkpt><trkpt lat="44.333464" lon="8.3687457"><ele>276.0</ele><time>2026-04-04T14:18:02.672Z</time></trkpt><trkpt lat="44.3333971" lon="8.3686083"><ele>276.0</ele><time>2026-04-04T14:18:03.672Z</time></trkpt><trkpt lat="44.3333334" lon="8.3685231"><ele>276.0</ele><time>2026-04-04T14:18:04.672Z</time></trkpt><trkpt lat="44.3332319" lon="8.3684855"><ele>276.0</ele><time>2026-04-04T14:18:05.672Z</time></trkpt><trkpt lat="44.3331391" lon="8.3684262"><ele>276.0</ele><time>2026-04-04T14:18:06.672Z</time></trkpt><trkpt lat="44.3330558" lon="8.3683333"><ele>273.0</ele><time>2026-04-04T14:18:07.671Z</time></trkpt><trkpt lat="44.3330006" lon="8.3681825"><ele>270.0</ele><time>2026-04-04T14:18:08.672Z</time></trkpt><trkpt lat="44.3329452" lon="8.3679989"><ele>267.0</ele><time>2026-04-04T14:18:09.672Z</time></trkpt><trkpt lat="44.3328833" lon="8.367826"><ele>264.0</ele><time>2026-04-04T14:18:10.672Z</time></trkpt><trkpt lat="44.3328301" lon="8.3676711"><ele>264.0</ele><time>2026-04-04T14:18:11.672Z</time></trkpt><trkpt lat="44.3327828" lon="8.367527"><ele>264.0</ele><time>2026-04-04T14:18:12.672Z</time></trkpt><trkpt lat="44.3327206" lon="8.3674007"><ele>264.0</ele><time>2026-04-04T14:18:13.672Z</time></trkpt><trkpt lat="44.332629" lon="8.3672866"><ele>264.0</ele><time>2026-04-04T14:18:14.671Z</time></trkpt><trkpt lat="44.3325114" lon="8.3671848"><ele>267.25</ele><time>2026-04-04T14:18:15.672Z</time></trkpt><trkpt lat="44.3323938" lon="8.3670894"><ele>270.5</ele><time>2026-04-04T14:18:16.672Z</time></trkpt><trkpt lat="44.332279" lon="8.3670023"><ele>273.75</ele><time>2026-04-04T14:18:17.672Z</time></trkpt><trkpt lat="44.332171" lon="8.3669274"><ele>277.0</ele><time>2026-04-04T14:18:18.672Z</time></trkpt><trkpt lat="44.332078" lon="8.3668548"><ele>272.2</ele><time>2026-04-04T14:18:19.672Z</time></trkpt><trkpt lat="44.332015" lon="8.3667446"><ele>267.4</ele><time>2026-04-04T14:18:20.672Z</time></trkpt><trkpt lat="44.331972" lon="8.3666383"><ele>262.6</ele><time>2026-04-04T14:18:21.671Z</time></trkpt><trkpt lat="44.331974" lon="8.3665001"><ele>257.8</ele><time>2026-04-04T14:18:22.672Z</time></trkpt><trkpt lat="44.33199" lon="8.366328"><ele>253.0</ele><time>2026-04-04T14:18:23.672Z</time></trkpt><trkpt lat="44.3320081" lon="8.366107"><ele>253.0</ele><time>2026-04-04T14:18:24.672Z</time></trkpt><trkpt lat="44.3320183" lon="8.3658702"><ele>253.0</ele><time>2026-04-04T14:18:25.671Z</time></trkpt><trkpt lat="44.332031" lon="8.3656271"><ele>253.0</ele><time>2026-04-04T14:18:26.672Z</time></trkpt><trkpt lat="44.3320612" lon="8.3654625"><ele>257.4</ele><time>2026-04-04T14:18:27.671Z</time></trkpt><trkpt lat="44.3320894" lon="8.3653438"><ele>261.8</ele><time>2026-04-04T14:18:28.672Z</time></trkpt><trkpt lat="44.3320816" lon="8.3651935"><ele>266.2</ele><time>2026-04-04T14:18:30.672Z</time></trkpt><trkpt lat="44.3319798" lon="8.3651437"><ele>270.6</ele><time>2026-04-04T14:18:32.671Z</time></trkpt><trkpt lat="44.3319142" lon="8.3651728"><ele>275.0</ele><time>2026-04-04T14:18:33.672Z</time></trkpt><trkpt lat="44.3318486" lon="8.3652521"><ele>275.0</ele><time>2026-04-04T14:18:34.672Z</time></trkpt><trkpt lat="44.3317769" lon="8.3653508"><ele>275.0</ele><time>2026-04-04T14:18:35.672Z</time></trkpt><trkpt lat="44.3317035" lon="8.3654595"><ele>275.0</ele><time>2026-04-04T14:18:36.672Z</time></trkpt><trkpt lat="44.3316404" lon="8.365573"><ele>275.0</ele><time>2026-04-04T14:18:37.672Z</time></trkpt><trkpt lat="44.3315905" lon="8.3656879"><ele>275.0</ele><time>2026-04-04T14:18:38.672Z</time></trkpt><trkpt lat="44.3315254" lon="8.3657986"><ele>275.8</ele><time>2026-04-04T14:18:39.672Z</time></trkpt><trkpt lat="44.33145" lon="8.3658866"><ele>276.6</ele><time>2026-04-04T14:18:40.672Z</time></trkpt><trkpt lat="44.3313576" lon="8.365936"><ele>277.4</ele><time>2026-04-04T14:18:41.672Z</time></trkpt><trkpt lat="44.3312775" lon="8.3660138"><ele>278.2</ele><time>2026-04-04T14:18:42.672Z</time></trkpt><trkpt lat="44.3312116" lon="8.3660603"><ele>279.0</ele><time>2026-04-04T14:18:43.671Z</time></trkpt><trkpt lat="44.3311574" lon="8.3661775"><ele>274.0</ele><time>2026-04-04T14:18:44.672Z</time></trkpt><trkpt lat="44.3311342" lon="8.366369"><ele>269.0</ele><time>2026-04-04T14:18:45.672Z</time></trkpt><trkpt lat="44.331137" lon="8.3665638"><ele>264.0</ele><time>2026-04-04T14:18:46.672Z</time></trkpt><trkpt lat="44.3311031" lon="8.3667693"><ele>259.0</ele><time>2026-04-04T14:18:47.672Z</time></trkpt><trkpt lat="44.3310657" lon="8.3669403"><ele>259.0</ele><time>2026-04-04T14:18:48.672Z</time></trkpt><trkpt lat="44.3309987" lon="8.3671266"><ele>259.0</ele><time>2026-04-04T14:18:49.671Z</time></trkpt><trkpt lat="44.3309274" lon="8.3673035"><ele>259.0</ele><time>2026-04-04T14:18:50.672Z</time></trkpt><trkpt lat="44.3308463" lon="8.3674657"><ele>259.0</ele><time>2026-04-04T14:18:51.672Z</time></trkpt><trkpt lat="44.330724" lon="8.3676535"><ele>250.66666666666666</ele><time>2026-04-04T14:18:52.673Z</time></trkpt><trkpt lat="44.3305983" lon="8.3678122"><ele>242.33333333333331</ele><time>2026-04-04T14:18:53.673Z</time></trkpt><trkpt lat="44.3304664" lon="8.3679124"><ele>234.0</ele><time>2026-04-04T14:18:54.673Z</time></trkpt><trkpt lat="44.3303202" lon="8.368003"><ele>230.5</ele><time>2026-04-04T14:18:55.673Z</time></trkpt><trkpt lat="44.3301709" lon="8.3680629"><ele>227.0</ele><time>2026-04-04T14:18:56.673Z</time></trkpt><trkpt lat="44.3300284" lon="8.3681184"><ele>223.5</ele><time>2026-04-04T14:18:57.673Z</time></trkpt><trkpt lat="44.3298861" lon="8.368157"><ele>220.0</ele><time>2026-04-04T14:18:58.673Z</time></trkpt><trkpt lat="44.3297538" lon="8.3681749"><ele>219.25</ele><time>2026-04-04T14:18:59.673Z</time></trkpt><trkpt lat="44.3296313" lon="8.3681674"><ele>218.5</ele><time>2026-04-04T14:19:00.673Z</time></trkpt><trkpt lat="44.3295127" lon="8.3681645"><ele>217.75</ele><time>2026-04-04T14:19:01.673Z</time></trkpt><trkpt lat="44.329399" lon="8.3681763"><ele>217.0</ele><time>2026-04-04T14:19:02.673Z</time></trkpt><trkpt lat="44.329269" lon="8.3682254"><ele>217.0</ele><time>2026-04-04T14:19:03.673Z</time></trkpt><trkpt lat="44.3291297" lon="8.3682971"><ele>217.0</ele><time>2026-04-04T14:19:04.672Z</time></trkpt><trkpt lat="44.3289915" lon="8.3683948"><ele>217.0</ele><time>2026-04-04T14:19:05.673Z</time></trkpt><trkpt lat="44.3288562" lon="8.3684977"><ele>218.75</ele><time>2026-04-04T14:19:06.673Z</time></trkpt><trkpt lat="44.3287282" lon="8.3685998"><ele>220.5</ele><time>2026-04-04T14:19:07.673Z</time></trkpt><trkpt lat="44.3286063" lon="8.3686883"><ele>222.25</ele><time>2026-04-04T14:19:08.673Z</time></trkpt><trkpt lat="44.328481" lon="8.368741"><ele>224.0</ele><time>2026-04-04T14:19:09.673Z</time></trkpt><trkpt lat="44.3283524" lon="8.36875"><ele>224.0</ele><time>2026-04-04T14:19:10.673Z</time></trkpt><trkpt lat="44.3282214" lon="8.3687157"><ele>224.0</ele><time>2026-04-04T14:19:11.673Z</time></trkpt><trkpt lat="44.3281012" lon="8.3687081"><ele>224.0</ele><time>2026-04-04T14:19:12.673Z</time></trkpt><trkpt lat="44.3279902" lon="8.3687356"><ele>224.0</ele><time>2026-04-04T14:19:13.672Z</time></trkpt><trkpt lat="44.3278921" lon="8.3688189"><ele>220.6</ele><time>2026-04-04T14:19:14.673Z</time></trkpt><trkpt lat="44.3278074" lon="8.3689804"><ele>217.2</ele><time>2026-04-04T14:19:15.673Z</time></trkpt><trkpt lat="44.3277498" lon="8.3691196"><ele>213.79999999999998</ele><time>2026-04-04T14:19:16.672Z</time></trkpt><trkpt lat="44.3276959" lon="8.3692225"><ele>210.39999999999998</ele><time>2026-04-04T14:19:17.673Z</time></trkpt><trkpt lat="44.327619" lon="8.3692837"><ele>207.0</ele><time>2026-04-04T14:19:18.673Z</time></trkpt><trkpt lat="44.3275417" lon="8.3693562"><ele>207.0</ele><time>2026-04-04T14:19:19.673Z</time></trkpt><trkpt lat="44.327463" lon="8.3694643"><ele>207.0</ele><time>2026-04-04T14:19:20.672Z</time></trkpt><trkpt lat="44.3274121" lon="8.369634"><ele>207.0</ele><time>2026-04-04T14:19:21.673Z</time></trkpt><trkpt lat="44.3273694" lon="8.3698483"><ele>207.0</ele><time>2026-04-04T14:19:22.672Z</time></trkpt><trkpt lat="44.3273361" lon="8.3701011"><ele>205.33333333333331</ele><time>2026-04-04T14:19:23.673Z</time></trkpt><trkpt lat="44.3272931" lon="8.3703493"><ele>203.66666666666666</ele><time>2026-04-04T14:19:24.672Z</time></trkpt><trkpt lat="44.3272477" lon="8.3705946"><ele>202.0</ele><time>2026-04-04T14:19:25.673Z</time></trkpt><trkpt lat="44.3272163" lon="8.3708315"><ele>200.66666666666666</ele><time>2026-04-04T14:19:26.672Z</time></trkpt><trkpt lat="44.3271712" lon="8.3710427"><ele>199.33333333333331</ele><time>2026-04-04T14:19:27.673Z</time></trkpt><trkpt lat="44.3271231" lon="8.371251"><ele>198.0</ele><time>2026-04-04T14:19:28.673Z</time></trkpt><trkpt lat="44.3270959" lon="8.3714727"><ele>197.0</ele><time>2026-04-04T14:19:29.673Z</time></trkpt><trkpt lat="44.327086" lon="8.3716863"><ele>196.0</ele><time>2026-04-04T14:19:30.673Z</time></trkpt><trkpt lat="44.3270724" lon="8.3718715"><ele>195.0</ele><time>2026-04-04T14:19:31.673Z</time></trkpt><trkpt lat="44.3270343" lon="8.3720279"><ele>194.0</ele><time>2026-04-04T14:19:32.673Z</time></trkpt><trkpt lat="44.3269598" lon="8.3721572"><ele>192.66666666666669</ele><time>2026-04-04T14:19:33.673Z</time></trkpt><trkpt lat="44.3268455" lon="8.3722902"><ele>191.33333333333334</ele><time>2026-04-04T14:19:34.673Z</time></trkpt><trkpt lat="44.3267145" lon="8.3724158"><ele>190.0</ele><time>2026-04-04T14:19:35.673Z</time></trkpt><trkpt lat="44.3265848" lon="8.3725434"><ele>190.0</ele><time>2026-04-04T14:19:36.673Z</time></trkpt><trkpt lat="44.3264658" lon="8.3726537"><ele>190.0</ele><time>2026-04-04T14:19:37.672Z</time></trkpt><trkpt lat="44.3263549" lon="8.3727527"><ele>190.0</ele><time>2026-04-04T14:19:38.673Z</time></trkpt><trkpt lat="44.3262562" lon="8.3728543"><ele>190.0</ele><time>2026-04-04T14:19:39.673Z</time></trkpt><trkpt lat="44.3261669" lon="8.3729762"><ele>188.66666666666669</ele><time>2026-04-04T14:19:40.673Z</time></trkpt><trkpt lat="44.3260878" lon="8.3731371"><ele>187.33333333333334</ele><time>2026-04-04T14:19:41.673Z</time></trkpt><trkpt lat="44.3260185" lon="8.3733254"><ele>186.0</ele><time>2026-04-04T14:19:42.673Z</time></trkpt><trkpt lat="44.3259445" lon="8.3735484"><ele>186.0</ele><time>2026-04-04T14:19:43.673Z</time></trkpt><trkpt lat="44.3258732" lon="8.3737447"><ele>186.0</ele><time>2026-04-04T14:19:44.673Z</time></trkpt><trkpt lat="44.3257933" lon="8.3739179"><ele>186.0</ele><time>2026-04-04T14:19:45.673Z</time></trkpt><trkpt lat="44.3257128" lon="8.3740927"><ele>186.0</ele><time>2026-04-04T14:19:46.673Z</time></trkpt><trkpt lat="44.325645" lon="8.374263"><ele>186.0</ele><time>2026-04-04T14:19:47.673Z</time></trkpt><trkpt lat="44.3255866" lon="8.3744243"><ele>186.0</ele><time>2026-04-04T14:19:48.673Z</time></trkpt><trkpt lat="44.3255297" lon="8.3745709"><ele>186.0</ele><time>2026-04-04T14:19:49.673Z</time></trkpt><trkpt lat="44.3254673" lon="8.3746679"><ele>187.0</ele><time>2026-04-04T14:19:50.672Z</time></trkpt><trkpt lat="44.3253936" lon="8.3747294"><ele>188.0</ele><time>2026-04-04T14:19:51.673Z</time></trkpt><trkpt lat="44.3253259" lon="8.3747748"><ele>189.0</ele><time>2026-04-04T14:19:52.673Z</time></trkpt><trkpt lat="44.3252392" lon="8.3748129"><ele>190.0</ele><time>2026-04-04T14:19:53.673Z</time></trkpt><trkpt lat="44.3251505" lon="8.3748464"><ele>191.0</ele><time>2026-04-04T14:19:54.673Z</time></trkpt><trkpt lat="44.3250619" lon="8.3749015"><ele>192.0</ele><time>2026-04-04T14:19:55.673Z</time></trkpt><trkpt lat="44.3249958" lon="8.3749871"><ele>192.0</ele><time>2026-04-04T14:19:56.673Z</time></trkpt><trkpt lat="44.3249464" lon="8.3750828"><ele>192.0</ele><time>2026-04-04T14:19:57.673Z</time></trkpt><trkpt lat="44.324898" lon="8.375158"><ele>192.0</ele><time>2026-04-04T14:19:58.672Z</time></trkpt><trkpt lat="44.3248399" lon="8.3752002"><ele>192.0</ele><time>2026-04-04T14:19:59.673Z</time></trkpt><trkpt lat="44.3247743" lon="8.3752625"><ele>192.0</ele><time>2026-04-04T14:20:00.674Z</time></trkpt><trkpt lat="44.3247182" lon="8.3753796"><ele>192.0</ele><time>2026-04-04T14:20:01.674Z</time></trkpt><trkpt lat="44.3246727" lon="8.3755354"><ele>192.75</ele><time>2026-04-04T14:20:02.674Z</time></trkpt><trkpt lat="44.3246454" lon="8.3757363"><ele>193.5</ele><time>2026-04-04T14:20:03.674Z</time></trkpt><trkpt lat="44.3246323" lon="8.3759375"><ele>194.25</ele><time>2026-04-04T14:20:04.674Z</time></trkpt><trkpt lat="44.324632" lon="8.3761075"><ele>195.0</ele><time>2026-04-04T14:20:05.674Z</time></trkpt><trkpt lat="44.3246453" lon="8.3762543"><ele>193.2</ele><time>2026-04-04T14:20:06.673Z</time></trkpt><trkpt lat="44.3246811" lon="8.3763801"><ele>191.4</ele><time>2026-04-04T14:20:07.673Z</time></trkpt><trkpt lat="44.3246947" lon="8.3765021"><ele>189.60000000000002</ele><time>2026-04-04T14:20:08.674Z</time></trkpt><trkpt lat="44.3246629" lon="8.3766296"><ele>187.8</ele><time>2026-04-04T14:20:09.674Z</time></trkpt><trkpt lat="44.3245742" lon="8.3767703"><ele>186.0</ele><time>2026-04-04T14:20:10.674Z</time></trkpt><trkpt lat="44.3244945" lon="8.3768979"><ele>186.0</ele><time>2026-04-04T14:20:11.674Z</time></trkpt><trkpt lat="44.3244202" lon="8.3769901"><ele>186.0</ele><time>2026-04-04T14:20:12.674Z</time></trkpt><trkpt lat="44.3243292" lon="8.377043"><ele>186.0</ele><time>2026-04-04T14:20:13.674Z</time></trkpt><trkpt lat="44.3242214" lon="8.3770506"><ele>186.0</ele><time>2026-04-04T14:20:14.674Z</time></trkpt><trkpt lat="44.3241072" lon="8.3770344"><ele>186.0</ele><time>2026-04-04T14:20:15.674Z</time></trkpt><trkpt lat="44.3240126" lon="8.3770324"><ele>186.0</ele><time>2026-04-04T14:20:16.673Z</time></trkpt><trkpt lat="44.3239184" lon="8.377065"><ele>186.0</ele><time>2026-04-04T14:20:17.674Z</time></trkpt><trkpt lat="44.3238158" lon="8.377135"><ele>186.0</ele><time>2026-04-04T14:20:18.674Z</time></trkpt><trkpt lat="44.3237101" lon="8.3772263"><ele>186.0</ele><time>2026-04-04T14:20:19.674Z</time></trkpt><trkpt lat="44.3236124" lon="8.377319"><ele>184.25</ele><time>2026-04-04T14:20:20.674Z</time></trkpt><trkpt lat="44.3235275" lon="8.3774074"><ele>182.5</ele><time>2026-04-04T14:20:21.674Z</time></trkpt><trkpt lat="44.3234478" lon="8.3775199"><ele>180.75</ele><time>2026-04-04T14:20:22.674Z</time></trkpt><trkpt lat="44.3233776" lon="8.3776495"><ele>179.0</ele><time>2026-04-04T14:20:23.674Z</time></trkpt><trkpt lat="44.3233112" lon="8.3777832"><ele>179.0</ele><time>2026-04-04T14:20:24.674Z</time></trkpt><trkpt lat="44.3232492" lon="8.3779235"><ele>179.0</ele><time>2026-04-04T14:20:25.674Z</time></trkpt><trkpt lat="44.3231925" lon="8.378064"><ele>179.0</ele><time>2026-04-04T14:20:26.674Z</time></trkpt><trkpt lat="44.3231427" lon="8.3782144"><ele>179.0</ele><time>2026-04-04T14:20:27.674Z</time></trkpt><trkpt lat="44.3231092" lon="8.378381"><ele>179.0</ele><time>2026-04-04T14:20:28.674Z</time></trkpt><trkpt lat="44.3230951" lon="8.3785708"><ele>179.0</ele><time>2026-04-04T14:20:29.674Z</time></trkpt><trkpt lat="44.3231002" lon="8.378774"><ele>179.0</ele><time>2026-04-04T14:20:30.674Z</time></trkpt><trkpt lat="44.3231032" lon="8.3789645"><ele>179.0</ele><time>2026-04-04T14:20:31.674Z</time></trkpt><trkpt lat="44.3231024" lon="8.3791353"><ele>177.0</ele><time>2026-04-04T14:20:32.674Z</time></trkpt><trkpt lat="44.323081" lon="8.3792823"><ele>175.0</ele><time>2026-04-04T14:20:33.674Z</time></trkpt><trkpt lat="44.3230334" lon="8.379396"><ele>173.0</ele><time>2026-04-04T14:20:34.674Z</time></trkpt><trkpt lat="44.3229704" lon="8.379496"><ele>171.0</ele><time>2026-04-04T14:20:35.674Z</time></trkpt><trkpt lat="44.3229151" lon="8.3795925"><ele>169.0</ele><time>2026-04-04T14:20:36.674Z</time></trkpt><trkpt lat="44.3228826" lon="8.3796969"><ele>174.75</ele><time>2026-04-04T14:20:37.674Z</time></trkpt><trkpt lat="44.3228799" lon="8.3798374"><ele>180.5</ele><time>2026-04-04T14:20:38.674Z</time></trkpt><trkpt lat="44.3229099" lon="8.3799974"><ele>186.25</ele><time>2026-04-04T14:20:39.674Z</time></trkpt><trkpt lat="44.322962" lon="8.3801713"><ele>192.0</ele><time>2026-04-04T14:20:40.674Z</time></trkpt><trkpt lat="44.3230189" lon="8.3803304"><ele>186.6</ele><time>2026-04-04T14:20:41.674Z</time></trkpt><trkpt lat="44.3230815" lon="8.3804919"><ele>181.2</ele><time>2026-04-04T14:20:42.674Z</time></trkpt><trkpt lat="44.3231352" lon="8.3806252"><ele>175.8</ele><time>2026-04-04T14:20:43.674Z</time></trkpt><trkpt lat="44.3231724" lon="8.380728"><ele>170.4</ele><time>2026-04-04T14:20:44.674Z</time></trkpt><trkpt lat="44.3231905" lon="8.3808315"><ele>165.0</ele><time>2026-04-04T14:20:45.674Z</time></trkpt><trkpt lat="44.3231864" lon="8.3809468"><ele>163.5</ele><time>2026-04-04T14:20:46.674Z</time></trkpt><trkpt lat="44.3231477" lon="8.3810826"><ele>162.0</ele><time>2026-04-04T14:20:47.674Z</time></trkpt><trkpt lat="44.3230747" lon="8.3812198"><ele>160.5</ele><time>2026-04-04T14:20:48.673Z</time></trkpt><trkpt lat="44.322997" lon="8.3813509"><ele>159.0</ele><time>2026-04-04T14:20:49.674Z</time></trkpt><trkpt lat="44.3229066" lon="8.3814892"><ele>159.0</ele><time>2026-04-04T14:20:50.674Z</time></trkpt><trkpt lat="44.322818" lon="8.3816337"><ele>159.0</ele><time>2026-04-04T14:20:51.674Z</time></trkpt><trkpt lat="44.3227367" lon="8.381785"><ele>159.0</ele><time>2026-04-04T14:20:52.674Z</time></trkpt><trkpt lat="44.3226603" lon="8.381903"><ele>159.0</ele><time>2026-04-04T14:20:53.674Z</time></trkpt><trkpt lat="44.3225873" lon="8.3819998"><ele>159.0</ele><time>2026-04-04T14:20:54.674Z</time></trkpt><trkpt lat="44.3225007" lon="8.3820541"><ele>159.0</ele><time>2026-04-04T14:20:55.673Z</time></trkpt><trkpt lat="44.3223873" lon="8.3820911"><ele>159.0</ele><time>2026-04-04T14:20:56.674Z</time></trkpt><trkpt lat="44.3222739" lon="8.3821003"><ele>159.0</ele><time>2026-04-04T14:20:57.674Z</time></trkpt><trkpt lat="44.3221805" lon="8.3821159"><ele>159.0</ele><time>2026-04-04T14:20:58.673Z</time></trkpt><trkpt lat="44.3221149" lon="8.3821525"><ele>161.25</ele><time>2026-04-04T14:20:59.674Z</time></trkpt><trkpt lat="44.3220356" lon="8.3823379"><ele>163.5</ele><time>2026-04-04T14:21:01.674Z</time></trkpt><trkpt lat="44.3219922" lon="8.382506"><ele>165.75</ele><time>2026-04-04T14:21:02.674Z</time></trkpt><trkpt lat="44.3219415" lon="8.3826841"><ele>168.0</ele><time>2026-04-04T14:21:03.674Z</time></trkpt><trkpt lat="44.3218822" lon="8.3828393"><ele>168.0</ele><time>2026-04-04T14:21:04.674Z</time></trkpt><trkpt lat="44.3218144" lon="8.3829699"><ele>168.0</ele><time>2026-04-04T14:21:05.673Z</time></trkpt><trkpt lat="44.3217367" lon="8.3830915"><ele>168.0</ele><time>2026-04-04T14:21:06.674Z</time></trkpt><trkpt lat="44.3216601" lon="8.3832124"><ele>168.0</ele><time>2026-04-04T14:21:07.673Z</time></trkpt><trkpt lat="44.3215813" lon="8.3833246"><ele>166.4</ele><time>2026-04-04T14:21:08.674Z</time></trkpt><trkpt lat="44.3214971" lon="8.3834189"><ele>164.8</ele><time>2026-04-04T14:21:09.674Z</time></trkpt><trkpt lat="44.3213995" lon="8.3834869"><ele>163.2</ele><time>2026-04-04T14:21:10.675Z</time></trkpt><trkpt lat="44.3213009" lon="8.3835365"><ele>161.6</ele><time>2026-04-04T14:21:11.675Z</time></trkpt><trkpt lat="44.3212041" lon="8.3835712"><ele>160.0</ele><time>2026-04-04T14:21:12.674Z</time></trkpt><trkpt lat="44.3211008" lon="8.3835761"><ele>160.0</ele><time>2026-04-04T14:21:13.675Z</time></trkpt><trkpt lat="44.3209985" lon="8.3835454"><ele>160.0</ele><time>2026-04-04T14:21:14.675Z</time></trkpt><trkpt lat="44.3208855" lon="8.3834839"><ele>160.0</ele><time>2026-04-04T14:21:15.675Z</time></trkpt><trkpt lat="44.3207635" lon="8.3833941"><ele>160.0</ele><time>2026-04-04T14:21:16.675Z</time></trkpt><trkpt lat="44.3206455" lon="8.3832817"><ele>163.33333333333334</ele><time>2026-04-04T14:21:17.674Z</time></trkpt><trkpt lat="44.3205073" lon="8.3831739"><ele>166.66666666666666</ele><time>2026-04-04T14:21:18.674Z</time></trkpt><trkpt lat="44.3203678" lon="8.3830738"><ele>170.0</ele><time>2026-04-04T14:21:19.675Z</time></trkpt><trkpt lat="44.3202331" lon="8.3829867"><ele>170.0</ele><time>2026-04-04T14:21:20.675Z</time></trkpt><trkpt lat="44.3201001" lon="8.3829212"><ele>170.0</ele><time>2026-04-04T14:21:21.675Z</time></trkpt><trkpt lat="44.3199609" lon="8.382886"><ele>170.0</ele><time>2026-04-04T14:21:22.675Z</time></trkpt><trkpt lat="44.3198147" lon="8.3828745"><ele>170.0</ele><time>2026-04-04T14:21:23.675Z</time></trkpt><trkpt lat="44.3196625" lon="8.382875"><ele>167.75</ele><time>2026-04-04T14:21:24.675Z</time></trkpt><trkpt lat="44.3195223" lon="8.3828891"><ele>165.5</ele><time>2026-04-04T14:21:25.675Z</time></trkpt><trkpt lat="44.3193907" lon="8.3829157"><ele>163.25</ele><time>2026-04-04T14:21:26.675Z</time></trkpt><trkpt lat="44.3192648" lon="8.3829486"><ele>161.0</ele><time>2026-04-04T14:21:27.674Z</time></trkpt><trkpt lat="44.3191444" lon="8.3829846"><ele>160.0</ele><time>2026-04-04T14:21:28.675Z</time></trkpt><trkpt lat="44.3190347" lon="8.3830184"><ele>159.0</ele><time>2026-04-04T14:21:29.675Z</time></trkpt><trkpt lat="44.3189468" lon="8.3830453"><ele>158.0</ele><time>2026-04-04T14:21:30.675Z</time></trkpt><trkpt lat="44.3188666" lon="8.3830342"><ele>157.0</ele><time>2026-04-04T14:21:31.675Z</time></trkpt><trkpt lat="44.3187858" lon="8.3829924"><ele>156.0</ele><time>2026-04-04T14:21:32.675Z</time></trkpt><trkpt lat="44.3186894" lon="8.3829456"><ele>156.0</ele><time>2026-04-04T14:21:33.674Z</time></trkpt><trkpt lat="44.3185951" lon="8.3829227"><ele>156.0</ele><time>2026-04-04T14:21:34.675Z</time></trkpt><trkpt lat="44.3185123" lon="8.3829254"><ele>156.0</ele><time>2026-04-04T14:21:35.675Z</time></trkpt><trkpt lat="44.3184137" lon="8.3829438"><ele>156.0</ele><time>2026-04-04T14:21:37.675Z</time></trkpt><trkpt lat="44.3183369" lon="8.3830684"><ele>156.0</ele><time>2026-04-04T14:21:39.675Z</time></trkpt><trkpt lat="44.3182947" lon="8.3831686"><ele>153.0</ele><time>2026-04-04T14:21:40.674Z</time></trkpt><trkpt lat="44.3182393" lon="8.383254"><ele>150.0</ele><time>2026-04-04T14:21:41.675Z</time></trkpt><trkpt lat="44.3181525" lon="8.3833185"><ele>147.0</ele><time>2026-04-04T14:21:42.675Z</time></trkpt><trkpt lat="44.3180461" lon="8.3833716"><ele>144.0</ele><time>2026-04-04T14:21:43.675Z</time></trkpt><trkpt lat="44.3179243" lon="8.3834113"><ele>141.0</ele><time>2026-04-04T14:21:44.675Z</time></trkpt><trkpt lat="44.3178148" lon="8.3834499"><ele>140.4</ele><time>2026-04-04T14:21:45.675Z</time></trkpt><trkpt lat="44.3177147" lon="8.3834888"><ele>139.8</ele><time>2026-04-04T14:21:46.675Z</time></trkpt><trkpt lat="44.3176195" lon="8.3835281"><ele>139.20000000000002</ele><time>2026-04-04T14:21:47.675Z</time></trkpt><trkpt lat="44.3175345" lon="8.3835733"><ele>138.6</ele><time>2026-04-04T14:21:48.674Z</time></trkpt><trkpt lat="44.3174453" lon="8.3836426"><ele>138.0</ele><time>2026-04-04T14:21:49.675Z</time></trkpt><trkpt lat="44.3173616" lon="8.383733"><ele>138.0</ele><time>2026-04-04T14:21:50.674Z</time></trkpt><trkpt lat="44.3172778" lon="8.3838421"><ele>138.0</ele><time>2026-04-04T14:21:51.675Z</time></trkpt><trkpt lat="44.3171882" lon="8.3839428"><ele>138.0</ele><time>2026-04-04T14:21:52.675Z</time></trkpt><trkpt lat="44.3170985" lon="8.3840283"><ele>138.0</ele><time>2026-04-04T14:21:53.675Z</time></trkpt><trkpt lat="44.3170097" lon="8.3840961"><ele>138.0</ele><time>2026-04-04T14:21:54.675Z</time></trkpt><trkpt lat="44.3169166" lon="8.3841474"><ele>136.4</ele><time>2026-04-04T14:21:55.675Z</time></trkpt><trkpt lat="44.3168192" lon="8.384172"><ele>134.8</ele><time>2026-04-04T14:21:56.675Z</time></trkpt><trkpt lat="44.3167365" lon="8.3841959"><ele>133.2</ele><time>2026-04-04T14:21:57.675Z</time></trkpt><trkpt lat="44.3166616" lon="8.384274"><ele>131.6</ele><time>2026-04-04T14:21:58.674Z</time></trkpt><trkpt lat="44.3165984" lon="8.3843781"><ele>130.0</ele><time>2026-04-04T14:21:59.675Z</time></trkpt><trkpt lat="44.3165554" lon="8.3845158"><ele>130.0</ele><time>2026-04-04T14:22:00.674Z</time></trkpt><trkpt lat="44.3165421" lon="8.3846688"><ele>130.0</ele><time>2026-04-04T14:22:01.675Z</time></trkpt><trkpt lat="44.3165608" lon="8.3848285"><ele>130.0</ele><time>2026-04-04T14:22:02.675Z</time></trkpt><trkpt lat="44.3166018" lon="8.3849846"><ele>130.0</ele><time>2026-04-04T14:22:03.674Z</time></trkpt><trkpt lat="44.316658" lon="8.3851343"><ele>131.2</ele><time>2026-04-04T14:22:04.675Z</time></trkpt><trkpt lat="44.3167127" lon="8.3852708"><ele>132.4</ele><time>2026-04-04T14:22:05.674Z</time></trkpt><trkpt lat="44.3167601" lon="8.3853901"><ele>133.6</ele><time>2026-04-04T14:22:06.675Z</time></trkpt><trkpt lat="44.3167965" lon="8.3854993"><ele>134.8</ele><time>2026-04-04T14:22:07.675Z</time></trkpt><trkpt lat="44.3168054" lon="8.385597"><ele>136.0</ele><time>2026-04-04T14:22:08.675Z</time></trkpt><trkpt lat="44.3167785" lon="8.3857139"><ele>136.4</ele><time>2026-04-04T14:22:09.675Z</time></trkpt><trkpt lat="44.3167496" lon="8.3858231"><ele>136.8</ele><time>2026-04-04T14:22:10.675Z</time></trkpt><trkpt lat="44.3167248" lon="8.3859203"><ele>137.20000000000002</ele><time>2026-04-04T14:22:11.675Z</time></trkpt><trkpt lat="44.3166565" lon="8.3860652"><ele>137.6</ele><time>2026-04-04T14:22:13.674Z</time></trkpt><trkpt lat="44.3166071" lon="8.3861231"><ele>138.0</ele><time>2026-04-04T14:22:14.675Z</time></trkpt><trkpt lat="44.3165001" lon="8.3861687"><ele>135.4</ele><time>2026-04-04T14:22:16.675Z</time></trkpt><trkpt lat="44.316396" lon="8.3861866"><ele>132.8</ele><time>2026-04-04T14:22:18.675Z</time></trkpt><trkpt lat="44.3163088" lon="8.3862245"><ele>130.2</ele><time>2026-04-04T14:22:20.676Z</time></trkpt><trkpt lat="44.3162152" lon="8.3862895"><ele>127.6</ele><time>2026-04-04T14:22:22.676Z</time></trkpt><trkpt lat="44.3161104" lon="8.3863523"><ele>125.0</ele><time>2026-04-04T14:22:24.676Z</time></trkpt><trkpt lat="44.3160193" lon="8.3863762"><ele>124.99999999999999</ele><time>2026-04-04T14:22:26.676Z</time></trkpt><trkpt lat="44.3159549" lon="8.3863986"><ele>125.0</ele><time>2026-04-04T14:22:28.676Z</time></trkpt><trkpt lat="44.3158793" lon="8.386444"><ele>125.0</ele><time>2026-04-04T14:22:30.676Z</time></trkpt><trkpt lat="44.3158143" lon="8.38647"><ele>125.0</ele><time>2026-04-04T14:22:32.676Z</time></trkpt><trkpt lat="44.3157397" lon="8.3864885"><ele>124.99999999999999</ele><time>2026-04-04T14:22:34.676Z</time></trkpt><trkpt lat="44.315647" lon="8.3865541"><ele>125.0</ele><time>2026-04-04T14:22:36.676Z</time></trkpt><trkpt lat="44.3156008" lon="8.3866298"><ele>125.25</ele><time>2026-04-04T14:22:37.675Z</time></trkpt><trkpt lat="44.3155551" lon="8.3867473"><ele>125.5</ele><time>2026-04-04T14:22:38.676Z</time></trkpt><trkpt lat="44.3155286" lon="8.3869043"><ele>125.75</ele><time>2026-04-04T14:22:39.676Z</time></trkpt><trkpt lat="44.3155129" lon="8.387087"><ele>126.0</ele><time>2026-04-04T14:22:40.676Z</time></trkpt><trkpt lat="44.3155031" lon="8.387259"><ele>124.8</ele><time>2026-04-04T14:22:41.676Z</time></trkpt><trkpt lat="44.3154967" lon="8.3874256"><ele>123.6</ele><time>2026-04-04T14:22:42.676Z</time></trkpt><trkpt lat="44.3154979" lon="8.3875815"><ele>122.4</ele><time>2026-04-04T14:22:43.675Z</time></trkpt><trkpt lat="44.3154938" lon="8.3877444"><ele>121.2</ele><time>2026-04-04T14:22:44.676Z</time></trkpt><trkpt lat="44.3155132" lon="8.3878807"><ele>120.0</ele><time>2026-04-04T14:22:45.676Z</time></trkpt><trkpt lat="44.3155488" lon="8.388007"><ele>119.66666666666667</ele><time>2026-04-04T14:22:46.676Z</time></trkpt><trkpt lat="44.3155894" lon="8.3881287"><ele>119.33333333333334</ele><time>2026-04-04T14:22:47.676Z</time></trkpt><trkpt lat="44.3156156" lon="8.3882526"><ele>119.0</ele><time>2026-04-04T14:22:48.676Z</time></trkpt><trkpt lat="44.3156165" lon="8.3883758"><ele>118.66666666666667</ele><time>2026-04-04T14:22:49.676Z</time></trkpt><trkpt lat="44.3156034" lon="8.3885009"><ele>118.33333333333334</ele><time>2026-04-04T14:22:50.676Z</time></trkpt><trkpt lat="44.3155916" lon="8.3886121"><ele>118.0</ele><time>2026-04-04T14:22:51.676Z</time></trkpt><trkpt lat="44.3155864" lon="8.3887071"><ele>117.50000000000001</ele><time>2026-04-04T14:22:52.676Z</time></trkpt><trkpt lat="44.315559" lon="8.3888578"><ele>117.0</ele><time>2026-04-04T14:22:54.675Z</time></trkpt><trkpt lat="44.3154735" lon="8.388903"><ele>116.5</ele><time>2026-04-04T14:22:56.675Z</time></trkpt><trkpt lat="44.3154013" lon="8.3889026"><ele>116.0</ele><time>2026-04-04T14:22:58.676Z</time></trkpt><trkpt lat="44.3153363" lon="8.3889235"><ele>115.50000000000001</ele><time>2026-04-04T14:23:00.676Z</time></trkpt><trkpt lat="44.3152808" lon="8.3890125"><ele>115.0</ele><time>2026-04-04T14:23:02.676Z</time></trkpt><trkpt lat="44.3152614" lon="8.3891161"><ele>115.00000000000001</ele><time>2026-04-04T14:23:03.676Z</time></trkpt><trkpt lat="44.3152482" lon="8.3892291"><ele>115.0</ele><time>2026-04-04T14:23:04.676Z</time></trkpt><trkpt lat="44.3152201" lon="8.3893624"><ele>115.0</ele><time>2026-04-04T14:23:05.675Z</time></trkpt><trkpt lat="44.3151872" lon="8.3894801"><ele>115.0</ele><time>2026-04-04T14:23:06.676Z</time></trkpt><trkpt lat="44.3151522" lon="8.3895949"><ele>115.00000000000001</ele><time>2026-04-04T14:23:07.676Z</time></trkpt><trkpt lat="44.3151142" lon="8.3897047"><ele>115.0</ele><time>2026-04-04T14:23:08.676Z</time></trkpt><trkpt lat="44.3150488" lon="8.3898216"><ele>115.0</ele><time>2026-04-04T14:23:09.675Z</time></trkpt><trkpt lat="44.3149588" lon="8.3899343"><ele>115.0</ele><time>2026-04-04T14:23:10.676Z</time></trkpt><trkpt lat="44.3148452" lon="8.3900601"><ele>115.0</ele><time>2026-04-04T14:23:11.676Z</time></trkpt><trkpt lat="44.3147371" lon="8.3901936"><ele>115.0</ele><time>2026-04-04T14:23:12.676Z</time></trkpt><trkpt lat="44.3146416" lon="8.390321"><ele>115.0</ele><time>2026-04-04T14:23:13.675Z</time></trkpt><trkpt lat="44.3145507" lon="8.3904296"><ele>115.0</ele><time>2026-04-04T14:23:14.676Z</time></trkpt><trkpt lat="44.3144413" lon="8.3905174"><ele>115.0</ele><time>2026-04-04T14:23:15.676Z</time></trkpt><trkpt lat="44.3143213" lon="8.3906199"><ele>115.0</ele><time>2026-04-04T14:23:16.676Z</time></trkpt><trkpt lat="44.3142092" lon="8.3907268"><ele>114.75</ele><time>2026-04-04T14:23:17.675Z</time></trkpt><trkpt lat="44.3141107" lon="8.3908507"><ele>114.5</ele><time>2026-04-04T14:23:18.675Z</time></trkpt><trkpt lat="44.3140338" lon="8.3909995"><ele>114.25</ele><time>2026-04-04T14:23:19.676Z</time></trkpt><trkpt lat="44.313965" lon="8.3911829"><ele>114.0</ele><time>2026-04-04T14:23:20.676Z</time></trkpt><trkpt lat="44.3138906" lon="8.3913712"><ele>114.0</ele><time>2026-04-04T14:23:21.678Z</time></trkpt><trkpt lat="44.3138145" lon="8.391557"><ele>114.0</ele><time>2026-04-04T14:23:22.676Z</time></trkpt><trkpt lat="44.3137444" lon="8.3917355"><ele>114.0</ele><time>2026-04-04T14:23:23.675Z</time></trkpt><trkpt lat="44.3136856" lon="8.3919089"><ele>114.0</ele><time>2026-04-04T14:23:24.676Z</time></trkpt><trkpt lat="44.3136375" lon="8.3920591"><ele>110.2</ele><time>2026-04-04T14:23:25.676Z</time></trkpt><trkpt lat="44.313594" lon="8.3921856"><ele>106.4</ele><time>2026-04-04T14:23:26.675Z</time></trkpt><trkpt lat="44.3135448" lon="8.3923079"><ele>102.6</ele><time>2026-04-04T14:23:27.677Z</time></trkpt><trkpt lat="44.31349" lon="8.3924174"><ele>98.8</ele><time>2026-04-04T14:23:28.677Z</time></trkpt><trkpt lat="44.3134251" lon="8.3925018"><ele>95.0</ele><time>2026-04-04T14:23:29.677Z</time></trkpt><trkpt lat="44.3133408" lon="8.3925634"><ele>95.0</ele><time>2026-04-04T14:23:30.677Z</time></trkpt><trkpt lat="44.3132372" lon="8.3926126"><ele>95.0</ele><time>2026-04-04T14:23:31.677Z</time></trkpt><trkpt lat="44.3131224" lon="8.3926643"><ele>95.0</ele><time>2026-04-04T14:23:32.677Z</time></trkpt><trkpt lat="44.3130002" lon="8.3927317"><ele>95.0</ele><time>2026-04-04T14:23:33.677Z</time></trkpt><trkpt lat="44.3128832" lon="8.3928036"><ele>94.0</ele><time>2026-04-04T14:23:34.677Z</time></trkpt><trkpt lat="44.3127713" lon="8.3928785"><ele>93.0</ele><time>2026-04-04T14:23:35.677Z</time></trkpt><trkpt lat="44.3126675" lon="8.3929484"><ele>92.0</ele><time>2026-04-04T14:23:36.676Z</time></trkpt><trkpt lat="44.3125716" lon="8.3930289"><ele>91.0</ele><time>2026-04-04T14:23:37.677Z</time></trkpt><trkpt lat="44.3124901" lon="8.3931264"><ele>91.0</ele><time>2026-04-04T14:23:38.677Z</time></trkpt><trkpt lat="44.312411" lon="8.393252"><ele>91.0</ele><time>2026-04-04T14:23:39.677Z</time></trkpt><trkpt lat="44.3123235" lon="8.3934006"><ele>91.0</ele><time>2026-04-04T14:23:40.677Z</time></trkpt><trkpt lat="44.3122306" lon="8.3935467"><ele>91.0</ele><time>2026-04-04T14:23:41.677Z</time></trkpt><trkpt lat="44.3121409" lon="8.393686"><ele>93.25</ele><time>2026-04-04T14:23:42.677Z</time></trkpt><trkpt lat="44.3120588" lon="8.3938257"><ele>95.5</ele><time>2026-04-04T14:23:43.677Z</time></trkpt><trkpt lat="44.3119967" lon="8.3939688"><ele>97.75</ele><time>2026-04-04T14:23:44.677Z</time></trkpt><trkpt lat="44.3119429" lon="8.3941208"><ele>100.0</ele><time>2026-04-04T14:23:45.677Z</time></trkpt><trkpt lat="44.3118933" lon="8.3942583"><ele>100.0</ele><time>2026-04-04T14:23:46.677Z</time></trkpt><trkpt lat="44.3118286" lon="8.394382"><ele>100.0</ele><time>2026-04-04T14:23:47.677Z</time></trkpt><trkpt lat="44.3117477" lon="8.3945042"><ele>100.0</ele><time>2026-04-04T14:23:48.677Z</time></trkpt><trkpt lat="44.3116511" lon="8.3946415"><ele>100.0</ele><time>2026-04-04T14:23:49.677Z</time></trkpt><trkpt lat="44.311557" lon="8.394795"><ele>94.66666666666667</ele><time>2026-04-04T14:23:50.677Z</time></trkpt><trkpt lat="44.3114587" lon="8.3949904"><ele>89.33333333333334</ele><time>2026-04-04T14:23:51.677Z</time></trkpt><trkpt lat="44.3113591" lon="8.3951917"><ele>84.0</ele><time>2026-04-04T14:23:52.676Z</time></trkpt><trkpt lat="44.3112533" lon="8.3954026"><ele>87.66666666666667</ele><time>2026-04-04T14:23:53.677Z</time></trkpt><trkpt lat="44.3111456" lon="8.3956136"><ele>91.33333333333334</ele><time>2026-04-04T14:23:54.677Z</time></trkpt><trkpt lat="44.3110397" lon="8.3958248"><ele>95.0</ele><time>2026-04-04T14:23:55.677Z</time></trkpt><trkpt lat="44.3109369" lon="8.3960257"><ele>95.0</ele><time>2026-04-04T14:23:56.677Z</time></trkpt><trkpt lat="44.3108385" lon="8.3962147"><ele>95.0</ele><time>2026-04-04T14:23:57.677Z</time></trkpt><trkpt lat="44.3107449" lon="8.3963864"><ele>95.0</ele><time>2026-04-04T14:23:58.677Z</time></trkpt><trkpt lat="44.310663" lon="8.3965316"><ele>91.5</ele><time>2026-04-04T14:23:59.676Z</time></trkpt><trkpt lat="44.3105822" lon="8.3966742"><ele>88.0</ele><time>2026-04-04T14:24:00.677Z</time></trkpt><trkpt lat="44.3104971" lon="8.3968213"><ele>84.5</ele><time>2026-04-04T14:24:01.677Z</time></trkpt><trkpt lat="44.3104068" lon="8.3969768"><ele>81.0</ele><time>2026-04-04T14:24:02.677Z</time></trkpt><trkpt lat="44.310319" lon="8.3971434"><ele>83.75</ele><time>2026-04-04T14:24:03.677Z</time></trkpt><trkpt lat="44.3102394" lon="8.3973062"><ele>86.5</ele><time>2026-04-04T14:24:04.677Z</time></trkpt><trkpt lat="44.310167" lon="8.3974613"><ele>89.25</ele><time>2026-04-04T14:24:05.677Z</time></trkpt><trkpt lat="44.3100964" lon="8.3976051"><ele>92.0</ele><time>2026-04-04T14:24:06.677Z</time></trkpt><trkpt lat="44.3100239" lon="8.3977414"><ele>92.0</ele><time>2026-04-04T14:24:07.677Z</time></trkpt><trkpt lat="44.3099519" lon="8.3978618"><ele>92.0</ele><time>2026-04-04T14:24:08.677Z</time></trkpt><trkpt lat="44.3098815" lon="8.3979655"><ele>92.0</ele><time>2026-04-04T14:24:09.677Z</time></trkpt><trkpt lat="44.3098174" lon="8.3980532"><ele>92.0</ele><time>2026-04-04T14:24:10.677Z</time></trkpt><trkpt lat="44.309747" lon="8.3981297"><ele>92.0</ele><time>2026-04-04T14:24:12.677Z</time></trkpt><trkpt lat="44.3096854" lon="8.398183"><ele>92.6</ele><time>2026-04-04T14:24:15.677Z</time></trkpt><trkpt lat="44.3095756" lon="8.3982539"><ele>93.19999999999999</ele><time>2026-04-04T14:24:17.677Z</time></trkpt><trkpt lat="44.309509" lon="8.3983677"><ele>93.8</ele><time>2026-04-04T14:24:19.677Z</time></trkpt><trkpt lat="44.3095073" lon="8.3985296"><ele>94.4</ele><time>2026-04-04T14:24:21.677Z</time></trkpt><trkpt lat="44.3095041" lon="8.3986357"><ele>95.0</ele><time>2026-04-04T14:24:22.677Z</time></trkpt><trkpt lat="44.309489" lon="8.3987436"><ele>93.5</ele><time>2026-04-04T14:24:23.677Z</time></trkpt><trkpt lat="44.3094646" lon="8.3988451"><ele>92.0</ele><time>2026-04-04T14:24:24.677Z</time></trkpt><trkpt lat="44.3094275" lon="8.398942"><ele>90.5</ele><time>2026-04-04T14:24:25.677Z</time></trkpt><trkpt lat="44.3093798" lon="8.3990419"><ele>89.0</ele><time>2026-04-04T14:24:26.677Z</time></trkpt><trkpt lat="44.3093168" lon="8.3991388"><ele>87.5</ele><time>2026-04-04T14:24:27.677Z</time></trkpt><trkpt lat="44.3092298" lon="8.3992323"><ele>86.0</ele><time>2026-04-04T14:24:28.677Z</time></trkpt><trkpt lat="44.3091499" lon="8.399327"><ele>86.0</ele><time>2026-04-04T14:24:29.676Z</time></trkpt><trkpt lat="44.3090768" lon="8.3994336"><ele>86.0</ele><time>2026-04-04T14:24:30.676Z</time></trkpt><trkpt lat="44.3090137" lon="8.3995561"><ele>86.0</ele><time>2026-04-04T14:24:31.676Z</time></trkpt><trkpt lat="44.3089498" lon="8.3996836"><ele>86.0</ele><time>2026-04-04T14:24:32.677Z</time></trkpt><trkpt lat="44.3088775" lon="8.3998058"><ele>86.0</ele><time>2026-04-04T14:24:33.677Z</time></trkpt><trkpt lat="44.3088029" lon="8.3999379"><ele>89.0</ele><time>2026-04-04T14:24:34.677Z</time></trkpt><trkpt lat="44.3087255" lon="8.400081"><ele>92.0</ele><time>2026-04-04T14:24:35.678Z</time></trkpt><trkpt lat="44.3086417" lon="8.4002158"><ele>95.0</ele><time>2026-04-04T14:24:36.677Z</time></trkpt><trkpt lat="44.3085466" lon="8.4003433"><ele>98.0</ele><time>2026-04-04T14:24:37.678Z</time></trkpt><trkpt lat="44.3084515" lon="8.4004649"><ele>92.25</ele><time>2026-04-04T14:24:38.678Z</time></trkpt><trkpt lat="44.3083662" lon="8.4005895"><ele>86.5</ele><time>2026-04-04T14:24:39.677Z</time></trkpt><trkpt lat="44.3082926" lon="8.4007079"><ele>80.75</ele><time>2026-04-04T14:24:40.678Z</time></trkpt><trkpt lat="44.30823" lon="8.4008234"><ele>75.0</ele><time>2026-04-04T14:24:41.678Z</time></trkpt><trkpt lat="44.3081652" lon="8.4009777"><ele>75.0</ele><time>2026-04-04T14:24:42.678Z</time></trkpt><trkpt lat="44.3081009" lon="8.4011597"><ele>75.0</ele><time>2026-04-04T14:24:43.678Z</time></trkpt><trkpt lat="44.3080402" lon="8.4013598"><ele>75.0</ele><time>2026-04-04T14:24:44.678Z</time></trkpt><trkpt lat="44.307989" lon="8.4015767"><ele>78.5</ele><time>2026-04-04T14:24:45.678Z</time></trkpt><trkpt lat="44.307962" lon="8.4017647"><ele>82.0</ele><time>2026-04-04T14:24:46.677Z</time></trkpt><trkpt lat="44.3079533" lon="8.401929"><ele>85.5</ele><time>2026-04-04T14:24:47.678Z</time></trkpt><trkpt lat="44.3079389" lon="8.4020809"><ele>89.0</ele><time>2026-04-04T14:24:48.678Z</time></trkpt><trkpt lat="44.3079144" lon="8.4022367"><ele>89.0</ele><time>2026-04-04T14:24:49.677Z</time></trkpt><trkpt lat="44.3078833" lon="8.4024076"><ele>89.0</ele><time>2026-04-04T14:24:50.678Z</time></trkpt><trkpt lat="44.3078444" lon="8.4025892"><ele>89.0</ele><time>2026-04-04T14:24:51.678Z</time></trkpt><trkpt lat="44.3078052" lon="8.4027676"><ele>89.0</ele><time>2026-04-04T14:24:52.678Z</time></trkpt><trkpt lat="44.3077667" lon="8.4029273"><ele>86.0</ele><time>2026-04-04T14:24:53.677Z</time></trkpt><trkpt lat="44.3077295" lon="8.4030632"><ele>83.0</ele><time>2026-04-04T14:24:54.677Z</time></trkpt><trkpt lat="44.307695" lon="8.4031816"><ele>80.0</ele><time>2026-04-04T14:24:55.678Z</time></trkpt><trkpt lat="44.3076614" lon="8.4032863"><ele>77.0</ele><time>2026-04-04T14:24:56.678Z</time></trkpt><trkpt lat="44.3076126" lon="8.40339"><ele>74.0</ele><time>2026-04-04T14:24:57.678Z</time></trkpt><trkpt lat="44.3075469" lon="8.4035036"><ele>74.0</ele><time>2026-04-04T14:24:58.678Z</time></trkpt><trkpt lat="44.3074706" lon="8.4036298"><ele>74.0</ele><time>2026-04-04T14:24:59.678Z</time></trkpt><trkpt lat="44.3073868" lon="8.4037629"><ele>74.0</ele><time>2026-04-04T14:25:00.678Z</time></trkpt><trkpt lat="44.3073036" lon="8.4038974"><ele>74.0</ele><time>2026-04-04T14:25:01.678Z</time></trkpt><trkpt lat="44.3072198" lon="8.4040503"><ele>77.33333333333334</ele><time>2026-04-04T14:25:02.678Z</time></trkpt><trkpt lat="44.3071332" lon="8.4042343"><ele>80.66666666666667</ele><time>2026-04-04T14:25:03.678Z</time></trkpt><trkpt lat="44.3070482" lon="8.404427"><ele>84.0</ele><time>2026-04-04T14:25:04.677Z</time></trkpt><trkpt lat="44.3069632" lon="8.4046109"><ele>78.5</ele><time>2026-04-04T14:25:05.678Z</time></trkpt><trkpt lat="44.3068772" lon="8.4047854"><ele>73.0</ele><time>2026-04-04T14:25:06.678Z</time></trkpt><trkpt lat="44.3067966" lon="8.4049616"><ele>67.5</ele><time>2026-04-04T14:25:07.678Z</time></trkpt><trkpt lat="44.3067154" lon="8.4051292"><ele>62.0</ele><time>2026-04-04T14:25:08.677Z</time></trkpt><trkpt lat="44.3066364" lon="8.4052961"><ele>62.0</ele><time>2026-04-04T14:25:09.678Z</time></trkpt><trkpt lat="44.3065549" lon="8.4054647"><ele>62.0</ele><time>2026-04-04T14:25:10.678Z</time></trkpt><trkpt lat="44.3064804" lon="8.4056368"><ele>62.0</ele><time>2026-04-04T14:25:11.678Z</time></trkpt><trkpt lat="44.3064041" lon="8.4058111"><ele>62.0</ele><time>2026-04-04T14:25:12.678Z</time></trkpt><trkpt lat="44.3063397" lon="8.4059776"><ele>62.75</ele><time>2026-04-04T14:25:13.678Z</time></trkpt><trkpt lat="44.3062763" lon="8.4061359"><ele>63.5</ele><time>2026-04-04T14:25:14.678Z</time></trkpt><trkpt lat="44.3062073" lon="8.4062796"><ele>64.25</ele><time>2026-04-04T14:25:15.678Z</time></trkpt><trkpt lat="44.3061261" lon="8.4063986"><ele>65.0</ele><time>2026-04-04T14:25:16.678Z</time></trkpt><trkpt lat="44.3060392" lon="8.406513"><ele>65.0</ele><time>2026-04-04T14:25:17.677Z</time></trkpt><trkpt lat="44.3059532" lon="8.4066431"><ele>65.0</ele><time>2026-04-04T14:25:18.678Z</time></trkpt><trkpt lat="44.3058778" lon="8.4067812"><ele>65.0</ele><time>2026-04-04T14:25:19.678Z</time></trkpt><trkpt lat="44.3058047" lon="8.4069205"><ele>65.0</ele><time>2026-04-04T14:25:20.677Z</time></trkpt><trkpt lat="44.3057279" lon="8.407053"><ele>64.0</ele><time>2026-04-04T14:25:21.678Z</time></trkpt><trkpt lat="44.3056594" lon="8.4071794"><ele>63.0</ele><time>2026-04-04T14:25:22.678Z</time></trkpt><trkpt lat="44.3056065" lon="8.4073263"><ele>62.0</ele><time>2026-04-04T14:25:23.678Z</time></trkpt><trkpt lat="44.3055675" lon="8.407485"><ele>61.0</ele><time>2026-04-04T14:25:24.678Z</time></trkpt><trkpt lat="44.3055218" lon="8.4076445"><ele>60.199999999999996</ele><time>2026-04-04T14:25:25.677Z</time></trkpt><trkpt lat="44.3054683" lon="8.4077667"><ele>59.39999999999999</ele><time>2026-04-04T14:25:26.678Z</time></trkpt><trkpt lat="44.3053974" lon="8.4078704"><ele>58.6</ele><time>2026-04-04T14:25:27.677Z</time></trkpt><trkpt lat="44.3053202" lon="8.4079733"><ele>57.8</ele><time>2026-04-04T14:25:28.678Z</time></trkpt><trkpt lat="44.3052499" lon="8.40808"><ele>57.0</ele><time>2026-04-04T14:25:29.678Z</time></trkpt><trkpt lat="44.3051951" lon="8.4081955"><ele>57.0</ele><time>2026-04-04T14:25:30.678Z</time></trkpt><trkpt lat="44.3051533" lon="8.408307"><ele>57.0</ele><time>2026-04-04T14:25:31.678Z</time></trkpt><trkpt lat="44.3051106" lon="8.4084069"><ele>57.0</ele><time>2026-04-04T14:25:32.677Z</time></trkpt><trkpt lat="44.3050609" lon="8.408486"><ele>57.0</ele><time>2026-04-04T14:25:33.678Z</time></trkpt><trkpt lat="44.3049934" lon="8.4085592"><ele>57.0</ele><time>2026-04-04T14:25:34.678Z</time></trkpt><trkpt lat="44.3049234" lon="8.4086135"><ele>57.0</ele><time>2026-04-04T14:25:35.678Z</time></trkpt><trkpt lat="44.304861" lon="8.4086723"><ele>57.0</ele><time>2026-04-04T14:25:36.677Z</time></trkpt><trkpt lat="44.3048007" lon="8.4087374"><ele>56.99999999999999</ele><time>2026-04-04T14:25:37.678Z</time></trkpt><trkpt lat="44.3047512" lon="8.408822"><ele>57.0</ele><time>2026-04-04T14:25:38.678Z</time></trkpt><trkpt lat="44.3047056" lon="8.4089161"><ele>57.0</ele><time>2026-04-04T14:25:39.678Z</time></trkpt><trkpt lat="44.304664" lon="8.4090074"><ele>56.99999999999999</ele><time>2026-04-04T14:25:40.678Z</time></trkpt><trkpt lat="44.3046277" lon="8.4090894"><ele>57.0</ele><time>2026-04-04T14:25:41.678Z</time></trkpt><trkpt lat="44.3045899" lon="8.4091606"><ele>57.0</ele><time>2026-04-04T14:25:42.678Z</time></trkpt><trkpt lat="44.3045526" lon="8.4092328"><ele>58.166666666666664</ele><time>2026-04-04T14:25:43.678Z</time></trkpt><trkpt lat="44.3045192" lon="8.4093106"><ele>59.33333333333333</ele><time>2026-04-04T14:25:44.679Z</time></trkpt><trkpt lat="44.3045003" lon="8.4094136"><ele>60.5</ele><time>2026-04-04T14:25:45.679Z</time></trkpt><trkpt lat="44.304483" lon="8.4095473"><ele>61.666666666666664</ele><time>2026-04-04T14:25:46.679Z</time></trkpt><trkpt lat="44.3044507" lon="8.409671"><ele>62.83333333333333</ele><time>2026-04-04T14:25:47.679Z</time></trkpt><trkpt lat="44.3043936" lon="8.4097812"><ele>64.0</ele><time>2026-04-04T14:25:48.679Z</time></trkpt><trkpt lat="44.3043212" lon="8.4098893"><ele>64.0</ele><time>2026-04-04T14:25:49.679Z</time></trkpt><trkpt lat="44.3042514" lon="8.4099948"><ele>64.0</ele><time>2026-04-04T14:25:50.679Z</time></trkpt><trkpt lat="44.3041807" lon="8.4101024"><ele>64.0</ele><time>2026-04-04T14:25:51.679Z</time></trkpt><trkpt lat="44.304109" lon="8.4102001"><ele>64.0</ele><time>2026-04-04T14:25:52.679Z</time></trkpt><trkpt lat="44.3040359" lon="8.4102905"><ele>64.0</ele><time>2026-04-04T14:25:53.678Z</time></trkpt><trkpt lat="44.3039629" lon="8.4103784"><ele>65.33333333333333</ele><time>2026-04-04T14:25:54.679Z</time></trkpt><trkpt lat="44.3038969" lon="8.4104683"><ele>66.66666666666666</ele><time>2026-04-04T14:25:55.679Z</time></trkpt><trkpt lat="44.3038413" lon="8.4105536"><ele>68.0</ele><time>2026-04-04T14:25:56.679Z</time></trkpt><trkpt lat="44.3037973" lon="8.4106278"><ele>69.33333333333333</ele><time>2026-04-04T14:25:57.679Z</time></trkpt><trkpt lat="44.30375" lon="8.4106933"><ele>70.66666666666667</ele><time>2026-04-04T14:25:58.679Z</time></trkpt><trkpt lat="44.3037086" lon="8.4107608"><ele>72.0</ele><time>2026-04-04T14:25:59.679Z</time></trkpt><trkpt lat="44.3036688" lon="8.4108771"><ele>70.6</ele><time>2026-04-04T14:26:01.678Z</time></trkpt><trkpt lat="44.3037342" lon="8.4109854"><ele>69.2</ele><time>2026-04-04T14:26:03.679Z</time></trkpt><trkpt lat="44.3038285" lon="8.4110902"><ele>67.8</ele><time>2026-04-04T14:26:05.679Z</time></trkpt><trkpt lat="44.3038465" lon="8.4112207"><ele>66.4</ele><time>2026-04-04T14:26:07.679Z</time></trkpt><trkpt lat="44.3038086" lon="8.4112938"><ele>65.0</ele><time>2026-04-04T14:26:08.679Z</time></trkpt><trkpt lat="44.3037335" lon="8.4113653"><ele>65.0</ele><time>2026-04-04T14:26:09.679Z</time></trkpt><trkpt lat="44.3036338" lon="8.4114381"><ele>65.0</ele><time>2026-04-04T14:26:10.679Z</time></trkpt><trkpt lat="44.3035257" lon="8.411513"><ele>65.0</ele><time>2026-04-04T14:26:11.679Z</time></trkpt><trkpt lat="44.3034213" lon="8.4115955"><ele>65.0</ele><time>2026-04-04T14:26:12.679Z</time></trkpt><trkpt lat="44.3033169" lon="8.4116734"><ele>65.0</ele><time>2026-04-04T14:26:13.678Z</time></trkpt><trkpt lat="44.3032179" lon="8.4117242"><ele>65.0</ele><time>2026-04-04T14:26:14.679Z</time></trkpt><trkpt lat="44.3031163" lon="8.4117401"><ele>65.0</ele><time>2026-04-04T14:26:15.678Z</time></trkpt><trkpt lat="44.3030235" lon="8.4117129"><ele>65.0</ele><time>2026-04-04T14:26:16.679Z</time></trkpt><trkpt lat="44.3029262" lon="8.4116633"><ele>65.0</ele><time>2026-04-04T14:26:17.679Z</time></trkpt><trkpt lat="44.3028194" lon="8.4115777"><ele>67.8</ele><time>2026-04-04T14:26:18.678Z</time></trkpt><trkpt lat="44.3027253" lon="8.4114689"><ele>70.6</ele><time>2026-04-04T14:26:19.679Z</time></trkpt><trkpt lat="44.3026348" lon="8.4113601"><ele>73.4</ele><time>2026-04-04T14:26:20.679Z</time></trkpt><trkpt lat="44.3025646" lon="8.4112544"><ele>76.2</ele><time>2026-04-04T14:26:21.679Z</time></trkpt><trkpt lat="44.3025053" lon="8.4111428"><ele>79.0</ele><time>2026-04-04T14:26:22.678Z</time></trkpt><trkpt lat="44.3024539" lon="8.4110474"><ele>77.5</ele><time>2026-04-04T14:26:23.679Z</time></trkpt><trkpt lat="44.30242" lon="8.4109695"><ele>76.0</ele><time>2026-04-04T14:26:24.678Z</time></trkpt><trkpt lat="44.3023798" lon="8.410896"><ele>74.5</ele><time>2026-04-04T14:26:25.679Z</time></trkpt><trkpt lat="44.3023379" lon="8.4108194"><ele>73.0</ele><time>2026-04-04T14:26:26.679Z</time></trkpt><trkpt lat="44.3022783" lon="8.4107358"><ele>71.5</ele><time>2026-04-04T14:26:27.679Z</time></trkpt><trkpt lat="44.3022177" lon="8.4106444"><ele>70.0</ele><time>2026-04-04T14:26:28.678Z</time></trkpt><trkpt lat="44.3021436" lon="8.4105266"><ele>65.66666666666666</ele><time>2026-04-04T14:26:29.679Z</time></trkpt><trkpt lat="44.3020715" lon="8.4104146"><ele>61.33333333333333</ele><time>2026-04-04T14:26:30.679Z</time></trkpt><trkpt lat="44.3020077" lon="8.4103355"><ele>57.0</ele><time>2026-04-04T14:26:31.679Z</time></trkpt><trkpt lat="44.3019432" lon="8.4102743"><ele>52.666666666666664</ele><time>2026-04-04T14:26:32.679Z</time></trkpt><trkpt lat="44.3018642" lon="8.4102409"><ele>48.33333333333333</ele><time>2026-04-04T14:26:33.679Z</time></trkpt><trkpt lat="44.3017817" lon="8.4102068"><ele>44.0</ele><time>2026-04-04T14:26:34.679Z</time></trkpt><trkpt lat="44.3016969" lon="8.4101857"><ele>44.0</ele><time>2026-04-04T14:26:35.679Z</time></trkpt><trkpt lat="44.3016164" lon="8.4101623"><ele>44.0</ele><time>2026-04-04T14:26:36.679Z</time></trkpt><trkpt lat="44.3015393" lon="8.4101382"><ele>44.0</ele><time>2026-04-04T14:26:37.679Z</time></trkpt><trkpt lat="44.3014613" lon="8.4101205"><ele>44.0</ele><time>2026-04-04T14:26:38.679Z</time></trkpt><trkpt lat="44.3013768" lon="8.4100932"><ele>44.0</ele><time>2026-04-04T14:26:39.679Z</time></trkpt><trkpt lat="44.301286" lon="8.4100628"><ele>44.0</ele><time>2026-04-04T14:26:40.679Z</time></trkpt><trkpt lat="44.3011862" lon="8.4100327"><ele>43.0</ele><time>2026-04-04T14:26:41.679Z</time></trkpt><trkpt lat="44.3010826" lon="8.4100116"><ele>42.0</ele><time>2026-04-04T14:26:42.678Z</time></trkpt><trkpt lat="44.3009806" lon="8.4099989"><ele>41.0</ele><time>2026-04-04T14:26:43.679Z</time></trkpt><trkpt lat="44.3008806" lon="8.4099967"><ele>40.0</ele><time>2026-04-04T14:26:44.679Z</time></trkpt><trkpt lat="44.300779" lon="8.4100056"><ele>39.0</ele><time>2026-04-04T14:26:45.679Z</time></trkpt><trkpt lat="44.3006735" lon="8.4100272"><ele>38.0</ele><time>2026-04-04T14:26:46.679Z</time></trkpt><trkpt lat="44.3005748" lon="8.4100645"><ele>37.0</ele><time>2026-04-04T14:26:47.679Z</time></trkpt><trkpt lat="44.3004837" lon="8.4100935"><ele>36.0</ele><time>2026-04-04T14:26:48.679Z</time></trkpt><trkpt lat="44.3003935" lon="8.410107"><ele>35.0</ele><time>2026-04-04T14:26:49.678Z</time></trkpt><trkpt lat="44.3003026" lon="8.4101115"><ele>34.0</ele><time>2026-04-04T14:26:50.679Z</time></trkpt><trkpt lat="44.3002068" lon="8.4101167"><ele>34.0</ele><time>2026-04-04T14:26:51.68Z</time></trkpt><trkpt lat="44.3001179" lon="8.410121"><ele>34.0</ele><time>2026-04-04T14:26:52.68Z</time></trkpt><trkpt lat="44.3000472" lon="8.4101198"><ele>34.0</ele><time>2026-04-04T14:26:53.68Z</time></trkpt><trkpt lat="44.2999744" lon="8.4101351"><ele>34.0</ele><time>2026-04-04T14:26:54.68Z</time></trkpt><trkpt lat="44.2999105" lon="8.410199"><ele>34.0</ele><time>2026-04-04T14:26:55.68Z</time></trkpt><trkpt lat="44.2998517" lon="8.4103181"><ele>34.0</ele><time>2026-04-04T14:26:56.68Z</time></trkpt><trkpt lat="44.2997954" lon="8.4104722"><ele>34.25</ele><time>2026-04-04T14:26:57.68Z</time></trkpt><trkpt lat="44.2997437" lon="8.4106268"><ele>34.5</ele><time>2026-04-04T14:26:58.679Z</time></trkpt><trkpt lat="44.299698" lon="8.4107851"><ele>34.75</ele><time>2026-04-04T14:26:59.68Z</time></trkpt><trkpt lat="44.2996548" lon="8.4109226"><ele>35.0</ele><time>2026-04-04T14:27:00.68Z</time></trkpt><trkpt lat="44.2996132" lon="8.4110472"><ele>35.0</ele><time>2026-04-04T14:27:01.68Z</time></trkpt><trkpt lat="44.2995719" lon="8.4111695"><ele>35.0</ele><time>2026-04-04T14:27:02.68Z</time></trkpt><trkpt lat="44.2995261" lon="8.4112943"><ele>35.0</ele><time>2026-04-04T14:27:03.679Z</time></trkpt><trkpt lat="44.2994716" lon="8.411427"><ele>35.0</ele><time>2026-04-04T14:27:04.68Z</time></trkpt><trkpt lat="44.2994138" lon="8.4115585"><ele>35.0</ele><time>2026-04-04T14:27:05.68Z</time></trkpt><trkpt lat="44.2993343" lon="8.4116684"><ele>35.75</ele><time>2026-04-04T14:27:06.68Z</time></trkpt><trkpt lat="44.2992341" lon="8.4117342"><ele>36.5</ele><time>2026-04-04T14:27:07.679Z</time></trkpt><trkpt lat="44.2991304" lon="8.4117584"><ele>37.25</ele><time>2026-04-04T14:27:08.68Z</time></trkpt><trkpt lat="44.2990087" lon="8.4117486"><ele>38.0</ele><time>2026-04-04T14:27:09.68Z</time></trkpt><trkpt lat="44.2988798" lon="8.4117142"><ele>36.25</ele><time>2026-04-04T14:27:10.68Z</time></trkpt><trkpt lat="44.2987492" lon="8.4116716"><ele>34.5</ele><time>2026-04-04T14:27:11.68Z</time></trkpt><trkpt lat="44.2986197" lon="8.4116152"><ele>32.75</ele><time>2026-04-04T14:27:12.68Z</time></trkpt><trkpt lat="44.2984932" lon="8.411575"><ele>31.0</ele><time>2026-04-04T14:27:13.68Z</time></trkpt><trkpt lat="44.2983661" lon="8.4115788"><ele>31.0</ele><time>2026-04-04T14:27:14.68Z</time></trkpt><trkpt lat="44.2982537" lon="8.4116057"><ele>31.0</ele><time>2026-04-04T14:27:15.68Z</time></trkpt><trkpt lat="44.2981533" lon="8.4116645"><ele>31.0</ele><time>2026-04-04T14:27:16.68Z</time></trkpt><trkpt lat="44.298065" lon="8.4117602"><ele>31.0</ele><time>2026-04-04T14:27:17.68Z</time></trkpt><trkpt lat="44.2979929" lon="8.4118845"><ele>31.0</ele><time>2026-04-04T14:27:18.68Z</time></trkpt><trkpt lat="44.2979405" lon="8.4120413"><ele>32.0</ele><time>2026-04-04T14:27:19.68Z</time></trkpt><trkpt lat="44.2979095" lon="8.4122306"><ele>33.0</ele><time>2026-04-04T14:27:20.68Z</time></trkpt><trkpt lat="44.2978799" lon="8.4124164"><ele>34.0</ele><time>2026-04-04T14:27:21.68Z</time></trkpt><trkpt lat="44.2978535" lon="8.4126059"><ele>35.0</ele><time>2026-04-04T14:27:22.68Z</time></trkpt><trkpt lat="44.2978239" lon="8.4128009"><ele>33.5</ele><time>2026-04-04T14:27:23.68Z</time></trkpt><trkpt lat="44.2977995" lon="8.4129926"><ele>32.0</ele><time>2026-04-04T14:27:24.68Z</time></trkpt><trkpt lat="44.2977795" lon="8.4131725"><ele>30.5</ele><time>2026-04-04T14:27:25.679Z</time></trkpt><trkpt lat="44.2977562" lon="8.4133405"><ele>29.0</ele><time>2026-04-04T14:27:26.68Z</time></trkpt><trkpt lat="44.2977327" lon="8.4135003"><ele>29.0</ele><time>2026-04-04T14:27:27.68Z</time></trkpt><trkpt lat="44.2977137" lon="8.4136581"><ele>29.0</ele><time>2026-04-04T14:27:28.68Z</time></trkpt><trkpt lat="44.2976942" lon="8.4138228"><ele>29.0</ele><time>2026-04-04T14:27:29.68Z</time></trkpt><trkpt lat="44.2976711" lon="8.4139874"><ele>29.0</ele><time>2026-04-04T14:27:30.68Z</time></trkpt><trkpt lat="44.2976319" lon="8.4141501"><ele>29.25</ele><time>2026-04-04T14:27:31.68Z</time></trkpt><trkpt lat="44.2975677" lon="8.414295"><ele>29.5</ele><time>2026-04-04T14:27:32.68Z</time></trkpt><trkpt lat="44.2974948" lon="8.4144243"><ele>29.75</ele><time>2026-04-04T14:27:33.68Z</time></trkpt><trkpt lat="44.2974162" lon="8.4145518"><ele>30.0</ele><time>2026-04-04T14:27:34.68Z</time></trkpt><trkpt lat="44.2973357" lon="8.414672"><ele>28.75</ele><time>2026-04-04T14:27:35.68Z</time></trkpt><trkpt lat="44.2972461" lon="8.4147779"><ele>27.5</ele><time>2026-04-04T14:27:36.679Z</time></trkpt><trkpt lat="44.2971444" lon="8.414861"><ele>26.25</ele><time>2026-04-04T14:27:37.68Z</time></trkpt><trkpt lat="44.2970309" lon="8.4149198"><ele>25.0</ele><time>2026-04-04T14:27:38.679Z</time></trkpt><trkpt lat="44.296919" lon="8.4149694"><ele>25.0</ele><time>2026-04-04T14:27:39.679Z</time></trkpt><trkpt lat="44.2968214" lon="8.415019"><ele>25.0</ele><time>2026-04-04T14:27:40.68Z</time></trkpt><trkpt lat="44.2967276" lon="8.4150686"><ele>25.0</ele><time>2026-04-04T14:27:41.68Z</time></trkpt><trkpt lat="44.2966333" lon="8.4151183"><ele>25.0</ele><time>2026-04-04T14:27:42.679Z</time></trkpt><trkpt lat="44.2965343" lon="8.4151684"><ele>25.0</ele><time>2026-04-04T14:27:43.68Z</time></trkpt><trkpt lat="44.2964317" lon="8.4152213"><ele>24.5</ele><time>2026-04-04T14:27:44.68Z</time></trkpt><trkpt lat="44.2963238" lon="8.4152825"><ele>24.0</ele><time>2026-04-04T14:27:45.68Z</time></trkpt><trkpt lat="44.2962107" lon="8.4153517"><ele>23.5</ele><time>2026-04-04T14:27:46.68Z</time></trkpt><trkpt lat="44.2960975" lon="8.4154191"><ele>23.0</ele><time>2026-04-04T14:27:47.68Z</time></trkpt><trkpt lat="44.2959855" lon="8.4154818"><ele>23.0</ele><time>2026-04-04T14:27:48.68Z</time></trkpt><trkpt lat="44.2958699" lon="8.4155273"><ele>23.0</ele><time>2026-04-04T14:27:49.68Z</time></trkpt><trkpt lat="44.2957504" lon="8.4155307"><ele>23.0</ele><time>2026-04-04T14:27:50.68Z</time></trkpt><trkpt lat="44.2956292" lon="8.4154969"><ele>23.0</ele><time>2026-04-04T14:27:51.68Z</time></trkpt><trkpt lat="44.2954956" lon="8.4154303"><ele>23.0</ele><time>2026-04-04T14:27:52.68Z</time></trkpt><trkpt lat="44.2953645" lon="8.4153306"><ele>23.0</ele><time>2026-04-04T14:27:53.68Z</time></trkpt><trkpt lat="44.2952205" lon="8.4152541"><ele>23.0</ele><time>2026-04-04T14:27:54.679Z</time></trkpt><trkpt lat="44.2950763" lon="8.4152219"><ele>23.0</ele><time>2026-04-04T14:27:55.68Z</time></trkpt><trkpt lat="44.2949421" lon="8.4152048"><ele>23.0</ele><time>2026-04-04T14:27:56.68Z</time></trkpt><trkpt lat="44.2948203" lon="8.4151946"><ele>23.0</ele><time>2026-04-04T14:27:57.68Z</time></trkpt><trkpt lat="44.2947053" lon="8.4151922"><ele>23.0</ele><time>2026-04-04T14:27:58.68Z</time></trkpt><trkpt lat="44.2945881" lon="8.4152024"><ele>23.0</ele><time>2026-04-04T14:27:59.681Z</time></trkpt><trkpt lat="44.2944642" lon="8.4152225"><ele>23.2</ele><time>2026-04-04T14:28:00.681Z</time></trkpt><trkpt lat="44.2943445" lon="8.4152482"><ele>23.4</ele><time>2026-04-04T14:28:01.681Z</time></trkpt><trkpt lat="44.2942375" lon="8.4152777"><ele>23.599999999999998</ele><time>2026-04-04T14:28:02.681Z</time></trkpt><trkpt lat="44.2941442" lon="8.4153318"><ele>23.799999999999997</ele><time>2026-04-04T14:28:03.681Z</time></trkpt><trkpt lat="44.2940671" lon="8.4154233"><ele>24.0</ele><time>2026-04-04T14:28:04.681Z</time></trkpt><trkpt lat="44.2940023" lon="8.41556"><ele>23.75</ele><time>2026-04-04T14:28:05.68Z</time></trkpt><trkpt lat="44.2939411" lon="8.4157288"><ele>23.5</ele><time>2026-04-04T14:28:06.681Z</time></trkpt><trkpt lat="44.2938884" lon="8.4158895"><ele>23.25</ele><time>2026-04-04T14:28:07.681Z</time></trkpt><trkpt lat="44.2938324" lon="8.4160492"><ele>23.0</ele><time>2026-04-04T14:28:08.681Z</time></trkpt><trkpt lat="44.2937742" lon="8.416211"><ele>22.75</ele><time>2026-04-04T14:28:09.681Z</time></trkpt><trkpt lat="44.2937076" lon="8.416379"><ele>22.5</ele><time>2026-04-04T14:28:10.681Z</time></trkpt><trkpt lat="44.2936365" lon="8.4165404"><ele>22.25</ele><time>2026-04-04T14:28:11.681Z</time></trkpt><trkpt lat="44.2935682" lon="8.4166985"><ele>22.0</ele><time>2026-04-04T14:28:12.681Z</time></trkpt><trkpt lat="44.2934867" lon="8.4168307"><ele>22.0</ele><time>2026-04-04T14:28:13.681Z</time></trkpt><trkpt lat="44.2934071" lon="8.4169598"><ele>22.0</ele><time>2026-04-04T14:28:14.681Z</time></trkpt><trkpt lat="44.2933271" lon="8.4170872"><ele>22.0</ele><time>2026-04-04T14:28:15.681Z</time></trkpt><trkpt lat="44.2932459" lon="8.417211"><ele>22.0</ele><time>2026-04-04T14:28:16.681Z</time></trkpt><trkpt lat="44.2931599" lon="8.4173338"><ele>21.5</ele><time>2026-04-04T14:28:17.681Z</time></trkpt><trkpt lat="44.2930666" lon="8.4174478"><ele>21.0</ele><time>2026-04-04T14:28:18.681Z</time></trkpt><trkpt lat="44.2929638" lon="8.4175341"><ele>20.5</ele><time>2026-04-04T14:28:19.681Z</time></trkpt><trkpt lat="44.2928547" lon="8.4175914"><ele>20.0</ele><time>2026-04-04T14:28:20.681Z</time></trkpt><trkpt lat="44.2927382" lon="8.4176292"><ele>20.0</ele><time>2026-04-04T14:28:21.681Z</time></trkpt><trkpt lat="44.2926168" lon="8.4176578"><ele>20.0</ele><time>2026-04-04T14:28:22.681Z</time></trkpt><trkpt lat="44.2924972" lon="8.4176761"><ele>20.0</ele><time>2026-04-04T14:28:23.681Z</time></trkpt><trkpt lat="44.2923798" lon="8.4176846"><ele>20.0</ele><time>2026-04-04T14:28:24.68Z</time></trkpt><trkpt lat="44.2922645" lon="8.4176855"><ele>19.8</ele><time>2026-04-04T14:28:25.68Z</time></trkpt><trkpt lat="44.2921559" lon="8.4176824"><ele>19.6</ele><time>2026-04-04T14:28:26.681Z</time></trkpt><trkpt lat="44.2920501" lon="8.4176611"><ele>19.4</ele><time>2026-04-04T14:28:27.68Z</time></trkpt><trkpt lat="44.2919514" lon="8.4176329"><ele>19.2</ele><time>2026-04-04T14:28:28.681Z</time></trkpt><trkpt lat="44.2918644" lon="8.417613"><ele>19.0</ele><time>2026-04-04T14:28:29.68Z</time></trkpt><trkpt lat="44.2917662" lon="8.4175865"><ele>19.0</ele><time>2026-04-04T14:28:31.681Z</time></trkpt><trkpt lat="44.2916807" lon="8.4175729"><ele>19.0</ele><time>2026-04-04T14:29:11.682Z</time></trkpt><trkpt lat="44.2916039" lon="8.417549"><ele>19.0</ele><time>2026-04-04T14:29:13.682Z</time></trkpt><trkpt lat="44.2914969" lon="8.4176014"><ele>19.0</ele><time>2026-04-04T14:29:15.682Z</time></trkpt><trkpt lat="44.291443" lon="8.4176936"><ele>19.0</ele><time>2026-04-04T14:29:16.682Z</time></trkpt><trkpt lat="44.2914076" lon="8.4178238"><ele>18.0</ele><time>2026-04-04T14:29:17.682Z</time></trkpt><trkpt lat="44.2913632" lon="8.4179966"><ele>17.0</ele><time>2026-04-04T14:29:18.682Z</time></trkpt><trkpt lat="44.2913234" lon="8.4182161"><ele>16.0</ele><time>2026-04-04T14:29:19.682Z</time></trkpt><trkpt lat="44.2912734" lon="8.4184271"><ele>16.0</ele><time>2026-04-04T14:29:20.682Z</time></trkpt><trkpt lat="44.2912129" lon="8.4186447"><ele>16.0</ele><time>2026-04-04T14:29:21.682Z</time></trkpt><trkpt lat="44.2911399" lon="8.4188624"><ele>16.0</ele><time>2026-04-04T14:29:22.682Z</time></trkpt><trkpt lat="44.2910421" lon="8.419077"><ele>16.0</ele><time>2026-04-04T14:29:23.682Z</time></trkpt><trkpt lat="44.2909334" lon="8.4192866"><ele>16.0</ele><time>2026-04-04T14:29:24.682Z</time></trkpt><trkpt lat="44.2908201" lon="8.4194957"><ele>16.0</ele><time>2026-04-04T14:29:25.682Z</time></trkpt><trkpt lat="44.2906995" lon="8.419707"><ele>15.333333333333332</ele><time>2026-04-04T14:29:26.682Z</time></trkpt><trkpt lat="44.2905798" lon="8.4199124"><ele>14.666666666666668</ele><time>2026-04-04T14:29:27.682Z</time></trkpt><trkpt lat="44.2904622" lon="8.4201311"><ele>14.0</ele><time>2026-04-04T14:29:28.682Z</time></trkpt><trkpt lat="44.2903493" lon="8.4203613"><ele>14.333333333333334</ele><time>2026-04-04T14:29:29.682Z</time></trkpt><trkpt lat="44.2902434" lon="8.4206074"><ele>14.666666666666668</ele><time>2026-04-04T14:29:30.681Z</time></trkpt><trkpt lat="44.2901463" lon="8.4208716"><ele>15.0</ele><time>2026-04-04T14:29:31.682Z</time></trkpt><trkpt lat="44.2900592" lon="8.4211499"><ele>16.333333333333332</ele><time>2026-04-04T14:29:32.682Z</time></trkpt><trkpt lat="44.2899769" lon="8.4214369"><ele>17.666666666666664</ele><time>2026-04-04T14:29:33.682Z</time></trkpt><trkpt lat="44.2899008" lon="8.4217352"><ele>19.0</ele><time>2026-04-04T14:29:34.682Z</time></trkpt><trkpt lat="44.2898343" lon="8.4219918"><ele>18.666666666666664</ele><time>2026-04-04T14:29:35.682Z</time></trkpt><trkpt lat="44.2897596" lon="8.4222285"><ele>18.333333333333332</ele><time>2026-04-04T14:29:36.681Z</time></trkpt><trkpt lat="44.2896916" lon="8.4224577"><ele>18.0</ele><time>2026-04-04T14:29:37.682Z</time></trkpt><trkpt lat="44.2896192" lon="8.4227011"><ele>17.333333333333332</ele><time>2026-04-04T14:29:38.682Z</time></trkpt><trkpt lat="44.2895447" lon="8.4229476"><ele>16.666666666666664</ele><time>2026-04-04T14:29:39.682Z</time></trkpt><trkpt lat="44.289466" lon="8.423188"><ele>16.0</ele><time>2026-04-04T14:29:40.682Z</time></trkpt><trkpt lat="44.2893928" lon="8.4234117"><ele>16.0</ele><time>2026-04-04T14:29:41.682Z</time></trkpt><trkpt lat="44.2893205" lon="8.4236286"><ele>16.0</ele><time>2026-04-04T14:29:42.682Z</time></trkpt><trkpt lat="44.2892569" lon="8.4238418"><ele>16.0</ele><time>2026-04-04T14:29:43.682Z</time></trkpt><trkpt lat="44.2891887" lon="8.4240474"><ele>16.0</ele><time>2026-04-04T14:29:44.682Z</time></trkpt><trkpt lat="44.2891101" lon="8.4242408"><ele>16.0</ele><time>2026-04-04T14:29:45.682Z</time></trkpt><trkpt lat="44.2890339" lon="8.4244223"><ele>16.0</ele><time>2026-04-04T14:29:46.681Z</time></trkpt><trkpt lat="44.2889616" lon="8.4245937"><ele>14.75</ele><time>2026-04-04T14:29:47.682Z</time></trkpt><trkpt lat="44.2888959" lon="8.4247546"><ele>13.5</ele><time>2026-04-04T14:29:48.682Z</time></trkpt><trkpt lat="44.2888433" lon="8.4249064"><ele>12.25</ele><time>2026-04-04T14:29:49.682Z</time></trkpt><trkpt lat="44.2887872" lon="8.4250532"><ele>11.0</ele><time>2026-04-04T14:29:50.682Z</time></trkpt><trkpt lat="44.2887109" lon="8.4251934"><ele>11.0</ele><time>2026-04-04T14:29:51.682Z</time></trkpt><trkpt lat="44.2886505" lon="8.4253508"><ele>11.0</ele><time>2026-04-04T14:29:52.682Z</time></trkpt><trkpt lat="44.2885953" lon="8.4255191"><ele>11.0</ele><time>2026-04-04T14:29:53.682Z</time></trkpt><trkpt lat="44.2885447" lon="8.425696"><ele>11.0</ele><time>2026-04-04T14:29:54.681Z</time></trkpt><trkpt lat="44.2885032" lon="8.4258801"><ele>11.25</ele><time>2026-04-04T14:29:55.682Z</time></trkpt><trkpt lat="44.288464" lon="8.4260543"><ele>11.5</ele><time>2026-04-04T14:29:56.682Z</time></trkpt><trkpt lat="44.2884263" lon="8.4262226"><ele>11.75</ele><time>2026-04-04T14:29:57.682Z</time></trkpt><trkpt lat="44.2883871" lon="8.4263903"><ele>12.0</ele><time>2026-04-04T14:29:58.682Z</time></trkpt><trkpt lat="44.288343" lon="8.4265655"><ele>12.0</ele><time>2026-04-04T14:29:59.682Z</time></trkpt><trkpt lat="44.288304" lon="8.4267556"><ele>12.0</ele><time>2026-04-04T14:30:00.682Z</time></trkpt><trkpt lat="44.2882571" lon="8.4269484"><ele>12.0</ele><time>2026-04-04T14:30:01.682Z</time></trkpt><trkpt lat="44.2881984" lon="8.4271364"><ele>12.0</ele><time>2026-04-04T14:30:02.682Z</time></trkpt><trkpt lat="44.2881462" lon="8.4273318"><ele>10.333333333333334</ele><time>2026-04-04T14:30:03.682Z</time></trkpt><trkpt lat="44.2880917" lon="8.427536"><ele>8.666666666666668</ele><time>2026-04-04T14:30:04.682Z</time></trkpt><trkpt lat="44.2880403" lon="8.42774"><ele>7.0</ele><time>2026-04-04T14:30:05.682Z</time></trkpt><trkpt lat="44.2879904" lon="8.4279422"><ele>7.5</ele><time>2026-04-04T14:30:06.682Z</time></trkpt><trkpt lat="44.2879404" lon="8.4281387"><ele>8.0</ele><time>2026-04-04T14:30:07.682Z</time></trkpt><trkpt lat="44.2878903" lon="8.4283292"><ele>8.5</ele><time>2026-04-04T14:30:08.682Z</time></trkpt><trkpt lat="44.2878422" lon="8.4285288"><ele>9.0</ele><time>2026-04-04T14:30:09.681Z</time></trkpt><trkpt lat="44.2877902" lon="8.4287408"><ele>9.333333333333334</ele><time>2026-04-04T14:30:10.682Z</time></trkpt><trkpt lat="44.287736" lon="8.4289661"><ele>9.666666666666668</ele><time>2026-04-04T14:30:11.682Z</time></trkpt><trkpt lat="44.2876835" lon="8.4292057"><ele>10.0</ele><time>2026-04-04T14:30:12.682Z</time></trkpt><trkpt lat="44.287621" lon="8.4294483"><ele>10.0</ele><time>2026-04-04T14:30:13.682Z</time></trkpt><trkpt lat="44.2875491" lon="8.4297004"><ele>10.0</ele><time>2026-04-04T14:30:14.682Z</time></trkpt><trkpt lat="44.2874737" lon="8.4299581"><ele>10.0</ele><time>2026-04-04T14:30:15.682Z</time></trkpt><trkpt lat="44.2874019" lon="8.4302211"><ele>10.0</ele><time>2026-04-04T14:30:16.682Z</time></trkpt><trkpt lat="44.2873402" lon="8.4304654"><ele>10.0</ele><time>2026-04-04T14:30:17.683Z</time></trkpt><trkpt lat="44.2872836" lon="8.4306987"><ele>10.0</ele><time>2026-04-04T14:30:18.683Z</time></trkpt><trkpt lat="44.2872259" lon="8.4309201"><ele>9.666666666666668</ele><time>2026-04-04T14:30:19.683Z</time></trkpt><trkpt lat="44.2871579" lon="8.4311381"><ele>9.333333333333334</ele><time>2026-04-04T14:30:20.683Z</time></trkpt><trkpt lat="44.2870737" lon="8.4313558"><ele>9.0</ele><time>2026-04-04T14:30:21.683Z</time></trkpt><trkpt lat="44.2869685" lon="8.4315639"><ele>9.0</ele><time>2026-04-04T14:30:22.683Z</time></trkpt><trkpt lat="44.2868524" lon="8.4317691"><ele>9.0</ele><time>2026-04-04T14:30:23.683Z</time></trkpt><trkpt lat="44.2867399" lon="8.4319682"><ele>9.0</ele><time>2026-04-04T14:30:24.683Z</time></trkpt><trkpt lat="44.2866351" lon="8.4321589"><ele>9.0</ele><time>2026-04-04T14:30:25.682Z</time></trkpt><trkpt lat="44.2865425" lon="8.4323345"><ele>9.0</ele><time>2026-04-04T14:30:26.683Z</time></trkpt><trkpt lat="44.2864571" lon="8.4324906"><ele>9.0</ele><time>2026-04-04T14:30:27.683Z</time></trkpt><trkpt lat="44.2863759" lon="8.4326323"><ele>9.0</ele><time>2026-04-04T14:30:28.683Z</time></trkpt><trkpt lat="44.2863058" lon="8.4327614"><ele>8.833333333333334</ele><time>2026-04-04T14:30:29.682Z</time></trkpt><trkpt lat="44.2862424" lon="8.4328735"><ele>8.666666666666666</ele><time>2026-04-04T14:30:30.682Z</time></trkpt><trkpt lat="44.2861835" lon="8.4329636"><ele>8.5</ele><time>2026-04-04T14:30:31.683Z</time></trkpt><trkpt lat="44.2861173" lon="8.4330205"><ele>8.333333333333332</ele><time>2026-04-04T14:30:32.683Z</time></trkpt><trkpt lat="44.2860501" lon="8.4330278"><ele>8.166666666666666</ele><time>2026-04-04T14:30:33.683Z</time></trkpt><trkpt lat="44.2859782" lon="8.432978"><ele>8.0</ele><time>2026-04-04T14:30:34.683Z</time></trkpt><trkpt lat="44.2859175" lon="8.4328866"><ele>7.999999999999999</ele><time>2026-04-04T14:30:35.683Z</time></trkpt><trkpt lat="44.2858543" lon="8.4327901"><ele>8.0</ele><time>2026-04-04T14:30:36.683Z</time></trkpt><trkpt lat="44.2858034" lon="8.4326872"><ele>8.0</ele><time>2026-04-04T14:30:37.682Z</time></trkpt><trkpt lat="44.2857535" lon="8.4326008"><ele>8.0</ele><time>2026-04-04T14:30:38.682Z</time></trkpt><trkpt lat="44.2857152" lon="8.4325188"><ele>7.999999999999999</ele><time>2026-04-04T14:30:39.683Z</time></trkpt><trkpt lat="44.2856196" lon="8.4324537"><ele>8.0</ele><time>2026-04-04T14:30:41.683Z</time></trkpt><trkpt lat="44.2855523" lon="8.4324942"><ele>8.0</ele><time>2026-04-04T14:30:42.683Z</time></trkpt><trkpt lat="44.2854821" lon="8.4325895"><ele>8.0</ele><time>2026-04-04T14:30:43.683Z</time></trkpt><trkpt lat="44.285394" lon="8.4327285"><ele>8.0</ele><time>2026-04-04T14:30:44.683Z</time></trkpt><trkpt lat="44.2852994" lon="8.4328666"><ele>8.0</ele><time>2026-04-04T14:30:45.683Z</time></trkpt><trkpt lat="44.2852034" lon="8.4329904"><ele>8.0</ele><time>2026-04-04T14:30:46.683Z</time></trkpt><trkpt lat="44.2850871" lon="8.4331368"><ele>8.0</ele><time>2026-04-04T14:30:47.683Z</time></trkpt><trkpt lat="44.2849665" lon="8.4332796"><ele>8.0</ele><time>2026-04-04T14:30:48.683Z</time></trkpt><trkpt lat="44.2848525" lon="8.4334306"><ele>8.0</ele><time>2026-04-04T14:30:49.682Z</time></trkpt><trkpt lat="44.2847373" lon="8.4335889"><ele>8.0</ele><time>2026-04-04T14:30:50.683Z</time></trkpt><trkpt lat="44.2846194" lon="8.4337536"><ele>8.0</ele><time>2026-04-04T14:30:51.682Z</time></trkpt><trkpt lat="44.2844965" lon="8.4339282"><ele>7.5</ele><time>2026-04-04T14:30:52.683Z</time></trkpt><trkpt lat="44.2843727" lon="8.43408"><ele>7.0</ele><time>2026-04-04T14:30:53.683Z</time></trkpt><trkpt lat="44.2842685" lon="8.4342195"><ele>6.5</ele><time>2026-04-04T14:30:54.683Z</time></trkpt><trkpt lat="44.284171" lon="8.4343578"><ele>6.0</ele><time>2026-04-04T14:30:55.683Z</time></trkpt><trkpt lat="44.2840913" lon="8.434489"><ele>6.0</ele><time>2026-04-04T14:30:56.683Z</time></trkpt><trkpt lat="44.2840103" lon="8.4346154"><ele>6.0</ele><time>2026-04-04T14:30:57.683Z</time></trkpt><trkpt lat="44.2839392" lon="8.4347292"><ele>6.0</ele><time>2026-04-04T14:30:58.683Z</time></trkpt><trkpt lat="44.2838775" lon="8.4348336"><ele>6.0</ele><time>2026-04-04T14:30:59.682Z</time></trkpt><trkpt lat="44.2838253" lon="8.434922"><ele>6.0</ele><time>2026-04-04T14:31:00.683Z</time></trkpt><trkpt lat="44.2837596" lon="8.4350189"><ele>6.0</ele><time>2026-04-04T14:31:02.683Z</time></trkpt><trkpt lat="44.2836918" lon="8.4349507"><ele>6.0</ele><time>2026-04-04T14:31:04.683Z</time></trkpt><trkpt lat="44.2836176" lon="8.4347739"><ele>6.0</ele><time>2026-04-04T14:31:06.682Z</time></trkpt><trkpt lat="44.2835627" lon="8.4346695"><ele>6.0</ele><time>2026-04-04T14:31:07.682Z</time></trkpt><trkpt lat="44.2835046" lon="8.4345537"><ele>6.0</ele><time>2026-04-04T14:31:08.683Z</time></trkpt><trkpt lat="44.2834424" lon="8.434404"><ele>6.0</ele><time>2026-04-04T14:31:09.683Z</time></trkpt><trkpt lat="44.2833933" lon="8.434243"><ele>6.0</ele><time>2026-04-04T14:31:10.683Z</time></trkpt><trkpt lat="44.2833478" lon="8.4340972"><ele>6.0</ele><time>2026-04-04T14:31:11.683Z</time></trkpt><trkpt lat="44.2833076" lon="8.4339898"><ele>6.0</ele><time>2026-04-04T14:31:12.682Z</time></trkpt><trkpt lat="44.2832625" lon="8.4339219"><ele>6.0</ele><time>2026-04-04T14:31:13.683Z</time></trkpt><trkpt lat="44.2831908" lon="8.4338861"><ele>6.0</ele><time>2026-04-04T14:31:14.683Z</time></trkpt><trkpt lat="44.2831078" lon="8.433823"><ele>6.0</ele><time>2026-04-04T14:31:15.683Z</time></trkpt><trkpt lat="44.2830251" lon="8.4337376"><ele>6.0</ele><time>2026-04-04T14:31:16.683Z</time></trkpt><trkpt lat="44.282945" lon="8.4336499"><ele>6.0</ele><time>2026-04-04T14:31:17.683Z</time></trkpt><trkpt lat="44.2828651" lon="8.4335469"><ele>6.0</ele><time>2026-04-04T14:31:18.683Z</time></trkpt><trkpt lat="44.2828083" lon="8.4334575"><ele>6.333333333333333</ele><time>2026-04-04T14:31:19.683Z</time></trkpt><trkpt lat="44.2827613" lon="8.4333962"><ele>6.666666666666666</ele><time>2026-04-04T14:31:20.683Z</time></trkpt><trkpt lat="44.2826828" lon="8.4333349"><ele>7.0</ele><time>2026-04-04T14:31:22.683Z</time></trkpt><trkpt lat="44.2826005" lon="8.4333951"><ele>7.333333333333333</ele><time>2026-04-04T14:31:24.683Z</time></trkpt><trkpt lat="44.2825359" lon="8.4334562"><ele>7.666666666666666</ele><time>2026-04-04T14:31:26.684Z</time></trkpt><trkpt lat="44.2824755" lon="8.4334835"><ele>8.0</ele><time>2026-04-04T14:31:28.683Z</time></trkpt><trkpt lat="44.2823886" lon="8.4335042"><ele>8.0</ele><time>2026-04-04T14:31:31.684Z</time></trkpt><trkpt lat="44.2823602" lon="8.4335941"><ele>8.0</ele><time>2026-04-04T14:31:34.684Z</time></trkpt><trkpt lat="44.2824083" lon="8.4336749"><ele>8.0</ele><time>2026-04-04T14:31:37.684Z</time></trkpt></trkseg></trk></gpx>